<?xml version='1.0' encoding='UTF-8'?><gpx version="1.1" creator="JPX - https://github.com/jenetics/jpx" xmlns="http://www.topografix.com/GPX/1/1"><trk><trkseg><trkpt lat="41.4057407" lon="13.0516189"><ele>3.9999999999999996</ele><time>2026-04-25T07:29:02.691Z</time></trkpt><trkpt lat="41.4058162" lon="13.0515236"><ele>4.0</ele><time>2026-04-25T07:29:04.691Z</time></trkpt><trkpt lat="41.4058648" lon="13.0514621"><ele>4.0</ele><time>2026-04-25T07:29:05.691Z</time></trkpt><trkpt lat="41.4059183" lon="13.0513898"><ele>4.0</ele><time>2026-04-25T07:29:06.691Z</time></trkpt><trkpt lat="41.4059706" lon="13.0513133"><ele>3.9999999999999996</ele><time>2026-04-25T07:29:07.691Z</time></trkpt><trkpt lat="41.4060404" lon="13.0512337"><ele>4.0</ele><time>2026-04-25T07:29:08.691Z</time></trkpt><trkpt lat="41.4061022" lon="13.0511539"><ele>4.0</ele><time>2026-04-25T07:29:09.691Z</time></trkpt><trkpt lat="41.4061527" lon="13.0510819"><ele>3.9999999999999996</ele><time>2026-04-25T07:29:10.691Z</time></trkpt><trkpt lat="41.4061921" lon="13.051004"><ele>4.0</ele><time>2026-04-25T07:29:11.691Z</time></trkpt><trkpt lat="41.406193" lon="13.050918"><ele>4.0</ele><time>2026-04-25T07:29:12.692Z</time></trkpt><trkpt lat="41.4061644" lon="13.0508412"><ele>3.9999999999999996</ele><time>2026-04-25T07:29:13.691Z</time></trkpt><trkpt lat="41.4061219" lon="13.050761"><ele>4.0</ele><time>2026-04-25T07:29:14.692Z</time></trkpt><trkpt lat="41.4060663" lon="13.0506739"><ele>4.0</ele><time>2026-04-25T07:29:15.691Z</time></trkpt><trkpt lat="41.4060067" lon="13.0506015"><ele>4.2</ele><time>2026-04-25T07:29:16.691Z</time></trkpt><trkpt lat="41.4059416" lon="13.0505215"><ele>4.4</ele><time>2026-04-25T07:29:17.691Z</time></trkpt><trkpt lat="41.4058743" lon="13.0504435"><ele>4.6</ele><time>2026-04-25T07:29:18.691Z</time></trkpt><trkpt lat="41.4058001" lon="13.0503554"><ele>4.8</ele><time>2026-04-25T07:29:19.691Z</time></trkpt><trkpt lat="41.4057286" lon="13.0502565"><ele>5.0</ele><time>2026-04-25T07:29:20.691Z</time></trkpt><trkpt lat="41.4056548" lon="13.0501564"><ele>5.0</ele><time>2026-04-25T07:29:21.691Z</time></trkpt><trkpt lat="41.4055847" lon="13.0500516"><ele>5.0</ele><time>2026-04-25T07:29:22.691Z</time></trkpt><trkpt lat="41.4055187" lon="13.0499632"><ele>5.0</ele><time>2026-04-25T07:29:23.691Z</time></trkpt><trkpt lat="41.4054579" lon="13.0498841"><ele>5.0</ele><time>2026-04-25T07:29:24.691Z</time></trkpt><trkpt lat="41.4054071" lon="13.0498171"><ele>5.0</ele><time>2026-04-25T07:29:25.691Z</time></trkpt><trkpt lat="41.4053638" lon="13.049747"><ele>5.0</ele><time>2026-04-25T07:29:26.691Z</time></trkpt><trkpt lat="41.4053186" lon="13.0496803"><ele>5.333333333333334</ele><time>2026-04-25T07:29:27.691Z</time></trkpt><trkpt lat="41.4052446" lon="13.0495785"><ele>5.666666666666667</ele><time>2026-04-25T07:29:29.691Z</time></trkpt><trkpt lat="41.4052199" lon="13.0494736"><ele>6.0</ele><time>2026-04-25T07:29:31.691Z</time></trkpt><trkpt lat="41.4052873" lon="13.0493767"><ele>6.333333333333334</ele><time>2026-04-25T07:29:33.691Z</time></trkpt><trkpt lat="41.4053429" lon="13.0493257"><ele>6.666666666666667</ele><time>2026-04-25T07:29:34.691Z</time></trkpt><trkpt lat="41.4054132" lon="13.0492563"><ele>7.0</ele><time>2026-04-25T07:29:35.691Z</time></trkpt><trkpt lat="41.4054746" lon="13.0491736"><ele>6.833333333333334</ele><time>2026-04-25T07:29:36.69Z</time></trkpt><trkpt lat="41.4055471" lon="13.0490956"><ele>6.666666666666667</ele><time>2026-04-25T07:29:37.69Z</time></trkpt><trkpt lat="41.4056076" lon="13.049021"><ele>6.5</ele><time>2026-04-25T07:29:38.69Z</time></trkpt><trkpt lat="41.4056745" lon="13.0489483"><ele>6.333333333333334</ele><time>2026-04-25T07:29:39.69Z</time></trkpt><trkpt lat="41.4057485" lon="13.0488756"><ele>6.166666666666667</ele><time>2026-04-25T07:29:40.69Z</time></trkpt><trkpt lat="41.4058215" lon="13.0488042"><ele>6.0</ele><time>2026-04-25T07:29:41.69Z</time></trkpt><trkpt lat="41.4058999" lon="13.048733"><ele>6.0</ele><time>2026-04-25T07:29:42.69Z</time></trkpt><trkpt lat="41.4059567" lon="13.0486373"><ele>6.0</ele><time>2026-04-25T07:29:43.69Z</time></trkpt><trkpt lat="41.4060008" lon="13.0485289"><ele>6.0</ele><time>2026-04-25T07:29:44.69Z</time></trkpt><trkpt lat="41.406056" lon="13.0484242"><ele>6.0</ele><time>2026-04-25T07:29:45.69Z</time></trkpt><trkpt lat="41.4061175" lon="13.0483212"><ele>6.0</ele><time>2026-04-25T07:29:46.69Z</time></trkpt><trkpt lat="41.4061838" lon="13.0482248"><ele>6.199999999999999</ele><time>2026-04-25T07:29:47.69Z</time></trkpt><trkpt lat="41.4062586" lon="13.0481338"><ele>6.3999999999999995</ele><time>2026-04-25T07:29:48.69Z</time></trkpt><trkpt lat="41.4063357" lon="13.0480419"><ele>6.6</ele><time>2026-04-25T07:29:49.69Z</time></trkpt><trkpt lat="41.4064131" lon="13.0479565"><ele>6.8</ele><time>2026-04-25T07:29:50.69Z</time></trkpt><trkpt lat="41.406482" lon="13.0478664"><ele>7.0</ele><time>2026-04-25T07:29:51.69Z</time></trkpt><trkpt lat="41.4065444" lon="13.0477777"><ele>7.000000000000001</ele><time>2026-04-25T07:29:52.69Z</time></trkpt><trkpt lat="41.4066018" lon="13.0476995"><ele>7.0</ele><time>2026-04-25T07:29:53.691Z</time></trkpt><trkpt lat="41.4066562" lon="13.0476244"><ele>7.0</ele><time>2026-04-25T07:29:54.69Z</time></trkpt><trkpt lat="41.4067122" lon="13.0475509"><ele>7.0</ele><time>2026-04-25T07:29:55.69Z</time></trkpt><trkpt lat="41.4067672" lon="13.0474851"><ele>7.000000000000001</ele><time>2026-04-25T07:29:56.691Z</time></trkpt><trkpt lat="41.4068113" lon="13.0474224"><ele>7.0</ele><time>2026-04-25T07:29:57.69Z</time></trkpt><trkpt lat="41.4068858" lon="13.0473266"><ele>6.833333333333334</ele><time>2026-04-25T07:29:59.69Z</time></trkpt><trkpt lat="41.4069582" lon="13.0472785"><ele>6.666666666666667</ele><time>2026-04-25T07:30:01.69Z</time></trkpt><trkpt lat="41.4070315" lon="13.0473251"><ele>6.5</ele><time>2026-04-25T07:30:03.691Z</time></trkpt><trkpt lat="41.4071185" lon="13.0474115"><ele>6.333333333333334</ele><time>2026-04-25T07:30:05.69Z</time></trkpt><trkpt lat="41.4071676" lon="13.0474749"><ele>6.166666666666667</ele><time>2026-04-25T07:30:06.69Z</time></trkpt><trkpt lat="41.4072217" lon="13.0475458"><ele>6.0</ele><time>2026-04-25T07:30:07.69Z</time></trkpt><trkpt lat="41.4072774" lon="13.047622"><ele>6.0</ele><time>2026-04-25T07:30:08.69Z</time></trkpt><trkpt lat="41.4073324" lon="13.0477026"><ele>6.0</ele><time>2026-04-25T07:30:09.69Z</time></trkpt><trkpt lat="41.4073936" lon="13.0477889"><ele>6.0</ele><time>2026-04-25T07:30:10.69Z</time></trkpt><trkpt lat="41.4074492" lon="13.0478781"><ele>6.0</ele><time>2026-04-25T07:30:11.69Z</time></trkpt><trkpt lat="41.4075037" lon="13.0479574"><ele>6.0</ele><time>2026-04-25T07:30:12.69Z</time></trkpt><trkpt lat="41.4075725" lon="13.0480505"><ele>6.0</ele><time>2026-04-25T07:30:13.69Z</time></trkpt><trkpt lat="41.407645" lon="13.0481466"><ele>6.0</ele><time>2026-04-25T07:30:14.69Z</time></trkpt><trkpt lat="41.4077204" lon="13.0482494"><ele>6.0</ele><time>2026-04-25T07:30:15.69Z</time></trkpt><trkpt lat="41.4078037" lon="13.0483513"><ele>6.0</ele><time>2026-04-25T07:30:16.69Z</time></trkpt><trkpt lat="41.4078759" lon="13.0484565"><ele>6.0</ele><time>2026-04-25T07:30:17.69Z</time></trkpt><trkpt lat="41.4079372" lon="13.0485506"><ele>6.0</ele><time>2026-04-25T07:30:18.69Z</time></trkpt><trkpt lat="41.407992" lon="13.0486399"><ele>5.833333333333333</ele><time>2026-04-25T07:30:19.689Z</time></trkpt><trkpt lat="41.4080415" lon="13.0487175"><ele>5.666666666666667</ele><time>2026-04-25T07:30:20.69Z</time></trkpt><trkpt lat="41.4080916" lon="13.0487889"><ele>5.5</ele><time>2026-04-25T07:30:21.69Z</time></trkpt><trkpt lat="41.408152" lon="13.0488647"><ele>5.333333333333334</ele><time>2026-04-25T07:30:22.69Z</time></trkpt><trkpt lat="41.40821" lon="13.0489391"><ele>5.166666666666667</ele><time>2026-04-25T07:30:23.691Z</time></trkpt><trkpt lat="41.408258" lon="13.0490227"><ele>5.0</ele><time>2026-04-25T07:30:24.69Z</time></trkpt><trkpt lat="41.4083122" lon="13.049098"><ele>5.166666666666667</ele><time>2026-04-25T07:30:25.69Z</time></trkpt><trkpt lat="41.4083713" lon="13.0491781"><ele>5.333333333333334</ele><time>2026-04-25T07:30:26.69Z</time></trkpt><trkpt lat="41.4084238" lon="13.0492514"><ele>5.5</ele><time>2026-04-25T07:30:27.69Z</time></trkpt><trkpt lat="41.408466" lon="13.0493149"><ele>5.666666666666667</ele><time>2026-04-25T07:30:28.69Z</time></trkpt><trkpt lat="41.4085286" lon="13.0494038"><ele>5.833333333333333</ele><time>2026-04-25T07:30:30.69Z</time></trkpt><trkpt lat="41.4085944" lon="13.04948"><ele>6.0</ele><time>2026-04-25T07:30:32.69Z</time></trkpt><trkpt lat="41.4086817" lon="13.0495937"><ele>6.0</ele><time>2026-04-25T07:30:34.69Z</time></trkpt><trkpt lat="41.4087275" lon="13.0496752"><ele>6.0</ele><time>2026-04-25T07:30:35.69Z</time></trkpt><trkpt lat="41.4087877" lon="13.0497581"><ele>6.0</ele><time>2026-04-25T07:30:36.69Z</time></trkpt><trkpt lat="41.408851" lon="13.0498402"><ele>6.0</ele><time>2026-04-25T07:30:37.69Z</time></trkpt><trkpt lat="41.4089193" lon="13.0499314"><ele>6.0</ele><time>2026-04-25T07:30:38.69Z</time></trkpt><trkpt lat="41.4089966" lon="13.0500342"><ele>6.75</ele><time>2026-04-25T07:30:39.69Z</time></trkpt><trkpt lat="41.4090728" lon="13.0501378"><ele>7.5</ele><time>2026-04-25T07:30:40.69Z</time></trkpt><trkpt lat="41.4091521" lon="13.0502414"><ele>8.25</ele><time>2026-04-25T07:30:41.691Z</time></trkpt><trkpt lat="41.409235" lon="13.0503536"><ele>9.0</ele><time>2026-04-25T07:30:42.69Z</time></trkpt><trkpt lat="41.4093206" lon="13.0504733"><ele>9.0</ele><time>2026-04-25T07:30:43.69Z</time></trkpt><trkpt lat="41.4094123" lon="13.050591"><ele>9.0</ele><time>2026-04-25T07:30:44.69Z</time></trkpt><trkpt lat="41.4094991" lon="13.0507097"><ele>9.0</ele><time>2026-04-25T07:30:45.69Z</time></trkpt><trkpt lat="41.4095889" lon="13.0508298"><ele>9.0</ele><time>2026-04-25T07:30:46.69Z</time></trkpt><trkpt lat="41.4096838" lon="13.050953"><ele>8.25</ele><time>2026-04-25T07:30:47.69Z</time></trkpt><trkpt lat="41.4097695" lon="13.0510691"><ele>7.5</ele><time>2026-04-25T07:30:48.69Z</time></trkpt><trkpt lat="41.4098479" lon="13.0511769"><ele>6.75</ele><time>2026-04-25T07:30:49.69Z</time></trkpt><trkpt lat="41.4099322" lon="13.0512888"><ele>6.0</ele><time>2026-04-25T07:30:50.69Z</time></trkpt><trkpt lat="41.409988" lon="13.0513975"><ele>6.0</ele><time>2026-04-25T07:30:51.69Z</time></trkpt><trkpt lat="41.4100519" lon="13.0515003"><ele>6.0</ele><time>2026-04-25T07:30:52.69Z</time></trkpt><trkpt lat="41.4101296" lon="13.051605"><ele>6.0</ele><time>2026-04-25T07:30:53.69Z</time></trkpt><trkpt lat="41.4101956" lon="13.0516914"><ele>6.0</ele><time>2026-04-25T07:30:54.69Z</time></trkpt><trkpt lat="41.4102687" lon="13.0517905"><ele>6.0</ele><time>2026-04-25T07:30:55.69Z</time></trkpt><trkpt lat="41.4103398" lon="13.0518885"><ele>6.0</ele><time>2026-04-25T07:30:56.691Z</time></trkpt><trkpt lat="41.4104069" lon="13.0519869"><ele>6.0</ele><time>2026-04-25T07:30:57.69Z</time></trkpt><trkpt lat="41.4104705" lon="13.052086"><ele>6.0</ele><time>2026-04-25T07:30:58.69Z</time></trkpt><trkpt lat="41.4105395" lon="13.0521768"><ele>6.0</ele><time>2026-04-25T07:30:59.69Z</time></trkpt><trkpt lat="41.4106076" lon="13.0522634"><ele>6.0</ele><time>2026-04-25T07:31:00.69Z</time></trkpt><trkpt lat="41.4106709" lon="13.0523536"><ele>6.0</ele><time>2026-04-25T07:31:01.69Z</time></trkpt><trkpt lat="41.4107312" lon="13.0524499"><ele>6.0</ele><time>2026-04-25T07:31:02.69Z</time></trkpt><trkpt lat="41.4107959" lon="13.0525441"><ele>6.0</ele><time>2026-04-25T07:31:03.69Z</time></trkpt><trkpt lat="41.4108617" lon="13.0526334"><ele>6.0</ele><time>2026-04-25T07:31:04.69Z</time></trkpt><trkpt lat="41.410926" lon="13.0527231"><ele>6.0</ele><time>2026-04-25T07:31:05.69Z</time></trkpt><trkpt lat="41.4109903" lon="13.0528062"><ele>6.0</ele><time>2026-04-25T07:31:06.69Z</time></trkpt><trkpt lat="41.4110525" lon="13.0528853"><ele>6.0</ele><time>2026-04-25T07:31:07.69Z</time></trkpt><trkpt lat="41.4111118" lon="13.0529648"><ele>6.0</ele><time>2026-04-25T07:31:08.69Z</time></trkpt><trkpt lat="41.4111686" lon="13.053046"><ele>6.0</ele><time>2026-04-25T07:31:09.69Z</time></trkpt><trkpt lat="41.4112255" lon="13.0531238"><ele>6.0</ele><time>2026-04-25T07:31:10.69Z</time></trkpt><trkpt lat="41.4112869" lon="13.0531989"><ele>6.0</ele><time>2026-04-25T07:31:11.69Z</time></trkpt><trkpt lat="41.4113473" lon="13.0532795"><ele>6.199999999999999</ele><time>2026-04-25T07:31:12.691Z</time></trkpt><trkpt lat="41.4114102" lon="13.0533651"><ele>6.3999999999999995</ele><time>2026-04-25T07:31:13.69Z</time></trkpt><trkpt lat="41.4114722" lon="13.0534465"><ele>6.6</ele><time>2026-04-25T07:31:14.69Z</time></trkpt><trkpt lat="41.4115525" lon="13.0535457"><ele>6.8</ele><time>2026-04-25T07:31:15.69Z</time></trkpt><trkpt lat="41.4116622" lon="13.053672"><ele>7.0</ele><time>2026-04-25T07:31:16.69Z</time></trkpt><trkpt lat="41.411764" lon="13.0538099"><ele>7.0</ele><time>2026-04-25T07:31:17.691Z</time></trkpt><trkpt lat="41.4118671" lon="13.0539521"><ele>7.0</ele><time>2026-04-25T07:31:18.69Z</time></trkpt><trkpt lat="41.4119797" lon="13.0541094"><ele>7.0</ele><time>2026-04-25T07:31:19.69Z</time></trkpt><trkpt lat="41.4121032" lon="13.054275"><ele>6.333333333333334</ele><time>2026-04-25T07:31:20.69Z</time></trkpt><trkpt lat="41.4122301" lon="13.0544571"><ele>5.666666666666667</ele><time>2026-04-25T07:31:21.69Z</time></trkpt><trkpt lat="41.4123585" lon="13.0546484"><ele>5.0</ele><time>2026-04-25T07:31:22.69Z</time></trkpt><trkpt lat="41.4124848" lon="13.0548346"><ele>5.666666666666667</ele><time>2026-04-25T07:31:23.69Z</time></trkpt><trkpt lat="41.4126147" lon="13.0550133"><ele>6.333333333333334</ele><time>2026-04-25T07:31:24.69Z</time></trkpt><trkpt lat="41.4127506" lon="13.0552029"><ele>7.0</ele><time>2026-04-25T07:31:25.69Z</time></trkpt><trkpt lat="41.4128822" lon="13.0553921"><ele>6.0</ele><time>2026-04-25T07:31:26.691Z</time></trkpt><trkpt lat="41.413015" lon="13.0555817"><ele>5.0</ele><time>2026-04-25T07:31:27.691Z</time></trkpt><trkpt lat="41.4131548" lon="13.0557674"><ele>4.0</ele><time>2026-04-25T07:31:28.69Z</time></trkpt><trkpt lat="41.4132948" lon="13.0559543"><ele>4.0</ele><time>2026-04-25T07:31:29.69Z</time></trkpt><trkpt lat="41.4134334" lon="13.0561429"><ele>4.0</ele><time>2026-04-25T07:31:30.69Z</time></trkpt><trkpt lat="41.4135718" lon="13.0563338"><ele>4.0</ele><time>2026-04-25T07:31:31.69Z</time></trkpt><trkpt lat="41.4137039" lon="13.0565126"><ele>4.0</ele><time>2026-04-25T07:31:32.69Z</time></trkpt><trkpt lat="41.413836" lon="13.0566961"><ele>4.0</ele><time>2026-04-25T07:31:33.69Z</time></trkpt><trkpt lat="41.4139648" lon="13.056872"><ele>4.0</ele><time>2026-04-25T07:31:34.69Z</time></trkpt><trkpt lat="41.4140867" lon="13.0570465"><ele>4.0</ele><time>2026-04-25T07:31:35.69Z</time></trkpt><trkpt lat="41.4142088" lon="13.0572175"><ele>4.0</ele><time>2026-04-25T07:31:36.69Z</time></trkpt><trkpt lat="41.414332" lon="13.0573903"><ele>4.0</ele><time>2026-04-25T07:31:37.69Z</time></trkpt><trkpt lat="41.4144548" lon="13.057564"><ele>4.0</ele><time>2026-04-25T07:31:38.69Z</time></trkpt><trkpt lat="41.4145719" lon="13.0577334"><ele>4.0</ele><time>2026-04-25T07:31:39.69Z</time></trkpt><trkpt lat="41.4146936" lon="13.057906"><ele>4.0</ele><time>2026-04-25T07:31:40.69Z</time></trkpt><trkpt lat="41.4148142" lon="13.0580686"><ele>4.0</ele><time>2026-04-25T07:31:41.69Z</time></trkpt><trkpt lat="41.4149327" lon="13.0582312"><ele>4.0</ele><time>2026-04-25T07:31:42.69Z</time></trkpt><trkpt lat="41.4150502" lon="13.0583943"><ele>4.0</ele><time>2026-04-25T07:31:43.69Z</time></trkpt><trkpt lat="41.4151647" lon="13.0585592"><ele>4.0</ele><time>2026-04-25T07:31:44.69Z</time></trkpt><trkpt lat="41.4152751" lon="13.0587202"><ele>4.0</ele><time>2026-04-25T07:31:45.69Z</time></trkpt><trkpt lat="41.415386" lon="13.0588782"><ele>4.0</ele><time>2026-04-25T07:31:46.69Z</time></trkpt><trkpt lat="41.4154965" lon="13.0590339"><ele>4.0</ele><time>2026-04-25T07:31:47.69Z</time></trkpt><trkpt lat="41.4156053" lon="13.0591829"><ele>4.0</ele><time>2026-04-25T07:31:48.691Z</time></trkpt><trkpt lat="41.415705" lon="13.0593253"><ele>4.0</ele><time>2026-04-25T07:31:49.69Z</time></trkpt><trkpt lat="41.415799" lon="13.0594566"><ele>4.0</ele><time>2026-04-25T07:31:50.69Z</time></trkpt><trkpt lat="41.415888" lon="13.0595795"><ele>4.0</ele><time>2026-04-25T07:31:51.69Z</time></trkpt><trkpt lat="41.4159761" lon="13.0596905"><ele>4.0</ele><time>2026-04-25T07:31:52.69Z</time></trkpt><trkpt lat="41.4160543" lon="13.0598007"><ele>4.0</ele><time>2026-04-25T07:31:53.69Z</time></trkpt><trkpt lat="41.416128" lon="13.0599065"><ele>4.0</ele><time>2026-04-25T07:31:54.69Z</time></trkpt><trkpt lat="41.4162045" lon="13.0600015"><ele>4.0</ele><time>2026-04-25T07:31:55.69Z</time></trkpt><trkpt lat="41.4162752" lon="13.060097"><ele>3.9999999999999996</ele><time>2026-04-25T07:31:56.69Z</time></trkpt><trkpt lat="41.4163435" lon="13.0601874"><ele>4.0</ele><time>2026-04-25T07:31:57.69Z</time></trkpt><trkpt lat="41.4164056" lon="13.0602688"><ele>4.0</ele><time>2026-04-25T07:31:58.69Z</time></trkpt><trkpt lat="41.4164632" lon="13.0603478"><ele>4.0</ele><time>2026-04-25T07:31:59.69Z</time></trkpt><trkpt lat="41.416512" lon="13.0604213"><ele>3.9999999999999996</ele><time>2026-04-25T07:32:00.69Z</time></trkpt><trkpt lat="41.4165606" lon="13.0604875"><ele>4.0</ele><time>2026-04-25T07:32:01.69Z</time></trkpt><trkpt lat="41.4166042" lon="13.0605503"><ele>3.9999999999999996</ele><time>2026-04-25T07:32:02.69Z</time></trkpt><trkpt lat="41.4166789" lon="13.0606601"><ele>4.0</ele><time>2026-04-25T07:32:04.69Z</time></trkpt><trkpt lat="41.4167376" lon="13.0607401"><ele>4.0</ele><time>2026-04-25T07:32:06.69Z</time></trkpt><trkpt lat="41.416781" lon="13.0608021"><ele>4.0</ele><time>2026-04-25T07:32:08.69Z</time></trkpt><trkpt lat="41.4168217" lon="13.0608679"><ele>3.9999999999999996</ele><time>2026-04-25T07:32:11.69Z</time></trkpt><trkpt lat="41.4168845" lon="13.0609431"><ele>4.0</ele><time>2026-04-25T07:32:41.69Z</time></trkpt><trkpt lat="41.4169687" lon="13.0610555"><ele>3.9999999999999996</ele><time>2026-04-25T07:32:43.69Z</time></trkpt><trkpt lat="41.4170111" lon="13.0611188"><ele>4.0</ele><time>2026-04-25T07:32:44.69Z</time></trkpt><trkpt lat="41.4170615" lon="13.0611787"><ele>4.0</ele><time>2026-04-25T07:32:45.69Z</time></trkpt><trkpt lat="41.4171158" lon="13.0612424"><ele>4.0</ele><time>2026-04-25T07:32:46.69Z</time></trkpt><trkpt lat="41.4171732" lon="13.0612884"><ele>3.9999999999999996</ele><time>2026-04-25T07:32:47.69Z</time></trkpt><trkpt lat="41.4172892" lon="13.0612889"><ele>4.0</ele><time>2026-04-25T07:32:49.69Z</time></trkpt><trkpt lat="41.4173462" lon="13.0612419"><ele>4.0</ele><time>2026-04-25T07:32:50.69Z</time></trkpt><trkpt lat="41.41741" lon="13.0611805"><ele>4.0</ele><time>2026-04-25T07:32:51.691Z</time></trkpt><trkpt lat="41.417474" lon="13.0610847"><ele>4.0</ele><time>2026-04-25T07:32:52.69Z</time></trkpt><trkpt lat="41.4175602" lon="13.0609735"><ele>4.0</ele><time>2026-04-25T07:32:53.69Z</time></trkpt><trkpt lat="41.4176474" lon="13.0608468"><ele>4.0</ele><time>2026-04-25T07:32:54.69Z</time></trkpt><trkpt lat="41.4177353" lon="13.0607391"><ele>4.0</ele><time>2026-04-25T07:32:55.69Z</time></trkpt><trkpt lat="41.4178314" lon="13.060613"><ele>4.0</ele><time>2026-04-25T07:32:56.69Z</time></trkpt><trkpt lat="41.4179324" lon="13.0604778"><ele>4.0</ele><time>2026-04-25T07:32:57.69Z</time></trkpt><trkpt lat="41.4180387" lon="13.0603363"><ele>4.0</ele><time>2026-04-25T07:32:58.69Z</time></trkpt><trkpt lat="41.4181462" lon="13.0601978"><ele>4.0</ele><time>2026-04-25T07:32:59.69Z</time></trkpt><trkpt lat="41.4182665" lon="13.0600513"><ele>4.0</ele><time>2026-04-25T07:33:00.69Z</time></trkpt><trkpt lat="41.4183899" lon="13.0598985"><ele>4.0</ele><time>2026-04-25T07:33:01.69Z</time></trkpt><trkpt lat="41.4185155" lon="13.0597356"><ele>4.0</ele><time>2026-04-25T07:33:02.69Z</time></trkpt><trkpt lat="41.4186377" lon="13.0595806"><ele>4.0</ele><time>2026-04-25T07:33:03.69Z</time></trkpt><trkpt lat="41.4187689" lon="13.05942"><ele>4.0</ele><time>2026-04-25T07:33:04.69Z</time></trkpt><trkpt lat="41.4189011" lon="13.0592491"><ele>4.0</ele><time>2026-04-25T07:33:05.69Z</time></trkpt><trkpt lat="41.4190423" lon="13.0590724"><ele>4.0</ele><time>2026-04-25T07:33:06.69Z</time></trkpt><trkpt lat="41.4191797" lon="13.0588963"><ele>4.0</ele><time>2026-04-25T07:33:07.69Z</time></trkpt><trkpt lat="41.4193158" lon="13.0587197"><ele>4.0</ele><time>2026-04-25T07:33:08.69Z</time></trkpt><trkpt lat="41.4194533" lon="13.0585378"><ele>4.0</ele><time>2026-04-25T07:33:09.69Z</time></trkpt><trkpt lat="41.4195941" lon="13.05835"><ele>4.0</ele><time>2026-04-25T07:33:10.691Z</time></trkpt><trkpt lat="41.4197413" lon="13.0581587"><ele>4.0</ele><time>2026-04-25T07:33:11.69Z</time></trkpt><trkpt lat="41.4198882" lon="13.0579769"><ele>4.0</ele><time>2026-04-25T07:33:12.69Z</time></trkpt><trkpt lat="41.4200363" lon="13.0577856"><ele>4.0</ele><time>2026-04-25T07:33:13.69Z</time></trkpt><trkpt lat="41.4201856" lon="13.0575954"><ele>3.6666666666666665</ele><time>2026-04-25T07:33:14.69Z</time></trkpt><trkpt lat="41.4203339" lon="13.0574023"><ele>3.333333333333333</ele><time>2026-04-25T07:33:15.69Z</time></trkpt><trkpt lat="41.4204804" lon="13.0572094"><ele>3.0</ele><time>2026-04-25T07:33:16.69Z</time></trkpt><trkpt lat="41.4206271" lon="13.0570157"><ele>3.0</ele><time>2026-04-25T07:33:17.69Z</time></trkpt><trkpt lat="41.4207755" lon="13.0568238"><ele>3.0</ele><time>2026-04-25T07:33:18.69Z</time></trkpt><trkpt lat="41.4209255" lon="13.0566314"><ele>3.0</ele><time>2026-04-25T07:33:19.69Z</time></trkpt><trkpt lat="41.4210753" lon="13.0564409"><ele>2.6666666666666665</ele><time>2026-04-25T07:33:20.69Z</time></trkpt><trkpt lat="41.4212258" lon="13.0562462"><ele>2.333333333333333</ele><time>2026-04-25T07:33:21.69Z</time></trkpt><trkpt lat="41.421378" lon="13.056048"><ele>2.0</ele><time>2026-04-25T07:33:22.69Z</time></trkpt><trkpt lat="41.4215298" lon="13.0558548"><ele>3.333333333333333</ele><time>2026-04-25T07:33:23.69Z</time></trkpt><trkpt lat="41.4216823" lon="13.0556608"><ele>4.666666666666667</ele><time>2026-04-25T07:33:24.69Z</time></trkpt><trkpt lat="41.4218339" lon="13.0554686"><ele>6.0</ele><time>2026-04-25T07:33:25.691Z</time></trkpt><trkpt lat="41.4219871" lon="13.0552755"><ele>6.0</ele><time>2026-04-25T07:33:26.69Z</time></trkpt><trkpt lat="41.422135" lon="13.0550707"><ele>6.0</ele><time>2026-04-25T07:33:27.69Z</time></trkpt><trkpt lat="41.4222841" lon="13.054872"><ele>6.0</ele><time>2026-04-25T07:33:28.69Z</time></trkpt><trkpt lat="41.4224319" lon="13.0546799"><ele>5.666666666666667</ele><time>2026-04-25T07:33:29.69Z</time></trkpt><trkpt lat="41.422585" lon="13.0544859"><ele>5.333333333333334</ele><time>2026-04-25T07:33:30.69Z</time></trkpt><trkpt lat="41.4227355" lon="13.0542883"><ele>5.0</ele><time>2026-04-25T07:33:31.69Z</time></trkpt><trkpt lat="41.4228877" lon="13.0540934"><ele>4.666666666666667</ele><time>2026-04-25T07:33:32.69Z</time></trkpt><trkpt lat="41.423042" lon="13.0538952"><ele>4.333333333333333</ele><time>2026-04-25T07:33:33.69Z</time></trkpt><trkpt lat="41.4231926" lon="13.0536979"><ele>4.0</ele><time>2026-04-25T07:33:34.69Z</time></trkpt><trkpt lat="41.4233442" lon="13.0534968"><ele>4.0</ele><time>2026-04-25T07:33:35.69Z</time></trkpt><trkpt lat="41.4235012" lon="13.0532961"><ele>4.0</ele><time>2026-04-25T07:33:36.69Z</time></trkpt><trkpt lat="41.42366" lon="13.0530865"><ele>4.0</ele><time>2026-04-25T07:33:37.69Z</time></trkpt><trkpt lat="41.4238093" lon="13.0528897"><ele>4.666666666666666</ele><time>2026-04-25T07:33:38.69Z</time></trkpt><trkpt lat="41.4239564" lon="13.0526958"><ele>5.333333333333333</ele><time>2026-04-25T07:33:39.69Z</time></trkpt><trkpt lat="41.4241038" lon="13.0525056"><ele>6.0</ele><time>2026-04-25T07:33:40.69Z</time></trkpt><trkpt lat="41.4242527" lon="13.0523155"><ele>6.0</ele><time>2026-04-25T07:33:41.69Z</time></trkpt><trkpt lat="41.4243995" lon="13.0521212"><ele>6.0</ele><time>2026-04-25T07:33:42.69Z</time></trkpt><trkpt lat="41.4245487" lon="13.0519299"><ele>6.0</ele><time>2026-04-25T07:33:43.69Z</time></trkpt><trkpt lat="41.4246979" lon="13.0517395"><ele>5.333333333333333</ele><time>2026-04-25T07:33:44.69Z</time></trkpt><trkpt lat="41.4248496" lon="13.0515479"><ele>4.666666666666666</ele><time>2026-04-25T07:33:45.69Z</time></trkpt><trkpt lat="41.4249929" lon="13.051361"><ele>4.0</ele><time>2026-04-25T07:33:46.69Z</time></trkpt><trkpt lat="41.4251258" lon="13.0511938"><ele>4.0</ele><time>2026-04-25T07:33:47.69Z</time></trkpt><trkpt lat="41.425267" lon="13.0510062"><ele>4.0</ele><time>2026-04-25T07:33:48.69Z</time></trkpt><trkpt lat="41.425411" lon="13.0508223"><ele>4.0</ele><time>2026-04-25T07:33:49.69Z</time></trkpt><trkpt lat="41.4255566" lon="13.0506404"><ele>4.0</ele><time>2026-04-25T07:33:50.69Z</time></trkpt><trkpt lat="41.4256959" lon="13.0504641"><ele>4.0</ele><time>2026-04-25T07:33:51.69Z</time></trkpt><trkpt lat="41.4258293" lon="13.0502953"><ele>4.0</ele><time>2026-04-25T07:33:52.69Z</time></trkpt><trkpt lat="41.425958" lon="13.0501328"><ele>4.0</ele><time>2026-04-25T07:33:53.69Z</time></trkpt><trkpt lat="41.4260781" lon="13.0499783"><ele>4.0</ele><time>2026-04-25T07:33:54.69Z</time></trkpt><trkpt lat="41.4261892" lon="13.0498302"><ele>4.0</ele><time>2026-04-25T07:33:55.69Z</time></trkpt><trkpt lat="41.4262968" lon="13.0496873"><ele>4.5</ele><time>2026-04-25T07:33:56.69Z</time></trkpt><trkpt lat="41.4263958" lon="13.0495558"><ele>5.0</ele><time>2026-04-25T07:33:57.69Z</time></trkpt><trkpt lat="41.4264858" lon="13.0494418"><ele>5.5</ele><time>2026-04-25T07:33:58.69Z</time></trkpt><trkpt lat="41.4265739" lon="13.049327"><ele>6.0</ele><time>2026-04-25T07:33:59.69Z</time></trkpt><trkpt lat="41.4266439" lon="13.0492359"><ele>6.0</ele><time>2026-04-25T07:34:00.691Z</time></trkpt><trkpt lat="41.4267179" lon="13.0491753"><ele>6.0</ele><time>2026-04-25T07:34:01.69Z</time></trkpt><trkpt lat="41.4267918" lon="13.04916"><ele>6.0</ele><time>2026-04-25T07:34:02.69Z</time></trkpt><trkpt lat="41.4268526" lon="13.0491886"><ele>6.0</ele><time>2026-04-25T07:34:03.69Z</time></trkpt><trkpt lat="41.426913" lon="13.0492527"><ele>6.0</ele><time>2026-04-25T07:34:04.691Z</time></trkpt><trkpt lat="41.4269742" lon="13.049354"><ele>6.0</ele><time>2026-04-25T07:34:05.69Z</time></trkpt><trkpt lat="41.4270432" lon="13.0494483"><ele>6.0</ele><time>2026-04-25T07:34:06.69Z</time></trkpt><trkpt lat="41.4271161" lon="13.0495556"><ele>6.0</ele><time>2026-04-25T07:34:07.69Z</time></trkpt><trkpt lat="41.4271965" lon="13.0496669"><ele>6.0</ele><time>2026-04-25T07:34:08.69Z</time></trkpt><trkpt lat="41.4272867" lon="13.0497929"><ele>6.0</ele><time>2026-04-25T07:34:09.69Z</time></trkpt><trkpt lat="41.4273836" lon="13.0499311"><ele>5.5</ele><time>2026-04-25T07:34:10.69Z</time></trkpt><trkpt lat="41.4274781" lon="13.0500674"><ele>5.0</ele><time>2026-04-25T07:34:11.69Z</time></trkpt><trkpt lat="41.4275769" lon="13.0502049"><ele>4.5</ele><time>2026-04-25T07:34:12.69Z</time></trkpt><trkpt lat="41.427679" lon="13.0503403"><ele>4.0</ele><time>2026-04-25T07:34:13.69Z</time></trkpt><trkpt lat="41.427791" lon="13.0504859"><ele>4.0</ele><time>2026-04-25T07:34:14.69Z</time></trkpt><trkpt lat="41.4279004" lon="13.0506397"><ele>4.0</ele><time>2026-04-25T07:34:15.69Z</time></trkpt><trkpt lat="41.4280173" lon="13.0508061"><ele>4.0</ele><time>2026-04-25T07:34:16.69Z</time></trkpt><trkpt lat="41.4281357" lon="13.0509777"><ele>4.0</ele><time>2026-04-25T07:34:17.69Z</time></trkpt><trkpt lat="41.4282601" lon="13.0511557"><ele>4.0</ele><time>2026-04-25T07:34:18.69Z</time></trkpt><trkpt lat="41.428381" lon="13.0513239"><ele>4.0</ele><time>2026-04-25T07:34:19.69Z</time></trkpt><trkpt lat="41.4285055" lon="13.0515033"><ele>4.333333333333333</ele><time>2026-04-25T07:34:20.69Z</time></trkpt><trkpt lat="41.4286352" lon="13.0516857"><ele>4.666666666666667</ele><time>2026-04-25T07:34:21.69Z</time></trkpt><trkpt lat="41.4287666" lon="13.0518714"><ele>5.0</ele><time>2026-04-25T07:34:22.69Z</time></trkpt><trkpt lat="41.4288965" lon="13.0520616"><ele>4.666666666666667</ele><time>2026-04-25T07:34:23.69Z</time></trkpt><trkpt lat="41.4290291" lon="13.052249"><ele>4.333333333333333</ele><time>2026-04-25T07:34:24.69Z</time></trkpt><trkpt lat="41.4291641" lon="13.0524369"><ele>4.0</ele><time>2026-04-25T07:34:25.69Z</time></trkpt><trkpt lat="41.429297" lon="13.0526227"><ele>4.0</ele><time>2026-04-25T07:34:26.69Z</time></trkpt><trkpt lat="41.4294314" lon="13.0528088"><ele>4.0</ele><time>2026-04-25T07:34:27.69Z</time></trkpt><trkpt lat="41.4295657" lon="13.0529979"><ele>4.0</ele><time>2026-04-25T07:34:28.691Z</time></trkpt><trkpt lat="41.4297018" lon="13.0531894"><ele>4.0</ele><time>2026-04-25T07:34:29.69Z</time></trkpt><trkpt lat="41.4298352" lon="13.0533773"><ele>4.0</ele><time>2026-04-25T07:34:30.69Z</time></trkpt><trkpt lat="41.4299686" lon="13.053563"><ele>4.0</ele><time>2026-04-25T07:34:31.69Z</time></trkpt><trkpt lat="41.4300989" lon="13.0537461"><ele>4.0</ele><time>2026-04-25T07:34:32.69Z</time></trkpt><trkpt lat="41.430231" lon="13.0539283"><ele>4.0</ele><time>2026-04-25T07:34:33.69Z</time></trkpt><trkpt lat="41.4303645" lon="13.0541111"><ele>4.0</ele><time>2026-04-25T07:34:34.69Z</time></trkpt><trkpt lat="41.4304986" lon="13.0542943"><ele>3.6666666666666665</ele><time>2026-04-25T07:34:35.69Z</time></trkpt><trkpt lat="41.430631" lon="13.054476"><ele>3.333333333333333</ele><time>2026-04-25T07:34:36.69Z</time></trkpt><trkpt lat="41.4307643" lon="13.0546603"><ele>3.0</ele><time>2026-04-25T07:34:37.69Z</time></trkpt><trkpt lat="41.4308984" lon="13.0548464"><ele>3.333333333333333</ele><time>2026-04-25T07:34:38.69Z</time></trkpt><trkpt lat="41.4310348" lon="13.0550326"><ele>3.6666666666666665</ele><time>2026-04-25T07:34:39.691Z</time></trkpt><trkpt lat="41.4311727" lon="13.0552166"><ele>4.0</ele><time>2026-04-25T07:34:40.69Z</time></trkpt><trkpt lat="41.4313107" lon="13.0554034"><ele>4.0</ele><time>2026-04-25T07:34:41.69Z</time></trkpt><trkpt lat="41.431448" lon="13.0555914"><ele>4.0</ele><time>2026-04-25T07:34:42.69Z</time></trkpt><trkpt lat="41.4315818" lon="13.0557802"><ele>4.0</ele><time>2026-04-25T07:34:43.69Z</time></trkpt><trkpt lat="41.4317123" lon="13.0559677"><ele>4.0</ele><time>2026-04-25T07:34:44.69Z</time></trkpt><trkpt lat="41.4318415" lon="13.0561503"><ele>4.0</ele><time>2026-04-25T07:34:45.69Z</time></trkpt><trkpt lat="41.4319695" lon="13.0563283"><ele>4.0</ele><time>2026-04-25T07:34:46.69Z</time></trkpt><trkpt lat="41.4320957" lon="13.0565068"><ele>3.6666666666666665</ele><time>2026-04-25T07:34:47.69Z</time></trkpt><trkpt lat="41.4322198" lon="13.0566831"><ele>3.333333333333333</ele><time>2026-04-25T07:34:48.69Z</time></trkpt><trkpt lat="41.432344" lon="13.0568569"><ele>3.0</ele><time>2026-04-25T07:34:49.69Z</time></trkpt><trkpt lat="41.4324688" lon="13.0570301"><ele>3.0</ele><time>2026-04-25T07:34:50.69Z</time></trkpt><trkpt lat="41.4325953" lon="13.0572031"><ele>3.0</ele><time>2026-04-25T07:34:51.69Z</time></trkpt><trkpt lat="41.4327175" lon="13.057375"><ele>3.0</ele><time>2026-04-25T07:34:52.69Z</time></trkpt><trkpt lat="41.4328406" lon="13.0575441"><ele>3.333333333333333</ele><time>2026-04-25T07:34:53.69Z</time></trkpt><trkpt lat="41.4329612" lon="13.0577104"><ele>3.6666666666666665</ele><time>2026-04-25T07:34:54.69Z</time></trkpt><trkpt lat="41.4330825" lon="13.0578816"><ele>4.0</ele><time>2026-04-25T07:34:55.69Z</time></trkpt><trkpt lat="41.4332018" lon="13.0580497"><ele>4.0</ele><time>2026-04-25T07:34:56.69Z</time></trkpt><trkpt lat="41.4333208" lon="13.058221"><ele>4.0</ele><time>2026-04-25T07:34:57.69Z</time></trkpt><trkpt lat="41.4334409" lon="13.0583944"><ele>4.0</ele><time>2026-04-25T07:34:58.69Z</time></trkpt><trkpt lat="41.4335576" lon="13.0585701"><ele>4.0</ele><time>2026-04-25T07:34:59.69Z</time></trkpt><trkpt lat="41.4336774" lon="13.0587438"><ele>4.0</ele><time>2026-04-25T07:35:00.69Z</time></trkpt><trkpt lat="41.4337998" lon="13.0589148"><ele>4.0</ele><time>2026-04-25T07:35:01.691Z</time></trkpt><trkpt lat="41.4339255" lon="13.0590943"><ele>3.6666666666666665</ele><time>2026-04-25T07:35:02.69Z</time></trkpt><trkpt lat="41.4340626" lon="13.0592866"><ele>3.333333333333333</ele><time>2026-04-25T07:35:03.69Z</time></trkpt><trkpt lat="41.4342151" lon="13.0594894"><ele>3.0</ele><time>2026-04-25T07:35:04.69Z</time></trkpt><trkpt lat="41.4343667" lon="13.0597016"><ele>3.0</ele><time>2026-04-25T07:35:05.69Z</time></trkpt><trkpt lat="41.4345127" lon="13.0599125"><ele>3.0</ele><time>2026-04-25T07:35:06.69Z</time></trkpt><trkpt lat="41.4346572" lon="13.0601332"><ele>3.0</ele><time>2026-04-25T07:35:07.69Z</time></trkpt><trkpt lat="41.4347971" lon="13.0603416"><ele>3.333333333333333</ele><time>2026-04-25T07:35:08.69Z</time></trkpt><trkpt lat="41.4349358" lon="13.0605555"><ele>3.6666666666666665</ele><time>2026-04-25T07:35:09.69Z</time></trkpt><trkpt lat="41.4350775" lon="13.0607809"><ele>4.0</ele><time>2026-04-25T07:35:10.69Z</time></trkpt><trkpt lat="41.4352223" lon="13.0610096"><ele>3.0</ele><time>2026-04-25T07:35:11.69Z</time></trkpt><trkpt lat="41.4353886" lon="13.0612496"><ele>2.0</ele><time>2026-04-25T07:35:12.69Z</time></trkpt><trkpt lat="41.435548" lon="13.0614935"><ele>2.0</ele><time>2026-04-25T07:35:13.69Z</time></trkpt><trkpt lat="41.4356966" lon="13.0617138"><ele>2.0</ele><time>2026-04-25T07:35:14.69Z</time></trkpt><trkpt lat="41.4358496" lon="13.0619303"><ele>2.0</ele><time>2026-04-25T07:35:15.69Z</time></trkpt><trkpt lat="41.4360124" lon="13.0621585"><ele>2.0</ele><time>2026-04-25T07:35:16.69Z</time></trkpt><trkpt lat="41.4361721" lon="13.0623872"><ele>2.0</ele><time>2026-04-25T07:35:17.69Z</time></trkpt><trkpt lat="41.4363266" lon="13.0626107"><ele>2.0</ele><time>2026-04-25T07:35:18.69Z</time></trkpt><trkpt lat="41.4364772" lon="13.0628287"><ele>2.0</ele><time>2026-04-25T07:35:19.69Z</time></trkpt><trkpt lat="41.4366418" lon="13.0630678"><ele>2.0</ele><time>2026-04-25T07:35:20.69Z</time></trkpt><trkpt lat="41.4367453" lon="13.0632558"><ele>2.0</ele><time>2026-04-25T07:35:21.69Z</time></trkpt><trkpt lat="41.4371444" lon="13.0635386"><ele>2.0</ele><time>2026-04-25T07:35:22.69Z</time></trkpt><trkpt lat="41.4372938" lon="13.0637482"><ele>2.0</ele><time>2026-04-25T07:35:23.69Z</time></trkpt><trkpt lat="41.4374441" lon="13.0639585"><ele>2.0</ele><time>2026-04-25T07:35:24.69Z</time></trkpt><trkpt lat="41.4375931" lon="13.0641601"><ele>2.0</ele><time>2026-04-25T07:35:25.69Z</time></trkpt><trkpt lat="41.4377402" lon="13.0643615"><ele>2.0</ele><time>2026-04-25T07:35:26.69Z</time></trkpt><trkpt lat="41.4378853" lon="13.0645686"><ele>2.0</ele><time>2026-04-25T07:35:27.69Z</time></trkpt><trkpt lat="41.4380316" lon="13.064776"><ele>2.0</ele><time>2026-04-25T07:35:28.69Z</time></trkpt><trkpt lat="41.4381844" lon="13.0649857"><ele>2.0</ele><time>2026-04-25T07:35:29.69Z</time></trkpt><trkpt lat="41.4383366" lon="13.0651938"><ele>2.0</ele><time>2026-04-25T07:35:30.69Z</time></trkpt><trkpt lat="41.4384871" lon="13.0654056"><ele>2.0</ele><time>2026-04-25T07:35:31.69Z</time></trkpt><trkpt lat="41.438637" lon="13.065616"><ele>2.0</ele><time>2026-04-25T07:35:32.69Z</time></trkpt><trkpt lat="41.4387866" lon="13.0658243"><ele>2.0</ele><time>2026-04-25T07:35:33.69Z</time></trkpt><trkpt lat="41.4389366" lon="13.0660342"><ele>2.333333333333333</ele><time>2026-04-25T07:35:34.691Z</time></trkpt><trkpt lat="41.4390861" lon="13.0662489"><ele>2.6666666666666665</ele><time>2026-04-25T07:35:35.69Z</time></trkpt><trkpt lat="41.4392417" lon="13.0664615"><ele>3.0</ele><time>2026-04-25T07:35:36.69Z</time></trkpt><trkpt lat="41.4393934" lon="13.0666649"><ele>3.0</ele><time>2026-04-25T07:35:37.69Z</time></trkpt><trkpt lat="41.4395446" lon="13.0668696"><ele>3.0</ele><time>2026-04-25T07:35:38.69Z</time></trkpt><trkpt lat="41.4396941" lon="13.0670691"><ele>3.0</ele><time>2026-04-25T07:35:39.69Z</time></trkpt><trkpt lat="41.4398437" lon="13.067279"><ele>3.0</ele><time>2026-04-25T07:35:40.69Z</time></trkpt><trkpt lat="41.4399914" lon="13.0674893"><ele>3.0</ele><time>2026-04-25T07:35:41.69Z</time></trkpt><trkpt lat="41.4401442" lon="13.0676975"><ele>3.0</ele><time>2026-04-25T07:35:42.69Z</time></trkpt><trkpt lat="41.4402907" lon="13.0679088"><ele>3.0</ele><time>2026-04-25T07:35:43.69Z</time></trkpt><trkpt lat="41.4404413" lon="13.0681208"><ele>3.0</ele><time>2026-04-25T07:35:44.69Z</time></trkpt><trkpt lat="41.4405935" lon="13.0683287"><ele>3.0</ele><time>2026-04-25T07:35:45.69Z</time></trkpt><trkpt lat="41.4407487" lon="13.0685394"><ele>3.0</ele><time>2026-04-25T07:35:46.691Z</time></trkpt><trkpt lat="41.4409067" lon="13.0687496"><ele>3.0</ele><time>2026-04-25T07:35:47.69Z</time></trkpt><trkpt lat="41.441059" lon="13.0689559"><ele>3.0</ele><time>2026-04-25T07:35:48.69Z</time></trkpt><trkpt lat="41.4412134" lon="13.069171"><ele>3.333333333333333</ele><time>2026-04-25T07:35:49.69Z</time></trkpt><trkpt lat="41.4413683" lon="13.0693876"><ele>3.6666666666666665</ele><time>2026-04-25T07:35:50.69Z</time></trkpt><trkpt lat="41.4415212" lon="13.0696014"><ele>4.0</ele><time>2026-04-25T07:35:51.69Z</time></trkpt><trkpt lat="41.4416752" lon="13.0698202"><ele>3.0</ele><time>2026-04-25T07:35:52.69Z</time></trkpt><trkpt lat="41.4418316" lon="13.0700375"><ele>2.0</ele><time>2026-04-25T07:35:53.69Z</time></trkpt><trkpt lat="41.4419902" lon="13.070256"><ele>2.0</ele><time>2026-04-25T07:35:54.69Z</time></trkpt><trkpt lat="41.4421489" lon="13.0704773"><ele>2.0</ele><time>2026-04-25T07:35:55.691Z</time></trkpt><trkpt lat="41.4423101" lon="13.0707029"><ele>2.0</ele><time>2026-04-25T07:35:56.69Z</time></trkpt><trkpt lat="41.4424725" lon="13.0709323"><ele>2.0</ele><time>2026-04-25T07:35:57.69Z</time></trkpt><trkpt lat="41.4426369" lon="13.0711631"><ele>2.0</ele><time>2026-04-25T07:35:58.69Z</time></trkpt><trkpt lat="41.4428027" lon="13.0713936"><ele>2.0</ele><time>2026-04-25T07:35:59.69Z</time></trkpt><trkpt lat="41.4429697" lon="13.0716217"><ele>3.0</ele><time>2026-04-25T07:36:00.69Z</time></trkpt><trkpt lat="41.4431347" lon="13.0718489"><ele>4.0</ele><time>2026-04-25T07:36:01.69Z</time></trkpt><trkpt lat="41.4433029" lon="13.072079"><ele>4.0</ele><time>2026-04-25T07:36:02.69Z</time></trkpt><trkpt lat="41.4434668" lon="13.0723106"><ele>4.0</ele><time>2026-04-25T07:36:03.69Z</time></trkpt><trkpt lat="41.4436312" lon="13.0725397"><ele>2.5</ele><time>2026-04-25T07:36:04.69Z</time></trkpt><trkpt lat="41.4438002" lon="13.0727686"><ele>1.0</ele><time>2026-04-25T07:36:05.69Z</time></trkpt><trkpt lat="41.4439681" lon="13.0729998"><ele>1.0</ele><time>2026-04-25T07:36:06.69Z</time></trkpt><trkpt lat="41.4441342" lon="13.0732241"><ele>1.0</ele><time>2026-04-25T07:36:07.69Z</time></trkpt><trkpt lat="41.4442997" lon="13.0734493"><ele>1.5</ele><time>2026-04-25T07:36:08.69Z</time></trkpt><trkpt lat="41.4444644" lon="13.0736725"><ele>2.0</ele><time>2026-04-25T07:36:09.69Z</time></trkpt><trkpt lat="41.4446278" lon="13.0738957"><ele>1.5</ele><time>2026-04-25T07:36:10.69Z</time></trkpt><trkpt lat="41.4447915" lon="13.0741205"><ele>1.0</ele><time>2026-04-25T07:36:11.69Z</time></trkpt><trkpt lat="41.4449529" lon="13.0743457"><ele>1.0</ele><time>2026-04-25T07:36:12.69Z</time></trkpt><trkpt lat="41.4451158" lon="13.074576"><ele>1.0</ele><time>2026-04-25T07:36:13.69Z</time></trkpt><trkpt lat="41.4452832" lon="13.0748109"><ele>1.5</ele><time>2026-04-25T07:36:14.69Z</time></trkpt><trkpt lat="41.4454498" lon="13.0750428"><ele>2.0</ele><time>2026-04-25T07:36:15.69Z</time></trkpt><trkpt lat="41.4456204" lon="13.0752748"><ele>2.5</ele><time>2026-04-25T07:36:16.69Z</time></trkpt><trkpt lat="41.4457912" lon="13.0755051"><ele>3.0</ele><time>2026-04-25T07:36:17.69Z</time></trkpt><trkpt lat="41.4459624" lon="13.0757376"><ele>3.0</ele><time>2026-04-25T07:36:18.69Z</time></trkpt><trkpt lat="41.4461297" lon="13.0759787"><ele>3.0</ele><time>2026-04-25T07:36:19.691Z</time></trkpt><trkpt lat="41.4462948" lon="13.0762142"><ele>3.0</ele><time>2026-04-25T07:36:20.69Z</time></trkpt><trkpt lat="41.4464635" lon="13.0764515"><ele>3.0</ele><time>2026-04-25T07:36:21.69Z</time></trkpt><trkpt lat="41.446634" lon="13.0766891"><ele>2.5</ele><time>2026-04-25T07:36:22.69Z</time></trkpt><trkpt lat="41.4468045" lon="13.0769296"><ele>2.0</ele><time>2026-04-25T07:36:23.69Z</time></trkpt><trkpt lat="41.4469723" lon="13.0771828"><ele>1.5</ele><time>2026-04-25T07:36:24.69Z</time></trkpt><trkpt lat="41.4471485" lon="13.077413"><ele>1.0</ele><time>2026-04-25T07:36:25.69Z</time></trkpt><trkpt lat="41.4473211" lon="13.0776427"><ele>1.0</ele><time>2026-04-25T07:36:26.69Z</time></trkpt><trkpt lat="41.4474937" lon="13.0778804"><ele>1.0</ele><time>2026-04-25T07:36:27.69Z</time></trkpt><trkpt lat="41.4476614" lon="13.0781214"><ele>1.0</ele><time>2026-04-25T07:36:28.69Z</time></trkpt><trkpt lat="41.4478305" lon="13.0783608"><ele>1.0</ele><time>2026-04-25T07:36:29.69Z</time></trkpt><trkpt lat="41.4479993" lon="13.0785978"><ele>0.5</ele><time>2026-04-25T07:36:30.69Z</time></trkpt><trkpt lat="41.4481696" lon="13.0788265"><ele>0.0</ele><time>2026-04-25T07:36:31.69Z</time></trkpt><trkpt lat="41.4483365" lon="13.0790573"><ele>0.0</ele><time>2026-04-25T07:36:32.69Z</time></trkpt><trkpt lat="41.4485037" lon="13.0792881"><ele>0.0</ele><time>2026-04-25T07:36:33.69Z</time></trkpt><trkpt lat="41.4486692" lon="13.0795152"><ele>-0.5</ele><time>2026-04-25T07:36:34.69Z</time></trkpt><trkpt lat="41.4488361" lon="13.0797441"><ele>-1.0</ele><time>2026-04-25T07:36:35.69Z</time></trkpt><trkpt lat="41.448999" lon="13.0799682"><ele>-2.0</ele><time>2026-04-25T07:36:36.69Z</time></trkpt><trkpt lat="41.449162" lon="13.0801905"><ele>-3.0</ele><time>2026-04-25T07:36:37.69Z</time></trkpt><trkpt lat="41.4493246" lon="13.0804232"><ele>-3.0</ele><time>2026-04-25T07:36:38.69Z</time></trkpt><trkpt lat="41.4494869" lon="13.0806533"><ele>-3.0</ele><time>2026-04-25T07:36:39.69Z</time></trkpt><trkpt lat="41.4496477" lon="13.0808857"><ele>-2.0</ele><time>2026-04-25T07:36:40.691Z</time></trkpt><trkpt lat="41.4498115" lon="13.0811136"><ele>-1.0</ele><time>2026-04-25T07:36:41.69Z</time></trkpt><trkpt lat="41.4499785" lon="13.0813379"><ele>-1.0</ele><time>2026-04-25T07:36:42.69Z</time></trkpt><trkpt lat="41.4501433" lon="13.0815693"><ele>-1.0</ele><time>2026-04-25T07:36:43.69Z</time></trkpt><trkpt lat="41.4503077" lon="13.081797"><ele>0.0</ele><time>2026-04-25T07:36:44.69Z</time></trkpt><trkpt lat="41.45047" lon="13.0820261"><ele>1.0</ele><time>2026-04-25T07:36:45.69Z</time></trkpt><trkpt lat="41.4506312" lon="13.0822553"><ele>0.5</ele><time>2026-04-25T07:36:46.69Z</time></trkpt><trkpt lat="41.4507927" lon="13.0824849"><ele>0.0</ele><time>2026-04-25T07:36:47.69Z</time></trkpt><trkpt lat="41.4509545" lon="13.0827093"><ele>0.0</ele><time>2026-04-25T07:36:48.69Z</time></trkpt><trkpt lat="41.4511204" lon="13.082936"><ele>0.0</ele><time>2026-04-25T07:36:49.691Z</time></trkpt><trkpt lat="41.4512894" lon="13.0831673"><ele>0.0</ele><time>2026-04-25T07:36:50.69Z</time></trkpt><trkpt lat="41.4514579" lon="13.0834013"><ele>0.0</ele><time>2026-04-25T07:36:51.69Z</time></trkpt><trkpt lat="41.4516292" lon="13.0836419"><ele>0.0</ele><time>2026-04-25T07:36:52.69Z</time></trkpt><trkpt lat="41.4517978" lon="13.0838789"><ele>0.0</ele><time>2026-04-25T07:36:53.69Z</time></trkpt><trkpt lat="41.4519664" lon="13.0841108"><ele>0.0</ele><time>2026-04-25T07:36:54.691Z</time></trkpt><trkpt lat="41.4521338" lon="13.0843406"><ele>0.0</ele><time>2026-04-25T07:36:55.69Z</time></trkpt><trkpt lat="41.4523016" lon="13.0845715"><ele>0.0</ele><time>2026-04-25T07:36:56.69Z</time></trkpt><trkpt lat="41.4524725" lon="13.084803"><ele>0.0</ele><time>2026-04-25T07:36:57.69Z</time></trkpt><trkpt lat="41.4526394" lon="13.085034"><ele>-1.0</ele><time>2026-04-25T07:36:58.69Z</time></trkpt><trkpt lat="41.4528058" lon="13.0852657"><ele>-2.0</ele><time>2026-04-25T07:36:59.691Z</time></trkpt><trkpt lat="41.4529721" lon="13.0854975"><ele>-2.0</ele><time>2026-04-25T07:37:00.69Z</time></trkpt><trkpt lat="41.4531372" lon="13.0857261"><ele>-2.0</ele><time>2026-04-25T07:37:01.69Z</time></trkpt><trkpt lat="41.4533027" lon="13.0859593"><ele>-1.5</ele><time>2026-04-25T07:37:02.69Z</time></trkpt><trkpt lat="41.4534699" lon="13.0861829"><ele>-1.0</ele><time>2026-04-25T07:37:03.69Z</time></trkpt><trkpt lat="41.4536341" lon="13.0864101"><ele>0.0</ele><time>2026-04-25T07:37:04.691Z</time></trkpt><trkpt lat="41.4537982" lon="13.086637"><ele>1.0</ele><time>2026-04-25T07:37:05.69Z</time></trkpt><trkpt lat="41.4539582" lon="13.0868597"><ele>1.0</ele><time>2026-04-25T07:37:06.69Z</time></trkpt><trkpt lat="41.4541202" lon="13.0870818"><ele>1.0</ele><time>2026-04-25T07:37:07.69Z</time></trkpt><trkpt lat="41.4542859" lon="13.0873145"><ele>0.5</ele><time>2026-04-25T07:37:08.69Z</time></trkpt><trkpt lat="41.4544507" lon="13.0875431"><ele>0.0</ele><time>2026-04-25T07:37:09.69Z</time></trkpt><trkpt lat="41.4546123" lon="13.0877687"><ele>0.0</ele><time>2026-04-25T07:37:10.69Z</time></trkpt><trkpt lat="41.4547752" lon="13.0879971"><ele>0.0</ele><time>2026-04-25T07:37:11.691Z</time></trkpt><trkpt lat="41.454936" lon="13.088226"><ele>-1.0</ele><time>2026-04-25T07:37:12.69Z</time></trkpt><trkpt lat="41.4550977" lon="13.0884483"><ele>-2.0</ele><time>2026-04-25T07:37:13.69Z</time></trkpt><trkpt lat="41.4552607" lon="13.0886744"><ele>-2.0</ele><time>2026-04-25T07:37:14.69Z</time></trkpt><trkpt lat="41.4554254" lon="13.0888976"><ele>-2.0</ele><time>2026-04-25T07:37:15.69Z</time></trkpt><trkpt lat="41.4555878" lon="13.0891243"><ele>-1.5</ele><time>2026-04-25T07:37:16.69Z</time></trkpt><trkpt lat="41.4557531" lon="13.0893548"><ele>-1.0</ele><time>2026-04-25T07:37:17.69Z</time></trkpt><trkpt lat="41.4559171" lon="13.0895854"><ele>-1.0</ele><time>2026-04-25T07:37:18.69Z</time></trkpt><trkpt lat="41.4560814" lon="13.0898171"><ele>-1.0</ele><time>2026-04-25T07:37:19.69Z</time></trkpt><trkpt lat="41.4562442" lon="13.0900438"><ele>-1.0</ele><time>2026-04-25T07:37:20.69Z</time></trkpt><trkpt lat="41.456408" lon="13.090269"><ele>-1.0</ele><time>2026-04-25T07:37:21.69Z</time></trkpt><trkpt lat="41.4565754" lon="13.090496"><ele>-1.0</ele><time>2026-04-25T07:37:22.69Z</time></trkpt><trkpt lat="41.4567405" lon="13.0907219"><ele>-1.0</ele><time>2026-04-25T07:37:23.69Z</time></trkpt><trkpt lat="41.4569039" lon="13.0909463"><ele>-1.0</ele><time>2026-04-25T07:37:24.69Z</time></trkpt><trkpt lat="41.4570672" lon="13.0911694"><ele>-1.0</ele><time>2026-04-25T07:37:25.69Z</time></trkpt><trkpt lat="41.4572327" lon="13.0913919"><ele>-0.5</ele><time>2026-04-25T07:37:26.691Z</time></trkpt><trkpt lat="41.4573952" lon="13.0916183"><ele>0.0</ele><time>2026-04-25T07:37:27.69Z</time></trkpt><trkpt lat="41.4575597" lon="13.0918395"><ele>0.0</ele><time>2026-04-25T07:37:28.69Z</time></trkpt><trkpt lat="41.4577247" lon="13.0920676"><ele>0.0</ele><time>2026-04-25T07:37:29.69Z</time></trkpt><trkpt lat="41.4578894" lon="13.092296"><ele>-0.5</ele><time>2026-04-25T07:37:30.69Z</time></trkpt><trkpt lat="41.4580535" lon="13.0925282"><ele>-1.0</ele><time>2026-04-25T07:37:31.69Z</time></trkpt><trkpt lat="41.4582164" lon="13.0927588"><ele>-1.0</ele><time>2026-04-25T07:37:32.69Z</time></trkpt><trkpt lat="41.4583783" lon="13.0929907"><ele>-1.0</ele><time>2026-04-25T07:37:33.69Z</time></trkpt><trkpt lat="41.4585442" lon="13.0932233"><ele>-0.5</ele><time>2026-04-25T07:37:34.69Z</time></trkpt><trkpt lat="41.4587136" lon="13.09346"><ele>0.0</ele><time>2026-04-25T07:37:35.69Z</time></trkpt><trkpt lat="41.4588787" lon="13.0936999"><ele>0.0</ele><time>2026-04-25T07:37:36.691Z</time></trkpt><trkpt lat="41.4590459" lon="13.0939279"><ele>0.0</ele><time>2026-04-25T07:37:37.69Z</time></trkpt><trkpt lat="41.45921" lon="13.0941546"><ele>-0.5</ele><time>2026-04-25T07:37:38.69Z</time></trkpt><trkpt lat="41.4593801" lon="13.0943924"><ele>-1.0</ele><time>2026-04-25T07:37:39.69Z</time></trkpt><trkpt lat="41.4595496" lon="13.0946273"><ele>-0.5</ele><time>2026-04-25T07:37:40.69Z</time></trkpt><trkpt lat="41.4597213" lon="13.0948581"><ele>0.0</ele><time>2026-04-25T07:37:41.69Z</time></trkpt><trkpt lat="41.4598897" lon="13.0950939"><ele>-1.0</ele><time>2026-04-25T07:37:42.69Z</time></trkpt><trkpt lat="41.4600592" lon="13.0953255"><ele>-2.0</ele><time>2026-04-25T07:37:43.69Z</time></trkpt><trkpt lat="41.4602222" lon="13.095562"><ele>-2.0</ele><time>2026-04-25T07:37:44.69Z</time></trkpt><trkpt lat="41.4603908" lon="13.0957911"><ele>-2.0</ele><time>2026-04-25T07:37:45.69Z</time></trkpt><trkpt lat="41.4605557" lon="13.0960197"><ele>-2.0</ele><time>2026-04-25T07:37:46.69Z</time></trkpt><trkpt lat="41.4607213" lon="13.0962474"><ele>-2.0</ele><time>2026-04-25T07:37:47.69Z</time></trkpt><trkpt lat="41.460882" lon="13.0964725"><ele>-1.5</ele><time>2026-04-25T07:37:48.69Z</time></trkpt><trkpt lat="41.4610352" lon="13.0966865"><ele>-1.0</ele><time>2026-04-25T07:37:49.69Z</time></trkpt><trkpt lat="41.4611904" lon="13.0969131"><ele>-0.6666666666666666</ele><time>2026-04-25T07:37:50.69Z</time></trkpt><trkpt lat="41.4613409" lon="13.0971203"><ele>-0.3333333333333333</ele><time>2026-04-25T07:37:51.69Z</time></trkpt><trkpt lat="41.4614758" lon="13.0973063"><ele>0.0</ele><time>2026-04-25T07:37:52.69Z</time></trkpt><trkpt lat="41.4616105" lon="13.097491"><ele>0.0</ele><time>2026-04-25T07:37:53.69Z</time></trkpt><trkpt lat="41.4617349" lon="13.0976692"><ele>0.0</ele><time>2026-04-25T07:37:54.69Z</time></trkpt><trkpt lat="41.4618556" lon="13.0978276"><ele>0.0</ele><time>2026-04-25T07:37:55.69Z</time></trkpt><trkpt lat="41.4619748" lon="13.0979803"><ele>0.0</ele><time>2026-04-25T07:37:56.69Z</time></trkpt><trkpt lat="41.4620848" lon="13.0981156"><ele>0.0</ele><time>2026-04-25T07:37:57.69Z</time></trkpt><trkpt lat="41.4621984" lon="13.0982331"><ele>0.0</ele><time>2026-04-25T07:37:58.69Z</time></trkpt><trkpt lat="41.4623118" lon="13.0983172"><ele>0.0</ele><time>2026-04-25T07:37:59.691Z</time></trkpt><trkpt lat="41.4624316" lon="13.0983887"><ele>0.75</ele><time>2026-04-25T07:38:00.69Z</time></trkpt><trkpt lat="41.4625444" lon="13.0984505"><ele>1.5</ele><time>2026-04-25T07:38:01.69Z</time></trkpt><trkpt lat="41.4626567" lon="13.0985184"><ele>2.25</ele><time>2026-04-25T07:38:02.69Z</time></trkpt><trkpt lat="41.4627714" lon="13.0986048"><ele>3.0</ele><time>2026-04-25T07:38:03.69Z</time></trkpt><trkpt lat="41.4628851" lon="13.0987012"><ele>3.333333333333333</ele><time>2026-04-25T07:38:04.69Z</time></trkpt><trkpt lat="41.4629995" lon="13.0988332"><ele>3.6666666666666665</ele><time>2026-04-25T07:38:05.69Z</time></trkpt><trkpt lat="41.4631208" lon="13.0989684"><ele>4.0</ele><time>2026-04-25T07:38:06.69Z</time></trkpt><trkpt lat="41.4632474" lon="13.0991112"><ele>4.333333333333333</ele><time>2026-04-25T07:38:07.69Z</time></trkpt><trkpt lat="41.4633755" lon="13.099264"><ele>4.666666666666667</ele><time>2026-04-25T07:38:08.69Z</time></trkpt><trkpt lat="41.4635079" lon="13.0994125"><ele>5.0</ele><time>2026-04-25T07:38:09.69Z</time></trkpt><trkpt lat="41.4636475" lon="13.0995761"><ele>5.0</ele><time>2026-04-25T07:38:10.69Z</time></trkpt><trkpt lat="41.4637913" lon="13.0997526"><ele>5.0</ele><time>2026-04-25T07:38:11.691Z</time></trkpt><trkpt lat="41.4639461" lon="13.0999369"><ele>5.0</ele><time>2026-04-25T07:38:12.69Z</time></trkpt><trkpt lat="41.464102" lon="13.1001128"><ele>5.0</ele><time>2026-04-25T07:38:13.69Z</time></trkpt><trkpt lat="41.4642609" lon="13.1002897"><ele>5.0</ele><time>2026-04-25T07:38:14.69Z</time></trkpt><trkpt lat="41.464426" lon="13.1004735"><ele>5.0</ele><time>2026-04-25T07:38:15.69Z</time></trkpt><trkpt lat="41.4645861" lon="13.1006578"><ele>5.333333333333334</ele><time>2026-04-25T07:38:16.69Z</time></trkpt><trkpt lat="41.4647498" lon="13.1008314"><ele>5.666666666666667</ele><time>2026-04-25T07:38:17.69Z</time></trkpt><trkpt lat="41.4649155" lon="13.1010263"><ele>6.0</ele><time>2026-04-25T07:38:18.69Z</time></trkpt><trkpt lat="41.465079" lon="13.1012183"><ele>6.0</ele><time>2026-04-25T07:38:19.69Z</time></trkpt><trkpt lat="41.4652288" lon="13.1013556"><ele>6.0</ele><time>2026-04-25T07:38:20.69Z</time></trkpt><trkpt lat="41.4653816" lon="13.1014949"><ele>6.0</ele><time>2026-04-25T07:38:21.69Z</time></trkpt><trkpt lat="41.4655454" lon="13.1016415"><ele>6.5</ele><time>2026-04-25T07:38:22.69Z</time></trkpt><trkpt lat="41.4657138" lon="13.1017698"><ele>7.0</ele><time>2026-04-25T07:38:23.69Z</time></trkpt><trkpt lat="41.4659287" lon="13.1021923"><ele>7.0</ele><time>2026-04-25T07:38:24.69Z</time></trkpt><trkpt lat="41.466096" lon="13.1023869"><ele>7.0</ele><time>2026-04-25T07:38:25.69Z</time></trkpt><trkpt lat="41.4662578" lon="13.1025703"><ele>7.0</ele><time>2026-04-25T07:38:26.691Z</time></trkpt><trkpt lat="41.4664221" lon="13.1027452"><ele>7.333333333333334</ele><time>2026-04-25T07:38:27.69Z</time></trkpt><trkpt lat="41.4665923" lon="13.1029002"><ele>7.666666666666666</ele><time>2026-04-25T07:38:28.69Z</time></trkpt><trkpt lat="41.4667738" lon="13.1030434"><ele>8.0</ele><time>2026-04-25T07:38:29.69Z</time></trkpt><trkpt lat="41.4669624" lon="13.1031824"><ele>8.666666666666666</ele><time>2026-04-25T07:38:30.69Z</time></trkpt><trkpt lat="41.4671553" lon="13.1033068"><ele>9.333333333333334</ele><time>2026-04-25T07:38:31.69Z</time></trkpt><trkpt lat="41.4673527" lon="13.1034319"><ele>10.0</ele><time>2026-04-25T07:38:32.69Z</time></trkpt><trkpt lat="41.4675502" lon="13.103564"><ele>10.0</ele><time>2026-04-25T07:38:33.69Z</time></trkpt><trkpt lat="41.4677501" lon="13.1037031"><ele>10.0</ele><time>2026-04-25T07:38:34.69Z</time></trkpt><trkpt lat="41.4679402" lon="13.1038513"><ele>10.0</ele><time>2026-04-25T07:38:35.69Z</time></trkpt><trkpt lat="41.4681299" lon="13.1040108"><ele>10.666666666666668</ele><time>2026-04-25T07:38:36.69Z</time></trkpt><trkpt lat="41.468315" lon="13.1041717"><ele>11.333333333333334</ele><time>2026-04-25T07:38:37.69Z</time></trkpt><trkpt lat="41.4684975" lon="13.1043274"><ele>12.0</ele><time>2026-04-25T07:38:38.69Z</time></trkpt><trkpt lat="41.4686763" lon="13.1044879"><ele>12.0</ele><time>2026-04-25T07:38:39.69Z</time></trkpt><trkpt lat="41.4688523" lon="13.1046499"><ele>12.0</ele><time>2026-04-25T07:38:40.69Z</time></trkpt><trkpt lat="41.4690235" lon="13.1048075"><ele>12.0</ele><time>2026-04-25T07:38:41.69Z</time></trkpt><trkpt lat="41.4691988" lon="13.1049651"><ele>12.0</ele><time>2026-04-25T07:38:42.69Z</time></trkpt><trkpt lat="41.4693777" lon="13.1051213"><ele>12.0</ele><time>2026-04-25T07:38:43.69Z</time></trkpt><trkpt lat="41.4695472" lon="13.1052738"><ele>12.0</ele><time>2026-04-25T07:38:44.691Z</time></trkpt><trkpt lat="41.4697164" lon="13.1054269"><ele>12.0</ele><time>2026-04-25T07:38:45.69Z</time></trkpt><trkpt lat="41.4698795" lon="13.1055757"><ele>12.0</ele><time>2026-04-25T07:38:46.69Z</time></trkpt><trkpt lat="41.4700264" lon="13.1057328"><ele>12.0</ele><time>2026-04-25T07:38:47.69Z</time></trkpt><trkpt lat="41.4701657" lon="13.1058767"><ele>12.25</ele><time>2026-04-25T07:38:48.69Z</time></trkpt><trkpt lat="41.4702901" lon="13.10601"><ele>12.5</ele><time>2026-04-25T07:38:49.69Z</time></trkpt><trkpt lat="41.4704045" lon="13.1061311"><ele>12.75</ele><time>2026-04-25T07:38:50.69Z</time></trkpt><trkpt lat="41.4705089" lon="13.1062605"><ele>13.0</ele><time>2026-04-25T07:38:51.69Z</time></trkpt><trkpt lat="41.4706124" lon="13.1063803"><ele>13.0</ele><time>2026-04-25T07:38:52.691Z</time></trkpt><trkpt lat="41.4707207" lon="13.1064921"><ele>13.0</ele><time>2026-04-25T07:38:53.69Z</time></trkpt><trkpt lat="41.4708277" lon="13.1065907"><ele>13.0</ele><time>2026-04-25T07:38:54.691Z</time></trkpt><trkpt lat="41.4709357" lon="13.106676"><ele>13.0</ele><time>2026-04-25T07:38:55.69Z</time></trkpt><trkpt lat="41.4710434" lon="13.1067637"><ele>13.2</ele><time>2026-04-25T07:38:56.69Z</time></trkpt><trkpt lat="41.4711409" lon="13.1068473"><ele>13.4</ele><time>2026-04-25T07:38:57.69Z</time></trkpt><trkpt lat="41.4712158" lon="13.106939"><ele>13.599999999999998</ele><time>2026-04-25T07:38:58.69Z</time></trkpt><trkpt lat="41.4712916" lon="13.1070182"><ele>13.799999999999999</ele><time>2026-04-25T07:38:59.69Z</time></trkpt><trkpt lat="41.4713762" lon="13.1070724"><ele>14.0</ele><time>2026-04-25T07:39:00.69Z</time></trkpt><trkpt lat="41.4714644" lon="13.1070819"><ele>14.0</ele><time>2026-04-25T07:39:01.69Z</time></trkpt><trkpt lat="41.471558" lon="13.1070738"><ele>13.999999999999998</ele><time>2026-04-25T07:39:02.69Z</time></trkpt><trkpt lat="41.4716576" lon="13.1070739"><ele>13.999999999999998</ele><time>2026-04-25T07:39:03.69Z</time></trkpt><trkpt lat="41.4717636" lon="13.1071074"><ele>14.0</ele><time>2026-04-25T07:39:04.69Z</time></trkpt><trkpt lat="41.4718853" lon="13.1071412"><ele>14.0</ele><time>2026-04-25T07:39:05.69Z</time></trkpt><trkpt lat="41.4720279" lon="13.107194"><ele>13.666666666666668</ele><time>2026-04-25T07:39:06.69Z</time></trkpt><trkpt lat="41.4721708" lon="13.1072535"><ele>13.333333333333332</ele><time>2026-04-25T07:39:07.69Z</time></trkpt><trkpt lat="41.4723204" lon="13.1073166"><ele>13.0</ele><time>2026-04-25T07:39:08.69Z</time></trkpt><trkpt lat="41.4724647" lon="13.1073748"><ele>15.0</ele><time>2026-04-25T07:39:09.69Z</time></trkpt><trkpt lat="41.4726304" lon="13.1074403"><ele>17.0</ele><time>2026-04-25T07:39:10.69Z</time></trkpt><trkpt lat="41.4727905" lon="13.1075121"><ele>19.0</ele><time>2026-04-25T07:39:11.69Z</time></trkpt><trkpt lat="41.472956" lon="13.107581"><ele>21.0</ele><time>2026-04-25T07:39:12.69Z</time></trkpt><trkpt lat="41.4731238" lon="13.107648"><ele>23.0</ele><time>2026-04-25T07:39:13.69Z</time></trkpt><trkpt lat="41.4732867" lon="13.1077169"><ele>25.0</ele><time>2026-04-25T07:39:14.69Z</time></trkpt><trkpt lat="41.4734506" lon="13.107788"><ele>25.0</ele><time>2026-04-25T07:39:15.69Z</time></trkpt><trkpt lat="41.4736118" lon="13.1078573"><ele>25.0</ele><time>2026-04-25T07:39:16.69Z</time></trkpt><trkpt lat="41.4737657" lon="13.1079273"><ele>25.0</ele><time>2026-04-25T07:39:17.69Z</time></trkpt><trkpt lat="41.473913" lon="13.1079983"><ele>25.5</ele><time>2026-04-25T07:39:18.69Z</time></trkpt><trkpt lat="41.4740492" lon="13.1080664"><ele>26.0</ele><time>2026-04-25T07:39:19.69Z</time></trkpt><trkpt lat="41.4741715" lon="13.1081339"><ele>26.5</ele><time>2026-04-25T07:39:20.69Z</time></trkpt><trkpt lat="41.4742856" lon="13.1081926"><ele>27.0</ele><time>2026-04-25T07:39:21.69Z</time></trkpt><trkpt lat="41.4743885" lon="13.1082541"><ele>27.400000000000002</ele><time>2026-04-25T07:39:22.69Z</time></trkpt><trkpt lat="41.4744905" lon="13.108308"><ele>27.800000000000004</ele><time>2026-04-25T07:39:23.69Z</time></trkpt><trkpt lat="41.474587" lon="13.1083546"><ele>28.2</ele><time>2026-04-25T07:39:24.69Z</time></trkpt><trkpt lat="41.4746784" lon="13.1083855"><ele>28.6</ele><time>2026-04-25T07:39:25.69Z</time></trkpt><trkpt lat="41.4747644" lon="13.1084398"><ele>29.0</ele><time>2026-04-25T07:39:26.69Z</time></trkpt><trkpt lat="41.4748383" lon="13.1085081"><ele>29.799999999999997</ele><time>2026-04-25T07:39:27.69Z</time></trkpt><trkpt lat="41.4749016" lon="13.1085875"><ele>30.599999999999998</ele><time>2026-04-25T07:39:28.69Z</time></trkpt><trkpt lat="41.4749613" lon="13.108669"><ele>31.4</ele><time>2026-04-25T07:39:29.69Z</time></trkpt><trkpt lat="41.4750396" lon="13.1087673"><ele>32.199999999999996</ele><time>2026-04-25T07:39:30.69Z</time></trkpt><trkpt lat="41.4751168" lon="13.1088802"><ele>33.0</ele><time>2026-04-25T07:39:31.69Z</time></trkpt><trkpt lat="41.4752217" lon="13.1090061"><ele>33.0</ele><time>2026-04-25T07:39:32.69Z</time></trkpt><trkpt lat="41.4753393" lon="13.109136"><ele>33.0</ele><time>2026-04-25T07:39:33.69Z</time></trkpt><trkpt lat="41.4754906" lon="13.1092669"><ele>33.0</ele><time>2026-04-25T07:39:34.69Z</time></trkpt><trkpt lat="41.4755883" lon="13.109408"><ele>34.666666666666664</ele><time>2026-04-25T07:39:35.69Z</time></trkpt><trkpt lat="41.4757071" lon="13.1095508"><ele>36.33333333333333</ele><time>2026-04-25T07:39:36.69Z</time></trkpt><trkpt lat="41.4758355" lon="13.1096894"><ele>38.0</ele><time>2026-04-25T07:39:37.69Z</time></trkpt><trkpt lat="41.4759644" lon="13.109833"><ele>38.0</ele><time>2026-04-25T07:39:38.69Z</time></trkpt><trkpt lat="41.476092" lon="13.1099767"><ele>38.0</ele><time>2026-04-25T07:39:39.69Z</time></trkpt><trkpt lat="41.4762236" lon="13.1101178"><ele>38.0</ele><time>2026-04-25T07:39:40.69Z</time></trkpt><trkpt lat="41.4763547" lon="13.1102565"><ele>39.33333333333333</ele><time>2026-04-25T07:39:41.69Z</time></trkpt><trkpt lat="41.476485" lon="13.1103903"><ele>40.666666666666664</ele><time>2026-04-25T07:39:42.69Z</time></trkpt><trkpt lat="41.4766201" lon="13.1105176"><ele>42.0</ele><time>2026-04-25T07:39:43.69Z</time></trkpt><trkpt lat="41.4767517" lon="13.1106491"><ele>42.333333333333336</ele><time>2026-04-25T07:39:44.69Z</time></trkpt><trkpt lat="41.4768863" lon="13.110775"><ele>42.66666666666667</ele><time>2026-04-25T07:39:45.69Z</time></trkpt><trkpt lat="41.4770192" lon="13.1109042"><ele>43.0</ele><time>2026-04-25T07:39:46.69Z</time></trkpt><trkpt lat="41.4771547" lon="13.1110331"><ele>43.66666666666667</ele><time>2026-04-25T07:39:47.691Z</time></trkpt><trkpt lat="41.4772959" lon="13.1111594"><ele>44.333333333333336</ele><time>2026-04-25T07:39:48.69Z</time></trkpt><trkpt lat="41.4774336" lon="13.1112992"><ele>45.0</ele><time>2026-04-25T07:39:49.69Z</time></trkpt><trkpt lat="41.4775671" lon="13.1114505"><ele>45.0</ele><time>2026-04-25T07:39:50.69Z</time></trkpt><trkpt lat="41.4776945" lon="13.1116261"><ele>45.0</ele><time>2026-04-25T07:39:51.69Z</time></trkpt><trkpt lat="41.4778162" lon="13.1118033"><ele>45.0</ele><time>2026-04-25T07:39:52.69Z</time></trkpt><trkpt lat="41.4779343" lon="13.1119825"><ele>46.0</ele><time>2026-04-25T07:39:53.69Z</time></trkpt><trkpt lat="41.478047" lon="13.1121612"><ele>47.0</ele><time>2026-04-25T07:39:54.69Z</time></trkpt><trkpt lat="41.4781644" lon="13.1123458"><ele>48.0</ele><time>2026-04-25T07:39:55.69Z</time></trkpt><trkpt lat="41.4782761" lon="13.1125269"><ele>48.0</ele><time>2026-04-25T07:39:56.69Z</time></trkpt><trkpt lat="41.4783846" lon="13.1127003"><ele>48.0</ele><time>2026-04-25T07:39:57.69Z</time></trkpt><trkpt lat="41.4784886" lon="13.1128682"><ele>48.0</ele><time>2026-04-25T07:39:58.69Z</time></trkpt><trkpt lat="41.478597" lon="13.1130315"><ele>48.0</ele><time>2026-04-25T07:39:59.691Z</time></trkpt><trkpt lat="41.4787038" lon="13.1131984"><ele>48.0</ele><time>2026-04-25T07:40:00.691Z</time></trkpt><trkpt lat="41.4788046" lon="13.1133656"><ele>48.0</ele><time>2026-04-25T07:40:01.69Z</time></trkpt><trkpt lat="41.4789046" lon="13.1135303"><ele>49.66666666666667</ele><time>2026-04-25T07:40:02.69Z</time></trkpt><trkpt lat="41.4790026" lon="13.1136997"><ele>51.333333333333336</ele><time>2026-04-25T07:40:03.69Z</time></trkpt><trkpt lat="41.4791" lon="13.1138753"><ele>53.0</ele><time>2026-04-25T07:40:04.69Z</time></trkpt><trkpt lat="41.4791903" lon="13.1140548"><ele>52.0</ele><time>2026-04-25T07:40:05.69Z</time></trkpt><trkpt lat="41.479279" lon="13.1142353"><ele>51.0</ele><time>2026-04-25T07:40:06.69Z</time></trkpt><trkpt lat="41.4793738" lon="13.1144229"><ele>50.0</ele><time>2026-04-25T07:40:07.691Z</time></trkpt><trkpt lat="41.479578" lon="13.1147707"><ele>50.66666666666667</ele><time>2026-04-25T07:40:09.69Z</time></trkpt><trkpt lat="41.4796937" lon="13.1149368"><ele>51.33333333333333</ele><time>2026-04-25T07:40:10.69Z</time></trkpt><trkpt lat="41.4798106" lon="13.1151094"><ele>52.0</ele><time>2026-04-25T07:40:11.69Z</time></trkpt><trkpt lat="41.4799319" lon="13.1152879"><ele>52.0</ele><time>2026-04-25T07:40:12.691Z</time></trkpt><trkpt lat="41.4800518" lon="13.1154697"><ele>52.0</ele><time>2026-04-25T07:40:13.69Z</time></trkpt><trkpt lat="41.4801739" lon="13.1156482"><ele>52.0</ele><time>2026-04-25T07:40:14.69Z</time></trkpt><trkpt lat="41.4802999" lon="13.1158345"><ele>51.33333333333333</ele><time>2026-04-25T07:40:15.69Z</time></trkpt><trkpt lat="41.4804232" lon="13.116023"><ele>50.66666666666667</ele><time>2026-04-25T07:40:16.69Z</time></trkpt><trkpt lat="41.4805468" lon="13.1162116"><ele>50.0</ele><time>2026-04-25T07:40:17.69Z</time></trkpt><trkpt lat="41.480671" lon="13.1164116"><ele>51.333333333333336</ele><time>2026-04-25T07:40:18.69Z</time></trkpt><trkpt lat="41.4807906" lon="13.1165831"><ele>52.66666666666667</ele><time>2026-04-25T07:40:19.69Z</time></trkpt><trkpt lat="41.4809079" lon="13.1167451"><ele>54.0</ele><time>2026-04-25T07:40:20.69Z</time></trkpt><trkpt lat="41.4810244" lon="13.1169046"><ele>54.0</ele><time>2026-04-25T07:40:21.69Z</time></trkpt><trkpt lat="41.4811412" lon="13.1170638"><ele>54.0</ele><time>2026-04-25T07:40:22.69Z</time></trkpt><trkpt lat="41.4812566" lon="13.117237"><ele>54.0</ele><time>2026-04-25T07:40:23.69Z</time></trkpt><trkpt lat="41.4813697" lon="13.1174437"><ele>55.0</ele><time>2026-04-25T07:40:24.69Z</time></trkpt><trkpt lat="41.4814822" lon="13.1176444"><ele>56.0</ele><time>2026-04-25T07:40:25.69Z</time></trkpt><trkpt lat="41.481598" lon="13.1178923"><ele>57.0</ele><time>2026-04-25T07:40:26.69Z</time></trkpt><trkpt lat="41.4817137" lon="13.1181196"><ele>56.33333333333333</ele><time>2026-04-25T07:40:27.69Z</time></trkpt><trkpt lat="41.4818285" lon="13.1183546"><ele>55.666666666666664</ele><time>2026-04-25T07:40:28.69Z</time></trkpt><trkpt lat="41.481943" lon="13.1185861"><ele>55.0</ele><time>2026-04-25T07:40:29.69Z</time></trkpt><trkpt lat="41.4820578" lon="13.1188156"><ele>56.0</ele><time>2026-04-25T07:40:30.69Z</time></trkpt><trkpt lat="41.4821719" lon="13.1190466"><ele>57.0</ele><time>2026-04-25T07:40:31.69Z</time></trkpt><trkpt lat="41.4822796" lon="13.1192776"><ele>58.0</ele><time>2026-04-25T07:40:32.69Z</time></trkpt><trkpt lat="41.4823839" lon="13.1195128"><ele>58.0</ele><time>2026-04-25T07:40:33.69Z</time></trkpt><trkpt lat="41.4824858" lon="13.1197428"><ele>58.0</ele><time>2026-04-25T07:40:34.69Z</time></trkpt><trkpt lat="41.4825782" lon="13.1199811"><ele>58.0</ele><time>2026-04-25T07:40:35.69Z</time></trkpt><trkpt lat="41.4826556" lon="13.1202273"><ele>58.0</ele><time>2026-04-25T07:40:36.691Z</time></trkpt><trkpt lat="41.4827227" lon="13.1204707"><ele>58.0</ele><time>2026-04-25T07:40:37.69Z</time></trkpt><trkpt lat="41.4827905" lon="13.1207156"><ele>58.0</ele><time>2026-04-25T07:40:38.69Z</time></trkpt><trkpt lat="41.4828597" lon="13.120968"><ele>58.0</ele><time>2026-04-25T07:40:39.69Z</time></trkpt><trkpt lat="41.4829343" lon="13.121216"><ele>58.0</ele><time>2026-04-25T07:40:40.69Z</time></trkpt><trkpt lat="41.4830145" lon="13.1214636"><ele>58.0</ele><time>2026-04-25T07:40:41.69Z</time></trkpt><trkpt lat="41.4830991" lon="13.121706"><ele>58.0</ele><time>2026-04-25T07:40:42.69Z</time></trkpt><trkpt lat="41.4831855" lon="13.1219533"><ele>58.0</ele><time>2026-04-25T07:40:43.69Z</time></trkpt><trkpt lat="41.4832729" lon="13.1221941"><ele>58.0</ele><time>2026-04-25T07:40:44.69Z</time></trkpt><trkpt lat="41.4833648" lon="13.1224368"><ele>57.0</ele><time>2026-04-25T07:40:45.69Z</time></trkpt><trkpt lat="41.4834605" lon="13.1226777"><ele>56.0</ele><time>2026-04-25T07:40:46.69Z</time></trkpt><trkpt lat="41.4835614" lon="13.1229181"><ele>55.0</ele><time>2026-04-25T07:40:47.69Z</time></trkpt><trkpt lat="41.4836614" lon="13.1231668"><ele>55.0</ele><time>2026-04-25T07:40:48.69Z</time></trkpt><trkpt lat="41.4837467" lon="13.1234216"><ele>55.0</ele><time>2026-04-25T07:40:49.69Z</time></trkpt><trkpt lat="41.4838223" lon="13.1236858"><ele>55.0</ele><time>2026-04-25T07:40:50.69Z</time></trkpt><trkpt lat="41.4838807" lon="13.1239575"><ele>54.0</ele><time>2026-04-25T07:40:51.69Z</time></trkpt><trkpt lat="41.4839344" lon="13.1242281"><ele>53.0</ele><time>2026-04-25T07:40:52.69Z</time></trkpt><trkpt lat="41.4839899" lon="13.124499"><ele>52.0</ele><time>2026-04-25T07:40:53.691Z</time></trkpt><trkpt lat="41.4840419" lon="13.124771"><ele>51.33333333333333</ele><time>2026-04-25T07:40:54.69Z</time></trkpt><trkpt lat="41.4840907" lon="13.125026"><ele>50.66666666666667</ele><time>2026-04-25T07:40:55.69Z</time></trkpt><trkpt lat="41.4841398" lon="13.1253008"><ele>50.0</ele><time>2026-04-25T07:40:56.69Z</time></trkpt><trkpt lat="41.4841804" lon="13.1255677"><ele>50.0</ele><time>2026-04-25T07:40:57.69Z</time></trkpt><trkpt lat="41.4842166" lon="13.1258266"><ele>50.0</ele><time>2026-04-25T07:40:58.69Z</time></trkpt><trkpt lat="41.484255" lon="13.1260846"><ele>50.0</ele><time>2026-04-25T07:40:59.69Z</time></trkpt><trkpt lat="41.4843025" lon="13.126336"><ele>52.0</ele><time>2026-04-25T07:41:00.69Z</time></trkpt><trkpt lat="41.4843559" lon="13.1265843"><ele>54.0</ele><time>2026-04-25T07:41:01.69Z</time></trkpt><trkpt lat="41.484415" lon="13.1268272"><ele>56.0</ele><time>2026-04-25T07:41:02.69Z</time></trkpt><trkpt lat="41.4844817" lon="13.1270703"><ele>56.0</ele><time>2026-04-25T07:41:03.69Z</time></trkpt><trkpt lat="41.4845579" lon="13.1273118"><ele>56.0</ele><time>2026-04-25T07:41:04.69Z</time></trkpt><trkpt lat="41.4846412" lon="13.127549"><ele>56.0</ele><time>2026-04-25T07:41:05.69Z</time></trkpt><trkpt lat="41.4847327" lon="13.1277806"><ele>53.333333333333336</ele><time>2026-04-25T07:41:06.69Z</time></trkpt><trkpt lat="41.484831" lon="13.1280137"><ele>50.66666666666667</ele><time>2026-04-25T07:41:07.69Z</time></trkpt><trkpt lat="41.4849293" lon="13.1282427"><ele>48.0</ele><time>2026-04-25T07:41:08.69Z</time></trkpt><trkpt lat="41.4850257" lon="13.1284692"><ele>48.0</ele><time>2026-04-25T07:41:09.69Z</time></trkpt><trkpt lat="41.485121" lon="13.1286909"><ele>48.0</ele><time>2026-04-25T07:41:10.69Z</time></trkpt><trkpt lat="41.4852102" lon="13.1289017"><ele>48.0</ele><time>2026-04-25T07:41:11.69Z</time></trkpt><trkpt lat="41.4852941" lon="13.1291089"><ele>48.33333333333333</ele><time>2026-04-25T07:41:12.69Z</time></trkpt><trkpt lat="41.4853683" lon="13.1293146"><ele>48.666666666666664</ele><time>2026-04-25T07:41:13.69Z</time></trkpt><trkpt lat="41.4854329" lon="13.1295161"><ele>49.0</ele><time>2026-04-25T07:41:14.69Z</time></trkpt><trkpt lat="41.4854916" lon="13.1297227"><ele>47.666666666666664</ele><time>2026-04-25T07:41:15.69Z</time></trkpt><trkpt lat="41.4855466" lon="13.1299387"><ele>46.33333333333333</ele><time>2026-04-25T07:41:16.69Z</time></trkpt><trkpt lat="41.4855959" lon="13.1301671"><ele>45.0</ele><time>2026-04-25T07:41:17.69Z</time></trkpt><trkpt lat="41.485647" lon="13.1304029"><ele>45.0</ele><time>2026-04-25T07:41:18.69Z</time></trkpt><trkpt lat="41.4857019" lon="13.1306458"><ele>45.0</ele><time>2026-04-25T07:41:19.69Z</time></trkpt><trkpt lat="41.4857545" lon="13.1308956"><ele>45.0</ele><time>2026-04-25T07:41:20.69Z</time></trkpt><trkpt lat="41.4858066" lon="13.1311556"><ele>44.666666666666664</ele><time>2026-04-25T07:41:21.69Z</time></trkpt><trkpt lat="41.4858615" lon="13.1314213"><ele>44.33333333333333</ele><time>2026-04-25T07:41:22.691Z</time></trkpt><trkpt lat="41.4859197" lon="13.1316839"><ele>44.0</ele><time>2026-04-25T07:41:23.69Z</time></trkpt><trkpt lat="41.4859756" lon="13.1319601"><ele>43.33333333333333</ele><time>2026-04-25T07:41:24.69Z</time></trkpt><trkpt lat="41.486028" lon="13.1322371"><ele>42.666666666666664</ele><time>2026-04-25T07:41:25.69Z</time></trkpt><trkpt lat="41.4860725" lon="13.1325154"><ele>42.0</ele><time>2026-04-25T07:41:26.69Z</time></trkpt><trkpt lat="41.4861041" lon="13.1327941"><ele>42.0</ele><time>2026-04-25T07:41:27.69Z</time></trkpt><trkpt lat="41.4861318" lon="13.1330738"><ele>42.0</ele><time>2026-04-25T07:41:28.69Z</time></trkpt><trkpt lat="41.4861552" lon="13.133353"><ele>42.0</ele><time>2026-04-25T07:41:29.69Z</time></trkpt><trkpt lat="41.486177" lon="13.1336244"><ele>42.333333333333336</ele><time>2026-04-25T07:41:30.69Z</time></trkpt><trkpt lat="41.4861998" lon="13.1338937"><ele>42.66666666666667</ele><time>2026-04-25T07:41:31.69Z</time></trkpt><trkpt lat="41.4862166" lon="13.1341601"><ele>43.0</ele><time>2026-04-25T07:41:32.69Z</time></trkpt><trkpt lat="41.486241" lon="13.1344221"><ele>43.0</ele><time>2026-04-25T07:41:33.69Z</time></trkpt><trkpt lat="41.4862671" lon="13.1346817"><ele>43.0</ele><time>2026-04-25T07:41:34.69Z</time></trkpt><trkpt lat="41.4862894" lon="13.134948"><ele>43.0</ele><time>2026-04-25T07:41:35.69Z</time></trkpt><trkpt lat="41.4863126" lon="13.135215"><ele>43.0</ele><time>2026-04-25T07:41:36.69Z</time></trkpt><trkpt lat="41.4863334" lon="13.1354833"><ele>43.0</ele><time>2026-04-25T07:41:37.69Z</time></trkpt><trkpt lat="41.4863591" lon="13.1357465"><ele>43.0</ele><time>2026-04-25T07:41:38.69Z</time></trkpt><trkpt lat="41.4863779" lon="13.136012"><ele>42.0</ele><time>2026-04-25T07:41:39.69Z</time></trkpt><trkpt lat="41.4864008" lon="13.1362735"><ele>41.0</ele><time>2026-04-25T07:41:40.69Z</time></trkpt><trkpt lat="41.4864246" lon="13.1365356"><ele>40.0</ele><time>2026-04-25T07:41:41.69Z</time></trkpt><trkpt lat="41.4864471" lon="13.1367964"><ele>40.0</ele><time>2026-04-25T07:41:42.69Z</time></trkpt><trkpt lat="41.4864729" lon="13.13706"><ele>40.0</ele><time>2026-04-25T07:41:43.69Z</time></trkpt><trkpt lat="41.4864962" lon="13.1373199"><ele>40.0</ele><time>2026-04-25T07:41:44.69Z</time></trkpt><trkpt lat="41.4865197" lon="13.1375665"><ele>40.0</ele><time>2026-04-25T07:41:45.69Z</time></trkpt><trkpt lat="41.4865404" lon="13.1378029"><ele>40.0</ele><time>2026-04-25T07:41:46.69Z</time></trkpt><trkpt lat="41.4865582" lon="13.1380362"><ele>40.0</ele><time>2026-04-25T07:41:47.69Z</time></trkpt><trkpt lat="41.486577" lon="13.1382629"><ele>40.0</ele><time>2026-04-25T07:41:48.69Z</time></trkpt><trkpt lat="41.4865966" lon="13.1384837"><ele>40.0</ele><time>2026-04-25T07:41:49.69Z</time></trkpt><trkpt lat="41.4866162" lon="13.1386937"><ele>40.0</ele><time>2026-04-25T07:41:50.69Z</time></trkpt><trkpt lat="41.4866366" lon="13.1388935"><ele>39.75</ele><time>2026-04-25T07:41:51.69Z</time></trkpt><trkpt lat="41.4866573" lon="13.1390817"><ele>39.5</ele><time>2026-04-25T07:41:52.69Z</time></trkpt><trkpt lat="41.4866747" lon="13.1392612"><ele>39.25</ele><time>2026-04-25T07:41:53.69Z</time></trkpt><trkpt lat="41.4866944" lon="13.1394298"><ele>39.0</ele><time>2026-04-25T07:41:54.69Z</time></trkpt><trkpt lat="41.4867101" lon="13.1395986"><ele>39.0</ele><time>2026-04-25T07:41:55.69Z</time></trkpt><trkpt lat="41.486719" lon="13.1397482"><ele>39.0</ele><time>2026-04-25T07:41:56.69Z</time></trkpt><trkpt lat="41.486727" lon="13.1398803"><ele>39.0</ele><time>2026-04-25T07:41:57.69Z</time></trkpt><trkpt lat="41.4867375" lon="13.1399963"><ele>39.0</ele><time>2026-04-25T07:41:58.69Z</time></trkpt><trkpt lat="41.4867438" lon="13.1400944"><ele>39.0</ele><time>2026-04-25T07:41:59.69Z</time></trkpt><trkpt lat="41.4867528" lon="13.1402281"><ele>39.2</ele><time>2026-04-25T07:42:01.69Z</time></trkpt><trkpt lat="41.4867604" lon="13.1403248"><ele>39.4</ele><time>2026-04-25T07:42:20.689Z</time></trkpt><trkpt lat="41.4867688" lon="13.1404114"><ele>39.6</ele><time>2026-04-25T07:42:22.69Z</time></trkpt><trkpt lat="41.4867783" lon="13.1405937"><ele>39.8</ele><time>2026-04-25T07:42:24.689Z</time></trkpt><trkpt lat="41.4867887" lon="13.1407135"><ele>40.0</ele><time>2026-04-25T07:42:25.689Z</time></trkpt><trkpt lat="41.4868003" lon="13.14086"><ele>40.0</ele><time>2026-04-25T07:42:26.689Z</time></trkpt><trkpt lat="41.4868128" lon="13.1410258"><ele>40.0</ele><time>2026-04-25T07:42:27.689Z</time></trkpt><trkpt lat="41.4868312" lon="13.1412021"><ele>40.0</ele><time>2026-04-25T07:42:28.689Z</time></trkpt><trkpt lat="41.4868488" lon="13.141393"><ele>40.0</ele><time>2026-04-25T07:42:29.689Z</time></trkpt><trkpt lat="41.4868668" lon="13.1415728"><ele>40.333333333333336</ele><time>2026-04-25T07:42:30.69Z</time></trkpt><trkpt lat="41.486882" lon="13.1417619"><ele>40.666666666666664</ele><time>2026-04-25T07:42:31.689Z</time></trkpt><trkpt lat="41.4869" lon="13.1419759"><ele>41.0</ele><time>2026-04-25T07:42:32.689Z</time></trkpt><trkpt lat="41.4869165" lon="13.142185"><ele>40.666666666666664</ele><time>2026-04-25T07:42:33.689Z</time></trkpt><trkpt lat="41.4869367" lon="13.142415"><ele>40.333333333333336</ele><time>2026-04-25T07:42:34.689Z</time></trkpt><trkpt lat="41.4869546" lon="13.1426267"><ele>40.0</ele><time>2026-04-25T07:42:35.689Z</time></trkpt><trkpt lat="41.4869784" lon="13.1428526"><ele>40.0</ele><time>2026-04-25T07:42:36.689Z</time></trkpt><trkpt lat="41.4870036" lon="13.1430897"><ele>40.0</ele><time>2026-04-25T07:42:37.689Z</time></trkpt><trkpt lat="41.4870282" lon="13.1433321"><ele>40.0</ele><time>2026-04-25T07:42:38.689Z</time></trkpt><trkpt lat="41.4870519" lon="13.1435842"><ele>40.0</ele><time>2026-04-25T07:42:39.689Z</time></trkpt><trkpt lat="41.4870752" lon="13.1438398"><ele>40.0</ele><time>2026-04-25T07:42:40.689Z</time></trkpt><trkpt lat="41.4870965" lon="13.1440987"><ele>40.0</ele><time>2026-04-25T07:42:41.689Z</time></trkpt><trkpt lat="41.4871217" lon="13.1443617"><ele>40.333333333333336</ele><time>2026-04-25T07:42:42.69Z</time></trkpt><trkpt lat="41.4871464" lon="13.1446268"><ele>40.666666666666664</ele><time>2026-04-25T07:42:43.689Z</time></trkpt><trkpt lat="41.4871746" lon="13.144895"><ele>41.0</ele><time>2026-04-25T07:42:44.689Z</time></trkpt><trkpt lat="41.4872023" lon="13.1451652"><ele>41.0</ele><time>2026-04-25T07:42:45.689Z</time></trkpt><trkpt lat="41.4872317" lon="13.1454407"><ele>41.0</ele><time>2026-04-25T07:42:46.689Z</time></trkpt><trkpt lat="41.4872572" lon="13.1457177"><ele>41.0</ele><time>2026-04-25T07:42:47.69Z</time></trkpt><trkpt lat="41.4872808" lon="13.1459923"><ele>41.0</ele><time>2026-04-25T07:42:48.689Z</time></trkpt><trkpt lat="41.4873038" lon="13.1462704"><ele>41.0</ele><time>2026-04-25T07:42:49.689Z</time></trkpt><trkpt lat="41.487331" lon="13.1465542"><ele>41.0</ele><time>2026-04-25T07:42:50.689Z</time></trkpt><trkpt lat="41.4873566" lon="13.1468273"><ele>41.0</ele><time>2026-04-25T07:42:51.689Z</time></trkpt><trkpt lat="41.487387" lon="13.1471054"><ele>41.0</ele><time>2026-04-25T07:42:52.689Z</time></trkpt><trkpt lat="41.4874139" lon="13.1473925"><ele>41.0</ele><time>2026-04-25T07:42:53.689Z</time></trkpt><trkpt lat="41.4874401" lon="13.1476713"><ele>41.33333333333333</ele><time>2026-04-25T07:42:54.689Z</time></trkpt><trkpt lat="41.4874657" lon="13.1479486"><ele>41.666666666666664</ele><time>2026-04-25T07:42:55.689Z</time></trkpt><trkpt lat="41.4874914" lon="13.1482167"><ele>42.0</ele><time>2026-04-25T07:42:56.689Z</time></trkpt><trkpt lat="41.4875168" lon="13.1484842"><ele>42.0</ele><time>2026-04-25T07:42:57.689Z</time></trkpt><trkpt lat="41.4875401" lon="13.1487466"><ele>42.0</ele><time>2026-04-25T07:42:58.689Z</time></trkpt><trkpt lat="41.4875622" lon="13.1490057"><ele>42.0</ele><time>2026-04-25T07:42:59.689Z</time></trkpt><trkpt lat="41.4875852" lon="13.149261"><ele>42.0</ele><time>2026-04-25T07:43:00.689Z</time></trkpt><trkpt lat="41.4876087" lon="13.1495109"><ele>42.0</ele><time>2026-04-25T07:43:01.689Z</time></trkpt><trkpt lat="41.4876299" lon="13.1497648"><ele>42.0</ele><time>2026-04-25T07:43:02.689Z</time></trkpt><trkpt lat="41.4876504" lon="13.150017"><ele>42.0</ele><time>2026-04-25T07:43:03.689Z</time></trkpt><trkpt lat="41.48767" lon="13.1502629"><ele>42.0</ele><time>2026-04-25T07:43:04.689Z</time></trkpt><trkpt lat="41.4876916" lon="13.1505102"><ele>42.0</ele><time>2026-04-25T07:43:05.689Z</time></trkpt><trkpt lat="41.4877105" lon="13.1507538"><ele>41.666666666666664</ele><time>2026-04-25T07:43:06.689Z</time></trkpt><trkpt lat="41.4877318" lon="13.1509911"><ele>41.33333333333333</ele><time>2026-04-25T07:43:07.689Z</time></trkpt><trkpt lat="41.4877522" lon="13.1512202"><ele>41.0</ele><time>2026-04-25T07:43:08.689Z</time></trkpt><trkpt lat="41.4877708" lon="13.1514382"><ele>41.33333333333333</ele><time>2026-04-25T07:43:09.69Z</time></trkpt><trkpt lat="41.4877885" lon="13.1516531"><ele>41.666666666666664</ele><time>2026-04-25T07:43:10.689Z</time></trkpt><trkpt lat="41.4878097" lon="13.151862"><ele>42.0</ele><time>2026-04-25T07:43:11.689Z</time></trkpt><trkpt lat="41.4878273" lon="13.1520513"><ele>42.0</ele><time>2026-04-25T07:43:12.689Z</time></trkpt><trkpt lat="41.4878476" lon="13.1522294"><ele>42.0</ele><time>2026-04-25T07:43:13.689Z</time></trkpt><trkpt lat="41.4878601" lon="13.1523901"><ele>42.0</ele><time>2026-04-25T07:43:14.689Z</time></trkpt><trkpt lat="41.4878726" lon="13.1525439"><ele>42.0</ele><time>2026-04-25T07:43:15.689Z</time></trkpt><trkpt lat="41.4878861" lon="13.1526913"><ele>41.75</ele><time>2026-04-25T07:43:16.689Z</time></trkpt><trkpt lat="41.4878998" lon="13.152839"><ele>41.5</ele><time>2026-04-25T07:43:17.689Z</time></trkpt><trkpt lat="41.4879097" lon="13.1529928"><ele>41.25</ele><time>2026-04-25T07:43:18.69Z</time></trkpt><trkpt lat="41.4879253" lon="13.1531568"><ele>41.0</ele><time>2026-04-25T07:43:19.689Z</time></trkpt><trkpt lat="41.4879418" lon="13.1533297"><ele>41.0</ele><time>2026-04-25T07:43:20.689Z</time></trkpt><trkpt lat="41.4879565" lon="13.1535038"><ele>41.0</ele><time>2026-04-25T07:43:21.69Z</time></trkpt><trkpt lat="41.4879717" lon="13.1536836"><ele>41.0</ele><time>2026-04-25T07:43:22.689Z</time></trkpt><trkpt lat="41.4879872" lon="13.153869"><ele>41.0</ele><time>2026-04-25T07:43:23.689Z</time></trkpt><trkpt lat="41.4880041" lon="13.1540573"><ele>40.666666666666664</ele><time>2026-04-25T07:43:24.689Z</time></trkpt><trkpt lat="41.4880226" lon="13.1542526"><ele>40.333333333333336</ele><time>2026-04-25T07:43:25.689Z</time></trkpt><trkpt lat="41.4880396" lon="13.1544521"><ele>40.0</ele><time>2026-04-25T07:43:26.689Z</time></trkpt><trkpt lat="41.488052" lon="13.1546556"><ele>40.0</ele><time>2026-04-25T07:43:27.689Z</time></trkpt><trkpt lat="41.48807" lon="13.154865"><ele>40.0</ele><time>2026-04-25T07:43:28.689Z</time></trkpt><trkpt lat="41.488088" lon="13.1550789"><ele>40.0</ele><time>2026-04-25T07:43:29.689Z</time></trkpt><trkpt lat="41.4881077" lon="13.1552972"><ele>40.0</ele><time>2026-04-25T07:43:30.689Z</time></trkpt><trkpt lat="41.4881253" lon="13.1555235"><ele>40.0</ele><time>2026-04-25T07:43:31.689Z</time></trkpt><trkpt lat="41.488131" lon="13.1557461"><ele>40.0</ele><time>2026-04-25T07:43:32.689Z</time></trkpt><trkpt lat="41.4881513" lon="13.1559833"><ele>40.333333333333336</ele><time>2026-04-25T07:43:33.689Z</time></trkpt><trkpt lat="41.488172" lon="13.1562244"><ele>40.666666666666664</ele><time>2026-04-25T07:43:34.689Z</time></trkpt><trkpt lat="41.4881854" lon="13.1564685"><ele>41.0</ele><time>2026-04-25T07:43:35.69Z</time></trkpt><trkpt lat="41.488203" lon="13.1567134"><ele>41.0</ele><time>2026-04-25T07:43:36.689Z</time></trkpt><trkpt lat="41.4882304" lon="13.1569492"><ele>41.0</ele><time>2026-04-25T07:43:37.69Z</time></trkpt><trkpt lat="41.4882592" lon="13.1571864"><ele>41.0</ele><time>2026-04-25T07:43:38.689Z</time></trkpt><trkpt lat="41.4882733" lon="13.157407"><ele>41.33333333333333</ele><time>2026-04-25T07:43:39.689Z</time></trkpt><trkpt lat="41.4882969" lon="13.1576255"><ele>41.666666666666664</ele><time>2026-04-25T07:43:40.689Z</time></trkpt><trkpt lat="41.4883184" lon="13.1578391"><ele>42.0</ele><time>2026-04-25T07:43:41.689Z</time></trkpt><trkpt lat="41.4883366" lon="13.1580536"><ele>41.666666666666664</ele><time>2026-04-25T07:43:42.69Z</time></trkpt><trkpt lat="41.488354" lon="13.1582661"><ele>41.33333333333333</ele><time>2026-04-25T07:43:43.689Z</time></trkpt><trkpt lat="41.4883694" lon="13.158479"><ele>41.0</ele><time>2026-04-25T07:43:44.689Z</time></trkpt><trkpt lat="41.4883924" lon="13.1586898"><ele>41.0</ele><time>2026-04-25T07:43:45.689Z</time></trkpt><trkpt lat="41.488413" lon="13.1589057"><ele>41.0</ele><time>2026-04-25T07:43:46.689Z</time></trkpt><trkpt lat="41.4884359" lon="13.1591263"><ele>41.0</ele><time>2026-04-25T07:43:47.689Z</time></trkpt><trkpt lat="41.4884571" lon="13.1593488"><ele>41.33333333333333</ele><time>2026-04-25T07:43:48.689Z</time></trkpt><trkpt lat="41.4884776" lon="13.1595752"><ele>41.666666666666664</ele><time>2026-04-25T07:43:49.689Z</time></trkpt><trkpt lat="41.4884967" lon="13.1598036"><ele>42.0</ele><time>2026-04-25T07:43:50.689Z</time></trkpt><trkpt lat="41.4885146" lon="13.1600367"><ele>42.0</ele><time>2026-04-25T07:43:51.689Z</time></trkpt><trkpt lat="41.4885385" lon="13.160275"><ele>42.0</ele><time>2026-04-25T07:43:52.689Z</time></trkpt><trkpt lat="41.4885583" lon="13.1605094"><ele>42.0</ele><time>2026-04-25T07:43:53.689Z</time></trkpt><trkpt lat="41.4885791" lon="13.1607483"><ele>41.666666666666664</ele><time>2026-04-25T07:43:54.689Z</time></trkpt><trkpt lat="41.4885977" lon="13.1609708"><ele>41.33333333333333</ele><time>2026-04-25T07:43:55.689Z</time></trkpt><trkpt lat="41.4886118" lon="13.1611866"><ele>41.0</ele><time>2026-04-25T07:43:56.689Z</time></trkpt><trkpt lat="41.488624" lon="13.161397"><ele>41.666666666666664</ele><time>2026-04-25T07:43:57.689Z</time></trkpt><trkpt lat="41.4886357" lon="13.1616042"><ele>42.333333333333336</ele><time>2026-04-25T07:43:58.69Z</time></trkpt><trkpt lat="41.4886429" lon="13.1618099"><ele>43.0</ele><time>2026-04-25T07:43:59.689Z</time></trkpt><trkpt lat="41.4886511" lon="13.1620155"><ele>43.0</ele><time>2026-04-25T07:44:00.689Z</time></trkpt><trkpt lat="41.4886595" lon="13.1622238"><ele>43.0</ele><time>2026-04-25T07:44:01.689Z</time></trkpt><trkpt lat="41.4886659" lon="13.1624298"><ele>43.0</ele><time>2026-04-25T07:44:02.689Z</time></trkpt><trkpt lat="41.4886722" lon="13.1626359"><ele>43.25</ele><time>2026-04-25T07:44:03.689Z</time></trkpt><trkpt lat="41.4886839" lon="13.1628411"><ele>43.5</ele><time>2026-04-25T07:44:04.69Z</time></trkpt><trkpt lat="41.488699" lon="13.1630353"><ele>43.75</ele><time>2026-04-25T07:44:05.689Z</time></trkpt><trkpt lat="41.4887172" lon="13.1632199"><ele>44.0</ele><time>2026-04-25T07:44:06.69Z</time></trkpt><trkpt lat="41.4887348" lon="13.1633955"><ele>44.0</ele><time>2026-04-25T07:44:07.689Z</time></trkpt><trkpt lat="41.4887507" lon="13.163567"><ele>44.0</ele><time>2026-04-25T07:44:08.689Z</time></trkpt><trkpt lat="41.4887661" lon="13.1637219"><ele>44.0</ele><time>2026-04-25T07:44:09.689Z</time></trkpt><trkpt lat="41.4887799" lon="13.1638652"><ele>44.0</ele><time>2026-04-25T07:44:10.689Z</time></trkpt><trkpt lat="41.4887928" lon="13.1639942"><ele>43.83333333333333</ele><time>2026-04-25T07:44:11.689Z</time></trkpt><trkpt lat="41.4888053" lon="13.1641078"><ele>43.666666666666664</ele><time>2026-04-25T07:44:12.689Z</time></trkpt><trkpt lat="41.4888162" lon="13.1642083"><ele>43.5</ele><time>2026-04-25T07:44:13.689Z</time></trkpt><trkpt lat="41.4888244" lon="13.1642971"><ele>43.333333333333336</ele><time>2026-04-25T07:44:14.689Z</time></trkpt><trkpt lat="41.4888348" lon="13.1644475"><ele>43.16666666666667</ele><time>2026-04-25T07:44:16.689Z</time></trkpt><trkpt lat="41.4888397" lon="13.1645746"><ele>43.0</ele><time>2026-04-25T07:44:18.689Z</time></trkpt><trkpt lat="41.488846" lon="13.1646638"><ele>43.0</ele><time>2026-04-25T07:44:20.689Z</time></trkpt><trkpt lat="41.4888554" lon="13.1647502"><ele>43.0</ele><time>2026-04-25T07:45:06.689Z</time></trkpt><trkpt lat="41.4888679" lon="13.1649231"><ele>43.0</ele><time>2026-04-25T07:45:08.689Z</time></trkpt><trkpt lat="41.4888731" lon="13.1650327"><ele>43.0</ele><time>2026-04-25T07:45:09.689Z</time></trkpt><trkpt lat="41.4888808" lon="13.1651444"><ele>43.0</ele><time>2026-04-25T07:45:10.689Z</time></trkpt><trkpt lat="41.4888932" lon="13.1652738"><ele>43.0</ele><time>2026-04-25T07:45:11.689Z</time></trkpt><trkpt lat="41.4889089" lon="13.1654187"><ele>43.0</ele><time>2026-04-25T07:45:12.689Z</time></trkpt><trkpt lat="41.4889243" lon="13.1655632"><ele>43.0</ele><time>2026-04-25T07:45:13.689Z</time></trkpt><trkpt lat="41.4889421" lon="13.1657211"><ele>43.0</ele><time>2026-04-25T07:45:14.689Z</time></trkpt><trkpt lat="41.4889597" lon="13.1658922"><ele>43.0</ele><time>2026-04-25T07:45:15.689Z</time></trkpt><trkpt lat="41.4889753" lon="13.1660638"><ele>43.0</ele><time>2026-04-25T07:45:16.689Z</time></trkpt><trkpt lat="41.488991" lon="13.1662292"><ele>43.0</ele><time>2026-04-25T07:45:17.69Z</time></trkpt><trkpt lat="41.4890051" lon="13.1663946"><ele>43.0</ele><time>2026-04-25T07:45:18.689Z</time></trkpt><trkpt lat="41.4890215" lon="13.1665981"><ele>43.0</ele><time>2026-04-25T07:45:19.689Z</time></trkpt><trkpt lat="41.4890503" lon="13.1668372"><ele>43.0</ele><time>2026-04-25T07:45:20.69Z</time></trkpt><trkpt lat="41.4890766" lon="13.1670598"><ele>43.0</ele><time>2026-04-25T07:45:21.689Z</time></trkpt><trkpt lat="41.4891002" lon="13.1672673"><ele>42.66666666666667</ele><time>2026-04-25T07:45:22.689Z</time></trkpt><trkpt lat="41.4891237" lon="13.1674672"><ele>42.333333333333336</ele><time>2026-04-25T07:45:23.689Z</time></trkpt><trkpt lat="41.4891478" lon="13.1676753"><ele>42.0</ele><time>2026-04-25T07:45:24.689Z</time></trkpt><trkpt lat="41.4891664" lon="13.1678861"><ele>42.0</ele><time>2026-04-25T07:45:25.689Z</time></trkpt><trkpt lat="41.4891823" lon="13.1680949"><ele>42.0</ele><time>2026-04-25T07:45:26.689Z</time></trkpt><trkpt lat="41.489201" lon="13.1683099"><ele>42.0</ele><time>2026-04-25T07:45:27.689Z</time></trkpt><trkpt lat="41.4892222" lon="13.1685256"><ele>42.0</ele><time>2026-04-25T07:45:28.689Z</time></trkpt><trkpt lat="41.4892441" lon="13.1687484"><ele>42.0</ele><time>2026-04-25T07:45:29.689Z</time></trkpt><trkpt lat="41.489271" lon="13.168976"><ele>42.0</ele><time>2026-04-25T07:45:30.689Z</time></trkpt><trkpt lat="41.4892938" lon="13.169203"><ele>41.666666666666664</ele><time>2026-04-25T07:45:31.689Z</time></trkpt><trkpt lat="41.4893171" lon="13.1694316"><ele>41.33333333333333</ele><time>2026-04-25T07:45:32.689Z</time></trkpt><trkpt lat="41.4893415" lon="13.169665"><ele>41.0</ele><time>2026-04-25T07:45:33.689Z</time></trkpt><trkpt lat="41.4893634" lon="13.1698973"><ele>40.666666666666664</ele><time>2026-04-25T07:45:34.689Z</time></trkpt><trkpt lat="41.489384" lon="13.1701267"><ele>40.333333333333336</ele><time>2026-04-25T07:45:35.689Z</time></trkpt><trkpt lat="41.4894081" lon="13.1703658"><ele>40.0</ele><time>2026-04-25T07:45:36.689Z</time></trkpt><trkpt lat="41.4894295" lon="13.1706127"><ele>39.333333333333336</ele><time>2026-04-25T07:45:37.689Z</time></trkpt><trkpt lat="41.489452" lon="13.1708576"><ele>38.666666666666664</ele><time>2026-04-25T07:45:38.689Z</time></trkpt><trkpt lat="41.4894744" lon="13.1711003"><ele>38.0</ele><time>2026-04-25T07:45:39.689Z</time></trkpt><trkpt lat="41.4894987" lon="13.1713517"><ele>37.666666666666664</ele><time>2026-04-25T07:45:40.689Z</time></trkpt><trkpt lat="41.4895241" lon="13.1716067"><ele>37.333333333333336</ele><time>2026-04-25T07:45:41.689Z</time></trkpt><trkpt lat="41.4895489" lon="13.1718587"><ele>37.0</ele><time>2026-04-25T07:45:42.689Z</time></trkpt><trkpt lat="41.489572" lon="13.1721113"><ele>38.0</ele><time>2026-04-25T07:45:43.689Z</time></trkpt><trkpt lat="41.4895945" lon="13.1723589"><ele>39.0</ele><time>2026-04-25T07:45:44.689Z</time></trkpt><trkpt lat="41.4896159" lon="13.1725972"><ele>40.0</ele><time>2026-04-25T07:45:45.689Z</time></trkpt><trkpt lat="41.4896328" lon="13.172827"><ele>40.0</ele><time>2026-04-25T07:45:46.689Z</time></trkpt><trkpt lat="41.4896498" lon="13.1730542"><ele>40.0</ele><time>2026-04-25T07:45:47.689Z</time></trkpt><trkpt lat="41.4896644" lon="13.1732797"><ele>40.0</ele><time>2026-04-25T07:45:48.69Z</time></trkpt><trkpt lat="41.4896777" lon="13.1735025"><ele>40.0</ele><time>2026-04-25T07:45:49.689Z</time></trkpt><trkpt lat="41.4896898" lon="13.1737262"><ele>40.0</ele><time>2026-04-25T07:45:50.689Z</time></trkpt><trkpt lat="41.4897014" lon="13.1739475"><ele>40.0</ele><time>2026-04-25T07:45:51.689Z</time></trkpt><trkpt lat="41.4897139" lon="13.1741694"><ele>40.0</ele><time>2026-04-25T07:45:52.689Z</time></trkpt><trkpt lat="41.4897259" lon="13.1743709"><ele>40.0</ele><time>2026-04-25T07:45:53.689Z</time></trkpt><trkpt lat="41.4897351" lon="13.1745477"><ele>40.0</ele><time>2026-04-25T07:45:54.689Z</time></trkpt><trkpt lat="41.4897398" lon="13.174712"><ele>40.0</ele><time>2026-04-25T07:45:55.689Z</time></trkpt><trkpt lat="41.4897418" lon="13.1748573"><ele>40.0</ele><time>2026-04-25T07:45:56.689Z</time></trkpt><trkpt lat="41.4897408" lon="13.1749879"><ele>40.0</ele><time>2026-04-25T07:45:57.689Z</time></trkpt><trkpt lat="41.48974" lon="13.1751046"><ele>40.0</ele><time>2026-04-25T07:45:58.689Z</time></trkpt><trkpt lat="41.4897411" lon="13.1752167"><ele>40.0</ele><time>2026-04-25T07:45:59.689Z</time></trkpt><trkpt lat="41.4897434" lon="13.1753362"><ele>40.0</ele><time>2026-04-25T07:46:00.689Z</time></trkpt><trkpt lat="41.4897467" lon="13.17547"><ele>40.0</ele><time>2026-04-25T07:46:01.689Z</time></trkpt><trkpt lat="41.4897492" lon="13.1756155"><ele>40.0</ele><time>2026-04-25T07:46:02.689Z</time></trkpt><trkpt lat="41.4897502" lon="13.1757713"><ele>40.0</ele><time>2026-04-25T07:46:03.689Z</time></trkpt><trkpt lat="41.4897527" lon="13.1759298"><ele>40.0</ele><time>2026-04-25T07:46:04.689Z</time></trkpt><trkpt lat="41.4897529" lon="13.1761246"><ele>39.75</ele><time>2026-04-25T07:46:05.69Z</time></trkpt><trkpt lat="41.4897557" lon="13.1763139"><ele>39.5</ele><time>2026-04-25T07:46:06.689Z</time></trkpt><trkpt lat="41.4897558" lon="13.1765067"><ele>39.25</ele><time>2026-04-25T07:46:07.689Z</time></trkpt><trkpt lat="41.4897611" lon="13.1767187"><ele>39.0</ele><time>2026-04-25T07:46:08.689Z</time></trkpt><trkpt lat="41.4897605" lon="13.1769358"><ele>39.0</ele><time>2026-04-25T07:46:09.689Z</time></trkpt><trkpt lat="41.4897618" lon="13.1771419"><ele>39.0</ele><time>2026-04-25T07:46:10.689Z</time></trkpt><trkpt lat="41.4897597" lon="13.1773374"><ele>39.0</ele><time>2026-04-25T07:46:11.689Z</time></trkpt><trkpt lat="41.4897563" lon="13.1775242"><ele>39.0</ele><time>2026-04-25T07:46:12.689Z</time></trkpt><trkpt lat="41.4897526" lon="13.177702"><ele>38.75</ele><time>2026-04-25T07:46:13.689Z</time></trkpt><trkpt lat="41.4897481" lon="13.1778725"><ele>38.5</ele><time>2026-04-25T07:46:14.689Z</time></trkpt><trkpt lat="41.489737" lon="13.1780512"><ele>38.25</ele><time>2026-04-25T07:46:15.689Z</time></trkpt><trkpt lat="41.4897241" lon="13.1782402"><ele>38.0</ele><time>2026-04-25T07:46:16.689Z</time></trkpt><trkpt lat="41.4897104" lon="13.1784494"><ele>37.666666666666664</ele><time>2026-04-25T07:46:17.681Z</time></trkpt><trkpt lat="41.4896975" lon="13.1786648"><ele>37.333333333333336</ele><time>2026-04-25T07:46:18.689Z</time></trkpt><trkpt lat="41.4896888" lon="13.1788812"><ele>37.0</ele><time>2026-04-25T07:46:19.689Z</time></trkpt><trkpt lat="41.4896799" lon="13.1791089"><ele>36.66666666666667</ele><time>2026-04-25T07:46:20.689Z</time></trkpt><trkpt lat="41.4896697" lon="13.1793451"><ele>36.333333333333336</ele><time>2026-04-25T07:46:21.689Z</time></trkpt><trkpt lat="41.4896561" lon="13.1795898"><ele>36.0</ele><time>2026-04-25T07:46:22.689Z</time></trkpt><trkpt lat="41.4896494" lon="13.1798441"><ele>35.666666666666664</ele><time>2026-04-25T07:46:23.689Z</time></trkpt><trkpt lat="41.4896412" lon="13.1801048"><ele>35.33333333333333</ele><time>2026-04-25T07:46:24.689Z</time></trkpt><trkpt lat="41.4896299" lon="13.1803702"><ele>35.0</ele><time>2026-04-25T07:46:25.689Z</time></trkpt><trkpt lat="41.4896176" lon="13.1806398"><ele>35.0</ele><time>2026-04-25T07:46:26.69Z</time></trkpt><trkpt lat="41.4896026" lon="13.1809163"><ele>35.0</ele><time>2026-04-25T07:46:27.689Z</time></trkpt><trkpt lat="41.4895877" lon="13.181191"><ele>35.0</ele><time>2026-04-25T07:46:28.689Z</time></trkpt><trkpt lat="41.4895735" lon="13.1814673"><ele>35.33333333333333</ele><time>2026-04-25T07:46:29.689Z</time></trkpt><trkpt lat="41.48956" lon="13.1817516"><ele>35.666666666666664</ele><time>2026-04-25T07:46:30.689Z</time></trkpt><trkpt lat="41.4895451" lon="13.1820299"><ele>36.0</ele><time>2026-04-25T07:46:31.689Z</time></trkpt><trkpt lat="41.4895397" lon="13.1823091"><ele>36.0</ele><time>2026-04-25T07:46:32.689Z</time></trkpt><trkpt lat="41.4895393" lon="13.1825977"><ele>36.0</ele><time>2026-04-25T07:46:33.689Z</time></trkpt><trkpt lat="41.4895437" lon="13.1828924"><ele>36.0</ele><time>2026-04-25T07:46:34.689Z</time></trkpt><trkpt lat="41.4895276" lon="13.1831931"><ele>35.0</ele><time>2026-04-25T07:46:35.689Z</time></trkpt><trkpt lat="41.4895284" lon="13.1834893"><ele>34.0</ele><time>2026-04-25T07:46:36.689Z</time></trkpt><trkpt lat="41.4895229" lon="13.1837965"><ele>34.0</ele><time>2026-04-25T07:46:37.689Z</time></trkpt><trkpt lat="41.4895254" lon="13.1840971"><ele>34.0</ele><time>2026-04-25T07:46:38.689Z</time></trkpt><trkpt lat="41.4895306" lon="13.1844013"><ele>34.0</ele><time>2026-04-25T07:46:39.689Z</time></trkpt><trkpt lat="41.4895254" lon="13.1847185"><ele>34.0</ele><time>2026-04-25T07:46:40.689Z</time></trkpt><trkpt lat="41.4895194" lon="13.1850261"><ele>35.0</ele><time>2026-04-25T07:46:41.689Z</time></trkpt><trkpt lat="41.4895118" lon="13.1853446"><ele>36.0</ele><time>2026-04-25T07:46:42.689Z</time></trkpt><trkpt lat="41.4895152" lon="13.1856559"><ele>35.666666666666664</ele><time>2026-04-25T07:46:43.689Z</time></trkpt><trkpt lat="41.4895252" lon="13.1859506"><ele>35.33333333333333</ele><time>2026-04-25T07:46:44.689Z</time></trkpt><trkpt lat="41.4895493" lon="13.1862478"><ele>35.0</ele><time>2026-04-25T07:46:45.689Z</time></trkpt><trkpt lat="41.4895794" lon="13.1865608"><ele>35.0</ele><time>2026-04-25T07:46:46.69Z</time></trkpt><trkpt lat="41.4896153" lon="13.1868704"><ele>35.0</ele><time>2026-04-25T07:46:47.689Z</time></trkpt><trkpt lat="41.4896474" lon="13.1871677"><ele>35.33333333333333</ele><time>2026-04-25T07:46:48.689Z</time></trkpt><trkpt lat="41.4896826" lon="13.1874543"><ele>35.666666666666664</ele><time>2026-04-25T07:46:49.689Z</time></trkpt><trkpt lat="41.4897051" lon="13.1877426"><ele>36.0</ele><time>2026-04-25T07:46:50.69Z</time></trkpt><trkpt lat="41.4897307" lon="13.1880458"><ele>36.0</ele><time>2026-04-25T07:46:51.689Z</time></trkpt><trkpt lat="41.4897691" lon="13.1883497"><ele>36.0</ele><time>2026-04-25T07:46:52.689Z</time></trkpt><trkpt lat="41.4898063" lon="13.1886505"><ele>36.0</ele><time>2026-04-25T07:46:53.689Z</time></trkpt><trkpt lat="41.4898567" lon="13.1889452"><ele>36.0</ele><time>2026-04-25T07:46:54.689Z</time></trkpt><trkpt lat="41.4899146" lon="13.1892348"><ele>35.5</ele><time>2026-04-25T07:46:55.689Z</time></trkpt><trkpt lat="41.4899886" lon="13.189537"><ele>35.0</ele><time>2026-04-25T07:46:56.689Z</time></trkpt><trkpt lat="41.4900502" lon="13.1898399"><ele>34.33333333333333</ele><time>2026-04-25T07:46:57.689Z</time></trkpt><trkpt lat="41.4901131" lon="13.1901202"><ele>33.666666666666664</ele><time>2026-04-25T07:46:58.689Z</time></trkpt><trkpt lat="41.4901609" lon="13.1903928"><ele>33.0</ele><time>2026-04-25T07:46:59.69Z</time></trkpt><trkpt lat="41.4902106" lon="13.1906487"><ele>33.0</ele><time>2026-04-25T07:47:00.689Z</time></trkpt><trkpt lat="41.4902624" lon="13.1908858"><ele>33.0</ele><time>2026-04-25T07:47:01.689Z</time></trkpt><trkpt lat="41.4903077" lon="13.1911279"><ele>33.0</ele><time>2026-04-25T07:47:02.689Z</time></trkpt><trkpt lat="41.4903551" lon="13.1913823"><ele>32.666666666666664</ele><time>2026-04-25T07:47:03.689Z</time></trkpt><trkpt lat="41.4904084" lon="13.1916321"><ele>32.33333333333333</ele><time>2026-04-25T07:47:04.689Z</time></trkpt><trkpt lat="41.4904604" lon="13.1918967"><ele>32.0</ele><time>2026-04-25T07:47:05.69Z</time></trkpt><trkpt lat="41.4905183" lon="13.1921606"><ele>33.33333333333333</ele><time>2026-04-25T07:47:06.689Z</time></trkpt><trkpt lat="41.4905816" lon="13.1924295"><ele>34.666666666666664</ele><time>2026-04-25T07:47:07.689Z</time></trkpt><trkpt lat="41.4906439" lon="13.1926959"><ele>36.0</ele><time>2026-04-25T07:47:08.689Z</time></trkpt><trkpt lat="41.4907046" lon="13.1929637"><ele>35.0</ele><time>2026-04-25T07:47:09.689Z</time></trkpt><trkpt lat="41.4907665" lon="13.193236"><ele>34.0</ele><time>2026-04-25T07:47:10.689Z</time></trkpt><trkpt lat="41.4908281" lon="13.1935151"><ele>33.0</ele><time>2026-04-25T07:47:11.689Z</time></trkpt><trkpt lat="41.4908922" lon="13.1937763"><ele>32.333333333333336</ele><time>2026-04-25T07:47:12.69Z</time></trkpt><trkpt lat="41.4909536" lon="13.1940213"><ele>31.666666666666668</ele><time>2026-04-25T07:47:13.689Z</time></trkpt><trkpt lat="41.4910124" lon="13.1942593"><ele>31.0</ele><time>2026-04-25T07:47:14.689Z</time></trkpt><trkpt lat="41.4910587" lon="13.194486"><ele>31.0</ele><time>2026-04-25T07:47:15.689Z</time></trkpt><trkpt lat="41.4911054" lon="13.1946981"><ele>31.0</ele><time>2026-04-25T07:47:16.689Z</time></trkpt><trkpt lat="41.4911428" lon="13.1948812"><ele>31.0</ele><time>2026-04-25T07:47:17.689Z</time></trkpt><trkpt lat="41.4911755" lon="13.1950371"><ele>31.0</ele><time>2026-04-25T07:47:18.689Z</time></trkpt><trkpt lat="41.4911877" lon="13.1951657"><ele>31.166666666666668</ele><time>2026-04-25T07:47:19.69Z</time></trkpt><trkpt lat="41.4911797" lon="13.1952631"><ele>31.333333333333336</ele><time>2026-04-25T07:47:20.689Z</time></trkpt><trkpt lat="41.4911521" lon="13.1953498"><ele>31.5</ele><time>2026-04-25T07:47:21.689Z</time></trkpt><trkpt lat="41.4911019" lon="13.1954333"><ele>31.666666666666664</ele><time>2026-04-25T07:47:22.689Z</time></trkpt><trkpt lat="41.4910353" lon="13.1955143"><ele>31.833333333333332</ele><time>2026-04-25T07:47:23.689Z</time></trkpt><trkpt lat="41.4909457" lon="13.1955667"><ele>32.0</ele><time>2026-04-25T07:47:24.689Z</time></trkpt><trkpt lat="41.4908408" lon="13.1956238"><ele>31.8</ele><time>2026-04-25T07:47:25.69Z</time></trkpt><trkpt lat="41.4907374" lon="13.1956744"><ele>31.6</ele><time>2026-04-25T07:47:26.689Z</time></trkpt><trkpt lat="41.4906251" lon="13.1956982"><ele>31.400000000000002</ele><time>2026-04-25T07:47:27.689Z</time></trkpt><trkpt lat="41.4905101" lon="13.1957131"><ele>31.200000000000003</ele><time>2026-04-25T07:47:28.689Z</time></trkpt><trkpt lat="41.4904002" lon="13.1957167"><ele>31.0</ele><time>2026-04-25T07:47:29.689Z</time></trkpt><trkpt lat="41.4902902" lon="13.1956986"><ele>30.25</ele><time>2026-04-25T07:47:30.689Z</time></trkpt><trkpt lat="41.4901786" lon="13.1956661"><ele>29.5</ele><time>2026-04-25T07:47:31.689Z</time></trkpt><trkpt lat="41.4900497" lon="13.1956482"><ele>28.75</ele><time>2026-04-25T07:47:32.689Z</time></trkpt><trkpt lat="41.4899388" lon="13.1956075"><ele>28.0</ele><time>2026-04-25T07:47:33.689Z</time></trkpt><trkpt lat="41.4898284" lon="13.1955716"><ele>28.0</ele><time>2026-04-25T07:47:34.689Z</time></trkpt><trkpt lat="41.4897172" lon="13.1955458"><ele>27.999999999999996</ele><time>2026-04-25T07:47:35.689Z</time></trkpt><trkpt lat="41.4896108" lon="13.1955256"><ele>27.999999999999996</ele><time>2026-04-25T07:47:36.689Z</time></trkpt><trkpt lat="41.4895046" lon="13.1955297"><ele>28.0</ele><time>2026-04-25T07:47:37.689Z</time></trkpt><trkpt lat="41.4893875" lon="13.1955525"><ele>28.0</ele><time>2026-04-25T07:47:38.689Z</time></trkpt><trkpt lat="41.4892875" lon="13.195601"><ele>28.0</ele><time>2026-04-25T07:47:39.689Z</time></trkpt><trkpt lat="41.4892044" lon="13.1956628"><ele>27.999999999999996</ele><time>2026-04-25T07:47:40.689Z</time></trkpt><trkpt lat="41.489137" lon="13.1957457"><ele>27.999999999999996</ele><time>2026-04-25T07:47:41.689Z</time></trkpt><trkpt lat="41.4890774" lon="13.1958264"><ele>28.0</ele><time>2026-04-25T07:47:42.689Z</time></trkpt><trkpt lat="41.4890143" lon="13.1959214"><ele>28.0</ele><time>2026-04-25T07:47:43.689Z</time></trkpt><trkpt lat="41.4889023" lon="13.1960593"><ele>28.0</ele><time>2026-04-25T07:47:44.689Z</time></trkpt><trkpt lat="41.4887985" lon="13.1962182"><ele>28.0</ele><time>2026-04-25T07:47:45.689Z</time></trkpt><trkpt lat="41.4886691" lon="13.1964108"><ele>28.0</ele><time>2026-04-25T07:47:46.689Z</time></trkpt><trkpt lat="41.4885567" lon="13.1965416"><ele>28.0</ele><time>2026-04-25T07:47:47.689Z</time></trkpt><trkpt lat="41.4884315" lon="13.1966488"><ele>28.0</ele><time>2026-04-25T07:47:48.689Z</time></trkpt><trkpt lat="41.4882835" lon="13.19675"><ele>28.0</ele><time>2026-04-25T07:47:49.689Z</time></trkpt><trkpt lat="41.4881329" lon="13.1968375"><ele>28.0</ele><time>2026-04-25T07:47:50.689Z</time></trkpt><trkpt lat="41.4879933" lon="13.1969273"><ele>28.0</ele><time>2026-04-25T07:47:51.689Z</time></trkpt><trkpt lat="41.487847" lon="13.1970119"><ele>28.0</ele><time>2026-04-25T07:47:52.689Z</time></trkpt><trkpt lat="41.4877031" lon="13.1970853"><ele>27.666666666666668</ele><time>2026-04-25T07:47:53.689Z</time></trkpt><trkpt lat="41.4875558" lon="13.1971642"><ele>27.333333333333336</ele><time>2026-04-25T07:47:54.689Z</time></trkpt><trkpt lat="41.4874057" lon="13.1972338"><ele>27.0</ele><time>2026-04-25T07:47:55.689Z</time></trkpt><trkpt lat="41.4872598" lon="13.1973117"><ele>27.0</ele><time>2026-04-25T07:47:56.689Z</time></trkpt><trkpt lat="41.487114" lon="13.1973851"><ele>27.0</ele><time>2026-04-25T07:47:57.689Z</time></trkpt><trkpt lat="41.4869689" lon="13.1974664"><ele>27.0</ele><time>2026-04-25T07:47:58.69Z</time></trkpt><trkpt lat="41.486825" lon="13.1975432"><ele>27.0</ele><time>2026-04-25T07:47:59.689Z</time></trkpt><trkpt lat="41.486682" lon="13.1976199"><ele>27.0</ele><time>2026-04-25T07:48:00.689Z</time></trkpt><trkpt lat="41.4865375" lon="13.1976961"><ele>27.0</ele><time>2026-04-25T07:48:01.689Z</time></trkpt><trkpt lat="41.4863932" lon="13.1977763"><ele>27.0</ele><time>2026-04-25T07:48:02.689Z</time></trkpt><trkpt lat="41.4862454" lon="13.1978628"><ele>27.0</ele><time>2026-04-25T07:48:03.689Z</time></trkpt><trkpt lat="41.4861052" lon="13.1979424"><ele>27.0</ele><time>2026-04-25T07:48:04.689Z</time></trkpt><trkpt lat="41.4859754" lon="13.1980242"><ele>27.0</ele><time>2026-04-25T07:48:05.689Z</time></trkpt><trkpt lat="41.4858491" lon="13.1980983"><ele>27.0</ele><time>2026-04-25T07:48:06.689Z</time></trkpt><trkpt lat="41.4857209" lon="13.1981635"><ele>27.0</ele><time>2026-04-25T07:48:07.689Z</time></trkpt><trkpt lat="41.4855835" lon="13.1982639"><ele>27.0</ele><time>2026-04-25T07:48:08.689Z</time></trkpt><trkpt lat="41.4854365" lon="13.1983774"><ele>27.333333333333336</ele><time>2026-04-25T07:48:09.689Z</time></trkpt><trkpt lat="41.4852738" lon="13.1984951"><ele>27.666666666666668</ele><time>2026-04-25T07:48:10.689Z</time></trkpt><trkpt lat="41.4851007" lon="13.1986183"><ele>28.0</ele><time>2026-04-25T07:48:11.689Z</time></trkpt><trkpt lat="41.4849226" lon="13.1987461"><ele>28.0</ele><time>2026-04-25T07:48:12.689Z</time></trkpt><trkpt lat="41.4847385" lon="13.1988706"><ele>28.0</ele><time>2026-04-25T07:48:13.689Z</time></trkpt><trkpt lat="41.4846152" lon="13.1989758"><ele>28.0</ele><time>2026-04-25T07:48:14.689Z</time></trkpt><trkpt lat="41.4844694" lon="13.1990819"><ele>28.4</ele><time>2026-04-25T07:48:15.689Z</time></trkpt><trkpt lat="41.4843509" lon="13.1991675"><ele>28.799999999999997</ele><time>2026-04-25T07:48:16.689Z</time></trkpt><trkpt lat="41.484282" lon="13.1992169"><ele>29.2</ele><time>2026-04-25T07:48:17.689Z</time></trkpt><trkpt lat="41.4841968" lon="13.1992451"><ele>29.6</ele><time>2026-04-25T07:48:19.689Z</time></trkpt><trkpt lat="41.4841326" lon="13.199244"><ele>30.0</ele><time>2026-04-25T07:48:20.689Z</time></trkpt><trkpt lat="41.4840406" lon="13.199202"><ele>30.0</ele><time>2026-04-25T07:48:22.689Z</time></trkpt><trkpt lat="41.4839763" lon="13.1992321"><ele>30.0</ele><time>2026-04-25T07:48:24.689Z</time></trkpt><trkpt lat="41.4839496" lon="13.1993205"><ele>30.0</ele><time>2026-04-25T07:48:26.689Z</time></trkpt><trkpt lat="41.4839497" lon="13.1994462"><ele>30.0</ele><time>2026-04-25T07:48:28.689Z</time></trkpt><trkpt lat="41.4839937" lon="13.1995764"><ele>30.0</ele><time>2026-04-25T07:48:30.689Z</time></trkpt><trkpt lat="41.4840272" lon="13.1996737"><ele>30.0</ele><time>2026-04-25T07:48:31.689Z</time></trkpt><trkpt lat="41.4840598" lon="13.1997631"><ele>29.833333333333332</ele><time>2026-04-25T07:48:32.689Z</time></trkpt><trkpt lat="41.4840789" lon="13.1998566"><ele>29.666666666666664</ele><time>2026-04-25T07:48:33.689Z</time></trkpt><trkpt lat="41.4840932" lon="13.1999649"><ele>29.5</ele><time>2026-04-25T07:48:34.689Z</time></trkpt><trkpt lat="41.4840986" lon="13.2000795"><ele>29.333333333333332</ele><time>2026-04-25T07:48:35.689Z</time></trkpt><trkpt lat="41.4840839" lon="13.2001955"><ele>29.166666666666664</ele><time>2026-04-25T07:48:36.689Z</time></trkpt><trkpt lat="41.4840593" lon="13.200318"><ele>29.0</ele><time>2026-04-25T07:48:37.689Z</time></trkpt><trkpt lat="41.4840316" lon="13.2004461"><ele>29.0</ele><time>2026-04-25T07:48:38.689Z</time></trkpt><trkpt lat="41.4840097" lon="13.200594"><ele>29.0</ele><time>2026-04-25T07:48:39.69Z</time></trkpt><trkpt lat="41.4839909" lon="13.2007463"><ele>29.0</ele><time>2026-04-25T07:48:40.689Z</time></trkpt><trkpt lat="41.4839654" lon="13.2008971"><ele>29.0</ele><time>2026-04-25T07:48:41.689Z</time></trkpt><trkpt lat="41.4839409" lon="13.2010298"><ele>29.0</ele><time>2026-04-25T07:48:42.689Z</time></trkpt><trkpt lat="41.4839111" lon="13.2011429"><ele>29.0</ele><time>2026-04-25T07:48:43.689Z</time></trkpt><trkpt lat="41.4838884" lon="13.2012331"><ele>29.0</ele><time>2026-04-25T07:48:44.689Z</time></trkpt><trkpt lat="41.483855" lon="13.2013594"><ele>29.0</ele><time>2026-04-25T07:48:46.689Z</time></trkpt><trkpt lat="41.4838201" lon="13.2015123"><ele>29.0</ele><time>2026-04-25T07:48:48.689Z</time></trkpt><trkpt lat="41.4837829" lon="13.2016962"><ele>29.0</ele><time>2026-04-25T07:48:50.689Z</time></trkpt><trkpt lat="41.4837673" lon="13.2018026"><ele>29.25</ele><time>2026-04-25T07:48:51.689Z</time></trkpt><trkpt lat="41.4837439" lon="13.201955"><ele>29.5</ele><time>2026-04-25T07:48:52.689Z</time></trkpt><trkpt lat="41.4837062" lon="13.2021201"><ele>29.75</ele><time>2026-04-25T07:48:53.69Z</time></trkpt><trkpt lat="41.4836869" lon="13.2022615"><ele>30.0</ele><time>2026-04-25T07:48:54.689Z</time></trkpt><trkpt lat="41.4836624" lon="13.2024038"><ele>30.0</ele><time>2026-04-25T07:48:55.689Z</time></trkpt><trkpt lat="41.483639" lon="13.2025369"><ele>30.0</ele><time>2026-04-25T07:48:56.689Z</time></trkpt><trkpt lat="41.4836218" lon="13.2026671"><ele>30.0</ele><time>2026-04-25T07:48:57.689Z</time></trkpt><trkpt lat="41.4835898" lon="13.2027995"><ele>30.0</ele><time>2026-04-25T07:48:58.689Z</time></trkpt><trkpt lat="41.4835674" lon="13.2029151"><ele>30.0</ele><time>2026-04-25T07:48:59.689Z</time></trkpt><trkpt lat="41.483543" lon="13.203023"><ele>30.0</ele><time>2026-04-25T07:49:00.689Z</time></trkpt><trkpt lat="41.4835265" lon="13.2031295"><ele>30.0</ele><time>2026-04-25T07:49:01.689Z</time></trkpt><trkpt lat="41.4835095" lon="13.2032312"><ele>30.0</ele><time>2026-04-25T07:49:02.689Z</time></trkpt><trkpt lat="41.4834936" lon="13.2033342"><ele>30.0</ele><time>2026-04-25T07:49:03.689Z</time></trkpt><trkpt lat="41.4834718" lon="13.2034362"><ele>30.0</ele><time>2026-04-25T07:49:04.689Z</time></trkpt><trkpt lat="41.4834501" lon="13.2035365"><ele>30.0</ele><time>2026-04-25T07:49:05.689Z</time></trkpt><trkpt lat="41.4834325" lon="13.2036371"><ele>30.166666666666668</ele><time>2026-04-25T07:49:06.689Z</time></trkpt><trkpt lat="41.4834204" lon="13.203727"><ele>30.333333333333336</ele><time>2026-04-25T07:49:07.689Z</time></trkpt><trkpt lat="41.4834125" lon="13.2038798"><ele>30.5</ele><time>2026-04-25T07:49:09.689Z</time></trkpt><trkpt lat="41.4834156" lon="13.2039712"><ele>30.666666666666668</ele><time>2026-04-25T07:49:10.689Z</time></trkpt><trkpt lat="41.4834305" lon="13.2040795"><ele>30.833333333333336</ele><time>2026-04-25T07:49:11.689Z</time></trkpt><trkpt lat="41.4834776" lon="13.2041637"><ele>31.0</ele><time>2026-04-25T07:49:12.689Z</time></trkpt><trkpt lat="41.4835358" lon="13.2042198"><ele>31.0</ele><time>2026-04-25T07:49:13.689Z</time></trkpt><trkpt lat="41.4836607" lon="13.2043224"><ele>31.0</ele><time>2026-04-25T07:49:15.689Z</time></trkpt><trkpt lat="41.4837318" lon="13.2044081"><ele>31.0</ele><time>2026-04-25T07:49:16.689Z</time></trkpt><trkpt lat="41.4838001" lon="13.2044993"><ele>31.0</ele><time>2026-04-25T07:49:17.689Z</time></trkpt><trkpt lat="41.483855" lon="13.204579"><ele>31.0</ele><time>2026-04-25T07:49:18.689Z</time></trkpt><trkpt lat="41.48391" lon="13.2046406"><ele>31.000000000000004</ele><time>2026-04-25T07:49:19.689Z</time></trkpt><trkpt lat="41.4839621" lon="13.2046892"><ele>31.0</ele><time>2026-04-25T07:49:20.689Z</time></trkpt><trkpt lat="41.4840591" lon="13.2047596"><ele>31.0</ele><time>2026-04-25T07:49:22.689Z</time></trkpt><trkpt lat="41.4841363" lon="13.2047056"><ele>31.0</ele><time>2026-04-25T07:49:24.689Z</time></trkpt><trkpt lat="41.4841737" lon="13.2046338"><ele>31.000000000000004</ele><time>2026-04-25T07:49:25.689Z</time></trkpt><trkpt lat="41.4842351" lon="13.2045587"><ele>31.0</ele><time>2026-04-25T07:49:26.689Z</time></trkpt><trkpt lat="41.4843199" lon="13.2045063"><ele>31.0</ele><time>2026-04-25T07:49:27.689Z</time></trkpt><trkpt lat="41.4844167" lon="13.2044856"><ele>31.0</ele><time>2026-04-25T07:49:28.689Z</time></trkpt><trkpt lat="41.4845106" lon="13.2044748"><ele>31.0</ele><time>2026-04-25T07:49:29.689Z</time></trkpt><trkpt lat="41.4846066" lon="13.2044884"><ele>31.0</ele><time>2026-04-25T07:49:30.689Z</time></trkpt><trkpt lat="41.484713" lon="13.2045027"><ele>31.0</ele><time>2026-04-25T07:49:31.689Z</time></trkpt><trkpt lat="41.4848324" lon="13.2045291"><ele>30.75</ele><time>2026-04-25T07:49:32.689Z</time></trkpt><trkpt lat="41.484963" lon="13.2045773"><ele>30.5</ele><time>2026-04-25T07:49:33.689Z</time></trkpt><trkpt lat="41.485092" lon="13.204621"><ele>30.25</ele><time>2026-04-25T07:49:34.689Z</time></trkpt><trkpt lat="41.4852314" lon="13.2046677"><ele>30.0</ele><time>2026-04-25T07:49:35.689Z</time></trkpt><trkpt lat="41.48537" lon="13.2047518"><ele>30.333333333333336</ele><time>2026-04-25T07:49:36.689Z</time></trkpt><trkpt lat="41.4855299" lon="13.2048179"><ele>30.666666666666668</ele><time>2026-04-25T07:49:37.689Z</time></trkpt><trkpt lat="41.485697" lon="13.2048977"><ele>31.0</ele><time>2026-04-25T07:49:38.689Z</time></trkpt><trkpt lat="41.4858768" lon="13.2049845"><ele>31.0</ele><time>2026-04-25T07:49:39.689Z</time></trkpt><trkpt lat="41.4860425" lon="13.2050696"><ele>31.0</ele><time>2026-04-25T07:49:40.689Z</time></trkpt><trkpt lat="41.4861952" lon="13.2051478"><ele>31.0</ele><time>2026-04-25T07:49:41.689Z</time></trkpt><trkpt lat="41.4863553" lon="13.2052325"><ele>31.0</ele><time>2026-04-25T07:49:42.689Z</time></trkpt><trkpt lat="41.4865193" lon="13.205316"><ele>31.0</ele><time>2026-04-25T07:49:43.689Z</time></trkpt><trkpt lat="41.4866934" lon="13.2054087"><ele>31.0</ele><time>2026-04-25T07:49:44.689Z</time></trkpt><trkpt lat="41.4868934" lon="13.2055007"><ele>31.0</ele><time>2026-04-25T07:49:45.689Z</time></trkpt><trkpt lat="41.4871238" lon="13.2055848"><ele>31.0</ele><time>2026-04-25T07:49:46.689Z</time></trkpt><trkpt lat="41.487313" lon="13.2056706"><ele>31.0</ele><time>2026-04-25T07:49:47.689Z</time></trkpt><trkpt lat="41.4875058" lon="13.2057567"><ele>31.0</ele><time>2026-04-25T07:49:48.689Z</time></trkpt><trkpt lat="41.4877013" lon="13.2058452"><ele>31.0</ele><time>2026-04-25T07:49:49.689Z</time></trkpt><trkpt lat="41.4878977" lon="13.2059403"><ele>31.0</ele><time>2026-04-25T07:49:50.689Z</time></trkpt><trkpt lat="41.4880928" lon="13.2060301"><ele>31.0</ele><time>2026-04-25T07:49:51.689Z</time></trkpt><trkpt lat="41.4882896" lon="13.206123"><ele>31.0</ele><time>2026-04-25T07:49:52.689Z</time></trkpt><trkpt lat="41.488487" lon="13.2062183"><ele>31.0</ele><time>2026-04-25T07:49:53.689Z</time></trkpt><trkpt lat="41.4886844" lon="13.2063138"><ele>31.333333333333336</ele><time>2026-04-25T07:49:54.689Z</time></trkpt><trkpt lat="41.4888853" lon="13.2064079"><ele>31.666666666666664</ele><time>2026-04-25T07:49:55.689Z</time></trkpt><trkpt lat="41.4890854" lon="13.2065072"><ele>32.0</ele><time>2026-04-25T07:49:56.689Z</time></trkpt><trkpt lat="41.4892813" lon="13.2066018"><ele>32.0</ele><time>2026-04-25T07:49:57.689Z</time></trkpt><trkpt lat="41.4894701" lon="13.2066954"><ele>32.0</ele><time>2026-04-25T07:49:58.689Z</time></trkpt><trkpt lat="41.4896599" lon="13.2067906"><ele>32.0</ele><time>2026-04-25T07:49:59.689Z</time></trkpt><trkpt lat="41.4898418" lon="13.2068776"><ele>31.333333333333332</ele><time>2026-04-25T07:50:00.689Z</time></trkpt><trkpt lat="41.4900186" lon="13.2069604"><ele>30.666666666666664</ele><time>2026-04-25T07:50:01.689Z</time></trkpt><trkpt lat="41.4901864" lon="13.2070377"><ele>30.0</ele><time>2026-04-25T07:50:02.689Z</time></trkpt><trkpt lat="41.4903497" lon="13.2071159"><ele>30.0</ele><time>2026-04-25T07:50:03.689Z</time></trkpt><trkpt lat="41.490507" lon="13.2071923"><ele>30.0</ele><time>2026-04-25T07:50:04.689Z</time></trkpt><trkpt lat="41.4906634" lon="13.2072596"><ele>30.0</ele><time>2026-04-25T07:50:05.689Z</time></trkpt><trkpt lat="41.4908127" lon="13.2073289"><ele>30.666666666666664</ele><time>2026-04-25T07:50:06.689Z</time></trkpt><trkpt lat="41.4909662" lon="13.2074045"><ele>31.333333333333332</ele><time>2026-04-25T07:50:07.689Z</time></trkpt><trkpt lat="41.4911174" lon="13.2074768"><ele>32.0</ele><time>2026-04-25T07:50:08.689Z</time></trkpt><trkpt lat="41.4912673" lon="13.20755"><ele>32.0</ele><time>2026-04-25T07:50:09.689Z</time></trkpt><trkpt lat="41.4914173" lon="13.2076288"><ele>32.0</ele><time>2026-04-25T07:50:10.689Z</time></trkpt><trkpt lat="41.4915729" lon="13.2077087"><ele>32.0</ele><time>2026-04-25T07:50:11.69Z</time></trkpt><trkpt lat="41.4917285" lon="13.2077922"><ele>32.0</ele><time>2026-04-25T07:50:12.689Z</time></trkpt><trkpt lat="41.4918841" lon="13.2078783"><ele>32.0</ele><time>2026-04-25T07:50:13.689Z</time></trkpt><trkpt lat="41.4920411" lon="13.2079713"><ele>32.0</ele><time>2026-04-25T07:50:14.689Z</time></trkpt><trkpt lat="41.4921936" lon="13.2080546"><ele>32.0</ele><time>2026-04-25T07:50:15.689Z</time></trkpt><trkpt lat="41.4923447" lon="13.2081313"><ele>32.0</ele><time>2026-04-25T07:50:16.689Z</time></trkpt><trkpt lat="41.4924948" lon="13.2082089"><ele>32.0</ele><time>2026-04-25T07:50:17.689Z</time></trkpt><trkpt lat="41.4926398" lon="13.2082896"><ele>32.25</ele><time>2026-04-25T07:50:18.689Z</time></trkpt><trkpt lat="41.4927809" lon="13.2083651"><ele>32.5</ele><time>2026-04-25T07:50:19.689Z</time></trkpt><trkpt lat="41.4929191" lon="13.2084418"><ele>32.75</ele><time>2026-04-25T07:50:20.689Z</time></trkpt><trkpt lat="41.4930551" lon="13.2085143"><ele>33.0</ele><time>2026-04-25T07:50:21.689Z</time></trkpt><trkpt lat="41.4931897" lon="13.2085862"><ele>33.75</ele><time>2026-04-25T07:50:22.689Z</time></trkpt><trkpt lat="41.4933223" lon="13.2086599"><ele>34.5</ele><time>2026-04-25T07:50:23.69Z</time></trkpt><trkpt lat="41.4934517" lon="13.2087297"><ele>35.25</ele><time>2026-04-25T07:50:24.689Z</time></trkpt><trkpt lat="41.4935857" lon="13.2088016"><ele>36.0</ele><time>2026-04-25T07:50:25.689Z</time></trkpt><trkpt lat="41.4937234" lon="13.2088785"><ele>35.75</ele><time>2026-04-25T07:50:26.689Z</time></trkpt><trkpt lat="41.4938529" lon="13.2089485"><ele>35.5</ele><time>2026-04-25T07:50:27.689Z</time></trkpt><trkpt lat="41.4939841" lon="13.2090227"><ele>35.25</ele><time>2026-04-25T07:50:28.689Z</time></trkpt><trkpt lat="41.4941156" lon="13.2090986"><ele>35.0</ele><time>2026-04-25T07:50:29.689Z</time></trkpt><trkpt lat="41.4942501" lon="13.2091869"><ele>34.666666666666664</ele><time>2026-04-25T07:50:30.689Z</time></trkpt><trkpt lat="41.4943859" lon="13.2092846"><ele>34.333333333333336</ele><time>2026-04-25T07:50:31.689Z</time></trkpt><trkpt lat="41.4945217" lon="13.2093929"><ele>34.0</ele><time>2026-04-25T07:50:32.689Z</time></trkpt><trkpt lat="41.4946565" lon="13.2095157"><ele>34.0</ele><time>2026-04-25T07:50:33.689Z</time></trkpt><trkpt lat="41.4947836" lon="13.2096507"><ele>34.0</ele><time>2026-04-25T07:50:34.689Z</time></trkpt><trkpt lat="41.4949042" lon="13.2097975"><ele>34.0</ele><time>2026-04-25T07:50:35.689Z</time></trkpt><trkpt lat="41.4950151" lon="13.2099578"><ele>34.0</ele><time>2026-04-25T07:50:36.689Z</time></trkpt><trkpt lat="41.4951206" lon="13.2101341"><ele>34.0</ele><time>2026-04-25T07:50:37.689Z</time></trkpt><trkpt lat="41.4952217" lon="13.2103215"><ele>34.0</ele><time>2026-04-25T07:50:38.689Z</time></trkpt><trkpt lat="41.4953212" lon="13.2105264"><ele>33.66666666666667</ele><time>2026-04-25T07:50:39.689Z</time></trkpt><trkpt lat="41.4953952" lon="13.2107219"><ele>33.333333333333336</ele><time>2026-04-25T07:50:40.689Z</time></trkpt><trkpt lat="41.4954582" lon="13.2108983"><ele>33.0</ele><time>2026-04-25T07:50:41.689Z</time></trkpt><trkpt lat="41.4955278" lon="13.2110654"><ele>33.666666666666664</ele><time>2026-04-25T07:50:42.689Z</time></trkpt><trkpt lat="41.4955884" lon="13.2112346"><ele>34.33333333333333</ele><time>2026-04-25T07:50:43.689Z</time></trkpt><trkpt lat="41.4956619" lon="13.2114319"><ele>35.0</ele><time>2026-04-25T07:50:44.689Z</time></trkpt><trkpt lat="41.4957569" lon="13.2116692"><ele>35.33333333333333</ele><time>2026-04-25T07:50:45.689Z</time></trkpt><trkpt lat="41.4958561" lon="13.2119019"><ele>35.666666666666664</ele><time>2026-04-25T07:50:46.689Z</time></trkpt><trkpt lat="41.4959531" lon="13.2121481"><ele>36.0</ele><time>2026-04-25T07:50:47.689Z</time></trkpt><trkpt lat="41.4960348" lon="13.2123479"><ele>36.0</ele><time>2026-04-25T07:50:48.689Z</time></trkpt><trkpt lat="41.4961184" lon="13.2125389"><ele>36.0</ele><time>2026-04-25T07:50:49.689Z</time></trkpt><trkpt lat="41.4962016" lon="13.2127278"><ele>36.0</ele><time>2026-04-25T07:50:50.689Z</time></trkpt><trkpt lat="41.4962827" lon="13.2129039"><ele>36.0</ele><time>2026-04-25T07:50:51.689Z</time></trkpt><trkpt lat="41.496366" lon="13.2130695"><ele>36.0</ele><time>2026-04-25T07:50:52.689Z</time></trkpt><trkpt lat="41.4964513" lon="13.2132333"><ele>36.0</ele><time>2026-04-25T07:50:53.689Z</time></trkpt><trkpt lat="41.4965376" lon="13.2133954"><ele>36.0</ele><time>2026-04-25T07:50:54.689Z</time></trkpt><trkpt lat="41.4966242" lon="13.213561"><ele>36.0</ele><time>2026-04-25T07:50:55.689Z</time></trkpt><trkpt lat="41.4967129" lon="13.2137305"><ele>36.0</ele><time>2026-04-25T07:50:56.69Z</time></trkpt><trkpt lat="41.4968031" lon="13.2138957"><ele>36.0</ele><time>2026-04-25T07:50:57.689Z</time></trkpt><trkpt lat="41.4968976" lon="13.2140687"><ele>35.666666666666664</ele><time>2026-04-25T07:50:58.689Z</time></trkpt><trkpt lat="41.4969919" lon="13.2142452"><ele>35.33333333333333</ele><time>2026-04-25T07:50:59.689Z</time></trkpt><trkpt lat="41.4970833" lon="13.2144181"><ele>35.0</ele><time>2026-04-25T07:51:00.689Z</time></trkpt><trkpt lat="41.4971734" lon="13.2145809"><ele>35.5</ele><time>2026-04-25T07:51:01.689Z</time></trkpt><trkpt lat="41.4972594" lon="13.2147369"><ele>36.0</ele><time>2026-04-25T07:51:02.689Z</time></trkpt><trkpt lat="41.4973425" lon="13.2148856"><ele>36.5</ele><time>2026-04-25T07:51:03.689Z</time></trkpt><trkpt lat="41.4974274" lon="13.215037"><ele>37.0</ele><time>2026-04-25T07:51:04.689Z</time></trkpt><trkpt lat="41.4975129" lon="13.215195"><ele>37.0</ele><time>2026-04-25T07:51:05.689Z</time></trkpt><trkpt lat="41.4975982" lon="13.2153577"><ele>37.0</ele><time>2026-04-25T07:51:06.689Z</time></trkpt><trkpt lat="41.4976896" lon="13.2155288"><ele>37.0</ele><time>2026-04-25T07:51:07.689Z</time></trkpt><trkpt lat="41.4977806" lon="13.2156999"><ele>36.333333333333336</ele><time>2026-04-25T07:51:08.689Z</time></trkpt><trkpt lat="41.4978706" lon="13.2158786"><ele>35.666666666666664</ele><time>2026-04-25T07:51:09.689Z</time></trkpt><trkpt lat="41.4979597" lon="13.2160641"><ele>35.0</ele><time>2026-04-25T07:51:10.689Z</time></trkpt><trkpt lat="41.4980463" lon="13.2162611"><ele>35.0</ele><time>2026-04-25T07:51:11.689Z</time></trkpt><trkpt lat="41.4981243" lon="13.2164638"><ele>35.0</ele><time>2026-04-25T07:51:12.689Z</time></trkpt><trkpt lat="41.498196" lon="13.2166691"><ele>35.0</ele><time>2026-04-25T07:51:13.69Z</time></trkpt><trkpt lat="41.4982658" lon="13.2168894"><ele>35.0</ele><time>2026-04-25T07:51:14.689Z</time></trkpt><trkpt lat="41.4983252" lon="13.2171067"><ele>35.0</ele><time>2026-04-25T07:51:15.689Z</time></trkpt><trkpt lat="41.4983804" lon="13.2173132"><ele>35.0</ele><time>2026-04-25T07:51:16.689Z</time></trkpt><trkpt lat="41.4984387" lon="13.217506"><ele>35.33333333333333</ele><time>2026-04-25T07:51:17.689Z</time></trkpt><trkpt lat="41.4985014" lon="13.2176977"><ele>35.666666666666664</ele><time>2026-04-25T07:51:18.689Z</time></trkpt><trkpt lat="41.4985592" lon="13.2178994"><ele>36.0</ele><time>2026-04-25T07:51:19.689Z</time></trkpt><trkpt lat="41.4986135" lon="13.2181124"><ele>36.666666666666664</ele><time>2026-04-25T07:51:20.689Z</time></trkpt><trkpt lat="41.4986695" lon="13.2183253"><ele>37.33333333333333</ele><time>2026-04-25T07:51:21.689Z</time></trkpt><trkpt lat="41.4987291" lon="13.2185436"><ele>38.0</ele><time>2026-04-25T07:51:22.689Z</time></trkpt><trkpt lat="41.4987868" lon="13.2187614"><ele>38.0</ele><time>2026-04-25T07:51:23.689Z</time></trkpt><trkpt lat="41.4988421" lon="13.2189803"><ele>38.0</ele><time>2026-04-25T07:51:24.689Z</time></trkpt><trkpt lat="41.4989018" lon="13.2191969"><ele>38.0</ele><time>2026-04-25T07:51:25.689Z</time></trkpt><trkpt lat="41.4989605" lon="13.2194006"><ele>38.0</ele><time>2026-04-25T07:51:26.689Z</time></trkpt><trkpt lat="41.4990315" lon="13.2196042"><ele>38.0</ele><time>2026-04-25T07:51:27.689Z</time></trkpt><trkpt lat="41.4991006" lon="13.2198064"><ele>38.0</ele><time>2026-04-25T07:51:28.689Z</time></trkpt><trkpt lat="41.499165" lon="13.2200181"><ele>38.0</ele><time>2026-04-25T07:51:29.689Z</time></trkpt><trkpt lat="41.4992095" lon="13.22022"><ele>38.0</ele><time>2026-04-25T07:51:30.689Z</time></trkpt><trkpt lat="41.4992683" lon="13.2204184"><ele>38.0</ele><time>2026-04-25T07:51:31.689Z</time></trkpt><trkpt lat="41.4993207" lon="13.2206094"><ele>38.0</ele><time>2026-04-25T07:51:32.689Z</time></trkpt><trkpt lat="41.4993714" lon="13.2207929"><ele>38.0</ele><time>2026-04-25T07:51:33.689Z</time></trkpt><trkpt lat="41.4994254" lon="13.2209651"><ele>38.0</ele><time>2026-04-25T07:51:34.689Z</time></trkpt><trkpt lat="41.4994771" lon="13.2211255"><ele>38.0</ele><time>2026-04-25T07:51:35.689Z</time></trkpt><trkpt lat="41.4995206" lon="13.2212623"><ele>38.0</ele><time>2026-04-25T07:51:36.689Z</time></trkpt><trkpt lat="41.4995483" lon="13.2213626"><ele>38.0</ele><time>2026-04-25T07:51:37.689Z</time></trkpt><trkpt lat="41.4995417" lon="13.2214955"><ele>38.0</ele><time>2026-04-25T07:51:39.689Z</time></trkpt><trkpt lat="41.4994731" lon="13.221588"><ele>38.0</ele><time>2026-04-25T07:51:41.689Z</time></trkpt><trkpt lat="41.4993942" lon="13.2216573"><ele>38.0</ele><time>2026-04-25T07:51:43.689Z</time></trkpt><trkpt lat="41.4993284" lon="13.2217027"><ele>38.0</ele><time>2026-04-25T07:51:45.689Z</time></trkpt><trkpt lat="41.4992768" lon="13.2217663"><ele>38.33333333333333</ele><time>2026-04-25T07:52:11.689Z</time></trkpt><trkpt lat="41.4993485" lon="13.2217379"><ele>38.666666666666664</ele><time>2026-04-25T07:52:14.689Z</time></trkpt><trkpt lat="41.4993984" lon="13.2216843"><ele>39.0</ele><time>2026-04-25T07:52:17.689Z</time></trkpt><trkpt lat="41.4994572" lon="13.2216369"><ele>39.333333333333336</ele><time>2026-04-25T07:52:21.689Z</time></trkpt><trkpt lat="41.4995296" lon="13.2216217"><ele>39.66666666666667</ele><time>2026-04-25T07:52:25.689Z</time></trkpt><trkpt lat="41.4995501" lon="13.2217917"><ele>40.0</ele><time>2026-04-25T07:57:30.688Z</time></trkpt><trkpt lat="41.4994694" lon="13.2218162"><ele>40.0</ele><time>2026-04-25T07:57:32.688Z</time></trkpt><trkpt lat="41.4993726" lon="13.2217382"><ele>40.0</ele><time>2026-04-25T07:57:34.688Z</time></trkpt><trkpt lat="41.4993053" lon="13.2217274"><ele>40.0</ele><time>2026-04-25T07:57:35.689Z</time></trkpt><trkpt lat="41.4992385" lon="13.2217137"><ele>40.0</ele><time>2026-04-25T07:57:37.688Z</time></trkpt><trkpt lat="41.4991789" lon="13.2218281"><ele>40.0</ele><time>2026-04-25T08:12:10.686Z</time></trkpt><trkpt lat="41.4992619" lon="13.2219021"><ele>40.0</ele><time>2026-04-25T08:12:12.686Z</time></trkpt><trkpt lat="41.4993738" lon="13.221915"><ele>40.0</ele><time>2026-04-25T08:12:14.687Z</time></trkpt><trkpt lat="41.4994792" lon="13.2218494"><ele>40.0</ele><time>2026-04-25T08:12:16.686Z</time></trkpt><trkpt lat="41.4995812" lon="13.2218084"><ele>40.0</ele><time>2026-04-25T08:12:18.686Z</time></trkpt><trkpt lat="41.499676" lon="13.221829"><ele>40.0</ele><time>2026-04-25T08:12:20.686Z</time></trkpt><trkpt lat="41.4997526" lon="13.2218753"><ele>40.16666666666667</ele><time>2026-04-25T08:12:22.686Z</time></trkpt><trkpt lat="41.4998184" lon="13.2219785"><ele>40.333333333333336</ele><time>2026-04-25T08:12:24.686Z</time></trkpt><trkpt lat="41.4998593" lon="13.222055"><ele>40.5</ele><time>2026-04-25T08:12:25.686Z</time></trkpt><trkpt lat="41.4999042" lon="13.2221465"><ele>40.666666666666664</ele><time>2026-04-25T08:12:26.686Z</time></trkpt><trkpt lat="41.4999531" lon="13.2222409"><ele>40.83333333333333</ele><time>2026-04-25T08:12:27.686Z</time></trkpt><trkpt lat="41.500011" lon="13.2223519"><ele>41.0</ele><time>2026-04-25T08:12:28.686Z</time></trkpt><trkpt lat="41.5000825" lon="13.2224748"><ele>41.0</ele><time>2026-04-25T08:12:29.686Z</time></trkpt><trkpt lat="41.5001635" lon="13.2226136"><ele>41.0</ele><time>2026-04-25T08:12:30.686Z</time></trkpt><trkpt lat="41.5002542" lon="13.2227553"><ele>41.0</ele><time>2026-04-25T08:12:31.686Z</time></trkpt><trkpt lat="41.500355" lon="13.2228962"><ele>41.0</ele><time>2026-04-25T08:12:32.686Z</time></trkpt><trkpt lat="41.5004623" lon="13.2230384"><ele>42.0</ele><time>2026-04-25T08:12:33.686Z</time></trkpt><trkpt lat="41.5005718" lon="13.2231796"><ele>43.0</ele><time>2026-04-25T08:12:34.686Z</time></trkpt><trkpt lat="41.5006923" lon="13.2233213"><ele>44.0</ele><time>2026-04-25T08:12:35.686Z</time></trkpt><trkpt lat="41.5008193" lon="13.2234615"><ele>44.0</ele><time>2026-04-25T08:12:36.686Z</time></trkpt><trkpt lat="41.5009549" lon="13.2236115"><ele>44.0</ele><time>2026-04-25T08:12:37.686Z</time></trkpt><trkpt lat="41.5010844" lon="13.2237576"><ele>44.0</ele><time>2026-04-25T08:12:38.686Z</time></trkpt><trkpt lat="41.5012102" lon="13.2238856"><ele>44.75</ele><time>2026-04-25T08:12:39.686Z</time></trkpt><trkpt lat="41.5013292" lon="13.2240022"><ele>45.5</ele><time>2026-04-25T08:12:40.686Z</time></trkpt><trkpt lat="41.5014365" lon="13.2241151"><ele>46.25</ele><time>2026-04-25T08:12:41.686Z</time></trkpt><trkpt lat="41.5015304" lon="13.2242094"><ele>47.0</ele><time>2026-04-25T08:12:42.686Z</time></trkpt><trkpt lat="41.5016064" lon="13.2242992"><ele>47.0</ele><time>2026-04-25T08:12:43.686Z</time></trkpt><trkpt lat="41.5016646" lon="13.224374"><ele>47.0</ele><time>2026-04-25T08:12:44.686Z</time></trkpt><trkpt lat="41.5017247" lon="13.2244958"><ele>47.0</ele><time>2026-04-25T08:12:46.686Z</time></trkpt><trkpt lat="41.5017668" lon="13.2245974"><ele>47.0</ele><time>2026-04-25T08:12:48.686Z</time></trkpt><trkpt lat="41.5018076" lon="13.2247074"><ele>47.0</ele><time>2026-04-25T08:12:50.686Z</time></trkpt><trkpt lat="41.5018755" lon="13.2248145"><ele>47.0</ele><time>2026-04-25T08:12:52.686Z</time></trkpt><trkpt lat="41.5019863" lon="13.224859"><ele>47.0</ele><time>2026-04-25T08:12:54.686Z</time></trkpt><trkpt lat="41.5021114" lon="13.2249099"><ele>47.0</ele><time>2026-04-25T08:12:56.686Z</time></trkpt><trkpt lat="41.5021756" lon="13.2249649"><ele>47.0</ele><time>2026-04-25T08:12:57.686Z</time></trkpt><trkpt lat="41.5022407" lon="13.2250257"><ele>47.0</ele><time>2026-04-25T08:12:58.686Z</time></trkpt><trkpt lat="41.502314" lon="13.2251059"><ele>47.6</ele><time>2026-04-25T08:12:59.686Z</time></trkpt><trkpt lat="41.5023873" lon="13.2252075"><ele>48.2</ele><time>2026-04-25T08:13:00.686Z</time></trkpt><trkpt lat="41.5024619" lon="13.2253085"><ele>48.8</ele><time>2026-04-25T08:13:01.686Z</time></trkpt><trkpt lat="41.5025377" lon="13.2254065"><ele>49.4</ele><time>2026-04-25T08:13:02.686Z</time></trkpt><trkpt lat="41.5026135" lon="13.2255116"><ele>50.0</ele><time>2026-04-25T08:13:03.686Z</time></trkpt><trkpt lat="41.5026896" lon="13.2256572"><ele>50.0</ele><time>2026-04-25T08:13:04.687Z</time></trkpt><trkpt lat="41.5027674" lon="13.2258127"><ele>50.0</ele><time>2026-04-25T08:13:05.686Z</time></trkpt><trkpt lat="41.5028458" lon="13.2259878"><ele>50.0</ele><time>2026-04-25T08:13:06.686Z</time></trkpt><trkpt lat="41.5029297" lon="13.2261685"><ele>51.0</ele><time>2026-04-25T08:13:07.686Z</time></trkpt><trkpt lat="41.5030158" lon="13.2263573"><ele>52.0</ele><time>2026-04-25T08:13:08.686Z</time></trkpt><trkpt lat="41.5030918" lon="13.2265613"><ele>53.0</ele><time>2026-04-25T08:13:09.686Z</time></trkpt><trkpt lat="41.5031634" lon="13.22678"><ele>53.333333333333336</ele><time>2026-04-25T08:13:10.687Z</time></trkpt><trkpt lat="41.5032199" lon="13.2269978"><ele>53.66666666666667</ele><time>2026-04-25T08:13:11.686Z</time></trkpt><trkpt lat="41.5032744" lon="13.2272159"><ele>54.0</ele><time>2026-04-25T08:13:12.686Z</time></trkpt><trkpt lat="41.5033386" lon="13.2274612"><ele>53.33333333333333</ele><time>2026-04-25T08:13:13.686Z</time></trkpt><trkpt lat="41.503387" lon="13.2277035"><ele>52.666666666666664</ele><time>2026-04-25T08:13:14.686Z</time></trkpt><trkpt lat="41.5034419" lon="13.2279535"><ele>52.0</ele><time>2026-04-25T08:13:15.686Z</time></trkpt><trkpt lat="41.5034995" lon="13.2282081"><ele>52.0</ele><time>2026-04-25T08:13:16.686Z</time></trkpt><trkpt lat="41.5035608" lon="13.2284651"><ele>52.0</ele><time>2026-04-25T08:13:17.686Z</time></trkpt><trkpt lat="41.5036211" lon="13.2287263"><ele>52.0</ele><time>2026-04-25T08:13:18.686Z</time></trkpt><trkpt lat="41.5036851" lon="13.2289984"><ele>54.33333333333333</ele><time>2026-04-25T08:13:19.686Z</time></trkpt><trkpt lat="41.5037528" lon="13.2292698"><ele>56.66666666666667</ele><time>2026-04-25T08:13:20.687Z</time></trkpt><trkpt lat="41.5038154" lon="13.2295425"><ele>59.0</ele><time>2026-04-25T08:13:21.686Z</time></trkpt><trkpt lat="41.5038778" lon="13.2298116"><ele>59.0</ele><time>2026-04-25T08:13:22.686Z</time></trkpt><trkpt lat="41.5039424" lon="13.2300864"><ele>59.0</ele><time>2026-04-25T08:13:23.686Z</time></trkpt><trkpt lat="41.5040087" lon="13.2303654"><ele>59.0</ele><time>2026-04-25T08:13:24.686Z</time></trkpt><trkpt lat="41.5040783" lon="13.2306456"><ele>57.66666666666667</ele><time>2026-04-25T08:13:25.686Z</time></trkpt><trkpt lat="41.504143" lon="13.2309253"><ele>56.33333333333333</ele><time>2026-04-25T08:13:26.686Z</time></trkpt><trkpt lat="41.5042121" lon="13.2312105"><ele>55.0</ele><time>2026-04-25T08:13:27.686Z</time></trkpt><trkpt lat="41.5042741" lon="13.2314809"><ele>54.666666666666664</ele><time>2026-04-25T08:13:28.687Z</time></trkpt><trkpt lat="41.5043369" lon="13.2317496"><ele>54.33333333333333</ele><time>2026-04-25T08:13:29.686Z</time></trkpt><trkpt lat="41.5043984" lon="13.2320137"><ele>54.0</ele><time>2026-04-25T08:13:30.686Z</time></trkpt><trkpt lat="41.5044582" lon="13.232281"><ele>53.66666666666667</ele><time>2026-04-25T08:13:31.686Z</time></trkpt><trkpt lat="41.5045136" lon="13.2325601"><ele>53.333333333333336</ele><time>2026-04-25T08:13:32.686Z</time></trkpt><trkpt lat="41.504561" lon="13.2328365"><ele>53.0</ele><time>2026-04-25T08:13:33.686Z</time></trkpt><trkpt lat="41.504598" lon="13.2331116"><ele>55.0</ele><time>2026-04-25T08:13:34.686Z</time></trkpt><trkpt lat="41.504625" lon="13.2333874"><ele>57.0</ele><time>2026-04-25T08:13:35.686Z</time></trkpt><trkpt lat="41.5046423" lon="13.2336708"><ele>59.0</ele><time>2026-04-25T08:13:36.686Z</time></trkpt><trkpt lat="41.5046523" lon="13.2339506"><ele>61.0</ele><time>2026-04-25T08:13:37.686Z</time></trkpt><trkpt lat="41.5046607" lon="13.2342351"><ele>63.0</ele><time>2026-04-25T08:13:38.686Z</time></trkpt><trkpt lat="41.5046616" lon="13.234518"><ele>65.0</ele><time>2026-04-25T08:13:39.686Z</time></trkpt><trkpt lat="41.5046559" lon="13.2348037"><ele>66.0</ele><time>2026-04-25T08:13:40.687Z</time></trkpt><trkpt lat="41.5046517" lon="13.2350896"><ele>67.0</ele><time>2026-04-25T08:13:41.686Z</time></trkpt><trkpt lat="41.5046568" lon="13.2353758"><ele>68.0</ele><time>2026-04-25T08:13:42.686Z</time></trkpt><trkpt lat="41.5046696" lon="13.2356613"><ele>68.0</ele><time>2026-04-25T08:13:43.686Z</time></trkpt><trkpt lat="41.5046853" lon="13.2359418"><ele>68.0</ele><time>2026-04-25T08:13:44.686Z</time></trkpt><trkpt lat="41.5047046" lon="13.2362162"><ele>68.0</ele><time>2026-04-25T08:13:45.686Z</time></trkpt><trkpt lat="41.5047297" lon="13.2364926"><ele>67.33333333333334</ele><time>2026-04-25T08:13:46.686Z</time></trkpt><trkpt lat="41.5047549" lon="13.2367628"><ele>66.66666666666667</ele><time>2026-04-25T08:13:47.686Z</time></trkpt><trkpt lat="41.5047863" lon="13.2370306"><ele>66.0</ele><time>2026-04-25T08:13:48.686Z</time></trkpt><trkpt lat="41.504823" lon="13.2372972"><ele>66.0</ele><time>2026-04-25T08:13:49.686Z</time></trkpt><trkpt lat="41.5048571" lon="13.2375619"><ele>66.0</ele><time>2026-04-25T08:13:50.686Z</time></trkpt><trkpt lat="41.5048897" lon="13.2378306"><ele>66.0</ele><time>2026-04-25T08:13:51.686Z</time></trkpt><trkpt lat="41.5049252" lon="13.2381034"><ele>65.66666666666667</ele><time>2026-04-25T08:13:52.686Z</time></trkpt><trkpt lat="41.504968" lon="13.2383744"><ele>65.33333333333334</ele><time>2026-04-25T08:13:53.686Z</time></trkpt><trkpt lat="41.5050074" lon="13.2386282"><ele>65.0</ele><time>2026-04-25T08:13:54.686Z</time></trkpt><trkpt lat="41.5050452" lon="13.2388865"><ele>64.0</ele><time>2026-04-25T08:13:55.686Z</time></trkpt><trkpt lat="41.5050803" lon="13.2391541"><ele>63.0</ele><time>2026-04-25T08:13:56.686Z</time></trkpt><trkpt lat="41.5051151" lon="13.2394093"><ele>62.0</ele><time>2026-04-25T08:13:57.686Z</time></trkpt><trkpt lat="41.5051485" lon="13.2396601"><ele>61.66666666666667</ele><time>2026-04-25T08:13:58.686Z</time></trkpt><trkpt lat="41.5051865" lon="13.2399029"><ele>61.33333333333333</ele><time>2026-04-25T08:13:59.686Z</time></trkpt><trkpt lat="41.5052264" lon="13.2401498"><ele>61.0</ele><time>2026-04-25T08:14:00.686Z</time></trkpt><trkpt lat="41.5052658" lon="13.2403928"><ele>61.0</ele><time>2026-04-25T08:14:01.686Z</time></trkpt><trkpt lat="41.5053046" lon="13.2406194"><ele>61.0</ele><time>2026-04-25T08:14:02.686Z</time></trkpt><trkpt lat="41.5053433" lon="13.2408299"><ele>61.0</ele><time>2026-04-25T08:14:03.686Z</time></trkpt><trkpt lat="41.5053777" lon="13.2410191"><ele>61.25</ele><time>2026-04-25T08:14:04.687Z</time></trkpt><trkpt lat="41.5053997" lon="13.2412011"><ele>61.5</ele><time>2026-04-25T08:14:05.687Z</time></trkpt><trkpt lat="41.5054153" lon="13.2413684"><ele>61.75</ele><time>2026-04-25T08:14:06.687Z</time></trkpt><trkpt lat="41.505416" lon="13.2415373"><ele>62.0</ele><time>2026-04-25T08:14:07.686Z</time></trkpt><trkpt lat="41.5053919" lon="13.2416912"><ele>61.6</ele><time>2026-04-25T08:14:08.686Z</time></trkpt><trkpt lat="41.5053422" lon="13.241852"><ele>61.2</ele><time>2026-04-25T08:14:09.686Z</time></trkpt><trkpt lat="41.5052728" lon="13.2419628"><ele>60.8</ele><time>2026-04-25T08:14:10.686Z</time></trkpt><trkpt lat="41.5051913" lon="13.2420439"><ele>60.4</ele><time>2026-04-25T08:14:11.686Z</time></trkpt><trkpt lat="41.5051018" lon="13.2420853"><ele>60.0</ele><time>2026-04-25T08:14:12.686Z</time></trkpt><trkpt lat="41.5050114" lon="13.2420936"><ele>60.0</ele><time>2026-04-25T08:14:13.686Z</time></trkpt><trkpt lat="41.5049159" lon="13.2420661"><ele>60.0</ele><time>2026-04-25T08:14:14.686Z</time></trkpt><trkpt lat="41.504827" lon="13.2420067"><ele>60.0</ele><time>2026-04-25T08:14:15.686Z</time></trkpt><trkpt lat="41.5047522" lon="13.2419088"><ele>60.0</ele><time>2026-04-25T08:14:16.686Z</time></trkpt><trkpt lat="41.5046996" lon="13.2418085"><ele>60.0</ele><time>2026-04-25T08:14:17.686Z</time></trkpt><trkpt lat="41.5046665" lon="13.2416888"><ele>60.0</ele><time>2026-04-25T08:14:18.686Z</time></trkpt><trkpt lat="41.504665" lon="13.241553"><ele>60.0</ele><time>2026-04-25T08:14:19.686Z</time></trkpt><trkpt lat="41.5046774" lon="13.2414251"><ele>60.0</ele><time>2026-04-25T08:14:20.686Z</time></trkpt><trkpt lat="41.5047135" lon="13.2413061"><ele>60.0</ele><time>2026-04-25T08:14:21.686Z</time></trkpt><trkpt lat="41.5047644" lon="13.2412001"><ele>60.0</ele><time>2026-04-25T08:14:22.686Z</time></trkpt><trkpt lat="41.5048265" lon="13.2411058"><ele>60.4</ele><time>2026-04-25T08:14:23.686Z</time></trkpt><trkpt lat="41.5049033" lon="13.2410264"><ele>60.8</ele><time>2026-04-25T08:14:24.687Z</time></trkpt><trkpt lat="41.5049884" lon="13.2409651"><ele>61.2</ele><time>2026-04-25T08:14:25.686Z</time></trkpt><trkpt lat="41.505076" lon="13.2409053"><ele>61.6</ele><time>2026-04-25T08:14:26.687Z</time></trkpt><trkpt lat="41.505168" lon="13.2408515"><ele>62.0</ele><time>2026-04-25T08:14:27.686Z</time></trkpt><trkpt lat="41.5052749" lon="13.240796"><ele>62.0</ele><time>2026-04-25T08:14:28.686Z</time></trkpt><trkpt lat="41.5053745" lon="13.240746"><ele>62.0</ele><time>2026-04-25T08:14:29.686Z</time></trkpt><trkpt lat="41.5054748" lon="13.2406988"><ele>62.0</ele><time>2026-04-25T08:14:30.686Z</time></trkpt><trkpt lat="41.5055656" lon="13.2406614"><ele>62.0</ele><time>2026-04-25T08:14:31.686Z</time></trkpt><trkpt lat="41.5056479" lon="13.2406212"><ele>62.0</ele><time>2026-04-25T08:14:32.687Z</time></trkpt><trkpt lat="41.5057326" lon="13.2405865"><ele>62.400000000000006</ele><time>2026-04-25T08:14:33.686Z</time></trkpt><trkpt lat="41.5058253" lon="13.2405583"><ele>62.800000000000004</ele><time>2026-04-25T08:14:34.686Z</time></trkpt><trkpt lat="41.5059196" lon="13.2405507"><ele>63.2</ele><time>2026-04-25T08:14:35.686Z</time></trkpt><trkpt lat="41.5060079" lon="13.2405587"><ele>63.6</ele><time>2026-04-25T08:14:36.686Z</time></trkpt><trkpt lat="41.506093" lon="13.2405886"><ele>64.0</ele><time>2026-04-25T08:14:37.686Z</time></trkpt><trkpt lat="41.5061785" lon="13.2406417"><ele>65.0</ele><time>2026-04-25T08:14:38.686Z</time></trkpt><trkpt lat="41.5062621" lon="13.2407026"><ele>66.0</ele><time>2026-04-25T08:14:39.686Z</time></trkpt><trkpt lat="41.5063486" lon="13.2407748"><ele>67.0</ele><time>2026-04-25T08:14:40.686Z</time></trkpt><trkpt lat="41.5064387" lon="13.2408439"><ele>68.0</ele><time>2026-04-25T08:14:41.686Z</time></trkpt><trkpt lat="41.5065364" lon="13.2409027"><ele>69.0</ele><time>2026-04-25T08:14:42.686Z</time></trkpt><trkpt lat="41.5066366" lon="13.2409577"><ele>69.0</ele><time>2026-04-25T08:14:43.686Z</time></trkpt><trkpt lat="41.5067453" lon="13.2409996"><ele>69.0</ele><time>2026-04-25T08:14:44.687Z</time></trkpt><trkpt lat="41.5068567" lon="13.2410258"><ele>69.0</ele><time>2026-04-25T08:14:45.686Z</time></trkpt><trkpt lat="41.506974" lon="13.2410326"><ele>69.0</ele><time>2026-04-25T08:14:46.686Z</time></trkpt><trkpt lat="41.5070931" lon="13.2410108"><ele>70.0</ele><time>2026-04-25T08:14:47.686Z</time></trkpt><trkpt lat="41.5072156" lon="13.2409673"><ele>71.0</ele><time>2026-04-25T08:14:48.686Z</time></trkpt><trkpt lat="41.5073383" lon="13.2409061"><ele>72.0</ele><time>2026-04-25T08:14:49.686Z</time></trkpt><trkpt lat="41.5074645" lon="13.2408311"><ele>73.0</ele><time>2026-04-25T08:14:50.686Z</time></trkpt><trkpt lat="41.5075905" lon="13.2407515"><ele>73.0</ele><time>2026-04-25T08:14:51.686Z</time></trkpt><trkpt lat="41.5077219" lon="13.2406673"><ele>73.0</ele><time>2026-04-25T08:14:52.686Z</time></trkpt><trkpt lat="41.5078443" lon="13.2405813"><ele>73.0</ele><time>2026-04-25T08:14:53.686Z</time></trkpt><trkpt lat="41.5079602" lon="13.2404977"><ele>73.0</ele><time>2026-04-25T08:14:54.686Z</time></trkpt><trkpt lat="41.5080696" lon="13.2404155"><ele>74.6</ele><time>2026-04-25T08:14:55.686Z</time></trkpt><trkpt lat="41.5081734" lon="13.2403375"><ele>76.19999999999999</ele><time>2026-04-25T08:14:56.686Z</time></trkpt><trkpt lat="41.5082683" lon="13.2402713"><ele>77.8</ele><time>2026-04-25T08:14:57.686Z</time></trkpt><trkpt lat="41.5083594" lon="13.2402283"><ele>79.39999999999999</ele><time>2026-04-25T08:14:58.686Z</time></trkpt><trkpt lat="41.5084543" lon="13.2402017"><ele>81.0</ele><time>2026-04-25T08:14:59.686Z</time></trkpt><trkpt lat="41.5085523" lon="13.2402148"><ele>81.0</ele><time>2026-04-25T08:15:00.687Z</time></trkpt><trkpt lat="41.5086159" lon="13.2402731"><ele>81.0</ele><time>2026-04-25T08:15:01.686Z</time></trkpt><trkpt lat="41.5086565" lon="13.2403914"><ele>81.0</ele><time>2026-04-25T08:15:02.686Z</time></trkpt><trkpt lat="41.5086708" lon="13.2405126"><ele>81.0</ele><time>2026-04-25T08:15:03.686Z</time></trkpt><trkpt lat="41.5086689" lon="13.2406428"><ele>81.0</ele><time>2026-04-25T08:15:04.686Z</time></trkpt><trkpt lat="41.5086528" lon="13.2407806"><ele>79.5</ele><time>2026-04-25T08:15:05.686Z</time></trkpt><trkpt lat="41.508624" lon="13.2409245"><ele>78.0</ele><time>2026-04-25T08:15:06.686Z</time></trkpt><trkpt lat="41.5085921" lon="13.2410706"><ele>76.5</ele><time>2026-04-25T08:15:07.686Z</time></trkpt><trkpt lat="41.5085577" lon="13.241225"><ele>75.0</ele><time>2026-04-25T08:15:08.686Z</time></trkpt><trkpt lat="41.5085194" lon="13.2413868"><ele>75.5</ele><time>2026-04-25T08:15:09.686Z</time></trkpt><trkpt lat="41.508483" lon="13.241559"><ele>76.0</ele><time>2026-04-25T08:15:10.686Z</time></trkpt><trkpt lat="41.5084539" lon="13.2417295"><ele>76.5</ele><time>2026-04-25T08:15:11.686Z</time></trkpt><trkpt lat="41.5084343" lon="13.2419057"><ele>77.0</ele><time>2026-04-25T08:15:12.686Z</time></trkpt><trkpt lat="41.5084241" lon="13.2420776"><ele>77.0</ele><time>2026-04-25T08:15:13.686Z</time></trkpt><trkpt lat="41.5084179" lon="13.242244"><ele>77.0</ele><time>2026-04-25T08:15:14.686Z</time></trkpt><trkpt lat="41.5084149" lon="13.2424283"><ele>77.0</ele><time>2026-04-25T08:15:15.686Z</time></trkpt><trkpt lat="41.5084156" lon="13.2426134"><ele>77.0</ele><time>2026-04-25T08:15:16.687Z</time></trkpt><trkpt lat="41.5084148" lon="13.2427946"><ele>77.25</ele><time>2026-04-25T08:15:17.687Z</time></trkpt><trkpt lat="41.5084101" lon="13.2429785"><ele>77.5</ele><time>2026-04-25T08:15:18.686Z</time></trkpt><trkpt lat="41.5084045" lon="13.2431638"><ele>77.75</ele><time>2026-04-25T08:15:19.686Z</time></trkpt><trkpt lat="41.5084012" lon="13.2433498"><ele>78.0</ele><time>2026-04-25T08:15:20.686Z</time></trkpt><trkpt lat="41.5083999" lon="13.2435448"><ele>78.75</ele><time>2026-04-25T08:15:21.686Z</time></trkpt><trkpt lat="41.5083985" lon="13.2437299"><ele>79.5</ele><time>2026-04-25T08:15:22.686Z</time></trkpt><trkpt lat="41.5084017" lon="13.2438986"><ele>80.25</ele><time>2026-04-25T08:15:23.686Z</time></trkpt><trkpt lat="41.5084111" lon="13.2440574"><ele>81.0</ele><time>2026-04-25T08:15:24.686Z</time></trkpt><trkpt lat="41.5084178" lon="13.2442024"><ele>82.0</ele><time>2026-04-25T08:15:25.686Z</time></trkpt><trkpt lat="41.5084311" lon="13.2443438"><ele>83.0</ele><time>2026-04-25T08:15:26.686Z</time></trkpt><trkpt lat="41.5084442" lon="13.2444926"><ele>84.0</ele><time>2026-04-25T08:15:27.686Z</time></trkpt><trkpt lat="41.5084616" lon="13.2446507"><ele>85.0</ele><time>2026-04-25T08:15:28.686Z</time></trkpt><trkpt lat="41.508485" lon="13.2448142"><ele>85.25</ele><time>2026-04-25T08:15:29.686Z</time></trkpt><trkpt lat="41.5085158" lon="13.2449819"><ele>85.5</ele><time>2026-04-25T08:15:30.686Z</time></trkpt><trkpt lat="41.5085511" lon="13.2451537"><ele>85.75</ele><time>2026-04-25T08:15:31.686Z</time></trkpt><trkpt lat="41.5085893" lon="13.2453267"><ele>86.0</ele><time>2026-04-25T08:15:32.686Z</time></trkpt><trkpt lat="41.5086351" lon="13.2454975"><ele>85.0</ele><time>2026-04-25T08:15:33.686Z</time></trkpt><trkpt lat="41.5086759" lon="13.2456627"><ele>84.0</ele><time>2026-04-25T08:15:34.686Z</time></trkpt><trkpt lat="41.5087132" lon="13.2458224"><ele>83.0</ele><time>2026-04-25T08:15:35.686Z</time></trkpt><trkpt lat="41.5087436" lon="13.2459824"><ele>82.0</ele><time>2026-04-25T08:15:36.686Z</time></trkpt><trkpt lat="41.5087707" lon="13.2461404"><ele>89.25</ele><time>2026-04-25T08:15:37.686Z</time></trkpt><trkpt lat="41.5087917" lon="13.2462982"><ele>96.5</ele><time>2026-04-25T08:15:38.686Z</time></trkpt><trkpt lat="41.5088083" lon="13.2464798"><ele>103.75</ele><time>2026-04-25T08:15:39.686Z</time></trkpt><trkpt lat="41.5088277" lon="13.2466762"><ele>111.0</ele><time>2026-04-25T08:15:40.686Z</time></trkpt><trkpt lat="41.5088611" lon="13.2469438"><ele>111.0</ele><time>2026-04-25T08:15:41.687Z</time></trkpt><trkpt lat="41.5088841" lon="13.2472494"><ele>111.0</ele><time>2026-04-25T08:15:42.686Z</time></trkpt><trkpt lat="41.5088922" lon="13.247491"><ele>111.0</ele><time>2026-04-25T08:15:43.686Z</time></trkpt><trkpt lat="41.5088726" lon="13.2477065"><ele>110.66666666666666</ele><time>2026-04-25T08:15:44.686Z</time></trkpt><trkpt lat="41.5088522" lon="13.2479345"><ele>110.33333333333333</ele><time>2026-04-25T08:15:45.686Z</time></trkpt><trkpt lat="41.5088252" lon="13.2481682"><ele>110.0</ele><time>2026-04-25T08:15:46.686Z</time></trkpt><trkpt lat="41.5088034" lon="13.248388"><ele>111.66666666666666</ele><time>2026-04-25T08:15:47.686Z</time></trkpt><trkpt lat="41.5087983" lon="13.2485967"><ele>113.33333333333334</ele><time>2026-04-25T08:15:48.686Z</time></trkpt><trkpt lat="41.5088093" lon="13.248809"><ele>115.0</ele><time>2026-04-25T08:15:49.686Z</time></trkpt><trkpt lat="41.5088326" lon="13.2490122"><ele>115.0</ele><time>2026-04-25T08:15:50.686Z</time></trkpt><trkpt lat="41.5088764" lon="13.2492246"><ele>115.0</ele><time>2026-04-25T08:15:51.686Z</time></trkpt><trkpt lat="41.508934" lon="13.2494261"><ele>115.0</ele><time>2026-04-25T08:15:52.686Z</time></trkpt><trkpt lat="41.5090073" lon="13.2496219"><ele>112.66666666666667</ele><time>2026-04-25T08:15:53.686Z</time></trkpt><trkpt lat="41.5090708" lon="13.2498192"><ele>110.33333333333334</ele><time>2026-04-25T08:15:54.686Z</time></trkpt><trkpt lat="41.5091443" lon="13.2500128"><ele>108.0</ele><time>2026-04-25T08:15:55.686Z</time></trkpt><trkpt lat="41.5092245" lon="13.2502092"><ele>108.0</ele><time>2026-04-25T08:15:56.686Z</time></trkpt><trkpt lat="41.5093024" lon="13.2504054"><ele>108.0</ele><time>2026-04-25T08:15:57.686Z</time></trkpt><trkpt lat="41.5093794" lon="13.2506056"><ele>108.0</ele><time>2026-04-25T08:15:58.687Z</time></trkpt><trkpt lat="41.5094572" lon="13.2508247"><ele>104.66666666666666</ele><time>2026-04-25T08:15:59.686Z</time></trkpt><trkpt lat="41.5095274" lon="13.2510474"><ele>101.33333333333333</ele><time>2026-04-25T08:16:00.686Z</time></trkpt><trkpt lat="41.5095796" lon="13.2512732"><ele>98.0</ele><time>2026-04-25T08:16:01.686Z</time></trkpt><trkpt lat="41.5096318" lon="13.2515096"><ele>108.66666666666666</ele><time>2026-04-25T08:16:02.686Z</time></trkpt><trkpt lat="41.5096773" lon="13.2517651"><ele>119.33333333333334</ele><time>2026-04-25T08:16:03.686Z</time></trkpt><trkpt lat="41.5097006" lon="13.2520258"><ele>130.0</ele><time>2026-04-25T08:16:04.686Z</time></trkpt><trkpt lat="41.5097129" lon="13.252286"><ele>129.66666666666669</ele><time>2026-04-25T08:16:05.686Z</time></trkpt><trkpt lat="41.5097236" lon="13.252531"><ele>129.33333333333334</ele><time>2026-04-25T08:16:06.686Z</time></trkpt><trkpt lat="41.5097375" lon="13.2527813"><ele>129.0</ele><time>2026-04-25T08:16:07.686Z</time></trkpt><trkpt lat="41.5097324" lon="13.2530017"><ele>129.0</ele><time>2026-04-25T08:16:08.686Z</time></trkpt><trkpt lat="41.5097738" lon="13.253234"><ele>129.0</ele><time>2026-04-25T08:16:09.686Z</time></trkpt><trkpt lat="41.509802" lon="13.2534641"><ele>129.0</ele><time>2026-04-25T08:16:10.686Z</time></trkpt><trkpt lat="41.5098218" lon="13.2536834"><ele>130.0</ele><time>2026-04-25T08:16:11.686Z</time></trkpt><trkpt lat="41.5096702" lon="13.2540113"><ele>131.0</ele><time>2026-04-25T08:16:12.686Z</time></trkpt><trkpt lat="41.5097017" lon="13.2542354"><ele>131.0</ele><time>2026-04-25T08:16:13.686Z</time></trkpt><trkpt lat="41.5097222" lon="13.2544656"><ele>131.0</ele><time>2026-04-25T08:16:14.686Z</time></trkpt><trkpt lat="41.5097352" lon="13.2547072"><ele>131.0</ele><time>2026-04-25T08:16:15.686Z</time></trkpt><trkpt lat="41.5097484" lon="13.2549512"><ele>131.0</ele><time>2026-04-25T08:16:16.686Z</time></trkpt><trkpt lat="41.5097642" lon="13.2551873"><ele>131.0</ele><time>2026-04-25T08:16:17.686Z</time></trkpt><trkpt lat="41.5097776" lon="13.2554271"><ele>131.0</ele><time>2026-04-25T08:16:18.686Z</time></trkpt><trkpt lat="41.5097958" lon="13.2556648"><ele>131.0</ele><time>2026-04-25T08:16:19.686Z</time></trkpt><trkpt lat="41.5098066" lon="13.2558969"><ele>131.0</ele><time>2026-04-25T08:16:20.687Z</time></trkpt><trkpt lat="41.509818" lon="13.2561269"><ele>131.0</ele><time>2026-04-25T08:16:21.686Z</time></trkpt><trkpt lat="41.509828" lon="13.2563425"><ele>130.5</ele><time>2026-04-25T08:16:22.686Z</time></trkpt><trkpt lat="41.5098406" lon="13.256549"><ele>130.0</ele><time>2026-04-25T08:16:23.686Z</time></trkpt><trkpt lat="41.509852" lon="13.2567409"><ele>129.5</ele><time>2026-04-25T08:16:24.686Z</time></trkpt><trkpt lat="41.5098592" lon="13.2569217"><ele>129.0</ele><time>2026-04-25T08:16:25.686Z</time></trkpt><trkpt lat="41.5098672" lon="13.2571082"><ele>129.5</ele><time>2026-04-25T08:16:26.686Z</time></trkpt><trkpt lat="41.5098805" lon="13.2572888"><ele>130.0</ele><time>2026-04-25T08:16:27.686Z</time></trkpt><trkpt lat="41.5098822" lon="13.2574554"><ele>130.5</ele><time>2026-04-25T08:16:28.686Z</time></trkpt><trkpt lat="41.5098958" lon="13.2576517"><ele>131.0</ele><time>2026-04-25T08:16:29.686Z</time></trkpt><trkpt lat="41.5099005" lon="13.2578502"><ele>131.0</ele><time>2026-04-25T08:16:30.687Z</time></trkpt><trkpt lat="41.5099069" lon="13.2580416"><ele>131.0</ele><time>2026-04-25T08:16:31.686Z</time></trkpt><trkpt lat="41.5099164" lon="13.2582329"><ele>131.0</ele><time>2026-04-25T08:16:32.686Z</time></trkpt><trkpt lat="41.5099284" lon="13.2584292"><ele>131.0</ele><time>2026-04-25T08:16:33.687Z</time></trkpt><trkpt lat="41.5099475" lon="13.2586251"><ele>130.33333333333331</ele><time>2026-04-25T08:16:34.686Z</time></trkpt><trkpt lat="41.5099698" lon="13.2588276"><ele>129.66666666666666</ele><time>2026-04-25T08:16:35.686Z</time></trkpt><trkpt lat="41.5099933" lon="13.2590279"><ele>129.0</ele><time>2026-04-25T08:16:36.686Z</time></trkpt><trkpt lat="41.5100233" lon="13.2592289"><ele>128.0</ele><time>2026-04-25T08:16:37.686Z</time></trkpt><trkpt lat="41.5100577" lon="13.2594271"><ele>127.0</ele><time>2026-04-25T08:16:38.686Z</time></trkpt><trkpt lat="41.5100977" lon="13.2596278"><ele>126.0</ele><time>2026-04-25T08:16:39.686Z</time></trkpt><trkpt lat="41.5101357" lon="13.2598302"><ele>124.33333333333334</ele><time>2026-04-25T08:16:40.686Z</time></trkpt><trkpt lat="41.5101766" lon="13.2600383"><ele>122.66666666666667</ele><time>2026-04-25T08:16:41.686Z</time></trkpt><trkpt lat="41.5102166" lon="13.2602414"><ele>121.0</ele><time>2026-04-25T08:16:42.686Z</time></trkpt><trkpt lat="41.5102596" lon="13.2604452"><ele>119.25</ele><time>2026-04-25T08:16:43.686Z</time></trkpt><trkpt lat="41.5103002" lon="13.2606481"><ele>117.5</ele><time>2026-04-25T08:16:44.686Z</time></trkpt><trkpt lat="41.5103368" lon="13.2608344"><ele>115.75</ele><time>2026-04-25T08:16:45.686Z</time></trkpt><trkpt lat="41.5103825" lon="13.261022"><ele>114.0</ele><time>2026-04-25T08:16:46.686Z</time></trkpt><trkpt lat="41.5104312" lon="13.2612041"><ele>123.33333333333334</ele><time>2026-04-25T08:16:47.687Z</time></trkpt><trkpt lat="41.5105116" lon="13.2613827"><ele>132.66666666666669</ele><time>2026-04-25T08:16:48.686Z</time></trkpt><trkpt lat="41.510581" lon="13.2615554"><ele>142.0</ele><time>2026-04-25T08:16:49.686Z</time></trkpt><trkpt lat="41.510659" lon="13.2617219"><ele>142.0</ele><time>2026-04-25T08:16:50.686Z</time></trkpt><trkpt lat="41.5107492" lon="13.2618804"><ele>142.0</ele><time>2026-04-25T08:16:51.686Z</time></trkpt><trkpt lat="41.5108499" lon="13.2620283"><ele>142.0</ele><time>2026-04-25T08:16:52.686Z</time></trkpt><trkpt lat="41.5109618" lon="13.2621569"><ele>142.0</ele><time>2026-04-25T08:16:53.686Z</time></trkpt><trkpt lat="41.5110888" lon="13.26227"><ele>141.25</ele><time>2026-04-25T08:16:54.686Z</time></trkpt><trkpt lat="41.5112266" lon="13.2623505"><ele>140.5</ele><time>2026-04-25T08:16:55.686Z</time></trkpt><trkpt lat="41.5113698" lon="13.2624047"><ele>139.75</ele><time>2026-04-25T08:16:56.686Z</time></trkpt><trkpt lat="41.511517" lon="13.2624369"><ele>139.0</ele><time>2026-04-25T08:16:57.686Z</time></trkpt><trkpt lat="41.5116684" lon="13.2624587"><ele>139.0</ele><time>2026-04-25T08:16:58.686Z</time></trkpt><trkpt lat="41.5118182" lon="13.2625093"><ele>139.0</ele><time>2026-04-25T08:16:59.687Z</time></trkpt><trkpt lat="41.5119797" lon="13.26253"><ele>139.0</ele><time>2026-04-25T08:17:00.686Z</time></trkpt><trkpt lat="41.5121424" lon="13.2625248"><ele>141.0</ele><time>2026-04-25T08:17:01.686Z</time></trkpt><trkpt lat="41.512312" lon="13.2625152"><ele>143.0</ele><time>2026-04-25T08:17:02.686Z</time></trkpt><trkpt lat="41.5124845" lon="13.2625009"><ele>145.0</ele><time>2026-04-25T08:17:03.686Z</time></trkpt><trkpt lat="41.512662" lon="13.2624852"><ele>145.0</ele><time>2026-04-25T08:17:04.686Z</time></trkpt><trkpt lat="41.5128464" lon="13.2624785"><ele>145.0</ele><time>2026-04-25T08:17:05.687Z</time></trkpt><trkpt lat="41.5130274" lon="13.2624659"><ele>145.0</ele><time>2026-04-25T08:17:06.686Z</time></trkpt><trkpt lat="41.5132173" lon="13.2624577"><ele>146.0</ele><time>2026-04-25T08:17:07.686Z</time></trkpt><trkpt lat="41.5134033" lon="13.2624586"><ele>147.0</ele><time>2026-04-25T08:17:08.686Z</time></trkpt><trkpt lat="41.513578" lon="13.2624373"><ele>148.0</ele><time>2026-04-25T08:17:09.686Z</time></trkpt><trkpt lat="41.5137461" lon="13.2624193"><ele>148.66666666666669</ele><time>2026-04-25T08:17:10.686Z</time></trkpt><trkpt lat="41.5139211" lon="13.2624212"><ele>149.33333333333334</ele><time>2026-04-25T08:17:11.686Z</time></trkpt><trkpt lat="41.5141031" lon="13.2624221"><ele>150.0</ele><time>2026-04-25T08:17:12.686Z</time></trkpt><trkpt lat="41.5142689" lon="13.2624317"><ele>150.0</ele><time>2026-04-25T08:17:13.686Z</time></trkpt><trkpt lat="41.514433" lon="13.2624447"><ele>150.0</ele><time>2026-04-25T08:17:14.686Z</time></trkpt><trkpt lat="41.5145976" lon="13.2624535"><ele>150.0</ele><time>2026-04-25T08:17:15.686Z</time></trkpt><trkpt lat="41.5147516" lon="13.2624564"><ele>151.4</ele><time>2026-04-25T08:17:16.686Z</time></trkpt><trkpt lat="41.5148786" lon="13.2624297"><ele>152.8</ele><time>2026-04-25T08:17:17.686Z</time></trkpt><trkpt lat="41.5149991" lon="13.2624483"><ele>154.2</ele><time>2026-04-25T08:17:18.686Z</time></trkpt><trkpt lat="41.5151008" lon="13.2624568"><ele>155.6</ele><time>2026-04-25T08:17:19.686Z</time></trkpt><trkpt lat="41.5151748" lon="13.2624824"><ele>157.0</ele><time>2026-04-25T08:17:20.686Z</time></trkpt><trkpt lat="41.5152524" lon="13.2625548"><ele>157.0</ele><time>2026-04-25T08:17:22.686Z</time></trkpt><trkpt lat="41.5152495" lon="13.2626617"><ele>157.0</ele><time>2026-04-25T08:17:24.686Z</time></trkpt><trkpt lat="41.5152453" lon="13.2627503"><ele>157.0</ele><time>2026-04-25T08:17:25.686Z</time></trkpt><trkpt lat="41.5152478" lon="13.2628698"><ele>157.0</ele><time>2026-04-25T08:17:26.686Z</time></trkpt><trkpt lat="41.5152945" lon="13.263039"><ele>157.0</ele><time>2026-04-25T08:17:27.686Z</time></trkpt><trkpt lat="41.5153469" lon="13.2631813"><ele>162.0</ele><time>2026-04-25T08:17:28.686Z</time></trkpt><trkpt lat="41.5154149" lon="13.26335"><ele>167.0</ele><time>2026-04-25T08:17:29.686Z</time></trkpt><trkpt lat="41.5155045" lon="13.2635137"><ele>172.0</ele><time>2026-04-25T08:17:30.686Z</time></trkpt><trkpt lat="41.5156186" lon="13.2636716"><ele>172.0</ele><time>2026-04-25T08:17:31.687Z</time></trkpt><trkpt lat="41.5157383" lon="13.2637889"><ele>172.0</ele><time>2026-04-25T08:17:32.686Z</time></trkpt><trkpt lat="41.5158567" lon="13.2638667"><ele>172.0</ele><time>2026-04-25T08:17:33.687Z</time></trkpt><trkpt lat="41.5159944" lon="13.2639433"><ele>172.0</ele><time>2026-04-25T08:17:34.686Z</time></trkpt><trkpt lat="41.5161547" lon="13.2640118"><ele>170.0</ele><time>2026-04-25T08:17:35.686Z</time></trkpt><trkpt lat="41.5162838" lon="13.2641029"><ele>168.0</ele><time>2026-04-25T08:17:36.686Z</time></trkpt><trkpt lat="41.5164415" lon="13.2641644"><ele>166.0</ele><time>2026-04-25T08:17:37.686Z</time></trkpt><trkpt lat="41.5166004" lon="13.2642151"><ele>166.0</ele><time>2026-04-25T08:17:38.686Z</time></trkpt><trkpt lat="41.5167624" lon="13.2642364"><ele>166.0</ele><time>2026-04-25T08:17:39.686Z</time></trkpt><trkpt lat="41.5169124" lon="13.2642346"><ele>166.0</ele><time>2026-04-25T08:17:40.686Z</time></trkpt><trkpt lat="41.5170581" lon="13.2642131"><ele>166.5</ele><time>2026-04-25T08:17:41.686Z</time></trkpt><trkpt lat="41.5171942" lon="13.264175"><ele>167.0</ele><time>2026-04-25T08:17:42.686Z</time></trkpt><trkpt lat="41.5173273" lon="13.264108"><ele>167.5</ele><time>2026-04-25T08:17:43.686Z</time></trkpt><trkpt lat="41.5174592" lon="13.2640225"><ele>168.0</ele><time>2026-04-25T08:17:44.686Z</time></trkpt><trkpt lat="41.5175805" lon="13.2639282"><ele>165.25</ele><time>2026-04-25T08:17:45.686Z</time></trkpt><trkpt lat="41.517684" lon="13.2638096"><ele>162.5</ele><time>2026-04-25T08:17:46.686Z</time></trkpt><trkpt lat="41.5177428" lon="13.2637055"><ele>159.75</ele><time>2026-04-25T08:17:47.686Z</time></trkpt><trkpt lat="41.5178372" lon="13.2635641"><ele>157.0</ele><time>2026-04-25T08:17:48.686Z</time></trkpt><trkpt lat="41.517921" lon="13.26343"><ele>157.0</ele><time>2026-04-25T08:17:49.686Z</time></trkpt><trkpt lat="41.5180023" lon="13.263278"><ele>157.0</ele><time>2026-04-25T08:17:50.686Z</time></trkpt><trkpt lat="41.5180789" lon="13.2631083"><ele>157.0</ele><time>2026-04-25T08:17:51.686Z</time></trkpt><trkpt lat="41.5181421" lon="13.2629225"><ele>157.0</ele><time>2026-04-25T08:17:52.686Z</time></trkpt><trkpt lat="41.5181947" lon="13.2627235"><ele>160.33333333333334</ele><time>2026-04-25T08:17:53.686Z</time></trkpt><trkpt lat="41.5182477" lon="13.2625159"><ele>163.66666666666666</ele><time>2026-04-25T08:17:54.686Z</time></trkpt><trkpt lat="41.518292" lon="13.2623176"><ele>167.0</ele><time>2026-04-25T08:17:55.686Z</time></trkpt><trkpt lat="41.5183111" lon="13.2621185"><ele>169.66666666666666</ele><time>2026-04-25T08:17:56.686Z</time></trkpt><trkpt lat="41.5183129" lon="13.2619046"><ele>172.33333333333334</ele><time>2026-04-25T08:17:57.686Z</time></trkpt><trkpt lat="41.5183073" lon="13.2616935"><ele>175.0</ele><time>2026-04-25T08:17:58.686Z</time></trkpt><trkpt lat="41.5183036" lon="13.2614891"><ele>177.66666666666669</ele><time>2026-04-25T08:17:59.686Z</time></trkpt><trkpt lat="41.5183133" lon="13.2612911"><ele>180.33333333333334</ele><time>2026-04-25T08:18:00.686Z</time></trkpt><trkpt lat="41.518321" lon="13.2610588"><ele>183.0</ele><time>2026-04-25T08:18:01.686Z</time></trkpt><trkpt lat="41.5183511" lon="13.2608539"><ele>183.0</ele><time>2026-04-25T08:18:02.686Z</time></trkpt><trkpt lat="41.5184083" lon="13.2606289"><ele>183.0</ele><time>2026-04-25T08:18:03.686Z</time></trkpt><trkpt lat="41.5184837" lon="13.2604148"><ele>183.0</ele><time>2026-04-25T08:18:04.686Z</time></trkpt><trkpt lat="41.5185488" lon="13.2602179"><ele>180.0</ele><time>2026-04-25T08:18:05.686Z</time></trkpt><trkpt lat="41.5186223" lon="13.2599936"><ele>177.0</ele><time>2026-04-25T08:18:06.686Z</time></trkpt><trkpt lat="41.5186854" lon="13.2597882"><ele>174.0</ele><time>2026-04-25T08:18:07.686Z</time></trkpt><trkpt lat="41.5187523" lon="13.2595688"><ele>174.0</ele><time>2026-04-25T08:18:08.686Z</time></trkpt><trkpt lat="41.5188227" lon="13.2593458"><ele>174.0</ele><time>2026-04-25T08:18:09.686Z</time></trkpt><trkpt lat="41.5188988" lon="13.2591302"><ele>174.0</ele><time>2026-04-25T08:18:10.686Z</time></trkpt><trkpt lat="41.518973" lon="13.2589229"><ele>178.33333333333334</ele><time>2026-04-25T08:18:11.686Z</time></trkpt><trkpt lat="41.5190503" lon="13.2587016"><ele>182.66666666666669</ele><time>2026-04-25T08:18:12.686Z</time></trkpt><trkpt lat="41.5191291" lon="13.2584912"><ele>187.0</ele><time>2026-04-25T08:18:13.686Z</time></trkpt><trkpt lat="41.5192101" lon="13.2582943"><ele>191.66666666666669</ele><time>2026-04-25T08:18:14.686Z</time></trkpt><trkpt lat="41.519293" lon="13.2580995"><ele>196.33333333333334</ele><time>2026-04-25T08:18:15.686Z</time></trkpt><trkpt lat="41.5193718" lon="13.2579201"><ele>201.0</ele><time>2026-04-25T08:18:16.686Z</time></trkpt><trkpt lat="41.5194469" lon="13.2577489"><ele>201.0</ele><time>2026-04-25T08:18:17.686Z</time></trkpt><trkpt lat="41.5195267" lon="13.2575948"><ele>201.0</ele><time>2026-04-25T08:18:18.687Z</time></trkpt><trkpt lat="41.5196053" lon="13.2574573"><ele>201.0</ele><time>2026-04-25T08:18:19.686Z</time></trkpt><trkpt lat="41.5196916" lon="13.2573402"><ele>201.0</ele><time>2026-04-25T08:18:20.686Z</time></trkpt><trkpt lat="41.5197663" lon="13.2572411"><ele>199.60000000000002</ele><time>2026-04-25T08:18:21.686Z</time></trkpt><trkpt lat="41.5198384" lon="13.2571582"><ele>198.2</ele><time>2026-04-25T08:18:22.686Z</time></trkpt><trkpt lat="41.519897" lon="13.2570939"><ele>196.8</ele><time>2026-04-25T08:18:23.686Z</time></trkpt><trkpt lat="41.5199662" lon="13.2570161"><ele>195.39999999999998</ele><time>2026-04-25T08:18:25.686Z</time></trkpt><trkpt lat="41.5200068" lon="13.2569355"><ele>194.0</ele><time>2026-04-25T08:19:31.686Z</time></trkpt><trkpt lat="41.5200973" lon="13.2568186"><ele>194.0</ele><time>2026-04-25T08:19:33.686Z</time></trkpt><trkpt lat="41.5201615" lon="13.2567691"><ele>194.0</ele><time>2026-04-25T08:19:34.687Z</time></trkpt><trkpt lat="41.5202431" lon="13.2567362"><ele>194.0</ele><time>2026-04-25T08:19:35.686Z</time></trkpt><trkpt lat="41.5203381" lon="13.2567271"><ele>194.0</ele><time>2026-04-25T08:19:36.686Z</time></trkpt><trkpt lat="41.5204415" lon="13.2567541"><ele>194.0</ele><time>2026-04-25T08:19:37.686Z</time></trkpt><trkpt lat="41.520552" lon="13.2568043"><ele>194.75</ele><time>2026-04-25T08:19:38.686Z</time></trkpt><trkpt lat="41.5206555" lon="13.2568612"><ele>195.5</ele><time>2026-04-25T08:19:39.686Z</time></trkpt><trkpt lat="41.5207714" lon="13.2569191"><ele>196.25</ele><time>2026-04-25T08:19:40.686Z</time></trkpt><trkpt lat="41.5208932" lon="13.2569857"><ele>197.0</ele><time>2026-04-25T08:19:41.686Z</time></trkpt><trkpt lat="41.5210265" lon="13.257046"><ele>197.0</ele><time>2026-04-25T08:19:42.686Z</time></trkpt><trkpt lat="41.5211724" lon="13.2570925"><ele>197.0</ele><time>2026-04-25T08:19:43.686Z</time></trkpt><trkpt lat="41.5213231" lon="13.2571224"><ele>197.0</ele><time>2026-04-25T08:19:44.686Z</time></trkpt><trkpt lat="41.521484" lon="13.2571351"><ele>198.0</ele><time>2026-04-25T08:19:45.686Z</time></trkpt><trkpt lat="41.5216549" lon="13.2571274"><ele>199.0</ele><time>2026-04-25T08:19:46.686Z</time></trkpt><trkpt lat="41.5218212" lon="13.2571005"><ele>200.0</ele><time>2026-04-25T08:19:47.686Z</time></trkpt><trkpt lat="41.521988" lon="13.2570648"><ele>199.25</ele><time>2026-04-25T08:19:48.686Z</time></trkpt><trkpt lat="41.5221417" lon="13.2570295"><ele>198.5</ele><time>2026-04-25T08:19:49.686Z</time></trkpt><trkpt lat="41.5222894" lon="13.256997"><ele>197.75</ele><time>2026-04-25T08:19:50.686Z</time></trkpt><trkpt lat="41.5224297" lon="13.2569725"><ele>197.0</ele><time>2026-04-25T08:19:51.686Z</time></trkpt><trkpt lat="41.5225622" lon="13.2569749"><ele>197.0</ele><time>2026-04-25T08:19:52.686Z</time></trkpt><trkpt lat="41.5226785" lon="13.2570082"><ele>197.0</ele><time>2026-04-25T08:19:53.686Z</time></trkpt><trkpt lat="41.5227919" lon="13.2570744"><ele>197.0</ele><time>2026-04-25T08:19:54.686Z</time></trkpt><trkpt lat="41.5228911" lon="13.2571799"><ele>197.0</ele><time>2026-04-25T08:19:55.686Z</time></trkpt><trkpt lat="41.5229776" lon="13.2573231"><ele>193.6</ele><time>2026-04-25T08:19:56.686Z</time></trkpt><trkpt lat="41.5230565" lon="13.2574532"><ele>190.2</ele><time>2026-04-25T08:19:57.686Z</time></trkpt><trkpt lat="41.5231358" lon="13.2575626"><ele>186.8</ele><time>2026-04-25T08:19:58.686Z</time></trkpt><trkpt lat="41.5232283" lon="13.257627"><ele>183.4</ele><time>2026-04-25T08:19:59.686Z</time></trkpt><trkpt lat="41.5233299" lon="13.2576601"><ele>180.0</ele><time>2026-04-25T08:20:00.686Z</time></trkpt><trkpt lat="41.5234318" lon="13.2576484"><ele>180.0</ele><time>2026-04-25T08:20:01.686Z</time></trkpt><trkpt lat="41.5235347" lon="13.2575662"><ele>180.0</ele><time>2026-04-25T08:20:02.686Z</time></trkpt><trkpt lat="41.5236233" lon="13.2574521"><ele>180.0</ele><time>2026-04-25T08:20:03.686Z</time></trkpt><trkpt lat="41.5237095" lon="13.2573171"><ele>180.0</ele><time>2026-04-25T08:20:04.686Z</time></trkpt><trkpt lat="41.5238006" lon="13.2571653"><ele>179.5</ele><time>2026-04-25T08:20:05.687Z</time></trkpt><trkpt lat="41.5238948" lon="13.2570041"><ele>179.0</ele><time>2026-04-25T08:20:06.686Z</time></trkpt><trkpt lat="41.5239841" lon="13.2568535"><ele>178.5</ele><time>2026-04-25T08:20:07.686Z</time></trkpt><trkpt lat="41.5240803" lon="13.2567071"><ele>178.0</ele><time>2026-04-25T08:20:08.686Z</time></trkpt><trkpt lat="41.5241782" lon="13.2565658"><ele>182.25</ele><time>2026-04-25T08:20:09.686Z</time></trkpt><trkpt lat="41.5242845" lon="13.2564454"><ele>186.5</ele><time>2026-04-25T08:20:10.686Z</time></trkpt><trkpt lat="41.524398" lon="13.2563558"><ele>190.75</ele><time>2026-04-25T08:20:11.686Z</time></trkpt><trkpt lat="41.5245235" lon="13.2562896"><ele>195.0</ele><time>2026-04-25T08:20:12.686Z</time></trkpt><trkpt lat="41.5246459" lon="13.2562519"><ele>195.0</ele><time>2026-04-25T08:20:13.686Z</time></trkpt><trkpt lat="41.5247655" lon="13.25624"><ele>195.0</ele><time>2026-04-25T08:20:14.686Z</time></trkpt><trkpt lat="41.5248928" lon="13.2562592"><ele>195.0</ele><time>2026-04-25T08:20:15.686Z</time></trkpt><trkpt lat="41.5250119" lon="13.2563037"><ele>195.0</ele><time>2026-04-25T08:20:16.686Z</time></trkpt><trkpt lat="41.5251324" lon="13.2563754"><ele>190.75</ele><time>2026-04-25T08:20:17.686Z</time></trkpt><trkpt lat="41.5252488" lon="13.2564679"><ele>186.5</ele><time>2026-04-25T08:20:18.686Z</time></trkpt><trkpt lat="41.5253596" lon="13.2565689"><ele>182.25</ele><time>2026-04-25T08:20:19.686Z</time></trkpt><trkpt lat="41.5254669" lon="13.2566579"><ele>178.0</ele><time>2026-04-25T08:20:20.686Z</time></trkpt><trkpt lat="41.5255856" lon="13.2567329"><ele>178.0</ele><time>2026-04-25T08:20:21.686Z</time></trkpt><trkpt lat="41.525716" lon="13.2567741"><ele>178.0</ele><time>2026-04-25T08:20:22.686Z</time></trkpt><trkpt lat="41.5258551" lon="13.2567816"><ele>178.0</ele><time>2026-04-25T08:20:23.686Z</time></trkpt><trkpt lat="41.5259947" lon="13.2567571"><ele>178.0</ele><time>2026-04-25T08:20:24.686Z</time></trkpt><trkpt lat="41.5261323" lon="13.2567093"><ele>176.25</ele><time>2026-04-25T08:20:25.686Z</time></trkpt><trkpt lat="41.5262588" lon="13.2566369"><ele>174.5</ele><time>2026-04-25T08:20:26.686Z</time></trkpt><trkpt lat="41.5263929" lon="13.2565652"><ele>172.75</ele><time>2026-04-25T08:20:27.686Z</time></trkpt><trkpt lat="41.5265271" lon="13.2564855"><ele>171.0</ele><time>2026-04-25T08:20:28.686Z</time></trkpt><trkpt lat="41.5266553" lon="13.2564118"><ele>175.25</ele><time>2026-04-25T08:20:29.686Z</time></trkpt><trkpt lat="41.5267951" lon="13.256354"><ele>179.5</ele><time>2026-04-25T08:20:30.686Z</time></trkpt><trkpt lat="41.5269375" lon="13.2563104"><ele>183.75</ele><time>2026-04-25T08:20:31.686Z</time></trkpt><trkpt lat="41.527084" lon="13.2562741"><ele>188.0</ele><time>2026-04-25T08:20:32.686Z</time></trkpt><trkpt lat="41.5272324" lon="13.2562554"><ele>188.0</ele><time>2026-04-25T08:20:33.686Z</time></trkpt><trkpt lat="41.5273815" lon="13.2562445"><ele>188.0</ele><time>2026-04-25T08:20:34.686Z</time></trkpt><trkpt lat="41.5275295" lon="13.2562484"><ele>188.0</ele><time>2026-04-25T08:20:35.686Z</time></trkpt><trkpt lat="41.5276832" lon="13.2562705"><ele>188.0</ele><time>2026-04-25T08:20:36.686Z</time></trkpt><trkpt lat="41.5278486" lon="13.2562854"><ele>188.0</ele><time>2026-04-25T08:20:37.687Z</time></trkpt><trkpt lat="41.52805" lon="13.2562854"><ele>188.0</ele><time>2026-04-25T08:20:38.686Z</time></trkpt><trkpt lat="41.5282595" lon="13.2562666"><ele>187.66666666666666</ele><time>2026-04-25T08:20:39.686Z</time></trkpt><trkpt lat="41.5284773" lon="13.2562188"><ele>187.33333333333334</ele><time>2026-04-25T08:20:40.686Z</time></trkpt><trkpt lat="41.5286721" lon="13.2561593"><ele>187.0</ele><time>2026-04-25T08:20:41.686Z</time></trkpt><trkpt lat="41.5288431" lon="13.2560927"><ele>185.0</ele><time>2026-04-25T08:20:42.686Z</time></trkpt><trkpt lat="41.5289869" lon="13.2560357"><ele>183.0</ele><time>2026-04-25T08:20:43.686Z</time></trkpt><trkpt lat="41.5291307" lon="13.2560167"><ele>181.0</ele><time>2026-04-25T08:20:45.686Z</time></trkpt><trkpt lat="41.5292658" lon="13.2559584"><ele>179.0</ele><time>2026-04-25T08:20:46.686Z</time></trkpt><trkpt lat="41.5293981" lon="13.2559196"><ele>179.0</ele><time>2026-04-25T08:20:47.686Z</time></trkpt><trkpt lat="41.5295211" lon="13.2559028"><ele>179.0</ele><time>2026-04-25T08:20:48.686Z</time></trkpt><trkpt lat="41.5296054" lon="13.2559095"><ele>179.0</ele><time>2026-04-25T08:20:49.686Z</time></trkpt><trkpt lat="41.5296948" lon="13.2559168"><ele>179.0</ele><time>2026-04-25T08:20:50.686Z</time></trkpt><trkpt lat="41.5297821" lon="13.2559305"><ele>179.0</ele><time>2026-04-25T08:20:51.686Z</time></trkpt><trkpt lat="41.5298568" lon="13.2559532"><ele>177.5</ele><time>2026-04-25T08:20:52.686Z</time></trkpt><trkpt lat="41.5299307" lon="13.2559722"><ele>176.0</ele><time>2026-04-25T08:20:53.686Z</time></trkpt><trkpt lat="41.5300588" lon="13.2559945"><ele>174.5</ele><time>2026-04-25T08:20:55.686Z</time></trkpt><trkpt lat="41.5301406" lon="13.2559999"><ele>173.0</ele><time>2026-04-25T08:20:57.686Z</time></trkpt><trkpt lat="41.5321187" lon="13.2556799"><ele>171.33333333333331</ele><time>2026-04-25T08:21:04.686Z</time></trkpt><trkpt lat="41.5322857" lon="13.2556818"><ele>169.66666666666666</ele><time>2026-04-25T08:21:05.686Z</time></trkpt><trkpt lat="41.5324416" lon="13.2556871"><ele>168.0</ele><time>2026-04-25T08:21:06.686Z</time></trkpt><trkpt lat="41.5325918" lon="13.255693"><ele>168.0</ele><time>2026-04-25T08:21:07.686Z</time></trkpt><trkpt lat="41.5327366" lon="13.2556959"><ele>168.0</ele><time>2026-04-25T08:21:08.686Z</time></trkpt><trkpt lat="41.5328771" lon="13.2556988"><ele>168.0</ele><time>2026-04-25T08:21:09.686Z</time></trkpt><trkpt lat="41.5330084" lon="13.2557025"><ele>168.0</ele><time>2026-04-25T08:21:10.686Z</time></trkpt><trkpt lat="41.5331324" lon="13.255712"><ele>167.8</ele><time>2026-04-25T08:21:11.686Z</time></trkpt><trkpt lat="41.5332468" lon="13.2557346"><ele>167.60000000000002</ele><time>2026-04-25T08:21:12.686Z</time></trkpt><trkpt lat="41.5333503" lon="13.2557799"><ele>167.39999999999998</ele><time>2026-04-25T08:21:13.686Z</time></trkpt><trkpt lat="41.5334432" lon="13.2558493"><ele>167.2</ele><time>2026-04-25T08:21:14.687Z</time></trkpt><trkpt lat="41.5335143" lon="13.2559521"><ele>167.0</ele><time>2026-04-25T08:21:15.686Z</time></trkpt><trkpt lat="41.5335665" lon="13.2560864"><ele>167.0</ele><time>2026-04-25T08:21:16.687Z</time></trkpt><trkpt lat="41.5335949" lon="13.2562231"><ele>167.0</ele><time>2026-04-25T08:21:17.686Z</time></trkpt><trkpt lat="41.5335981" lon="13.2563664"><ele>167.0</ele><time>2026-04-25T08:21:18.686Z</time></trkpt><trkpt lat="41.5335629" lon="13.2565138"><ele>167.0</ele><time>2026-04-25T08:21:19.686Z</time></trkpt><trkpt lat="41.5335105" lon="13.2567132"><ele>167.25</ele><time>2026-04-25T08:21:21.686Z</time></trkpt><trkpt lat="41.5334389" lon="13.2568176"><ele>167.5</ele><time>2026-04-25T08:21:22.686Z</time></trkpt><trkpt lat="41.5333474" lon="13.256908"><ele>167.75</ele><time>2026-04-25T08:21:23.686Z</time></trkpt><trkpt lat="41.5332361" lon="13.2570006"><ele>168.0</ele><time>2026-04-25T08:21:24.686Z</time></trkpt><trkpt lat="41.5331256" lon="13.2570808"><ele>168.0</ele><time>2026-04-25T08:21:25.686Z</time></trkpt><trkpt lat="41.5329902" lon="13.2571507"><ele>168.0</ele><time>2026-04-25T08:21:26.686Z</time></trkpt><trkpt lat="41.5328562" lon="13.2572433"><ele>168.0</ele><time>2026-04-25T08:21:27.686Z</time></trkpt><trkpt lat="41.5327185" lon="13.257337"><ele>168.0</ele><time>2026-04-25T08:21:28.686Z</time></trkpt><trkpt lat="41.5325861" lon="13.2574434"><ele>168.0</ele><time>2026-04-25T08:21:29.686Z</time></trkpt><trkpt lat="41.5324781" lon="13.2575662"><ele>168.0</ele><time>2026-04-25T08:21:30.686Z</time></trkpt><trkpt lat="41.532401" lon="13.257709"><ele>168.0</ele><time>2026-04-25T08:21:31.686Z</time></trkpt><trkpt lat="41.532319" lon="13.2578677"><ele>168.0</ele><time>2026-04-25T08:21:32.686Z</time></trkpt><trkpt lat="41.5322573" lon="13.2580286"><ele>168.0</ele><time>2026-04-25T08:21:33.686Z</time></trkpt><trkpt lat="41.5322153" lon="13.2582027"><ele>168.0</ele><time>2026-04-25T08:21:34.686Z</time></trkpt><trkpt lat="41.5322011" lon="13.2583851"><ele>168.0</ele><time>2026-04-25T08:21:35.686Z</time></trkpt><trkpt lat="41.5322099" lon="13.2585684"><ele>169.75</ele><time>2026-04-25T08:21:36.686Z</time></trkpt><trkpt lat="41.5322448" lon="13.2587574"><ele>171.5</ele><time>2026-04-25T08:21:37.687Z</time></trkpt><trkpt lat="41.5322981" lon="13.2589342"><ele>173.25</ele><time>2026-04-25T08:21:38.686Z</time></trkpt><trkpt lat="41.5323757" lon="13.2590967"><ele>175.0</ele><time>2026-04-25T08:21:39.686Z</time></trkpt><trkpt lat="41.5324675" lon="13.2592405"><ele>175.0</ele><time>2026-04-25T08:21:40.686Z</time></trkpt><trkpt lat="41.5325822" lon="13.2593679"><ele>175.0</ele><time>2026-04-25T08:21:41.686Z</time></trkpt><trkpt lat="41.5327061" lon="13.2594666"><ele>175.0</ele><time>2026-04-25T08:21:42.686Z</time></trkpt><trkpt lat="41.5328392" lon="13.2595392"><ele>175.0</ele><time>2026-04-25T08:21:43.686Z</time></trkpt><trkpt lat="41.5329786" lon="13.259591"><ele>176.0</ele><time>2026-04-25T08:21:44.686Z</time></trkpt><trkpt lat="41.5331182" lon="13.2596357"><ele>177.0</ele><time>2026-04-25T08:21:45.686Z</time></trkpt><trkpt lat="41.5332547" lon="13.2596778"><ele>178.0</ele><time>2026-04-25T08:21:46.686Z</time></trkpt><trkpt lat="41.5333974" lon="13.2597218"><ele>179.0</ele><time>2026-04-25T08:21:47.686Z</time></trkpt><trkpt lat="41.5335594" lon="13.2597776"><ele>179.33333333333331</ele><time>2026-04-25T08:21:48.686Z</time></trkpt><trkpt lat="41.5337054" lon="13.2598351"><ele>179.66666666666666</ele><time>2026-04-25T08:21:49.686Z</time></trkpt><trkpt lat="41.5338619" lon="13.2598887"><ele>180.0</ele><time>2026-04-25T08:21:50.686Z</time></trkpt><trkpt lat="41.5340022" lon="13.2599397"><ele>181.66666666666666</ele><time>2026-04-25T08:21:51.686Z</time></trkpt><trkpt lat="41.5341475" lon="13.2599793"><ele>183.33333333333331</ele><time>2026-04-25T08:21:52.686Z</time></trkpt><trkpt lat="41.534313" lon="13.260037"><ele>185.0</ele><time>2026-04-25T08:21:53.686Z</time></trkpt><trkpt lat="41.5344825" lon="13.2600732"><ele>186.0</ele><time>2026-04-25T08:21:54.686Z</time></trkpt><trkpt lat="41.5346611" lon="13.2601007"><ele>187.0</ele><time>2026-04-25T08:21:55.686Z</time></trkpt><trkpt lat="41.5348427" lon="13.2601176"><ele>188.0</ele><time>2026-04-25T08:21:56.686Z</time></trkpt><trkpt lat="41.5350128" lon="13.2601189"><ele>188.0</ele><time>2026-04-25T08:21:57.686Z</time></trkpt><trkpt lat="41.5351874" lon="13.2601121"><ele>188.0</ele><time>2026-04-25T08:21:58.686Z</time></trkpt><trkpt lat="41.5353666" lon="13.2600963"><ele>188.0</ele><time>2026-04-25T08:21:59.686Z</time></trkpt><trkpt lat="41.5355467" lon="13.26007"><ele>188.66666666666666</ele><time>2026-04-25T08:22:00.686Z</time></trkpt><trkpt lat="41.535727" lon="13.2600377"><ele>189.33333333333334</ele><time>2026-04-25T08:22:01.686Z</time></trkpt><trkpt lat="41.5359058" lon="13.2599878"><ele>190.0</ele><time>2026-04-25T08:22:02.686Z</time></trkpt><trkpt lat="41.5360746" lon="13.2599258"><ele>190.0</ele><time>2026-04-25T08:22:03.686Z</time></trkpt><trkpt lat="41.5362461" lon="13.2598438"><ele>190.0</ele><time>2026-04-25T08:22:04.686Z</time></trkpt><trkpt lat="41.5364085" lon="13.2597473"><ele>190.0</ele><time>2026-04-25T08:22:05.686Z</time></trkpt><trkpt lat="41.5365712" lon="13.2596363"><ele>190.0</ele><time>2026-04-25T08:22:06.686Z</time></trkpt><trkpt lat="41.5367352" lon="13.2595189"><ele>190.0</ele><time>2026-04-25T08:22:07.686Z</time></trkpt><trkpt lat="41.5368853" lon="13.2593855"><ele>190.0</ele><time>2026-04-25T08:22:08.687Z</time></trkpt><trkpt lat="41.5370352" lon="13.2592393"><ele>190.33333333333334</ele><time>2026-04-25T08:22:09.686Z</time></trkpt><trkpt lat="41.537191" lon="13.25909"><ele>190.66666666666666</ele><time>2026-04-25T08:22:10.686Z</time></trkpt><trkpt lat="41.5373404" lon="13.2589362"><ele>191.0</ele><time>2026-04-25T08:22:11.686Z</time></trkpt><trkpt lat="41.5374767" lon="13.2587845"><ele>191.0</ele><time>2026-04-25T08:22:12.686Z</time></trkpt><trkpt lat="41.5376116" lon="13.2586308"><ele>191.0</ele><time>2026-04-25T08:22:13.686Z</time></trkpt><trkpt lat="41.5377416" lon="13.2584694"><ele>191.0</ele><time>2026-04-25T08:22:14.686Z</time></trkpt><trkpt lat="41.537856" lon="13.2582911"><ele>189.0</ele><time>2026-04-25T08:22:15.686Z</time></trkpt><trkpt lat="41.5379766" lon="13.2581135"><ele>187.0</ele><time>2026-04-25T08:22:16.686Z</time></trkpt><trkpt lat="41.5380747" lon="13.2579326"><ele>185.0</ele><time>2026-04-25T08:22:17.685Z</time></trkpt><trkpt lat="41.5381593" lon="13.257747"><ele>185.0</ele><time>2026-04-25T08:22:18.685Z</time></trkpt><trkpt lat="41.5382307" lon="13.2575552"><ele>185.0</ele><time>2026-04-25T08:22:19.685Z</time></trkpt><trkpt lat="41.5382956" lon="13.2573697"><ele>185.0</ele><time>2026-04-25T08:22:20.685Z</time></trkpt><trkpt lat="41.5383636" lon="13.2572029"><ele>186.5</ele><time>2026-04-25T08:22:21.685Z</time></trkpt><trkpt lat="41.5384252" lon="13.2570422"><ele>188.0</ele><time>2026-04-25T08:22:22.685Z</time></trkpt><trkpt lat="41.5384902" lon="13.2568954"><ele>189.5</ele><time>2026-04-25T08:22:23.685Z</time></trkpt><trkpt lat="41.5385671" lon="13.2567753"><ele>191.0</ele><time>2026-04-25T08:22:24.685Z</time></trkpt><trkpt lat="41.5386636" lon="13.2566943"><ele>191.16666666666666</ele><time>2026-04-25T08:22:25.685Z</time></trkpt><trkpt lat="41.5387544" lon="13.2566564"><ele>191.33333333333331</ele><time>2026-04-25T08:22:26.685Z</time></trkpt><trkpt lat="41.5388431" lon="13.2566662"><ele>191.5</ele><time>2026-04-25T08:22:27.685Z</time></trkpt><trkpt lat="41.5389155" lon="13.256714"><ele>191.66666666666666</ele><time>2026-04-25T08:22:28.685Z</time></trkpt><trkpt lat="41.538956" lon="13.2567971"><ele>191.83333333333334</ele><time>2026-04-25T08:22:29.685Z</time></trkpt><trkpt lat="41.5389638" lon="13.256904"><ele>192.0</ele><time>2026-04-25T08:22:30.685Z</time></trkpt><trkpt lat="41.5389407" lon="13.2570248"><ele>192.0</ele><time>2026-04-25T08:22:31.685Z</time></trkpt><trkpt lat="41.5389168" lon="13.2571509"><ele>192.0</ele><time>2026-04-25T08:22:32.685Z</time></trkpt><trkpt lat="41.5388935" lon="13.2573122"><ele>192.0</ele><time>2026-04-25T08:22:33.685Z</time></trkpt><trkpt lat="41.5388934" lon="13.2575027"><ele>192.0</ele><time>2026-04-25T08:22:34.685Z</time></trkpt><trkpt lat="41.5388781" lon="13.2576861"><ele>193.0</ele><time>2026-04-25T08:22:35.685Z</time></trkpt><trkpt lat="41.5388728" lon="13.2578854"><ele>194.0</ele><time>2026-04-25T08:22:36.685Z</time></trkpt><trkpt lat="41.5388775" lon="13.2581022"><ele>195.0</ele><time>2026-04-25T08:22:37.685Z</time></trkpt><trkpt lat="41.5388798" lon="13.2583212"><ele>195.0</ele><time>2026-04-25T08:22:38.685Z</time></trkpt><trkpt lat="41.538879" lon="13.2585343"><ele>195.0</ele><time>2026-04-25T08:22:39.685Z</time></trkpt><trkpt lat="41.5388759" lon="13.2587531"><ele>195.0</ele><time>2026-04-25T08:22:40.685Z</time></trkpt><trkpt lat="41.538874" lon="13.2589881"><ele>195.33333333333331</ele><time>2026-04-25T08:22:41.685Z</time></trkpt><trkpt lat="41.5388638" lon="13.2591985"><ele>195.66666666666666</ele><time>2026-04-25T08:22:42.685Z</time></trkpt><trkpt lat="41.5388599" lon="13.2594149"><ele>196.0</ele><time>2026-04-25T08:22:43.685Z</time></trkpt><trkpt lat="41.5388682" lon="13.2596151"><ele>195.5</ele><time>2026-04-25T08:22:44.685Z</time></trkpt><trkpt lat="41.5388979" lon="13.2598008"><ele>195.0</ele><time>2026-04-25T08:22:45.685Z</time></trkpt><trkpt lat="41.5389461" lon="13.2599697"><ele>194.5</ele><time>2026-04-25T08:22:46.685Z</time></trkpt><trkpt lat="41.5390166" lon="13.2601214"><ele>194.0</ele><time>2026-04-25T08:22:47.686Z</time></trkpt><trkpt lat="41.539111" lon="13.2602496"><ele>194.0</ele><time>2026-04-25T08:22:48.685Z</time></trkpt><trkpt lat="41.5392369" lon="13.2603456"><ele>194.0</ele><time>2026-04-25T08:22:49.685Z</time></trkpt><trkpt lat="41.5393658" lon="13.2604027"><ele>194.0</ele><time>2026-04-25T08:22:50.685Z</time></trkpt><trkpt lat="41.5395156" lon="13.2604374"><ele>194.0</ele><time>2026-04-25T08:22:51.685Z</time></trkpt><trkpt lat="41.5396721" lon="13.2604472"><ele>197.33333333333334</ele><time>2026-04-25T08:22:52.685Z</time></trkpt><trkpt lat="41.5398427" lon="13.2604655"><ele>200.66666666666669</ele><time>2026-04-25T08:22:53.685Z</time></trkpt><trkpt lat="41.5400184" lon="13.2604815"><ele>204.0</ele><time>2026-04-25T08:22:54.685Z</time></trkpt><trkpt lat="41.5402046" lon="13.2605038"><ele>206.0</ele><time>2026-04-25T08:22:55.685Z</time></trkpt><trkpt lat="41.540393" lon="13.2605177"><ele>208.0</ele><time>2026-04-25T08:22:56.685Z</time></trkpt><trkpt lat="41.5405761" lon="13.2605392"><ele>210.0</ele><time>2026-04-25T08:22:57.685Z</time></trkpt><trkpt lat="41.540762" lon="13.2605587"><ele>210.0</ele><time>2026-04-25T08:22:58.685Z</time></trkpt><trkpt lat="41.5409534" lon="13.2605807"><ele>210.0</ele><time>2026-04-25T08:22:59.685Z</time></trkpt><trkpt lat="41.5411458" lon="13.2606076"><ele>210.0</ele><time>2026-04-25T08:23:00.686Z</time></trkpt><trkpt lat="41.5413432" lon="13.2606348"><ele>205.0</ele><time>2026-04-25T08:23:01.685Z</time></trkpt><trkpt lat="41.5415435" lon="13.2606591"><ele>200.0</ele><time>2026-04-25T08:23:02.685Z</time></trkpt><trkpt lat="41.5417508" lon="13.2606885"><ele>195.0</ele><time>2026-04-25T08:23:03.685Z</time></trkpt><trkpt lat="41.54196" lon="13.2607175"><ele>195.0</ele><time>2026-04-25T08:23:04.685Z</time></trkpt><trkpt lat="41.5421393" lon="13.2607432"><ele>195.0</ele><time>2026-04-25T08:23:05.685Z</time></trkpt><trkpt lat="41.5422991" lon="13.260755"><ele>195.0</ele><time>2026-04-25T08:23:06.685Z</time></trkpt><trkpt lat="41.5424366" lon="13.2607859"><ele>195.0</ele><time>2026-04-25T08:23:07.685Z</time></trkpt><trkpt lat="41.5425972" lon="13.2608062"><ele>195.0</ele><time>2026-04-25T08:23:08.685Z</time></trkpt><trkpt lat="41.5427688" lon="13.2608518"><ele>195.0</ele><time>2026-04-25T08:23:09.685Z</time></trkpt><trkpt lat="41.5429294" lon="13.2609118"><ele>200.33333333333331</ele><time>2026-04-25T08:23:10.685Z</time></trkpt><trkpt lat="41.5430855" lon="13.260991"><ele>205.66666666666666</ele><time>2026-04-25T08:23:11.685Z</time></trkpt><trkpt lat="41.5432309" lon="13.2610928"><ele>211.0</ele><time>2026-04-25T08:23:12.685Z</time></trkpt><trkpt lat="41.5433687" lon="13.2612164"><ele>211.0</ele><time>2026-04-25T08:23:13.685Z</time></trkpt><trkpt lat="41.5434988" lon="13.2613656"><ele>211.0</ele><time>2026-04-25T08:23:14.686Z</time></trkpt><trkpt lat="41.5436125" lon="13.2615177"><ele>211.0</ele><time>2026-04-25T08:23:15.685Z</time></trkpt><trkpt lat="41.5437131" lon="13.2616801"><ele>210.66666666666666</ele><time>2026-04-25T08:23:16.685Z</time></trkpt><trkpt lat="41.5438016" lon="13.2618625"><ele>210.33333333333331</ele><time>2026-04-25T08:23:17.685Z</time></trkpt><trkpt lat="41.5438809" lon="13.2620644"><ele>210.0</ele><time>2026-04-25T08:23:18.685Z</time></trkpt><trkpt lat="41.5439543" lon="13.2622751"><ele>208.0</ele><time>2026-04-25T08:23:19.685Z</time></trkpt><trkpt lat="41.5440278" lon="13.2624862"><ele>206.0</ele><time>2026-04-25T08:23:20.685Z</time></trkpt><trkpt lat="41.5441071" lon="13.2627095"><ele>204.0</ele><time>2026-04-25T08:23:21.685Z</time></trkpt><trkpt lat="41.5441914" lon="13.2629416"><ele>203.33333333333331</ele><time>2026-04-25T08:23:22.685Z</time></trkpt><trkpt lat="41.5442788" lon="13.2631765"><ele>202.66666666666666</ele><time>2026-04-25T08:23:23.685Z</time></trkpt><trkpt lat="41.544368" lon="13.263412"><ele>202.0</ele><time>2026-04-25T08:23:24.685Z</time></trkpt><trkpt lat="41.5444509" lon="13.2636532"><ele>202.0</ele><time>2026-04-25T08:23:25.685Z</time></trkpt><trkpt lat="41.5445349" lon="13.2639"><ele>202.0</ele><time>2026-04-25T08:23:26.685Z</time></trkpt><trkpt lat="41.5446167" lon="13.2641315"><ele>202.0</ele><time>2026-04-25T08:23:27.685Z</time></trkpt><trkpt lat="41.5447004" lon="13.2643541"><ele>206.33333333333331</ele><time>2026-04-25T08:23:28.685Z</time></trkpt><trkpt lat="41.5447747" lon="13.2645552"><ele>210.66666666666669</ele><time>2026-04-25T08:23:29.685Z</time></trkpt><trkpt lat="41.5448395" lon="13.264739"><ele>215.0</ele><time>2026-04-25T08:23:30.685Z</time></trkpt><trkpt lat="41.5448943" lon="13.2649024"><ele>215.0</ele><time>2026-04-25T08:23:31.685Z</time></trkpt><trkpt lat="41.5449295" lon="13.2650633"><ele>215.0</ele><time>2026-04-25T08:23:32.685Z</time></trkpt><trkpt lat="41.5449395" lon="13.2652146"><ele>215.0</ele><time>2026-04-25T08:23:33.685Z</time></trkpt><trkpt lat="41.5449202" lon="13.2653651"><ele>215.0</ele><time>2026-04-25T08:23:34.685Z</time></trkpt><trkpt lat="41.5448718" lon="13.2655077"><ele>216.0</ele><time>2026-04-25T08:23:35.685Z</time></trkpt><trkpt lat="41.5448007" lon="13.2656374"><ele>217.0</ele><time>2026-04-25T08:23:36.685Z</time></trkpt><trkpt lat="41.5447045" lon="13.2657413"><ele>218.0</ele><time>2026-04-25T08:23:37.685Z</time></trkpt><trkpt lat="41.544601" lon="13.2658133"><ele>219.0</ele><time>2026-04-25T08:23:38.685Z</time></trkpt><trkpt lat="41.5444871" lon="13.2658651"><ele>216.2</ele><time>2026-04-25T08:23:39.686Z</time></trkpt><trkpt lat="41.5443896" lon="13.2659221"><ele>213.39999999999998</ele><time>2026-04-25T08:23:40.685Z</time></trkpt><trkpt lat="41.5442977" lon="13.2659949"><ele>210.6</ele><time>2026-04-25T08:23:41.685Z</time></trkpt><trkpt lat="41.5442229" lon="13.2660986"><ele>207.8</ele><time>2026-04-25T08:23:42.685Z</time></trkpt><trkpt lat="41.5441742" lon="13.2662282"><ele>205.0</ele><time>2026-04-25T08:23:43.685Z</time></trkpt><trkpt lat="41.5441529" lon="13.2663664"><ele>207.0</ele><time>2026-04-25T08:23:44.686Z</time></trkpt><trkpt lat="41.5441719" lon="13.2665043"><ele>209.0</ele><time>2026-04-25T08:23:45.685Z</time></trkpt><trkpt lat="41.5442236" lon="13.2666344"><ele>211.0</ele><time>2026-04-25T08:23:46.685Z</time></trkpt><trkpt lat="41.5443019" lon="13.2667427"><ele>213.0</ele><time>2026-04-25T08:23:47.685Z</time></trkpt><trkpt lat="41.5444099" lon="13.2668341"><ele>213.0</ele><time>2026-04-25T08:23:48.685Z</time></trkpt><trkpt lat="41.544529" lon="13.2669007"><ele>213.0</ele><time>2026-04-25T08:23:49.685Z</time></trkpt><trkpt lat="41.5446626" lon="13.266963"><ele>213.0</ele><time>2026-04-25T08:23:50.685Z</time></trkpt><trkpt lat="41.5448111" lon="13.2670225"><ele>213.0</ele><time>2026-04-25T08:23:51.685Z</time></trkpt><trkpt lat="41.5449742" lon="13.2670746"><ele>217.33333333333331</ele><time>2026-04-25T08:23:52.685Z</time></trkpt><trkpt lat="41.5451232" lon="13.2671489"><ele>221.66666666666666</ele><time>2026-04-25T08:23:53.685Z</time></trkpt><trkpt lat="41.5452842" lon="13.2672163"><ele>226.0</ele><time>2026-04-25T08:23:54.685Z</time></trkpt><trkpt lat="41.5454466" lon="13.2672786"><ele>227.66666666666666</ele><time>2026-04-25T08:23:55.685Z</time></trkpt><trkpt lat="41.5456121" lon="13.2673458"><ele>229.33333333333331</ele><time>2026-04-25T08:23:56.685Z</time></trkpt><trkpt lat="41.5457775" lon="13.267414"><ele>231.0</ele><time>2026-04-25T08:23:57.685Z</time></trkpt><trkpt lat="41.5459467" lon="13.2674808"><ele>231.0</ele><time>2026-04-25T08:23:58.685Z</time></trkpt><trkpt lat="41.5461132" lon="13.2675513"><ele>231.0</ele><time>2026-04-25T08:23:59.685Z</time></trkpt><trkpt lat="41.5462815" lon="13.2676236"><ele>231.0</ele><time>2026-04-25T08:24:00.685Z</time></trkpt><trkpt lat="41.5464494" lon="13.2676947"><ele>231.33333333333331</ele><time>2026-04-25T08:24:01.685Z</time></trkpt><trkpt lat="41.546618" lon="13.2677663"><ele>231.66666666666666</ele><time>2026-04-25T08:24:02.685Z</time></trkpt><trkpt lat="41.5467904" lon="13.2678376"><ele>232.0</ele><time>2026-04-25T08:24:03.685Z</time></trkpt><trkpt lat="41.5469591" lon="13.2679082"><ele>234.33333333333331</ele><time>2026-04-25T08:24:04.685Z</time></trkpt><trkpt lat="41.547126" lon="13.2679771"><ele>236.66666666666669</ele><time>2026-04-25T08:24:05.686Z</time></trkpt><trkpt lat="41.5472915" lon="13.2680409"><ele>239.0</ele><time>2026-04-25T08:24:06.686Z</time></trkpt><trkpt lat="41.5474637" lon="13.2680915"><ele>241.66666666666669</ele><time>2026-04-25T08:24:07.685Z</time></trkpt><trkpt lat="41.5476428" lon="13.2681389"><ele>244.33333333333331</ele><time>2026-04-25T08:24:08.685Z</time></trkpt><trkpt lat="41.5478189" lon="13.2681871"><ele>247.0</ele><time>2026-04-25T08:24:09.685Z</time></trkpt><trkpt lat="41.5479892" lon="13.2682232"><ele>247.5</ele><time>2026-04-25T08:24:10.685Z</time></trkpt><trkpt lat="41.5481431" lon="13.2682543"><ele>248.0</ele><time>2026-04-25T08:24:11.686Z</time></trkpt><trkpt lat="41.5482922" lon="13.2682614"><ele>248.5</ele><time>2026-04-25T08:24:12.685Z</time></trkpt><trkpt lat="41.5484293" lon="13.2682524"><ele>249.0</ele><time>2026-04-25T08:24:13.685Z</time></trkpt><trkpt lat="41.5485558" lon="13.2682326"><ele>249.0</ele><time>2026-04-25T08:24:14.685Z</time></trkpt><trkpt lat="41.5486753" lon="13.2682098"><ele>249.0</ele><time>2026-04-25T08:24:15.685Z</time></trkpt><trkpt lat="41.5487916" lon="13.2681863"><ele>249.0</ele><time>2026-04-25T08:24:16.685Z</time></trkpt><trkpt lat="41.5489047" lon="13.2681661"><ele>249.0</ele><time>2026-04-25T08:24:17.685Z</time></trkpt><trkpt lat="41.549017" lon="13.2681485"><ele>249.39999999999998</ele><time>2026-04-25T08:24:18.685Z</time></trkpt><trkpt lat="41.5491216" lon="13.2681299"><ele>249.79999999999998</ele><time>2026-04-25T08:24:19.685Z</time></trkpt><trkpt lat="41.5492156" lon="13.268111"><ele>250.20000000000002</ele><time>2026-04-25T08:24:20.685Z</time></trkpt><trkpt lat="41.5493067" lon="13.2681009"><ele>250.60000000000002</ele><time>2026-04-25T08:24:21.685Z</time></trkpt><trkpt lat="41.5493915" lon="13.2680962"><ele>251.0</ele><time>2026-04-25T08:24:22.685Z</time></trkpt><trkpt lat="41.5494707" lon="13.2681043"><ele>252.0</ele><time>2026-04-25T08:24:23.685Z</time></trkpt><trkpt lat="41.5495505" lon="13.2681296"><ele>253.00000000000003</ele><time>2026-04-25T08:24:24.685Z</time></trkpt><trkpt lat="41.5496342" lon="13.2681671"><ele>254.00000000000003</ele><time>2026-04-25T08:24:25.685Z</time></trkpt><trkpt lat="41.5497161" lon="13.2682165"><ele>255.0</ele><time>2026-04-25T08:24:26.685Z</time></trkpt><trkpt lat="41.5498054" lon="13.2682898"><ele>256.0</ele><time>2026-04-25T08:24:27.685Z</time></trkpt><trkpt lat="41.549896" lon="13.2683941"><ele>255.99999999999997</ele><time>2026-04-25T08:24:28.685Z</time></trkpt><trkpt lat="41.5499639" lon="13.268468"><ele>256.0</ele><time>2026-04-25T08:24:29.686Z</time></trkpt><trkpt lat="41.5500234" lon="13.2685411"><ele>256.0</ele><time>2026-04-25T08:24:30.685Z</time></trkpt><trkpt lat="41.5500684" lon="13.2686105"><ele>256.0</ele><time>2026-04-25T08:24:31.685Z</time></trkpt><trkpt lat="41.5501207" lon="13.2687237"><ele>255.99999999999997</ele><time>2026-04-25T08:24:33.685Z</time></trkpt><trkpt lat="41.5501903" lon="13.2687836"><ele>256.0</ele><time>2026-04-25T08:24:35.685Z</time></trkpt><trkpt lat="41.5503005" lon="13.2687624"><ele>256.0</ele><time>2026-04-25T08:24:37.685Z</time></trkpt><trkpt lat="41.5503675" lon="13.268712"><ele>256.0</ele><time>2026-04-25T08:24:38.685Z</time></trkpt><trkpt lat="41.5504477" lon="13.2686542"><ele>256.0</ele><time>2026-04-25T08:24:39.685Z</time></trkpt><trkpt lat="41.5505371" lon="13.2685944"><ele>256.0</ele><time>2026-04-25T08:24:40.685Z</time></trkpt><trkpt lat="41.5506404" lon="13.2685508"><ele>256.0</ele><time>2026-04-25T08:24:41.685Z</time></trkpt><trkpt lat="41.5507678" lon="13.2685172"><ele>256.75</ele><time>2026-04-25T08:24:42.685Z</time></trkpt><trkpt lat="41.5509061" lon="13.268516"><ele>257.5</ele><time>2026-04-25T08:24:43.685Z</time></trkpt><trkpt lat="41.5510492" lon="13.2685371"><ele>258.25</ele><time>2026-04-25T08:24:44.685Z</time></trkpt><trkpt lat="41.5511853" lon="13.2686085"><ele>259.0</ele><time>2026-04-25T08:24:45.685Z</time></trkpt><trkpt lat="41.5513336" lon="13.2686997"><ele>260.66666666666663</ele><time>2026-04-25T08:24:46.685Z</time></trkpt><trkpt lat="41.5514893" lon="13.2687875"><ele>262.3333333333333</ele><time>2026-04-25T08:24:47.685Z</time></trkpt><trkpt lat="41.551652" lon="13.2688845"><ele>264.0</ele><time>2026-04-25T08:24:48.685Z</time></trkpt><trkpt lat="41.5518087" lon="13.2689822"><ele>264.0</ele><time>2026-04-25T08:24:49.685Z</time></trkpt><trkpt lat="41.5519587" lon="13.2690862"><ele>264.0</ele><time>2026-04-25T08:24:50.685Z</time></trkpt><trkpt lat="41.5520983" lon="13.2692141"><ele>264.0</ele><time>2026-04-25T08:24:51.685Z</time></trkpt><trkpt lat="41.5522244" lon="13.2693493"><ele>262.25</ele><time>2026-04-25T08:24:52.685Z</time></trkpt><trkpt lat="41.5523384" lon="13.2694719"><ele>260.5</ele><time>2026-04-25T08:24:53.685Z</time></trkpt><trkpt lat="41.5524306" lon="13.2695939"><ele>258.75</ele><time>2026-04-25T08:24:54.685Z</time></trkpt><trkpt lat="41.5524956" lon="13.2697246"><ele>257.0</ele><time>2026-04-25T08:24:55.685Z</time></trkpt><trkpt lat="41.5525331" lon="13.2698681"><ele>257.0</ele><time>2026-04-25T08:24:56.685Z</time></trkpt><trkpt lat="41.5525342" lon="13.2700255"><ele>257.0</ele><time>2026-04-25T08:24:57.685Z</time></trkpt><trkpt lat="41.5525054" lon="13.2701875"><ele>257.0</ele><time>2026-04-25T08:24:58.685Z</time></trkpt><trkpt lat="41.5524526" lon="13.2703637"><ele>257.0</ele><time>2026-04-25T08:24:59.686Z</time></trkpt><trkpt lat="41.5523974" lon="13.2705445"><ele>254.66666666666669</ele><time>2026-04-25T08:25:00.685Z</time></trkpt><trkpt lat="41.552335" lon="13.2707439"><ele>252.33333333333331</ele><time>2026-04-25T08:25:01.686Z</time></trkpt><trkpt lat="41.5522817" lon="13.2709592"><ele>250.0</ele><time>2026-04-25T08:25:02.685Z</time></trkpt><trkpt lat="41.5522274" lon="13.2711945"><ele>250.0</ele><time>2026-04-25T08:25:03.685Z</time></trkpt><trkpt lat="41.552169" lon="13.2714372"><ele>250.0</ele><time>2026-04-25T08:25:04.685Z</time></trkpt><trkpt lat="41.5521084" lon="13.2716726"><ele>250.0</ele><time>2026-04-25T08:25:05.685Z</time></trkpt><trkpt lat="41.552047" lon="13.2719044"><ele>252.75</ele><time>2026-04-25T08:25:06.685Z</time></trkpt><trkpt lat="41.5519897" lon="13.2721116"><ele>255.5</ele><time>2026-04-25T08:25:07.685Z</time></trkpt><trkpt lat="41.5519525" lon="13.2722988"><ele>258.25</ele><time>2026-04-25T08:25:08.685Z</time></trkpt><trkpt lat="41.5519465" lon="13.2724779"><ele>261.0</ele><time>2026-04-25T08:25:09.686Z</time></trkpt><trkpt lat="41.5519818" lon="13.272656"><ele>257.5</ele><time>2026-04-25T08:25:10.685Z</time></trkpt><trkpt lat="41.5520484" lon="13.2727956"><ele>254.0</ele><time>2026-04-25T08:25:11.685Z</time></trkpt><trkpt lat="41.5521405" lon="13.2729329"><ele>250.5</ele><time>2026-04-25T08:25:12.685Z</time></trkpt><trkpt lat="41.5522421" lon="13.2730677"><ele>247.0</ele><time>2026-04-25T08:25:13.685Z</time></trkpt><trkpt lat="41.552349" lon="13.2732099"><ele>247.0</ele><time>2026-04-25T08:25:14.685Z</time></trkpt><trkpt lat="41.5524569" lon="13.2733451"><ele>247.0</ele><time>2026-04-25T08:25:15.685Z</time></trkpt><trkpt lat="41.5525602" lon="13.2734696"><ele>247.0</ele><time>2026-04-25T08:25:16.685Z</time></trkpt><trkpt lat="41.5526632" lon="13.2735923"><ele>247.0</ele><time>2026-04-25T08:25:17.685Z</time></trkpt><trkpt lat="41.5527688" lon="13.273686"><ele>245.75</ele><time>2026-04-25T08:25:18.685Z</time></trkpt><trkpt lat="41.5528809" lon="13.2737533"><ele>244.5</ele><time>2026-04-25T08:25:19.685Z</time></trkpt><trkpt lat="41.5529984" lon="13.2737836"><ele>243.25</ele><time>2026-04-25T08:25:20.685Z</time></trkpt><trkpt lat="41.5531194" lon="13.2737759"><ele>242.0</ele><time>2026-04-25T08:25:21.685Z</time></trkpt><trkpt lat="41.553243" lon="13.2737233"><ele>242.0</ele><time>2026-04-25T08:25:22.685Z</time></trkpt><trkpt lat="41.5533562" lon="13.2736374"><ele>242.0</ele><time>2026-04-25T08:25:23.685Z</time></trkpt><trkpt lat="41.5534646" lon="13.2735343"><ele>242.0</ele><time>2026-04-25T08:25:24.685Z</time></trkpt><trkpt lat="41.553575" lon="13.2733961"><ele>242.0</ele><time>2026-04-25T08:25:25.685Z</time></trkpt><trkpt lat="41.5536866" lon="13.2732492"><ele>240.33333333333334</ele><time>2026-04-25T08:25:26.685Z</time></trkpt><trkpt lat="41.5538046" lon="13.2730896"><ele>238.66666666666669</ele><time>2026-04-25T08:25:27.685Z</time></trkpt><trkpt lat="41.5539148" lon="13.2729312"><ele>237.0</ele><time>2026-04-25T08:25:28.685Z</time></trkpt><trkpt lat="41.5540324" lon="13.2727656"><ele>237.0</ele><time>2026-04-25T08:25:29.685Z</time></trkpt><trkpt lat="41.5541681" lon="13.2725946"><ele>237.0</ele><time>2026-04-25T08:25:30.685Z</time></trkpt><trkpt lat="41.5542907" lon="13.2724634"><ele>237.0</ele><time>2026-04-25T08:25:31.685Z</time></trkpt><trkpt lat="41.55443" lon="13.2723562"><ele>236.33333333333331</ele><time>2026-04-25T08:25:32.685Z</time></trkpt><trkpt lat="41.5545785" lon="13.2722823"><ele>235.66666666666666</ele><time>2026-04-25T08:25:33.685Z</time></trkpt><trkpt lat="41.5547602" lon="13.2722154"><ele>235.0</ele><time>2026-04-25T08:25:34.685Z</time></trkpt><trkpt lat="41.5549595" lon="13.272152"><ele>235.0</ele><time>2026-04-25T08:25:35.686Z</time></trkpt><trkpt lat="41.5551678" lon="13.2720805"><ele>235.0</ele><time>2026-04-25T08:25:36.685Z</time></trkpt><trkpt lat="41.5553726" lon="13.2720109"><ele>235.0</ele><time>2026-04-25T08:25:37.685Z</time></trkpt><trkpt lat="41.5555691" lon="13.2719461"><ele>233.0</ele><time>2026-04-25T08:25:38.685Z</time></trkpt><trkpt lat="41.5557609" lon="13.271884"><ele>231.0</ele><time>2026-04-25T08:25:39.686Z</time></trkpt><trkpt lat="41.5559471" lon="13.2718231"><ele>229.0</ele><time>2026-04-25T08:25:40.685Z</time></trkpt><trkpt lat="41.5561364" lon="13.2717638"><ele>227.0</ele><time>2026-04-25T08:25:41.685Z</time></trkpt><trkpt lat="41.5563209" lon="13.2717046"><ele>225.0</ele><time>2026-04-25T08:25:42.685Z</time></trkpt><trkpt lat="41.5565073" lon="13.2716466"><ele>223.0</ele><time>2026-04-25T08:25:43.686Z</time></trkpt><trkpt lat="41.5566925" lon="13.2715874"><ele>223.0</ele><time>2026-04-25T08:25:44.685Z</time></trkpt><trkpt lat="41.5568763" lon="13.271523"><ele>223.0</ele><time>2026-04-25T08:25:45.685Z</time></trkpt><trkpt lat="41.557059" lon="13.2714606"><ele>223.0</ele><time>2026-04-25T08:25:46.685Z</time></trkpt><trkpt lat="41.557239" lon="13.2714022"><ele>219.0</ele><time>2026-04-25T08:25:47.685Z</time></trkpt><trkpt lat="41.5574126" lon="13.2713483"><ele>215.0</ele><time>2026-04-25T08:25:48.686Z</time></trkpt><trkpt lat="41.5575822" lon="13.2712908"><ele>211.0</ele><time>2026-04-25T08:25:49.685Z</time></trkpt><trkpt lat="41.5577483" lon="13.2712395"><ele>211.0</ele><time>2026-04-25T08:25:50.685Z</time></trkpt><trkpt lat="41.5579096" lon="13.2711887"><ele>211.0</ele><time>2026-04-25T08:25:51.685Z</time></trkpt><trkpt lat="41.558061" lon="13.2711416"><ele>211.0</ele><time>2026-04-25T08:25:52.685Z</time></trkpt><trkpt lat="41.5582068" lon="13.2711015"><ele>211.0</ele><time>2026-04-25T08:25:53.685Z</time></trkpt><trkpt lat="41.5583485" lon="13.2710759"><ele>211.0</ele><time>2026-04-25T08:25:54.685Z</time></trkpt><trkpt lat="41.5584887" lon="13.2710714"><ele>211.0</ele><time>2026-04-25T08:25:55.685Z</time></trkpt><trkpt lat="41.5586224" lon="13.2710986"><ele>211.0</ele><time>2026-04-25T08:25:56.685Z</time></trkpt><trkpt lat="41.5587516" lon="13.2711613"><ele>210.25</ele><time>2026-04-25T08:25:57.685Z</time></trkpt><trkpt lat="41.5588684" lon="13.2712558"><ele>209.5</ele><time>2026-04-25T08:25:58.685Z</time></trkpt><trkpt lat="41.5589701" lon="13.2713817"><ele>208.75</ele><time>2026-04-25T08:25:59.685Z</time></trkpt><trkpt lat="41.5590547" lon="13.2715364"><ele>208.0</ele><time>2026-04-25T08:26:00.685Z</time></trkpt><trkpt lat="41.5591126" lon="13.2717036"><ele>208.0</ele><time>2026-04-25T08:26:01.685Z</time></trkpt><trkpt lat="41.5591451" lon="13.2718829"><ele>208.0</ele><time>2026-04-25T08:26:02.685Z</time></trkpt><trkpt lat="41.5591427" lon="13.272062"><ele>208.0</ele><time>2026-04-25T08:26:03.685Z</time></trkpt><trkpt lat="41.5591082" lon="13.272234"><ele>208.0</ele><time>2026-04-25T08:26:04.685Z</time></trkpt><trkpt lat="41.5590412" lon="13.2723898"><ele>208.33333333333331</ele><time>2026-04-25T08:26:05.685Z</time></trkpt><trkpt lat="41.5589433" lon="13.2725248"><ele>208.66666666666669</ele><time>2026-04-25T08:26:06.685Z</time></trkpt><trkpt lat="41.5588214" lon="13.272643"><ele>209.0</ele><time>2026-04-25T08:26:07.685Z</time></trkpt><trkpt lat="41.5586849" lon="13.2727575"><ele>209.0</ele><time>2026-04-25T08:26:08.685Z</time></trkpt><trkpt lat="41.558541" lon="13.2728603"><ele>209.0</ele><time>2026-04-25T08:26:09.685Z</time></trkpt><trkpt lat="41.5584051" lon="13.2729609"><ele>209.0</ele><time>2026-04-25T08:26:10.685Z</time></trkpt><trkpt lat="41.5582735" lon="13.2730581"><ele>207.75</ele><time>2026-04-25T08:26:11.685Z</time></trkpt><trkpt lat="41.5581391" lon="13.2731524"><ele>206.5</ele><time>2026-04-25T08:26:12.685Z</time></trkpt><trkpt lat="41.558015" lon="13.2732443"><ele>205.25</ele><time>2026-04-25T08:26:13.685Z</time></trkpt><trkpt lat="41.5579024" lon="13.2733472"><ele>204.0</ele><time>2026-04-25T08:26:14.686Z</time></trkpt><trkpt lat="41.5578196" lon="13.2734747"><ele>204.0</ele><time>2026-04-25T08:26:15.685Z</time></trkpt><trkpt lat="41.5577633" lon="13.2736184"><ele>204.0</ele><time>2026-04-25T08:26:16.685Z</time></trkpt><trkpt lat="41.5577408" lon="13.2737679"><ele>204.0</ele><time>2026-04-25T08:26:17.685Z</time></trkpt><trkpt lat="41.5577476" lon="13.2739303"><ele>204.0</ele><time>2026-04-25T08:26:18.685Z</time></trkpt><trkpt lat="41.5577891" lon="13.2740702"><ele>203.75</ele><time>2026-04-25T08:26:19.685Z</time></trkpt><trkpt lat="41.5578606" lon="13.2741935"><ele>203.5</ele><time>2026-04-25T08:26:20.685Z</time></trkpt><trkpt lat="41.5579502" lon="13.2742802"><ele>203.25</ele><time>2026-04-25T08:26:21.685Z</time></trkpt><trkpt lat="41.5580582" lon="13.2743378"><ele>203.0</ele><time>2026-04-25T08:26:22.686Z</time></trkpt><trkpt lat="41.558173" lon="13.2743855"><ele>200.25</ele><time>2026-04-25T08:26:23.686Z</time></trkpt><trkpt lat="41.5582955" lon="13.2744289"><ele>197.5</ele><time>2026-04-25T08:26:24.685Z</time></trkpt><trkpt lat="41.5584318" lon="13.2744796"><ele>194.75</ele><time>2026-04-25T08:26:25.685Z</time></trkpt><trkpt lat="41.5585708" lon="13.2745213"><ele>192.0</ele><time>2026-04-25T08:26:26.685Z</time></trkpt><trkpt lat="41.5587636" lon="13.2746278"><ele>192.33333333333331</ele><time>2026-04-25T08:26:27.685Z</time></trkpt><trkpt lat="41.5589127" lon="13.2746946"><ele>192.66666666666666</ele><time>2026-04-25T08:26:28.685Z</time></trkpt><trkpt lat="41.5590462" lon="13.2747586"><ele>193.0</ele><time>2026-04-25T08:26:29.685Z</time></trkpt><trkpt lat="41.5591926" lon="13.2748245"><ele>193.0</ele><time>2026-04-25T08:26:30.685Z</time></trkpt><trkpt lat="41.559354" lon="13.2748972"><ele>193.0</ele><time>2026-04-25T08:26:31.685Z</time></trkpt><trkpt lat="41.5594944" lon="13.2749683"><ele>193.0</ele><time>2026-04-25T08:26:32.685Z</time></trkpt><trkpt lat="41.5596584" lon="13.2750442"><ele>190.33333333333331</ele><time>2026-04-25T08:26:33.685Z</time></trkpt><trkpt lat="41.5598281" lon="13.2751346"><ele>187.66666666666666</ele><time>2026-04-25T08:26:34.685Z</time></trkpt><trkpt lat="41.5599837" lon="13.2752442"><ele>185.0</ele><time>2026-04-25T08:26:35.685Z</time></trkpt><trkpt lat="41.5601455" lon="13.2753652"><ele>185.0</ele><time>2026-04-25T08:26:36.685Z</time></trkpt><trkpt lat="41.5603091" lon="13.2754764"><ele>185.0</ele><time>2026-04-25T08:26:37.685Z</time></trkpt><trkpt lat="41.5604737" lon="13.2755761"><ele>185.0</ele><time>2026-04-25T08:26:38.685Z</time></trkpt><trkpt lat="41.5606255" lon="13.2756805"><ele>185.66666666666666</ele><time>2026-04-25T08:26:39.685Z</time></trkpt><trkpt lat="41.5607741" lon="13.2757855"><ele>186.33333333333334</ele><time>2026-04-25T08:26:40.685Z</time></trkpt><trkpt lat="41.5609211" lon="13.275871"><ele>187.0</ele><time>2026-04-25T08:26:41.685Z</time></trkpt><trkpt lat="41.5610614" lon="13.2759439"><ele>185.5</ele><time>2026-04-25T08:26:42.686Z</time></trkpt><trkpt lat="41.5612027" lon="13.2760124"><ele>184.0</ele><time>2026-04-25T08:26:43.685Z</time></trkpt><trkpt lat="41.5613462" lon="13.2760766"><ele>182.5</ele><time>2026-04-25T08:26:44.685Z</time></trkpt><trkpt lat="41.5614829" lon="13.2761407"><ele>181.0</ele><time>2026-04-25T08:26:45.685Z</time></trkpt><trkpt lat="41.5616087" lon="13.2762157"><ele>181.0</ele><time>2026-04-25T08:26:46.685Z</time></trkpt><trkpt lat="41.5617197" lon="13.2763075"><ele>181.0</ele><time>2026-04-25T08:26:47.685Z</time></trkpt><trkpt lat="41.5618162" lon="13.2764202"><ele>181.0</ele><time>2026-04-25T08:26:48.686Z</time></trkpt><trkpt lat="41.5618962" lon="13.2765423"><ele>181.0</ele><time>2026-04-25T08:26:49.685Z</time></trkpt><trkpt lat="41.5619664" lon="13.2766656"><ele>180.75</ele><time>2026-04-25T08:26:50.685Z</time></trkpt><trkpt lat="41.5620205" lon="13.276814"><ele>180.5</ele><time>2026-04-25T08:26:51.685Z</time></trkpt><trkpt lat="41.5620531" lon="13.2769858"><ele>180.25</ele><time>2026-04-25T08:26:52.685Z</time></trkpt><trkpt lat="41.5620716" lon="13.2771891"><ele>180.0</ele><time>2026-04-25T08:26:53.685Z</time></trkpt><trkpt lat="41.5620894" lon="13.277425"><ele>180.0</ele><time>2026-04-25T08:26:54.685Z</time></trkpt><trkpt lat="41.562104" lon="13.2776874"><ele>180.0</ele><time>2026-04-25T08:26:55.685Z</time></trkpt><trkpt lat="41.5621035" lon="13.2779618"><ele>180.0</ele><time>2026-04-25T08:26:56.685Z</time></trkpt><trkpt lat="41.562094" lon="13.2782282"><ele>181.0</ele><time>2026-04-25T08:26:57.686Z</time></trkpt><trkpt lat="41.5620799" lon="13.2784947"><ele>182.0</ele><time>2026-04-25T08:26:58.685Z</time></trkpt><trkpt lat="41.5620508" lon="13.2787332"><ele>183.0</ele><time>2026-04-25T08:26:59.685Z</time></trkpt><trkpt lat="41.5620182" lon="13.2789615"><ele>187.33333333333331</ele><time>2026-04-25T08:27:00.685Z</time></trkpt><trkpt lat="41.5619864" lon="13.2792028"><ele>191.66666666666666</ele><time>2026-04-25T08:27:01.685Z</time></trkpt><trkpt lat="41.5619587" lon="13.27946"><ele>196.0</ele><time>2026-04-25T08:27:02.686Z</time></trkpt><trkpt lat="41.5619337" lon="13.2797326"><ele>196.0</ele><time>2026-04-25T08:27:03.685Z</time></trkpt><trkpt lat="41.5619097" lon="13.2800068"><ele>196.0</ele><time>2026-04-25T08:27:04.685Z</time></trkpt><trkpt lat="41.5618914" lon="13.2802906"><ele>196.0</ele><time>2026-04-25T08:27:05.686Z</time></trkpt><trkpt lat="41.5618741" lon="13.2805521"><ele>197.0</ele><time>2026-04-25T08:27:06.685Z</time></trkpt><trkpt lat="41.561858" lon="13.2808029"><ele>198.0</ele><time>2026-04-25T08:27:07.685Z</time></trkpt><trkpt lat="41.5618522" lon="13.2810512"><ele>199.0</ele><time>2026-04-25T08:27:08.685Z</time></trkpt><trkpt lat="41.5618624" lon="13.2812877"><ele>199.66666666666666</ele><time>2026-04-25T08:27:09.685Z</time></trkpt><trkpt lat="41.5618916" lon="13.2815173"><ele>200.33333333333331</ele><time>2026-04-25T08:27:10.685Z</time></trkpt><trkpt lat="41.5619314" lon="13.2817363"><ele>201.0</ele><time>2026-04-25T08:27:11.685Z</time></trkpt><trkpt lat="41.5619829" lon="13.2819443"><ele>201.0</ele><time>2026-04-25T08:27:12.685Z</time></trkpt><trkpt lat="41.5620095" lon="13.2821291"><ele>201.0</ele><time>2026-04-25T08:27:13.685Z</time></trkpt><trkpt lat="41.5620088" lon="13.2823121"><ele>201.0</ele><time>2026-04-25T08:27:14.686Z</time></trkpt><trkpt lat="41.561977" lon="13.2825021"><ele>201.0</ele><time>2026-04-25T08:27:15.685Z</time></trkpt><trkpt lat="41.5619316" lon="13.2826962"><ele>201.66666666666669</ele><time>2026-04-25T08:27:16.685Z</time></trkpt><trkpt lat="41.5618795" lon="13.2828887"><ele>202.33333333333334</ele><time>2026-04-25T08:27:17.685Z</time></trkpt><trkpt lat="41.5618335" lon="13.2830921"><ele>203.0</ele><time>2026-04-25T08:27:18.685Z</time></trkpt><trkpt lat="41.5617851" lon="13.2832927"><ele>203.0</ele><time>2026-04-25T08:27:19.685Z</time></trkpt><trkpt lat="41.5617333" lon="13.2834974"><ele>203.0</ele><time>2026-04-25T08:27:20.685Z</time></trkpt><trkpt lat="41.5616897" lon="13.283695"><ele>203.0</ele><time>2026-04-25T08:27:21.685Z</time></trkpt><trkpt lat="41.561653" lon="13.2838848"><ele>201.75</ele><time>2026-04-25T08:27:22.685Z</time></trkpt><trkpt lat="41.5616238" lon="13.2840701"><ele>200.5</ele><time>2026-04-25T08:27:23.685Z</time></trkpt><trkpt lat="41.5616093" lon="13.2842526"><ele>199.25</ele><time>2026-04-25T08:27:24.685Z</time></trkpt><trkpt lat="41.561617" lon="13.2844356"><ele>198.0</ele><time>2026-04-25T08:27:25.685Z</time></trkpt><trkpt lat="41.5616594" lon="13.2846202"><ele>198.33333333333331</ele><time>2026-04-25T08:27:26.685Z</time></trkpt><trkpt lat="41.5617297" lon="13.2848024"><ele>198.66666666666666</ele><time>2026-04-25T08:27:27.685Z</time></trkpt><trkpt lat="41.5618246" lon="13.284976"><ele>199.0</ele><time>2026-04-25T08:27:28.685Z</time></trkpt><trkpt lat="41.561934" lon="13.285141"><ele>196.66666666666666</ele><time>2026-04-25T08:27:29.685Z</time></trkpt><trkpt lat="41.5620478" lon="13.2853078"><ele>194.33333333333331</ele><time>2026-04-25T08:27:30.685Z</time></trkpt><trkpt lat="41.5621581" lon="13.2854679"><ele>192.0</ele><time>2026-04-25T08:27:31.685Z</time></trkpt><trkpt lat="41.5622626" lon="13.2856158"><ele>192.0</ele><time>2026-04-25T08:27:32.685Z</time></trkpt><trkpt lat="41.5623675" lon="13.2857599"><ele>192.0</ele><time>2026-04-25T08:27:33.685Z</time></trkpt><trkpt lat="41.5624735" lon="13.285903"><ele>192.0</ele><time>2026-04-25T08:27:34.685Z</time></trkpt><trkpt lat="41.5625768" lon="13.28607"><ele>192.0</ele><time>2026-04-25T08:27:35.685Z</time></trkpt><trkpt lat="41.5626688" lon="13.2862514"><ele>192.0</ele><time>2026-04-25T08:27:36.685Z</time></trkpt><trkpt lat="41.5627617" lon="13.2864569"><ele>192.0</ele><time>2026-04-25T08:27:37.685Z</time></trkpt><trkpt lat="41.5628492" lon="13.2866781"><ele>193.0</ele><time>2026-04-25T08:27:38.685Z</time></trkpt><trkpt lat="41.5629338" lon="13.2869068"><ele>194.0</ele><time>2026-04-25T08:27:39.685Z</time></trkpt><trkpt lat="41.5630164" lon="13.287131"><ele>195.0</ele><time>2026-04-25T08:27:40.685Z</time></trkpt><trkpt lat="41.5630969" lon="13.2873513"><ele>192.0</ele><time>2026-04-25T08:27:41.685Z</time></trkpt><trkpt lat="41.5631721" lon="13.287576"><ele>189.0</ele><time>2026-04-25T08:27:42.685Z</time></trkpt><trkpt lat="41.5632321" lon="13.2877877"><ele>186.0</ele><time>2026-04-25T08:27:43.685Z</time></trkpt><trkpt lat="41.5632731" lon="13.2880017"><ele>184.33333333333334</ele><time>2026-04-25T08:27:44.686Z</time></trkpt><trkpt lat="41.5632987" lon="13.2882272"><ele>182.66666666666669</ele><time>2026-04-25T08:27:45.686Z</time></trkpt><trkpt lat="41.5633057" lon="13.2884622"><ele>181.0</ele><time>2026-04-25T08:27:46.685Z</time></trkpt><trkpt lat="41.5632978" lon="13.288707"><ele>180.0</ele><time>2026-04-25T08:27:47.685Z</time></trkpt><trkpt lat="41.5632805" lon="13.2889596"><ele>179.0</ele><time>2026-04-25T08:27:48.686Z</time></trkpt><trkpt lat="41.563257" lon="13.2892048"><ele>178.0</ele><time>2026-04-25T08:27:49.685Z</time></trkpt><trkpt lat="41.5632329" lon="13.289444"><ele>178.0</ele><time>2026-04-25T08:27:50.685Z</time></trkpt><trkpt lat="41.5632106" lon="13.289681"><ele>178.0</ele><time>2026-04-25T08:27:51.685Z</time></trkpt><trkpt lat="41.5631961" lon="13.2899103"><ele>178.0</ele><time>2026-04-25T08:27:52.685Z</time></trkpt><trkpt lat="41.5632086" lon="13.2901248"><ele>177.33333333333334</ele><time>2026-04-25T08:27:53.685Z</time></trkpt><trkpt lat="41.5632474" lon="13.2903432"><ele>176.66666666666666</ele><time>2026-04-25T08:27:54.685Z</time></trkpt><trkpt lat="41.5633074" lon="13.2905684"><ele>176.0</ele><time>2026-04-25T08:27:55.685Z</time></trkpt><trkpt lat="41.563375" lon="13.290794"><ele>174.33333333333331</ele><time>2026-04-25T08:27:56.685Z</time></trkpt><trkpt lat="41.5634554" lon="13.2910301"><ele>172.66666666666666</ele><time>2026-04-25T08:27:57.685Z</time></trkpt><trkpt lat="41.5635107" lon="13.2912707"><ele>171.0</ele><time>2026-04-25T08:27:58.685Z</time></trkpt><trkpt lat="41.5635524" lon="13.2915117"><ele>169.66666666666666</ele><time>2026-04-25T08:27:59.685Z</time></trkpt><trkpt lat="41.5635931" lon="13.2917609"><ele>168.33333333333331</ele><time>2026-04-25T08:28:00.685Z</time></trkpt><trkpt lat="41.5636499" lon="13.2920189"><ele>167.0</ele><time>2026-04-25T08:28:01.685Z</time></trkpt><trkpt lat="41.5636753" lon="13.292278"><ele>171.0</ele><time>2026-04-25T08:28:02.685Z</time></trkpt><trkpt lat="41.5637205" lon="13.2925194"><ele>175.0</ele><time>2026-04-25T08:28:03.685Z</time></trkpt><trkpt lat="41.5637757" lon="13.2927655"><ele>179.0</ele><time>2026-04-25T08:28:04.685Z</time></trkpt><trkpt lat="41.563841" lon="13.293008"><ele>176.66666666666666</ele><time>2026-04-25T08:28:05.685Z</time></trkpt><trkpt lat="41.563912" lon="13.2932353"><ele>174.33333333333334</ele><time>2026-04-25T08:28:06.685Z</time></trkpt><trkpt lat="41.5639852" lon="13.2934507"><ele>172.0</ele><time>2026-04-25T08:28:07.685Z</time></trkpt><trkpt lat="41.5640661" lon="13.2936485"><ele>172.0</ele><time>2026-04-25T08:28:08.685Z</time></trkpt><trkpt lat="41.5641672" lon="13.2938274"><ele>172.0</ele><time>2026-04-25T08:28:09.685Z</time></trkpt><trkpt lat="41.5642884" lon="13.2939688"><ele>172.0</ele><time>2026-04-25T08:28:10.685Z</time></trkpt><trkpt lat="41.564428" lon="13.2940754"><ele>170.25</ele><time>2026-04-25T08:28:11.685Z</time></trkpt><trkpt lat="41.5645702" lon="13.2941609"><ele>168.5</ele><time>2026-04-25T08:28:12.685Z</time></trkpt><trkpt lat="41.5647075" lon="13.2942298"><ele>166.75</ele><time>2026-04-25T08:28:13.685Z</time></trkpt><trkpt lat="41.5648339" lon="13.2942926"><ele>165.0</ele><time>2026-04-25T08:28:14.685Z</time></trkpt><trkpt lat="41.564954" lon="13.29435"><ele>165.0</ele><time>2026-04-25T08:28:15.685Z</time></trkpt><trkpt lat="41.5650669" lon="13.2944127"><ele>165.0</ele><time>2026-04-25T08:28:16.685Z</time></trkpt><trkpt lat="41.5651675" lon="13.2944863"><ele>165.0</ele><time>2026-04-25T08:28:17.685Z</time></trkpt><trkpt lat="41.5652579" lon="13.2945805"><ele>165.0</ele><time>2026-04-25T08:28:18.686Z</time></trkpt><trkpt lat="41.5653306" lon="13.2946962"><ele>165.8</ele><time>2026-04-25T08:28:19.685Z</time></trkpt><trkpt lat="41.5653923" lon="13.2948209"><ele>166.6</ele><time>2026-04-25T08:28:20.685Z</time></trkpt><trkpt lat="41.56545" lon="13.2949455"><ele>167.39999999999998</ele><time>2026-04-25T08:28:21.685Z</time></trkpt><trkpt lat="41.5655044" lon="13.2950662"><ele>168.2</ele><time>2026-04-25T08:28:22.685Z</time></trkpt><trkpt lat="41.5655597" lon="13.2951792"><ele>169.0</ele><time>2026-04-25T08:28:23.685Z</time></trkpt><trkpt lat="41.5656149" lon="13.2952874"><ele>169.0</ele><time>2026-04-25T08:28:24.685Z</time></trkpt><trkpt lat="41.5656755" lon="13.2953948"><ele>169.0</ele><time>2026-04-25T08:28:25.685Z</time></trkpt><trkpt lat="41.5657393" lon="13.2955015"><ele>169.0</ele><time>2026-04-25T08:28:26.685Z</time></trkpt><trkpt lat="41.565801" lon="13.2956025"><ele>169.0</ele><time>2026-04-25T08:28:27.685Z</time></trkpt><trkpt lat="41.5658626" lon="13.2957034"><ele>169.0</ele><time>2026-04-25T08:28:28.685Z</time></trkpt><trkpt lat="41.565926" lon="13.2958098"><ele>168.25</ele><time>2026-04-25T08:28:29.685Z</time></trkpt><trkpt lat="41.5659952" lon="13.2959183"><ele>167.5</ele><time>2026-04-25T08:28:30.685Z</time></trkpt><trkpt lat="41.5660739" lon="13.2960402"><ele>166.75</ele><time>2026-04-25T08:28:31.685Z</time></trkpt><trkpt lat="41.5661695" lon="13.2961661"><ele>166.0</ele><time>2026-04-25T08:28:32.685Z</time></trkpt><trkpt lat="41.5662905" lon="13.2963008"><ele>163.0</ele><time>2026-04-25T08:28:33.685Z</time></trkpt><trkpt lat="41.5664228" lon="13.2964419"><ele>160.0</ele><time>2026-04-25T08:28:34.685Z</time></trkpt><trkpt lat="41.5665575" lon="13.2966028"><ele>157.0</ele><time>2026-04-25T08:28:35.685Z</time></trkpt><trkpt lat="41.5667404" lon="13.2968047"><ele>157.0</ele><time>2026-04-25T08:28:36.685Z</time></trkpt><trkpt lat="41.5668907" lon="13.2969768"><ele>157.0</ele><time>2026-04-25T08:28:37.685Z</time></trkpt><trkpt lat="41.5670414" lon="13.2971444"><ele>157.0</ele><time>2026-04-25T08:28:38.685Z</time></trkpt><trkpt lat="41.5671881" lon="13.297308"><ele>154.33333333333334</ele><time>2026-04-25T08:28:39.685Z</time></trkpt><trkpt lat="41.5673272" lon="13.2974684"><ele>151.66666666666666</ele><time>2026-04-25T08:28:40.685Z</time></trkpt><trkpt lat="41.5674668" lon="13.2976217"><ele>149.0</ele><time>2026-04-25T08:28:41.685Z</time></trkpt><trkpt lat="41.567606" lon="13.2977761"><ele>149.0</ele><time>2026-04-25T08:28:42.685Z</time></trkpt><trkpt lat="41.5677332" lon="13.2979286"><ele>149.0</ele><time>2026-04-25T08:28:43.685Z</time></trkpt><trkpt lat="41.5678576" lon="13.2980764"><ele>149.0</ele><time>2026-04-25T08:28:44.685Z</time></trkpt><trkpt lat="41.5679821" lon="13.2982401"><ele>148.66666666666666</ele><time>2026-04-25T08:28:45.686Z</time></trkpt><trkpt lat="41.5681025" lon="13.2984122"><ele>148.33333333333334</ele><time>2026-04-25T08:28:46.685Z</time></trkpt><trkpt lat="41.5682193" lon="13.2985923"><ele>148.0</ele><time>2026-04-25T08:28:47.685Z</time></trkpt><trkpt lat="41.5683347" lon="13.2987878"><ele>147.33333333333334</ele><time>2026-04-25T08:28:48.685Z</time></trkpt><trkpt lat="41.5684475" lon="13.2989923"><ele>146.66666666666666</ele><time>2026-04-25T08:28:49.685Z</time></trkpt><trkpt lat="41.5685571" lon="13.2991849"><ele>146.0</ele><time>2026-04-25T08:28:50.685Z</time></trkpt><trkpt lat="41.568666" lon="13.2993817"><ele>146.33333333333331</ele><time>2026-04-25T08:28:51.685Z</time></trkpt><trkpt lat="41.5687705" lon="13.2995701"><ele>146.66666666666666</ele><time>2026-04-25T08:28:52.685Z</time></trkpt><trkpt lat="41.5688702" lon="13.2997619"><ele>147.0</ele><time>2026-04-25T08:28:53.685Z</time></trkpt><trkpt lat="41.5689581" lon="13.299946"><ele>146.33333333333334</ele><time>2026-04-25T08:28:54.685Z</time></trkpt><trkpt lat="41.5690387" lon="13.3001491"><ele>145.66666666666669</ele><time>2026-04-25T08:28:55.685Z</time></trkpt><trkpt lat="41.5691083" lon="13.3003637"><ele>145.0</ele><time>2026-04-25T08:28:56.685Z</time></trkpt><trkpt lat="41.5691573" lon="13.3005895"><ele>144.33333333333334</ele><time>2026-04-25T08:28:57.685Z</time></trkpt><trkpt lat="41.5691844" lon="13.3008367"><ele>143.66666666666666</ele><time>2026-04-25T08:28:58.685Z</time></trkpt><trkpt lat="41.5692085" lon="13.3010831"><ele>143.0</ele><time>2026-04-25T08:28:59.685Z</time></trkpt><trkpt lat="41.5692324" lon="13.3013343"><ele>143.0</ele><time>2026-04-25T08:29:00.686Z</time></trkpt><trkpt lat="41.5692456" lon="13.3015893"><ele>143.0</ele><time>2026-04-25T08:29:01.685Z</time></trkpt><trkpt lat="41.5692618" lon="13.3018308"><ele>143.0</ele><time>2026-04-25T08:29:02.685Z</time></trkpt><trkpt lat="41.5692732" lon="13.302054"><ele>142.66666666666666</ele><time>2026-04-25T08:29:03.685Z</time></trkpt><trkpt lat="41.5692765" lon="13.30228"><ele>142.33333333333334</ele><time>2026-04-25T08:29:04.685Z</time></trkpt><trkpt lat="41.5692748" lon="13.3024874"><ele>142.0</ele><time>2026-04-25T08:29:05.685Z</time></trkpt><trkpt lat="41.5692711" lon="13.3026944"><ele>142.0</ele><time>2026-04-25T08:29:06.685Z</time></trkpt><trkpt lat="41.5692642" lon="13.3028981"><ele>142.0</ele><time>2026-04-25T08:29:07.685Z</time></trkpt><trkpt lat="41.569254" lon="13.3030967"><ele>142.0</ele><time>2026-04-25T08:29:08.685Z</time></trkpt><trkpt lat="41.5692364" lon="13.3032922"><ele>142.0</ele><time>2026-04-25T08:29:09.685Z</time></trkpt><trkpt lat="41.5692179" lon="13.3034951"><ele>142.0</ele><time>2026-04-25T08:29:10.685Z</time></trkpt><trkpt lat="41.5691988" lon="13.3036959"><ele>142.0</ele><time>2026-04-25T08:29:11.685Z</time></trkpt><trkpt lat="41.5691785" lon="13.3038981"><ele>142.0</ele><time>2026-04-25T08:29:12.685Z</time></trkpt><trkpt lat="41.5691569" lon="13.3041062"><ele>142.33333333333334</ele><time>2026-04-25T08:29:13.685Z</time></trkpt><trkpt lat="41.5691301" lon="13.3043227"><ele>142.66666666666666</ele><time>2026-04-25T08:29:14.685Z</time></trkpt><trkpt lat="41.5690996" lon="13.3045482"><ele>143.0</ele><time>2026-04-25T08:29:15.685Z</time></trkpt><trkpt lat="41.5690654" lon="13.304778"><ele>142.33333333333331</ele><time>2026-04-25T08:29:16.685Z</time></trkpt><trkpt lat="41.5690215" lon="13.3050169"><ele>141.66666666666666</ele><time>2026-04-25T08:29:17.685Z</time></trkpt><trkpt lat="41.5690247" lon="13.3052756"><ele>141.0</ele><time>2026-04-25T08:29:18.685Z</time></trkpt><trkpt lat="41.5689702" lon="13.3055308"><ele>140.33333333333334</ele><time>2026-04-25T08:29:19.685Z</time></trkpt><trkpt lat="41.5689103" lon="13.3057871"><ele>139.66666666666669</ele><time>2026-04-25T08:29:20.685Z</time></trkpt><trkpt lat="41.5688474" lon="13.3060463"><ele>139.0</ele><time>2026-04-25T08:29:21.685Z</time></trkpt><trkpt lat="41.5687782" lon="13.3063106"><ele>139.0</ele><time>2026-04-25T08:29:22.685Z</time></trkpt><trkpt lat="41.5686971" lon="13.3065615"><ele>139.0</ele><time>2026-04-25T08:29:23.685Z</time></trkpt><trkpt lat="41.5686145" lon="13.3068101"><ele>139.0</ele><time>2026-04-25T08:29:24.685Z</time></trkpt><trkpt lat="41.5685296" lon="13.3070622"><ele>139.0</ele><time>2026-04-25T08:29:25.685Z</time></trkpt><trkpt lat="41.5684556" lon="13.3073075"><ele>139.0</ele><time>2026-04-25T08:29:26.685Z</time></trkpt><trkpt lat="41.5683867" lon="13.3075472"><ele>139.0</ele><time>2026-04-25T08:29:27.685Z</time></trkpt><trkpt lat="41.5683164" lon="13.3077726"><ele>139.0</ele><time>2026-04-25T08:29:28.685Z</time></trkpt><trkpt lat="41.5682539" lon="13.3080007"><ele>139.0</ele><time>2026-04-25T08:29:29.685Z</time></trkpt><trkpt lat="41.5682045" lon="13.3082311"><ele>139.0</ele><time>2026-04-25T08:29:30.685Z</time></trkpt><trkpt lat="41.5681676" lon="13.3084847"><ele>139.66666666666669</ele><time>2026-04-25T08:29:31.685Z</time></trkpt><trkpt lat="41.5681325" lon="13.3087228"><ele>140.33333333333334</ele><time>2026-04-25T08:29:32.685Z</time></trkpt><trkpt lat="41.5680997" lon="13.3089596"><ele>141.0</ele><time>2026-04-25T08:29:33.685Z</time></trkpt><trkpt lat="41.5680644" lon="13.3092023"><ele>141.0</ele><time>2026-04-25T08:29:34.685Z</time></trkpt><trkpt lat="41.5680341" lon="13.3094591"><ele>141.0</ele><time>2026-04-25T08:29:35.685Z</time></trkpt><trkpt lat="41.5680033" lon="13.3097016"><ele>141.0</ele><time>2026-04-25T08:29:36.685Z</time></trkpt><trkpt lat="41.5679776" lon="13.3099393"><ele>140.33333333333334</ele><time>2026-04-25T08:29:37.685Z</time></trkpt><trkpt lat="41.567946" lon="13.3101742"><ele>139.66666666666669</ele><time>2026-04-25T08:29:38.685Z</time></trkpt><trkpt lat="41.5679084" lon="13.3104309"><ele>139.0</ele><time>2026-04-25T08:29:39.685Z</time></trkpt><trkpt lat="41.5678716" lon="13.3106804"><ele>140.33333333333334</ele><time>2026-04-25T08:29:40.685Z</time></trkpt><trkpt lat="41.5678414" lon="13.3109095"><ele>141.66666666666666</ele><time>2026-04-25T08:29:41.685Z</time></trkpt><trkpt lat="41.5678201" lon="13.3110979"><ele>143.0</ele><time>2026-04-25T08:29:42.685Z</time></trkpt><trkpt lat="41.5678042" lon="13.3112838"><ele>143.0</ele><time>2026-04-25T08:29:43.685Z</time></trkpt><trkpt lat="41.567808" lon="13.311478"><ele>143.0</ele><time>2026-04-25T08:29:44.685Z</time></trkpt><trkpt lat="41.5678352" lon="13.3116618"><ele>143.0</ele><time>2026-04-25T08:29:45.685Z</time></trkpt><trkpt lat="41.567872" lon="13.3118558"><ele>143.0</ele><time>2026-04-25T08:29:46.685Z</time></trkpt><trkpt lat="41.5679212" lon="13.3120474"><ele>142.0</ele><time>2026-04-25T08:29:47.685Z</time></trkpt><trkpt lat="41.5679727" lon="13.3122376"><ele>141.0</ele><time>2026-04-25T08:29:48.685Z</time></trkpt><trkpt lat="41.5680235" lon="13.3124309"><ele>140.0</ele><time>2026-04-25T08:29:49.685Z</time></trkpt><trkpt lat="41.5680705" lon="13.3126194"><ele>140.0</ele><time>2026-04-25T08:29:50.685Z</time></trkpt><trkpt lat="41.5681165" lon="13.3127956"><ele>140.0</ele><time>2026-04-25T08:29:51.686Z</time></trkpt><trkpt lat="41.5681586" lon="13.3129584"><ele>140.0</ele><time>2026-04-25T08:29:52.685Z</time></trkpt><trkpt lat="41.5681964" lon="13.3131614"><ele>140.0</ele><time>2026-04-25T08:29:53.685Z</time></trkpt><trkpt lat="41.5682314" lon="13.3133827"><ele>141.0</ele><time>2026-04-25T08:29:54.685Z</time></trkpt><trkpt lat="41.5682721" lon="13.3136215"><ele>142.0</ele><time>2026-04-25T08:29:55.685Z</time></trkpt><trkpt lat="41.5682876" lon="13.3138625"><ele>143.0</ele><time>2026-04-25T08:29:56.685Z</time></trkpt><trkpt lat="41.5682899" lon="13.3140799"><ele>144.66666666666666</ele><time>2026-04-25T08:29:57.685Z</time></trkpt><trkpt lat="41.5682941" lon="13.3142923"><ele>146.33333333333334</ele><time>2026-04-25T08:29:58.685Z</time></trkpt><trkpt lat="41.5682692" lon="13.3145212"><ele>148.0</ele><time>2026-04-25T08:29:59.685Z</time></trkpt><trkpt lat="41.5682561" lon="13.3147641"><ele>149.66666666666669</ele><time>2026-04-25T08:30:00.685Z</time></trkpt><trkpt lat="41.5682622" lon="13.3150068"><ele>151.33333333333334</ele><time>2026-04-25T08:30:01.685Z</time></trkpt><trkpt lat="41.568269" lon="13.3152885"><ele>153.0</ele><time>2026-04-25T08:30:02.685Z</time></trkpt><trkpt lat="41.5682789" lon="13.3155839"><ele>154.33333333333334</ele><time>2026-04-25T08:30:03.685Z</time></trkpt><trkpt lat="41.5682838" lon="13.3158829"><ele>155.66666666666669</ele><time>2026-04-25T08:30:04.685Z</time></trkpt><trkpt lat="41.568311" lon="13.3161478"><ele>157.0</ele><time>2026-04-25T08:30:05.685Z</time></trkpt><trkpt lat="41.5683264" lon="13.3164241"><ele>157.33333333333334</ele><time>2026-04-25T08:30:06.685Z</time></trkpt><trkpt lat="41.5683382" lon="13.316705"><ele>157.66666666666666</ele><time>2026-04-25T08:30:07.685Z</time></trkpt><trkpt lat="41.5683537" lon="13.3169774"><ele>158.0</ele><time>2026-04-25T08:30:08.685Z</time></trkpt><trkpt lat="41.5683812" lon="13.3172387"><ele>158.0</ele><time>2026-04-25T08:30:09.685Z</time></trkpt><trkpt lat="41.5684258" lon="13.3174854"><ele>158.0</ele><time>2026-04-25T08:30:10.685Z</time></trkpt><trkpt lat="41.5684786" lon="13.3177241"><ele>158.0</ele><time>2026-04-25T08:30:11.685Z</time></trkpt><trkpt lat="41.5685262" lon="13.3179485"><ele>157.75</ele><time>2026-04-25T08:30:12.685Z</time></trkpt><trkpt lat="41.5685598" lon="13.3181547"><ele>157.5</ele><time>2026-04-25T08:30:13.685Z</time></trkpt><trkpt lat="41.5685804" lon="13.3183536"><ele>157.25</ele><time>2026-04-25T08:30:14.685Z</time></trkpt><trkpt lat="41.5685913" lon="13.3185389"><ele>157.0</ele><time>2026-04-25T08:30:15.685Z</time></trkpt><trkpt lat="41.5685963" lon="13.3187265"><ele>156.75</ele><time>2026-04-25T08:30:16.685Z</time></trkpt><trkpt lat="41.5685918" lon="13.3189115"><ele>156.5</ele><time>2026-04-25T08:30:17.685Z</time></trkpt><trkpt lat="41.5685757" lon="13.3191"><ele>156.25</ele><time>2026-04-25T08:30:18.685Z</time></trkpt><trkpt lat="41.5685554" lon="13.3192885"><ele>156.0</ele><time>2026-04-25T08:30:19.685Z</time></trkpt><trkpt lat="41.568524" lon="13.3194714"><ele>156.0</ele><time>2026-04-25T08:30:20.685Z</time></trkpt><trkpt lat="41.5684898" lon="13.3196527"><ele>156.0</ele><time>2026-04-25T08:30:21.685Z</time></trkpt><trkpt lat="41.568442" lon="13.3198314"><ele>156.0</ele><time>2026-04-25T08:30:22.685Z</time></trkpt><trkpt lat="41.5683905" lon="13.3200195"><ele>156.0</ele><time>2026-04-25T08:30:23.685Z</time></trkpt><trkpt lat="41.5683407" lon="13.3202065"><ele>156.75</ele><time>2026-04-25T08:30:24.685Z</time></trkpt><trkpt lat="41.5682927" lon="13.3203888"><ele>157.5</ele><time>2026-04-25T08:30:25.685Z</time></trkpt><trkpt lat="41.5682515" lon="13.3205686"><ele>158.25</ele><time>2026-04-25T08:30:26.685Z</time></trkpt><trkpt lat="41.568213" lon="13.320755"><ele>159.0</ele><time>2026-04-25T08:30:27.685Z</time></trkpt><trkpt lat="41.5681997" lon="13.3209587"><ele>160.0</ele><time>2026-04-25T08:30:28.685Z</time></trkpt><trkpt lat="41.5682097" lon="13.3211611"><ele>161.0</ele><time>2026-04-25T08:30:29.685Z</time></trkpt><trkpt lat="41.5682417" lon="13.321348"><ele>162.0</ele><time>2026-04-25T08:30:30.685Z</time></trkpt><trkpt lat="41.568292" lon="13.3215188"><ele>163.0</ele><time>2026-04-25T08:30:31.685Z</time></trkpt><trkpt lat="41.5683532" lon="13.3216766"><ele>163.5</ele><time>2026-04-25T08:30:32.686Z</time></trkpt><trkpt lat="41.5684169" lon="13.3218323"><ele>164.0</ele><time>2026-04-25T08:30:33.685Z</time></trkpt><trkpt lat="41.5684802" lon="13.321961"><ele>164.5</ele><time>2026-04-25T08:30:34.685Z</time></trkpt><trkpt lat="41.5685441" lon="13.3220967"><ele>165.0</ele><time>2026-04-25T08:30:35.685Z</time></trkpt><trkpt lat="41.5686037" lon="13.3222303"><ele>164.6</ele><time>2026-04-25T08:30:36.686Z</time></trkpt><trkpt lat="41.5686618" lon="13.3223638"><ele>164.2</ele><time>2026-04-25T08:30:37.685Z</time></trkpt><trkpt lat="41.5687173" lon="13.3224931"><ele>163.8</ele><time>2026-04-25T08:30:38.685Z</time></trkpt><trkpt lat="41.5687669" lon="13.3226168"><ele>163.4</ele><time>2026-04-25T08:30:39.686Z</time></trkpt><trkpt lat="41.5688008" lon="13.3227339"><ele>163.0</ele><time>2026-04-25T08:30:40.685Z</time></trkpt><trkpt lat="41.5688272" lon="13.3228405"><ele>165.2</ele><time>2026-04-25T08:30:41.685Z</time></trkpt><trkpt lat="41.5688395" lon="13.3229548"><ele>167.4</ele><time>2026-04-25T08:30:42.685Z</time></trkpt><trkpt lat="41.5688527" lon="13.3230772"><ele>169.6</ele><time>2026-04-25T08:30:43.685Z</time></trkpt><trkpt lat="41.5688598" lon="13.3232101"><ele>171.79999999999998</ele><time>2026-04-25T08:30:44.685Z</time></trkpt><trkpt lat="41.5688691" lon="13.3233304"><ele>174.0</ele><time>2026-04-25T08:30:45.685Z</time></trkpt><trkpt lat="41.5688736" lon="13.3234481"><ele>174.0</ele><time>2026-04-25T08:30:46.685Z</time></trkpt><trkpt lat="41.5688796" lon="13.3235662"><ele>174.0</ele><time>2026-04-25T08:30:47.685Z</time></trkpt><trkpt lat="41.5688857" lon="13.323677"><ele>174.0</ele><time>2026-04-25T08:30:48.685Z</time></trkpt><trkpt lat="41.5688916" lon="13.3237913"><ele>174.0</ele><time>2026-04-25T08:30:49.685Z</time></trkpt><trkpt lat="41.5688933" lon="13.3238976"><ele>174.0</ele><time>2026-04-25T08:30:50.685Z</time></trkpt><trkpt lat="41.568895" lon="13.3239919"><ele>174.0</ele><time>2026-04-25T08:30:51.685Z</time></trkpt><trkpt lat="41.5688976" lon="13.3240814"><ele>174.33333333333334</ele><time>2026-04-25T08:30:52.685Z</time></trkpt><trkpt lat="41.5688997" lon="13.3241672"><ele>174.66666666666666</ele><time>2026-04-25T08:30:53.685Z</time></trkpt><trkpt lat="41.5688995" lon="13.3243287"><ele>175.0</ele><time>2026-04-25T08:30:55.685Z</time></trkpt><trkpt lat="41.5688967" lon="13.3244945"><ele>175.33333333333331</ele><time>2026-04-25T08:30:57.685Z</time></trkpt><trkpt lat="41.5688942" lon="13.324579"><ele>175.66666666666666</ele><time>2026-04-25T08:30:58.685Z</time></trkpt><trkpt lat="41.5688881" lon="13.3246689"><ele>176.0</ele><time>2026-04-25T08:30:59.685Z</time></trkpt><trkpt lat="41.5688796" lon="13.3247639"><ele>176.4</ele><time>2026-04-25T08:31:00.685Z</time></trkpt><trkpt lat="41.5688639" lon="13.3248519"><ele>176.8</ele><time>2026-04-25T08:31:01.685Z</time></trkpt><trkpt lat="41.5688468" lon="13.3250101"><ele>177.20000000000002</ele><time>2026-04-25T08:31:03.685Z</time></trkpt><trkpt lat="41.5688069" lon="13.3251255"><ele>177.60000000000002</ele><time>2026-04-25T08:31:05.685Z</time></trkpt><trkpt lat="41.5687319" lon="13.3252411"><ele>178.0</ele><time>2026-04-25T08:31:07.685Z</time></trkpt><trkpt lat="41.5687031" lon="13.3253191"><ele>178.33333333333334</ele><time>2026-04-25T08:31:08.685Z</time></trkpt><trkpt lat="41.5686793" lon="13.3254"><ele>178.66666666666669</ele><time>2026-04-25T08:31:09.685Z</time></trkpt><trkpt lat="41.568651" lon="13.3254887"><ele>179.0</ele><time>2026-04-25T08:31:10.685Z</time></trkpt><trkpt lat="41.5685863" lon="13.3256175"><ele>179.33333333333334</ele><time>2026-04-25T08:31:12.685Z</time></trkpt><trkpt lat="41.5685468" lon="13.3256832"><ele>179.66666666666666</ele><time>2026-04-25T08:31:13.686Z</time></trkpt><trkpt lat="41.5685148" lon="13.3257595"><ele>180.0</ele><time>2026-04-25T08:31:14.685Z</time></trkpt><trkpt lat="41.5684722" lon="13.3258381"><ele>180.0</ele><time>2026-04-25T08:31:15.685Z</time></trkpt><trkpt lat="41.5684285" lon="13.3259227"><ele>180.0</ele><time>2026-04-25T08:31:16.685Z</time></trkpt><trkpt lat="41.5683838" lon="13.3260147"><ele>180.0</ele><time>2026-04-25T08:31:17.685Z</time></trkpt><trkpt lat="41.5683378" lon="13.3261071"><ele>180.0</ele><time>2026-04-25T08:31:18.685Z</time></trkpt><trkpt lat="41.5682909" lon="13.3262236"><ele>180.0</ele><time>2026-04-25T08:31:19.685Z</time></trkpt><trkpt lat="41.5682442" lon="13.3263458"><ele>180.0</ele><time>2026-04-25T08:31:20.685Z</time></trkpt><trkpt lat="41.5682048" lon="13.3264963"><ele>180.5</ele><time>2026-04-25T08:31:21.685Z</time></trkpt><trkpt lat="41.5681762" lon="13.3266518"><ele>181.0</ele><time>2026-04-25T08:31:22.685Z</time></trkpt><trkpt lat="41.568134" lon="13.326849"><ele>181.5</ele><time>2026-04-25T08:31:23.685Z</time></trkpt><trkpt lat="41.568096" lon="13.3270339"><ele>182.0</ele><time>2026-04-25T08:31:24.685Z</time></trkpt><trkpt lat="41.5680598" lon="13.3272176"><ele>182.5</ele><time>2026-04-25T08:31:25.685Z</time></trkpt><trkpt lat="41.5680322" lon="13.327398"><ele>183.0</ele><time>2026-04-25T08:31:26.685Z</time></trkpt><trkpt lat="41.5680116" lon="13.3275728"><ele>183.5</ele><time>2026-04-25T08:31:27.685Z</time></trkpt><trkpt lat="41.5679976" lon="13.3277352"><ele>184.0</ele><time>2026-04-25T08:31:28.685Z</time></trkpt><trkpt lat="41.5679839" lon="13.3278861"><ele>184.0</ele><time>2026-04-25T08:31:29.685Z</time></trkpt><trkpt lat="41.5679694" lon="13.3280282"><ele>184.0</ele><time>2026-04-25T08:31:30.685Z</time></trkpt><trkpt lat="41.5679468" lon="13.3281592"><ele>184.0</ele><time>2026-04-25T08:31:31.685Z</time></trkpt><trkpt lat="41.5679354" lon="13.3282892"><ele>184.0</ele><time>2026-04-25T08:31:32.685Z</time></trkpt><trkpt lat="41.567916" lon="13.3284341"><ele>184.0</ele><time>2026-04-25T08:31:33.685Z</time></trkpt><trkpt lat="41.5678772" lon="13.3285926"><ele>184.0</ele><time>2026-04-25T08:31:34.685Z</time></trkpt><trkpt lat="41.5678411" lon="13.3287605"><ele>184.0</ele><time>2026-04-25T08:31:35.685Z</time></trkpt><trkpt lat="41.5678052" lon="13.3289319"><ele>184.0</ele><time>2026-04-25T08:31:36.685Z</time></trkpt><trkpt lat="41.5677791" lon="13.329093"><ele>184.0</ele><time>2026-04-25T08:31:37.685Z</time></trkpt><trkpt lat="41.5677484" lon="13.3292402"><ele>184.5</ele><time>2026-04-25T08:31:38.685Z</time></trkpt><trkpt lat="41.5677212" lon="13.3293725"><ele>185.0</ele><time>2026-04-25T08:31:39.685Z</time></trkpt><trkpt lat="41.567691" lon="13.3294946"><ele>185.5</ele><time>2026-04-25T08:31:40.685Z</time></trkpt><trkpt lat="41.5676653" lon="13.3296147"><ele>186.0</ele><time>2026-04-25T08:31:41.685Z</time></trkpt><trkpt lat="41.5676491" lon="13.3297191"><ele>186.5</ele><time>2026-04-25T08:31:42.685Z</time></trkpt><trkpt lat="41.5676387" lon="13.3298136"><ele>187.0</ele><time>2026-04-25T08:31:43.686Z</time></trkpt><trkpt lat="41.5676457" lon="13.3299127"><ele>187.33333333333334</ele><time>2026-04-25T08:31:44.685Z</time></trkpt><trkpt lat="41.5676486" lon="13.330002"><ele>187.66666666666669</ele><time>2026-04-25T08:31:45.685Z</time></trkpt><trkpt lat="41.5676521" lon="13.3300896"><ele>188.0</ele><time>2026-04-25T08:31:46.685Z</time></trkpt><trkpt lat="41.5676584" lon="13.3301755"><ele>188.33333333333334</ele><time>2026-04-25T08:31:47.685Z</time></trkpt><trkpt lat="41.5676698" lon="13.3303444"><ele>188.66666666666666</ele><time>2026-04-25T08:31:49.685Z</time></trkpt><trkpt lat="41.5676803" lon="13.3304762"><ele>189.0</ele><time>2026-04-25T08:31:51.685Z</time></trkpt><trkpt lat="41.567685" lon="13.3305801"><ele>189.0</ele><time>2026-04-25T08:31:53.684Z</time></trkpt><trkpt lat="41.5676727" lon="13.3306684"><ele>189.0</ele><time>2026-04-25T08:31:56.684Z</time></trkpt><trkpt lat="41.5676651" lon="13.3307619"><ele>189.0</ele><time>2026-04-25T08:31:59.684Z</time></trkpt><trkpt lat="41.5677298" lon="13.3308222"><ele>189.0</ele><time>2026-04-25T08:32:03.684Z</time></trkpt><trkpt lat="41.5677843" lon="13.3308828"><ele>189.0</ele><time>2026-04-25T08:32:05.684Z</time></trkpt><trkpt lat="41.5678592" lon="13.3309616"><ele>189.0</ele><time>2026-04-25T08:32:07.684Z</time></trkpt><trkpt lat="41.5679652" lon="13.3310471"><ele>189.6</ele><time>2026-04-25T08:32:09.684Z</time></trkpt><trkpt lat="41.5680303" lon="13.3311021"><ele>190.2</ele><time>2026-04-25T08:32:10.684Z</time></trkpt><trkpt lat="41.5680849" lon="13.3311619"><ele>190.79999999999998</ele><time>2026-04-25T08:32:11.685Z</time></trkpt><trkpt lat="41.5681917" lon="13.3312531"><ele>191.39999999999998</ele><time>2026-04-25T08:32:13.684Z</time></trkpt><trkpt lat="41.5682665" lon="13.3313187"><ele>192.0</ele><time>2026-04-25T08:32:15.684Z</time></trkpt><trkpt lat="41.568339" lon="13.3314116"><ele>192.0</ele><time>2026-04-25T08:32:17.684Z</time></trkpt><trkpt lat="41.5684126" lon="13.3314911"><ele>192.0</ele><time>2026-04-25T08:32:19.684Z</time></trkpt><trkpt lat="41.5684602" lon="13.3316016"><ele>192.0</ele><time>2026-04-25T08:32:21.684Z</time></trkpt><trkpt lat="41.5685057" lon="13.3317235"><ele>192.0</ele><time>2026-04-25T08:32:23.684Z</time></trkpt><trkpt lat="41.5685641" lon="13.3318485"><ele>192.0</ele><time>2026-04-25T08:32:25.684Z</time></trkpt><trkpt lat="41.5686465" lon="13.3319523"><ele>195.2</ele><time>2026-04-25T08:32:27.684Z</time></trkpt><trkpt lat="41.5687204" lon="13.3320381"><ele>198.39999999999998</ele><time>2026-04-25T08:32:29.684Z</time></trkpt><trkpt lat="41.5687908" lon="13.3320942"><ele>201.60000000000002</ele><time>2026-04-25T08:32:31.684Z</time></trkpt><trkpt lat="41.5688766" lon="13.3320844"><ele>204.8</ele><time>2026-04-25T08:32:35.684Z</time></trkpt><trkpt lat="41.5689556" lon="13.3320653"><ele>208.0</ele><time>2026-04-25T08:32:37.684Z</time></trkpt><trkpt lat="41.5690645" lon="13.332067"><ele>208.0</ele><time>2026-04-25T08:32:39.685Z</time></trkpt><trkpt lat="41.5691769" lon="13.3320887"><ele>208.0</ele><time>2026-04-25T08:32:41.684Z</time></trkpt><trkpt lat="41.5692957" lon="13.3321025"><ele>208.0</ele><time>2026-04-25T08:32:43.684Z</time></trkpt><trkpt lat="41.5693944" lon="13.3321371"><ele>208.0</ele><time>2026-04-25T08:32:45.684Z</time></trkpt><trkpt lat="41.5694764" lon="13.3321712"><ele>208.0</ele><time>2026-04-25T08:32:47.684Z</time></trkpt><trkpt lat="41.5695513" lon="13.3322207"><ele>207.66666666666666</ele><time>2026-04-25T08:32:50.684Z</time></trkpt><trkpt lat="41.5696177" lon="13.3322355"><ele>207.33333333333331</ele><time>2026-04-25T08:32:55.684Z</time></trkpt><trkpt lat="41.5696242" lon="13.3321326"><ele>207.0</ele><time>2026-04-25T08:32:58.684Z</time></trkpt><trkpt lat="41.5696256" lon="13.3320358"><ele>206.66666666666669</ele><time>2026-04-25T08:33:00.684Z</time></trkpt><trkpt lat="41.5696536" lon="13.3318969"><ele>206.33333333333334</ele><time>2026-04-25T08:33:02.684Z</time></trkpt><trkpt lat="41.5696824" lon="13.331742"><ele>206.0</ele><time>2026-04-25T08:33:04.684Z</time></trkpt><trkpt lat="41.5697158" lon="13.3315793"><ele>207.20000000000002</ele><time>2026-04-25T08:33:06.684Z</time></trkpt><trkpt lat="41.569735" lon="13.331497"><ele>208.4</ele><time>2026-04-25T08:33:07.684Z</time></trkpt><trkpt lat="41.5697709" lon="13.3313459"><ele>209.6</ele><time>2026-04-25T08:33:09.684Z</time></trkpt><trkpt lat="41.5698035" lon="13.3311933"><ele>210.8</ele><time>2026-04-25T08:33:11.684Z</time></trkpt><trkpt lat="41.5698395" lon="13.3310547"><ele>212.0</ele><time>2026-04-25T08:33:13.684Z</time></trkpt><trkpt lat="41.5698642" lon="13.3309546"><ele>212.0</ele><time>2026-04-25T08:33:15.684Z</time></trkpt><trkpt lat="41.5698914" lon="13.3308669"><ele>212.0</ele><time>2026-04-25T08:33:17.684Z</time></trkpt><trkpt lat="41.5699414" lon="13.3307687"><ele>212.0</ele><time>2026-04-25T08:33:19.684Z</time></trkpt><trkpt lat="41.5699886" lon="13.3306649"><ele>212.0</ele><time>2026-04-25T08:33:21.684Z</time></trkpt><trkpt lat="41.5700602" lon="13.3305444"><ele>212.0</ele><time>2026-04-25T08:33:23.684Z</time></trkpt><trkpt lat="41.5701356" lon="13.3304274"><ele>211.66666666666669</ele><time>2026-04-25T08:33:25.684Z</time></trkpt><trkpt lat="41.5702043" lon="13.3303445"><ele>211.33333333333334</ele><time>2026-04-25T08:33:27.684Z</time></trkpt><trkpt lat="41.5702368" lon="13.3302608"><ele>211.0</ele><time>2026-04-25T08:33:29.684Z</time></trkpt><trkpt lat="41.5701893" lon="13.3301511"><ele>210.66666666666669</ele><time>2026-04-25T08:33:31.684Z</time></trkpt><trkpt lat="41.5701464" lon="13.3300828"><ele>210.33333333333334</ele><time>2026-04-25T08:33:32.684Z</time></trkpt><trkpt lat="41.5700967" lon="13.3300041"><ele>210.0</ele><time>2026-04-25T08:33:33.684Z</time></trkpt><trkpt lat="41.5700334" lon="13.3299233"><ele>210.0</ele><time>2026-04-25T08:33:34.684Z</time></trkpt><trkpt lat="41.5699644" lon="13.3298482"><ele>210.0</ele><time>2026-04-25T08:33:35.684Z</time></trkpt><trkpt lat="41.5698874" lon="13.3297694"><ele>210.0</ele><time>2026-04-25T08:33:36.684Z</time></trkpt><trkpt lat="41.5698034" lon="13.3296868"><ele>210.0</ele><time>2026-04-25T08:33:37.685Z</time></trkpt><trkpt lat="41.569712" lon="13.3296003"><ele>210.0</ele><time>2026-04-25T08:33:38.684Z</time></trkpt><trkpt lat="41.5696152" lon="13.3295236"><ele>208.0</ele><time>2026-04-25T08:33:39.684Z</time></trkpt><trkpt lat="41.5695125" lon="13.3294614"><ele>206.0</ele><time>2026-04-25T08:33:40.684Z</time></trkpt><trkpt lat="41.5694136" lon="13.32942"><ele>204.0</ele><time>2026-04-25T08:33:41.684Z</time></trkpt><trkpt lat="41.5693173" lon="13.329406"><ele>202.0</ele><time>2026-04-25T08:33:42.684Z</time></trkpt><trkpt lat="41.5692361" lon="13.3293949"><ele>200.0</ele><time>2026-04-25T08:33:43.684Z</time></trkpt><trkpt lat="41.5691555" lon="13.3293843"><ele>200.0</ele><time>2026-04-25T08:33:44.684Z</time></trkpt><trkpt lat="41.5690662" lon="13.329384"><ele>200.0</ele><time>2026-04-25T08:33:45.684Z</time></trkpt><trkpt lat="41.5689701" lon="13.3293744"><ele>200.0</ele><time>2026-04-25T08:33:46.684Z</time></trkpt><trkpt lat="41.5688795" lon="13.3293688"><ele>200.0</ele><time>2026-04-25T08:33:47.684Z</time></trkpt><trkpt lat="41.5687907" lon="13.3293586"><ele>200.0</ele><time>2026-04-25T08:33:48.684Z</time></trkpt><trkpt lat="41.5687041" lon="13.3293474"><ele>198.4</ele><time>2026-04-25T08:33:49.684Z</time></trkpt><trkpt lat="41.5686092" lon="13.3293328"><ele>196.8</ele><time>2026-04-25T08:33:50.684Z</time></trkpt><trkpt lat="41.5685148" lon="13.329323"><ele>195.2</ele><time>2026-04-25T08:33:51.684Z</time></trkpt><trkpt lat="41.568419" lon="13.3293094"><ele>193.6</ele><time>2026-04-25T08:33:52.684Z</time></trkpt><trkpt lat="41.5683224" lon="13.3292913"><ele>192.0</ele><time>2026-04-25T08:33:53.684Z</time></trkpt><trkpt lat="41.5682279" lon="13.3292643"><ele>192.0</ele><time>2026-04-25T08:33:54.684Z</time></trkpt><trkpt lat="41.5681368" lon="13.3292312"><ele>192.0</ele><time>2026-04-25T08:33:55.684Z</time></trkpt><trkpt lat="41.5680487" lon="13.329185"><ele>192.0</ele><time>2026-04-25T08:33:56.685Z</time></trkpt><trkpt lat="41.5679659" lon="13.3291268"><ele>192.0</ele><time>2026-04-25T08:33:57.684Z</time></trkpt><trkpt lat="41.5678963" lon="13.3290712"><ele>192.0</ele><time>2026-04-25T08:33:58.684Z</time></trkpt><trkpt lat="41.5678392" lon="13.3290352"><ele>192.0</ele><time>2026-04-25T08:33:59.684Z</time></trkpt><trkpt lat="41.5677514" lon="13.3289894"><ele>191.16666666666666</ele><time>2026-04-25T08:34:01.684Z</time></trkpt><trkpt lat="41.5676749" lon="13.3289579"><ele>190.33333333333334</ele><time>2026-04-25T08:34:04.684Z</time></trkpt><trkpt lat="41.5676068" lon="13.3289508"><ele>189.5</ele><time>2026-04-25T08:34:10.684Z</time></trkpt><trkpt lat="41.5675783" lon="13.3290423"><ele>188.66666666666669</ele><time>2026-04-25T08:34:12.684Z</time></trkpt><trkpt lat="41.5675648" lon="13.3291528"><ele>187.83333333333334</ele><time>2026-04-25T08:34:14.684Z</time></trkpt><trkpt lat="41.5675555" lon="13.3292461"><ele>187.0</ele><time>2026-04-25T08:34:16.684Z</time></trkpt><trkpt lat="41.567541" lon="13.3293917"><ele>187.0</ele><time>2026-04-25T08:34:18.684Z</time></trkpt><trkpt lat="41.567547" lon="13.3295553"><ele>187.0</ele><time>2026-04-25T08:34:20.684Z</time></trkpt><trkpt lat="41.5675522" lon="13.3296458"><ele>187.0</ele><time>2026-04-25T08:34:21.684Z</time></trkpt><trkpt lat="41.5675586" lon="13.3297538"><ele>187.0</ele><time>2026-04-25T08:34:22.684Z</time></trkpt><trkpt lat="41.5675617" lon="13.3298716"><ele>187.0</ele><time>2026-04-25T08:34:23.684Z</time></trkpt><trkpt lat="41.567563" lon="13.329985"><ele>187.0</ele><time>2026-04-25T08:34:24.684Z</time></trkpt><trkpt lat="41.567562" lon="13.3300744"><ele>187.5</ele><time>2026-04-25T08:34:25.684Z</time></trkpt><trkpt lat="41.5675462" lon="13.330156"><ele>188.0</ele><time>2026-04-25T08:34:26.684Z</time></trkpt><trkpt lat="41.5674691" lon="13.3303014"><ele>188.5</ele><time>2026-04-25T08:34:28.684Z</time></trkpt><trkpt lat="41.5674098" lon="13.3303719"><ele>189.0</ele><time>2026-04-25T08:34:29.684Z</time></trkpt><trkpt lat="41.5673478" lon="13.3304387"><ele>189.5</ele><time>2026-04-25T08:34:30.684Z</time></trkpt><trkpt lat="41.5672835" lon="13.3304954"><ele>190.0</ele><time>2026-04-25T08:34:31.684Z</time></trkpt><trkpt lat="41.5672254" lon="13.3305517"><ele>189.8</ele><time>2026-04-25T08:34:32.684Z</time></trkpt><trkpt lat="41.5671421" lon="13.3306563"><ele>189.6</ele><time>2026-04-25T08:34:34.684Z</time></trkpt><trkpt lat="41.5671013" lon="13.3307885"><ele>189.39999999999998</ele><time>2026-04-25T08:34:36.685Z</time></trkpt><trkpt lat="41.5671362" lon="13.3309298"><ele>189.2</ele><time>2026-04-25T08:34:38.684Z</time></trkpt><trkpt lat="41.5671759" lon="13.3310013"><ele>189.0</ele><time>2026-04-25T08:34:39.685Z</time></trkpt><trkpt lat="41.5672124" lon="13.3310873"><ele>189.0</ele><time>2026-04-25T08:34:40.684Z</time></trkpt><trkpt lat="41.5672518" lon="13.3311737"><ele>189.0</ele><time>2026-04-25T08:34:41.684Z</time></trkpt><trkpt lat="41.5672987" lon="13.3312692"><ele>189.0</ele><time>2026-04-25T08:34:42.684Z</time></trkpt><trkpt lat="41.5673452" lon="13.3313684"><ele>189.0</ele><time>2026-04-25T08:34:43.684Z</time></trkpt><trkpt lat="41.5673972" lon="13.3314699"><ele>189.0</ele><time>2026-04-25T08:34:44.684Z</time></trkpt><trkpt lat="41.5674532" lon="13.3315755"><ele>189.0</ele><time>2026-04-25T08:34:45.684Z</time></trkpt><trkpt lat="41.5675104" lon="13.3316779"><ele>188.14285714285714</ele><time>2026-04-25T08:34:46.685Z</time></trkpt><trkpt lat="41.5675555" lon="13.3317643"><ele>187.28571428571428</ele><time>2026-04-25T08:34:47.684Z</time></trkpt><trkpt lat="41.5675798" lon="13.3318437"><ele>186.42857142857144</ele><time>2026-04-25T08:34:48.684Z</time></trkpt><trkpt lat="41.5675855" lon="13.3319316"><ele>185.57142857142856</ele><time>2026-04-25T08:34:49.685Z</time></trkpt><trkpt lat="41.5675645" lon="13.332022"><ele>184.71428571428572</ele><time>2026-04-25T08:34:50.684Z</time></trkpt><trkpt lat="41.5675244" lon="13.3321039"><ele>183.85714285714286</ele><time>2026-04-25T08:34:51.684Z</time></trkpt><trkpt lat="41.5674705" lon="13.3321761"><ele>183.0</ele><time>2026-04-25T08:34:52.684Z</time></trkpt><trkpt lat="41.5674045" lon="13.3322455"><ele>182.0</ele><time>2026-04-25T08:34:53.684Z</time></trkpt><trkpt lat="41.567334" lon="13.3323195"><ele>181.0</ele><time>2026-04-25T08:34:54.684Z</time></trkpt><trkpt lat="41.5672627" lon="13.3323963"><ele>180.0</ele><time>2026-04-25T08:34:55.684Z</time></trkpt><trkpt lat="41.5671928" lon="13.3324781"><ele>179.0</ele><time>2026-04-25T08:34:56.685Z</time></trkpt><trkpt lat="41.5671289" lon="13.3325691"><ele>178.0</ele><time>2026-04-25T08:34:57.684Z</time></trkpt><trkpt lat="41.5670758" lon="13.3326744"><ele>178.0</ele><time>2026-04-25T08:34:58.684Z</time></trkpt><trkpt lat="41.5670399" lon="13.3327769"><ele>178.0</ele><time>2026-04-25T08:34:59.684Z</time></trkpt><trkpt lat="41.5670245" lon="13.3328777"><ele>178.0</ele><time>2026-04-25T08:35:00.684Z</time></trkpt><trkpt lat="41.5670375" lon="13.3329679"><ele>178.0</ele><time>2026-04-25T08:35:01.684Z</time></trkpt><trkpt lat="41.5670683" lon="13.3330491"><ele>178.0</ele><time>2026-04-25T08:35:02.684Z</time></trkpt><trkpt lat="41.5671286" lon="13.3331448"><ele>178.0</ele><time>2026-04-25T08:35:03.684Z</time></trkpt><trkpt lat="41.5672335" lon="13.3332989"><ele>176.4</ele><time>2026-04-25T08:35:05.684Z</time></trkpt><trkpt lat="41.567281" lon="13.3333774"><ele>174.8</ele><time>2026-04-25T08:35:06.684Z</time></trkpt><trkpt lat="41.5673164" lon="13.3334556"><ele>173.2</ele><time>2026-04-25T08:35:07.684Z</time></trkpt><trkpt lat="41.5673397" lon="13.333637"><ele>171.6</ele><time>2026-04-25T08:35:09.684Z</time></trkpt><trkpt lat="41.5673129" lon="13.3337487"><ele>170.0</ele><time>2026-04-25T08:35:10.684Z</time></trkpt><trkpt lat="41.5672584" lon="13.3338802"><ele>169.75</ele><time>2026-04-25T08:35:11.684Z</time></trkpt><trkpt lat="41.5671969" lon="13.3339846"><ele>169.5</ele><time>2026-04-25T08:35:12.684Z</time></trkpt><trkpt lat="41.5671303" lon="13.3341461"><ele>169.25</ele><time>2026-04-25T08:35:13.684Z</time></trkpt><trkpt lat="41.5670675" lon="13.334297"><ele>169.0</ele><time>2026-04-25T08:35:14.685Z</time></trkpt><trkpt lat="41.5669942" lon="13.3344308"><ele>170.75</ele><time>2026-04-25T08:35:15.684Z</time></trkpt><trkpt lat="41.566897" lon="13.3345854"><ele>172.5</ele><time>2026-04-25T08:35:16.684Z</time></trkpt><trkpt lat="41.5668153" lon="13.3347235"><ele>174.25</ele><time>2026-04-25T08:35:17.684Z</time></trkpt><trkpt lat="41.5667306" lon="13.3348732"><ele>176.0</ele><time>2026-04-25T08:35:18.684Z</time></trkpt><trkpt lat="41.5666573" lon="13.3350789"><ele>170.33333333333331</ele><time>2026-04-25T08:35:19.684Z</time></trkpt><trkpt lat="41.5665852" lon="13.3352488"><ele>164.66666666666666</ele><time>2026-04-25T08:35:20.684Z</time></trkpt><trkpt lat="41.5664996" lon="13.3354359"><ele>159.0</ele><time>2026-04-25T08:35:21.684Z</time></trkpt><trkpt lat="41.5664034" lon="13.3355968"><ele>156.0</ele><time>2026-04-25T08:35:22.684Z</time></trkpt><trkpt lat="41.5662617" lon="13.3357581"><ele>153.0</ele><time>2026-04-25T08:35:23.684Z</time></trkpt><trkpt lat="41.5661242" lon="13.3358655"><ele>150.0</ele><time>2026-04-25T08:35:24.684Z</time></trkpt><trkpt lat="41.5659984" lon="13.3359093"><ele>150.0</ele><time>2026-04-25T08:35:25.684Z</time></trkpt><trkpt lat="41.5658583" lon="13.3359726"><ele>150.0</ele><time>2026-04-25T08:35:26.684Z</time></trkpt><trkpt lat="41.5657041" lon="13.336069"><ele>150.0</ele><time>2026-04-25T08:35:27.684Z</time></trkpt><trkpt lat="41.565597" lon="13.3361383"><ele>150.0</ele><time>2026-04-25T08:35:28.684Z</time></trkpt><trkpt lat="41.5655135" lon="13.3362164"><ele>150.0</ele><time>2026-04-25T08:35:29.684Z</time></trkpt><trkpt lat="41.5654691" lon="13.3363128"><ele>150.0</ele><time>2026-04-25T08:35:30.684Z</time></trkpt><trkpt lat="41.5654313" lon="13.3364273"><ele>150.0</ele><time>2026-04-25T08:35:31.684Z</time></trkpt><trkpt lat="41.5653911" lon="13.3365513"><ele>150.0</ele><time>2026-04-25T08:35:32.684Z</time></trkpt><trkpt lat="41.5653901" lon="13.3366728"><ele>150.0</ele><time>2026-04-25T08:35:33.684Z</time></trkpt><trkpt lat="41.5654166" lon="13.3367724"><ele>150.0</ele><time>2026-04-25T08:35:34.684Z</time></trkpt><trkpt lat="41.5654692" lon="13.3368574"><ele>148.16666666666666</ele><time>2026-04-25T08:35:35.684Z</time></trkpt><trkpt lat="41.5655202" lon="13.336942"><ele>146.33333333333334</ele><time>2026-04-25T08:35:36.684Z</time></trkpt><trkpt lat="41.5655761" lon="13.3370034"><ele>144.5</ele><time>2026-04-25T08:35:37.684Z</time></trkpt><trkpt lat="41.5656231" lon="13.3370617"><ele>142.66666666666669</ele><time>2026-04-25T08:35:38.684Z</time></trkpt><trkpt lat="41.5656657" lon="13.3371749"><ele>140.83333333333334</ele><time>2026-04-25T08:35:40.684Z</time></trkpt><trkpt lat="41.5656425" lon="13.3372583"><ele>139.0</ele><time>2026-04-25T08:36:47.684Z</time></trkpt><trkpt lat="41.5657204" lon="13.3373564"><ele>138.4</ele><time>2026-04-25T08:36:50.684Z</time></trkpt><trkpt lat="41.5658474" lon="13.3373766"><ele>137.8</ele><time>2026-04-25T08:36:52.684Z</time></trkpt><trkpt lat="41.5659298" lon="13.3373572"><ele>137.2</ele><time>2026-04-25T08:36:53.684Z</time></trkpt><trkpt lat="41.5660166" lon="13.337316"><ele>136.6</ele><time>2026-04-25T08:36:54.684Z</time></trkpt><trkpt lat="41.5661091" lon="13.3372608"><ele>136.0</ele><time>2026-04-25T08:36:55.684Z</time></trkpt><trkpt lat="41.5661993" lon="13.3371944"><ele>136.0</ele><time>2026-04-25T08:36:56.684Z</time></trkpt><trkpt lat="41.5662837" lon="13.3371109"><ele>136.0</ele><time>2026-04-25T08:36:57.684Z</time></trkpt><trkpt lat="41.5663621" lon="13.3370203"><ele>136.0</ele><time>2026-04-25T08:36:58.684Z</time></trkpt><trkpt lat="41.5664299" lon="13.3369321"><ele>136.0</ele><time>2026-04-25T08:36:59.684Z</time></trkpt><trkpt lat="41.5665028" lon="13.3368396"><ele>136.0</ele><time>2026-04-25T08:37:00.684Z</time></trkpt><trkpt lat="41.5665689" lon="13.3367465"><ele>136.0</ele><time>2026-04-25T08:37:01.684Z</time></trkpt><trkpt lat="41.5666412" lon="13.3366618"><ele>136.0</ele><time>2026-04-25T08:37:02.684Z</time></trkpt><trkpt lat="41.566716" lon="13.3365929"><ele>136.0</ele><time>2026-04-25T08:37:03.684Z</time></trkpt><trkpt lat="41.5668032" lon="13.3365477"><ele>136.0</ele><time>2026-04-25T08:37:04.684Z</time></trkpt><trkpt lat="41.5668986" lon="13.3365209"><ele>136.0</ele><time>2026-04-25T08:37:05.685Z</time></trkpt><trkpt lat="41.5669989" lon="13.3365085"><ele>136.25</ele><time>2026-04-25T08:37:06.684Z</time></trkpt><trkpt lat="41.5671136" lon="13.3365123"><ele>136.5</ele><time>2026-04-25T08:37:07.684Z</time></trkpt><trkpt lat="41.56722" lon="13.3365289"><ele>136.75</ele><time>2026-04-25T08:37:08.684Z</time></trkpt><trkpt lat="41.567336" lon="13.3365394"><ele>137.0</ele><time>2026-04-25T08:37:09.684Z</time></trkpt><trkpt lat="41.5674506" lon="13.3365611"><ele>137.0</ele><time>2026-04-25T08:37:10.684Z</time></trkpt><trkpt lat="41.5675625" lon="13.3365717"><ele>137.0</ele><time>2026-04-25T08:37:11.684Z</time></trkpt><trkpt lat="41.567674" lon="13.3365847"><ele>137.0</ele><time>2026-04-25T08:37:12.684Z</time></trkpt><trkpt lat="41.5677891" lon="13.3365989"><ele>137.0</ele><time>2026-04-25T08:37:13.685Z</time></trkpt><trkpt lat="41.5679065" lon="13.3366128"><ele>137.2</ele><time>2026-04-25T08:37:14.684Z</time></trkpt><trkpt lat="41.5680263" lon="13.3366239"><ele>137.39999999999998</ele><time>2026-04-25T08:37:15.684Z</time></trkpt><trkpt lat="41.5681411" lon="13.3366361"><ele>137.60000000000002</ele><time>2026-04-25T08:37:16.684Z</time></trkpt><trkpt lat="41.5682485" lon="13.3366538"><ele>137.8</ele><time>2026-04-25T08:37:17.684Z</time></trkpt><trkpt lat="41.5683503" lon="13.3366685"><ele>138.0</ele><time>2026-04-25T08:37:18.684Z</time></trkpt><trkpt lat="41.5684439" lon="13.3366854"><ele>138.0</ele><time>2026-04-25T08:37:19.684Z</time></trkpt><trkpt lat="41.5685305" lon="13.3366965"><ele>138.0</ele><time>2026-04-25T08:37:20.684Z</time></trkpt><trkpt lat="41.5686183" lon="13.3367033"><ele>138.0</ele><time>2026-04-25T08:37:21.685Z</time></trkpt><trkpt lat="41.5687124" lon="13.3367076"><ele>138.0</ele><time>2026-04-25T08:37:22.684Z</time></trkpt><trkpt lat="41.5688073" lon="13.3367002"><ele>138.0</ele><time>2026-04-25T08:37:23.684Z</time></trkpt><trkpt lat="41.5688908" lon="13.3366775"><ele>138.0</ele><time>2026-04-25T08:37:24.684Z</time></trkpt><trkpt lat="41.5689711" lon="13.3366451"><ele>137.66666666666666</ele><time>2026-04-25T08:37:25.684Z</time></trkpt><trkpt lat="41.5690462" lon="13.3366106"><ele>137.33333333333334</ele><time>2026-04-25T08:37:26.684Z</time></trkpt><trkpt lat="41.5691186" lon="13.3365759"><ele>137.0</ele><time>2026-04-25T08:37:27.684Z</time></trkpt><trkpt lat="41.5691942" lon="13.3365533"><ele>136.66666666666669</ele><time>2026-04-25T08:37:28.684Z</time></trkpt><trkpt lat="41.5692685" lon="13.3365376"><ele>136.33333333333334</ele><time>2026-04-25T08:37:29.684Z</time></trkpt><trkpt lat="41.5693397" lon="13.3365302"><ele>136.0</ele><time>2026-04-25T08:37:30.684Z</time></trkpt><trkpt lat="41.569418" lon="13.3365253"><ele>136.0</ele><time>2026-04-25T08:37:31.684Z</time></trkpt><trkpt lat="41.5694898" lon="13.3365195"><ele>136.0</ele><time>2026-04-25T08:37:32.684Z</time></trkpt><trkpt lat="41.5695596" lon="13.3365163"><ele>136.0</ele><time>2026-04-25T08:37:33.684Z</time></trkpt><trkpt lat="41.5696269" lon="13.3365224"><ele>136.0</ele><time>2026-04-25T08:37:34.684Z</time></trkpt><trkpt lat="41.5696921" lon="13.3365269"><ele>136.0</ele><time>2026-04-25T08:37:35.684Z</time></trkpt><trkpt lat="41.569811" lon="13.3365297"><ele>136.0</ele><time>2026-04-25T08:37:37.684Z</time></trkpt><trkpt lat="41.5699299" lon="13.3365588"><ele>135.33333333333334</ele><time>2026-04-25T08:37:39.684Z</time></trkpt><trkpt lat="41.569992" lon="13.336603"><ele>134.66666666666669</ele><time>2026-04-25T08:37:40.684Z</time></trkpt><trkpt lat="41.5700558" lon="13.3366693"><ele>134.0</ele><time>2026-04-25T08:37:41.684Z</time></trkpt><trkpt lat="41.5701086" lon="13.3367265"><ele>133.33333333333334</ele><time>2026-04-25T08:37:42.684Z</time></trkpt><trkpt lat="41.5701853" lon="13.3368377"><ele>132.66666666666666</ele><time>2026-04-25T08:37:44.684Z</time></trkpt><trkpt lat="41.5702276" lon="13.3369318"><ele>132.0</ele><time>2026-04-25T08:37:46.684Z</time></trkpt><trkpt lat="41.5702696" lon="13.3370051"><ele>132.0</ele><time>2026-04-25T08:37:48.684Z</time></trkpt><trkpt lat="41.5703369" lon="13.3371217"><ele>132.0</ele><time>2026-04-25T08:37:50.684Z</time></trkpt><trkpt lat="41.5703833" lon="13.3371922"><ele>132.0</ele><time>2026-04-25T08:37:51.684Z</time></trkpt><trkpt lat="41.5704434" lon="13.3372899"><ele>132.0</ele><time>2026-04-25T08:37:52.684Z</time></trkpt><trkpt lat="41.570504" lon="13.3374008"><ele>132.0</ele><time>2026-04-25T08:37:53.684Z</time></trkpt><trkpt lat="41.5705558" lon="13.3375067"><ele>131.2</ele><time>2026-04-25T08:37:54.684Z</time></trkpt><trkpt lat="41.5706113" lon="13.3376074"><ele>130.39999999999998</ele><time>2026-04-25T08:37:55.685Z</time></trkpt><trkpt lat="41.570667" lon="13.3377025"><ele>129.60000000000002</ele><time>2026-04-25T08:37:56.684Z</time></trkpt><trkpt lat="41.5707229" lon="13.3377986"><ele>128.8</ele><time>2026-04-25T08:37:57.684Z</time></trkpt><trkpt lat="41.5707774" lon="13.3378918"><ele>128.0</ele><time>2026-04-25T08:37:58.684Z</time></trkpt><trkpt lat="41.5708318" lon="13.3379882"><ele>128.5</ele><time>2026-04-25T08:37:59.684Z</time></trkpt><trkpt lat="41.570885" lon="13.3380833"><ele>129.0</ele><time>2026-04-25T08:38:00.684Z</time></trkpt><trkpt lat="41.5709379" lon="13.33817"><ele>129.5</ele><time>2026-04-25T08:38:01.684Z</time></trkpt><trkpt lat="41.5709908" lon="13.338251"><ele>130.0</ele><time>2026-04-25T08:38:02.684Z</time></trkpt><trkpt lat="41.5710408" lon="13.3383281"><ele>130.5</ele><time>2026-04-25T08:38:03.684Z</time></trkpt><trkpt lat="41.571085" lon="13.338411"><ele>131.0</ele><time>2026-04-25T08:38:04.684Z</time></trkpt><trkpt lat="41.5711396" lon="13.3384884"><ele>131.0</ele><time>2026-04-25T08:38:05.684Z</time></trkpt><trkpt lat="41.571178" lon="13.3385554"><ele>131.0</ele><time>2026-04-25T08:38:06.684Z</time></trkpt><trkpt lat="41.5712486" lon="13.3386763"><ele>131.0</ele><time>2026-04-25T08:38:08.684Z</time></trkpt><trkpt lat="41.5713229" lon="13.3388012"><ele>131.0</ele><time>2026-04-25T08:38:10.684Z</time></trkpt><trkpt lat="41.5713729" lon="13.3389162"><ele>131.0</ele><time>2026-04-25T08:38:12.684Z</time></trkpt><trkpt lat="41.571421" lon="13.3390696"><ele>132.6</ele><time>2026-04-25T08:38:14.684Z</time></trkpt><trkpt lat="41.5714433" lon="13.339171"><ele>134.2</ele><time>2026-04-25T08:38:15.684Z</time></trkpt><trkpt lat="41.5714701" lon="13.3392909"><ele>135.8</ele><time>2026-04-25T08:38:16.684Z</time></trkpt><trkpt lat="41.5715092" lon="13.3394008"><ele>137.4</ele><time>2026-04-25T08:38:17.684Z</time></trkpt><trkpt lat="41.5715469" lon="13.3395131"><ele>139.0</ele><time>2026-04-25T08:38:18.684Z</time></trkpt><trkpt lat="41.5715876" lon="13.33963"><ele>140.0</ele><time>2026-04-25T08:38:19.684Z</time></trkpt><trkpt lat="41.5716199" lon="13.3397587"><ele>141.0</ele><time>2026-04-25T08:38:20.684Z</time></trkpt><trkpt lat="41.5716572" lon="13.3398935"><ele>142.0</ele><time>2026-04-25T08:38:21.684Z</time></trkpt><trkpt lat="41.5716971" lon="13.3400271"><ele>143.0</ele><time>2026-04-25T08:38:22.684Z</time></trkpt><trkpt lat="41.5717376" lon="13.3401564"><ele>144.0</ele><time>2026-04-25T08:38:23.684Z</time></trkpt><trkpt lat="41.5717825" lon="13.3402877"><ele>144.0</ele><time>2026-04-25T08:38:24.684Z</time></trkpt><trkpt lat="41.5718379" lon="13.3404065"><ele>144.0</ele><time>2026-04-25T08:38:25.684Z</time></trkpt><trkpt lat="41.5719101" lon="13.3405285"><ele>144.0</ele><time>2026-04-25T08:38:26.684Z</time></trkpt><trkpt lat="41.5719871" lon="13.340633"><ele>144.0</ele><time>2026-04-25T08:38:27.684Z</time></trkpt><trkpt lat="41.5720645" lon="13.3407285"><ele>144.0</ele><time>2026-04-25T08:38:28.684Z</time></trkpt><trkpt lat="41.5721321" lon="13.3408271"><ele>143.2</ele><time>2026-04-25T08:38:29.684Z</time></trkpt><trkpt lat="41.5722058" lon="13.3409107"><ele>142.4</ele><time>2026-04-25T08:38:30.684Z</time></trkpt><trkpt lat="41.5722842" lon="13.3409833"><ele>141.6</ele><time>2026-04-25T08:38:31.685Z</time></trkpt><trkpt lat="41.5723636" lon="13.3410463"><ele>140.8</ele><time>2026-04-25T08:38:32.684Z</time></trkpt><trkpt lat="41.572439" lon="13.3410939"><ele>140.0</ele><time>2026-04-25T08:38:33.684Z</time></trkpt><trkpt lat="41.5725186" lon="13.341129"><ele>140.0</ele><time>2026-04-25T08:38:34.684Z</time></trkpt><trkpt lat="41.5726013" lon="13.3411533"><ele>140.0</ele><time>2026-04-25T08:38:35.684Z</time></trkpt><trkpt lat="41.5726947" lon="13.3411576"><ele>140.0</ele><time>2026-04-25T08:38:36.684Z</time></trkpt><trkpt lat="41.5727883" lon="13.3411461"><ele>140.0</ele><time>2026-04-25T08:38:37.684Z</time></trkpt><trkpt lat="41.5728837" lon="13.34112"><ele>140.0</ele><time>2026-04-25T08:38:38.684Z</time></trkpt><trkpt lat="41.5729804" lon="13.3410878"><ele>140.2</ele><time>2026-04-25T08:38:39.684Z</time></trkpt><trkpt lat="41.5730798" lon="13.3410615"><ele>140.4</ele><time>2026-04-25T08:38:40.684Z</time></trkpt><trkpt lat="41.573179" lon="13.3410404"><ele>140.6</ele><time>2026-04-25T08:38:41.684Z</time></trkpt><trkpt lat="41.5732743" lon="13.3410307"><ele>140.8</ele><time>2026-04-25T08:38:42.684Z</time></trkpt><trkpt lat="41.5733717" lon="13.3410444"><ele>141.0</ele><time>2026-04-25T08:38:43.684Z</time></trkpt><trkpt lat="41.57346" lon="13.3410701"><ele>141.0</ele><time>2026-04-25T08:38:44.684Z</time></trkpt><trkpt lat="41.5735457" lon="13.3411251"><ele>141.0</ele><time>2026-04-25T08:38:45.684Z</time></trkpt><trkpt lat="41.5736236" lon="13.3412024"><ele>141.0</ele><time>2026-04-25T08:38:46.684Z</time></trkpt><trkpt lat="41.5736921" lon="13.3412923"><ele>141.0</ele><time>2026-04-25T08:38:47.684Z</time></trkpt><trkpt lat="41.5737558" lon="13.3413888"><ele>141.0</ele><time>2026-04-25T08:38:48.684Z</time></trkpt><trkpt lat="41.5738183" lon="13.3414902"><ele>140.8</ele><time>2026-04-25T08:38:49.684Z</time></trkpt><trkpt lat="41.5738789" lon="13.3415995"><ele>140.6</ele><time>2026-04-25T08:38:50.684Z</time></trkpt><trkpt lat="41.5739421" lon="13.3417082"><ele>140.4</ele><time>2026-04-25T08:38:51.684Z</time></trkpt><trkpt lat="41.5740018" lon="13.3418184"><ele>140.2</ele><time>2026-04-25T08:38:52.685Z</time></trkpt><trkpt lat="41.5740579" lon="13.3419332"><ele>140.0</ele><time>2026-04-25T08:38:53.684Z</time></trkpt><trkpt lat="41.5741151" lon="13.3420361"><ele>140.0</ele><time>2026-04-25T08:38:54.684Z</time></trkpt><trkpt lat="41.5741692" lon="13.3421255"><ele>140.0</ele><time>2026-04-25T08:38:55.684Z</time></trkpt><trkpt lat="41.574222" lon="13.3422076"><ele>140.0</ele><time>2026-04-25T08:38:56.684Z</time></trkpt><trkpt lat="41.5742689" lon="13.3422929"><ele>140.0</ele><time>2026-04-25T08:38:57.684Z</time></trkpt><trkpt lat="41.574314" lon="13.3423787"><ele>140.0</ele><time>2026-04-25T08:38:58.684Z</time></trkpt><trkpt lat="41.574362" lon="13.3424686"><ele>140.0</ele><time>2026-04-25T08:38:59.684Z</time></trkpt><trkpt lat="41.5744143" lon="13.3425593"><ele>140.5</ele><time>2026-04-25T08:39:00.684Z</time></trkpt><trkpt lat="41.5744687" lon="13.3426509"><ele>141.0</ele><time>2026-04-25T08:39:01.684Z</time></trkpt><trkpt lat="41.574523" lon="13.3427482"><ele>141.5</ele><time>2026-04-25T08:39:02.684Z</time></trkpt><trkpt lat="41.574576" lon="13.3428406"><ele>142.0</ele><time>2026-04-25T08:39:03.684Z</time></trkpt><trkpt lat="41.5746296" lon="13.342929"><ele>142.5</ele><time>2026-04-25T08:39:04.684Z</time></trkpt><trkpt lat="41.5746821" lon="13.3430222"><ele>143.0</ele><time>2026-04-25T08:39:05.684Z</time></trkpt><trkpt lat="41.5747361" lon="13.3431097"><ele>141.20000000000002</ele><time>2026-04-25T08:39:06.684Z</time></trkpt><trkpt lat="41.5747921" lon="13.343202"><ele>139.4</ele><time>2026-04-25T08:39:07.684Z</time></trkpt><trkpt lat="41.5748524" lon="13.3432983"><ele>137.60000000000002</ele><time>2026-04-25T08:39:08.684Z</time></trkpt><trkpt lat="41.5749165" lon="13.3433963"><ele>135.8</ele><time>2026-04-25T08:39:09.684Z</time></trkpt><trkpt lat="41.5749848" lon="13.3434931"><ele>134.0</ele><time>2026-04-25T08:39:10.684Z</time></trkpt><trkpt lat="41.5750596" lon="13.3435837"><ele>134.0</ele><time>2026-04-25T08:39:11.684Z</time></trkpt><trkpt lat="41.5751366" lon="13.3436684"><ele>134.0</ele><time>2026-04-25T08:39:12.684Z</time></trkpt><trkpt lat="41.5752174" lon="13.3437379"><ele>134.0</ele><time>2026-04-25T08:39:13.685Z</time></trkpt><trkpt lat="41.575306" lon="13.3437932"><ele>134.0</ele><time>2026-04-25T08:39:14.684Z</time></trkpt><trkpt lat="41.5754023" lon="13.3438381"><ele>134.0</ele><time>2026-04-25T08:39:15.684Z</time></trkpt><trkpt lat="41.5754973" lon="13.3438829"><ele>133.6</ele><time>2026-04-25T08:39:16.684Z</time></trkpt><trkpt lat="41.5755924" lon="13.3439172"><ele>133.2</ele><time>2026-04-25T08:39:17.684Z</time></trkpt><trkpt lat="41.5756901" lon="13.3439592"><ele>132.79999999999998</ele><time>2026-04-25T08:39:18.684Z</time></trkpt><trkpt lat="41.5757847" lon="13.3440001"><ele>132.4</ele><time>2026-04-25T08:39:19.684Z</time></trkpt><trkpt lat="41.5758812" lon="13.3440399"><ele>132.0</ele><time>2026-04-25T08:39:20.684Z</time></trkpt><trkpt lat="41.5759881" lon="13.3440747"><ele>132.0</ele><time>2026-04-25T08:39:21.684Z</time></trkpt><trkpt lat="41.5761066" lon="13.3441084"><ele>132.0</ele><time>2026-04-25T08:39:22.684Z</time></trkpt><trkpt lat="41.5762311" lon="13.3441438"><ele>132.0</ele><time>2026-04-25T08:39:23.684Z</time></trkpt><trkpt lat="41.5763619" lon="13.3441788"><ele>132.0</ele><time>2026-04-25T08:39:24.684Z</time></trkpt><trkpt lat="41.5764951" lon="13.3442042"><ele>132.5</ele><time>2026-04-25T08:39:25.684Z</time></trkpt><trkpt lat="41.5766219" lon="13.3442439"><ele>133.0</ele><time>2026-04-25T08:39:26.684Z</time></trkpt><trkpt lat="41.5767444" lon="13.3442865"><ele>133.5</ele><time>2026-04-25T08:39:27.684Z</time></trkpt><trkpt lat="41.5768854" lon="13.344334"><ele>134.0</ele><time>2026-04-25T08:39:28.684Z</time></trkpt><trkpt lat="41.5770302" lon="13.3443891"><ele>134.75</ele><time>2026-04-25T08:39:29.684Z</time></trkpt><trkpt lat="41.5771699" lon="13.3444395"><ele>135.5</ele><time>2026-04-25T08:39:30.684Z</time></trkpt><trkpt lat="41.5773002" lon="13.3444803"><ele>136.25</ele><time>2026-04-25T08:39:31.684Z</time></trkpt><trkpt lat="41.5774244" lon="13.344518"><ele>137.0</ele><time>2026-04-25T08:39:32.684Z</time></trkpt><trkpt lat="41.5775347" lon="13.3445565"><ele>137.0</ele><time>2026-04-25T08:39:33.684Z</time></trkpt><trkpt lat="41.5776335" lon="13.34459"><ele>137.0</ele><time>2026-04-25T08:39:34.684Z</time></trkpt><trkpt lat="41.5777302" lon="13.3446345"><ele>137.0</ele><time>2026-04-25T08:39:35.684Z</time></trkpt><trkpt lat="41.5778387" lon="13.3446916"><ele>137.0</ele><time>2026-04-25T08:39:36.684Z</time></trkpt><trkpt lat="41.5779468" lon="13.3447681"><ele>137.0</ele><time>2026-04-25T08:39:37.684Z</time></trkpt><trkpt lat="41.5780392" lon="13.3448563"><ele>136.33333333333331</ele><time>2026-04-25T08:39:38.684Z</time></trkpt><trkpt lat="41.5781283" lon="13.3449445"><ele>135.66666666666666</ele><time>2026-04-25T08:39:39.684Z</time></trkpt><trkpt lat="41.5781945" lon="13.3450156"><ele>135.0</ele><time>2026-04-25T08:39:40.684Z</time></trkpt><trkpt lat="41.5782465" lon="13.345087"><ele>134.33333333333334</ele><time>2026-04-25T08:39:41.684Z</time></trkpt><trkpt lat="41.5782998" lon="13.3451615"><ele>133.66666666666669</ele><time>2026-04-25T08:39:42.684Z</time></trkpt><trkpt lat="41.578357" lon="13.345245"><ele>133.0</ele><time>2026-04-25T08:39:43.684Z</time></trkpt><trkpt lat="41.5784263" lon="13.3453378"><ele>133.0</ele><time>2026-04-25T08:39:44.684Z</time></trkpt><trkpt lat="41.5785032" lon="13.3454398"><ele>133.0</ele><time>2026-04-25T08:39:45.684Z</time></trkpt><trkpt lat="41.5785943" lon="13.3455562"><ele>133.0</ele><time>2026-04-25T08:39:46.684Z</time></trkpt><trkpt lat="41.578699" lon="13.3456866"><ele>133.0</ele><time>2026-04-25T08:39:47.684Z</time></trkpt><trkpt lat="41.5788054" lon="13.3458147"><ele>134.0</ele><time>2026-04-25T08:39:48.684Z</time></trkpt><trkpt lat="41.5789121" lon="13.3459387"><ele>135.0</ele><time>2026-04-25T08:39:49.684Z</time></trkpt><trkpt lat="41.5790263" lon="13.3460565"><ele>136.0</ele><time>2026-04-25T08:39:50.684Z</time></trkpt><trkpt lat="41.5791508" lon="13.3461943"><ele>137.0</ele><time>2026-04-25T08:39:51.684Z</time></trkpt><trkpt lat="41.5792858" lon="13.3463299"><ele>137.33333333333331</ele><time>2026-04-25T08:39:52.684Z</time></trkpt><trkpt lat="41.5794208" lon="13.3464622"><ele>137.66666666666666</ele><time>2026-04-25T08:39:53.684Z</time></trkpt><trkpt lat="41.5795583" lon="13.3465992"><ele>138.0</ele><time>2026-04-25T08:39:54.684Z</time></trkpt><trkpt lat="41.5796994" lon="13.3467388"><ele>138.0</ele><time>2026-04-25T08:39:55.684Z</time></trkpt><trkpt lat="41.5798412" lon="13.3468774"><ele>138.0</ele><time>2026-04-25T08:39:56.684Z</time></trkpt><trkpt lat="41.579979" lon="13.3470201"><ele>138.0</ele><time>2026-04-25T08:39:57.684Z</time></trkpt><trkpt lat="41.5801133" lon="13.3471678"><ele>138.0</ele><time>2026-04-25T08:39:58.684Z</time></trkpt><trkpt lat="41.5802497" lon="13.3472988"><ele>138.0</ele><time>2026-04-25T08:39:59.684Z</time></trkpt><trkpt lat="41.5803828" lon="13.3474222"><ele>138.0</ele><time>2026-04-25T08:40:00.684Z</time></trkpt><trkpt lat="41.5804993" lon="13.34754"><ele>138.0</ele><time>2026-04-25T08:40:01.684Z</time></trkpt><trkpt lat="41.5806198" lon="13.3476437"><ele>138.0</ele><time>2026-04-25T08:40:02.685Z</time></trkpt><trkpt lat="41.5807479" lon="13.3477285"><ele>138.0</ele><time>2026-04-25T08:40:03.684Z</time></trkpt><trkpt lat="41.5808882" lon="13.3477948"><ele>138.0</ele><time>2026-04-25T08:40:04.684Z</time></trkpt><trkpt lat="41.581037" lon="13.3478418"><ele>139.0</ele><time>2026-04-25T08:40:05.684Z</time></trkpt><trkpt lat="41.5811869" lon="13.3478775"><ele>140.0</ele><time>2026-04-25T08:40:06.684Z</time></trkpt><trkpt lat="41.5813385" lon="13.3479148"><ele>141.0</ele><time>2026-04-25T08:40:07.684Z</time></trkpt><trkpt lat="41.5814734" lon="13.3479612"><ele>142.0</ele><time>2026-04-25T08:40:08.684Z</time></trkpt><trkpt lat="41.5815905" lon="13.3480313"><ele>141.5</ele><time>2026-04-25T08:40:09.684Z</time></trkpt><trkpt lat="41.5816977" lon="13.3481411"><ele>141.0</ele><time>2026-04-25T08:40:10.684Z</time></trkpt><trkpt lat="41.5818034" lon="13.3482716"><ele>140.5</ele><time>2026-04-25T08:40:11.684Z</time></trkpt><trkpt lat="41.5819103" lon="13.3484157"><ele>140.0</ele><time>2026-04-25T08:40:12.684Z</time></trkpt><trkpt lat="41.5820242" lon="13.3485678"><ele>140.0</ele><time>2026-04-25T08:40:13.685Z</time></trkpt><trkpt lat="41.5821396" lon="13.3487277"><ele>140.0</ele><time>2026-04-25T08:40:14.685Z</time></trkpt><trkpt lat="41.58226" lon="13.3489021"><ele>140.0</ele><time>2026-04-25T08:40:15.684Z</time></trkpt><trkpt lat="41.5823838" lon="13.3490738"><ele>139.33333333333331</ele><time>2026-04-25T08:40:16.684Z</time></trkpt><trkpt lat="41.5825099" lon="13.3492567"><ele>138.66666666666666</ele><time>2026-04-25T08:40:17.684Z</time></trkpt><trkpt lat="41.5826368" lon="13.3494421"><ele>138.0</ele><time>2026-04-25T08:40:18.684Z</time></trkpt><trkpt lat="41.582765" lon="13.349638"><ele>139.66666666666666</ele><time>2026-04-25T08:40:19.684Z</time></trkpt><trkpt lat="41.5828906" lon="13.3498312"><ele>141.33333333333331</ele><time>2026-04-25T08:40:20.684Z</time></trkpt><trkpt lat="41.5830185" lon="13.3500217"><ele>143.0</ele><time>2026-04-25T08:40:21.684Z</time></trkpt><trkpt lat="41.583147" lon="13.3501954"><ele>143.0</ele><time>2026-04-25T08:40:22.685Z</time></trkpt><trkpt lat="41.583282" lon="13.3503526"><ele>143.0</ele><time>2026-04-25T08:40:23.684Z</time></trkpt><trkpt lat="41.5834162" lon="13.3504855"><ele>143.0</ele><time>2026-04-25T08:40:24.684Z</time></trkpt><trkpt lat="41.5835405" lon="13.3506013"><ele>142.5</ele><time>2026-04-25T08:40:25.684Z</time></trkpt><trkpt lat="41.583647" lon="13.3507163"><ele>142.0</ele><time>2026-04-25T08:40:26.684Z</time></trkpt><trkpt lat="41.5837441" lon="13.3508483"><ele>141.5</ele><time>2026-04-25T08:40:27.684Z</time></trkpt><trkpt lat="41.58382" lon="13.3509813"><ele>141.0</ele><time>2026-04-25T08:40:28.684Z</time></trkpt><trkpt lat="41.5838792" lon="13.3511306"><ele>141.0</ele><time>2026-04-25T08:40:29.684Z</time></trkpt><trkpt lat="41.5839286" lon="13.351281"><ele>141.0</ele><time>2026-04-25T08:40:30.684Z</time></trkpt><trkpt lat="41.5839841" lon="13.3514322"><ele>141.0</ele><time>2026-04-25T08:40:31.684Z</time></trkpt><trkpt lat="41.584045" lon="13.3515894"><ele>141.0</ele><time>2026-04-25T08:40:32.684Z</time></trkpt><trkpt lat="41.5841068" lon="13.3517348"><ele>141.5</ele><time>2026-04-25T08:40:33.684Z</time></trkpt><trkpt lat="41.5841773" lon="13.3518647"><ele>142.0</ele><time>2026-04-25T08:40:34.684Z</time></trkpt><trkpt lat="41.5842561" lon="13.3519827"><ele>142.5</ele><time>2026-04-25T08:40:35.684Z</time></trkpt><trkpt lat="41.5843432" lon="13.3520926"><ele>143.0</ele><time>2026-04-25T08:40:36.684Z</time></trkpt><trkpt lat="41.5844337" lon="13.3522109"><ele>143.8</ele><time>2026-04-25T08:40:37.684Z</time></trkpt><trkpt lat="41.5845154" lon="13.3522945"><ele>144.60000000000002</ele><time>2026-04-25T08:40:38.684Z</time></trkpt><trkpt lat="41.5845887" lon="13.3523844"><ele>145.39999999999998</ele><time>2026-04-25T08:40:39.684Z</time></trkpt><trkpt lat="41.5846648" lon="13.352487"><ele>146.2</ele><time>2026-04-25T08:40:40.684Z</time></trkpt><trkpt lat="41.5847343" lon="13.3525897"><ele>147.0</ele><time>2026-04-25T08:40:41.684Z</time></trkpt><trkpt lat="41.5848044" lon="13.3526914"><ele>147.0</ele><time>2026-04-25T08:40:42.684Z</time></trkpt><trkpt lat="41.5848895" lon="13.3527891"><ele>147.0</ele><time>2026-04-25T08:40:43.684Z</time></trkpt><trkpt lat="41.584999" lon="13.3528789"><ele>147.0</ele><time>2026-04-25T08:40:44.684Z</time></trkpt><trkpt lat="41.5851209" lon="13.3529876"><ele>147.0</ele><time>2026-04-25T08:40:45.684Z</time></trkpt><trkpt lat="41.5852626" lon="13.3530908"><ele>147.33333333333334</ele><time>2026-04-25T08:40:46.684Z</time></trkpt><trkpt lat="41.5854043" lon="13.3531683"><ele>147.66666666666669</ele><time>2026-04-25T08:40:47.684Z</time></trkpt><trkpt lat="41.585549" lon="13.3532682"><ele>148.0</ele><time>2026-04-25T08:40:48.684Z</time></trkpt><trkpt lat="41.5856872" lon="13.3533547"><ele>148.0</ele><time>2026-04-25T08:40:49.684Z</time></trkpt><trkpt lat="41.585833" lon="13.3534404"><ele>148.0</ele><time>2026-04-25T08:40:50.684Z</time></trkpt><trkpt lat="41.5859745" lon="13.3535238"><ele>148.0</ele><time>2026-04-25T08:40:51.684Z</time></trkpt><trkpt lat="41.5860927" lon="13.3535766"><ele>148.0</ele><time>2026-04-25T08:40:52.684Z</time></trkpt><trkpt lat="41.5862162" lon="13.3536388"><ele>148.33333333333334</ele><time>2026-04-25T08:40:53.684Z</time></trkpt><trkpt lat="41.586336" lon="13.3537169"><ele>148.66666666666666</ele><time>2026-04-25T08:40:54.684Z</time></trkpt><trkpt lat="41.5864992" lon="13.3538693"><ele>149.0</ele><time>2026-04-25T08:40:55.684Z</time></trkpt><trkpt lat="41.5866655" lon="13.3540434"><ele>147.66666666666666</ele><time>2026-04-25T08:40:56.684Z</time></trkpt><trkpt lat="41.5867914" lon="13.354208"><ele>146.33333333333334</ele><time>2026-04-25T08:40:57.684Z</time></trkpt><trkpt lat="41.5869012" lon="13.3543611"><ele>145.0</ele><time>2026-04-25T08:40:58.684Z</time></trkpt><trkpt lat="41.5870107" lon="13.354533"><ele>144.66666666666669</ele><time>2026-04-25T08:40:59.684Z</time></trkpt><trkpt lat="41.5870934" lon="13.3547099"><ele>144.33333333333334</ele><time>2026-04-25T08:41:00.684Z</time></trkpt><trkpt lat="41.5871629" lon="13.3548901"><ele>144.0</ele><time>2026-04-25T08:41:01.684Z</time></trkpt><trkpt lat="41.5872203" lon="13.3550828"><ele>144.0</ele><time>2026-04-25T08:41:02.684Z</time></trkpt><trkpt lat="41.5872705" lon="13.3553113"><ele>144.0</ele><time>2026-04-25T08:41:03.684Z</time></trkpt><trkpt lat="41.5873151" lon="13.3555306"><ele>144.0</ele><time>2026-04-25T08:41:04.685Z</time></trkpt><trkpt lat="41.5873556" lon="13.3557436"><ele>144.33333333333334</ele><time>2026-04-25T08:41:05.684Z</time></trkpt><trkpt lat="41.5874039" lon="13.3559664"><ele>144.66666666666669</ele><time>2026-04-25T08:41:06.684Z</time></trkpt><trkpt lat="41.5874351" lon="13.3561637"><ele>145.0</ele><time>2026-04-25T08:41:07.684Z</time></trkpt><trkpt lat="41.5874651" lon="13.356377"><ele>145.33333333333334</ele><time>2026-04-25T08:41:08.684Z</time></trkpt><trkpt lat="41.5874886" lon="13.3566014"><ele>145.66666666666666</ele><time>2026-04-25T08:41:09.684Z</time></trkpt><trkpt lat="41.5874888" lon="13.3568164"><ele>146.0</ele><time>2026-04-25T08:41:10.684Z</time></trkpt><trkpt lat="41.5874875" lon="13.3570367"><ele>146.33333333333331</ele><time>2026-04-25T08:41:11.684Z</time></trkpt><trkpt lat="41.587476" lon="13.3572521"><ele>146.66666666666666</ele><time>2026-04-25T08:41:12.684Z</time></trkpt><trkpt lat="41.5874629" lon="13.3574731"><ele>147.0</ele><time>2026-04-25T08:41:13.684Z</time></trkpt><trkpt lat="41.5874434" lon="13.3576915"><ele>147.0</ele><time>2026-04-25T08:41:14.684Z</time></trkpt><trkpt lat="41.5874191" lon="13.3579084"><ele>147.0</ele><time>2026-04-25T08:41:15.684Z</time></trkpt><trkpt lat="41.5873932" lon="13.3581193"><ele>147.0</ele><time>2026-04-25T08:41:16.684Z</time></trkpt><trkpt lat="41.5873683" lon="13.3583229"><ele>147.75</ele><time>2026-04-25T08:41:17.684Z</time></trkpt><trkpt lat="41.5873479" lon="13.358518"><ele>148.5</ele><time>2026-04-25T08:41:18.684Z</time></trkpt><trkpt lat="41.5873249" lon="13.3587123"><ele>149.25</ele><time>2026-04-25T08:41:19.684Z</time></trkpt><trkpt lat="41.5873142" lon="13.3589098"><ele>150.0</ele><time>2026-04-25T08:41:20.684Z</time></trkpt><trkpt lat="41.5873007" lon="13.3591216"><ele>149.33333333333334</ele><time>2026-04-25T08:41:21.684Z</time></trkpt><trkpt lat="41.5872842" lon="13.3593188"><ele>148.66666666666669</ele><time>2026-04-25T08:41:22.684Z</time></trkpt><trkpt lat="41.5872839" lon="13.3595219"><ele>148.0</ele><time>2026-04-25T08:41:23.684Z</time></trkpt><trkpt lat="41.5873061" lon="13.3597244"><ele>148.0</ele><time>2026-04-25T08:41:24.684Z</time></trkpt><trkpt lat="41.587334" lon="13.359929"><ele>148.0</ele><time>2026-04-25T08:41:25.684Z</time></trkpt><trkpt lat="41.5873672" lon="13.3601323"><ele>148.0</ele><time>2026-04-25T08:41:26.685Z</time></trkpt><trkpt lat="41.5873906" lon="13.3603312"><ele>147.66666666666669</ele><time>2026-04-25T08:41:27.684Z</time></trkpt><trkpt lat="41.5873999" lon="13.3605354"><ele>147.33333333333334</ele><time>2026-04-25T08:41:28.684Z</time></trkpt><trkpt lat="41.587413" lon="13.3607462"><ele>147.0</ele><time>2026-04-25T08:41:29.684Z</time></trkpt><trkpt lat="41.5874009" lon="13.360956"><ele>147.0</ele><time>2026-04-25T08:41:30.684Z</time></trkpt><trkpt lat="41.587377" lon="13.3611494"><ele>147.0</ele><time>2026-04-25T08:41:31.684Z</time></trkpt><trkpt lat="41.5873408" lon="13.3613382"><ele>147.0</ele><time>2026-04-25T08:41:32.684Z</time></trkpt><trkpt lat="41.5873054" lon="13.3615154"><ele>147.0</ele><time>2026-04-25T08:41:33.684Z</time></trkpt><trkpt lat="41.5872653" lon="13.3616853"><ele>147.0</ele><time>2026-04-25T08:41:34.684Z</time></trkpt><trkpt lat="41.5872268" lon="13.3618394"><ele>147.0</ele><time>2026-04-25T08:41:35.684Z</time></trkpt><trkpt lat="41.58718" lon="13.361977"><ele>147.0</ele><time>2026-04-25T08:41:36.684Z</time></trkpt><trkpt lat="41.5871451" lon="13.3620922"><ele>147.0</ele><time>2026-04-25T08:41:37.684Z</time></trkpt><trkpt lat="41.5871336" lon="13.3621907"><ele>147.0</ele><time>2026-04-25T08:41:38.684Z</time></trkpt><trkpt lat="41.5871526" lon="13.3622761"><ele>147.4</ele><time>2026-04-25T08:41:39.684Z</time></trkpt><trkpt lat="41.5872515" lon="13.3623861"><ele>147.79999999999998</ele><time>2026-04-25T08:41:41.684Z</time></trkpt><trkpt lat="41.5873218" lon="13.3624324"><ele>148.2</ele><time>2026-04-25T08:41:42.684Z</time></trkpt><trkpt lat="41.5873986" lon="13.36249"><ele>148.6</ele><time>2026-04-25T08:41:43.684Z</time></trkpt><trkpt lat="41.5874775" lon="13.3625579"><ele>149.0</ele><time>2026-04-25T08:41:44.684Z</time></trkpt><trkpt lat="41.5875651" lon="13.3626489"><ele>149.0</ele><time>2026-04-25T08:41:45.684Z</time></trkpt><trkpt lat="41.5876616" lon="13.3627294"><ele>149.0</ele><time>2026-04-25T08:41:46.684Z</time></trkpt><trkpt lat="41.5877522" lon="13.3628148"><ele>149.0</ele><time>2026-04-25T08:41:47.684Z</time></trkpt><trkpt lat="41.5878444" lon="13.3628879"><ele>149.0</ele><time>2026-04-25T08:41:48.685Z</time></trkpt><trkpt lat="41.5879369" lon="13.3629561"><ele>149.0</ele><time>2026-04-25T08:41:49.684Z</time></trkpt><trkpt lat="41.5880264" lon="13.3630177"><ele>150.4</ele><time>2026-04-25T08:41:50.685Z</time></trkpt><trkpt lat="41.5881125" lon="13.3630763"><ele>151.8</ele><time>2026-04-25T08:41:51.684Z</time></trkpt><trkpt lat="41.5881892" lon="13.3631338"><ele>153.2</ele><time>2026-04-25T08:41:52.685Z</time></trkpt><trkpt lat="41.5882567" lon="13.3631861"><ele>154.6</ele><time>2026-04-25T08:41:53.684Z</time></trkpt><trkpt lat="41.5883185" lon="13.3632341"><ele>156.0</ele><time>2026-04-25T08:41:54.684Z</time></trkpt><trkpt lat="41.5884159" lon="13.3633375"><ele>156.0</ele><time>2026-04-25T08:41:56.684Z</time></trkpt><trkpt lat="41.5884874" lon="13.3634061"><ele>156.0</ele><time>2026-04-25T08:41:58.684Z</time></trkpt><trkpt lat="41.588535" lon="13.3634748"><ele>156.0</ele><time>2026-04-25T08:42:00.684Z</time></trkpt><trkpt lat="41.5885692" lon="13.3635588"><ele>156.0</ele><time>2026-04-25T08:42:03.683Z</time></trkpt><trkpt lat="41.5886185" lon="13.3636538"><ele>156.0</ele><time>2026-04-25T08:42:06.683Z</time></trkpt><trkpt lat="41.5886623" lon="13.3637509"><ele>156.0</ele><time>2026-04-25T08:42:09.683Z</time></trkpt><trkpt lat="41.5887012" lon="13.3638326"><ele>157.0</ele><time>2026-04-25T08:42:11.683Z</time></trkpt><trkpt lat="41.5887538" lon="13.3639373"><ele>158.0</ele><time>2026-04-25T08:42:13.683Z</time></trkpt><trkpt lat="41.5887982" lon="13.3640507"><ele>159.0</ele><time>2026-04-25T08:42:15.683Z</time></trkpt><trkpt lat="41.5888524" lon="13.3642002"><ele>160.0</ele><time>2026-04-25T08:42:17.683Z</time></trkpt><trkpt lat="41.5888882" lon="13.3642759"><ele>161.0</ele><time>2026-04-25T08:42:18.683Z</time></trkpt><trkpt lat="41.5889255" lon="13.3643539"><ele>161.0</ele><time>2026-04-25T08:42:19.683Z</time></trkpt><trkpt lat="41.5889672" lon="13.3644352"><ele>161.0</ele><time>2026-04-25T08:42:20.683Z</time></trkpt><trkpt lat="41.5890156" lon="13.3645128"><ele>161.0</ele><time>2026-04-25T08:42:21.683Z</time></trkpt><trkpt lat="41.589063" lon="13.3645938"><ele>161.0</ele><time>2026-04-25T08:42:22.683Z</time></trkpt><trkpt lat="41.5891108" lon="13.3646803"><ele>161.0</ele><time>2026-04-25T08:42:23.683Z</time></trkpt><trkpt lat="41.5891497" lon="13.3647695"><ele>161.0</ele><time>2026-04-25T08:42:24.683Z</time></trkpt><trkpt lat="41.5891803" lon="13.3648479"><ele>160.8</ele><time>2026-04-25T08:42:25.683Z</time></trkpt><trkpt lat="41.5892308" lon="13.3649853"><ele>160.60000000000002</ele><time>2026-04-25T08:42:27.683Z</time></trkpt><trkpt lat="41.5892539" lon="13.3651177"><ele>160.4</ele><time>2026-04-25T08:42:29.683Z</time></trkpt><trkpt lat="41.5892572" lon="13.3652087"><ele>160.2</ele><time>2026-04-25T08:42:31.683Z</time></trkpt><trkpt lat="41.5892602" lon="13.3653512"><ele>160.0</ele><time>2026-04-25T08:42:40.684Z</time></trkpt><trkpt lat="41.5892806" lon="13.3655046"><ele>160.4</ele><time>2026-04-25T08:42:42.684Z</time></trkpt><trkpt lat="41.5892948" lon="13.3656313"><ele>160.8</ele><time>2026-04-25T08:42:44.684Z</time></trkpt><trkpt lat="41.5893146" lon="13.3657708"><ele>161.2</ele><time>2026-04-25T08:42:46.684Z</time></trkpt><trkpt lat="41.5893489" lon="13.365882"><ele>161.6</ele><time>2026-04-25T08:42:48.685Z</time></trkpt><trkpt lat="41.5893621" lon="13.365988"><ele>162.0</ele><time>2026-04-25T08:42:50.684Z</time></trkpt><trkpt lat="41.5893827" lon="13.3660979"><ele>162.0</ele><time>2026-04-25T08:42:52.684Z</time></trkpt><trkpt lat="41.5893988" lon="13.3661993"><ele>162.0</ele><time>2026-04-25T08:42:53.684Z</time></trkpt><trkpt lat="41.5894219" lon="13.3663763"><ele>162.0</ele><time>2026-04-25T08:42:55.684Z</time></trkpt><trkpt lat="41.5894316" lon="13.3665063"><ele>162.0</ele><time>2026-04-25T08:42:56.684Z</time></trkpt><trkpt lat="41.5894532" lon="13.3666138"><ele>162.0</ele><time>2026-04-25T08:42:57.685Z</time></trkpt><trkpt lat="41.5894758" lon="13.3667315"><ele>162.0</ele><time>2026-04-25T08:42:58.685Z</time></trkpt><trkpt lat="41.5894811" lon="13.3668538"><ele>162.0</ele><time>2026-04-25T08:42:59.684Z</time></trkpt><trkpt lat="41.5895004" lon="13.3669658"><ele>162.0</ele><time>2026-04-25T08:43:00.684Z</time></trkpt><trkpt lat="41.5895424" lon="13.3670651"><ele>162.0</ele><time>2026-04-25T08:43:01.684Z</time></trkpt><trkpt lat="41.5896069" lon="13.367135"><ele>162.0</ele><time>2026-04-25T08:43:02.684Z</time></trkpt><trkpt lat="41.5896788" lon="13.3672"><ele>162.0</ele><time>2026-04-25T08:43:03.684Z</time></trkpt><trkpt lat="41.58976" lon="13.367271"><ele>163.5</ele><time>2026-04-25T08:43:04.684Z</time></trkpt><trkpt lat="41.5898369" lon="13.3673293"><ele>165.0</ele><time>2026-04-25T08:43:05.684Z</time></trkpt><trkpt lat="41.589903" lon="13.3673868"><ele>166.5</ele><time>2026-04-25T08:43:06.684Z</time></trkpt><trkpt lat="41.5899668" lon="13.3674322"><ele>168.0</ele><time>2026-04-25T08:43:07.684Z</time></trkpt><trkpt lat="41.5900359" lon="13.3675205"><ele>169.5</ele><time>2026-04-25T08:43:09.684Z</time></trkpt><trkpt lat="41.589988" lon="13.3676178"><ele>171.0</ele><time>2026-04-25T08:43:12.684Z</time></trkpt><trkpt lat="41.5899275" lon="13.3677019"><ele>171.0</ele><time>2026-04-25T08:43:14.684Z</time></trkpt><trkpt lat="41.5898643" lon="13.3677747"><ele>171.0</ele><time>2026-04-25T08:43:16.684Z</time></trkpt><trkpt lat="41.5898044" lon="13.3678434"><ele>171.0</ele><time>2026-04-25T08:43:18.684Z</time></trkpt><trkpt lat="41.5897807" lon="13.3679594"><ele>171.0</ele><time>2026-04-25T08:43:20.685Z</time></trkpt><trkpt lat="41.5897734" lon="13.3681257"><ele>171.0</ele><time>2026-04-25T08:43:22.684Z</time></trkpt><trkpt lat="41.5897771" lon="13.3682298"><ele>170.16666666666666</ele><time>2026-04-25T08:43:23.684Z</time></trkpt><trkpt lat="41.5897843" lon="13.3683257"><ele>169.33333333333334</ele><time>2026-04-25T08:43:24.684Z</time></trkpt><trkpt lat="41.5897968" lon="13.3684272"><ele>168.5</ele><time>2026-04-25T08:43:25.684Z</time></trkpt><trkpt lat="41.5898117" lon="13.3685324"><ele>167.66666666666669</ele><time>2026-04-25T08:43:26.684Z</time></trkpt><trkpt lat="41.5898268" lon="13.3686355"><ele>166.83333333333334</ele><time>2026-04-25T08:43:27.684Z</time></trkpt><trkpt lat="41.5898409" lon="13.3687334"><ele>166.0</ele><time>2026-04-25T08:43:28.684Z</time></trkpt><trkpt lat="41.589856" lon="13.3688274"><ele>164.0</ele><time>2026-04-25T08:43:29.684Z</time></trkpt><trkpt lat="41.5898711" lon="13.3689184"><ele>162.0</ele><time>2026-04-25T08:43:30.684Z</time></trkpt><trkpt lat="41.5898907" lon="13.3690673"><ele>160.0</ele><time>2026-04-25T08:43:32.685Z</time></trkpt><trkpt lat="41.5899047" lon="13.3691943"><ele>158.0</ele><time>2026-04-25T08:43:34.683Z</time></trkpt><trkpt lat="41.5899091" lon="13.3692953"><ele>156.0</ele><time>2026-04-25T08:43:36.683Z</time></trkpt><trkpt lat="41.5899052" lon="13.3693827"><ele>154.0</ele><time>2026-04-25T08:43:39.683Z</time></trkpt><trkpt lat="41.5899666" lon="13.3694201"><ele>154.0</ele><time>2026-04-25T08:43:44.683Z</time></trkpt><trkpt lat="41.5900678" lon="13.3693573"><ele>154.0</ele><time>2026-04-25T08:43:46.683Z</time></trkpt><trkpt lat="41.5901339" lon="13.3693171"><ele>154.0</ele><time>2026-04-25T08:43:47.683Z</time></trkpt><trkpt lat="41.5902127" lon="13.3692698"><ele>154.0</ele><time>2026-04-25T08:43:48.683Z</time></trkpt><trkpt lat="41.5902987" lon="13.3692132"><ele>154.0</ele><time>2026-04-25T08:43:49.683Z</time></trkpt><trkpt lat="41.5904047" lon="13.3691548"><ele>152.25</ele><time>2026-04-25T08:43:50.683Z</time></trkpt><trkpt lat="41.5905106" lon="13.3691093"><ele>150.5</ele><time>2026-04-25T08:43:51.683Z</time></trkpt><trkpt lat="41.5906296" lon="13.3690649"><ele>148.75</ele><time>2026-04-25T08:43:52.683Z</time></trkpt><trkpt lat="41.5907479" lon="13.3690268"><ele>147.0</ele><time>2026-04-25T08:43:53.684Z</time></trkpt><trkpt lat="41.5908749" lon="13.3690011"><ele>147.0</ele><time>2026-04-25T08:43:54.683Z</time></trkpt><trkpt lat="41.5910053" lon="13.3690015"><ele>147.0</ele><time>2026-04-25T08:43:55.683Z</time></trkpt><trkpt lat="41.5911345" lon="13.369032"><ele>147.0</ele><time>2026-04-25T08:43:56.683Z</time></trkpt><trkpt lat="41.591245" lon="13.3691003"><ele>147.0</ele><time>2026-04-25T08:43:57.683Z</time></trkpt><trkpt lat="41.5913364" lon="13.3692056"><ele>147.0</ele><time>2026-04-25T08:43:58.683Z</time></trkpt><trkpt lat="41.5914071" lon="13.3693364"><ele>147.0</ele><time>2026-04-25T08:43:59.683Z</time></trkpt><trkpt lat="41.5914571" lon="13.3694924"><ele>147.0</ele><time>2026-04-25T08:44:00.683Z</time></trkpt><trkpt lat="41.5914939" lon="13.3696626"><ele>147.0</ele><time>2026-04-25T08:44:01.683Z</time></trkpt><trkpt lat="41.5915277" lon="13.369838"><ele>146.0</ele><time>2026-04-25T08:44:02.683Z</time></trkpt><trkpt lat="41.5915665" lon="13.3700121"><ele>145.0</ele><time>2026-04-25T08:44:03.683Z</time></trkpt><trkpt lat="41.5916052" lon="13.3701888"><ele>144.0</ele><time>2026-04-25T08:44:04.683Z</time></trkpt><trkpt lat="41.5916394" lon="13.3703626"><ele>143.0</ele><time>2026-04-25T08:44:05.683Z</time></trkpt><trkpt lat="41.5916713" lon="13.3705469"><ele>142.0</ele><time>2026-04-25T08:44:06.683Z</time></trkpt><trkpt lat="41.5917041" lon="13.3707288"><ele>141.0</ele><time>2026-04-25T08:44:07.683Z</time></trkpt><trkpt lat="41.5917383" lon="13.3709025"><ele>140.0</ele><time>2026-04-25T08:44:08.683Z</time></trkpt><trkpt lat="41.5917764" lon="13.3710725"><ele>139.0</ele><time>2026-04-25T08:44:09.683Z</time></trkpt><trkpt lat="41.5918238" lon="13.3712362"><ele>138.5</ele><time>2026-04-25T08:44:10.683Z</time></trkpt><trkpt lat="41.5918818" lon="13.3713879"><ele>138.0</ele><time>2026-04-25T08:44:11.683Z</time></trkpt><trkpt lat="41.5919646" lon="13.3714993"><ele>137.5</ele><time>2026-04-25T08:44:12.683Z</time></trkpt><trkpt lat="41.5920563" lon="13.3715831"><ele>137.0</ele><time>2026-04-25T08:44:13.683Z</time></trkpt><trkpt lat="41.5921662" lon="13.3716497"><ele>138.25</ele><time>2026-04-25T08:44:14.683Z</time></trkpt><trkpt lat="41.5922831" lon="13.3716858"><ele>139.5</ele><time>2026-04-25T08:44:15.683Z</time></trkpt><trkpt lat="41.5924003" lon="13.3716944"><ele>140.75</ele><time>2026-04-25T08:44:16.683Z</time></trkpt><trkpt lat="41.5925312" lon="13.3716897"><ele>142.0</ele><time>2026-04-25T08:44:17.683Z</time></trkpt><trkpt lat="41.5926752" lon="13.3716813"><ele>142.0</ele><time>2026-04-25T08:44:18.683Z</time></trkpt><trkpt lat="41.5928168" lon="13.3716704"><ele>142.0</ele><time>2026-04-25T08:44:19.683Z</time></trkpt><trkpt lat="41.59296" lon="13.371663"><ele>142.0</ele><time>2026-04-25T08:44:20.683Z</time></trkpt><trkpt lat="41.5930972" lon="13.3716569"><ele>142.0</ele><time>2026-04-25T08:44:21.683Z</time></trkpt><trkpt lat="41.593235" lon="13.3716429"><ele>141.75</ele><time>2026-04-25T08:44:22.683Z</time></trkpt><trkpt lat="41.5933717" lon="13.371639"><ele>141.5</ele><time>2026-04-25T08:44:23.684Z</time></trkpt><trkpt lat="41.5935065" lon="13.3716368"><ele>141.25</ele><time>2026-04-25T08:44:24.683Z</time></trkpt><trkpt lat="41.5936388" lon="13.3716566"><ele>141.0</ele><time>2026-04-25T08:44:25.683Z</time></trkpt><trkpt lat="41.5937691" lon="13.3716886"><ele>141.5</ele><time>2026-04-25T08:44:26.683Z</time></trkpt><trkpt lat="41.593891" lon="13.3717426"><ele>142.0</ele><time>2026-04-25T08:44:27.683Z</time></trkpt><trkpt lat="41.5939995" lon="13.3718325"><ele>142.5</ele><time>2026-04-25T08:44:28.683Z</time></trkpt><trkpt lat="41.5941064" lon="13.3719435"><ele>143.0</ele><time>2026-04-25T08:44:29.683Z</time></trkpt><trkpt lat="41.5942127" lon="13.3720683"><ele>143.0</ele><time>2026-04-25T08:44:30.683Z</time></trkpt><trkpt lat="41.5943248" lon="13.3721931"><ele>143.0</ele><time>2026-04-25T08:44:31.683Z</time></trkpt><trkpt lat="41.594415" lon="13.3723273"><ele>143.0</ele><time>2026-04-25T08:44:32.683Z</time></trkpt><trkpt lat="41.5945147" lon="13.3724701"><ele>143.0</ele><time>2026-04-25T08:44:33.684Z</time></trkpt><trkpt lat="41.5946127" lon="13.3726076"><ele>143.0</ele><time>2026-04-25T08:44:34.683Z</time></trkpt><trkpt lat="41.5946907" lon="13.3727508"><ele>143.0</ele><time>2026-04-25T08:44:35.683Z</time></trkpt><trkpt lat="41.594802" lon="13.3728693"><ele>143.0</ele><time>2026-04-25T08:44:36.683Z</time></trkpt><trkpt lat="41.5949287" lon="13.3729661"><ele>143.0</ele><time>2026-04-25T08:44:37.683Z</time></trkpt><trkpt lat="41.5950568" lon="13.3730507"><ele>141.75</ele><time>2026-04-25T08:44:38.683Z</time></trkpt><trkpt lat="41.5951871" lon="13.3731238"><ele>140.5</ele><time>2026-04-25T08:44:39.683Z</time></trkpt><trkpt lat="41.5953168" lon="13.3731796"><ele>139.25</ele><time>2026-04-25T08:44:40.683Z</time></trkpt><trkpt lat="41.5954396" lon="13.3731866"><ele>138.0</ele><time>2026-04-25T08:44:41.683Z</time></trkpt><trkpt lat="41.5955606" lon="13.3731619"><ele>137.75</ele><time>2026-04-25T08:44:42.683Z</time></trkpt><trkpt lat="41.595678" lon="13.3731063"><ele>137.5</ele><time>2026-04-25T08:44:43.683Z</time></trkpt><trkpt lat="41.5957958" lon="13.3730347"><ele>137.25</ele><time>2026-04-25T08:44:44.683Z</time></trkpt><trkpt lat="41.5959161" lon="13.3729597"><ele>137.0</ele><time>2026-04-25T08:44:45.683Z</time></trkpt><trkpt lat="41.596045" lon="13.3728985"><ele>137.0</ele><time>2026-04-25T08:44:46.683Z</time></trkpt><trkpt lat="41.5961862" lon="13.3728541"><ele>137.0</ele><time>2026-04-25T08:44:47.683Z</time></trkpt><trkpt lat="41.5963213" lon="13.3728182"><ele>137.0</ele><time>2026-04-25T08:44:48.683Z</time></trkpt><trkpt lat="41.5964564" lon="13.3728022"><ele>137.0</ele><time>2026-04-25T08:44:49.683Z</time></trkpt><trkpt lat="41.5965937" lon="13.3727961"><ele>137.0</ele><time>2026-04-25T08:44:50.683Z</time></trkpt><trkpt lat="41.5967207" lon="13.3728018"><ele>137.0</ele><time>2026-04-25T08:44:51.683Z</time></trkpt><trkpt lat="41.5968244" lon="13.3728199"><ele>137.0</ele><time>2026-04-25T08:44:52.684Z</time></trkpt><trkpt lat="41.5969401" lon="13.3728471"><ele>137.0</ele><time>2026-04-25T08:44:53.683Z</time></trkpt><trkpt lat="41.5970384" lon="13.3729188"><ele>137.0</ele><time>2026-04-25T08:44:54.683Z</time></trkpt><trkpt lat="41.597123" lon="13.3730253"><ele>137.0</ele><time>2026-04-25T08:44:55.684Z</time></trkpt><trkpt lat="41.5971971" lon="13.3731574"><ele>137.0</ele><time>2026-04-25T08:44:56.683Z</time></trkpt><trkpt lat="41.5972638" lon="13.3733"><ele>137.0</ele><time>2026-04-25T08:44:57.683Z</time></trkpt><trkpt lat="41.5973325" lon="13.3734481"><ele>137.0</ele><time>2026-04-25T08:44:58.683Z</time></trkpt><trkpt lat="41.5974026" lon="13.3735953"><ele>137.0</ele><time>2026-04-25T08:44:59.683Z</time></trkpt><trkpt lat="41.5974713" lon="13.3737434"><ele>137.0</ele><time>2026-04-25T08:45:00.683Z</time></trkpt><trkpt lat="41.5975445" lon="13.3738878"><ele>137.0</ele><time>2026-04-25T08:45:01.683Z</time></trkpt><trkpt lat="41.5976231" lon="13.3740261"><ele>136.75</ele><time>2026-04-25T08:45:02.683Z</time></trkpt><trkpt lat="41.5977094" lon="13.3741572"><ele>136.5</ele><time>2026-04-25T08:45:03.683Z</time></trkpt><trkpt lat="41.5978119" lon="13.3742692"><ele>136.25</ele><time>2026-04-25T08:45:04.683Z</time></trkpt><trkpt lat="41.5979286" lon="13.3743635"><ele>136.0</ele><time>2026-04-25T08:45:05.683Z</time></trkpt><trkpt lat="41.5980555" lon="13.3744525"><ele>137.0</ele><time>2026-04-25T08:45:06.683Z</time></trkpt><trkpt lat="41.5981885" lon="13.374541"><ele>138.0</ele><time>2026-04-25T08:45:07.683Z</time></trkpt><trkpt lat="41.5983295" lon="13.374615"><ele>139.0</ele><time>2026-04-25T08:45:08.683Z</time></trkpt><trkpt lat="41.598474" lon="13.3746704"><ele>139.0</ele><time>2026-04-25T08:45:09.683Z</time></trkpt><trkpt lat="41.5986337" lon="13.3747084"><ele>139.0</ele><time>2026-04-25T08:45:10.683Z</time></trkpt><trkpt lat="41.5987967" lon="13.3747331"><ele>139.0</ele><time>2026-04-25T08:45:11.683Z</time></trkpt><trkpt lat="41.5989604" lon="13.3747469"><ele>139.0</ele><time>2026-04-25T08:45:12.683Z</time></trkpt><trkpt lat="41.5991306" lon="13.3747554"><ele>139.0</ele><time>2026-04-25T08:45:13.683Z</time></trkpt><trkpt lat="41.5993021" lon="13.3747697"><ele>139.0</ele><time>2026-04-25T08:45:14.683Z</time></trkpt><trkpt lat="41.5994706" lon="13.3747821"><ele>139.66666666666669</ele><time>2026-04-25T08:45:15.683Z</time></trkpt><trkpt lat="41.5996497" lon="13.374798"><ele>140.33333333333334</ele><time>2026-04-25T08:45:16.684Z</time></trkpt><trkpt lat="41.5998285" lon="13.3748135"><ele>141.0</ele><time>2026-04-25T08:45:17.683Z</time></trkpt><trkpt lat="41.6000093" lon="13.3748282"><ele>141.0</ele><time>2026-04-25T08:45:18.683Z</time></trkpt><trkpt lat="41.60019" lon="13.3748461"><ele>141.0</ele><time>2026-04-25T08:45:19.683Z</time></trkpt><trkpt lat="41.6003721" lon="13.3748651"><ele>141.0</ele><time>2026-04-25T08:45:20.683Z</time></trkpt><trkpt lat="41.6005436" lon="13.3748829"><ele>141.33333333333334</ele><time>2026-04-25T08:45:21.683Z</time></trkpt><trkpt lat="41.6007048" lon="13.3748947"><ele>141.66666666666669</ele><time>2026-04-25T08:45:22.683Z</time></trkpt><trkpt lat="41.6008631" lon="13.3748955"><ele>142.0</ele><time>2026-04-25T08:45:23.683Z</time></trkpt><trkpt lat="41.6010246" lon="13.3749045"><ele>142.0</ele><time>2026-04-25T08:45:24.683Z</time></trkpt><trkpt lat="41.6011783" lon="13.3749138"><ele>142.0</ele><time>2026-04-25T08:45:25.683Z</time></trkpt><trkpt lat="41.6013324" lon="13.3749188"><ele>142.0</ele><time>2026-04-25T08:45:26.683Z</time></trkpt><trkpt lat="41.601488" lon="13.3749287"><ele>142.0</ele><time>2026-04-25T08:45:27.684Z</time></trkpt><trkpt lat="41.6016494" lon="13.3749576"><ele>142.0</ele><time>2026-04-25T08:45:28.683Z</time></trkpt><trkpt lat="41.6018123" lon="13.3750109"><ele>142.0</ele><time>2026-04-25T08:45:29.683Z</time></trkpt><trkpt lat="41.6019715" lon="13.3750901"><ele>141.0</ele><time>2026-04-25T08:45:30.683Z</time></trkpt><trkpt lat="41.6021438" lon="13.3751906"><ele>140.0</ele><time>2026-04-25T08:45:31.683Z</time></trkpt><trkpt lat="41.6023101" lon="13.3753013"><ele>139.0</ele><time>2026-04-25T08:45:32.683Z</time></trkpt><trkpt lat="41.6024848" lon="13.3754184"><ele>139.33333333333334</ele><time>2026-04-25T08:45:33.683Z</time></trkpt><trkpt lat="41.6026546" lon="13.3755277"><ele>139.66666666666666</ele><time>2026-04-25T08:45:34.683Z</time></trkpt><trkpt lat="41.6028316" lon="13.3756276"><ele>140.0</ele><time>2026-04-25T08:45:35.683Z</time></trkpt><trkpt lat="41.6030098" lon="13.3757217"><ele>140.0</ele><time>2026-04-25T08:45:36.683Z</time></trkpt><trkpt lat="41.6031832" lon="13.3758128"><ele>140.0</ele><time>2026-04-25T08:45:37.683Z</time></trkpt><trkpt lat="41.6033622" lon="13.3759033"><ele>140.0</ele><time>2026-04-25T08:45:38.683Z</time></trkpt><trkpt lat="41.6035494" lon="13.3759834"><ele>140.66666666666666</ele><time>2026-04-25T08:45:39.683Z</time></trkpt><trkpt lat="41.6037463" lon="13.3760498"><ele>141.33333333333334</ele><time>2026-04-25T08:45:40.683Z</time></trkpt><trkpt lat="41.6039489" lon="13.3761047"><ele>142.0</ele><time>2026-04-25T08:45:41.684Z</time></trkpt><trkpt lat="41.6041568" lon="13.3761577"><ele>142.0</ele><time>2026-04-25T08:45:42.683Z</time></trkpt><trkpt lat="41.6043627" lon="13.3762074"><ele>142.0</ele><time>2026-04-25T08:45:43.683Z</time></trkpt><trkpt lat="41.6045734" lon="13.3762615"><ele>142.0</ele><time>2026-04-25T08:45:44.683Z</time></trkpt><trkpt lat="41.6047895" lon="13.3763149"><ele>142.33333333333334</ele><time>2026-04-25T08:45:45.683Z</time></trkpt><trkpt lat="41.6050061" lon="13.3763727"><ele>142.66666666666666</ele><time>2026-04-25T08:45:46.683Z</time></trkpt><trkpt lat="41.6052206" lon="13.3764271"><ele>143.0</ele><time>2026-04-25T08:45:47.683Z</time></trkpt><trkpt lat="41.6054333" lon="13.3764819"><ele>143.33333333333331</ele><time>2026-04-25T08:45:48.683Z</time></trkpt><trkpt lat="41.6056419" lon="13.3765334"><ele>143.66666666666666</ele><time>2026-04-25T08:45:49.683Z</time></trkpt><trkpt lat="41.6058381" lon="13.3765794"><ele>144.0</ele><time>2026-04-25T08:45:50.683Z</time></trkpt><trkpt lat="41.6060315" lon="13.3766319"><ele>144.33333333333334</ele><time>2026-04-25T08:45:51.683Z</time></trkpt><trkpt lat="41.6062181" lon="13.3766878"><ele>144.66666666666669</ele><time>2026-04-25T08:45:52.683Z</time></trkpt><trkpt lat="41.6064009" lon="13.3767518"><ele>145.0</ele><time>2026-04-25T08:45:53.683Z</time></trkpt><trkpt lat="41.6065791" lon="13.3768276"><ele>145.0</ele><time>2026-04-25T08:45:54.684Z</time></trkpt><trkpt lat="41.6067499" lon="13.3769277"><ele>145.0</ele><time>2026-04-25T08:45:55.683Z</time></trkpt><trkpt lat="41.6069136" lon="13.37705"><ele>145.0</ele><time>2026-04-25T08:45:56.683Z</time></trkpt><trkpt lat="41.6070661" lon="13.3771918"><ele>144.66666666666669</ele><time>2026-04-25T08:45:57.683Z</time></trkpt><trkpt lat="41.6072085" lon="13.377348"><ele>144.33333333333334</ele><time>2026-04-25T08:45:58.683Z</time></trkpt><trkpt lat="41.6073488" lon="13.3775206"><ele>144.0</ele><time>2026-04-25T08:45:59.683Z</time></trkpt><trkpt lat="41.6074883" lon="13.3777073"><ele>144.0</ele><time>2026-04-25T08:46:00.683Z</time></trkpt><trkpt lat="41.6076272" lon="13.3778935"><ele>144.0</ele><time>2026-04-25T08:46:01.683Z</time></trkpt><trkpt lat="41.6077652" lon="13.3780778"><ele>144.0</ele><time>2026-04-25T08:46:02.683Z</time></trkpt><trkpt lat="41.6079006" lon="13.3782606"><ele>146.0</ele><time>2026-04-25T08:46:03.683Z</time></trkpt><trkpt lat="41.6080403" lon="13.3784389"><ele>148.0</ele><time>2026-04-25T08:46:04.683Z</time></trkpt><trkpt lat="41.6081806" lon="13.3786158"><ele>150.0</ele><time>2026-04-25T08:46:05.683Z</time></trkpt><trkpt lat="41.6083249" lon="13.3787839"><ele>149.33333333333334</ele><time>2026-04-25T08:46:06.683Z</time></trkpt><trkpt lat="41.6084759" lon="13.3789431"><ele>148.66666666666669</ele><time>2026-04-25T08:46:07.683Z</time></trkpt><trkpt lat="41.6086311" lon="13.3790977"><ele>148.0</ele><time>2026-04-25T08:46:08.683Z</time></trkpt><trkpt lat="41.608789" lon="13.3792594"><ele>148.0</ele><time>2026-04-25T08:46:09.683Z</time></trkpt><trkpt lat="41.6089477" lon="13.3794241"><ele>148.0</ele><time>2026-04-25T08:46:10.683Z</time></trkpt><trkpt lat="41.6091103" lon="13.3795849"><ele>148.0</ele><time>2026-04-25T08:46:11.683Z</time></trkpt><trkpt lat="41.6092771" lon="13.3797425"><ele>148.0</ele><time>2026-04-25T08:46:12.683Z</time></trkpt><trkpt lat="41.609446" lon="13.3799001"><ele>148.0</ele><time>2026-04-25T08:46:13.683Z</time></trkpt><trkpt lat="41.6096178" lon="13.380064"><ele>148.0</ele><time>2026-04-25T08:46:14.683Z</time></trkpt><trkpt lat="41.6097869" lon="13.3802241"><ele>147.66666666666669</ele><time>2026-04-25T08:46:15.683Z</time></trkpt><trkpt lat="41.6099609" lon="13.3803879"><ele>147.33333333333334</ele><time>2026-04-25T08:46:16.684Z</time></trkpt><trkpt lat="41.6101437" lon="13.3805535"><ele>147.0</ele><time>2026-04-25T08:46:17.683Z</time></trkpt><trkpt lat="41.6103263" lon="13.3807267"><ele>149.0</ele><time>2026-04-25T08:46:18.683Z</time></trkpt><trkpt lat="41.6105014" lon="13.3808984"><ele>151.0</ele><time>2026-04-25T08:46:19.683Z</time></trkpt><trkpt lat="41.6106605" lon="13.3810531"><ele>153.0</ele><time>2026-04-25T08:46:20.683Z</time></trkpt><trkpt lat="41.6108047" lon="13.3811929"><ele>153.0</ele><time>2026-04-25T08:46:21.683Z</time></trkpt><trkpt lat="41.6109421" lon="13.3813231"><ele>153.0</ele><time>2026-04-25T08:46:22.683Z</time></trkpt><trkpt lat="41.6110805" lon="13.3814372"><ele>153.0</ele><time>2026-04-25T08:46:23.683Z</time></trkpt><trkpt lat="41.6112284" lon="13.3815172"><ele>151.66666666666666</ele><time>2026-04-25T08:46:24.683Z</time></trkpt><trkpt lat="41.6113863" lon="13.3815681"><ele>150.33333333333331</ele><time>2026-04-25T08:46:25.683Z</time></trkpt><trkpt lat="41.6115464" lon="13.3816022"><ele>149.0</ele><time>2026-04-25T08:46:26.683Z</time></trkpt><trkpt lat="41.6116986" lon="13.3816291"><ele>149.0</ele><time>2026-04-25T08:46:27.683Z</time></trkpt><trkpt lat="41.6118427" lon="13.381656"><ele>149.0</ele><time>2026-04-25T08:46:28.683Z</time></trkpt><trkpt lat="41.6119839" lon="13.3816789"><ele>149.0</ele><time>2026-04-25T08:46:29.683Z</time></trkpt><trkpt lat="41.6121169" lon="13.3816751"><ele>149.0</ele><time>2026-04-25T08:46:30.683Z</time></trkpt><trkpt lat="41.6122457" lon="13.3816454"><ele>149.0</ele><time>2026-04-25T08:46:31.683Z</time></trkpt><trkpt lat="41.612367" lon="13.381588"><ele>149.0</ele><time>2026-04-25T08:46:32.683Z</time></trkpt><trkpt lat="41.6124832" lon="13.3815148"><ele>149.0</ele><time>2026-04-25T08:46:33.683Z</time></trkpt><trkpt lat="41.612579" lon="13.3814443"><ele>149.0</ele><time>2026-04-25T08:46:34.683Z</time></trkpt><trkpt lat="41.6126727" lon="13.3813752"><ele>150.25</ele><time>2026-04-25T08:46:35.683Z</time></trkpt><trkpt lat="41.6127743" lon="13.3813177"><ele>151.5</ele><time>2026-04-25T08:46:36.683Z</time></trkpt><trkpt lat="41.6128768" lon="13.381309"><ele>152.75</ele><time>2026-04-25T08:46:37.683Z</time></trkpt><trkpt lat="41.6129878" lon="13.3813448"><ele>154.0</ele><time>2026-04-25T08:46:38.683Z</time></trkpt><trkpt lat="41.6130982" lon="13.3814155"><ele>154.0</ele><time>2026-04-25T08:46:39.683Z</time></trkpt><trkpt lat="41.6132165" lon="13.3815052"><ele>154.0</ele><time>2026-04-25T08:46:40.683Z</time></trkpt><trkpt lat="41.6133443" lon="13.3816082"><ele>154.0</ele><time>2026-04-25T08:46:41.683Z</time></trkpt><trkpt lat="41.6134776" lon="13.3817161"><ele>154.0</ele><time>2026-04-25T08:46:42.683Z</time></trkpt><trkpt lat="41.6136177" lon="13.3818371"><ele>152.33333333333334</ele><time>2026-04-25T08:46:43.683Z</time></trkpt><trkpt lat="41.6137416" lon="13.3819806"><ele>150.66666666666666</ele><time>2026-04-25T08:46:44.683Z</time></trkpt><trkpt lat="41.6138831" lon="13.3821154"><ele>149.0</ele><time>2026-04-25T08:46:45.683Z</time></trkpt><trkpt lat="41.6140246" lon="13.3822407"><ele>149.0</ele><time>2026-04-25T08:46:46.684Z</time></trkpt><trkpt lat="41.614165" lon="13.3823641"><ele>149.0</ele><time>2026-04-25T08:46:47.683Z</time></trkpt><trkpt lat="41.614305" lon="13.3825023"><ele>149.0</ele><time>2026-04-25T08:46:48.683Z</time></trkpt><trkpt lat="41.6144346" lon="13.3826659"><ele>149.33333333333331</ele><time>2026-04-25T08:46:49.683Z</time></trkpt><trkpt lat="41.6145482" lon="13.3828253"><ele>149.66666666666666</ele><time>2026-04-25T08:46:50.683Z</time></trkpt><trkpt lat="41.6146549" lon="13.3829776"><ele>150.0</ele><time>2026-04-25T08:46:51.683Z</time></trkpt><trkpt lat="41.6147529" lon="13.3831263"><ele>150.5</ele><time>2026-04-25T08:46:52.683Z</time></trkpt><trkpt lat="41.6148472" lon="13.3832606"><ele>151.0</ele><time>2026-04-25T08:46:53.683Z</time></trkpt><trkpt lat="41.6149461" lon="13.3833776"><ele>151.5</ele><time>2026-04-25T08:46:54.683Z</time></trkpt><trkpt lat="41.615057" lon="13.3834778"><ele>152.0</ele><time>2026-04-25T08:46:55.683Z</time></trkpt><trkpt lat="41.6152087" lon="13.3835443"><ele>152.66666666666666</ele><time>2026-04-25T08:46:56.683Z</time></trkpt><trkpt lat="41.6153664" lon="13.3835852"><ele>153.33333333333334</ele><time>2026-04-25T08:46:57.683Z</time></trkpt><trkpt lat="41.6155306" lon="13.3836173"><ele>154.0</ele><time>2026-04-25T08:46:58.683Z</time></trkpt><trkpt lat="41.6157058" lon="13.3836422"><ele>154.0</ele><time>2026-04-25T08:46:59.683Z</time></trkpt><trkpt lat="41.6158804" lon="13.3836795"><ele>154.0</ele><time>2026-04-25T08:47:00.683Z</time></trkpt><trkpt lat="41.6160522" lon="13.3837203"><ele>154.0</ele><time>2026-04-25T08:47:01.683Z</time></trkpt><trkpt lat="41.6162129" lon="13.3837507"><ele>152.33333333333334</ele><time>2026-04-25T08:47:02.683Z</time></trkpt><trkpt lat="41.6163718" lon="13.3837776"><ele>150.66666666666666</ele><time>2026-04-25T08:47:03.684Z</time></trkpt><trkpt lat="41.6165302" lon="13.3838003"><ele>149.0</ele><time>2026-04-25T08:47:04.683Z</time></trkpt><trkpt lat="41.6166846" lon="13.3838209"><ele>149.66666666666666</ele><time>2026-04-25T08:47:05.683Z</time></trkpt><trkpt lat="41.6168386" lon="13.3838498"><ele>150.33333333333334</ele><time>2026-04-25T08:47:06.683Z</time></trkpt><trkpt lat="41.616989" lon="13.383881"><ele>151.0</ele><time>2026-04-25T08:47:07.683Z</time></trkpt><trkpt lat="41.6171419" lon="13.3839494"><ele>151.0</ele><time>2026-04-25T08:47:08.683Z</time></trkpt><trkpt lat="41.6172978" lon="13.3840286"><ele>151.0</ele><time>2026-04-25T08:47:09.683Z</time></trkpt><trkpt lat="41.6174538" lon="13.3841211"><ele>151.0</ele><time>2026-04-25T08:47:10.683Z</time></trkpt><trkpt lat="41.6176146" lon="13.3842218"><ele>151.0</ele><time>2026-04-25T08:47:11.683Z</time></trkpt><trkpt lat="41.6177714" lon="13.384327"><ele>151.0</ele><time>2026-04-25T08:47:12.683Z</time></trkpt><trkpt lat="41.6179271" lon="13.3844431"><ele>151.0</ele><time>2026-04-25T08:47:13.683Z</time></trkpt><trkpt lat="41.6180936" lon="13.3845647"><ele>151.33333333333334</ele><time>2026-04-25T08:47:14.683Z</time></trkpt><trkpt lat="41.6182651" lon="13.3846759"><ele>151.66666666666666</ele><time>2026-04-25T08:47:15.683Z</time></trkpt><trkpt lat="41.6184271" lon="13.3847836"><ele>152.0</ele><time>2026-04-25T08:47:16.683Z</time></trkpt><trkpt lat="41.6185944" lon="13.3848824"><ele>151.66666666666666</ele><time>2026-04-25T08:47:17.683Z</time></trkpt><trkpt lat="41.6187648" lon="13.3849908"><ele>151.33333333333334</ele><time>2026-04-25T08:47:18.683Z</time></trkpt><trkpt lat="41.6189205" lon="13.3851108"><ele>151.0</ele><time>2026-04-25T08:47:19.683Z</time></trkpt><trkpt lat="41.6190698" lon="13.3852281"><ele>151.0</ele><time>2026-04-25T08:47:20.683Z</time></trkpt><trkpt lat="41.6192128" lon="13.3853471"><ele>151.0</ele><time>2026-04-25T08:47:21.683Z</time></trkpt><trkpt lat="41.6193433" lon="13.385462"><ele>151.0</ele><time>2026-04-25T08:47:22.683Z</time></trkpt><trkpt lat="41.6194717" lon="13.3855807"><ele>151.33333333333334</ele><time>2026-04-25T08:47:23.683Z</time></trkpt><trkpt lat="41.6196012" lon="13.3856936"><ele>151.66666666666666</ele><time>2026-04-25T08:47:24.684Z</time></trkpt><trkpt lat="41.6197302" lon="13.3858103"><ele>152.0</ele><time>2026-04-25T08:47:25.683Z</time></trkpt><trkpt lat="41.6198622" lon="13.3859243"><ele>152.0</ele><time>2026-04-25T08:47:26.683Z</time></trkpt><trkpt lat="41.6200021" lon="13.3860266"><ele>152.0</ele><time>2026-04-25T08:47:27.683Z</time></trkpt><trkpt lat="41.6201454" lon="13.3861121"><ele>152.0</ele><time>2026-04-25T08:47:28.683Z</time></trkpt><trkpt lat="41.6202905" lon="13.3861882"><ele>152.5</ele><time>2026-04-25T08:47:29.683Z</time></trkpt><trkpt lat="41.6204226" lon="13.3862486"><ele>153.0</ele><time>2026-04-25T08:47:30.683Z</time></trkpt><trkpt lat="41.6205579" lon="13.3862969"><ele>153.5</ele><time>2026-04-25T08:47:31.683Z</time></trkpt><trkpt lat="41.6206802" lon="13.3863388"><ele>154.0</ele><time>2026-04-25T08:47:32.683Z</time></trkpt><trkpt lat="41.6207888" lon="13.3863719"><ele>154.5</ele><time>2026-04-25T08:47:33.683Z</time></trkpt><trkpt lat="41.620882" lon="13.3864055"><ele>155.0</ele><time>2026-04-25T08:47:34.683Z</time></trkpt><trkpt lat="41.6209709" lon="13.3864266"><ele>155.5</ele><time>2026-04-25T08:47:35.683Z</time></trkpt><trkpt lat="41.6210469" lon="13.3864453"><ele>156.0</ele><time>2026-04-25T08:47:36.683Z</time></trkpt><trkpt lat="41.6211488" lon="13.3864664"><ele>156.5</ele><time>2026-04-25T08:47:38.683Z</time></trkpt><trkpt lat="41.6212226" lon="13.3864967"><ele>157.0</ele><time>2026-04-25T08:47:50.683Z</time></trkpt><trkpt lat="41.6213008" lon="13.38647"><ele>157.0</ele><time>2026-04-25T08:47:52.683Z</time></trkpt><trkpt lat="41.6213536" lon="13.3864231"><ele>157.0</ele><time>2026-04-25T08:47:53.683Z</time></trkpt><trkpt lat="41.6214191" lon="13.386351"><ele>157.0</ele><time>2026-04-25T08:47:54.683Z</time></trkpt><trkpt lat="41.6214993" lon="13.3862631"><ele>157.0</ele><time>2026-04-25T08:47:55.683Z</time></trkpt><trkpt lat="41.6215881" lon="13.3861741"><ele>157.0</ele><time>2026-04-25T08:47:56.683Z</time></trkpt><trkpt lat="41.6216887" lon="13.3860735"><ele>156.75</ele><time>2026-04-25T08:47:57.683Z</time></trkpt><trkpt lat="41.6217958" lon="13.3859604"><ele>156.5</ele><time>2026-04-25T08:47:58.683Z</time></trkpt><trkpt lat="41.6219051" lon="13.3858404"><ele>156.25</ele><time>2026-04-25T08:47:59.683Z</time></trkpt><trkpt lat="41.6220245" lon="13.3857077"><ele>156.0</ele><time>2026-04-25T08:48:00.683Z</time></trkpt><trkpt lat="41.6221458" lon="13.3855856"><ele>155.75</ele><time>2026-04-25T08:48:01.684Z</time></trkpt><trkpt lat="41.6222538" lon="13.3854685"><ele>155.5</ele><time>2026-04-25T08:48:02.683Z</time></trkpt><trkpt lat="41.6223584" lon="13.385347"><ele>155.25</ele><time>2026-04-25T08:48:03.684Z</time></trkpt><trkpt lat="41.6224596" lon="13.385244"><ele>155.0</ele><time>2026-04-25T08:48:04.683Z</time></trkpt><trkpt lat="41.6225584" lon="13.3851542"><ele>155.0</ele><time>2026-04-25T08:48:05.683Z</time></trkpt><trkpt lat="41.6226385" lon="13.3850825"><ele>155.0</ele><time>2026-04-25T08:48:06.683Z</time></trkpt><trkpt lat="41.6227075" lon="13.3850351"><ele>155.0</ele><time>2026-04-25T08:48:07.683Z</time></trkpt><trkpt lat="41.6228321" lon="13.3850059"><ele>155.0</ele><time>2026-04-25T08:48:09.683Z</time></trkpt><trkpt lat="41.6228993" lon="13.3850182"><ele>155.0</ele><time>2026-04-25T08:48:10.683Z</time></trkpt><trkpt lat="41.6229784" lon="13.3850404"><ele>155.0</ele><time>2026-04-25T08:48:11.683Z</time></trkpt><trkpt lat="41.6230638" lon="13.3850746"><ele>155.2</ele><time>2026-04-25T08:48:12.683Z</time></trkpt><trkpt lat="41.6231507" lon="13.3851173"><ele>155.4</ele><time>2026-04-25T08:48:13.683Z</time></trkpt><trkpt lat="41.6232364" lon="13.3851658"><ele>155.6</ele><time>2026-04-25T08:48:14.683Z</time></trkpt><trkpt lat="41.6233336" lon="13.3852141"><ele>155.8</ele><time>2026-04-25T08:48:15.683Z</time></trkpt><trkpt lat="41.6234473" lon="13.3852448"><ele>156.0</ele><time>2026-04-25T08:48:16.683Z</time></trkpt><trkpt lat="41.6235662" lon="13.3852605"><ele>156.5</ele><time>2026-04-25T08:48:17.683Z</time></trkpt><trkpt lat="41.6236844" lon="13.3852834"><ele>157.0</ele><time>2026-04-25T08:48:18.683Z</time></trkpt><trkpt lat="41.6238089" lon="13.3853011"><ele>157.5</ele><time>2026-04-25T08:48:19.683Z</time></trkpt><trkpt lat="41.6239374" lon="13.3853143"><ele>158.0</ele><time>2026-04-25T08:48:20.683Z</time></trkpt><trkpt lat="41.6240756" lon="13.3853356"><ele>158.0</ele><time>2026-04-25T08:48:21.683Z</time></trkpt><trkpt lat="41.6242098" lon="13.3853513"><ele>158.0</ele><time>2026-04-25T08:48:22.683Z</time></trkpt><trkpt lat="41.6243512" lon="13.3853659"><ele>158.0</ele><time>2026-04-25T08:48:23.683Z</time></trkpt><trkpt lat="41.6244734" lon="13.3853659"><ele>158.0</ele><time>2026-04-25T08:48:24.683Z</time></trkpt><trkpt lat="41.6245908" lon="13.385352"><ele>158.8</ele><time>2026-04-25T08:48:25.683Z</time></trkpt><trkpt lat="41.6247008" lon="13.38532"><ele>159.60000000000002</ele><time>2026-04-25T08:48:26.683Z</time></trkpt><trkpt lat="41.6248047" lon="13.3852894"><ele>160.39999999999998</ele><time>2026-04-25T08:48:27.683Z</time></trkpt><trkpt lat="41.6249075" lon="13.3852741"><ele>161.2</ele><time>2026-04-25T08:48:28.683Z</time></trkpt><trkpt lat="41.6250125" lon="13.3852734"><ele>162.0</ele><time>2026-04-25T08:48:29.683Z</time></trkpt><trkpt lat="41.6251278" lon="13.3852768"><ele>162.0</ele><time>2026-04-25T08:48:30.683Z</time></trkpt><trkpt lat="41.6252329" lon="13.3853042"><ele>162.0</ele><time>2026-04-25T08:48:31.683Z</time></trkpt><trkpt lat="41.6253375" lon="13.3853437"><ele>162.0</ele><time>2026-04-25T08:48:32.683Z</time></trkpt><trkpt lat="41.6254454" lon="13.3853859"><ele>162.0</ele><time>2026-04-25T08:48:33.683Z</time></trkpt><trkpt lat="41.6255493" lon="13.3854316"><ele>162.0</ele><time>2026-04-25T08:48:34.683Z</time></trkpt><trkpt lat="41.6256528" lon="13.3854786"><ele>161.0</ele><time>2026-04-25T08:48:35.683Z</time></trkpt><trkpt lat="41.6257604" lon="13.385524"><ele>160.0</ele><time>2026-04-25T08:48:36.683Z</time></trkpt><trkpt lat="41.6258751" lon="13.3855663"><ele>159.0</ele><time>2026-04-25T08:48:37.683Z</time></trkpt><trkpt lat="41.6259908" lon="13.3856025"><ele>158.0</ele><time>2026-04-25T08:48:38.683Z</time></trkpt><trkpt lat="41.6261262" lon="13.3856192"><ele>158.0</ele><time>2026-04-25T08:48:39.683Z</time></trkpt><trkpt lat="41.6262647" lon="13.385624"><ele>158.0</ele><time>2026-04-25T08:48:40.683Z</time></trkpt><trkpt lat="41.6264086" lon="13.3856197"><ele>158.0</ele><time>2026-04-25T08:48:41.683Z</time></trkpt><trkpt lat="41.6265602" lon="13.3856017"><ele>158.0</ele><time>2026-04-25T08:48:42.683Z</time></trkpt><trkpt lat="41.6267162" lon="13.3855696"><ele>158.0</ele><time>2026-04-25T08:48:43.683Z</time></trkpt><trkpt lat="41.6268817" lon="13.3855332"><ele>158.0</ele><time>2026-04-25T08:48:44.683Z</time></trkpt><trkpt lat="41.627049" lon="13.3854989"><ele>158.0</ele><time>2026-04-25T08:48:45.683Z</time></trkpt><trkpt lat="41.6272192" lon="13.3854734"><ele>160.33333333333331</ele><time>2026-04-25T08:48:46.683Z</time></trkpt><trkpt lat="41.627384" lon="13.3854517"><ele>162.66666666666666</ele><time>2026-04-25T08:48:47.683Z</time></trkpt><trkpt lat="41.6275417" lon="13.3854346"><ele>165.0</ele><time>2026-04-25T08:48:48.683Z</time></trkpt><trkpt lat="41.6276999" lon="13.385428"><ele>166.66666666666666</ele><time>2026-04-25T08:48:49.683Z</time></trkpt><trkpt lat="41.6278586" lon="13.3854386"><ele>168.33333333333331</ele><time>2026-04-25T08:48:50.683Z</time></trkpt><trkpt lat="41.6280197" lon="13.3854703"><ele>170.0</ele><time>2026-04-25T08:48:51.683Z</time></trkpt><trkpt lat="41.6281758" lon="13.3854995"><ele>167.33333333333331</ele><time>2026-04-25T08:48:52.683Z</time></trkpt><trkpt lat="41.6283246" lon="13.3855372"><ele>164.66666666666666</ele><time>2026-04-25T08:48:53.683Z</time></trkpt><trkpt lat="41.628479" lon="13.3855747"><ele>162.0</ele><time>2026-04-25T08:48:54.684Z</time></trkpt><trkpt lat="41.6286283" lon="13.38562"><ele>162.33333333333334</ele><time>2026-04-25T08:48:55.684Z</time></trkpt><trkpt lat="41.6287729" lon="13.3856734"><ele>162.66666666666669</ele><time>2026-04-25T08:48:56.683Z</time></trkpt><trkpt lat="41.6289148" lon="13.3857473"><ele>163.0</ele><time>2026-04-25T08:48:57.683Z</time></trkpt><trkpt lat="41.6290501" lon="13.3858391"><ele>163.0</ele><time>2026-04-25T08:48:58.684Z</time></trkpt><trkpt lat="41.6291797" lon="13.3859508"><ele>163.0</ele><time>2026-04-25T08:48:59.683Z</time></trkpt><trkpt lat="41.6293082" lon="13.3860814"><ele>163.0</ele><time>2026-04-25T08:49:00.683Z</time></trkpt><trkpt lat="41.6294371" lon="13.3862211"><ele>163.0</ele><time>2026-04-25T08:49:01.683Z</time></trkpt><trkpt lat="41.629564" lon="13.3863584"><ele>163.0</ele><time>2026-04-25T08:49:02.683Z</time></trkpt><trkpt lat="41.6296888" lon="13.3864936"><ele>163.0</ele><time>2026-04-25T08:49:03.683Z</time></trkpt><trkpt lat="41.6298053" lon="13.3866166"><ele>163.0</ele><time>2026-04-25T08:49:04.683Z</time></trkpt><trkpt lat="41.6299204" lon="13.3867143"><ele>163.0</ele><time>2026-04-25T08:49:05.683Z</time></trkpt><trkpt lat="41.6300437" lon="13.3867651"><ele>163.0</ele><time>2026-04-25T08:49:06.683Z</time></trkpt><trkpt lat="41.6301786" lon="13.386794"><ele>163.0</ele><time>2026-04-25T08:49:07.683Z</time></trkpt><trkpt lat="41.6303192" lon="13.3867941"><ele>163.33333333333334</ele><time>2026-04-25T08:49:08.683Z</time></trkpt><trkpt lat="41.6304715" lon="13.3867789"><ele>163.66666666666666</ele><time>2026-04-25T08:49:09.683Z</time></trkpt><trkpt lat="41.6306248" lon="13.386766"><ele>164.0</ele><time>2026-04-25T08:49:10.683Z</time></trkpt><trkpt lat="41.6307868" lon="13.3867427"><ele>164.0</ele><time>2026-04-25T08:49:11.683Z</time></trkpt><trkpt lat="41.6309526" lon="13.3867193"><ele>164.0</ele><time>2026-04-25T08:49:12.683Z</time></trkpt><trkpt lat="41.6311211" lon="13.3866963"><ele>164.0</ele><time>2026-04-25T08:49:13.683Z</time></trkpt><trkpt lat="41.6313005" lon="13.3866661"><ele>163.33333333333331</ele><time>2026-04-25T08:49:14.683Z</time></trkpt><trkpt lat="41.6314849" lon="13.3866361"><ele>162.66666666666666</ele><time>2026-04-25T08:49:15.683Z</time></trkpt><trkpt lat="41.6316619" lon="13.3866079"><ele>162.0</ele><time>2026-04-25T08:49:16.683Z</time></trkpt><trkpt lat="41.6318292" lon="13.3865928"><ele>162.33333333333334</ele><time>2026-04-25T08:49:17.683Z</time></trkpt><trkpt lat="41.6319873" lon="13.3865689"><ele>162.66666666666669</ele><time>2026-04-25T08:49:18.683Z</time></trkpt><trkpt lat="41.6321366" lon="13.3865437"><ele>163.0</ele><time>2026-04-25T08:49:19.683Z</time></trkpt><trkpt lat="41.632277" lon="13.3865226"><ele>163.0</ele><time>2026-04-25T08:49:20.683Z</time></trkpt><trkpt lat="41.6324137" lon="13.3865196"><ele>163.0</ele><time>2026-04-25T08:49:21.683Z</time></trkpt><trkpt lat="41.6325438" lon="13.3865486"><ele>163.0</ele><time>2026-04-25T08:49:22.683Z</time></trkpt><trkpt lat="41.632661" lon="13.3866133"><ele>163.0</ele><time>2026-04-25T08:49:23.683Z</time></trkpt><trkpt lat="41.632761" lon="13.3867113"><ele>165.75</ele><time>2026-04-25T08:49:24.683Z</time></trkpt><trkpt lat="41.6328487" lon="13.3868143"><ele>168.5</ele><time>2026-04-25T08:49:25.683Z</time></trkpt><trkpt lat="41.632944" lon="13.3869079"><ele>171.25</ele><time>2026-04-25T08:49:26.683Z</time></trkpt><trkpt lat="41.6330519" lon="13.387001"><ele>174.0</ele><time>2026-04-25T08:49:27.683Z</time></trkpt><trkpt lat="41.6331645" lon="13.3870625"><ele>174.0</ele><time>2026-04-25T08:49:28.683Z</time></trkpt><trkpt lat="41.6332823" lon="13.3870971"><ele>174.0</ele><time>2026-04-25T08:49:29.683Z</time></trkpt><trkpt lat="41.6334125" lon="13.3871313"><ele>174.0</ele><time>2026-04-25T08:49:30.683Z</time></trkpt><trkpt lat="41.6335543" lon="13.3871746"><ele>174.0</ele><time>2026-04-25T08:49:31.683Z</time></trkpt><trkpt lat="41.6336949" lon="13.3872498"><ele>171.0</ele><time>2026-04-25T08:49:32.683Z</time></trkpt><trkpt lat="41.6338441" lon="13.3873429"><ele>168.0</ele><time>2026-04-25T08:49:33.683Z</time></trkpt><trkpt lat="41.633991" lon="13.387454"><ele>165.0</ele><time>2026-04-25T08:49:34.683Z</time></trkpt><trkpt lat="41.6341461" lon="13.3875645"><ele>165.0</ele><time>2026-04-25T08:49:35.683Z</time></trkpt><trkpt lat="41.6342907" lon="13.3876923"><ele>165.0</ele><time>2026-04-25T08:49:36.683Z</time></trkpt><trkpt lat="41.6344301" lon="13.3878213"><ele>165.0</ele><time>2026-04-25T08:49:37.683Z</time></trkpt><trkpt lat="41.6345563" lon="13.3879499"><ele>166.5</ele><time>2026-04-25T08:49:38.683Z</time></trkpt><trkpt lat="41.6346606" lon="13.3880828"><ele>168.0</ele><time>2026-04-25T08:49:39.683Z</time></trkpt><trkpt lat="41.6347445" lon="13.3882304"><ele>169.5</ele><time>2026-04-25T08:49:40.683Z</time></trkpt><trkpt lat="41.6348126" lon="13.3883812"><ele>171.0</ele><time>2026-04-25T08:49:41.683Z</time></trkpt><trkpt lat="41.6348808" lon="13.388527"><ele>171.0</ele><time>2026-04-25T08:49:42.683Z</time></trkpt><trkpt lat="41.6349505" lon="13.3886698"><ele>171.0</ele><time>2026-04-25T08:49:43.683Z</time></trkpt><trkpt lat="41.63502" lon="13.3888148"><ele>171.0</ele><time>2026-04-25T08:49:44.684Z</time></trkpt><trkpt lat="41.6350898" lon="13.3889637"><ele>171.0</ele><time>2026-04-25T08:49:45.683Z</time></trkpt><trkpt lat="41.6351763" lon="13.3891022"><ele>170.5</ele><time>2026-04-25T08:49:46.683Z</time></trkpt><trkpt lat="41.6352771" lon="13.3892247"><ele>170.0</ele><time>2026-04-25T08:49:47.683Z</time></trkpt><trkpt lat="41.6353923" lon="13.3893452"><ele>169.5</ele><time>2026-04-25T08:49:48.683Z</time></trkpt><trkpt lat="41.6355158" lon="13.3894536"><ele>169.0</ele><time>2026-04-25T08:49:49.683Z</time></trkpt><trkpt lat="41.635645" lon="13.389558"><ele>167.0</ele><time>2026-04-25T08:49:50.683Z</time></trkpt><trkpt lat="41.6357791" lon="13.3896845"><ele>165.0</ele><time>2026-04-25T08:49:51.683Z</time></trkpt><trkpt lat="41.6359205" lon="13.389812"><ele>163.0</ele><time>2026-04-25T08:49:52.683Z</time></trkpt><trkpt lat="41.6360628" lon="13.3899424"><ele>165.33333333333334</ele><time>2026-04-25T08:49:53.683Z</time></trkpt><trkpt lat="41.636212" lon="13.3900797"><ele>167.66666666666666</ele><time>2026-04-25T08:49:54.684Z</time></trkpt><trkpt lat="41.6363564" lon="13.3902129"><ele>170.0</ele><time>2026-04-25T08:49:55.683Z</time></trkpt><trkpt lat="41.6365002" lon="13.3903435"><ele>170.0</ele><time>2026-04-25T08:49:56.683Z</time></trkpt><trkpt lat="41.6366486" lon="13.3904828"><ele>170.0</ele><time>2026-04-25T08:49:57.684Z</time></trkpt><trkpt lat="41.6367929" lon="13.3906108"><ele>170.0</ele><time>2026-04-25T08:49:58.683Z</time></trkpt><trkpt lat="41.6369333" lon="13.3907272"><ele>171.0</ele><time>2026-04-25T08:49:59.683Z</time></trkpt><trkpt lat="41.6370754" lon="13.3908368"><ele>172.0</ele><time>2026-04-25T08:50:00.683Z</time></trkpt><trkpt lat="41.6372139" lon="13.3909432"><ele>173.0</ele><time>2026-04-25T08:50:01.683Z</time></trkpt><trkpt lat="41.637341" lon="13.3910399"><ele>173.0</ele><time>2026-04-25T08:50:02.683Z</time></trkpt><trkpt lat="41.6374759" lon="13.3911335"><ele>173.0</ele><time>2026-04-25T08:50:03.683Z</time></trkpt><trkpt lat="41.6376062" lon="13.3912324"><ele>173.0</ele><time>2026-04-25T08:50:04.683Z</time></trkpt><trkpt lat="41.6377404" lon="13.3913365"><ele>172.66666666666666</ele><time>2026-04-25T08:50:05.683Z</time></trkpt><trkpt lat="41.6378849" lon="13.3914484"><ele>172.33333333333334</ele><time>2026-04-25T08:50:06.683Z</time></trkpt><trkpt lat="41.6380306" lon="13.3915593"><ele>172.0</ele><time>2026-04-25T08:50:07.683Z</time></trkpt><trkpt lat="41.6381855" lon="13.3916787"><ele>172.0</ele><time>2026-04-25T08:50:08.683Z</time></trkpt><trkpt lat="41.6383343" lon="13.3918044"><ele>172.0</ele><time>2026-04-25T08:50:09.683Z</time></trkpt><trkpt lat="41.6384919" lon="13.3919309"><ele>172.0</ele><time>2026-04-25T08:50:10.683Z</time></trkpt><trkpt lat="41.6386552" lon="13.3920682"><ele>171.0</ele><time>2026-04-25T08:50:11.683Z</time></trkpt><trkpt lat="41.638811" lon="13.3922026"><ele>170.0</ele><time>2026-04-25T08:50:12.684Z</time></trkpt><trkpt lat="41.638966" lon="13.392334"><ele>169.0</ele><time>2026-04-25T08:50:13.684Z</time></trkpt><trkpt lat="41.6391246" lon="13.3924628"><ele>169.0</ele><time>2026-04-25T08:50:14.683Z</time></trkpt><trkpt lat="41.6392734" lon="13.3925969"><ele>169.0</ele><time>2026-04-25T08:50:15.683Z</time></trkpt><trkpt lat="41.6394263" lon="13.3927233"><ele>169.0</ele><time>2026-04-25T08:50:16.683Z</time></trkpt><trkpt lat="41.6395799" lon="13.3928443"><ele>168.33333333333334</ele><time>2026-04-25T08:50:17.683Z</time></trkpt><trkpt lat="41.6397186" lon="13.3929646"><ele>167.66666666666666</ele><time>2026-04-25T08:50:18.683Z</time></trkpt><trkpt lat="41.639844" lon="13.3931092"><ele>167.0</ele><time>2026-04-25T08:50:19.683Z</time></trkpt><trkpt lat="41.6399549" lon="13.3932496"><ele>167.0</ele><time>2026-04-25T08:50:20.683Z</time></trkpt><trkpt lat="41.6400492" lon="13.3934112"><ele>167.0</ele><time>2026-04-25T08:50:21.683Z</time></trkpt><trkpt lat="41.6401286" lon="13.3935795"><ele>167.0</ele><time>2026-04-25T08:50:22.683Z</time></trkpt><trkpt lat="41.6401999" lon="13.3937574"><ele>166.66666666666666</ele><time>2026-04-25T08:50:23.683Z</time></trkpt><trkpt lat="41.6402532" lon="13.3939442"><ele>166.33333333333334</ele><time>2026-04-25T08:50:24.683Z</time></trkpt><trkpt lat="41.6402905" lon="13.3941382"><ele>166.0</ele><time>2026-04-25T08:50:25.684Z</time></trkpt><trkpt lat="41.6403241" lon="13.3943369"><ele>169.33333333333334</ele><time>2026-04-25T08:50:26.683Z</time></trkpt><trkpt lat="41.6403578" lon="13.3945388"><ele>172.66666666666666</ele><time>2026-04-25T08:50:27.683Z</time></trkpt><trkpt lat="41.6403924" lon="13.3947496"><ele>176.0</ele><time>2026-04-25T08:50:28.683Z</time></trkpt><trkpt lat="41.6404326" lon="13.3949718"><ele>176.0</ele><time>2026-04-25T08:50:29.683Z</time></trkpt><trkpt lat="41.6404647" lon="13.3951881"><ele>176.0</ele><time>2026-04-25T08:50:30.683Z</time></trkpt><trkpt lat="41.6404951" lon="13.3954168"><ele>176.0</ele><time>2026-04-25T08:50:31.683Z</time></trkpt><trkpt lat="41.6405249" lon="13.3956699"><ele>174.66666666666666</ele><time>2026-04-25T08:50:32.683Z</time></trkpt><trkpt lat="41.6405498" lon="13.3959251"><ele>173.33333333333334</ele><time>2026-04-25T08:50:33.683Z</time></trkpt><trkpt lat="41.6405843" lon="13.3961924"><ele>172.0</ele><time>2026-04-25T08:50:34.683Z</time></trkpt><trkpt lat="41.6406232" lon="13.3964631"><ele>171.66666666666669</ele><time>2026-04-25T08:50:35.683Z</time></trkpt><trkpt lat="41.6406652" lon="13.3967234"><ele>171.33333333333334</ele><time>2026-04-25T08:50:36.683Z</time></trkpt><trkpt lat="41.640719" lon="13.3970088"><ele>171.0</ele><time>2026-04-25T08:50:37.683Z</time></trkpt><trkpt lat="41.6407616" lon="13.3972778"><ele>171.0</ele><time>2026-04-25T08:50:38.683Z</time></trkpt><trkpt lat="41.6408118" lon="13.3975714"><ele>171.0</ele><time>2026-04-25T08:50:39.683Z</time></trkpt><trkpt lat="41.6408634" lon="13.3978527"><ele>171.0</ele><time>2026-04-25T08:50:40.684Z</time></trkpt><trkpt lat="41.6409083" lon="13.3981327"><ele>171.33333333333334</ele><time>2026-04-25T08:50:41.683Z</time></trkpt><trkpt lat="41.6409388" lon="13.3983944"><ele>171.66666666666669</ele><time>2026-04-25T08:50:42.683Z</time></trkpt><trkpt lat="41.6409626" lon="13.3986158"><ele>172.0</ele><time>2026-04-25T08:50:43.683Z</time></trkpt><trkpt lat="41.6409948" lon="13.3987844"><ele>171.75</ele><time>2026-04-25T08:50:44.683Z</time></trkpt><trkpt lat="41.6410042" lon="13.398931"><ele>171.5</ele><time>2026-04-25T08:50:45.684Z</time></trkpt><trkpt lat="41.6410019" lon="13.3991064"><ele>171.25</ele><time>2026-04-25T08:50:46.683Z</time></trkpt><trkpt lat="41.6409935" lon="13.3992786"><ele>171.0</ele><time>2026-04-25T08:50:47.683Z</time></trkpt><trkpt lat="41.6409751" lon="13.3994635"><ele>171.0</ele><time>2026-04-25T08:50:48.683Z</time></trkpt><trkpt lat="41.6409515" lon="13.3996407"><ele>171.0</ele><time>2026-04-25T08:50:49.683Z</time></trkpt><trkpt lat="41.6409288" lon="13.3997883"><ele>171.0</ele><time>2026-04-25T08:50:50.684Z</time></trkpt><trkpt lat="41.6409044" lon="13.3999503"><ele>171.0</ele><time>2026-04-25T08:50:51.683Z</time></trkpt><trkpt lat="41.6408824" lon="13.4001215"><ele>171.20000000000002</ele><time>2026-04-25T08:50:52.683Z</time></trkpt><trkpt lat="41.640849" lon="13.4002618"><ele>171.4</ele><time>2026-04-25T08:50:53.684Z</time></trkpt><trkpt lat="41.6408169" lon="13.4003914"><ele>171.6</ele><time>2026-04-25T08:50:54.683Z</time></trkpt><trkpt lat="41.6407747" lon="13.400554"><ele>171.8</ele><time>2026-04-25T08:50:55.683Z</time></trkpt><trkpt lat="41.6407498" lon="13.4006606"><ele>172.0</ele><time>2026-04-25T08:50:56.683Z</time></trkpt><trkpt lat="41.6407412" lon="13.4007485"><ele>172.5</ele><time>2026-04-25T08:50:57.683Z</time></trkpt><trkpt lat="41.640763" lon="13.4008482"><ele>173.0</ele><time>2026-04-25T08:50:59.683Z</time></trkpt><trkpt lat="41.6407897" lon="13.4009576"><ele>173.5</ele><time>2026-04-25T08:51:01.683Z</time></trkpt><trkpt lat="41.6408523" lon="13.4010105"><ele>174.0</ele><time>2026-04-25T08:51:03.683Z</time></trkpt><trkpt lat="41.6409719" lon="13.4010538"><ele>174.5</ele><time>2026-04-25T08:51:05.683Z</time></trkpt><trkpt lat="41.6410439" lon="13.4010786"><ele>175.0</ele><time>2026-04-25T08:51:06.683Z</time></trkpt><trkpt lat="41.6411318" lon="13.4010984"><ele>175.0</ele><time>2026-04-25T08:51:07.683Z</time></trkpt><trkpt lat="41.6412255" lon="13.4011274"><ele>175.0</ele><time>2026-04-25T08:51:08.683Z</time></trkpt><trkpt lat="41.6413215" lon="13.4011666"><ele>175.0</ele><time>2026-04-25T08:51:09.683Z</time></trkpt><trkpt lat="41.6414247" lon="13.4012134"><ele>175.0</ele><time>2026-04-25T08:51:10.683Z</time></trkpt><trkpt lat="41.6415339" lon="13.4012619"><ele>175.0</ele><time>2026-04-25T08:51:11.683Z</time></trkpt><trkpt lat="41.6416397" lon="13.4013183"><ele>174.75</ele><time>2026-04-25T08:51:12.683Z</time></trkpt><trkpt lat="41.6417566" lon="13.4014056"><ele>174.5</ele><time>2026-04-25T08:51:13.683Z</time></trkpt><trkpt lat="41.6418482" lon="13.401501"><ele>174.25</ele><time>2026-04-25T08:51:14.683Z</time></trkpt><trkpt lat="41.6419341" lon="13.401595"><ele>174.0</ele><time>2026-04-25T08:51:15.683Z</time></trkpt><trkpt lat="41.6420091" lon="13.4016679"><ele>174.0</ele><time>2026-04-25T08:51:16.684Z</time></trkpt><trkpt lat="41.6420971" lon="13.4017193"><ele>174.0</ele><time>2026-04-25T08:51:17.683Z</time></trkpt><trkpt lat="41.6421932" lon="13.4017612"><ele>174.0</ele><time>2026-04-25T08:51:18.683Z</time></trkpt><trkpt lat="41.642297" lon="13.4017868"><ele>174.0</ele><time>2026-04-25T08:51:19.683Z</time></trkpt><trkpt lat="41.6423953" lon="13.4018272"><ele>174.0</ele><time>2026-04-25T08:51:20.683Z</time></trkpt><trkpt lat="41.6424973" lon="13.4018731"><ele>174.0</ele><time>2026-04-25T08:51:21.683Z</time></trkpt><trkpt lat="41.6425892" lon="13.4019305"><ele>174.0</ele><time>2026-04-25T08:51:22.683Z</time></trkpt><trkpt lat="41.6426777" lon="13.4020022"><ele>174.0</ele><time>2026-04-25T08:51:23.683Z</time></trkpt><trkpt lat="41.6427506" lon="13.402071"><ele>174.0</ele><time>2026-04-25T08:51:24.683Z</time></trkpt><trkpt lat="41.6428252" lon="13.4021645"><ele>174.0</ele><time>2026-04-25T08:51:25.683Z</time></trkpt><trkpt lat="41.6428999" lon="13.4022686"><ele>174.5</ele><time>2026-04-25T08:51:26.683Z</time></trkpt><trkpt lat="41.642975" lon="13.4023942"><ele>175.0</ele><time>2026-04-25T08:51:27.683Z</time></trkpt><trkpt lat="41.6430492" lon="13.4025429"><ele>175.5</ele><time>2026-04-25T08:51:28.683Z</time></trkpt><trkpt lat="41.6431309" lon="13.4026888"><ele>176.0</ele><time>2026-04-25T08:51:29.683Z</time></trkpt><trkpt lat="41.643204" lon="13.4028182"><ele>176.0</ele><time>2026-04-25T08:51:30.683Z</time></trkpt><trkpt lat="41.6432744" lon="13.4029469"><ele>176.0</ele><time>2026-04-25T08:51:31.683Z</time></trkpt><trkpt lat="41.6433373" lon="13.403075"><ele>176.0</ele><time>2026-04-25T08:51:32.683Z</time></trkpt><trkpt lat="41.643398" lon="13.403189"><ele>176.0</ele><time>2026-04-25T08:51:33.684Z</time></trkpt><trkpt lat="41.6434617" lon="13.4032953"><ele>176.0</ele><time>2026-04-25T08:51:34.683Z</time></trkpt><trkpt lat="41.6435315" lon="13.4033842"><ele>176.4</ele><time>2026-04-25T08:51:35.683Z</time></trkpt><trkpt lat="41.6436117" lon="13.4034522"><ele>176.8</ele><time>2026-04-25T08:51:36.683Z</time></trkpt><trkpt lat="41.6436972" lon="13.4035118"><ele>177.20000000000002</ele><time>2026-04-25T08:51:37.683Z</time></trkpt><trkpt lat="41.6437789" lon="13.4035871"><ele>177.60000000000002</ele><time>2026-04-25T08:51:38.683Z</time></trkpt><trkpt lat="41.643858" lon="13.4036809"><ele>178.0</ele><time>2026-04-25T08:51:39.683Z</time></trkpt><trkpt lat="41.6439304" lon="13.4037951"><ele>177.0</ele><time>2026-04-25T08:51:40.683Z</time></trkpt><trkpt lat="41.6439963" lon="13.4039117"><ele>176.0</ele><time>2026-04-25T08:51:41.683Z</time></trkpt><trkpt lat="41.6440649" lon="13.4040103"><ele>175.0</ele><time>2026-04-25T08:51:42.683Z</time></trkpt><trkpt lat="41.644148" lon="13.4040973"><ele>174.0</ele><time>2026-04-25T08:51:43.683Z</time></trkpt><trkpt lat="41.6442292" lon="13.4041737"><ele>173.0</ele><time>2026-04-25T08:51:44.683Z</time></trkpt><trkpt lat="41.6443091" lon="13.4042337"><ele>173.0</ele><time>2026-04-25T08:51:45.683Z</time></trkpt><trkpt lat="41.6443814" lon="13.4043134"><ele>173.0</ele><time>2026-04-25T08:51:46.683Z</time></trkpt><trkpt lat="41.6444411" lon="13.4044159"><ele>173.0</ele><time>2026-04-25T08:51:47.683Z</time></trkpt><trkpt lat="41.644484" lon="13.4045146"><ele>173.0</ele><time>2026-04-25T08:51:48.683Z</time></trkpt><trkpt lat="41.6445069" lon="13.4046225"><ele>173.0</ele><time>2026-04-25T08:51:49.683Z</time></trkpt><trkpt lat="41.6445133" lon="13.4047507"><ele>173.4</ele><time>2026-04-25T08:51:50.683Z</time></trkpt><trkpt lat="41.6445104" lon="13.4048916"><ele>173.8</ele><time>2026-04-25T08:51:51.683Z</time></trkpt><trkpt lat="41.6445049" lon="13.4050409"><ele>174.2</ele><time>2026-04-25T08:51:52.683Z</time></trkpt><trkpt lat="41.6444977" lon="13.4051784"><ele>174.6</ele><time>2026-04-25T08:51:53.683Z</time></trkpt><trkpt lat="41.6444823" lon="13.4052964"><ele>175.0</ele><time>2026-04-25T08:51:54.683Z</time></trkpt><trkpt lat="41.6444536" lon="13.4054129"><ele>175.66666666666669</ele><time>2026-04-25T08:51:55.683Z</time></trkpt><trkpt lat="41.6444273" lon="13.4055176"><ele>176.33333333333334</ele><time>2026-04-25T08:51:56.683Z</time></trkpt><trkpt lat="41.6444109" lon="13.4056259"><ele>177.0</ele><time>2026-04-25T08:51:57.683Z</time></trkpt><trkpt lat="41.6444004" lon="13.4057224"><ele>177.66666666666666</ele><time>2026-04-25T08:51:58.683Z</time></trkpt><trkpt lat="41.6444075" lon="13.4058187"><ele>178.33333333333331</ele><time>2026-04-25T08:51:59.683Z</time></trkpt><trkpt lat="41.6444226" lon="13.4059028"><ele>179.0</ele><time>2026-04-25T08:52:00.683Z</time></trkpt><trkpt lat="41.6444308" lon="13.4060782"><ele>180.2</ele><time>2026-04-25T08:52:01.683Z</time></trkpt><trkpt lat="41.644493" lon="13.4061009"><ele>181.39999999999998</ele><time>2026-04-25T08:52:05.683Z</time></trkpt><trkpt lat="41.6445357" lon="13.4060049"><ele>182.6</ele><time>2026-04-25T08:52:10.683Z</time></trkpt><trkpt lat="41.6446385" lon="13.4059332"><ele>183.8</ele><time>2026-04-25T08:52:12.683Z</time></trkpt><trkpt lat="41.6447182" lon="13.4058685"><ele>185.0</ele><time>2026-04-25T08:52:13.683Z</time></trkpt><trkpt lat="41.6448053" lon="13.4058135"><ele>185.0</ele><time>2026-04-25T08:52:14.683Z</time></trkpt><trkpt lat="41.644893" lon="13.4057363"><ele>185.0</ele><time>2026-04-25T08:52:15.683Z</time></trkpt><trkpt lat="41.6449711" lon="13.4056682"><ele>185.0</ele><time>2026-04-25T08:52:16.683Z</time></trkpt><trkpt lat="41.6450498" lon="13.405604"><ele>185.0</ele><time>2026-04-25T08:52:17.683Z</time></trkpt><trkpt lat="41.645132" lon="13.405518"><ele>185.0</ele><time>2026-04-25T08:52:18.683Z</time></trkpt><trkpt lat="41.6451949" lon="13.405444"><ele>184.33333333333331</ele><time>2026-04-25T08:52:19.683Z</time></trkpt><trkpt lat="41.6452551" lon="13.4053826"><ele>183.66666666666666</ele><time>2026-04-25T08:52:20.683Z</time></trkpt><trkpt lat="41.6453662" lon="13.4053784"><ele>183.0</ele><time>2026-04-25T08:52:22.683Z</time></trkpt><trkpt lat="41.645418" lon="13.4054373"><ele>182.33333333333334</ele><time>2026-04-25T08:52:23.684Z</time></trkpt><trkpt lat="41.6454611" lon="13.4055197"><ele>181.66666666666669</ele><time>2026-04-25T08:52:24.683Z</time></trkpt><trkpt lat="41.6455297" lon="13.4055792"><ele>181.0</ele><time>2026-04-25T08:52:25.683Z</time></trkpt><trkpt lat="41.6456136" lon="13.4056268"><ele>183.8</ele><time>2026-04-25T08:52:26.683Z</time></trkpt><trkpt lat="41.6457049" lon="13.4056527"><ele>186.60000000000002</ele><time>2026-04-25T08:52:27.683Z</time></trkpt><trkpt lat="41.6457945" lon="13.4056804"><ele>189.4</ele><time>2026-04-25T08:52:28.683Z</time></trkpt><trkpt lat="41.6458854" lon="13.4057086"><ele>192.2</ele><time>2026-04-25T08:52:29.683Z</time></trkpt><trkpt lat="41.6459777" lon="13.4057464"><ele>195.0</ele><time>2026-04-25T08:52:30.684Z</time></trkpt><trkpt lat="41.6460646" lon="13.4057909"><ele>197.8</ele><time>2026-04-25T08:52:31.683Z</time></trkpt><trkpt lat="41.6461552" lon="13.4058311"><ele>200.6</ele><time>2026-04-25T08:52:32.683Z</time></trkpt><trkpt lat="41.6462518" lon="13.4058773"><ele>203.39999999999998</ele><time>2026-04-25T08:52:33.683Z</time></trkpt><trkpt lat="41.6463533" lon="13.4059161"><ele>206.2</ele><time>2026-04-25T08:52:34.683Z</time></trkpt><trkpt lat="41.646449" lon="13.4059508"><ele>209.0</ele><time>2026-04-25T08:52:35.683Z</time></trkpt><trkpt lat="41.6465396" lon="13.4059736"><ele>209.0</ele><time>2026-04-25T08:52:36.683Z</time></trkpt><trkpt lat="41.6466343" lon="13.4059885"><ele>209.0</ele><time>2026-04-25T08:52:37.683Z</time></trkpt><trkpt lat="41.6467234" lon="13.4059966"><ele>209.0</ele><time>2026-04-25T08:52:38.683Z</time></trkpt><trkpt lat="41.6468159" lon="13.4059939"><ele>209.0</ele><time>2026-04-25T08:52:39.683Z</time></trkpt><trkpt lat="41.646902" lon="13.405964"><ele>209.0</ele><time>2026-04-25T08:52:40.683Z</time></trkpt><trkpt lat="41.6469839" lon="13.405929"><ele>212.2</ele><time>2026-04-25T08:52:41.683Z</time></trkpt><trkpt lat="41.6470535" lon="13.40588"><ele>215.39999999999998</ele><time>2026-04-25T08:52:42.683Z</time></trkpt><trkpt lat="41.6471547" lon="13.4058195"><ele>218.6</ele><time>2026-04-25T08:52:44.683Z</time></trkpt><trkpt lat="41.6472717" lon="13.4057885"><ele>221.8</ele><time>2026-04-25T08:52:46.683Z</time></trkpt><trkpt lat="41.6473767" lon="13.4057312"><ele>225.0</ele><time>2026-04-25T08:52:48.683Z</time></trkpt><trkpt lat="41.6475207" lon="13.4057393"><ele>225.0</ele><time>2026-04-25T08:52:50.683Z</time></trkpt><trkpt lat="41.647609" lon="13.4057518"><ele>225.0</ele><time>2026-04-25T08:52:51.683Z</time></trkpt><trkpt lat="41.6477051" lon="13.4057759"><ele>225.0</ele><time>2026-04-25T08:52:52.683Z</time></trkpt><trkpt lat="41.6477894" lon="13.4058081"><ele>225.0</ele><time>2026-04-25T08:52:53.683Z</time></trkpt><trkpt lat="41.6478798" lon="13.4058459"><ele>225.0</ele><time>2026-04-25T08:52:54.683Z</time></trkpt><trkpt lat="41.6479592" lon="13.4058825"><ele>225.14285714285717</ele><time>2026-04-25T08:52:55.683Z</time></trkpt><trkpt lat="41.6480348" lon="13.4059122"><ele>225.28571428571428</ele><time>2026-04-25T08:52:56.683Z</time></trkpt><trkpt lat="41.6481071" lon="13.4059334"><ele>225.42857142857144</ele><time>2026-04-25T08:52:57.683Z</time></trkpt><trkpt lat="41.6481779" lon="13.4059619"><ele>225.57142857142858</ele><time>2026-04-25T08:52:58.683Z</time></trkpt><trkpt lat="41.6482441" lon="13.4059826"><ele>225.71428571428572</ele><time>2026-04-25T08:52:59.683Z</time></trkpt><trkpt lat="41.6483117" lon="13.4060106"><ele>225.85714285714286</ele><time>2026-04-25T08:53:00.683Z</time></trkpt><trkpt lat="41.6483862" lon="13.406043"><ele>226.0</ele><time>2026-04-25T08:53:01.684Z</time></trkpt><trkpt lat="41.6484655" lon="13.4060647"><ele>226.0</ele><time>2026-04-25T08:53:02.683Z</time></trkpt><trkpt lat="41.6485471" lon="13.4060801"><ele>226.0</ele><time>2026-04-25T08:53:03.683Z</time></trkpt><trkpt lat="41.6486292" lon="13.4060843"><ele>226.0</ele><time>2026-04-25T08:53:04.683Z</time></trkpt><trkpt lat="41.6486956" lon="13.4060876"><ele>226.0</ele><time>2026-04-25T08:53:05.683Z</time></trkpt><trkpt lat="41.6487576" lon="13.4060707"><ele>226.0</ele><time>2026-04-25T08:53:06.683Z</time></trkpt><trkpt lat="41.6488195" lon="13.406039"><ele>226.0</ele><time>2026-04-25T08:53:07.683Z</time></trkpt><trkpt lat="41.648892" lon="13.4060085"><ele>226.0</ele><time>2026-04-25T08:53:08.683Z</time></trkpt><trkpt lat="41.6489647" lon="13.4059917"><ele>226.16666666666666</ele><time>2026-04-25T08:53:09.683Z</time></trkpt><trkpt lat="41.6490427" lon="13.4059829"><ele>226.33333333333331</ele><time>2026-04-25T08:53:10.683Z</time></trkpt><trkpt lat="41.6491233" lon="13.4059645"><ele>226.5</ele><time>2026-04-25T08:53:11.684Z</time></trkpt><trkpt lat="41.6492034" lon="13.4059319"><ele>226.66666666666669</ele><time>2026-04-25T08:53:12.683Z</time></trkpt><trkpt lat="41.6492753" lon="13.4058714"><ele>226.83333333333334</ele><time>2026-04-25T08:53:13.683Z</time></trkpt><trkpt lat="41.6493348" lon="13.4057955"><ele>227.0</ele><time>2026-04-25T08:53:14.683Z</time></trkpt><trkpt lat="41.6493903" lon="13.4057275"><ele>227.0</ele><time>2026-04-25T08:53:15.683Z</time></trkpt><trkpt lat="41.6494477" lon="13.4056745"><ele>227.0</ele><time>2026-04-25T08:53:16.684Z</time></trkpt><trkpt lat="41.6495096" lon="13.4056335"><ele>227.0</ele><time>2026-04-25T08:53:17.683Z</time></trkpt><trkpt lat="41.6496184" lon="13.4056039"><ele>227.0</ele><time>2026-04-25T08:53:19.683Z</time></trkpt><trkpt lat="41.6497434" lon="13.4056146"><ele>227.0</ele><time>2026-04-25T08:53:21.683Z</time></trkpt><trkpt lat="41.6498272" lon="13.4056041"><ele>230.83333333333334</ele><time>2026-04-25T08:53:22.683Z</time></trkpt><trkpt lat="41.64992" lon="13.405593"><ele>234.66666666666669</ele><time>2026-04-25T08:53:23.683Z</time></trkpt><trkpt lat="41.6500035" lon="13.4055938"><ele>238.5</ele><time>2026-04-25T08:53:24.683Z</time></trkpt><trkpt lat="41.6500838" lon="13.4055938"><ele>242.33333333333331</ele><time>2026-04-25T08:53:25.683Z</time></trkpt><trkpt lat="41.6501627" lon="13.4056077"><ele>246.16666666666666</ele><time>2026-04-25T08:53:26.683Z</time></trkpt><trkpt lat="41.650233" lon="13.4056317"><ele>250.0</ele><time>2026-04-25T08:53:27.683Z</time></trkpt><trkpt lat="41.6502904" lon="13.4056837"><ele>249.16666666666666</ele><time>2026-04-25T08:53:28.683Z</time></trkpt><trkpt lat="41.6503454" lon="13.4057499"><ele>248.33333333333331</ele><time>2026-04-25T08:53:29.683Z</time></trkpt><trkpt lat="41.6503919" lon="13.4058317"><ele>247.5</ele><time>2026-04-25T08:53:30.683Z</time></trkpt><trkpt lat="41.6504266" lon="13.405927"><ele>246.66666666666669</ele><time>2026-04-25T08:53:31.683Z</time></trkpt><trkpt lat="41.6504373" lon="13.4060433"><ele>245.83333333333334</ele><time>2026-04-25T08:53:32.684Z</time></trkpt><trkpt lat="41.6504265" lon="13.4061635"><ele>245.0</ele><time>2026-04-25T08:53:33.683Z</time></trkpt><trkpt lat="41.6504088" lon="13.4062875"><ele>247.33333333333334</ele><time>2026-04-25T08:53:34.683Z</time></trkpt><trkpt lat="41.650395" lon="13.406406"><ele>249.66666666666669</ele><time>2026-04-25T08:53:35.683Z</time></trkpt><trkpt lat="41.6503827" lon="13.4065162"><ele>252.0</ele><time>2026-04-25T08:53:36.683Z</time></trkpt><trkpt lat="41.6503863" lon="13.4066251"><ele>254.33333333333331</ele><time>2026-04-25T08:53:37.683Z</time></trkpt><trkpt lat="41.6504019" lon="13.40675"><ele>256.66666666666663</ele><time>2026-04-25T08:53:38.683Z</time></trkpt><trkpt lat="41.6504154" lon="13.4068795"><ele>259.0</ele><time>2026-04-25T08:53:39.683Z</time></trkpt><trkpt lat="41.6504245" lon="13.4070182"><ele>259.0</ele><time>2026-04-25T08:53:40.682Z</time></trkpt><trkpt lat="41.6504433" lon="13.407147"><ele>259.0</ele><time>2026-04-25T08:53:41.683Z</time></trkpt><trkpt lat="41.6504756" lon="13.4072729"><ele>259.0</ele><time>2026-04-25T08:53:42.682Z</time></trkpt><trkpt lat="41.6505092" lon="13.4073809"><ele>259.0</ele><time>2026-04-25T08:53:43.682Z</time></trkpt><trkpt lat="41.6505414" lon="13.4075006"><ele>259.0</ele><time>2026-04-25T08:53:44.682Z</time></trkpt><trkpt lat="41.6505808" lon="13.4076062"><ele>261.3333333333333</ele><time>2026-04-25T08:53:45.682Z</time></trkpt><trkpt lat="41.6506355" lon="13.4076935"><ele>263.66666666666663</ele><time>2026-04-25T08:53:46.682Z</time></trkpt><trkpt lat="41.6506966" lon="13.4077377"><ele>266.0</ele><time>2026-04-25T08:53:47.682Z</time></trkpt><trkpt lat="41.6507631" lon="13.40777"><ele>268.3333333333333</ele><time>2026-04-25T08:53:48.682Z</time></trkpt><trkpt lat="41.6508472" lon="13.4077872"><ele>270.6666666666667</ele><time>2026-04-25T08:53:49.682Z</time></trkpt><trkpt lat="41.650929" lon="13.4077937"><ele>273.0</ele><time>2026-04-25T08:53:50.682Z</time></trkpt><trkpt lat="41.6510051" lon="13.4077869"><ele>273.0</ele><time>2026-04-25T08:53:51.682Z</time></trkpt><trkpt lat="41.6510716" lon="13.4077795"><ele>273.0</ele><time>2026-04-25T08:53:52.682Z</time></trkpt><trkpt lat="41.6511956" lon="13.4077704"><ele>273.0</ele><time>2026-04-25T08:53:54.682Z</time></trkpt><trkpt lat="41.6512628" lon="13.4077823"><ele>273.0</ele><time>2026-04-25T08:53:55.682Z</time></trkpt><trkpt lat="41.6513408" lon="13.4077979"><ele>273.0</ele><time>2026-04-25T08:53:56.682Z</time></trkpt><trkpt lat="41.6514153" lon="13.4078055"><ele>273.0</ele><time>2026-04-25T08:53:57.682Z</time></trkpt><trkpt lat="41.6514851" lon="13.4078251"><ele>274.2857142857143</ele><time>2026-04-25T08:53:58.682Z</time></trkpt><trkpt lat="41.6515512" lon="13.4078481"><ele>275.57142857142856</ele><time>2026-04-25T08:53:59.682Z</time></trkpt><trkpt lat="41.6516196" lon="13.4078744"><ele>276.8571428571429</ele><time>2026-04-25T08:54:00.682Z</time></trkpt><trkpt lat="41.6516827" lon="13.4079085"><ele>278.1428571428571</ele><time>2026-04-25T08:54:01.682Z</time></trkpt><trkpt lat="41.6517454" lon="13.407957"><ele>279.42857142857144</ele><time>2026-04-25T08:54:02.682Z</time></trkpt><trkpt lat="41.6518041" lon="13.4080138"><ele>280.7142857142857</ele><time>2026-04-25T08:54:03.682Z</time></trkpt><trkpt lat="41.6518642" lon="13.4080734"><ele>282.0</ele><time>2026-04-25T08:54:04.682Z</time></trkpt><trkpt lat="41.6519316" lon="13.4081328"><ele>285.0</ele><time>2026-04-25T08:54:05.682Z</time></trkpt><trkpt lat="41.6520028" lon="13.4081985"><ele>288.0</ele><time>2026-04-25T08:54:06.682Z</time></trkpt><trkpt lat="41.6520735" lon="13.4082629"><ele>291.0</ele><time>2026-04-25T08:54:07.682Z</time></trkpt><trkpt lat="41.6521434" lon="13.4083367"><ele>294.0</ele><time>2026-04-25T08:54:08.682Z</time></trkpt><trkpt lat="41.6522083" lon="13.4084096"><ele>297.0</ele><time>2026-04-25T08:54:09.682Z</time></trkpt><trkpt lat="41.6522706" lon="13.4084878"><ele>300.0</ele><time>2026-04-25T08:54:10.682Z</time></trkpt><trkpt lat="41.6523317" lon="13.4085531"><ele>300.0</ele><time>2026-04-25T08:54:11.682Z</time></trkpt><trkpt lat="41.6523957" lon="13.4086052"><ele>300.0</ele><time>2026-04-25T08:54:12.682Z</time></trkpt><trkpt lat="41.6524652" lon="13.4086515"><ele>300.0</ele><time>2026-04-25T08:54:13.682Z</time></trkpt><trkpt lat="41.6525253" lon="13.4087002"><ele>300.0</ele><time>2026-04-25T08:54:14.682Z</time></trkpt><trkpt lat="41.6525767" lon="13.4087615"><ele>300.0</ele><time>2026-04-25T08:54:15.682Z</time></trkpt><trkpt lat="41.6526429" lon="13.4089006"><ele>300.0</ele><time>2026-04-25T08:54:17.682Z</time></trkpt><trkpt lat="41.6526575" lon="13.4089913"><ele>298.6666666666667</ele><time>2026-04-25T08:54:18.682Z</time></trkpt><trkpt lat="41.6526523" lon="13.4090824"><ele>297.3333333333333</ele><time>2026-04-25T08:54:19.682Z</time></trkpt><trkpt lat="41.6526311" lon="13.4091773"><ele>296.0</ele><time>2026-04-25T08:54:20.682Z</time></trkpt><trkpt lat="41.6525982" lon="13.4092788"><ele>294.66666666666663</ele><time>2026-04-25T08:54:21.682Z</time></trkpt><trkpt lat="41.6525547" lon="13.4093806"><ele>293.3333333333333</ele><time>2026-04-25T08:54:22.682Z</time></trkpt><trkpt lat="41.6525128" lon="13.4094748"><ele>292.0</ele><time>2026-04-25T08:54:23.682Z</time></trkpt><trkpt lat="41.6524749" lon="13.4095704"><ele>292.0</ele><time>2026-04-25T08:54:24.682Z</time></trkpt><trkpt lat="41.6524594" lon="13.4096575"><ele>292.0</ele><time>2026-04-25T08:54:25.682Z</time></trkpt><trkpt lat="41.6524604" lon="13.409743"><ele>292.0</ele><time>2026-04-25T08:54:26.682Z</time></trkpt><trkpt lat="41.6524876" lon="13.4098268"><ele>292.0</ele><time>2026-04-25T08:54:27.682Z</time></trkpt><trkpt lat="41.6525182" lon="13.4099139"><ele>292.0</ele><time>2026-04-25T08:54:28.682Z</time></trkpt><trkpt lat="41.6525564" lon="13.4100105"><ele>292.0</ele><time>2026-04-25T08:54:29.682Z</time></trkpt><trkpt lat="41.6525906" lon="13.4101133"><ele>292.0</ele><time>2026-04-25T08:54:30.682Z</time></trkpt><trkpt lat="41.6526203" lon="13.4102273"><ele>292.57142857142856</ele><time>2026-04-25T08:54:31.682Z</time></trkpt><trkpt lat="41.6526392" lon="13.4103294"><ele>293.14285714285717</ele><time>2026-04-25T08:54:32.682Z</time></trkpt><trkpt lat="41.6526505" lon="13.4104346"><ele>293.7142857142857</ele><time>2026-04-25T08:54:33.682Z</time></trkpt><trkpt lat="41.6526537" lon="13.4105288"><ele>294.2857142857143</ele><time>2026-04-25T08:54:34.682Z</time></trkpt><trkpt lat="41.6526454" lon="13.410619"><ele>294.85714285714283</ele><time>2026-04-25T08:54:35.682Z</time></trkpt><trkpt lat="41.6526219" lon="13.4107098"><ele>295.42857142857144</ele><time>2026-04-25T08:54:36.682Z</time></trkpt><trkpt lat="41.6526013" lon="13.4108073"><ele>296.0</ele><time>2026-04-25T08:54:37.682Z</time></trkpt><trkpt lat="41.6525728" lon="13.4109182"><ele>296.5</ele><time>2026-04-25T08:54:38.682Z</time></trkpt><trkpt lat="41.6525399" lon="13.4110405"><ele>297.0</ele><time>2026-04-25T08:54:39.682Z</time></trkpt><trkpt lat="41.6525053" lon="13.4111547"><ele>297.5</ele><time>2026-04-25T08:54:40.682Z</time></trkpt><trkpt lat="41.6524687" lon="13.4112576"><ele>298.0</ele><time>2026-04-25T08:54:41.682Z</time></trkpt><trkpt lat="41.6524395" lon="13.4113462"><ele>298.5</ele><time>2026-04-25T08:54:42.682Z</time></trkpt><trkpt lat="41.6524187" lon="13.4114296"><ele>299.0</ele><time>2026-04-25T08:54:43.682Z</time></trkpt><trkpt lat="41.6524058" lon="13.4115204"><ele>299.83333333333337</ele><time>2026-04-25T08:54:44.682Z</time></trkpt><trkpt lat="41.6524097" lon="13.4116183"><ele>300.6666666666667</ele><time>2026-04-25T08:54:45.682Z</time></trkpt><trkpt lat="41.6524192" lon="13.411713"><ele>301.5</ele><time>2026-04-25T08:54:46.682Z</time></trkpt><trkpt lat="41.652442" lon="13.4118017"><ele>302.3333333333333</ele><time>2026-04-25T08:54:47.682Z</time></trkpt><trkpt lat="41.6524764" lon="13.4118896"><ele>303.16666666666663</ele><time>2026-04-25T08:54:48.682Z</time></trkpt><trkpt lat="41.6525353" lon="13.4120096"><ele>304.0</ele><time>2026-04-25T08:54:50.682Z</time></trkpt><trkpt lat="41.65258" lon="13.4120783"><ele>304.0</ele><time>2026-04-25T08:54:51.683Z</time></trkpt><trkpt lat="41.6526379" lon="13.4121139"><ele>304.0</ele><time>2026-04-25T08:54:52.682Z</time></trkpt><trkpt lat="41.6527043" lon="13.4121249"><ele>304.0</ele><time>2026-04-25T08:54:53.682Z</time></trkpt><trkpt lat="41.6527962" lon="13.4121542"><ele>304.0</ele><time>2026-04-25T08:54:54.682Z</time></trkpt><trkpt lat="41.652887" lon="13.4121927"><ele>304.0</ele><time>2026-04-25T08:54:55.682Z</time></trkpt><trkpt lat="41.6529608" lon="13.4122495"><ele>304.0</ele><time>2026-04-25T08:54:56.682Z</time></trkpt><trkpt lat="41.653052" lon="13.412316"><ele>305.25</ele><time>2026-04-25T08:54:57.682Z</time></trkpt><trkpt lat="41.6531456" lon="13.412382"><ele>306.5</ele><time>2026-04-25T08:54:58.682Z</time></trkpt><trkpt lat="41.6532553" lon="13.4124466"><ele>307.75</ele><time>2026-04-25T08:54:59.682Z</time></trkpt><trkpt lat="41.6533586" lon="13.4125092"><ele>309.0</ele><time>2026-04-25T08:55:00.682Z</time></trkpt><trkpt lat="41.6534672" lon="13.4125724"><ele>309.0</ele><time>2026-04-25T08:55:01.683Z</time></trkpt><trkpt lat="41.6535613" lon="13.4126355"><ele>309.0</ele><time>2026-04-25T08:55:02.682Z</time></trkpt><trkpt lat="41.6536457" lon="13.4127007"><ele>309.0</ele><time>2026-04-25T08:55:03.682Z</time></trkpt><trkpt lat="41.653716" lon="13.4127586"><ele>309.0</ele><time>2026-04-25T08:55:04.682Z</time></trkpt><trkpt lat="41.65377" lon="13.4128132"><ele>309.0</ele><time>2026-04-25T08:55:05.682Z</time></trkpt><trkpt lat="41.6538199" lon="13.4128753"><ele>309.0</ele><time>2026-04-25T08:55:06.682Z</time></trkpt><trkpt lat="41.6538878" lon="13.4129196"><ele>309.6666666666667</ele><time>2026-04-25T08:55:07.682Z</time></trkpt><trkpt lat="41.6539589" lon="13.412947"><ele>310.3333333333333</ele><time>2026-04-25T08:55:08.682Z</time></trkpt><trkpt lat="41.6540401" lon="13.4129696"><ele>311.0</ele><time>2026-04-25T08:55:09.682Z</time></trkpt><trkpt lat="41.6541327" lon="13.4129874"><ele>311.66666666666663</ele><time>2026-04-25T08:55:10.682Z</time></trkpt><trkpt lat="41.6542226" lon="13.4130017"><ele>312.3333333333333</ele><time>2026-04-25T08:55:11.682Z</time></trkpt><trkpt lat="41.6543093" lon="13.4130184"><ele>313.0</ele><time>2026-04-25T08:55:12.682Z</time></trkpt><trkpt lat="41.6544012" lon="13.4130461"><ele>311.66666666666663</ele><time>2026-04-25T08:55:13.682Z</time></trkpt><trkpt lat="41.6544855" lon="13.413097"><ele>310.3333333333333</ele><time>2026-04-25T08:55:14.682Z</time></trkpt><trkpt lat="41.654553" lon="13.4131556"><ele>309.0</ele><time>2026-04-25T08:55:15.682Z</time></trkpt><trkpt lat="41.6546024" lon="13.4132401"><ele>307.6666666666667</ele><time>2026-04-25T08:55:16.682Z</time></trkpt><trkpt lat="41.6546483" lon="13.4133294"><ele>306.33333333333337</ele><time>2026-04-25T08:55:17.682Z</time></trkpt><trkpt lat="41.6547045" lon="13.4134122"><ele>305.0</ele><time>2026-04-25T08:55:18.682Z</time></trkpt><trkpt lat="41.6547703" lon="13.4134741"><ele>305.0</ele><time>2026-04-25T08:55:19.682Z</time></trkpt><trkpt lat="41.6548505" lon="13.4135131"><ele>305.0</ele><time>2026-04-25T08:55:20.682Z</time></trkpt><trkpt lat="41.6549338" lon="13.413527"><ele>305.0</ele><time>2026-04-25T08:55:21.682Z</time></trkpt><trkpt lat="41.6550224" lon="13.4135116"><ele>305.0</ele><time>2026-04-25T08:55:22.682Z</time></trkpt><trkpt lat="41.6551116" lon="13.4134767"><ele>305.0</ele><time>2026-04-25T08:55:23.682Z</time></trkpt><trkpt lat="41.6551982" lon="13.4134377"><ele>305.0</ele><time>2026-04-25T08:55:24.682Z</time></trkpt><trkpt lat="41.6552882" lon="13.4134085"><ele>305.6666666666667</ele><time>2026-04-25T08:55:25.682Z</time></trkpt><trkpt lat="41.6553854" lon="13.4133837"><ele>306.33333333333337</ele><time>2026-04-25T08:55:26.682Z</time></trkpt><trkpt lat="41.6554758" lon="13.4133645"><ele>307.0</ele><time>2026-04-25T08:55:27.682Z</time></trkpt><trkpt lat="41.6555474" lon="13.4133363"><ele>307.6666666666667</ele><time>2026-04-25T08:55:28.682Z</time></trkpt><trkpt lat="41.655617" lon="13.4133171"><ele>308.3333333333333</ele><time>2026-04-25T08:55:29.682Z</time></trkpt><trkpt lat="41.6557194" lon="13.4132906"><ele>309.0</ele><time>2026-04-25T08:55:31.682Z</time></trkpt><trkpt lat="41.6558002" lon="13.4133167"><ele>309.00000000000006</ele><time>2026-04-25T08:55:33.682Z</time></trkpt><trkpt lat="41.6558388" lon="13.4133865"><ele>309.0</ele><time>2026-04-25T08:55:35.682Z</time></trkpt><trkpt lat="41.6558594" lon="13.4134959"><ele>309.0</ele><time>2026-04-25T08:55:37.682Z</time></trkpt><trkpt lat="41.6558555" lon="13.4135829"><ele>309.0</ele><time>2026-04-25T08:55:38.682Z</time></trkpt><trkpt lat="41.6558517" lon="13.4136733"><ele>309.0</ele><time>2026-04-25T08:55:39.682Z</time></trkpt><trkpt lat="41.655851" lon="13.4137795"><ele>309.00000000000006</ele><time>2026-04-25T08:55:40.682Z</time></trkpt><trkpt lat="41.6558446" lon="13.4138924"><ele>309.0</ele><time>2026-04-25T08:55:41.682Z</time></trkpt><trkpt lat="41.6558433" lon="13.4140207"><ele>308.59999999999997</ele><time>2026-04-25T08:55:42.682Z</time></trkpt><trkpt lat="41.6558416" lon="13.4141496"><ele>308.2</ele><time>2026-04-25T08:55:43.682Z</time></trkpt><trkpt lat="41.6558574" lon="13.4142856"><ele>307.79999999999995</ele><time>2026-04-25T08:55:44.682Z</time></trkpt><trkpt lat="41.6558899" lon="13.4144294"><ele>307.4</ele><time>2026-04-25T08:55:45.682Z</time></trkpt><trkpt lat="41.6559464" lon="13.4145734"><ele>307.0</ele><time>2026-04-25T08:55:46.682Z</time></trkpt><trkpt lat="41.6560194" lon="13.414706"><ele>307.0</ele><time>2026-04-25T08:55:47.682Z</time></trkpt><trkpt lat="41.6560917" lon="13.414823"><ele>307.0</ele><time>2026-04-25T08:55:48.682Z</time></trkpt><trkpt lat="41.6561658" lon="13.4149369"><ele>307.0</ele><time>2026-04-25T08:55:49.682Z</time></trkpt><trkpt lat="41.6562311" lon="13.4150526"><ele>307.0</ele><time>2026-04-25T08:55:50.682Z</time></trkpt><trkpt lat="41.6562883" lon="13.4151701"><ele>307.0</ele><time>2026-04-25T08:55:51.682Z</time></trkpt><trkpt lat="41.6563438" lon="13.4152857"><ele>307.0</ele><time>2026-04-25T08:55:52.682Z</time></trkpt><trkpt lat="41.6564031" lon="13.4154045"><ele>307.0</ele><time>2026-04-25T08:55:53.682Z</time></trkpt><trkpt lat="41.6564545" lon="13.4155238"><ele>307.0</ele><time>2026-04-25T08:55:54.682Z</time></trkpt><trkpt lat="41.6565113" lon="13.4156595"><ele>307.0</ele><time>2026-04-25T08:55:55.682Z</time></trkpt><trkpt lat="41.6565631" lon="13.4157937"><ele>307.0</ele><time>2026-04-25T08:55:56.682Z</time></trkpt><trkpt lat="41.6566112" lon="13.4159235"><ele>307.16666666666663</ele><time>2026-04-25T08:55:57.683Z</time></trkpt><trkpt lat="41.6566455" lon="13.4160487"><ele>307.3333333333333</ele><time>2026-04-25T08:55:58.683Z</time></trkpt><trkpt lat="41.6566751" lon="13.4161583"><ele>307.5</ele><time>2026-04-25T08:55:59.682Z</time></trkpt><trkpt lat="41.6566927" lon="13.4162509"><ele>307.6666666666667</ele><time>2026-04-25T08:56:00.682Z</time></trkpt><trkpt lat="41.6567094" lon="13.4163565"><ele>307.83333333333337</ele><time>2026-04-25T08:56:02.682Z</time></trkpt><trkpt lat="41.6567346" lon="13.4164912"><ele>308.0</ele><time>2026-04-25T08:56:12.682Z</time></trkpt><trkpt lat="41.6567786" lon="13.4165584"><ele>309.0</ele><time>2026-04-25T08:56:13.682Z</time></trkpt><trkpt lat="41.6568311" lon="13.4166154"><ele>310.0</ele><time>2026-04-25T08:56:14.682Z</time></trkpt><trkpt lat="41.6568895" lon="13.416676"><ele>311.0</ele><time>2026-04-25T08:56:15.682Z</time></trkpt><trkpt lat="41.65696" lon="13.4167463"><ele>312.0</ele><time>2026-04-25T08:56:16.682Z</time></trkpt><trkpt lat="41.6570332" lon="13.416813"><ele>313.0</ele><time>2026-04-25T08:56:17.682Z</time></trkpt><trkpt lat="41.657095" lon="13.4168917"><ele>314.0</ele><time>2026-04-25T08:56:18.682Z</time></trkpt><trkpt lat="41.6571673" lon="13.4169865"><ele>314.0</ele><time>2026-04-25T08:56:19.682Z</time></trkpt><trkpt lat="41.6572366" lon="13.4171004"><ele>314.0</ele><time>2026-04-25T08:56:20.682Z</time></trkpt><trkpt lat="41.6573033" lon="13.4172188"><ele>314.0</ele><time>2026-04-25T08:56:21.682Z</time></trkpt><trkpt lat="41.6573638" lon="13.4173436"><ele>314.0</ele><time>2026-04-25T08:56:22.682Z</time></trkpt><trkpt lat="41.6574231" lon="13.4174644"><ele>314.0</ele><time>2026-04-25T08:56:23.682Z</time></trkpt><trkpt lat="41.6574775" lon="13.4175863"><ele>313.0</ele><time>2026-04-25T08:56:24.682Z</time></trkpt><trkpt lat="41.6575244" lon="13.4177156"><ele>312.0</ele><time>2026-04-25T08:56:25.682Z</time></trkpt><trkpt lat="41.657558" lon="13.4178442"><ele>311.0</ele><time>2026-04-25T08:56:26.682Z</time></trkpt><trkpt lat="41.6575853" lon="13.4179793"><ele>310.0</ele><time>2026-04-25T08:56:27.682Z</time></trkpt><trkpt lat="41.6576078" lon="13.4181166"><ele>309.0</ele><time>2026-04-25T08:56:28.682Z</time></trkpt><trkpt lat="41.6576248" lon="13.4182549"><ele>308.8</ele><time>2026-04-25T08:56:29.682Z</time></trkpt><trkpt lat="41.6576391" lon="13.4183997"><ele>308.59999999999997</ele><time>2026-04-25T08:56:30.682Z</time></trkpt><trkpt lat="41.6576452" lon="13.4185429"><ele>308.4</ele><time>2026-04-25T08:56:31.682Z</time></trkpt><trkpt lat="41.657648" lon="13.4186928"><ele>308.2</ele><time>2026-04-25T08:56:32.682Z</time></trkpt><trkpt lat="41.6576553" lon="13.4188367"><ele>308.0</ele><time>2026-04-25T08:56:33.682Z</time></trkpt><trkpt lat="41.6576597" lon="13.4189832"><ele>308.0</ele><time>2026-04-25T08:56:34.683Z</time></trkpt><trkpt lat="41.6576697" lon="13.4191256"><ele>308.0</ele><time>2026-04-25T08:56:35.682Z</time></trkpt><trkpt lat="41.6576822" lon="13.4192727"><ele>308.0</ele><time>2026-04-25T08:56:36.682Z</time></trkpt><trkpt lat="41.6576965" lon="13.4194191"><ele>308.0</ele><time>2026-04-25T08:56:37.682Z</time></trkpt><trkpt lat="41.6577079" lon="13.4195551"><ele>308.0</ele><time>2026-04-25T08:56:38.682Z</time></trkpt><trkpt lat="41.6577168" lon="13.4196834"><ele>309.2</ele><time>2026-04-25T08:56:39.682Z</time></trkpt><trkpt lat="41.6577247" lon="13.4198098"><ele>310.4</ele><time>2026-04-25T08:56:40.682Z</time></trkpt><trkpt lat="41.6577306" lon="13.4199414"><ele>311.59999999999997</ele><time>2026-04-25T08:56:41.682Z</time></trkpt><trkpt lat="41.6577369" lon="13.4200722"><ele>312.8</ele><time>2026-04-25T08:56:42.682Z</time></trkpt><trkpt lat="41.6577426" lon="13.4201959"><ele>314.0</ele><time>2026-04-25T08:56:43.682Z</time></trkpt><trkpt lat="41.6577485" lon="13.4203269"><ele>314.0</ele><time>2026-04-25T08:56:44.682Z</time></trkpt><trkpt lat="41.6577557" lon="13.4204556"><ele>314.0</ele><time>2026-04-25T08:56:45.682Z</time></trkpt><trkpt lat="41.6577613" lon="13.4205859"><ele>314.0</ele><time>2026-04-25T08:56:46.682Z</time></trkpt><trkpt lat="41.6577713" lon="13.4207167"><ele>314.0</ele><time>2026-04-25T08:56:47.682Z</time></trkpt><trkpt lat="41.657781" lon="13.4208516"><ele>314.0</ele><time>2026-04-25T08:56:48.682Z</time></trkpt><trkpt lat="41.6577927" lon="13.4209874"><ele>313.59999999999997</ele><time>2026-04-25T08:56:49.682Z</time></trkpt><trkpt lat="41.6578042" lon="13.4211202"><ele>313.2</ele><time>2026-04-25T08:56:50.682Z</time></trkpt><trkpt lat="41.6578186" lon="13.4212566"><ele>312.79999999999995</ele><time>2026-04-25T08:56:51.682Z</time></trkpt><trkpt lat="41.6578338" lon="13.4213885"><ele>312.4</ele><time>2026-04-25T08:56:52.682Z</time></trkpt><trkpt lat="41.6578561" lon="13.4215102"><ele>312.0</ele><time>2026-04-25T08:56:53.682Z</time></trkpt><trkpt lat="41.6578813" lon="13.4216232"><ele>312.0</ele><time>2026-04-25T08:56:54.682Z</time></trkpt><trkpt lat="41.65791" lon="13.4217285"><ele>312.0</ele><time>2026-04-25T08:56:55.682Z</time></trkpt><trkpt lat="41.6579403" lon="13.4218242"><ele>312.0</ele><time>2026-04-25T08:56:56.682Z</time></trkpt><trkpt lat="41.6579722" lon="13.4219213"><ele>312.0</ele><time>2026-04-25T08:56:57.682Z</time></trkpt><trkpt lat="41.6580073" lon="13.4220128"><ele>312.0</ele><time>2026-04-25T08:56:58.682Z</time></trkpt><trkpt lat="41.6580418" lon="13.4221046"><ele>312.0</ele><time>2026-04-25T08:56:59.682Z</time></trkpt><trkpt lat="41.6580836" lon="13.4221873"><ele>312.0</ele><time>2026-04-25T08:57:00.682Z</time></trkpt><trkpt lat="41.6581308" lon="13.4222511"><ele>312.0</ele><time>2026-04-25T08:57:01.682Z</time></trkpt><trkpt lat="41.6581917" lon="13.4223008"><ele>312.0</ele><time>2026-04-25T08:57:02.682Z</time></trkpt><trkpt lat="41.6582569" lon="13.4223298"><ele>312.0</ele><time>2026-04-25T08:57:03.683Z</time></trkpt><trkpt lat="41.658327" lon="13.4223491"><ele>312.0</ele><time>2026-04-25T08:57:04.683Z</time></trkpt><trkpt lat="41.658391" lon="13.4223661"><ele>312.0</ele><time>2026-04-25T08:57:05.683Z</time></trkpt><trkpt lat="41.6584622" lon="13.4223844"><ele>312.0</ele><time>2026-04-25T08:57:06.682Z</time></trkpt><trkpt lat="41.65853" lon="13.4223996"><ele>312.0</ele><time>2026-04-25T08:57:07.682Z</time></trkpt><trkpt lat="41.6586029" lon="13.4224126"><ele>312.0</ele><time>2026-04-25T08:57:08.682Z</time></trkpt><trkpt lat="41.6586825" lon="13.4224347"><ele>312.0</ele><time>2026-04-25T08:57:09.682Z</time></trkpt><trkpt lat="41.658765" lon="13.4224621"><ele>312.0</ele><time>2026-04-25T08:57:10.682Z</time></trkpt><trkpt lat="41.6588475" lon="13.4225002"><ele>312.0</ele><time>2026-04-25T08:57:11.682Z</time></trkpt><trkpt lat="41.6589353" lon="13.4225733"><ele>312.0</ele><time>2026-04-25T08:57:12.682Z</time></trkpt><trkpt lat="41.6590143" lon="13.4226449"><ele>310.0</ele><time>2026-04-25T08:57:13.683Z</time></trkpt><trkpt lat="41.6590898" lon="13.4227154"><ele>308.0</ele><time>2026-04-25T08:57:14.682Z</time></trkpt><trkpt lat="41.6591627" lon="13.4227761"><ele>306.0</ele><time>2026-04-25T08:57:15.682Z</time></trkpt><trkpt lat="41.6592414" lon="13.4228367"><ele>304.0</ele><time>2026-04-25T08:57:16.682Z</time></trkpt><trkpt lat="41.6593186" lon="13.4229047"><ele>302.0</ele><time>2026-04-25T08:57:17.682Z</time></trkpt><trkpt lat="41.6593936" lon="13.4229691"><ele>300.8</ele><time>2026-04-25T08:57:18.682Z</time></trkpt><trkpt lat="41.6594639" lon="13.4230354"><ele>299.6</ele><time>2026-04-25T08:57:19.682Z</time></trkpt><trkpt lat="41.6595441" lon="13.4230993"><ele>298.40000000000003</ele><time>2026-04-25T08:57:20.682Z</time></trkpt><trkpt lat="41.6596272" lon="13.4231606"><ele>297.2</ele><time>2026-04-25T08:57:21.682Z</time></trkpt><trkpt lat="41.6597122" lon="13.4232221"><ele>296.0</ele><time>2026-04-25T08:57:22.682Z</time></trkpt><trkpt lat="41.6597922" lon="13.4232892"><ele>296.0</ele><time>2026-04-25T08:57:23.682Z</time></trkpt><trkpt lat="41.6598653" lon="13.4233727"><ele>296.0</ele><time>2026-04-25T08:57:24.682Z</time></trkpt><trkpt lat="41.6599346" lon="13.4234768"><ele>296.0</ele><time>2026-04-25T08:57:25.682Z</time></trkpt><trkpt lat="41.6599948" lon="13.4235862"><ele>296.0</ele><time>2026-04-25T08:57:26.682Z</time></trkpt><trkpt lat="41.660044" lon="13.4237143"><ele>296.0</ele><time>2026-04-25T08:57:27.682Z</time></trkpt><trkpt lat="41.6600777" lon="13.4238495"><ele>297.0</ele><time>2026-04-25T08:57:28.682Z</time></trkpt><trkpt lat="41.6600986" lon="13.4239868"><ele>298.0</ele><time>2026-04-25T08:57:29.682Z</time></trkpt><trkpt lat="41.6601058" lon="13.4241282"><ele>299.0</ele><time>2026-04-25T08:57:30.682Z</time></trkpt><trkpt lat="41.6601044" lon="13.4242675"><ele>300.0</ele><time>2026-04-25T08:57:31.682Z</time></trkpt><trkpt lat="41.6600993" lon="13.4244108"><ele>301.0</ele><time>2026-04-25T08:57:32.682Z</time></trkpt><trkpt lat="41.6600788" lon="13.4245351"><ele>300.66666666666663</ele><time>2026-04-25T08:57:33.682Z</time></trkpt><trkpt lat="41.6600664" lon="13.4246601"><ele>300.3333333333333</ele><time>2026-04-25T08:57:34.682Z</time></trkpt><trkpt lat="41.6600539" lon="13.4247782"><ele>300.0</ele><time>2026-04-25T08:57:35.682Z</time></trkpt><trkpt lat="41.6600523" lon="13.4248913"><ele>299.6666666666667</ele><time>2026-04-25T08:57:36.682Z</time></trkpt><trkpt lat="41.6600502" lon="13.4250101"><ele>299.33333333333337</ele><time>2026-04-25T08:57:37.682Z</time></trkpt><trkpt lat="41.6600625" lon="13.4251237"><ele>299.0</ele><time>2026-04-25T08:57:38.682Z</time></trkpt><trkpt lat="41.66011" lon="13.4252295"><ele>299.0</ele><time>2026-04-25T08:57:39.682Z</time></trkpt><trkpt lat="41.6601562" lon="13.425327"><ele>299.0</ele><time>2026-04-25T08:57:40.682Z</time></trkpt><trkpt lat="41.6602081" lon="13.4254151"><ele>299.0</ele><time>2026-04-25T08:57:41.682Z</time></trkpt><trkpt lat="41.6602641" lon="13.4254858"><ele>299.0</ele><time>2026-04-25T08:57:42.683Z</time></trkpt><trkpt lat="41.6603218" lon="13.4255632"><ele>299.0</ele><time>2026-04-25T08:57:43.683Z</time></trkpt><trkpt lat="41.6603735" lon="13.4256325"><ele>299.0</ele><time>2026-04-25T08:57:44.682Z</time></trkpt><trkpt lat="41.6604259" lon="13.4257017"><ele>298.33333333333337</ele><time>2026-04-25T08:57:45.682Z</time></trkpt><trkpt lat="41.6604894" lon="13.4257733"><ele>297.6666666666667</ele><time>2026-04-25T08:57:46.682Z</time></trkpt><trkpt lat="41.6605526" lon="13.4258428"><ele>297.0</ele><time>2026-04-25T08:57:47.682Z</time></trkpt><trkpt lat="41.6606173" lon="13.4259151"><ele>296.3333333333333</ele><time>2026-04-25T08:57:48.682Z</time></trkpt><trkpt lat="41.6606905" lon="13.4259831"><ele>295.66666666666663</ele><time>2026-04-25T08:57:49.682Z</time></trkpt><trkpt lat="41.6607724" lon="13.4260483"><ele>295.0</ele><time>2026-04-25T08:57:50.682Z</time></trkpt><trkpt lat="41.6608565" lon="13.4261089"><ele>295.0</ele><time>2026-04-25T08:57:51.682Z</time></trkpt><trkpt lat="41.6609502" lon="13.426158"><ele>295.0</ele><time>2026-04-25T08:57:52.682Z</time></trkpt><trkpt lat="41.6610531" lon="13.4262009"><ele>295.0</ele><time>2026-04-25T08:57:53.682Z</time></trkpt><trkpt lat="41.6611704" lon="13.4262512"><ele>295.0</ele><time>2026-04-25T08:57:54.682Z</time></trkpt><trkpt lat="41.6613005" lon="13.4262998"><ele>295.5</ele><time>2026-04-25T08:57:55.682Z</time></trkpt><trkpt lat="41.6614282" lon="13.4263585"><ele>296.0</ele><time>2026-04-25T08:57:56.682Z</time></trkpt><trkpt lat="41.6615551" lon="13.4264109"><ele>296.5</ele><time>2026-04-25T08:57:57.682Z</time></trkpt><trkpt lat="41.6616808" lon="13.4264631"><ele>297.0</ele><time>2026-04-25T08:57:58.682Z</time></trkpt><trkpt lat="41.6618037" lon="13.4265063"><ele>297.0</ele><time>2026-04-25T08:57:59.682Z</time></trkpt><trkpt lat="41.6619281" lon="13.4265454"><ele>297.0</ele><time>2026-04-25T08:58:00.682Z</time></trkpt><trkpt lat="41.6620413" lon="13.4265624"><ele>297.0</ele><time>2026-04-25T08:58:01.682Z</time></trkpt><trkpt lat="41.6621503" lon="13.4265585"><ele>297.0</ele><time>2026-04-25T08:58:02.682Z</time></trkpt><trkpt lat="41.6622454" lon="13.4265398"><ele>297.0</ele><time>2026-04-25T08:58:03.683Z</time></trkpt><trkpt lat="41.6623172" lon="13.4265148"><ele>297.0</ele><time>2026-04-25T08:58:04.682Z</time></trkpt><trkpt lat="41.6624058" lon="13.4264814"><ele>297.0</ele><time>2026-04-25T08:58:06.682Z</time></trkpt><trkpt lat="41.662477" lon="13.4264896"><ele>297.0</ele><time>2026-04-25T08:58:15.682Z</time></trkpt><trkpt lat="41.6625221" lon="13.4265516"><ele>297.0</ele><time>2026-04-25T08:58:16.682Z</time></trkpt><trkpt lat="41.6625697" lon="13.4266316"><ele>297.0</ele><time>2026-04-25T08:58:17.682Z</time></trkpt><trkpt lat="41.6626213" lon="13.4267144"><ele>297.0</ele><time>2026-04-25T08:58:18.682Z</time></trkpt><trkpt lat="41.6626845" lon="13.4267916"><ele>297.0</ele><time>2026-04-25T08:58:19.682Z</time></trkpt><trkpt lat="41.6627523" lon="13.4268709"><ele>297.0</ele><time>2026-04-25T08:58:20.682Z</time></trkpt><trkpt lat="41.6628196" lon="13.4269533"><ele>297.0</ele><time>2026-04-25T08:58:21.682Z</time></trkpt><trkpt lat="41.6628863" lon="13.427039"><ele>297.0</ele><time>2026-04-25T08:58:22.682Z</time></trkpt><trkpt lat="41.6629516" lon="13.427127"><ele>297.0</ele><time>2026-04-25T08:58:23.682Z</time></trkpt><trkpt lat="41.6630151" lon="13.4272095"><ele>297.5</ele><time>2026-04-25T08:58:24.682Z</time></trkpt><trkpt lat="41.6630656" lon="13.4272879"><ele>298.0</ele><time>2026-04-25T08:58:25.682Z</time></trkpt><trkpt lat="41.66311" lon="13.4273666"><ele>298.5</ele><time>2026-04-25T08:58:26.682Z</time></trkpt><trkpt lat="41.6631601" lon="13.4274365"><ele>299.0</ele><time>2026-04-25T08:58:27.682Z</time></trkpt><trkpt lat="41.6632071" lon="13.4275004"><ele>299.5</ele><time>2026-04-25T08:58:28.682Z</time></trkpt><trkpt lat="41.6632922" lon="13.4276264"><ele>300.0</ele><time>2026-04-25T08:58:30.682Z</time></trkpt><trkpt lat="41.6633783" lon="13.4277485"><ele>300.0</ele><time>2026-04-25T08:58:32.683Z</time></trkpt><trkpt lat="41.6634409" lon="13.42786"><ele>300.0</ele><time>2026-04-25T08:58:34.682Z</time></trkpt><trkpt lat="41.6635227" lon="13.4279642"><ele>300.0</ele><time>2026-04-25T08:58:36.682Z</time></trkpt><trkpt lat="41.6635774" lon="13.4280293"><ele>300.0</ele><time>2026-04-25T08:58:37.682Z</time></trkpt><trkpt lat="41.6636378" lon="13.4281098"><ele>300.0</ele><time>2026-04-25T08:58:38.682Z</time></trkpt><trkpt lat="41.6637058" lon="13.428195"><ele>300.0</ele><time>2026-04-25T08:58:39.682Z</time></trkpt><trkpt lat="41.6637743" lon="13.4282888"><ele>300.0</ele><time>2026-04-25T08:58:40.682Z</time></trkpt><trkpt lat="41.6638586" lon="13.4284073"><ele>300.0</ele><time>2026-04-25T08:58:41.682Z</time></trkpt><trkpt lat="41.6639512" lon="13.4285339"><ele>300.0</ele><time>2026-04-25T08:58:42.682Z</time></trkpt><trkpt lat="41.6640438" lon="13.42865"><ele>300.0</ele><time>2026-04-25T08:58:43.682Z</time></trkpt><trkpt lat="41.6641311" lon="13.4287757"><ele>300.0</ele><time>2026-04-25T08:58:44.682Z</time></trkpt><trkpt lat="41.6642251" lon="13.4289053"><ele>300.0</ele><time>2026-04-25T08:58:45.682Z</time></trkpt><trkpt lat="41.6643238" lon="13.4290413"><ele>300.0</ele><time>2026-04-25T08:58:46.682Z</time></trkpt><trkpt lat="41.6644214" lon="13.4291801"><ele>301.3333333333333</ele><time>2026-04-25T08:58:47.682Z</time></trkpt><trkpt lat="41.6645231" lon="13.4293252"><ele>302.66666666666663</ele><time>2026-04-25T08:58:48.682Z</time></trkpt><trkpt lat="41.6646324" lon="13.4294686"><ele>304.0</ele><time>2026-04-25T08:58:49.682Z</time></trkpt><trkpt lat="41.6647406" lon="13.4296127"><ele>303.25</ele><time>2026-04-25T08:58:50.682Z</time></trkpt><trkpt lat="41.6648512" lon="13.4297526"><ele>302.5</ele><time>2026-04-25T08:58:51.682Z</time></trkpt><trkpt lat="41.6649465" lon="13.4298814"><ele>301.75</ele><time>2026-04-25T08:58:52.682Z</time></trkpt><trkpt lat="41.6650332" lon="13.4300017"><ele>301.0</ele><time>2026-04-25T08:58:53.682Z</time></trkpt><trkpt lat="41.6651132" lon="13.430113"><ele>301.0</ele><time>2026-04-25T08:58:54.682Z</time></trkpt><trkpt lat="41.6651923" lon="13.4302189"><ele>301.0</ele><time>2026-04-25T08:58:55.682Z</time></trkpt><trkpt lat="41.6652696" lon="13.4303278"><ele>301.0</ele><time>2026-04-25T08:58:56.682Z</time></trkpt><trkpt lat="41.6653465" lon="13.4304325"><ele>301.0</ele><time>2026-04-25T08:58:57.682Z</time></trkpt><trkpt lat="41.6654207" lon="13.4305404"><ele>301.0</ele><time>2026-04-25T08:58:58.682Z</time></trkpt><trkpt lat="41.6654941" lon="13.4306463"><ele>302.0</ele><time>2026-04-25T08:58:59.682Z</time></trkpt><trkpt lat="41.6655712" lon="13.4307521"><ele>303.0</ele><time>2026-04-25T08:59:00.682Z</time></trkpt><trkpt lat="41.665643" lon="13.430856"><ele>304.0</ele><time>2026-04-25T08:59:01.682Z</time></trkpt><trkpt lat="41.6657179" lon="13.4309591"><ele>305.0</ele><time>2026-04-25T08:59:02.682Z</time></trkpt><trkpt lat="41.6657951" lon="13.4310626"><ele>306.0</ele><time>2026-04-25T08:59:03.682Z</time></trkpt><trkpt lat="41.6658707" lon="13.4311617"><ele>306.0</ele><time>2026-04-25T08:59:04.682Z</time></trkpt><trkpt lat="41.6659448" lon="13.4312613"><ele>306.0</ele><time>2026-04-25T08:59:05.682Z</time></trkpt><trkpt lat="41.6660186" lon="13.4313636"><ele>306.0</ele><time>2026-04-25T08:59:06.682Z</time></trkpt><trkpt lat="41.666089" lon="13.4314632"><ele>306.0</ele><time>2026-04-25T08:59:07.682Z</time></trkpt><trkpt lat="41.6661623" lon="13.4315588"><ele>306.0</ele><time>2026-04-25T08:59:08.682Z</time></trkpt><trkpt lat="41.6662304" lon="13.4316559"><ele>306.8</ele><time>2026-04-25T08:59:09.682Z</time></trkpt><trkpt lat="41.6663004" lon="13.4317561"><ele>307.6</ele><time>2026-04-25T08:59:10.683Z</time></trkpt><trkpt lat="41.6663701" lon="13.4318539"><ele>308.4</ele><time>2026-04-25T08:59:11.682Z</time></trkpt><trkpt lat="41.6664343" lon="13.4319586"><ele>309.2</ele><time>2026-04-25T08:59:12.682Z</time></trkpt><trkpt lat="41.6664977" lon="13.4320876"><ele>310.0</ele><time>2026-04-25T08:59:13.682Z</time></trkpt><trkpt lat="41.6665525" lon="13.4322252"><ele>310.0</ele><time>2026-04-25T08:59:14.682Z</time></trkpt><trkpt lat="41.6665894" lon="13.432348"><ele>310.0</ele><time>2026-04-25T08:59:15.682Z</time></trkpt><trkpt lat="41.6666151" lon="13.4324704"><ele>310.0</ele><time>2026-04-25T08:59:16.682Z</time></trkpt><trkpt lat="41.666641" lon="13.4325929"><ele>310.0</ele><time>2026-04-25T08:59:17.682Z</time></trkpt><trkpt lat="41.6666792" lon="13.4327158"><ele>310.0</ele><time>2026-04-25T08:59:18.682Z</time></trkpt><trkpt lat="41.6667079" lon="13.4328353"><ele>310.0</ele><time>2026-04-25T08:59:19.682Z</time></trkpt><trkpt lat="41.6667381" lon="13.4329556"><ele>310.0</ele><time>2026-04-25T08:59:20.682Z</time></trkpt><trkpt lat="41.6667777" lon="13.4330656"><ele>310.0</ele><time>2026-04-25T08:59:21.682Z</time></trkpt><trkpt lat="41.6668326" lon="13.4331721"><ele>310.0</ele><time>2026-04-25T08:59:22.683Z</time></trkpt><trkpt lat="41.6668895" lon="13.4332626"><ele>310.0</ele><time>2026-04-25T08:59:23.682Z</time></trkpt><trkpt lat="41.6669488" lon="13.4333606"><ele>310.4</ele><time>2026-04-25T08:59:24.682Z</time></trkpt><trkpt lat="41.6670077" lon="13.4334541"><ele>310.8</ele><time>2026-04-25T08:59:25.682Z</time></trkpt><trkpt lat="41.6670638" lon="13.4335512"><ele>311.2</ele><time>2026-04-25T08:59:26.682Z</time></trkpt><trkpt lat="41.6671287" lon="13.4336551"><ele>311.6</ele><time>2026-04-25T08:59:27.683Z</time></trkpt><trkpt lat="41.667196" lon="13.4337513"><ele>312.0</ele><time>2026-04-25T08:59:28.682Z</time></trkpt><trkpt lat="41.6672665" lon="13.4338588"><ele>312.0</ele><time>2026-04-25T08:59:29.682Z</time></trkpt><trkpt lat="41.6673345" lon="13.4339676"><ele>312.0</ele><time>2026-04-25T08:59:30.682Z</time></trkpt><trkpt lat="41.6673988" lon="13.4340751"><ele>312.0</ele><time>2026-04-25T08:59:31.682Z</time></trkpt><trkpt lat="41.6674702" lon="13.4341704"><ele>312.0</ele><time>2026-04-25T08:59:32.682Z</time></trkpt><trkpt lat="41.6675334" lon="13.4342735"><ele>312.0</ele><time>2026-04-25T08:59:33.682Z</time></trkpt><trkpt lat="41.6675987" lon="13.43438"><ele>312.0</ele><time>2026-04-25T08:59:34.683Z</time></trkpt><trkpt lat="41.6676807" lon="13.4345091"><ele>312.0</ele><time>2026-04-25T08:59:35.682Z</time></trkpt><trkpt lat="41.6677632" lon="13.4346532"><ele>312.0</ele><time>2026-04-25T08:59:36.682Z</time></trkpt><trkpt lat="41.6678489" lon="13.4348002"><ele>312.0</ele><time>2026-04-25T08:59:37.682Z</time></trkpt><trkpt lat="41.6679365" lon="13.4349462"><ele>312.75</ele><time>2026-04-25T08:59:38.682Z</time></trkpt><trkpt lat="41.6680175" lon="13.4350959"><ele>313.5</ele><time>2026-04-25T08:59:39.682Z</time></trkpt><trkpt lat="41.6680933" lon="13.4352464"><ele>314.25</ele><time>2026-04-25T08:59:40.682Z</time></trkpt><trkpt lat="41.6681526" lon="13.4353898"><ele>315.0</ele><time>2026-04-25T08:59:41.682Z</time></trkpt><trkpt lat="41.6681892" lon="13.4355294"><ele>315.2</ele><time>2026-04-25T08:59:42.682Z</time></trkpt><trkpt lat="41.6681813" lon="13.4356569"><ele>315.4</ele><time>2026-04-25T08:59:43.682Z</time></trkpt><trkpt lat="41.6681371" lon="13.4357714"><ele>315.6</ele><time>2026-04-25T08:59:44.682Z</time></trkpt><trkpt lat="41.6680754" lon="13.4359024"><ele>315.8</ele><time>2026-04-25T08:59:45.682Z</time></trkpt><trkpt lat="41.6680075" lon="13.436033"><ele>316.0</ele><time>2026-04-25T08:59:46.682Z</time></trkpt><trkpt lat="41.6679414" lon="13.4361766"><ele>316.5</ele><time>2026-04-25T08:59:47.683Z</time></trkpt><trkpt lat="41.6678748" lon="13.4363236"><ele>317.0</ele><time>2026-04-25T08:59:48.682Z</time></trkpt><trkpt lat="41.6678114" lon="13.4364717"><ele>317.5</ele><time>2026-04-25T08:59:49.682Z</time></trkpt><trkpt lat="41.6677567" lon="13.4366225"><ele>318.0</ele><time>2026-04-25T08:59:50.682Z</time></trkpt><trkpt lat="41.6677261" lon="13.4367848"><ele>318.0</ele><time>2026-04-25T08:59:51.682Z</time></trkpt><trkpt lat="41.6677226" lon="13.4369484"><ele>318.0</ele><time>2026-04-25T08:59:52.682Z</time></trkpt><trkpt lat="41.667727" lon="13.4371232"><ele>318.0</ele><time>2026-04-25T08:59:53.682Z</time></trkpt><trkpt lat="41.6677394" lon="13.4372777"><ele>318.0</ele><time>2026-04-25T08:59:54.683Z</time></trkpt><trkpt lat="41.6677561" lon="13.4374219"><ele>320.6</ele><time>2026-04-25T08:59:55.682Z</time></trkpt><trkpt lat="41.6677777" lon="13.4375638"><ele>323.20000000000005</ele><time>2026-04-25T08:59:56.682Z</time></trkpt><trkpt lat="41.6678034" lon="13.4377003"><ele>325.8</ele><time>2026-04-25T08:59:57.682Z</time></trkpt><trkpt lat="41.6678351" lon="13.4378209"><ele>328.40000000000003</ele><time>2026-04-25T08:59:58.682Z</time></trkpt><trkpt lat="41.6678862" lon="13.4379465"><ele>331.0</ele><time>2026-04-25T08:59:59.682Z</time></trkpt><trkpt lat="41.6679632" lon="13.4380728"><ele>331.0</ele><time>2026-04-25T09:00:00.682Z</time></trkpt><trkpt lat="41.6680552" lon="13.4382072"><ele>331.0</ele><time>2026-04-25T09:00:01.682Z</time></trkpt><trkpt lat="41.668153" lon="13.4383619"><ele>331.0</ele><time>2026-04-25T09:00:02.682Z</time></trkpt><trkpt lat="41.6682509" lon="13.4385158"><ele>331.0</ele><time>2026-04-25T09:00:03.682Z</time></trkpt><trkpt lat="41.6683555" lon="13.4386682"><ele>330.5</ele><time>2026-04-25T09:00:04.682Z</time></trkpt><trkpt lat="41.6684524" lon="13.4388177"><ele>330.0</ele><time>2026-04-25T09:00:05.682Z</time></trkpt><trkpt lat="41.6685438" lon="13.4389603"><ele>329.5</ele><time>2026-04-25T09:00:06.682Z</time></trkpt><trkpt lat="41.6686184" lon="13.439097"><ele>329.0</ele><time>2026-04-25T09:00:07.682Z</time></trkpt><trkpt lat="41.6686708" lon="13.4392464"><ele>332.0</ele><time>2026-04-25T09:00:08.682Z</time></trkpt><trkpt lat="41.6686813" lon="13.4394022"><ele>335.0</ele><time>2026-04-25T09:00:09.682Z</time></trkpt><trkpt lat="41.6686788" lon="13.439568"><ele>338.0</ele><time>2026-04-25T09:00:10.682Z</time></trkpt><trkpt lat="41.6686917" lon="13.4397315"><ele>341.0</ele><time>2026-04-25T09:00:11.682Z</time></trkpt><trkpt lat="41.6687249" lon="13.4399017"><ele>341.75</ele><time>2026-04-25T09:00:12.682Z</time></trkpt><trkpt lat="41.6687786" lon="13.4400706"><ele>342.5</ele><time>2026-04-25T09:00:13.682Z</time></trkpt><trkpt lat="41.6688429" lon="13.4402335"><ele>343.25</ele><time>2026-04-25T09:00:14.682Z</time></trkpt><trkpt lat="41.6689127" lon="13.4404136"><ele>344.0</ele><time>2026-04-25T09:00:15.682Z</time></trkpt><trkpt lat="41.6689929" lon="13.4405822"><ele>344.75</ele><time>2026-04-25T09:00:16.682Z</time></trkpt><trkpt lat="41.6690739" lon="13.4407489"><ele>345.5</ele><time>2026-04-25T09:00:17.682Z</time></trkpt><trkpt lat="41.6691497" lon="13.440914"><ele>346.25</ele><time>2026-04-25T09:00:18.682Z</time></trkpt><trkpt lat="41.6692315" lon="13.4410686"><ele>347.0</ele><time>2026-04-25T09:00:19.682Z</time></trkpt><trkpt lat="41.6693053" lon="13.4412144"><ele>347.5</ele><time>2026-04-25T09:00:20.682Z</time></trkpt><trkpt lat="41.6693776" lon="13.4413503"><ele>348.0</ele><time>2026-04-25T09:00:21.682Z</time></trkpt><trkpt lat="41.6694502" lon="13.441477"><ele>348.5</ele><time>2026-04-25T09:00:22.682Z</time></trkpt><trkpt lat="41.6695342" lon="13.4415905"><ele>349.0</ele><time>2026-04-25T09:00:23.682Z</time></trkpt><trkpt lat="41.6696278" lon="13.4416824"><ele>349.0</ele><time>2026-04-25T09:00:24.682Z</time></trkpt><trkpt lat="41.6697363" lon="13.4417637"><ele>349.0</ele><time>2026-04-25T09:00:25.682Z</time></trkpt><trkpt lat="41.6698548" lon="13.4418161"><ele>349.0</ele><time>2026-04-25T09:00:26.682Z</time></trkpt><trkpt lat="41.6699732" lon="13.4418505"><ele>349.0</ele><time>2026-04-25T09:00:27.682Z</time></trkpt><trkpt lat="41.6700992" lon="13.4418718"><ele>349.0</ele><time>2026-04-25T09:00:28.682Z</time></trkpt><trkpt lat="41.6702232" lon="13.4418761"><ele>349.0</ele><time>2026-04-25T09:00:29.682Z</time></trkpt><trkpt lat="41.6703406" lon="13.4418389"><ele>349.0</ele><time>2026-04-25T09:00:30.682Z</time></trkpt><trkpt lat="41.6704549" lon="13.4417622"><ele>349.0</ele><time>2026-04-25T09:00:31.682Z</time></trkpt><trkpt lat="41.6705532" lon="13.4416571"><ele>348.25</ele><time>2026-04-25T09:00:32.682Z</time></trkpt><trkpt lat="41.6706462" lon="13.4415271"><ele>347.5</ele><time>2026-04-25T09:00:33.682Z</time></trkpt><trkpt lat="41.670741" lon="13.441384"><ele>346.75</ele><time>2026-04-25T09:00:34.682Z</time></trkpt><trkpt lat="41.6708209" lon="13.4412477"><ele>346.0</ele><time>2026-04-25T09:00:35.682Z</time></trkpt><trkpt lat="41.670899" lon="13.4411579"><ele>346.0</ele><time>2026-04-25T09:00:36.682Z</time></trkpt><trkpt lat="41.6709743" lon="13.4411354"><ele>346.0</ele><time>2026-04-25T09:00:37.682Z</time></trkpt><trkpt lat="41.6710397" lon="13.4411582"><ele>346.0</ele><time>2026-04-25T09:00:38.682Z</time></trkpt><trkpt lat="41.6710832" lon="13.4412297"><ele>346.0</ele><time>2026-04-25T09:00:39.682Z</time></trkpt><trkpt lat="41.6710899" lon="13.441324"><ele>346.0</ele><time>2026-04-25T09:00:40.682Z</time></trkpt><trkpt lat="41.6710794" lon="13.4414671"><ele>346.0</ele><time>2026-04-25T09:00:41.682Z</time></trkpt><trkpt lat="41.6710538" lon="13.4416373"><ele>346.0</ele><time>2026-04-25T09:00:42.682Z</time></trkpt><trkpt lat="41.671018" lon="13.441814"><ele>346.0</ele><time>2026-04-25T09:00:43.682Z</time></trkpt><trkpt lat="41.6709876" lon="13.4419974"><ele>346.0</ele><time>2026-04-25T09:00:44.682Z</time></trkpt><trkpt lat="41.6709449" lon="13.442189"><ele>346.0</ele><time>2026-04-25T09:00:45.682Z</time></trkpt><trkpt lat="41.6709143" lon="13.4423694"><ele>344.5</ele><time>2026-04-25T09:00:46.682Z</time></trkpt><trkpt lat="41.6708948" lon="13.4425376"><ele>343.0</ele><time>2026-04-25T09:00:47.682Z</time></trkpt><trkpt lat="41.6708933" lon="13.442688"><ele>341.5</ele><time>2026-04-25T09:00:48.682Z</time></trkpt><trkpt lat="41.6709243" lon="13.4428433"><ele>340.0</ele><time>2026-04-25T09:00:49.682Z</time></trkpt><trkpt lat="41.6709969" lon="13.4429711"><ele>338.75</ele><time>2026-04-25T09:00:50.683Z</time></trkpt><trkpt lat="41.6710911" lon="13.4431034"><ele>337.5</ele><time>2026-04-25T09:00:51.682Z</time></trkpt><trkpt lat="41.6712109" lon="13.4432217"><ele>336.25</ele><time>2026-04-25T09:00:52.682Z</time></trkpt><trkpt lat="41.6713365" lon="13.4433248"><ele>335.0</ele><time>2026-04-25T09:00:53.682Z</time></trkpt><trkpt lat="41.6714626" lon="13.4434239"><ele>338.33333333333337</ele><time>2026-04-25T09:00:54.682Z</time></trkpt><trkpt lat="41.6715781" lon="13.4434918"><ele>341.6666666666667</ele><time>2026-04-25T09:00:55.682Z</time></trkpt><trkpt lat="41.6716646" lon="13.443557"><ele>345.0</ele><time>2026-04-25T09:00:56.683Z</time></trkpt><trkpt lat="41.6717193" lon="13.4436463"><ele>348.3333333333333</ele><time>2026-04-25T09:00:57.682Z</time></trkpt><trkpt lat="41.6717232" lon="13.4437314"><ele>351.66666666666663</ele><time>2026-04-25T09:00:58.682Z</time></trkpt><trkpt lat="41.6716887" lon="13.4438126"><ele>355.0</ele><time>2026-04-25T09:00:59.683Z</time></trkpt><trkpt lat="41.671616" lon="13.443878"><ele>356.6</ele><time>2026-04-25T09:01:00.682Z</time></trkpt><trkpt lat="41.6715288" lon="13.4438906"><ele>358.2</ele><time>2026-04-25T09:01:01.682Z</time></trkpt><trkpt lat="41.6714287" lon="13.4439017"><ele>359.79999999999995</ele><time>2026-04-25T09:01:02.682Z</time></trkpt><trkpt lat="41.6713222" lon="13.4439364"><ele>361.4</ele><time>2026-04-25T09:01:03.682Z</time></trkpt><trkpt lat="41.6711998" lon="13.4440085"><ele>363.0</ele><time>2026-04-25T09:01:04.682Z</time></trkpt><trkpt lat="41.6710857" lon="13.4440887"><ele>358.25</ele><time>2026-04-25T09:01:05.682Z</time></trkpt><trkpt lat="41.6709889" lon="13.4441874"><ele>353.5</ele><time>2026-04-25T09:01:06.682Z</time></trkpt><trkpt lat="41.6708942" lon="13.44429"><ele>348.75</ele><time>2026-04-25T09:01:07.682Z</time></trkpt><trkpt lat="41.6708098" lon="13.4444131"><ele>344.0</ele><time>2026-04-25T09:01:08.682Z</time></trkpt><trkpt lat="41.6707271" lon="13.4445735"><ele>348.0</ele><time>2026-04-25T09:01:09.682Z</time></trkpt><trkpt lat="41.6706721" lon="13.4447508"><ele>352.0</ele><time>2026-04-25T09:01:10.682Z</time></trkpt><trkpt lat="41.6706219" lon="13.4449357"><ele>356.0</ele><time>2026-04-25T09:01:11.682Z</time></trkpt><trkpt lat="41.6705888" lon="13.4451276"><ele>360.0</ele><time>2026-04-25T09:01:12.682Z</time></trkpt><trkpt lat="41.6705599" lon="13.4453074"><ele>360.0</ele><time>2026-04-25T09:01:13.682Z</time></trkpt><trkpt lat="41.6705425" lon="13.4454796"><ele>360.0</ele><time>2026-04-25T09:01:14.682Z</time></trkpt><trkpt lat="41.6705358" lon="13.4456246"><ele>360.0</ele><time>2026-04-25T09:01:15.682Z</time></trkpt><trkpt lat="41.6705667" lon="13.4457648"><ele>360.0</ele><time>2026-04-25T09:01:16.682Z</time></trkpt><trkpt lat="41.6706325" lon="13.4458916"><ele>360.0</ele><time>2026-04-25T09:01:17.682Z</time></trkpt><trkpt lat="41.6707113" lon="13.4460256"><ele>360.0</ele><time>2026-04-25T09:01:18.682Z</time></trkpt><trkpt lat="41.6708289" lon="13.4461548"><ele>360.0</ele><time>2026-04-25T09:01:19.682Z</time></trkpt><trkpt lat="41.6709402" lon="13.446258"><ele>360.0</ele><time>2026-04-25T09:01:20.682Z</time></trkpt><trkpt lat="41.6710654" lon="13.4463378"><ele>363.0</ele><time>2026-04-25T09:01:21.682Z</time></trkpt><trkpt lat="41.6711776" lon="13.446419"><ele>366.0</ele><time>2026-04-25T09:01:22.682Z</time></trkpt><trkpt lat="41.6712575" lon="13.4465033"><ele>369.0</ele><time>2026-04-25T09:01:23.682Z</time></trkpt><trkpt lat="41.6712738" lon="13.4466772"><ele>372.0</ele><time>2026-04-25T09:01:25.682Z</time></trkpt><trkpt lat="41.6712244" lon="13.4467476"><ele>375.0</ele><time>2026-04-25T09:01:26.682Z</time></trkpt><trkpt lat="41.6711493" lon="13.4468053"><ele>370.75</ele><time>2026-04-25T09:01:27.682Z</time></trkpt><trkpt lat="41.6710538" lon="13.4468579"><ele>366.5</ele><time>2026-04-25T09:01:28.682Z</time></trkpt><trkpt lat="41.6709479" lon="13.4468983"><ele>362.25</ele><time>2026-04-25T09:01:29.682Z</time></trkpt><trkpt lat="41.6708298" lon="13.4469587"><ele>358.0</ele><time>2026-04-25T09:01:30.682Z</time></trkpt><trkpt lat="41.6707377" lon="13.4470398"><ele>361.75</ele><time>2026-04-25T09:01:31.682Z</time></trkpt><trkpt lat="41.6706442" lon="13.4471479"><ele>365.5</ele><time>2026-04-25T09:01:32.682Z</time></trkpt><trkpt lat="41.6705755" lon="13.4472995"><ele>369.25</ele><time>2026-04-25T09:01:33.682Z</time></trkpt><trkpt lat="41.6705228" lon="13.4474688"><ele>373.0</ele><time>2026-04-25T09:01:34.682Z</time></trkpt><trkpt lat="41.6704898" lon="13.4476618"><ele>373.0</ele><time>2026-04-25T09:01:35.682Z</time></trkpt><trkpt lat="41.6704705" lon="13.4478603"><ele>373.0</ele><time>2026-04-25T09:01:36.682Z</time></trkpt><trkpt lat="41.6704525" lon="13.4480705"><ele>373.0</ele><time>2026-04-25T09:01:37.682Z</time></trkpt><trkpt lat="41.6704237" lon="13.4482623"><ele>372.75</ele><time>2026-04-25T09:01:38.682Z</time></trkpt><trkpt lat="41.6703711" lon="13.4484511"><ele>372.5</ele><time>2026-04-25T09:01:39.682Z</time></trkpt><trkpt lat="41.6702921" lon="13.4486023"><ele>372.25</ele><time>2026-04-25T09:01:40.682Z</time></trkpt><trkpt lat="41.670199" lon="13.4487255"><ele>372.0</ele><time>2026-04-25T09:01:41.682Z</time></trkpt><trkpt lat="41.6700976" lon="13.4488412"><ele>374.25</ele><time>2026-04-25T09:01:42.682Z</time></trkpt><trkpt lat="41.670006" lon="13.4489734"><ele>376.5</ele><time>2026-04-25T09:01:43.683Z</time></trkpt><trkpt lat="41.6699383" lon="13.4491337"><ele>378.75</ele><time>2026-04-25T09:01:44.682Z</time></trkpt><trkpt lat="41.6698803" lon="13.4493316"><ele>381.0</ele><time>2026-04-25T09:01:45.682Z</time></trkpt><trkpt lat="41.6698495" lon="13.4495294"><ele>382.0</ele><time>2026-04-25T09:01:46.682Z</time></trkpt><trkpt lat="41.6698305" lon="13.4497331"><ele>383.0</ele><time>2026-04-25T09:01:47.682Z</time></trkpt><trkpt lat="41.669828" lon="13.4499239"><ele>384.0</ele><time>2026-04-25T09:01:48.682Z</time></trkpt><trkpt lat="41.6698333" lon="13.4501065"><ele>385.0</ele><time>2026-04-25T09:01:49.682Z</time></trkpt><trkpt lat="41.6698486" lon="13.4502772"><ele>385.0</ele><time>2026-04-25T09:01:50.682Z</time></trkpt><trkpt lat="41.6698746" lon="13.4504549"><ele>385.0</ele><time>2026-04-25T09:01:51.682Z</time></trkpt><trkpt lat="41.66992" lon="13.4506369"><ele>385.0</ele><time>2026-04-25T09:01:52.682Z</time></trkpt><trkpt lat="41.6699858" lon="13.4508099"><ele>385.0</ele><time>2026-04-25T09:01:53.682Z</time></trkpt><trkpt lat="41.6700682" lon="13.4509605"><ele>385.25</ele><time>2026-04-25T09:01:54.682Z</time></trkpt><trkpt lat="41.6701687" lon="13.4510889"><ele>385.5</ele><time>2026-04-25T09:01:55.682Z</time></trkpt><trkpt lat="41.67028" lon="13.4512067"><ele>385.75</ele><time>2026-04-25T09:01:56.682Z</time></trkpt><trkpt lat="41.6704007" lon="13.4513192"><ele>386.0</ele><time>2026-04-25T09:01:57.682Z</time></trkpt><trkpt lat="41.6705272" lon="13.4514167"><ele>386.5</ele><time>2026-04-25T09:01:58.682Z</time></trkpt><trkpt lat="41.670657" lon="13.4514811"><ele>387.0</ele><time>2026-04-25T09:01:59.682Z</time></trkpt><trkpt lat="41.6708067" lon="13.4515113"><ele>387.5</ele><time>2026-04-25T09:02:00.682Z</time></trkpt><trkpt lat="41.6709624" lon="13.451519"><ele>388.0</ele><time>2026-04-25T09:02:01.682Z</time></trkpt><trkpt lat="41.6711077" lon="13.4515193"><ele>388.25</ele><time>2026-04-25T09:02:02.682Z</time></trkpt><trkpt lat="41.6712399" lon="13.4515244"><ele>388.5</ele><time>2026-04-25T09:02:03.682Z</time></trkpt><trkpt lat="41.6713697" lon="13.4515377"><ele>388.75</ele><time>2026-04-25T09:02:04.682Z</time></trkpt><trkpt lat="41.6714839" lon="13.451571"><ele>389.0</ele><time>2026-04-25T09:02:05.682Z</time></trkpt><trkpt lat="41.6715679" lon="13.4516384"><ele>389.0</ele><time>2026-04-25T09:02:06.682Z</time></trkpt><trkpt lat="41.6716357" lon="13.4517425"><ele>389.0</ele><time>2026-04-25T09:02:07.682Z</time></trkpt><trkpt lat="41.6716699" lon="13.4518842"><ele>389.0</ele><time>2026-04-25T09:02:08.682Z</time></trkpt><trkpt lat="41.6716702" lon="13.4520592"><ele>389.0</ele><time>2026-04-25T09:02:09.682Z</time></trkpt><trkpt lat="41.6716288" lon="13.4522508"><ele>389.66666666666663</ele><time>2026-04-25T09:02:10.682Z</time></trkpt><trkpt lat="41.6715657" lon="13.452443"><ele>390.33333333333337</ele><time>2026-04-25T09:02:11.682Z</time></trkpt><trkpt lat="41.6714904" lon="13.4526264"><ele>391.0</ele><time>2026-04-25T09:02:12.682Z</time></trkpt><trkpt lat="41.6714027" lon="13.4528055"><ele>394.33333333333337</ele><time>2026-04-25T09:02:13.682Z</time></trkpt><trkpt lat="41.6713116" lon="13.4529893"><ele>397.66666666666663</ele><time>2026-04-25T09:02:14.682Z</time></trkpt><trkpt lat="41.6712105" lon="13.4531735"><ele>401.0</ele><time>2026-04-25T09:02:15.682Z</time></trkpt><trkpt lat="41.6710995" lon="13.4533514"><ele>397.66666666666663</ele><time>2026-04-25T09:02:16.682Z</time></trkpt><trkpt lat="41.6709809" lon="13.4535288"><ele>394.33333333333337</ele><time>2026-04-25T09:02:17.682Z</time></trkpt><trkpt lat="41.6708659" lon="13.4536956"><ele>391.0</ele><time>2026-04-25T09:02:18.683Z</time></trkpt><trkpt lat="41.6707472" lon="13.4538585"><ele>391.0</ele><time>2026-04-25T09:02:19.682Z</time></trkpt><trkpt lat="41.6706392" lon="13.4540148"><ele>391.0</ele><time>2026-04-25T09:02:20.682Z</time></trkpt><trkpt lat="41.6705421" lon="13.4541669"><ele>391.0</ele><time>2026-04-25T09:02:21.682Z</time></trkpt><trkpt lat="41.6704594" lon="13.454313"><ele>391.0</ele><time>2026-04-25T09:02:22.682Z</time></trkpt><trkpt lat="41.6703917" lon="13.4544706"><ele>390.8</ele><time>2026-04-25T09:02:23.682Z</time></trkpt><trkpt lat="41.6703386" lon="13.4546241"><ele>390.6</ele><time>2026-04-25T09:02:24.682Z</time></trkpt><trkpt lat="41.6703138" lon="13.4547747"><ele>390.4</ele><time>2026-04-25T09:02:25.682Z</time></trkpt><trkpt lat="41.67031" lon="13.4549203"><ele>390.2</ele><time>2026-04-25T09:02:26.682Z</time></trkpt><trkpt lat="41.6703232" lon="13.4550511"><ele>390.0</ele><time>2026-04-25T09:02:27.682Z</time></trkpt><trkpt lat="41.6703812" lon="13.455173"><ele>390.0</ele><time>2026-04-25T09:02:28.682Z</time></trkpt><trkpt lat="41.6704534" lon="13.4553132"><ele>390.0</ele><time>2026-04-25T09:02:29.682Z</time></trkpt><trkpt lat="41.6705381" lon="13.4554471"><ele>390.0</ele><time>2026-04-25T09:02:30.682Z</time></trkpt><trkpt lat="41.6706218" lon="13.4555886"><ele>390.0</ele><time>2026-04-25T09:02:31.682Z</time></trkpt><trkpt lat="41.6706865" lon="13.4557443"><ele>389.5</ele><time>2026-04-25T09:02:32.682Z</time></trkpt><trkpt lat="41.6707471" lon="13.4558944"><ele>389.0</ele><time>2026-04-25T09:02:33.682Z</time></trkpt><trkpt lat="41.6707983" lon="13.4560421"><ele>388.5</ele><time>2026-04-25T09:02:34.682Z</time></trkpt><trkpt lat="41.6708492" lon="13.456194"><ele>388.0</ele><time>2026-04-25T09:02:35.682Z</time></trkpt><trkpt lat="41.6708898" lon="13.456351"><ele>387.5</ele><time>2026-04-25T09:02:36.682Z</time></trkpt><trkpt lat="41.6709302" lon="13.4565078"><ele>387.0</ele><time>2026-04-25T09:02:37.682Z</time></trkpt><trkpt lat="41.6709702" lon="13.4566641"><ele>386.5</ele><time>2026-04-25T09:02:38.682Z</time></trkpt><trkpt lat="41.6710132" lon="13.4568116"><ele>386.0</ele><time>2026-04-25T09:02:39.683Z</time></trkpt><trkpt lat="41.671062" lon="13.456957"><ele>384.25</ele><time>2026-04-25T09:02:40.682Z</time></trkpt><trkpt lat="41.6711373" lon="13.4570934"><ele>382.5</ele><time>2026-04-25T09:02:41.682Z</time></trkpt><trkpt lat="41.6712376" lon="13.4572139"><ele>380.75</ele><time>2026-04-25T09:02:42.682Z</time></trkpt><trkpt lat="41.6713648" lon="13.4573238"><ele>379.0</ele><time>2026-04-25T09:02:43.682Z</time></trkpt><trkpt lat="41.6715031" lon="13.457424"><ele>379.0</ele><time>2026-04-25T09:02:44.682Z</time></trkpt><trkpt lat="41.67164" lon="13.4575236"><ele>379.0</ele><time>2026-04-25T09:02:45.682Z</time></trkpt><trkpt lat="41.6717702" lon="13.4576144"><ele>379.0</ele><time>2026-04-25T09:02:46.682Z</time></trkpt><trkpt lat="41.6718989" lon="13.4577096"><ele>378.75</ele><time>2026-04-25T09:02:47.682Z</time></trkpt><trkpt lat="41.672018" lon="13.4578099"><ele>378.5</ele><time>2026-04-25T09:02:48.682Z</time></trkpt><trkpt lat="41.6721305" lon="13.4579257"><ele>378.25</ele><time>2026-04-25T09:02:49.682Z</time></trkpt><trkpt lat="41.6722428" lon="13.458066"><ele>378.0</ele><time>2026-04-25T09:02:50.682Z</time></trkpt><trkpt lat="41.6723527" lon="13.4582257"><ele>375.6666666666667</ele><time>2026-04-25T09:02:51.682Z</time></trkpt><trkpt lat="41.6724512" lon="13.4584018"><ele>373.33333333333337</ele><time>2026-04-25T09:02:52.682Z</time></trkpt><trkpt lat="41.6725398" lon="13.458589"><ele>371.0</ele><time>2026-04-25T09:02:53.682Z</time></trkpt><trkpt lat="41.6726234" lon="13.4587637"><ele>371.0</ele><time>2026-04-25T09:02:54.682Z</time></trkpt><trkpt lat="41.6727181" lon="13.4589445"><ele>371.0</ele><time>2026-04-25T09:02:55.682Z</time></trkpt><trkpt lat="41.6728096" lon="13.459134"><ele>371.0</ele><time>2026-04-25T09:02:56.682Z</time></trkpt><trkpt lat="41.6728982" lon="13.4593236"><ele>365.6666666666667</ele><time>2026-04-25T09:02:57.683Z</time></trkpt><trkpt lat="41.6729932" lon="13.4595167"><ele>360.3333333333333</ele><time>2026-04-25T09:02:58.682Z</time></trkpt><trkpt lat="41.6730868" lon="13.459716"><ele>355.0</ele><time>2026-04-25T09:02:59.682Z</time></trkpt><trkpt lat="41.6731835" lon="13.4599166"><ele>354.66666666666663</ele><time>2026-04-25T09:03:00.682Z</time></trkpt><trkpt lat="41.6732806" lon="13.4601145"><ele>354.3333333333333</ele><time>2026-04-25T09:03:01.683Z</time></trkpt><trkpt lat="41.6733738" lon="13.4603089"><ele>354.0</ele><time>2026-04-25T09:03:02.682Z</time></trkpt><trkpt lat="41.6734607" lon="13.4604987"><ele>353.0</ele><time>2026-04-25T09:03:03.682Z</time></trkpt><trkpt lat="41.6735464" lon="13.4606864"><ele>352.0</ele><time>2026-04-25T09:03:04.682Z</time></trkpt><trkpt lat="41.6736348" lon="13.4608657"><ele>351.0</ele><time>2026-04-25T09:03:05.682Z</time></trkpt><trkpt lat="41.6737209" lon="13.4610321"><ele>350.6666666666667</ele><time>2026-04-25T09:03:06.682Z</time></trkpt><trkpt lat="41.67381" lon="13.4612046"><ele>350.33333333333337</ele><time>2026-04-25T09:03:07.682Z</time></trkpt><trkpt lat="41.6738956" lon="13.4613699"><ele>350.0</ele><time>2026-04-25T09:03:08.682Z</time></trkpt><trkpt lat="41.6739831" lon="13.4615497"><ele>348.0</ele><time>2026-04-25T09:03:09.682Z</time></trkpt><trkpt lat="41.6740701" lon="13.4617395"><ele>346.0</ele><time>2026-04-25T09:03:10.682Z</time></trkpt><trkpt lat="41.6741476" lon="13.4619578"><ele>344.0</ele><time>2026-04-25T09:03:11.682Z</time></trkpt><trkpt lat="41.6742043" lon="13.4621837"><ele>342.6666666666667</ele><time>2026-04-25T09:03:12.682Z</time></trkpt><trkpt lat="41.6742387" lon="13.4624292"><ele>341.3333333333333</ele><time>2026-04-25T09:03:13.682Z</time></trkpt><trkpt lat="41.6742552" lon="13.4626781"><ele>340.0</ele><time>2026-04-25T09:03:14.682Z</time></trkpt><trkpt lat="41.6742536" lon="13.4629305"><ele>339.0</ele><time>2026-04-25T09:03:15.682Z</time></trkpt><trkpt lat="41.6742469" lon="13.4631725"><ele>338.0</ele><time>2026-04-25T09:03:16.682Z</time></trkpt><trkpt lat="41.6742376" lon="13.4633989"><ele>337.0</ele><time>2026-04-25T09:03:17.682Z</time></trkpt><trkpt lat="41.6742251" lon="13.4636221"><ele>337.25</ele><time>2026-04-25T09:03:18.682Z</time></trkpt><trkpt lat="41.6742174" lon="13.4638386"><ele>337.5</ele><time>2026-04-25T09:03:19.682Z</time></trkpt><trkpt lat="41.6742109" lon="13.4640397"><ele>337.75</ele><time>2026-04-25T09:03:20.682Z</time></trkpt><trkpt lat="41.6742065" lon="13.4642224"><ele>338.0</ele><time>2026-04-25T09:03:21.682Z</time></trkpt><trkpt lat="41.6741986" lon="13.464394"><ele>338.0</ele><time>2026-04-25T09:03:22.682Z</time></trkpt><trkpt lat="41.674194" lon="13.4645672"><ele>338.0</ele><time>2026-04-25T09:03:23.682Z</time></trkpt><trkpt lat="41.674187" lon="13.4647258"><ele>338.0</ele><time>2026-04-25T09:03:24.682Z</time></trkpt><trkpt lat="41.6741788" lon="13.4648804"><ele>338.0</ele><time>2026-04-25T09:03:25.682Z</time></trkpt><trkpt lat="41.6741695" lon="13.4650279"><ele>338.0</ele><time>2026-04-25T09:03:26.682Z</time></trkpt><trkpt lat="41.6741575" lon="13.4651615"><ele>338.0</ele><time>2026-04-25T09:03:27.682Z</time></trkpt><trkpt lat="41.6741527" lon="13.4652988"><ele>338.0</ele><time>2026-04-25T09:03:28.682Z</time></trkpt><trkpt lat="41.6741503" lon="13.465434"><ele>338.0</ele><time>2026-04-25T09:03:29.682Z</time></trkpt><trkpt lat="41.6741413" lon="13.4655768"><ele>338.0</ele><time>2026-04-25T09:03:30.682Z</time></trkpt><trkpt lat="41.6741381" lon="13.4657181"><ele>338.4</ele><time>2026-04-25T09:03:31.682Z</time></trkpt><trkpt lat="41.6741363" lon="13.4658573"><ele>338.79999999999995</ele><time>2026-04-25T09:03:32.682Z</time></trkpt><trkpt lat="41.6741363" lon="13.4659957"><ele>339.2</ele><time>2026-04-25T09:03:33.682Z</time></trkpt><trkpt lat="41.6741347" lon="13.4661356"><ele>339.6</ele><time>2026-04-25T09:03:34.682Z</time></trkpt><trkpt lat="41.6741347" lon="13.4662701"><ele>340.0</ele><time>2026-04-25T09:03:35.682Z</time></trkpt><trkpt lat="41.6741387" lon="13.4664064"><ele>340.0</ele><time>2026-04-25T09:03:36.682Z</time></trkpt><trkpt lat="41.6741459" lon="13.4665518"><ele>340.0</ele><time>2026-04-25T09:03:37.682Z</time></trkpt><trkpt lat="41.6741567" lon="13.4666935"><ele>340.0</ele><time>2026-04-25T09:03:38.682Z</time></trkpt><trkpt lat="41.6741688" lon="13.4668441"><ele>340.0</ele><time>2026-04-25T09:03:39.682Z</time></trkpt><trkpt lat="41.6741836" lon="13.4670069"><ele>339.75</ele><time>2026-04-25T09:03:40.682Z</time></trkpt><trkpt lat="41.6742069" lon="13.4671805"><ele>339.5</ele><time>2026-04-25T09:03:41.682Z</time></trkpt><trkpt lat="41.6742351" lon="13.4673437"><ele>339.25</ele><time>2026-04-25T09:03:42.682Z</time></trkpt><trkpt lat="41.6742612" lon="13.4675089"><ele>339.0</ele><time>2026-04-25T09:03:43.682Z</time></trkpt><trkpt lat="41.6742894" lon="13.4676688"><ele>339.0</ele><time>2026-04-25T09:03:44.682Z</time></trkpt><trkpt lat="41.6743187" lon="13.4678164"><ele>339.0</ele><time>2026-04-25T09:03:45.682Z</time></trkpt><trkpt lat="41.674346" lon="13.4679569"><ele>339.0</ele><time>2026-04-25T09:03:46.682Z</time></trkpt><trkpt lat="41.6743722" lon="13.4680964"><ele>339.0</ele><time>2026-04-25T09:03:47.682Z</time></trkpt><trkpt lat="41.674395" lon="13.4682422"><ele>339.0</ele><time>2026-04-25T09:03:48.682Z</time></trkpt><trkpt lat="41.6744214" lon="13.4683885"><ele>338.75</ele><time>2026-04-25T09:03:49.682Z</time></trkpt><trkpt lat="41.674449" lon="13.4685371"><ele>338.5</ele><time>2026-04-25T09:03:50.682Z</time></trkpt><trkpt lat="41.6744764" lon="13.4686874"><ele>338.25</ele><time>2026-04-25T09:03:51.682Z</time></trkpt><trkpt lat="41.6745022" lon="13.4688458"><ele>338.0</ele><time>2026-04-25T09:03:52.682Z</time></trkpt><trkpt lat="41.6745274" lon="13.4690039"><ele>337.0</ele><time>2026-04-25T09:03:53.682Z</time></trkpt><trkpt lat="41.6745552" lon="13.4691592"><ele>336.0</ele><time>2026-04-25T09:03:54.682Z</time></trkpt><trkpt lat="41.674591" lon="13.4693149"><ele>335.0</ele><time>2026-04-25T09:03:55.682Z</time></trkpt><trkpt lat="41.6746174" lon="13.4694668"><ele>334.0</ele><time>2026-04-25T09:03:56.682Z</time></trkpt><trkpt lat="41.6746374" lon="13.4696252"><ele>333.75</ele><time>2026-04-25T09:03:57.682Z</time></trkpt><trkpt lat="41.6746499" lon="13.4697802"><ele>333.5</ele><time>2026-04-25T09:03:58.682Z</time></trkpt><trkpt lat="41.6746726" lon="13.4699403"><ele>333.25</ele><time>2026-04-25T09:03:59.682Z</time></trkpt><trkpt lat="41.6746905" lon="13.4700859"><ele>333.0</ele><time>2026-04-25T09:04:00.682Z</time></trkpt><trkpt lat="41.6747085" lon="13.4702486"><ele>333.0</ele><time>2026-04-25T09:04:01.682Z</time></trkpt><trkpt lat="41.6747605" lon="13.4704037"><ele>333.0</ele><time>2026-04-25T09:04:02.682Z</time></trkpt><trkpt lat="41.6747917" lon="13.4705404"><ele>333.0</ele><time>2026-04-25T09:04:03.682Z</time></trkpt><trkpt lat="41.6748218" lon="13.4706773"><ele>333.0</ele><time>2026-04-25T09:04:04.682Z</time></trkpt><trkpt lat="41.6748535" lon="13.4708223"><ele>332.25</ele><time>2026-04-25T09:04:05.682Z</time></trkpt><trkpt lat="41.6748854" lon="13.4709795"><ele>331.5</ele><time>2026-04-25T09:04:06.682Z</time></trkpt><trkpt lat="41.6749119" lon="13.4711299"><ele>330.75</ele><time>2026-04-25T09:04:07.682Z</time></trkpt><trkpt lat="41.6749397" lon="13.4712866"><ele>330.0</ele><time>2026-04-25T09:04:08.682Z</time></trkpt><trkpt lat="41.6749703" lon="13.4714423"><ele>329.75</ele><time>2026-04-25T09:04:09.682Z</time></trkpt><trkpt lat="41.6750003" lon="13.471602"><ele>329.5</ele><time>2026-04-25T09:04:10.682Z</time></trkpt><trkpt lat="41.6750306" lon="13.4717749"><ele>329.25</ele><time>2026-04-25T09:04:11.682Z</time></trkpt><trkpt lat="41.6750561" lon="13.471959"><ele>329.0</ele><time>2026-04-25T09:04:12.682Z</time></trkpt><trkpt lat="41.6750873" lon="13.4721546"><ele>328.33333333333337</ele><time>2026-04-25T09:04:13.682Z</time></trkpt><trkpt lat="41.6751221" lon="13.4723498"><ele>327.6666666666667</ele><time>2026-04-25T09:04:14.682Z</time></trkpt><trkpt lat="41.6751552" lon="13.4725528"><ele>327.0</ele><time>2026-04-25T09:04:15.682Z</time></trkpt><trkpt lat="41.6751872" lon="13.4727426"><ele>327.0</ele><time>2026-04-25T09:04:16.682Z</time></trkpt><trkpt lat="41.67522" lon="13.4729327"><ele>327.0</ele><time>2026-04-25T09:04:17.682Z</time></trkpt><trkpt lat="41.6752489" lon="13.47312"><ele>327.0</ele><time>2026-04-25T09:04:18.682Z</time></trkpt><trkpt lat="41.675281" lon="13.4733095"><ele>327.0</ele><time>2026-04-25T09:04:19.683Z</time></trkpt><trkpt lat="41.6753091" lon="13.4734974"><ele>326.0</ele><time>2026-04-25T09:04:20.682Z</time></trkpt><trkpt lat="41.675337" lon="13.4736892"><ele>325.0</ele><time>2026-04-25T09:04:21.682Z</time></trkpt><trkpt lat="41.6753669" lon="13.4738853"><ele>324.0</ele><time>2026-04-25T09:04:22.682Z</time></trkpt><trkpt lat="41.6753881" lon="13.4740862"><ele>323.0</ele><time>2026-04-25T09:04:23.682Z</time></trkpt><trkpt lat="41.6753983" lon="13.4742874"><ele>323.33333333333337</ele><time>2026-04-25T09:04:24.683Z</time></trkpt><trkpt lat="41.6753925" lon="13.4744973"><ele>323.6666666666667</ele><time>2026-04-25T09:04:25.682Z</time></trkpt><trkpt lat="41.6753671" lon="13.4747066"><ele>324.0</ele><time>2026-04-25T09:04:26.682Z</time></trkpt><trkpt lat="41.6753292" lon="13.4749124"><ele>324.0</ele><time>2026-04-25T09:04:27.682Z</time></trkpt><trkpt lat="41.6752755" lon="13.475106"><ele>324.0</ele><time>2026-04-25T09:04:28.682Z</time></trkpt><trkpt lat="41.6752252" lon="13.4752753"><ele>324.0</ele><time>2026-04-25T09:04:29.682Z</time></trkpt><trkpt lat="41.6751804" lon="13.4754293"><ele>324.0</ele><time>2026-04-25T09:04:30.682Z</time></trkpt><trkpt lat="41.6751371" lon="13.4755802"><ele>322.5</ele><time>2026-04-25T09:04:31.682Z</time></trkpt><trkpt lat="41.6750923" lon="13.4757345"><ele>321.0</ele><time>2026-04-25T09:04:32.682Z</time></trkpt><trkpt lat="41.6750502" lon="13.4758831"><ele>319.5</ele><time>2026-04-25T09:04:33.682Z</time></trkpt><trkpt lat="41.6750073" lon="13.4760421"><ele>318.0</ele><time>2026-04-25T09:04:34.682Z</time></trkpt><trkpt lat="41.6749589" lon="13.4762056"><ele>317.0</ele><time>2026-04-25T09:04:35.682Z</time></trkpt><trkpt lat="41.6749133" lon="13.4763708"><ele>316.0</ele><time>2026-04-25T09:04:36.682Z</time></trkpt><trkpt lat="41.6748676" lon="13.4765431"><ele>315.0</ele><time>2026-04-25T09:04:37.682Z</time></trkpt><trkpt lat="41.6748209" lon="13.4767196"><ele>314.0</ele><time>2026-04-25T09:04:38.682Z</time></trkpt><trkpt lat="41.6747703" lon="13.4769076"><ele>314.0</ele><time>2026-04-25T09:04:39.681Z</time></trkpt><trkpt lat="41.6747189" lon="13.4771027"><ele>314.0</ele><time>2026-04-25T09:04:40.681Z</time></trkpt><trkpt lat="41.6746703" lon="13.4772951"><ele>314.0</ele><time>2026-04-25T09:04:41.681Z</time></trkpt><trkpt lat="41.6746219" lon="13.4774765"><ele>314.0</ele><time>2026-04-25T09:04:42.681Z</time></trkpt><trkpt lat="41.6745753" lon="13.4776506"><ele>314.0</ele><time>2026-04-25T09:04:43.681Z</time></trkpt><trkpt lat="41.674531" lon="13.4778074"><ele>314.0</ele><time>2026-04-25T09:04:44.681Z</time></trkpt><trkpt lat="41.6744893" lon="13.4779698"><ele>314.0</ele><time>2026-04-25T09:04:45.682Z</time></trkpt><trkpt lat="41.6744436" lon="13.4781326"><ele>312.75</ele><time>2026-04-25T09:04:46.681Z</time></trkpt><trkpt lat="41.6744028" lon="13.4782976"><ele>311.5</ele><time>2026-04-25T09:04:47.681Z</time></trkpt><trkpt lat="41.6743578" lon="13.4784575"><ele>310.25</ele><time>2026-04-25T09:04:48.681Z</time></trkpt><trkpt lat="41.6743153" lon="13.4786078"><ele>309.0</ele><time>2026-04-25T09:04:49.681Z</time></trkpt><trkpt lat="41.6742728" lon="13.4787607"><ele>308.0</ele><time>2026-04-25T09:04:50.681Z</time></trkpt><trkpt lat="41.6742344" lon="13.4789042"><ele>307.0</ele><time>2026-04-25T09:04:51.681Z</time></trkpt><trkpt lat="41.6741986" lon="13.4790489"><ele>306.0</ele><time>2026-04-25T09:04:52.681Z</time></trkpt><trkpt lat="41.6741676" lon="13.4791946"><ele>305.0</ele><time>2026-04-25T09:04:53.681Z</time></trkpt><trkpt lat="41.6741417" lon="13.4793399"><ele>305.0</ele><time>2026-04-25T09:04:54.681Z</time></trkpt><trkpt lat="41.6741181" lon="13.4794796"><ele>305.0</ele><time>2026-04-25T09:04:55.681Z</time></trkpt><trkpt lat="41.6740901" lon="13.479628"><ele>305.0</ele><time>2026-04-25T09:04:56.681Z</time></trkpt><trkpt lat="41.6740606" lon="13.4797861"><ele>305.0</ele><time>2026-04-25T09:04:57.681Z</time></trkpt><trkpt lat="41.6740272" lon="13.4799545"><ele>303.33333333333337</ele><time>2026-04-25T09:04:58.681Z</time></trkpt><trkpt lat="41.6739838" lon="13.4801362"><ele>301.6666666666667</ele><time>2026-04-25T09:04:59.681Z</time></trkpt><trkpt lat="41.6739138" lon="13.4803274"><ele>300.0</ele><time>2026-04-25T09:05:00.681Z</time></trkpt><trkpt lat="41.6738186" lon="13.4805114"><ele>300.3333333333333</ele><time>2026-04-25T09:05:01.681Z</time></trkpt><trkpt lat="41.6737096" lon="13.4806828"><ele>300.66666666666663</ele><time>2026-04-25T09:05:02.681Z</time></trkpt><trkpt lat="41.6735885" lon="13.4808412"><ele>301.0</ele><time>2026-04-25T09:05:03.681Z</time></trkpt><trkpt lat="41.6734703" lon="13.4809924"><ele>301.0</ele><time>2026-04-25T09:05:04.681Z</time></trkpt><trkpt lat="41.6733447" lon="13.4811386"><ele>301.0</ele><time>2026-04-25T09:05:05.681Z</time></trkpt><trkpt lat="41.6732264" lon="13.4812958"><ele>301.0</ele><time>2026-04-25T09:05:06.681Z</time></trkpt><trkpt lat="41.6731252" lon="13.4814769"><ele>299.3333333333333</ele><time>2026-04-25T09:05:07.681Z</time></trkpt><trkpt lat="41.6730469" lon="13.4816757"><ele>297.6666666666667</ele><time>2026-04-25T09:05:08.681Z</time></trkpt><trkpt lat="41.6729825" lon="13.4818883"><ele>296.0</ele><time>2026-04-25T09:05:09.681Z</time></trkpt><trkpt lat="41.6729353" lon="13.4821"><ele>293.33333333333337</ele><time>2026-04-25T09:05:10.681Z</time></trkpt><trkpt lat="41.6728985" lon="13.4823066"><ele>290.6666666666667</ele><time>2026-04-25T09:05:11.681Z</time></trkpt><trkpt lat="41.6728539" lon="13.4825141"><ele>288.0</ele><time>2026-04-25T09:05:12.681Z</time></trkpt><trkpt lat="41.6728079" lon="13.4827155"><ele>288.0</ele><time>2026-04-25T09:05:13.682Z</time></trkpt><trkpt lat="41.6727697" lon="13.4829082"><ele>288.0</ele><time>2026-04-25T09:05:14.681Z</time></trkpt><trkpt lat="41.6727307" lon="13.4830931"><ele>288.0</ele><time>2026-04-25T09:05:15.681Z</time></trkpt><trkpt lat="41.6726887" lon="13.4832686"><ele>288.0</ele><time>2026-04-25T09:05:16.681Z</time></trkpt><trkpt lat="41.6726476" lon="13.4834362"><ele>288.0</ele><time>2026-04-25T09:05:17.681Z</time></trkpt><trkpt lat="41.6726099" lon="13.4836008"><ele>288.0</ele><time>2026-04-25T09:05:18.681Z</time></trkpt><trkpt lat="41.6725761" lon="13.4837671"><ele>288.0</ele><time>2026-04-25T09:05:19.681Z</time></trkpt><trkpt lat="41.6725433" lon="13.4839472"><ele>288.0</ele><time>2026-04-25T09:05:20.681Z</time></trkpt><trkpt lat="41.6725012" lon="13.4841529"><ele>286.6666666666667</ele><time>2026-04-25T09:05:21.681Z</time></trkpt><trkpt lat="41.6724523" lon="13.4843552"><ele>285.33333333333337</ele><time>2026-04-25T09:05:22.681Z</time></trkpt><trkpt lat="41.672402" lon="13.4845617"><ele>284.0</ele><time>2026-04-25T09:05:23.681Z</time></trkpt><trkpt lat="41.67235" lon="13.4847562"><ele>284.0</ele><time>2026-04-25T09:05:24.681Z</time></trkpt><trkpt lat="41.6723123" lon="13.4849279"><ele>284.0</ele><time>2026-04-25T09:05:25.681Z</time></trkpt><trkpt lat="41.672273" lon="13.4850901"><ele>284.0</ele><time>2026-04-25T09:05:26.682Z</time></trkpt><trkpt lat="41.6722317" lon="13.4852361"><ele>284.0</ele><time>2026-04-25T09:05:27.681Z</time></trkpt><trkpt lat="41.6721908" lon="13.4853711"><ele>284.1666666666667</ele><time>2026-04-25T09:05:28.681Z</time></trkpt><trkpt lat="41.6721457" lon="13.4854906"><ele>284.33333333333337</ele><time>2026-04-25T09:05:29.681Z</time></trkpt><trkpt lat="41.6721072" lon="13.485598"><ele>284.5</ele><time>2026-04-25T09:05:30.681Z</time></trkpt><trkpt lat="41.6720505" lon="13.4856851"><ele>284.6666666666667</ele><time>2026-04-25T09:05:31.681Z</time></trkpt><trkpt lat="41.6719919" lon="13.4857574"><ele>284.8333333333333</ele><time>2026-04-25T09:05:32.682Z</time></trkpt><trkpt lat="41.6719305" lon="13.4858186"><ele>285.0</ele><time>2026-04-25T09:05:33.681Z</time></trkpt><trkpt lat="41.6718633" lon="13.4858777"><ele>285.0</ele><time>2026-04-25T09:05:34.681Z</time></trkpt><trkpt lat="41.6717927" lon="13.4859266"><ele>285.0</ele><time>2026-04-25T09:05:35.681Z</time></trkpt><trkpt lat="41.6717247" lon="13.4859748"><ele>285.0</ele><time>2026-04-25T09:05:36.681Z</time></trkpt><trkpt lat="41.6716608" lon="13.4860204"><ele>285.0</ele><time>2026-04-25T09:05:37.681Z</time></trkpt><trkpt lat="41.6715955" lon="13.4860647"><ele>285.0</ele><time>2026-04-25T09:05:38.681Z</time></trkpt><trkpt lat="41.6715245" lon="13.4860944"><ele>285.0</ele><time>2026-04-25T09:05:39.681Z</time></trkpt><trkpt lat="41.6714469" lon="13.4861079"><ele>285.0</ele><time>2026-04-25T09:05:40.681Z</time></trkpt><trkpt lat="41.6713618" lon="13.4861254"><ele>285.0</ele><time>2026-04-25T09:05:41.681Z</time></trkpt><trkpt lat="41.6712799" lon="13.4861387"><ele>285.0</ele><time>2026-04-25T09:05:42.681Z</time></trkpt><trkpt lat="41.6711925" lon="13.4861634"><ele>285.0</ele><time>2026-04-25T09:05:43.681Z</time></trkpt><trkpt lat="41.6710997" lon="13.4861871"><ele>285.0</ele><time>2026-04-25T09:05:44.681Z</time></trkpt><trkpt lat="41.6710001" lon="13.4862252"><ele>285.5</ele><time>2026-04-25T09:05:45.681Z</time></trkpt><trkpt lat="41.6709038" lon="13.4862867"><ele>286.0</ele><time>2026-04-25T09:05:46.681Z</time></trkpt><trkpt lat="41.6708009" lon="13.4863656"><ele>286.5</ele><time>2026-04-25T09:05:47.681Z</time></trkpt><trkpt lat="41.6706971" lon="13.4864654"><ele>287.0</ele><time>2026-04-25T09:05:48.681Z</time></trkpt><trkpt lat="41.670586" lon="13.4865984"><ele>287.0</ele><time>2026-04-25T09:05:49.681Z</time></trkpt><trkpt lat="41.6704903" lon="13.4867586"><ele>287.0</ele><time>2026-04-25T09:05:50.681Z</time></trkpt><trkpt lat="41.6704154" lon="13.4869452"><ele>287.0</ele><time>2026-04-25T09:05:51.681Z</time></trkpt><trkpt lat="41.6703418" lon="13.4871471"><ele>284.33333333333337</ele><time>2026-04-25T09:05:52.681Z</time></trkpt><trkpt lat="41.6702708" lon="13.4873601"><ele>281.6666666666667</ele><time>2026-04-25T09:05:53.681Z</time></trkpt><trkpt lat="41.6701998" lon="13.4875845"><ele>279.0</ele><time>2026-04-25T09:05:54.681Z</time></trkpt><trkpt lat="41.6701251" lon="13.4877948"><ele>277.6666666666667</ele><time>2026-04-25T09:05:55.681Z</time></trkpt><trkpt lat="41.6700382" lon="13.4879933"><ele>276.33333333333337</ele><time>2026-04-25T09:05:56.681Z</time></trkpt><trkpt lat="41.6699516" lon="13.4881901"><ele>275.0</ele><time>2026-04-25T09:05:57.681Z</time></trkpt><trkpt lat="41.6698561" lon="13.4883805"><ele>275.0</ele><time>2026-04-25T09:05:58.681Z</time></trkpt><trkpt lat="41.6697448" lon="13.4885576"><ele>275.0</ele><time>2026-04-25T09:05:59.681Z</time></trkpt><trkpt lat="41.6696296" lon="13.4887229"><ele>275.0</ele><time>2026-04-25T09:06:00.681Z</time></trkpt><trkpt lat="41.6695165" lon="13.4888778"><ele>273.33333333333337</ele><time>2026-04-25T09:06:01.681Z</time></trkpt><trkpt lat="41.6694048" lon="13.4890309"><ele>271.6666666666667</ele><time>2026-04-25T09:06:02.682Z</time></trkpt><trkpt lat="41.6693118" lon="13.4891995"><ele>270.0</ele><time>2026-04-25T09:06:03.681Z</time></trkpt><trkpt lat="41.6692453" lon="13.4893844"><ele>270.0</ele><time>2026-04-25T09:06:04.681Z</time></trkpt><trkpt lat="41.6692078" lon="13.4895834"><ele>270.0</ele><time>2026-04-25T09:06:05.681Z</time></trkpt><trkpt lat="41.6691992" lon="13.4897958"><ele>270.0</ele><time>2026-04-25T09:06:06.681Z</time></trkpt><trkpt lat="41.6692335" lon="13.4900047"><ele>270.6666666666667</ele><time>2026-04-25T09:06:07.681Z</time></trkpt><trkpt lat="41.6692939" lon="13.4902163"><ele>271.33333333333337</ele><time>2026-04-25T09:06:08.681Z</time></trkpt><trkpt lat="41.6693815" lon="13.4904232"><ele>272.0</ele><time>2026-04-25T09:06:09.681Z</time></trkpt><trkpt lat="41.6694711" lon="13.4906397"><ele>274.33333333333337</ele><time>2026-04-25T09:06:10.681Z</time></trkpt><trkpt lat="41.6695651" lon="13.4908507"><ele>276.6666666666667</ele><time>2026-04-25T09:06:11.681Z</time></trkpt><trkpt lat="41.6696609" lon="13.4910712"><ele>279.0</ele><time>2026-04-25T09:06:12.682Z</time></trkpt><trkpt lat="41.6697564" lon="13.491301"><ele>280.0</ele><time>2026-04-25T09:06:13.681Z</time></trkpt><trkpt lat="41.6698493" lon="13.4915293"><ele>281.0</ele><time>2026-04-25T09:06:14.681Z</time></trkpt><trkpt lat="41.6699338" lon="13.4917555"><ele>282.0</ele><time>2026-04-25T09:06:15.681Z</time></trkpt><trkpt lat="41.6700066" lon="13.4919752"><ele>282.3333333333333</ele><time>2026-04-25T09:06:16.681Z</time></trkpt><trkpt lat="41.6700524" lon="13.4922011"><ele>282.66666666666663</ele><time>2026-04-25T09:06:17.681Z</time></trkpt><trkpt lat="41.6700782" lon="13.4924417"><ele>283.0</ele><time>2026-04-25T09:06:18.681Z</time></trkpt><trkpt lat="41.6700896" lon="13.492696"><ele>284.0</ele><time>2026-04-25T09:06:19.681Z</time></trkpt><trkpt lat="41.6700894" lon="13.4929501"><ele>285.0</ele><time>2026-04-25T09:06:20.681Z</time></trkpt><trkpt lat="41.6700838" lon="13.4932206"><ele>286.0</ele><time>2026-04-25T09:06:21.681Z</time></trkpt><trkpt lat="41.6700785" lon="13.4934924"><ele>288.0</ele><time>2026-04-25T09:06:22.681Z</time></trkpt><trkpt lat="41.670066" lon="13.4937588"><ele>290.0</ele><time>2026-04-25T09:06:23.681Z</time></trkpt><trkpt lat="41.6700603" lon="13.4940211"><ele>292.0</ele><time>2026-04-25T09:06:24.681Z</time></trkpt><trkpt lat="41.6700559" lon="13.4942938"><ele>292.0</ele><time>2026-04-25T09:06:25.681Z</time></trkpt><trkpt lat="41.6700538" lon="13.4945669"><ele>292.0</ele><time>2026-04-25T09:06:26.681Z</time></trkpt><trkpt lat="41.670052" lon="13.494841"><ele>292.0</ele><time>2026-04-25T09:06:27.681Z</time></trkpt><trkpt lat="41.6700536" lon="13.4951139"><ele>293.3333333333333</ele><time>2026-04-25T09:06:28.681Z</time></trkpt><trkpt lat="41.6700493" lon="13.4953788"><ele>294.6666666666667</ele><time>2026-04-25T09:06:29.682Z</time></trkpt><trkpt lat="41.670041" lon="13.4956331"><ele>296.0</ele><time>2026-04-25T09:06:30.681Z</time></trkpt><trkpt lat="41.6700373" lon="13.4958795"><ele>297.33333333333337</ele><time>2026-04-25T09:06:31.681Z</time></trkpt><trkpt lat="41.6700419" lon="13.4961218"><ele>298.6666666666667</ele><time>2026-04-25T09:06:32.681Z</time></trkpt><trkpt lat="41.6700534" lon="13.4963593"><ele>300.0</ele><time>2026-04-25T09:06:33.681Z</time></trkpt><trkpt lat="41.6700714" lon="13.496597"><ele>300.6666666666667</ele><time>2026-04-25T09:06:34.681Z</time></trkpt><trkpt lat="41.6700899" lon="13.4968383"><ele>301.33333333333337</ele><time>2026-04-25T09:06:35.681Z</time></trkpt><trkpt lat="41.6701176" lon="13.4970781"><ele>302.0</ele><time>2026-04-25T09:06:36.681Z</time></trkpt><trkpt lat="41.6701418" lon="13.4973172"><ele>302.6666666666667</ele><time>2026-04-25T09:06:37.681Z</time></trkpt><trkpt lat="41.6701637" lon="13.4975565"><ele>303.3333333333333</ele><time>2026-04-25T09:06:38.681Z</time></trkpt><trkpt lat="41.6701828" lon="13.4977968"><ele>304.0</ele><time>2026-04-25T09:06:39.681Z</time></trkpt><trkpt lat="41.6702038" lon="13.4980419"><ele>306.3333333333333</ele><time>2026-04-25T09:06:40.681Z</time></trkpt><trkpt lat="41.6702264" lon="13.4982838"><ele>308.6666666666667</ele><time>2026-04-25T09:06:41.681Z</time></trkpt><trkpt lat="41.6702473" lon="13.4985294"><ele>311.0</ele><time>2026-04-25T09:06:42.681Z</time></trkpt><trkpt lat="41.6702709" lon="13.4987705"><ele>312.0</ele><time>2026-04-25T09:06:43.681Z</time></trkpt><trkpt lat="41.6702926" lon="13.4990114"><ele>313.0</ele><time>2026-04-25T09:06:44.681Z</time></trkpt><trkpt lat="41.6703139" lon="13.49925"><ele>314.0</ele><time>2026-04-25T09:06:45.681Z</time></trkpt><trkpt lat="41.6703321" lon="13.4995001"><ele>313.33333333333337</ele><time>2026-04-25T09:06:46.681Z</time></trkpt><trkpt lat="41.6703554" lon="13.4997509"><ele>312.6666666666667</ele><time>2026-04-25T09:06:47.681Z</time></trkpt><trkpt lat="41.6703765" lon="13.5000138"><ele>312.0</ele><time>2026-04-25T09:06:48.681Z</time></trkpt><trkpt lat="41.6704059" lon="13.5002766"><ele>310.6666666666667</ele><time>2026-04-25T09:06:49.681Z</time></trkpt><trkpt lat="41.6704273" lon="13.5005364"><ele>309.33333333333337</ele><time>2026-04-25T09:06:50.682Z</time></trkpt><trkpt lat="41.6704448" lon="13.5007973"><ele>308.0</ele><time>2026-04-25T09:06:51.681Z</time></trkpt><trkpt lat="41.670467" lon="13.5010519"><ele>306.33333333333337</ele><time>2026-04-25T09:06:52.681Z</time></trkpt><trkpt lat="41.6704875" lon="13.5012941"><ele>304.6666666666667</ele><time>2026-04-25T09:06:53.681Z</time></trkpt><trkpt lat="41.6705088" lon="13.5015296"><ele>303.0</ele><time>2026-04-25T09:06:54.681Z</time></trkpt><trkpt lat="41.6705269" lon="13.5017713"><ele>303.0</ele><time>2026-04-25T09:06:55.682Z</time></trkpt><trkpt lat="41.6705454" lon="13.5020156"><ele>303.0</ele><time>2026-04-25T09:06:56.681Z</time></trkpt><trkpt lat="41.6705622" lon="13.5022698"><ele>303.0</ele><time>2026-04-25T09:06:57.681Z</time></trkpt><trkpt lat="41.6705835" lon="13.5025341"><ele>301.3333333333333</ele><time>2026-04-25T09:06:58.681Z</time></trkpt><trkpt lat="41.6706056" lon="13.5028024"><ele>299.66666666666663</ele><time>2026-04-25T09:06:59.681Z</time></trkpt><trkpt lat="41.6706279" lon="13.5030796"><ele>298.0</ele><time>2026-04-25T09:07:00.681Z</time></trkpt><trkpt lat="41.6706497" lon="13.503366"><ele>297.0</ele><time>2026-04-25T09:07:01.681Z</time></trkpt><trkpt lat="41.6706718" lon="13.5036651"><ele>296.0</ele><time>2026-04-25T09:07:02.681Z</time></trkpt><trkpt lat="41.6706944" lon="13.5039689"><ele>292.5</ele><time>2026-04-25T09:07:03.681Z</time></trkpt><trkpt lat="41.670717" lon="13.5042785"><ele>289.0</ele><time>2026-04-25T09:07:04.681Z</time></trkpt><trkpt lat="41.6707454" lon="13.5045883"><ele>286.0</ele><time>2026-04-25T09:07:05.681Z</time></trkpt><trkpt lat="41.670775" lon="13.5049065"><ele>283.0</ele><time>2026-04-25T09:07:06.681Z</time></trkpt><trkpt lat="41.6708038" lon="13.5052301"><ele>281.0</ele><time>2026-04-25T09:07:07.681Z</time></trkpt><trkpt lat="41.6708324" lon="13.5055577"><ele>279.0</ele><time>2026-04-25T09:07:08.681Z</time></trkpt><trkpt lat="41.6708605" lon="13.5058821"><ele>279.0</ele><time>2026-04-25T09:07:09.681Z</time></trkpt><trkpt lat="41.6708848" lon="13.5062153"><ele>279.0</ele><time>2026-04-25T09:07:10.681Z</time></trkpt><trkpt lat="41.670913" lon="13.5065455"><ele>278.0</ele><time>2026-04-25T09:07:11.681Z</time></trkpt><trkpt lat="41.6709407" lon="13.5068774"><ele>277.0</ele><time>2026-04-25T09:07:12.681Z</time></trkpt><trkpt lat="41.6709679" lon="13.5072028"><ele>275.5</ele><time>2026-04-25T09:07:13.681Z</time></trkpt><trkpt lat="41.6709928" lon="13.5075257"><ele>274.0</ele><time>2026-04-25T09:07:14.681Z</time></trkpt><trkpt lat="41.671017" lon="13.5078268"><ele>274.0</ele><time>2026-04-25T09:07:15.681Z</time></trkpt><trkpt lat="41.6710434" lon="13.5081053"><ele>274.0</ele><time>2026-04-25T09:07:16.681Z</time></trkpt><trkpt lat="41.6710632" lon="13.5083669"><ele>274.0</ele><time>2026-04-25T09:07:17.681Z</time></trkpt><trkpt lat="41.6710842" lon="13.5086155"><ele>275.0</ele><time>2026-04-25T09:07:18.681Z</time></trkpt><trkpt lat="41.6711048" lon="13.5088592"><ele>276.0</ele><time>2026-04-25T09:07:19.681Z</time></trkpt><trkpt lat="41.6711233" lon="13.5090916"><ele>277.0</ele><time>2026-04-25T09:07:20.681Z</time></trkpt><trkpt lat="41.6711376" lon="13.5093134"><ele>277.75</ele><time>2026-04-25T09:07:21.681Z</time></trkpt><trkpt lat="41.6711534" lon="13.5095249"><ele>278.5</ele><time>2026-04-25T09:07:22.681Z</time></trkpt><trkpt lat="41.6711668" lon="13.5097144"><ele>279.25</ele><time>2026-04-25T09:07:23.681Z</time></trkpt><trkpt lat="41.6711895" lon="13.5099"><ele>280.0</ele><time>2026-04-25T09:07:24.681Z</time></trkpt><trkpt lat="41.6712266" lon="13.5100874"><ele>279.66666666666663</ele><time>2026-04-25T09:07:25.681Z</time></trkpt><trkpt lat="41.6712979" lon="13.5102714"><ele>279.3333333333333</ele><time>2026-04-25T09:07:26.681Z</time></trkpt><trkpt lat="41.6713725" lon="13.5104586"><ele>279.0</ele><time>2026-04-25T09:07:27.681Z</time></trkpt><trkpt lat="41.6714503" lon="13.5106515"><ele>279.0</ele><time>2026-04-25T09:07:28.681Z</time></trkpt><trkpt lat="41.6715237" lon="13.5108401"><ele>279.0</ele><time>2026-04-25T09:07:29.682Z</time></trkpt><trkpt lat="41.6715905" lon="13.5110305"><ele>279.0</ele><time>2026-04-25T09:07:30.681Z</time></trkpt><trkpt lat="41.6716448" lon="13.5112254"><ele>277.3333333333333</ele><time>2026-04-25T09:07:31.681Z</time></trkpt><trkpt lat="41.6716844" lon="13.5114275"><ele>275.66666666666663</ele><time>2026-04-25T09:07:32.681Z</time></trkpt><trkpt lat="41.6716986" lon="13.511642"><ele>274.0</ele><time>2026-04-25T09:07:33.682Z</time></trkpt><trkpt lat="41.6716953" lon="13.5118554"><ele>274.0</ele><time>2026-04-25T09:07:34.681Z</time></trkpt><trkpt lat="41.6716816" lon="13.5120562"><ele>274.0</ele><time>2026-04-25T09:07:35.681Z</time></trkpt><trkpt lat="41.6716638" lon="13.5122471"><ele>274.0</ele><time>2026-04-25T09:07:36.681Z</time></trkpt><trkpt lat="41.6716628" lon="13.5124227"><ele>274.0</ele><time>2026-04-25T09:07:37.681Z</time></trkpt><trkpt lat="41.6717001" lon="13.5125923"><ele>273.5</ele><time>2026-04-25T09:07:38.682Z</time></trkpt><trkpt lat="41.6717568" lon="13.5127304"><ele>273.0</ele><time>2026-04-25T09:07:39.681Z</time></trkpt><trkpt lat="41.6718423" lon="13.5128771"><ele>272.5</ele><time>2026-04-25T09:07:40.681Z</time></trkpt><trkpt lat="41.6719348" lon="13.5130113"><ele>272.0</ele><time>2026-04-25T09:07:41.681Z</time></trkpt><trkpt lat="41.6720419" lon="13.5131532"><ele>271.33333333333337</ele><time>2026-04-25T09:07:42.681Z</time></trkpt><trkpt lat="41.6721585" lon="13.5133039"><ele>270.6666666666667</ele><time>2026-04-25T09:07:43.681Z</time></trkpt><trkpt lat="41.6722762" lon="13.5134541"><ele>270.0</ele><time>2026-04-25T09:07:44.681Z</time></trkpt><trkpt lat="41.6723948" lon="13.5136088"><ele>267.6666666666667</ele><time>2026-04-25T09:07:45.681Z</time></trkpt><trkpt lat="41.6725152" lon="13.5137644"><ele>265.33333333333337</ele><time>2026-04-25T09:07:46.681Z</time></trkpt><trkpt lat="41.6726317" lon="13.5139204"><ele>263.0</ele><time>2026-04-25T09:07:47.681Z</time></trkpt><trkpt lat="41.6727522" lon="13.5140783"><ele>264.33333333333337</ele><time>2026-04-25T09:07:48.681Z</time></trkpt><trkpt lat="41.6728719" lon="13.5142343"><ele>265.6666666666667</ele><time>2026-04-25T09:07:49.681Z</time></trkpt><trkpt lat="41.6729865" lon="13.5143892"><ele>267.0</ele><time>2026-04-25T09:07:50.681Z</time></trkpt><trkpt lat="41.6730961" lon="13.5145395"><ele>265.0</ele><time>2026-04-25T09:07:51.681Z</time></trkpt><trkpt lat="41.6732045" lon="13.5146852"><ele>263.0</ele><time>2026-04-25T09:07:52.681Z</time></trkpt><trkpt lat="41.6733106" lon="13.5148294"><ele>261.0</ele><time>2026-04-25T09:07:53.681Z</time></trkpt><trkpt lat="41.673412" lon="13.5149659"><ele>259.0</ele><time>2026-04-25T09:07:54.681Z</time></trkpt><trkpt lat="41.6735165" lon="13.5150898"><ele>259.5</ele><time>2026-04-25T09:07:55.681Z</time></trkpt><trkpt lat="41.6736286" lon="13.5151997"><ele>260.0</ele><time>2026-04-25T09:07:56.681Z</time></trkpt><trkpt lat="41.6737475" lon="13.5152952"><ele>260.5</ele><time>2026-04-25T09:07:57.681Z</time></trkpt><trkpt lat="41.6738634" lon="13.515388"><ele>261.0</ele><time>2026-04-25T09:07:58.681Z</time></trkpt><trkpt lat="41.6739719" lon="13.5154764"><ele>259.25</ele><time>2026-04-25T09:07:59.681Z</time></trkpt><trkpt lat="41.6740664" lon="13.5155596"><ele>257.5</ele><time>2026-04-25T09:08:00.681Z</time></trkpt><trkpt lat="41.6741621" lon="13.5156413"><ele>255.75</ele><time>2026-04-25T09:08:01.682Z</time></trkpt><trkpt lat="41.6742547" lon="13.5157236"><ele>254.0</ele><time>2026-04-25T09:08:02.681Z</time></trkpt><trkpt lat="41.6743498" lon="13.5158059"><ele>254.25</ele><time>2026-04-25T09:08:03.681Z</time></trkpt><trkpt lat="41.6744497" lon="13.5158919"><ele>254.5</ele><time>2026-04-25T09:08:04.681Z</time></trkpt><trkpt lat="41.6745576" lon="13.5159852"><ele>254.75</ele><time>2026-04-25T09:08:05.681Z</time></trkpt><trkpt lat="41.6746724" lon="13.516079"><ele>255.0</ele><time>2026-04-25T09:08:06.681Z</time></trkpt><trkpt lat="41.674796" lon="13.5161842"><ele>251.66666666666669</ele><time>2026-04-25T09:08:07.681Z</time></trkpt><trkpt lat="41.6749202" lon="13.5162969"><ele>248.33333333333334</ele><time>2026-04-25T09:08:08.681Z</time></trkpt><trkpt lat="41.6750498" lon="13.5164169"><ele>245.0</ele><time>2026-04-25T09:08:09.681Z</time></trkpt><trkpt lat="41.6751824" lon="13.5165388"><ele>246.0</ele><time>2026-04-25T09:08:10.682Z</time></trkpt><trkpt lat="41.6753148" lon="13.5166677"><ele>247.0</ele><time>2026-04-25T09:08:11.681Z</time></trkpt><trkpt lat="41.6754443" lon="13.516806"><ele>248.0</ele><time>2026-04-25T09:08:12.681Z</time></trkpt><trkpt lat="41.6755739" lon="13.5169635"><ele>247.0</ele><time>2026-04-25T09:08:13.681Z</time></trkpt><trkpt lat="41.6757024" lon="13.5171266"><ele>246.0</ele><time>2026-04-25T09:08:14.681Z</time></trkpt><trkpt lat="41.6758267" lon="13.5172991"><ele>245.0</ele><time>2026-04-25T09:08:15.681Z</time></trkpt><trkpt lat="41.6759475" lon="13.5174766"><ele>245.0</ele><time>2026-04-25T09:08:16.681Z</time></trkpt><trkpt lat="41.6760465" lon="13.5176346"><ele>245.0</ele><time>2026-04-25T09:08:17.682Z</time></trkpt><trkpt lat="41.6761423" lon="13.5177855"><ele>245.0</ele><time>2026-04-25T09:08:18.681Z</time></trkpt><trkpt lat="41.6762317" lon="13.5179279"><ele>245.0</ele><time>2026-04-25T09:08:19.681Z</time></trkpt><trkpt lat="41.6763248" lon="13.5180697"><ele>245.0</ele><time>2026-04-25T09:08:20.681Z</time></trkpt><trkpt lat="41.6764228" lon="13.5182253"><ele>245.0</ele><time>2026-04-25T09:08:21.681Z</time></trkpt><trkpt lat="41.6765272" lon="13.5183856"><ele>245.0</ele><time>2026-04-25T09:08:22.681Z</time></trkpt><trkpt lat="41.6766343" lon="13.5185552"><ele>245.0</ele><time>2026-04-25T09:08:23.681Z</time></trkpt><trkpt lat="41.6767519" lon="13.5187215"><ele>245.0</ele><time>2026-04-25T09:08:24.681Z</time></trkpt><trkpt lat="41.6768667" lon="13.5188929"><ele>245.0</ele><time>2026-04-25T09:08:25.681Z</time></trkpt><trkpt lat="41.6769776" lon="13.5190745"><ele>244.33333333333334</ele><time>2026-04-25T09:08:26.681Z</time></trkpt><trkpt lat="41.6770775" lon="13.5192672"><ele>243.66666666666669</ele><time>2026-04-25T09:08:27.681Z</time></trkpt><trkpt lat="41.677162" lon="13.5194859"><ele>243.0</ele><time>2026-04-25T09:08:28.681Z</time></trkpt><trkpt lat="41.6772171" lon="13.5197242"><ele>243.0</ele><time>2026-04-25T09:08:29.681Z</time></trkpt><trkpt lat="41.6772521" lon="13.519971"><ele>243.0</ele><time>2026-04-25T09:08:30.681Z</time></trkpt><trkpt lat="41.6772682" lon="13.5202332"><ele>243.0</ele><time>2026-04-25T09:08:31.681Z</time></trkpt><trkpt lat="41.6772722" lon="13.5204783"><ele>242.33333333333331</ele><time>2026-04-25T09:08:32.681Z</time></trkpt><trkpt lat="41.6772703" lon="13.5207185"><ele>241.66666666666666</ele><time>2026-04-25T09:08:33.681Z</time></trkpt><trkpt lat="41.6772692" lon="13.5209502"><ele>241.0</ele><time>2026-04-25T09:08:34.681Z</time></trkpt><trkpt lat="41.6772652" lon="13.5211707"><ele>241.0</ele><time>2026-04-25T09:08:35.681Z</time></trkpt><trkpt lat="41.677266" lon="13.5213828"><ele>241.0</ele><time>2026-04-25T09:08:36.681Z</time></trkpt><trkpt lat="41.6772684" lon="13.5215934"><ele>241.0</ele><time>2026-04-25T09:08:37.681Z</time></trkpt><trkpt lat="41.6772792" lon="13.5217995"><ele>241.0</ele><time>2026-04-25T09:08:38.681Z</time></trkpt><trkpt lat="41.6773055" lon="13.5220019"><ele>241.0</ele><time>2026-04-25T09:08:39.681Z</time></trkpt><trkpt lat="41.6773591" lon="13.5222045"><ele>241.0</ele><time>2026-04-25T09:08:40.681Z</time></trkpt><trkpt lat="41.6774314" lon="13.5224023"><ele>239.33333333333331</ele><time>2026-04-25T09:08:41.681Z</time></trkpt><trkpt lat="41.6775158" lon="13.5225853"><ele>237.66666666666669</ele><time>2026-04-25T09:08:42.681Z</time></trkpt><trkpt lat="41.6776039" lon="13.5227573"><ele>236.0</ele><time>2026-04-25T09:08:43.681Z</time></trkpt><trkpt lat="41.6776975" lon="13.5229169"><ele>235.33333333333334</ele><time>2026-04-25T09:08:44.681Z</time></trkpt><trkpt lat="41.6777896" lon="13.5230768"><ele>234.66666666666669</ele><time>2026-04-25T09:08:45.681Z</time></trkpt><trkpt lat="41.6778779" lon="13.5232413"><ele>234.0</ele><time>2026-04-25T09:08:46.681Z</time></trkpt><trkpt lat="41.6779607" lon="13.5234056"><ele>234.0</ele><time>2026-04-25T09:08:47.681Z</time></trkpt><trkpt lat="41.6780375" lon="13.5235642"><ele>234.0</ele><time>2026-04-25T09:08:48.681Z</time></trkpt><trkpt lat="41.6781118" lon="13.5237121"><ele>234.0</ele><time>2026-04-25T09:08:49.681Z</time></trkpt><trkpt lat="41.6781837" lon="13.523864"><ele>234.0</ele><time>2026-04-25T09:08:50.681Z</time></trkpt><trkpt lat="41.6782509" lon="13.524018"><ele>234.0</ele><time>2026-04-25T09:08:51.681Z</time></trkpt><trkpt lat="41.6783282" lon="13.5241696"><ele>234.0</ele><time>2026-04-25T09:08:52.681Z</time></trkpt><trkpt lat="41.6784026" lon="13.5243201"><ele>234.0</ele><time>2026-04-25T09:08:53.681Z</time></trkpt><trkpt lat="41.678478" lon="13.5244673"><ele>234.0</ele><time>2026-04-25T09:08:54.681Z</time></trkpt><trkpt lat="41.6785478" lon="13.5246185"><ele>233.75</ele><time>2026-04-25T09:08:55.682Z</time></trkpt><trkpt lat="41.6786212" lon="13.524771"><ele>233.5</ele><time>2026-04-25T09:08:56.681Z</time></trkpt><trkpt lat="41.6786939" lon="13.5249235"><ele>233.25</ele><time>2026-04-25T09:08:57.681Z</time></trkpt><trkpt lat="41.6787663" lon="13.5250753"><ele>233.0</ele><time>2026-04-25T09:08:58.681Z</time></trkpt><trkpt lat="41.6788401" lon="13.5252299"><ele>233.0</ele><time>2026-04-25T09:08:59.681Z</time></trkpt><trkpt lat="41.678909" lon="13.5253773"><ele>233.0</ele><time>2026-04-25T09:09:00.681Z</time></trkpt><trkpt lat="41.6789753" lon="13.5255123"><ele>233.0</ele><time>2026-04-25T09:09:01.682Z</time></trkpt><trkpt lat="41.6790434" lon="13.525648"><ele>233.0</ele><time>2026-04-25T09:09:02.681Z</time></trkpt><trkpt lat="41.6791101" lon="13.5257865"><ele>232.0</ele><time>2026-04-25T09:09:03.681Z</time></trkpt><trkpt lat="41.6791753" lon="13.52593"><ele>231.0</ele><time>2026-04-25T09:09:04.681Z</time></trkpt><trkpt lat="41.679246" lon="13.5260731"><ele>230.0</ele><time>2026-04-25T09:09:05.681Z</time></trkpt><trkpt lat="41.6793174" lon="13.5262193"><ele>229.0</ele><time>2026-04-25T09:09:06.681Z</time></trkpt><trkpt lat="41.6793887" lon="13.5263719"><ele>228.75</ele><time>2026-04-25T09:09:07.681Z</time></trkpt><trkpt lat="41.6794624" lon="13.5265275"><ele>228.5</ele><time>2026-04-25T09:09:08.681Z</time></trkpt><trkpt lat="41.6795412" lon="13.5266779"><ele>228.25</ele><time>2026-04-25T09:09:09.681Z</time></trkpt><trkpt lat="41.6796141" lon="13.5268344"><ele>228.0</ele><time>2026-04-25T09:09:10.681Z</time></trkpt><trkpt lat="41.6796871" lon="13.5269893"><ele>228.25</ele><time>2026-04-25T09:09:11.681Z</time></trkpt><trkpt lat="41.6797646" lon="13.5271354"><ele>228.5</ele><time>2026-04-25T09:09:12.681Z</time></trkpt><trkpt lat="41.6798378" lon="13.5272873"><ele>228.75</ele><time>2026-04-25T09:09:13.681Z</time></trkpt><trkpt lat="41.6799103" lon="13.5274405"><ele>229.0</ele><time>2026-04-25T09:09:14.681Z</time></trkpt><trkpt lat="41.6799777" lon="13.5275857"><ele>229.0</ele><time>2026-04-25T09:09:15.681Z</time></trkpt><trkpt lat="41.6800451" lon="13.5277258"><ele>229.0</ele><time>2026-04-25T09:09:16.681Z</time></trkpt><trkpt lat="41.6801106" lon="13.5278706"><ele>229.0</ele><time>2026-04-25T09:09:17.681Z</time></trkpt><trkpt lat="41.6801776" lon="13.5279979"><ele>229.0</ele><time>2026-04-25T09:09:18.681Z</time></trkpt><trkpt lat="41.680243" lon="13.5281248"><ele>228.75</ele><time>2026-04-25T09:09:19.681Z</time></trkpt><trkpt lat="41.6803065" lon="13.5282659"><ele>228.5</ele><time>2026-04-25T09:09:20.681Z</time></trkpt><trkpt lat="41.6803714" lon="13.5284121"><ele>228.25</ele><time>2026-04-25T09:09:21.681Z</time></trkpt><trkpt lat="41.6804333" lon="13.5285596"><ele>228.0</ele><time>2026-04-25T09:09:22.681Z</time></trkpt><trkpt lat="41.6804872" lon="13.5287112"><ele>227.75</ele><time>2026-04-25T09:09:23.681Z</time></trkpt><trkpt lat="41.6805351" lon="13.5288699"><ele>227.5</ele><time>2026-04-25T09:09:24.681Z</time></trkpt><trkpt lat="41.680577" lon="13.5290379"><ele>227.25</ele><time>2026-04-25T09:09:25.681Z</time></trkpt><trkpt lat="41.6806088" lon="13.529199"><ele>227.0</ele><time>2026-04-25T09:09:26.681Z</time></trkpt><trkpt lat="41.6806391" lon="13.5293621"><ele>227.0</ele><time>2026-04-25T09:09:27.681Z</time></trkpt><trkpt lat="41.680667" lon="13.529527"><ele>227.0</ele><time>2026-04-25T09:09:28.681Z</time></trkpt><trkpt lat="41.6806942" lon="13.5296892"><ele>227.0</ele><time>2026-04-25T09:09:29.681Z</time></trkpt><trkpt lat="41.6807236" lon="13.5298401"><ele>227.0</ele><time>2026-04-25T09:09:30.681Z</time></trkpt><trkpt lat="41.6807564" lon="13.5299856"><ele>227.2</ele><time>2026-04-25T09:09:31.681Z</time></trkpt><trkpt lat="41.6807804" lon="13.530129"><ele>227.39999999999998</ele><time>2026-04-25T09:09:32.681Z</time></trkpt><trkpt lat="41.6808081" lon="13.5302731"><ele>227.60000000000002</ele><time>2026-04-25T09:09:33.681Z</time></trkpt><trkpt lat="41.6808322" lon="13.5304153"><ele>227.8</ele><time>2026-04-25T09:09:34.681Z</time></trkpt><trkpt lat="41.6808581" lon="13.5305496"><ele>228.0</ele><time>2026-04-25T09:09:35.681Z</time></trkpt><trkpt lat="41.6808887" lon="13.5306963"><ele>227.60000000000002</ele><time>2026-04-25T09:09:36.681Z</time></trkpt><trkpt lat="41.6809196" lon="13.5308408"><ele>227.20000000000002</ele><time>2026-04-25T09:09:37.681Z</time></trkpt><trkpt lat="41.6809492" lon="13.5309848"><ele>226.8</ele><time>2026-04-25T09:09:38.681Z</time></trkpt><trkpt lat="41.680979" lon="13.5311322"><ele>226.4</ele><time>2026-04-25T09:09:39.681Z</time></trkpt><trkpt lat="41.6810043" lon="13.5312732"><ele>226.0</ele><time>2026-04-25T09:09:40.681Z</time></trkpt><trkpt lat="41.6810314" lon="13.5314113"><ele>226.0</ele><time>2026-04-25T09:09:41.681Z</time></trkpt><trkpt lat="41.6810562" lon="13.5315442"><ele>226.00000000000003</ele><time>2026-04-25T09:09:42.681Z</time></trkpt><trkpt lat="41.6810796" lon="13.5316801"><ele>226.00000000000003</ele><time>2026-04-25T09:09:43.681Z</time></trkpt><trkpt lat="41.6811082" lon="13.5318225"><ele>226.0</ele><time>2026-04-25T09:09:44.681Z</time></trkpt><trkpt lat="41.6811393" lon="13.531961"><ele>226.0</ele><time>2026-04-25T09:09:45.681Z</time></trkpt><trkpt lat="41.6811653" lon="13.5320903"><ele>226.0</ele><time>2026-04-25T09:09:46.681Z</time></trkpt><trkpt lat="41.6811911" lon="13.5322221"><ele>226.00000000000003</ele><time>2026-04-25T09:09:47.681Z</time></trkpt><trkpt lat="41.6812149" lon="13.5323507"><ele>226.00000000000003</ele><time>2026-04-25T09:09:48.682Z</time></trkpt><trkpt lat="41.6812456" lon="13.5324762"><ele>226.0</ele><time>2026-04-25T09:09:49.681Z</time></trkpt><trkpt lat="41.6812765" lon="13.5326028"><ele>226.0</ele><time>2026-04-25T09:09:50.681Z</time></trkpt><trkpt lat="41.6813058" lon="13.5327337"><ele>225.99999999999997</ele><time>2026-04-25T09:09:51.681Z</time></trkpt><trkpt lat="41.6813271" lon="13.5328629"><ele>226.0</ele><time>2026-04-25T09:09:52.681Z</time></trkpt><trkpt lat="41.6813461" lon="13.5329811"><ele>226.0</ele><time>2026-04-25T09:09:53.681Z</time></trkpt><trkpt lat="41.6813549" lon="13.5330891"><ele>226.0</ele><time>2026-04-25T09:09:54.681Z</time></trkpt><trkpt lat="41.6813581" lon="13.5331989"><ele>225.99999999999997</ele><time>2026-04-25T09:09:55.681Z</time></trkpt><trkpt lat="41.6813739" lon="13.5333038"><ele>226.0</ele><time>2026-04-25T09:09:56.681Z</time></trkpt><trkpt lat="41.6814085" lon="13.5333884"><ele>226.0</ele><time>2026-04-25T09:09:57.682Z</time></trkpt><trkpt lat="41.6814589" lon="13.5334659"><ele>226.00000000000003</ele><time>2026-04-25T09:09:58.681Z</time></trkpt><trkpt lat="41.68154" lon="13.5335152"><ele>226.00000000000003</ele><time>2026-04-25T09:09:59.681Z</time></trkpt><trkpt lat="41.6816261" lon="13.5335641"><ele>226.0</ele><time>2026-04-25T09:10:00.681Z</time></trkpt><trkpt lat="41.6817195" lon="13.5336264"><ele>226.0</ele><time>2026-04-25T09:10:01.681Z</time></trkpt><trkpt lat="41.6818166" lon="13.5337177"><ele>226.0</ele><time>2026-04-25T09:10:02.681Z</time></trkpt><trkpt lat="41.6819085" lon="13.5338296"><ele>226.0</ele><time>2026-04-25T09:10:03.681Z</time></trkpt><trkpt lat="41.682005" lon="13.5339669"><ele>226.0</ele><time>2026-04-25T09:10:04.681Z</time></trkpt><trkpt lat="41.6820987" lon="13.5341266"><ele>226.0</ele><time>2026-04-25T09:10:05.681Z</time></trkpt><trkpt lat="41.6821898" lon="13.5342901"><ele>227.0</ele><time>2026-04-25T09:10:06.681Z</time></trkpt><trkpt lat="41.6822813" lon="13.5344688"><ele>228.0</ele><time>2026-04-25T09:10:07.682Z</time></trkpt><trkpt lat="41.6823703" lon="13.5346653"><ele>229.0</ele><time>2026-04-25T09:10:08.681Z</time></trkpt><trkpt lat="41.6824578" lon="13.5348688"><ele>229.0</ele><time>2026-04-25T09:10:09.681Z</time></trkpt><trkpt lat="41.6825431" lon="13.5350797"><ele>229.0</ele><time>2026-04-25T09:10:10.681Z</time></trkpt><trkpt lat="41.6826301" lon="13.5352907"><ele>229.0</ele><time>2026-04-25T09:10:11.681Z</time></trkpt><trkpt lat="41.6827139" lon="13.535508"><ele>232.33333333333331</ele><time>2026-04-25T09:10:12.681Z</time></trkpt><trkpt lat="41.6828019" lon="13.5357378"><ele>235.66666666666669</ele><time>2026-04-25T09:10:13.681Z</time></trkpt><trkpt lat="41.682895" lon="13.5359612"><ele>239.0</ele><time>2026-04-25T09:10:14.681Z</time></trkpt><trkpt lat="41.6829924" lon="13.536178"><ele>237.33333333333334</ele><time>2026-04-25T09:10:15.681Z</time></trkpt><trkpt lat="41.6830936" lon="13.5363946"><ele>235.66666666666669</ele><time>2026-04-25T09:10:16.681Z</time></trkpt><trkpt lat="41.6832" lon="13.5366021"><ele>234.0</ele><time>2026-04-25T09:10:17.681Z</time></trkpt><trkpt lat="41.6833224" lon="13.5367913"><ele>234.0</ele><time>2026-04-25T09:10:18.681Z</time></trkpt><trkpt lat="41.6834601" lon="13.5369736"><ele>234.0</ele><time>2026-04-25T09:10:19.681Z</time></trkpt><trkpt lat="41.683613" lon="13.5371381"><ele>234.0</ele><time>2026-04-25T09:10:20.681Z</time></trkpt><trkpt lat="41.6837653" lon="13.5372953"><ele>234.66666666666669</ele><time>2026-04-25T09:10:21.681Z</time></trkpt><trkpt lat="41.6839166" lon="13.5374395"><ele>235.33333333333334</ele><time>2026-04-25T09:10:22.681Z</time></trkpt><trkpt lat="41.6840708" lon="13.5375818"><ele>236.0</ele><time>2026-04-25T09:10:23.681Z</time></trkpt><trkpt lat="41.6842166" lon="13.5377198"><ele>236.0</ele><time>2026-04-25T09:10:24.681Z</time></trkpt><trkpt lat="41.6843608" lon="13.5378613"><ele>236.0</ele><time>2026-04-25T09:10:25.681Z</time></trkpt><trkpt lat="41.6844966" lon="13.5380094"><ele>236.0</ele><time>2026-04-25T09:10:26.681Z</time></trkpt><trkpt lat="41.6846167" lon="13.5381685"><ele>236.33333333333334</ele><time>2026-04-25T09:10:27.681Z</time></trkpt><trkpt lat="41.6847302" lon="13.5383529"><ele>236.66666666666669</ele><time>2026-04-25T09:10:28.681Z</time></trkpt><trkpt lat="41.6848164" lon="13.538554"><ele>237.0</ele><time>2026-04-25T09:10:29.681Z</time></trkpt><trkpt lat="41.6848909" lon="13.538785"><ele>237.0</ele><time>2026-04-25T09:10:30.681Z</time></trkpt><trkpt lat="41.6849625" lon="13.5390282"><ele>237.0</ele><time>2026-04-25T09:10:31.681Z</time></trkpt><trkpt lat="41.685036" lon="13.5392716"><ele>237.0</ele><time>2026-04-25T09:10:32.681Z</time></trkpt><trkpt lat="41.6851093" lon="13.5395287"><ele>236.66666666666669</ele><time>2026-04-25T09:10:33.681Z</time></trkpt><trkpt lat="41.6851875" lon="13.5397865"><ele>236.33333333333334</ele><time>2026-04-25T09:10:34.681Z</time></trkpt><trkpt lat="41.685269" lon="13.5400519"><ele>236.0</ele><time>2026-04-25T09:10:35.681Z</time></trkpt><trkpt lat="41.6853545" lon="13.5403146"><ele>238.66666666666669</ele><time>2026-04-25T09:10:36.681Z</time></trkpt><trkpt lat="41.6854353" lon="13.5405752"><ele>241.33333333333331</ele><time>2026-04-25T09:10:37.681Z</time></trkpt><trkpt lat="41.6855138" lon="13.5408251"><ele>244.0</ele><time>2026-04-25T09:10:38.681Z</time></trkpt><trkpt lat="41.6855882" lon="13.5410706"><ele>242.66666666666666</ele><time>2026-04-25T09:10:39.681Z</time></trkpt><trkpt lat="41.6856491" lon="13.5413098"><ele>241.33333333333331</ele><time>2026-04-25T09:10:40.681Z</time></trkpt><trkpt lat="41.6856964" lon="13.5415556"><ele>240.0</ele><time>2026-04-25T09:10:41.681Z</time></trkpt><trkpt lat="41.685733" lon="13.541822"><ele>239.66666666666669</ele><time>2026-04-25T09:10:42.681Z</time></trkpt><trkpt lat="41.6857582" lon="13.5420945"><ele>239.33333333333334</ele><time>2026-04-25T09:10:43.681Z</time></trkpt><trkpt lat="41.6857829" lon="13.54237"><ele>239.0</ele><time>2026-04-25T09:10:44.682Z</time></trkpt><trkpt lat="41.6858009" lon="13.5426427"><ele>238.66666666666669</ele><time>2026-04-25T09:10:45.681Z</time></trkpt><trkpt lat="41.6858232" lon="13.5429065"><ele>238.33333333333331</ele><time>2026-04-25T09:10:46.682Z</time></trkpt><trkpt lat="41.6858475" lon="13.5431618"><ele>238.0</ele><time>2026-04-25T09:10:47.681Z</time></trkpt><trkpt lat="41.6858761" lon="13.5434096"><ele>238.0</ele><time>2026-04-25T09:10:48.681Z</time></trkpt><trkpt lat="41.6858994" lon="13.5436423"><ele>238.0</ele><time>2026-04-25T09:10:49.681Z</time></trkpt><trkpt lat="41.6859286" lon="13.5438671"><ele>238.0</ele><time>2026-04-25T09:10:50.681Z</time></trkpt><trkpt lat="41.6859749" lon="13.5440808"><ele>238.33333333333331</ele><time>2026-04-25T09:10:51.681Z</time></trkpt><trkpt lat="41.6860408" lon="13.5442819"><ele>238.66666666666669</ele><time>2026-04-25T09:10:52.681Z</time></trkpt><trkpt lat="41.6861249" lon="13.5444643"><ele>239.0</ele><time>2026-04-25T09:10:53.681Z</time></trkpt><trkpt lat="41.6862317" lon="13.5446317"><ele>241.0</ele><time>2026-04-25T09:10:54.682Z</time></trkpt><trkpt lat="41.6863574" lon="13.5447912"><ele>243.0</ele><time>2026-04-25T09:10:55.682Z</time></trkpt><trkpt lat="41.6864835" lon="13.5449504"><ele>245.0</ele><time>2026-04-25T09:10:56.681Z</time></trkpt><trkpt lat="41.6866167" lon="13.5451161"><ele>245.0</ele><time>2026-04-25T09:10:57.681Z</time></trkpt><trkpt lat="41.686753" lon="13.5452804"><ele>245.0</ele><time>2026-04-25T09:10:58.681Z</time></trkpt><trkpt lat="41.6868959" lon="13.5454408"><ele>245.0</ele><time>2026-04-25T09:10:59.681Z</time></trkpt><trkpt lat="41.68705" lon="13.545597"><ele>246.0</ele><time>2026-04-25T09:11:00.681Z</time></trkpt><trkpt lat="41.687215" lon="13.545739"><ele>247.0</ele><time>2026-04-25T09:11:01.681Z</time></trkpt><trkpt lat="41.6873866" lon="13.545873"><ele>248.0</ele><time>2026-04-25T09:11:02.681Z</time></trkpt><trkpt lat="41.6875607" lon="13.5460024"><ele>248.0</ele><time>2026-04-25T09:11:03.681Z</time></trkpt><trkpt lat="41.6877351" lon="13.5461329"><ele>248.0</ele><time>2026-04-25T09:11:04.681Z</time></trkpt><trkpt lat="41.6879166" lon="13.5462604"><ele>248.0</ele><time>2026-04-25T09:11:05.681Z</time></trkpt><trkpt lat="41.6880913" lon="13.5463993"><ele>247.0</ele><time>2026-04-25T09:11:06.681Z</time></trkpt><trkpt lat="41.6882613" lon="13.546542"><ele>246.0</ele><time>2026-04-25T09:11:07.681Z</time></trkpt><trkpt lat="41.6884212" lon="13.546696"><ele>245.0</ele><time>2026-04-25T09:11:08.681Z</time></trkpt><trkpt lat="41.6885852" lon="13.5468615"><ele>245.66666666666669</ele><time>2026-04-25T09:11:09.681Z</time></trkpt><trkpt lat="41.6887493" lon="13.5470349"><ele>246.33333333333331</ele><time>2026-04-25T09:11:10.681Z</time></trkpt><trkpt lat="41.6889146" lon="13.5472149"><ele>247.0</ele><time>2026-04-25T09:11:11.681Z</time></trkpt><trkpt lat="41.6890779" lon="13.5473903"><ele>247.0</ele><time>2026-04-25T09:11:12.681Z</time></trkpt><trkpt lat="41.6892424" lon="13.5475653"><ele>247.0</ele><time>2026-04-25T09:11:13.681Z</time></trkpt><trkpt lat="41.6894023" lon="13.5477375"><ele>247.0</ele><time>2026-04-25T09:11:14.682Z</time></trkpt><trkpt lat="41.6895592" lon="13.5479128"><ele>249.0</ele><time>2026-04-25T09:11:15.682Z</time></trkpt><trkpt lat="41.6897082" lon="13.5480835"><ele>251.0</ele><time>2026-04-25T09:11:16.681Z</time></trkpt><trkpt lat="41.689858" lon="13.5482549"><ele>253.0</ele><time>2026-04-25T09:11:17.681Z</time></trkpt><trkpt lat="41.6899989" lon="13.5484189"><ele>253.0</ele><time>2026-04-25T09:11:18.681Z</time></trkpt><trkpt lat="41.6901362" lon="13.5485761"><ele>253.0</ele><time>2026-04-25T09:11:19.681Z</time></trkpt><trkpt lat="41.6902658" lon="13.548729"><ele>253.0</ele><time>2026-04-25T09:11:20.682Z</time></trkpt><trkpt lat="41.6903821" lon="13.5488778"><ele>255.0</ele><time>2026-04-25T09:11:21.681Z</time></trkpt><trkpt lat="41.6904935" lon="13.5490327"><ele>257.0</ele><time>2026-04-25T09:11:22.681Z</time></trkpt><trkpt lat="41.6906027" lon="13.5491865"><ele>259.0</ele><time>2026-04-25T09:11:23.681Z</time></trkpt><trkpt lat="41.6907061" lon="13.5493461"><ele>259.0</ele><time>2026-04-25T09:11:24.681Z</time></trkpt><trkpt lat="41.690809" lon="13.5495156"><ele>259.0</ele><time>2026-04-25T09:11:25.681Z</time></trkpt><trkpt lat="41.6909106" lon="13.5496832"><ele>259.0</ele><time>2026-04-25T09:11:26.681Z</time></trkpt><trkpt lat="41.6910103" lon="13.54985"><ele>260.0</ele><time>2026-04-25T09:11:27.681Z</time></trkpt><trkpt lat="41.6911099" lon="13.5500161"><ele>261.0</ele><time>2026-04-25T09:11:28.681Z</time></trkpt><trkpt lat="41.6912087" lon="13.5501836"><ele>262.0</ele><time>2026-04-25T09:11:29.682Z</time></trkpt><trkpt lat="41.6913098" lon="13.5503484"><ele>263.0</ele><time>2026-04-25T09:11:30.681Z</time></trkpt><trkpt lat="41.691407" lon="13.5505087"><ele>264.0</ele><time>2026-04-25T09:11:31.681Z</time></trkpt><trkpt lat="41.6915035" lon="13.550672"><ele>265.0</ele><time>2026-04-25T09:11:32.681Z</time></trkpt><trkpt lat="41.6915986" lon="13.5508249"><ele>265.0</ele><time>2026-04-25T09:11:33.681Z</time></trkpt><trkpt lat="41.691692" lon="13.5509825"><ele>265.0</ele><time>2026-04-25T09:11:34.681Z</time></trkpt><trkpt lat="41.6917862" lon="13.5511353"><ele>265.0</ele><time>2026-04-25T09:11:35.681Z</time></trkpt><trkpt lat="41.691881" lon="13.5512976"><ele>268.0</ele><time>2026-04-25T09:11:36.681Z</time></trkpt><trkpt lat="41.6919766" lon="13.5514505"><ele>271.0</ele><time>2026-04-25T09:11:37.681Z</time></trkpt><trkpt lat="41.6920808" lon="13.5516016"><ele>274.0</ele><time>2026-04-25T09:11:38.681Z</time></trkpt><trkpt lat="41.692187" lon="13.5517548"><ele>274.0</ele><time>2026-04-25T09:11:39.681Z</time></trkpt><trkpt lat="41.6922964" lon="13.5519063"><ele>274.0</ele><time>2026-04-25T09:11:40.681Z</time></trkpt><trkpt lat="41.6924107" lon="13.5520605"><ele>274.0</ele><time>2026-04-25T09:11:41.681Z</time></trkpt><trkpt lat="41.6925377" lon="13.5522107"><ele>275.0</ele><time>2026-04-25T09:11:42.681Z</time></trkpt><trkpt lat="41.6926697" lon="13.5523456"><ele>276.0</ele><time>2026-04-25T09:11:43.681Z</time></trkpt><trkpt lat="41.6928181" lon="13.5524652"><ele>277.0</ele><time>2026-04-25T09:11:44.681Z</time></trkpt><trkpt lat="41.692979" lon="13.5525674"><ele>277.0</ele><time>2026-04-25T09:11:45.681Z</time></trkpt><trkpt lat="41.6931437" lon="13.5526423"><ele>277.0</ele><time>2026-04-25T09:11:46.681Z</time></trkpt><trkpt lat="41.6933084" lon="13.5527133"><ele>277.0</ele><time>2026-04-25T09:11:47.681Z</time></trkpt><trkpt lat="41.6934746" lon="13.5527678"><ele>277.3333333333333</ele><time>2026-04-25T09:11:48.681Z</time></trkpt><trkpt lat="41.6936444" lon="13.5528319"><ele>277.6666666666667</ele><time>2026-04-25T09:11:49.681Z</time></trkpt><trkpt lat="41.6938082" lon="13.552901"><ele>278.0</ele><time>2026-04-25T09:11:50.681Z</time></trkpt><trkpt lat="41.6939714" lon="13.5529834"><ele>278.0</ele><time>2026-04-25T09:11:51.681Z</time></trkpt><trkpt lat="41.6941302" lon="13.5530812"><ele>278.0</ele><time>2026-04-25T09:11:52.681Z</time></trkpt><trkpt lat="41.694285" lon="13.5532012"><ele>278.0</ele><time>2026-04-25T09:11:53.681Z</time></trkpt><trkpt lat="41.6944293" lon="13.5533414"><ele>279.33333333333337</ele><time>2026-04-25T09:11:54.681Z</time></trkpt><trkpt lat="41.6945677" lon="13.5534933"><ele>280.6666666666667</ele><time>2026-04-25T09:11:55.681Z</time></trkpt><trkpt lat="41.6947044" lon="13.5536562"><ele>282.0</ele><time>2026-04-25T09:11:56.681Z</time></trkpt><trkpt lat="41.6948334" lon="13.5538289"><ele>283.3333333333333</ele><time>2026-04-25T09:11:57.681Z</time></trkpt><trkpt lat="41.6949516" lon="13.5540078"><ele>284.66666666666663</ele><time>2026-04-25T09:11:58.682Z</time></trkpt><trkpt lat="41.6950705" lon="13.5541926"><ele>286.0</ele><time>2026-04-25T09:11:59.681Z</time></trkpt><trkpt lat="41.6951799" lon="13.5543923"><ele>288.66666666666663</ele><time>2026-04-25T09:12:00.681Z</time></trkpt><trkpt lat="41.6952849" lon="13.5545992"><ele>291.3333333333333</ele><time>2026-04-25T09:12:01.681Z</time></trkpt><trkpt lat="41.6953835" lon="13.5548044"><ele>294.0</ele><time>2026-04-25T09:12:02.681Z</time></trkpt><trkpt lat="41.6954765" lon="13.5549997"><ele>294.0</ele><time>2026-04-25T09:12:03.681Z</time></trkpt><trkpt lat="41.6955683" lon="13.5551915"><ele>294.0</ele><time>2026-04-25T09:12:04.681Z</time></trkpt><trkpt lat="41.6956568" lon="13.5553749"><ele>294.0</ele><time>2026-04-25T09:12:05.681Z</time></trkpt><trkpt lat="41.6957435" lon="13.5555645"><ele>293.3333333333333</ele><time>2026-04-25T09:12:06.681Z</time></trkpt><trkpt lat="41.6958295" lon="13.5557365"><ele>292.66666666666663</ele><time>2026-04-25T09:12:07.681Z</time></trkpt><trkpt lat="41.6959166" lon="13.5559063"><ele>292.0</ele><time>2026-04-25T09:12:08.681Z</time></trkpt><trkpt lat="41.6960035" lon="13.5560728"><ele>292.0</ele><time>2026-04-25T09:12:09.682Z</time></trkpt><trkpt lat="41.6960862" lon="13.5562377"><ele>292.0</ele><time>2026-04-25T09:12:10.681Z</time></trkpt><trkpt lat="41.6961694" lon="13.5564102"><ele>292.0</ele><time>2026-04-25T09:12:11.681Z</time></trkpt><trkpt lat="41.6962468" lon="13.5565836"><ele>293.0</ele><time>2026-04-25T09:12:12.681Z</time></trkpt><trkpt lat="41.6963255" lon="13.5567581"><ele>294.0</ele><time>2026-04-25T09:12:13.681Z</time></trkpt><trkpt lat="41.6963998" lon="13.5569321"><ele>295.0</ele><time>2026-04-25T09:12:14.681Z</time></trkpt><trkpt lat="41.696469" lon="13.557099"><ele>296.0</ele><time>2026-04-25T09:12:15.681Z</time></trkpt><trkpt lat="41.6965322" lon="13.5572645"><ele>296.0</ele><time>2026-04-25T09:12:16.681Z</time></trkpt><trkpt lat="41.6965797" lon="13.5574324"><ele>296.0</ele><time>2026-04-25T09:12:17.681Z</time></trkpt><trkpt lat="41.6966086" lon="13.5575729"><ele>296.0</ele><time>2026-04-25T09:12:18.681Z</time></trkpt><trkpt lat="41.6966249" lon="13.5576903"><ele>296.0</ele><time>2026-04-25T09:12:19.681Z</time></trkpt><trkpt lat="41.6966443" lon="13.5577825"><ele>296.0</ele><time>2026-04-25T09:12:20.681Z</time></trkpt><trkpt lat="41.6966627" lon="13.5578721"><ele>296.1666666666667</ele><time>2026-04-25T09:12:21.681Z</time></trkpt><trkpt lat="41.6966922" lon="13.5580394"><ele>296.33333333333337</ele><time>2026-04-25T09:12:23.681Z</time></trkpt><trkpt lat="41.6967079" lon="13.5581269"><ele>296.5</ele><time>2026-04-25T09:12:24.681Z</time></trkpt><trkpt lat="41.6967291" lon="13.5582579"><ele>296.6666666666667</ele><time>2026-04-25T09:12:26.681Z</time></trkpt><trkpt lat="41.6967364" lon="13.5583502"><ele>296.8333333333333</ele><time>2026-04-25T09:12:28.681Z</time></trkpt><trkpt lat="41.696726" lon="13.5584475"><ele>297.0</ele><time>2026-04-25T09:12:30.682Z</time></trkpt><trkpt lat="41.6966381" lon="13.5585092"><ele>297.0</ele><time>2026-04-25T09:12:32.681Z</time></trkpt><trkpt lat="41.6965107" lon="13.5585663"><ele>297.0</ele><time>2026-04-25T09:12:34.681Z</time></trkpt><trkpt lat="41.6964418" lon="13.5585971"><ele>297.0</ele><time>2026-04-25T09:12:35.681Z</time></trkpt><trkpt lat="41.6963756" lon="13.5586298"><ele>297.0</ele><time>2026-04-25T09:12:36.681Z</time></trkpt><trkpt lat="41.6963021" lon="13.5586628"><ele>297.0</ele><time>2026-04-25T09:12:37.681Z</time></trkpt><trkpt lat="41.6962309" lon="13.5587057"><ele>297.0</ele><time>2026-04-25T09:12:38.682Z</time></trkpt><trkpt lat="41.6961635" lon="13.558747"><ele>297.1666666666667</ele><time>2026-04-25T09:12:39.681Z</time></trkpt><trkpt lat="41.6960949" lon="13.5587947"><ele>297.3333333333333</ele><time>2026-04-25T09:12:40.681Z</time></trkpt><trkpt lat="41.696014" lon="13.5588657"><ele>297.5</ele><time>2026-04-25T09:12:42.681Z</time></trkpt><trkpt lat="41.6959503" lon="13.5589148"><ele>297.66666666666663</ele><time>2026-04-25T09:12:45.681Z</time></trkpt><trkpt lat="41.6958986" lon="13.5589671"><ele>297.8333333333333</ele><time>2026-04-25T09:12:47.681Z</time></trkpt><trkpt lat="41.695816" lon="13.5590227"><ele>298.0</ele><time>2026-04-25T09:12:49.682Z</time></trkpt><trkpt lat="41.6957157" lon="13.559108"><ele>298.16666666666663</ele><time>2026-04-25T09:12:51.681Z</time></trkpt><trkpt lat="41.6956507" lon="13.5591481"><ele>298.3333333333333</ele><time>2026-04-25T09:12:52.681Z</time></trkpt><trkpt lat="41.6955732" lon="13.5591919"><ele>298.5</ele><time>2026-04-25T09:12:53.681Z</time></trkpt><trkpt lat="41.6955076" lon="13.5592504"><ele>298.6666666666667</ele><time>2026-04-25T09:12:54.681Z</time></trkpt><trkpt lat="41.6954377" lon="13.5593041"><ele>298.83333333333337</ele><time>2026-04-25T09:12:55.682Z</time></trkpt><trkpt lat="41.6953708" lon="13.5593615"><ele>299.0</ele><time>2026-04-25T09:12:56.681Z</time></trkpt><trkpt lat="41.6952924" lon="13.559416"><ele>300.0</ele><time>2026-04-25T09:12:57.681Z</time></trkpt><trkpt lat="41.6952149" lon="13.5594777"><ele>301.0</ele><time>2026-04-25T09:12:58.681Z</time></trkpt><trkpt lat="41.695138" lon="13.5595289"><ele>302.0</ele><time>2026-04-25T09:12:59.681Z</time></trkpt><trkpt lat="41.6950542" lon="13.5595781"><ele>303.0</ele><time>2026-04-25T09:13:00.681Z</time></trkpt><trkpt lat="41.6949792" lon="13.5596325"><ele>304.0</ele><time>2026-04-25T09:13:01.681Z</time></trkpt><trkpt lat="41.6949232" lon="13.5596752"><ele>305.0</ele><time>2026-04-25T09:13:02.681Z</time></trkpt><trkpt lat="41.6948307" lon="13.5597529"><ele>305.0</ele><time>2026-04-25T09:13:04.681Z</time></trkpt><trkpt lat="41.6947992" lon="13.5598894"><ele>305.0</ele><time>2026-04-25T09:13:06.681Z</time></trkpt><trkpt lat="41.694804" lon="13.5599824"><ele>305.0</ele><time>2026-04-25T09:13:07.681Z</time></trkpt><trkpt lat="41.694808" lon="13.5600864"><ele>305.0</ele><time>2026-04-25T09:13:08.681Z</time></trkpt><trkpt lat="41.6948126" lon="13.5601895"><ele>305.0</ele><time>2026-04-25T09:13:09.681Z</time></trkpt><trkpt lat="41.6948137" lon="13.5602884"><ele>305.0</ele><time>2026-04-25T09:13:10.681Z</time></trkpt><trkpt lat="41.6948153" lon="13.5603792"><ele>305.83333333333337</ele><time>2026-04-25T09:13:11.681Z</time></trkpt><trkpt lat="41.6947974" lon="13.560525"><ele>306.6666666666667</ele><time>2026-04-25T09:13:13.681Z</time></trkpt><trkpt lat="41.6947699" lon="13.5606068"><ele>307.5</ele><time>2026-04-25T09:13:14.681Z</time></trkpt><trkpt lat="41.6947517" lon="13.5607029"><ele>308.3333333333333</ele><time>2026-04-25T09:13:15.681Z</time></trkpt><trkpt lat="41.6947256" lon="13.5608143"><ele>309.16666666666663</ele><time>2026-04-25T09:13:16.681Z</time></trkpt><trkpt lat="41.6947022" lon="13.5609371"><ele>310.0</ele><time>2026-04-25T09:13:17.681Z</time></trkpt><trkpt lat="41.694676" lon="13.5610697"><ele>309.75</ele><time>2026-04-25T09:13:18.681Z</time></trkpt><trkpt lat="41.6946427" lon="13.5612152"><ele>309.5</ele><time>2026-04-25T09:13:19.681Z</time></trkpt><trkpt lat="41.6946068" lon="13.5613723"><ele>309.25</ele><time>2026-04-25T09:13:20.682Z</time></trkpt><trkpt lat="41.6945692" lon="13.5615244"><ele>309.0</ele><time>2026-04-25T09:13:21.681Z</time></trkpt><trkpt lat="41.694527" lon="13.5616837"><ele>309.0</ele><time>2026-04-25T09:13:22.681Z</time></trkpt><trkpt lat="41.6944749" lon="13.5618374"><ele>309.0</ele><time>2026-04-25T09:13:23.681Z</time></trkpt><trkpt lat="41.6944178" lon="13.5619949"><ele>309.0</ele><time>2026-04-25T09:13:24.681Z</time></trkpt><trkpt lat="41.6943609" lon="13.5621522"><ele>309.0</ele><time>2026-04-25T09:13:25.681Z</time></trkpt><trkpt lat="41.6943075" lon="13.5623012"><ele>309.0</ele><time>2026-04-25T09:13:26.681Z</time></trkpt><trkpt lat="41.6942638" lon="13.5624417"><ele>309.0</ele><time>2026-04-25T09:13:27.681Z</time></trkpt><trkpt lat="41.6942309" lon="13.5625888"><ele>309.0</ele><time>2026-04-25T09:13:28.681Z</time></trkpt><trkpt lat="41.694218" lon="13.5627284"><ele>309.0</ele><time>2026-04-25T09:13:29.681Z</time></trkpt><trkpt lat="41.6942239" lon="13.562861"><ele>309.0</ele><time>2026-04-25T09:13:30.681Z</time></trkpt><trkpt lat="41.6942527" lon="13.562998"><ele>308.8</ele><time>2026-04-25T09:13:31.681Z</time></trkpt><trkpt lat="41.6942897" lon="13.5631298"><ele>308.59999999999997</ele><time>2026-04-25T09:13:32.681Z</time></trkpt><trkpt lat="41.6943277" lon="13.5632598"><ele>308.4</ele><time>2026-04-25T09:13:33.681Z</time></trkpt><trkpt lat="41.6943702" lon="13.5634027"><ele>308.2</ele><time>2026-04-25T09:13:34.681Z</time></trkpt><trkpt lat="41.6944073" lon="13.5635467"><ele>308.0</ele><time>2026-04-25T09:13:35.681Z</time></trkpt><trkpt lat="41.6944431" lon="13.5636893"><ele>308.75</ele><time>2026-04-25T09:13:36.681Z</time></trkpt><trkpt lat="41.6944691" lon="13.5638305"><ele>309.5</ele><time>2026-04-25T09:13:37.681Z</time></trkpt><trkpt lat="41.6944878" lon="13.5639804"><ele>310.25</ele><time>2026-04-25T09:13:38.681Z</time></trkpt><trkpt lat="41.6944937" lon="13.56414"><ele>311.0</ele><time>2026-04-25T09:13:39.681Z</time></trkpt><trkpt lat="41.6944922" lon="13.5643062"><ele>311.0</ele><time>2026-04-25T09:13:40.681Z</time></trkpt><trkpt lat="41.6944878" lon="13.5644886"><ele>311.0</ele><time>2026-04-25T09:13:41.681Z</time></trkpt><trkpt lat="41.6944897" lon="13.5646789"><ele>311.0</ele><time>2026-04-25T09:13:42.682Z</time></trkpt><trkpt lat="41.6944966" lon="13.5648712"><ele>311.0</ele><time>2026-04-25T09:13:43.681Z</time></trkpt><trkpt lat="41.6945065" lon="13.5650694"><ele>311.6666666666667</ele><time>2026-04-25T09:13:44.681Z</time></trkpt><trkpt lat="41.6945153" lon="13.5652696"><ele>312.3333333333333</ele><time>2026-04-25T09:13:45.681Z</time></trkpt><trkpt lat="41.6945247" lon="13.5654689"><ele>313.0</ele><time>2026-04-25T09:13:46.681Z</time></trkpt><trkpt lat="41.6945358" lon="13.5656712"><ele>313.0</ele><time>2026-04-25T09:13:47.681Z</time></trkpt><trkpt lat="41.6945524" lon="13.5658629"><ele>313.0</ele><time>2026-04-25T09:13:48.681Z</time></trkpt><trkpt lat="41.6945616" lon="13.5660427"><ele>313.0</ele><time>2026-04-25T09:13:49.681Z</time></trkpt><trkpt lat="41.6945654" lon="13.5662122"><ele>313.0</ele><time>2026-04-25T09:13:50.681Z</time></trkpt><trkpt lat="41.694562" lon="13.5663538"><ele>313.5</ele><time>2026-04-25T09:13:51.681Z</time></trkpt><trkpt lat="41.6945539" lon="13.5664824"><ele>314.0</ele><time>2026-04-25T09:13:52.681Z</time></trkpt><trkpt lat="41.6945443" lon="13.5665923"><ele>314.5</ele><time>2026-04-25T09:13:53.681Z</time></trkpt><trkpt lat="41.6945388" lon="13.5666906"><ele>315.0</ele><time>2026-04-25T09:13:54.681Z</time></trkpt><trkpt lat="41.6945473" lon="13.5667855"><ele>315.5</ele><time>2026-04-25T09:13:55.681Z</time></trkpt><trkpt lat="41.6945702" lon="13.566875"><ele>316.0</ele><time>2026-04-25T09:13:56.681Z</time></trkpt><trkpt lat="41.6945884" lon="13.566972"><ele>315.66666666666663</ele><time>2026-04-25T09:13:57.681Z</time></trkpt><trkpt lat="41.6946066" lon="13.5670717"><ele>315.3333333333333</ele><time>2026-04-25T09:13:58.681Z</time></trkpt><trkpt lat="41.694614" lon="13.5671812"><ele>315.0</ele><time>2026-04-25T09:13:59.681Z</time></trkpt><trkpt lat="41.6946245" lon="13.5672931"><ele>314.6666666666667</ele><time>2026-04-25T09:14:00.682Z</time></trkpt><trkpt lat="41.694633" lon="13.5674117"><ele>314.33333333333337</ele><time>2026-04-25T09:14:01.681Z</time></trkpt><trkpt lat="41.6946416" lon="13.5675345"><ele>314.0</ele><time>2026-04-25T09:14:02.681Z</time></trkpt><trkpt lat="41.6946476" lon="13.5676655"><ele>314.0</ele><time>2026-04-25T09:14:03.681Z</time></trkpt><trkpt lat="41.6946517" lon="13.567809"><ele>314.0</ele><time>2026-04-25T09:14:04.681Z</time></trkpt><trkpt lat="41.6946508" lon="13.5679466"><ele>314.0</ele><time>2026-04-25T09:14:05.681Z</time></trkpt><trkpt lat="41.6946498" lon="13.5680897"><ele>314.0</ele><time>2026-04-25T09:14:06.681Z</time></trkpt><trkpt lat="41.6946475" lon="13.5682195"><ele>314.0</ele><time>2026-04-25T09:14:07.681Z</time></trkpt><trkpt lat="41.6946462" lon="13.5683441"><ele>312.8</ele><time>2026-04-25T09:14:08.681Z</time></trkpt><trkpt lat="41.6946451" lon="13.5684722"><ele>311.59999999999997</ele><time>2026-04-25T09:14:09.681Z</time></trkpt><trkpt lat="41.6946382" lon="13.5686019"><ele>310.4</ele><time>2026-04-25T09:14:10.681Z</time></trkpt><trkpt lat="41.6946254" lon="13.568725"><ele>309.2</ele><time>2026-04-25T09:14:11.681Z</time></trkpt><trkpt lat="41.6946046" lon="13.5688487"><ele>308.0</ele><time>2026-04-25T09:14:12.681Z</time></trkpt><trkpt lat="41.6945785" lon="13.5689632"><ele>308.6</ele><time>2026-04-25T09:14:13.681Z</time></trkpt><trkpt lat="41.694552" lon="13.5690804"><ele>309.20000000000005</ele><time>2026-04-25T09:14:14.681Z</time></trkpt><trkpt lat="41.694525" lon="13.5692028"><ele>309.8</ele><time>2026-04-25T09:14:15.681Z</time></trkpt><trkpt lat="41.6944997" lon="13.5693202"><ele>310.40000000000003</ele><time>2026-04-25T09:14:16.681Z</time></trkpt><trkpt lat="41.6944519" lon="13.569431"><ele>311.0</ele><time>2026-04-25T09:14:17.681Z</time></trkpt><trkpt lat="41.6944043" lon="13.5695368"><ele>311.0</ele><time>2026-04-25T09:14:18.681Z</time></trkpt><trkpt lat="41.6943628" lon="13.5696305"><ele>311.0</ele><time>2026-04-25T09:14:19.681Z</time></trkpt><trkpt lat="41.6943454" lon="13.5697271"><ele>311.0</ele><time>2026-04-25T09:14:20.681Z</time></trkpt><trkpt lat="41.694371" lon="13.5698683"><ele>311.0</ele><time>2026-04-25T09:14:22.681Z</time></trkpt><trkpt lat="41.6944704" lon="13.5699707"><ele>311.0</ele><time>2026-04-25T09:14:24.681Z</time></trkpt><trkpt lat="41.6945333" lon="13.5699977"><ele>309.1666666666667</ele><time>2026-04-25T09:14:25.681Z</time></trkpt><trkpt lat="41.6945956" lon="13.5700165"><ele>307.33333333333337</ele><time>2026-04-25T09:14:26.681Z</time></trkpt><trkpt lat="41.6946571" lon="13.5700409"><ele>305.5</ele><time>2026-04-25T09:14:27.681Z</time></trkpt><trkpt lat="41.6947712" lon="13.5700955"><ele>303.6666666666667</ele><time>2026-04-25T09:14:29.681Z</time></trkpt><trkpt lat="41.694826" lon="13.5701476"><ele>301.8333333333333</ele><time>2026-04-25T09:14:30.681Z</time></trkpt><trkpt lat="41.6948741" lon="13.5702114"><ele>300.0</ele><time>2026-04-25T09:14:31.681Z</time></trkpt><trkpt lat="41.6949191" lon="13.5702842"><ele>300.0</ele><time>2026-04-25T09:14:32.681Z</time></trkpt><trkpt lat="41.6949874" lon="13.5704044"><ele>300.0</ele><time>2026-04-25T09:14:34.681Z</time></trkpt><trkpt lat="41.6950219" lon="13.5704859"><ele>300.0</ele><time>2026-04-25T09:15:00.681Z</time></trkpt><trkpt lat="41.6949666" lon="13.5704194"><ele>300.0</ele><time>2026-04-25T09:15:10.681Z</time></trkpt><trkpt lat="41.6949209" lon="13.5702928"><ele>300.0</ele><time>2026-04-25T09:16:01.68Z</time></trkpt><trkpt lat="41.6948527" lon="13.570154"><ele>300.0</ele><time>2026-04-25T09:16:03.68Z</time></trkpt><trkpt lat="41.6947847" lon="13.570089"><ele>300.0</ele><time>2026-04-25T09:16:04.68Z</time></trkpt><trkpt lat="41.6947045" lon="13.5700349"><ele>300.0</ele><time>2026-04-25T09:16:05.68Z</time></trkpt><trkpt lat="41.6946342" lon="13.5700049"><ele>300.0</ele><time>2026-04-25T09:16:06.68Z</time></trkpt><trkpt lat="41.6945472" lon="13.5699669"><ele>300.0</ele><time>2026-04-25T09:16:07.68Z</time></trkpt><trkpt lat="41.6944816" lon="13.5699289"><ele>300.0</ele><time>2026-04-25T09:16:08.68Z</time></trkpt><trkpt lat="41.6944183" lon="13.5698837"><ele>299.8333333333333</ele><time>2026-04-25T09:16:09.68Z</time></trkpt><trkpt lat="41.694363" lon="13.5697593"><ele>299.6666666666667</ele><time>2026-04-25T09:16:11.68Z</time></trkpt><trkpt lat="41.6943628" lon="13.5696733"><ele>299.5</ele><time>2026-04-25T09:16:12.68Z</time></trkpt><trkpt lat="41.694405" lon="13.5695219"><ele>299.33333333333337</ele><time>2026-04-25T09:16:14.68Z</time></trkpt><trkpt lat="41.6944405" lon="13.5694431"><ele>299.1666666666667</ele><time>2026-04-25T09:16:15.68Z</time></trkpt><trkpt lat="41.6944747" lon="13.5693494"><ele>299.0</ele><time>2026-04-25T09:16:16.68Z</time></trkpt><trkpt lat="41.6945195" lon="13.5692502"><ele>299.0</ele><time>2026-04-25T09:16:17.681Z</time></trkpt><trkpt lat="41.6945521" lon="13.5691434"><ele>299.0</ele><time>2026-04-25T09:16:18.68Z</time></trkpt><trkpt lat="41.6945775" lon="13.5690319"><ele>299.0</ele><time>2026-04-25T09:16:19.68Z</time></trkpt><trkpt lat="41.6945947" lon="13.5689191"><ele>299.0</ele><time>2026-04-25T09:16:20.68Z</time></trkpt><trkpt lat="41.6946044" lon="13.5688228"><ele>299.0</ele><time>2026-04-25T09:16:21.68Z</time></trkpt><trkpt lat="41.6946199" lon="13.5686997"><ele>299.0</ele><time>2026-04-25T09:16:22.68Z</time></trkpt><trkpt lat="41.6946393" lon="13.5685893"><ele>300.5</ele><time>2026-04-25T09:16:23.68Z</time></trkpt><trkpt lat="41.6946459" lon="13.5684684"><ele>302.0</ele><time>2026-04-25T09:16:24.68Z</time></trkpt><trkpt lat="41.694649" lon="13.5683627"><ele>303.5</ele><time>2026-04-25T09:16:25.68Z</time></trkpt><trkpt lat="41.6946482" lon="13.5682549"><ele>305.0</ele><time>2026-04-25T09:16:26.68Z</time></trkpt><trkpt lat="41.6946521" lon="13.568155"><ele>306.5</ele><time>2026-04-25T09:16:27.68Z</time></trkpt><trkpt lat="41.6946557" lon="13.5680531"><ele>308.0</ele><time>2026-04-25T09:16:28.68Z</time></trkpt><trkpt lat="41.6946543" lon="13.5679518"><ele>309.0</ele><time>2026-04-25T09:16:29.68Z</time></trkpt><trkpt lat="41.6946519" lon="13.5678533"><ele>310.0</ele><time>2026-04-25T09:16:30.68Z</time></trkpt><trkpt lat="41.6946578" lon="13.5677616"><ele>311.0</ele><time>2026-04-25T09:16:31.68Z</time></trkpt><trkpt lat="41.6946594" lon="13.567662"><ele>312.0</ele><time>2026-04-25T09:16:32.68Z</time></trkpt><trkpt lat="41.6946487" lon="13.5675525"><ele>313.0</ele><time>2026-04-25T09:16:33.68Z</time></trkpt><trkpt lat="41.6946456" lon="13.5674376"><ele>314.0</ele><time>2026-04-25T09:16:34.68Z</time></trkpt><trkpt lat="41.6946435" lon="13.5673418"><ele>314.0</ele><time>2026-04-25T09:16:35.68Z</time></trkpt><trkpt lat="41.6946363" lon="13.5672405"><ele>314.0</ele><time>2026-04-25T09:16:36.68Z</time></trkpt><trkpt lat="41.6946226" lon="13.5671263"><ele>314.0</ele><time>2026-04-25T09:16:37.68Z</time></trkpt><trkpt lat="41.6946123" lon="13.5670138"><ele>314.0</ele><time>2026-04-25T09:16:38.68Z</time></trkpt><trkpt lat="41.6946133" lon="13.5669081"><ele>314.0</ele><time>2026-04-25T09:16:39.68Z</time></trkpt><trkpt lat="41.6946206" lon="13.5668054"><ele>314.0</ele><time>2026-04-25T09:16:40.681Z</time></trkpt><trkpt lat="41.6946362" lon="13.5667215"><ele>314.0</ele><time>2026-04-25T09:16:41.68Z</time></trkpt><trkpt lat="41.694642" lon="13.566629"><ele>314.0</ele><time>2026-04-25T09:16:43.68Z</time></trkpt><trkpt lat="41.6946403" lon="13.5667801"><ele>314.0</ele><time>2026-04-25T09:16:49.68Z</time></trkpt><trkpt lat="41.6946109" lon="13.5668823"><ele>314.0</ele><time>2026-04-25T09:16:50.68Z</time></trkpt><trkpt lat="41.6945809" lon="13.5669983"><ele>314.0</ele><time>2026-04-25T09:16:51.68Z</time></trkpt><trkpt lat="41.6945462" lon="13.5671246"><ele>314.0</ele><time>2026-04-25T09:16:52.68Z</time></trkpt><trkpt lat="41.6944961" lon="13.5672616"><ele>314.0</ele><time>2026-04-25T09:16:53.68Z</time></trkpt><trkpt lat="41.694455" lon="13.5674001"><ele>314.0</ele><time>2026-04-25T09:16:54.68Z</time></trkpt><trkpt lat="41.694407" lon="13.5675521"><ele>314.0</ele><time>2026-04-25T09:16:55.68Z</time></trkpt><trkpt lat="41.6943537" lon="13.5677003"><ele>316.0</ele><time>2026-04-25T09:16:56.68Z</time></trkpt><trkpt lat="41.6942926" lon="13.5678536"><ele>318.0</ele><time>2026-04-25T09:16:57.68Z</time></trkpt><trkpt lat="41.6942288" lon="13.5680113"><ele>320.0</ele><time>2026-04-25T09:16:58.68Z</time></trkpt><trkpt lat="41.6941517" lon="13.5681654"><ele>322.0</ele><time>2026-04-25T09:16:59.68Z</time></trkpt><trkpt lat="41.6940565" lon="13.5683111"><ele>322.0</ele><time>2026-04-25T09:17:00.68Z</time></trkpt><trkpt lat="41.6939709" lon="13.5684436"><ele>322.0</ele><time>2026-04-25T09:17:01.68Z</time></trkpt><trkpt lat="41.6938883" lon="13.5685716"><ele>322.0</ele><time>2026-04-25T09:17:02.68Z</time></trkpt><trkpt lat="41.693801" lon="13.5686992"><ele>322.0</ele><time>2026-04-25T09:17:03.68Z</time></trkpt><trkpt lat="41.6936975" lon="13.5688186"><ele>321.0</ele><time>2026-04-25T09:17:04.68Z</time></trkpt><trkpt lat="41.6936141" lon="13.5689321"><ele>320.0</ele><time>2026-04-25T09:17:05.68Z</time></trkpt><trkpt lat="41.6935379" lon="13.5690439"><ele>319.0</ele><time>2026-04-25T09:17:06.681Z</time></trkpt><trkpt lat="41.6934485" lon="13.5691541"><ele>318.0</ele><time>2026-04-25T09:17:07.68Z</time></trkpt><trkpt lat="41.6933624" lon="13.569262"><ele>319.0</ele><time>2026-04-25T09:17:08.68Z</time></trkpt><trkpt lat="41.6932684" lon="13.5693743"><ele>320.0</ele><time>2026-04-25T09:17:09.68Z</time></trkpt><trkpt lat="41.6931741" lon="13.5694917"><ele>321.0</ele><time>2026-04-25T09:17:10.68Z</time></trkpt><trkpt lat="41.6930718" lon="13.5696026"><ele>322.0</ele><time>2026-04-25T09:17:11.68Z</time></trkpt><trkpt lat="41.692974" lon="13.5696981"><ele>322.0</ele><time>2026-04-25T09:17:12.68Z</time></trkpt><trkpt lat="41.6928955" lon="13.5697919"><ele>322.0</ele><time>2026-04-25T09:17:13.68Z</time></trkpt><trkpt lat="41.6928241" lon="13.5699181"><ele>322.0</ele><time>2026-04-25T09:17:14.68Z</time></trkpt><trkpt lat="41.6927626" lon="13.5700391"><ele>322.0</ele><time>2026-04-25T09:17:15.68Z</time></trkpt><trkpt lat="41.6926963" lon="13.5701664"><ele>322.0</ele><time>2026-04-25T09:17:16.68Z</time></trkpt><trkpt lat="41.6926211" lon="13.5703115"><ele>323.75</ele><time>2026-04-25T09:17:17.68Z</time></trkpt><trkpt lat="41.6925388" lon="13.5704396"><ele>325.5</ele><time>2026-04-25T09:17:18.68Z</time></trkpt><trkpt lat="41.6924511" lon="13.5705649"><ele>327.25</ele><time>2026-04-25T09:17:19.681Z</time></trkpt><trkpt lat="41.692355" lon="13.5706986"><ele>329.0</ele><time>2026-04-25T09:17:20.68Z</time></trkpt><trkpt lat="41.6922602" lon="13.5708304"><ele>329.0</ele><time>2026-04-25T09:17:21.68Z</time></trkpt><trkpt lat="41.6921618" lon="13.5709584"><ele>329.0</ele><time>2026-04-25T09:17:22.68Z</time></trkpt><trkpt lat="41.692068" lon="13.5710793"><ele>329.0</ele><time>2026-04-25T09:17:23.68Z</time></trkpt><trkpt lat="41.6919662" lon="13.5711804"><ele>329.0</ele><time>2026-04-25T09:17:24.68Z</time></trkpt><trkpt lat="41.6918585" lon="13.5712777"><ele>330.0</ele><time>2026-04-25T09:17:25.68Z</time></trkpt><trkpt lat="41.6917422" lon="13.5713594"><ele>331.0</ele><time>2026-04-25T09:17:26.68Z</time></trkpt><trkpt lat="41.6916147" lon="13.5714278"><ele>332.0</ele><time>2026-04-25T09:17:27.68Z</time></trkpt><trkpt lat="41.6914884" lon="13.5714836"><ele>333.0</ele><time>2026-04-25T09:17:28.68Z</time></trkpt><trkpt lat="41.6913678" lon="13.5715263"><ele>333.0</ele><time>2026-04-25T09:17:29.68Z</time></trkpt><trkpt lat="41.691256" lon="13.5715733"><ele>333.0</ele><time>2026-04-25T09:17:30.68Z</time></trkpt><trkpt lat="41.6911493" lon="13.5716335"><ele>333.0</ele><time>2026-04-25T09:17:31.68Z</time></trkpt><trkpt lat="41.6910604" lon="13.5716956"><ele>333.0</ele><time>2026-04-25T09:17:32.68Z</time></trkpt><trkpt lat="41.6909786" lon="13.5717492"><ele>333.0</ele><time>2026-04-25T09:17:33.681Z</time></trkpt><trkpt lat="41.690883" lon="13.5717692"><ele>333.2</ele><time>2026-04-25T09:17:34.68Z</time></trkpt><trkpt lat="41.690791" lon="13.5718184"><ele>333.4</ele><time>2026-04-25T09:17:35.68Z</time></trkpt><trkpt lat="41.6907085" lon="13.5718723"><ele>333.59999999999997</ele><time>2026-04-25T09:17:36.68Z</time></trkpt><trkpt lat="41.6906255" lon="13.5719408"><ele>333.79999999999995</ele><time>2026-04-25T09:17:37.68Z</time></trkpt><trkpt lat="41.6905445" lon="13.5720201"><ele>334.0</ele><time>2026-04-25T09:17:38.68Z</time></trkpt><trkpt lat="41.6904567" lon="13.5721155"><ele>334.5</ele><time>2026-04-25T09:17:39.68Z</time></trkpt><trkpt lat="41.6903561" lon="13.5722202"><ele>335.0</ele><time>2026-04-25T09:17:40.68Z</time></trkpt><trkpt lat="41.6902578" lon="13.5723023"><ele>335.5</ele><time>2026-04-25T09:17:41.681Z</time></trkpt><trkpt lat="41.6901444" lon="13.5723724"><ele>336.0</ele><time>2026-04-25T09:17:42.68Z</time></trkpt><trkpt lat="41.690027" lon="13.5724168"><ele>336.4</ele><time>2026-04-25T09:17:43.68Z</time></trkpt><trkpt lat="41.6899167" lon="13.5724349"><ele>336.8</ele><time>2026-04-25T09:17:44.68Z</time></trkpt><trkpt lat="41.6898163" lon="13.5724426"><ele>337.2</ele><time>2026-04-25T09:17:45.68Z</time></trkpt><trkpt lat="41.6897334" lon="13.5724466"><ele>337.59999999999997</ele><time>2026-04-25T09:17:46.68Z</time></trkpt><trkpt lat="41.6896142" lon="13.5724592"><ele>338.0</ele><time>2026-04-25T09:17:48.68Z</time></trkpt><trkpt lat="41.6895514" lon="13.5724758"><ele>338.0</ele><time>2026-04-25T09:17:49.68Z</time></trkpt><trkpt lat="41.6894861" lon="13.5724868"><ele>338.0</ele><time>2026-04-25T09:17:50.68Z</time></trkpt><trkpt lat="41.6894107" lon="13.5724968"><ele>338.0</ele><time>2026-04-25T09:17:51.68Z</time></trkpt><trkpt lat="41.6893276" lon="13.5725208"><ele>338.0</ele><time>2026-04-25T09:17:52.68Z</time></trkpt><trkpt lat="41.6892388" lon="13.5725252"><ele>338.0</ele><time>2026-04-25T09:17:53.68Z</time></trkpt><trkpt lat="41.6891414" lon="13.572536"><ele>338.0</ele><time>2026-04-25T09:17:54.68Z</time></trkpt><trkpt lat="41.6890218" lon="13.5725602"><ele>338.5</ele><time>2026-04-25T09:17:55.68Z</time></trkpt><trkpt lat="41.688904" lon="13.5725894"><ele>339.0</ele><time>2026-04-25T09:17:56.68Z</time></trkpt><trkpt lat="41.6887775" lon="13.572641"><ele>339.5</ele><time>2026-04-25T09:17:57.68Z</time></trkpt><trkpt lat="41.6886595" lon="13.5726885"><ele>340.0</ele><time>2026-04-25T09:17:58.68Z</time></trkpt><trkpt lat="41.6885569" lon="13.5727432"><ele>339.4</ele><time>2026-04-25T09:17:59.68Z</time></trkpt><trkpt lat="41.6884623" lon="13.5727924"><ele>338.8</ele><time>2026-04-25T09:18:00.681Z</time></trkpt><trkpt lat="41.6883691" lon="13.5728421"><ele>338.20000000000005</ele><time>2026-04-25T09:18:01.68Z</time></trkpt><trkpt lat="41.6882728" lon="13.5728887"><ele>337.6</ele><time>2026-04-25T09:18:02.681Z</time></trkpt><trkpt lat="41.6881739" lon="13.5729347"><ele>337.0</ele><time>2026-04-25T09:18:03.68Z</time></trkpt><trkpt lat="41.6880765" lon="13.5729664"><ele>337.0</ele><time>2026-04-25T09:18:04.68Z</time></trkpt><trkpt lat="41.6879768" lon="13.5729854"><ele>337.0</ele><time>2026-04-25T09:18:05.68Z</time></trkpt><trkpt lat="41.6878851" lon="13.5729853"><ele>337.0</ele><time>2026-04-25T09:18:06.68Z</time></trkpt><trkpt lat="41.6877856" lon="13.5729842"><ele>337.0</ele><time>2026-04-25T09:18:07.68Z</time></trkpt><trkpt lat="41.6876864" lon="13.5729924"><ele>337.0</ele><time>2026-04-25T09:18:08.68Z</time></trkpt><trkpt lat="41.6876" lon="13.5730057"><ele>336.66666666666663</ele><time>2026-04-25T09:18:09.68Z</time></trkpt><trkpt lat="41.6875266" lon="13.5730223"><ele>336.3333333333333</ele><time>2026-04-25T09:18:10.68Z</time></trkpt><trkpt lat="41.6874555" lon="13.5730364"><ele>336.0</ele><time>2026-04-25T09:18:11.68Z</time></trkpt><trkpt lat="41.6873845" lon="13.5730475"><ele>335.6666666666667</ele><time>2026-04-25T09:18:12.68Z</time></trkpt><trkpt lat="41.6873196" lon="13.5730658"><ele>335.33333333333337</ele><time>2026-04-25T09:18:13.68Z</time></trkpt><trkpt lat="41.6872517" lon="13.5730881"><ele>335.0</ele><time>2026-04-25T09:18:14.68Z</time></trkpt><trkpt lat="41.6871435" lon="13.5731152"><ele>335.0</ele><time>2026-04-25T09:18:16.68Z</time></trkpt><trkpt lat="41.6870695" lon="13.5731083"><ele>335.0</ele><time>2026-04-25T09:18:18.68Z</time></trkpt><trkpt lat="41.6870075" lon="13.5730933"><ele>335.0</ele><time>2026-04-25T09:18:20.68Z</time></trkpt><trkpt lat="41.6869423" lon="13.5731367"><ele>335.0</ele><time>2026-04-25T09:19:17.68Z</time></trkpt><trkpt lat="41.6869897" lon="13.5731948"><ele>335.0</ele><time>2026-04-25T09:19:22.68Z</time></trkpt><trkpt lat="41.6870847" lon="13.5731609"><ele>335.0</ele><time>2026-04-25T09:19:25.68Z</time></trkpt><trkpt lat="41.6871915" lon="13.5731412"><ele>335.0</ele><time>2026-04-25T09:19:27.68Z</time></trkpt><trkpt lat="41.6872537" lon="13.5731216"><ele>335.0</ele><time>2026-04-25T09:19:28.68Z</time></trkpt><trkpt lat="41.6873276" lon="13.573091"><ele>335.0</ele><time>2026-04-25T09:19:29.68Z</time></trkpt><trkpt lat="41.6874112" lon="13.5730599"><ele>335.0</ele><time>2026-04-25T09:19:30.68Z</time></trkpt><trkpt lat="41.6875074" lon="13.5730332"><ele>335.0</ele><time>2026-04-25T09:19:31.68Z</time></trkpt><trkpt lat="41.6876178" lon="13.573013"><ele>335.0</ele><time>2026-04-25T09:19:32.681Z</time></trkpt><trkpt lat="41.6877151" lon="13.573014"><ele>335.5</ele><time>2026-04-25T09:19:33.68Z</time></trkpt><trkpt lat="41.6878194" lon="13.5730017"><ele>336.0</ele><time>2026-04-25T09:19:34.68Z</time></trkpt><trkpt lat="41.687934" lon="13.5729833"><ele>336.5</ele><time>2026-04-25T09:19:35.68Z</time></trkpt><trkpt lat="41.6880459" lon="13.572981"><ele>337.0</ele><time>2026-04-25T09:19:36.68Z</time></trkpt><trkpt lat="41.6881625" lon="13.5729582"><ele>337.0</ele><time>2026-04-25T09:19:37.68Z</time></trkpt><trkpt lat="41.6882818" lon="13.5729258"><ele>337.0</ele><time>2026-04-25T09:19:38.68Z</time></trkpt><trkpt lat="41.6884027" lon="13.5728786"><ele>337.0</ele><time>2026-04-25T09:19:39.68Z</time></trkpt><trkpt lat="41.6885234" lon="13.5728302"><ele>337.0</ele><time>2026-04-25T09:19:40.68Z</time></trkpt><trkpt lat="41.6886401" lon="13.5727897"><ele>337.75</ele><time>2026-04-25T09:19:41.68Z</time></trkpt><trkpt lat="41.6887555" lon="13.5727517"><ele>338.5</ele><time>2026-04-25T09:19:42.68Z</time></trkpt><trkpt lat="41.6888736" lon="13.5727203"><ele>339.25</ele><time>2026-04-25T09:19:43.68Z</time></trkpt><trkpt lat="41.6889943" lon="13.5726977"><ele>340.0</ele><time>2026-04-25T09:19:44.68Z</time></trkpt><trkpt lat="41.689113" lon="13.5726792"><ele>340.0</ele><time>2026-04-25T09:19:45.68Z</time></trkpt><trkpt lat="41.6892229" lon="13.5726597"><ele>340.0</ele><time>2026-04-25T09:19:46.68Z</time></trkpt><trkpt lat="41.6893364" lon="13.5726453"><ele>340.0</ele><time>2026-04-25T09:19:47.68Z</time></trkpt><trkpt lat="41.6894396" lon="13.5726149"><ele>340.0</ele><time>2026-04-25T09:19:48.68Z</time></trkpt><trkpt lat="41.6895386" lon="13.5725764"><ele>340.0</ele><time>2026-04-25T09:19:49.68Z</time></trkpt><trkpt lat="41.6896238" lon="13.5725604"><ele>339.7142857142857</ele><time>2026-04-25T09:19:50.68Z</time></trkpt><trkpt lat="41.6897068" lon="13.5725242"><ele>339.4285714285714</ele><time>2026-04-25T09:19:51.68Z</time></trkpt><trkpt lat="41.6897722" lon="13.572479"><ele>339.1428571428571</ele><time>2026-04-25T09:19:52.68Z</time></trkpt><trkpt lat="41.6898316" lon="13.5724476"><ele>338.8571428571429</ele><time>2026-04-25T09:19:53.68Z</time></trkpt><trkpt lat="41.6898962" lon="13.5724181"><ele>338.57142857142856</ele><time>2026-04-25T09:19:54.68Z</time></trkpt><trkpt lat="41.6899642" lon="13.5723932"><ele>338.2857142857143</ele><time>2026-04-25T09:19:55.68Z</time></trkpt><trkpt lat="41.6900366" lon="13.5723758"><ele>338.0</ele><time>2026-04-25T09:19:56.68Z</time></trkpt><trkpt lat="41.6901122" lon="13.5723509"><ele>338.0</ele><time>2026-04-25T09:19:57.68Z</time></trkpt><trkpt lat="41.690191" lon="13.5723173"><ele>338.0</ele><time>2026-04-25T09:19:58.68Z</time></trkpt><trkpt lat="41.6902679" lon="13.5722629"><ele>338.0</ele><time>2026-04-25T09:19:59.68Z</time></trkpt><trkpt lat="41.6903449" lon="13.5721949"><ele>338.0</ele><time>2026-04-25T09:20:00.68Z</time></trkpt><trkpt lat="41.6904296" lon="13.5721193"><ele>338.0</ele><time>2026-04-25T09:20:01.68Z</time></trkpt><trkpt lat="41.6905077" lon="13.5720442"><ele>337.33333333333337</ele><time>2026-04-25T09:20:02.68Z</time></trkpt><trkpt lat="41.6905774" lon="13.5719785"><ele>336.6666666666667</ele><time>2026-04-25T09:20:03.68Z</time></trkpt><trkpt lat="41.6906521" lon="13.5719298"><ele>336.0</ele><time>2026-04-25T09:20:04.68Z</time></trkpt><trkpt lat="41.690727" lon="13.5718844"><ele>335.3333333333333</ele><time>2026-04-25T09:20:05.68Z</time></trkpt><trkpt lat="41.6908097" lon="13.5718272"><ele>334.66666666666663</ele><time>2026-04-25T09:20:06.68Z</time></trkpt><trkpt lat="41.6908895" lon="13.57177"><ele>334.0</ele><time>2026-04-25T09:20:07.68Z</time></trkpt><trkpt lat="41.6909706" lon="13.5717093"><ele>334.0</ele><time>2026-04-25T09:20:08.68Z</time></trkpt><trkpt lat="41.6910749" lon="13.5716475"><ele>334.0</ele><time>2026-04-25T09:20:09.68Z</time></trkpt><trkpt lat="41.6911773" lon="13.5716003"><ele>334.0</ele><time>2026-04-25T09:20:10.68Z</time></trkpt><trkpt lat="41.6912744" lon="13.5715645"><ele>334.0</ele><time>2026-04-25T09:20:11.68Z</time></trkpt><trkpt lat="41.6913608" lon="13.5715584"><ele>334.0</ele><time>2026-04-25T09:20:12.68Z</time></trkpt><trkpt lat="41.6914495" lon="13.5715351"><ele>333.75</ele><time>2026-04-25T09:20:13.68Z</time></trkpt><trkpt lat="41.6915344" lon="13.5714968"><ele>333.5</ele><time>2026-04-25T09:20:14.68Z</time></trkpt><trkpt lat="41.6916548" lon="13.5714127"><ele>333.25</ele><time>2026-04-25T09:20:15.68Z</time></trkpt><trkpt lat="41.691752" lon="13.5713155"><ele>333.0</ele><time>2026-04-25T09:20:16.681Z</time></trkpt><trkpt lat="41.691896" lon="13.5711963"><ele>332.0</ele><time>2026-04-25T09:20:17.68Z</time></trkpt><trkpt lat="41.6919893" lon="13.571087"><ele>331.0</ele><time>2026-04-25T09:20:18.68Z</time></trkpt><trkpt lat="41.6921024" lon="13.5709524"><ele>330.0</ele><time>2026-04-25T09:20:19.68Z</time></trkpt><trkpt lat="41.6922183" lon="13.5708094"><ele>329.0</ele><time>2026-04-25T09:20:20.68Z</time></trkpt><trkpt lat="41.6923311" lon="13.5706577"><ele>329.0</ele><time>2026-04-25T09:20:21.68Z</time></trkpt><trkpt lat="41.6924386" lon="13.5705307"><ele>329.0</ele><time>2026-04-25T09:20:22.68Z</time></trkpt><trkpt lat="41.6925401" lon="13.5703949"><ele>329.0</ele><time>2026-04-25T09:20:23.68Z</time></trkpt><trkpt lat="41.6926526" lon="13.5702303"><ele>328.25</ele><time>2026-04-25T09:20:24.68Z</time></trkpt><trkpt lat="41.6927478" lon="13.5700729"><ele>327.5</ele><time>2026-04-25T09:20:25.68Z</time></trkpt><trkpt lat="41.6928329" lon="13.5699422"><ele>326.75</ele><time>2026-04-25T09:20:26.68Z</time></trkpt><trkpt lat="41.6929293" lon="13.5698359"><ele>326.0</ele><time>2026-04-25T09:20:27.68Z</time></trkpt><trkpt lat="41.6930384" lon="13.5697435"><ele>326.0</ele><time>2026-04-25T09:20:28.68Z</time></trkpt><trkpt lat="41.6931603" lon="13.5696446"><ele>326.0</ele><time>2026-04-25T09:20:29.68Z</time></trkpt><trkpt lat="41.693281" lon="13.5695316"><ele>326.0</ele><time>2026-04-25T09:20:30.68Z</time></trkpt><trkpt lat="41.6933715" lon="13.5694005"><ele>326.0</ele><time>2026-04-25T09:20:31.68Z</time></trkpt><trkpt lat="41.6934546" lon="13.5692839"><ele>326.0</ele><time>2026-04-25T09:20:32.68Z</time></trkpt><trkpt lat="41.6935325" lon="13.5691829"><ele>326.0</ele><time>2026-04-25T09:20:33.68Z</time></trkpt><trkpt lat="41.6936227" lon="13.5690796"><ele>326.0</ele><time>2026-04-25T09:20:34.68Z</time></trkpt><trkpt lat="41.693711" lon="13.5689841"><ele>326.0</ele><time>2026-04-25T09:20:35.68Z</time></trkpt><trkpt lat="41.6937982" lon="13.5688874"><ele>325.0</ele><time>2026-04-25T09:20:36.68Z</time></trkpt><trkpt lat="41.6938867" lon="13.5687822"><ele>324.0</ele><time>2026-04-25T09:20:37.68Z</time></trkpt><trkpt lat="41.6939737" lon="13.5686504"><ele>323.0</ele><time>2026-04-25T09:20:38.68Z</time></trkpt><trkpt lat="41.6940575" lon="13.5684901"><ele>322.0</ele><time>2026-04-25T09:20:39.68Z</time></trkpt><trkpt lat="41.6941307" lon="13.5683176"><ele>322.0</ele><time>2026-04-25T09:20:40.68Z</time></trkpt><trkpt lat="41.6941901" lon="13.5681393"><ele>322.0</ele><time>2026-04-25T09:20:41.68Z</time></trkpt><trkpt lat="41.6942405" lon="13.5679551"><ele>322.0</ele><time>2026-04-25T09:20:42.68Z</time></trkpt><trkpt lat="41.6942828" lon="13.5677859"><ele>322.0</ele><time>2026-04-25T09:20:43.681Z</time></trkpt><trkpt lat="41.6943232" lon="13.5676282"><ele>322.20000000000005</ele><time>2026-04-25T09:20:44.68Z</time></trkpt><trkpt lat="41.6943604" lon="13.5674771"><ele>322.4</ele><time>2026-04-25T09:20:45.68Z</time></trkpt><trkpt lat="41.6943912" lon="13.5673436"><ele>322.6</ele><time>2026-04-25T09:20:46.68Z</time></trkpt><trkpt lat="41.6944188" lon="13.5672262"><ele>322.79999999999995</ele><time>2026-04-25T09:20:47.68Z</time></trkpt><trkpt lat="41.6944431" lon="13.5671242"><ele>323.0</ele><time>2026-04-25T09:20:48.68Z</time></trkpt><trkpt lat="41.6944537" lon="13.5670311"><ele>321.83333333333337</ele><time>2026-04-25T09:20:49.68Z</time></trkpt><trkpt lat="41.6944865" lon="13.5668779"><ele>320.6666666666667</ele><time>2026-04-25T09:20:51.681Z</time></trkpt><trkpt lat="41.6945091" lon="13.5667813"><ele>319.5</ele><time>2026-04-25T09:20:52.68Z</time></trkpt><trkpt lat="41.6945345" lon="13.5666765"><ele>318.3333333333333</ele><time>2026-04-25T09:20:53.68Z</time></trkpt><trkpt lat="41.6945569" lon="13.5665812"><ele>317.16666666666663</ele><time>2026-04-25T09:20:54.68Z</time></trkpt><trkpt lat="41.6945708" lon="13.5664858"><ele>316.0</ele><time>2026-04-25T09:20:55.68Z</time></trkpt><trkpt lat="41.6945817" lon="13.566384"><ele>316.0</ele><time>2026-04-25T09:20:56.68Z</time></trkpt><trkpt lat="41.6945754" lon="13.5662676"><ele>316.0</ele><time>2026-04-25T09:20:57.68Z</time></trkpt><trkpt lat="41.6945707" lon="13.5661427"><ele>316.0</ele><time>2026-04-25T09:20:58.68Z</time></trkpt><trkpt lat="41.6945671" lon="13.5660025"><ele>316.0</ele><time>2026-04-25T09:20:59.681Z</time></trkpt><trkpt lat="41.6945604" lon="13.5658504"><ele>316.0</ele><time>2026-04-25T09:21:00.68Z</time></trkpt><trkpt lat="41.6945459" lon="13.5656861"><ele>315.25</ele><time>2026-04-25T09:21:01.68Z</time></trkpt><trkpt lat="41.6945438" lon="13.5655249"><ele>314.5</ele><time>2026-04-25T09:21:02.68Z</time></trkpt><trkpt lat="41.6945357" lon="13.5653442"><ele>313.75</ele><time>2026-04-25T09:21:03.68Z</time></trkpt><trkpt lat="41.6945283" lon="13.5651449"><ele>313.0</ele><time>2026-04-25T09:21:04.68Z</time></trkpt><trkpt lat="41.6945143" lon="13.5649304"><ele>313.0</ele><time>2026-04-25T09:21:05.68Z</time></trkpt><trkpt lat="41.6945049" lon="13.5647176"><ele>313.0</ele><time>2026-04-25T09:21:06.68Z</time></trkpt><trkpt lat="41.694499" lon="13.5645059"><ele>313.0</ele><time>2026-04-25T09:21:07.68Z</time></trkpt><trkpt lat="41.6944971" lon="13.5642927"><ele>312.5</ele><time>2026-04-25T09:21:08.68Z</time></trkpt><trkpt lat="41.6944985" lon="13.5640892"><ele>312.0</ele><time>2026-04-25T09:21:09.68Z</time></trkpt><trkpt lat="41.6944938" lon="13.5638981"><ele>311.5</ele><time>2026-04-25T09:21:10.68Z</time></trkpt><trkpt lat="41.6944738" lon="13.5637248"><ele>311.0</ele><time>2026-04-25T09:21:11.68Z</time></trkpt><trkpt lat="41.6944372" lon="13.5635479"><ele>311.5</ele><time>2026-04-25T09:21:12.68Z</time></trkpt><trkpt lat="41.6943931" lon="13.5633585"><ele>312.0</ele><time>2026-04-25T09:21:13.68Z</time></trkpt><trkpt lat="41.6943495" lon="13.5631633"><ele>312.5</ele><time>2026-04-25T09:21:14.68Z</time></trkpt><trkpt lat="41.6943043" lon="13.5629812"><ele>313.0</ele><time>2026-04-25T09:21:15.681Z</time></trkpt><trkpt lat="41.6942668" lon="13.5628091"><ele>312.0</ele><time>2026-04-25T09:21:16.68Z</time></trkpt><trkpt lat="41.6942425" lon="13.5626444"><ele>311.0</ele><time>2026-04-25T09:21:17.68Z</time></trkpt><trkpt lat="41.6942446" lon="13.5624934"><ele>310.0</ele><time>2026-04-25T09:21:18.68Z</time></trkpt><trkpt lat="41.694268" lon="13.5623429"><ele>309.0</ele><time>2026-04-25T09:21:19.68Z</time></trkpt><trkpt lat="41.6943097" lon="13.5621915"><ele>309.0</ele><time>2026-04-25T09:21:20.68Z</time></trkpt><trkpt lat="41.6943629" lon="13.5620399"><ele>309.0</ele><time>2026-04-25T09:21:21.68Z</time></trkpt><trkpt lat="41.6944221" lon="13.561879"><ele>309.0</ele><time>2026-04-25T09:21:22.68Z</time></trkpt><trkpt lat="41.6944798" lon="13.5617114"><ele>309.0</ele><time>2026-04-25T09:21:23.68Z</time></trkpt><trkpt lat="41.6945372" lon="13.5615343"><ele>309.0</ele><time>2026-04-25T09:21:24.68Z</time></trkpt><trkpt lat="41.694588" lon="13.5613509"><ele>309.0</ele><time>2026-04-25T09:21:25.68Z</time></trkpt><trkpt lat="41.6946374" lon="13.5611669"><ele>309.0</ele><time>2026-04-25T09:21:26.68Z</time></trkpt><trkpt lat="41.6946857" lon="13.5609868"><ele>309.0</ele><time>2026-04-25T09:21:27.68Z</time></trkpt><trkpt lat="41.694735" lon="13.560815"><ele>309.2</ele><time>2026-04-25T09:21:28.68Z</time></trkpt><trkpt lat="41.6947767" lon="13.5606595"><ele>309.4</ele><time>2026-04-25T09:21:29.68Z</time></trkpt><trkpt lat="41.694807" lon="13.5605246"><ele>309.6</ele><time>2026-04-25T09:21:30.68Z</time></trkpt><trkpt lat="41.6948226" lon="13.5604092"><ele>309.8</ele><time>2026-04-25T09:21:31.68Z</time></trkpt><trkpt lat="41.6948348" lon="13.5602529"><ele>310.0</ele><time>2026-04-25T09:21:33.68Z</time></trkpt><trkpt lat="41.6948389" lon="13.5601647"><ele>309.16666666666663</ele><time>2026-04-25T09:21:34.68Z</time></trkpt><trkpt lat="41.6948453" lon="13.5600694"><ele>308.3333333333333</ele><time>2026-04-25T09:21:35.68Z</time></trkpt><trkpt lat="41.6948471" lon="13.5599642"><ele>307.5</ele><time>2026-04-25T09:21:36.68Z</time></trkpt><trkpt lat="41.6948445" lon="13.5598744"><ele>306.6666666666667</ele><time>2026-04-25T09:21:37.68Z</time></trkpt><trkpt lat="41.6948463" lon="13.5597685"><ele>305.83333333333337</ele><time>2026-04-25T09:21:39.68Z</time></trkpt><trkpt lat="41.6948853" lon="13.559682"><ele>305.0</ele><time>2026-04-25T09:21:41.68Z</time></trkpt><trkpt lat="41.6949915" lon="13.5595991"><ele>305.0</ele><time>2026-04-25T09:21:43.68Z</time></trkpt><trkpt lat="41.6950693" lon="13.5595466"><ele>305.0</ele><time>2026-04-25T09:21:44.68Z</time></trkpt><trkpt lat="41.6951482" lon="13.5594965"><ele>305.0</ele><time>2026-04-25T09:21:45.68Z</time></trkpt><trkpt lat="41.695227" lon="13.5594419"><ele>305.0</ele><time>2026-04-25T09:21:46.68Z</time></trkpt><trkpt lat="41.6953004" lon="13.5593935"><ele>305.0</ele><time>2026-04-25T09:21:47.68Z</time></trkpt><trkpt lat="41.6953607" lon="13.5593528"><ele>305.0</ele><time>2026-04-25T09:21:48.68Z</time></trkpt><trkpt lat="41.6954178" lon="13.5593085"><ele>304.0</ele><time>2026-04-25T09:21:49.68Z</time></trkpt><trkpt lat="41.6954779" lon="13.5592727"><ele>303.0</ele><time>2026-04-25T09:21:50.68Z</time></trkpt><trkpt lat="41.6955453" lon="13.5592236"><ele>302.0</ele><time>2026-04-25T09:21:51.681Z</time></trkpt><trkpt lat="41.695635" lon="13.5591642"><ele>301.0</ele><time>2026-04-25T09:21:52.68Z</time></trkpt><trkpt lat="41.6957202" lon="13.5591093"><ele>300.0</ele><time>2026-04-25T09:21:53.68Z</time></trkpt><trkpt lat="41.6957816" lon="13.5590589"><ele>299.0</ele><time>2026-04-25T09:21:54.68Z</time></trkpt><trkpt lat="41.6958534" lon="13.5589877"><ele>299.0</ele><time>2026-04-25T09:21:55.68Z</time></trkpt><trkpt lat="41.6959165" lon="13.5589925"><ele>299.0</ele><time>2026-04-25T09:21:56.68Z</time></trkpt><trkpt lat="41.6960438" lon="13.5590548"><ele>299.0</ele><time>2026-04-25T09:21:58.68Z</time></trkpt><trkpt lat="41.6961084" lon="13.5590922"><ele>299.0</ele><time>2026-04-25T09:21:59.68Z</time></trkpt><trkpt lat="41.6961686" lon="13.5591358"><ele>299.0</ele><time>2026-04-25T09:22:00.68Z</time></trkpt><trkpt lat="41.6962296" lon="13.55918"><ele>299.0</ele><time>2026-04-25T09:22:01.68Z</time></trkpt><trkpt lat="41.6962927" lon="13.55923"><ele>298.8</ele><time>2026-04-25T09:22:02.68Z</time></trkpt><trkpt lat="41.6963565" lon="13.5592834"><ele>298.59999999999997</ele><time>2026-04-25T09:22:03.68Z</time></trkpt><trkpt lat="41.6964138" lon="13.5593318"><ele>298.4</ele><time>2026-04-25T09:22:04.68Z</time></trkpt><trkpt lat="41.6964983" lon="13.5594265"><ele>298.2</ele><time>2026-04-25T09:22:06.68Z</time></trkpt><trkpt lat="41.696576" lon="13.5595202"><ele>298.0</ele><time>2026-04-25T09:22:08.68Z</time></trkpt><trkpt lat="41.6966863" lon="13.5595597"><ele>297.66666666666663</ele><time>2026-04-25T09:22:10.68Z</time></trkpt><trkpt lat="41.6967539" lon="13.5595737"><ele>297.3333333333333</ele><time>2026-04-25T09:22:11.68Z</time></trkpt><trkpt lat="41.6968357" lon="13.5595939"><ele>297.0</ele><time>2026-04-25T09:22:12.68Z</time></trkpt><trkpt lat="41.6969173" lon="13.5596108"><ele>296.6666666666667</ele><time>2026-04-25T09:22:13.68Z</time></trkpt><trkpt lat="41.6969997" lon="13.5596272"><ele>296.33333333333337</ele><time>2026-04-25T09:22:14.68Z</time></trkpt><trkpt lat="41.6970689" lon="13.5596559"><ele>296.0</ele><time>2026-04-25T09:22:15.68Z</time></trkpt><trkpt lat="41.6971321" lon="13.5596928"><ele>296.0</ele><time>2026-04-25T09:22:16.68Z</time></trkpt><trkpt lat="41.697196" lon="13.5597417"><ele>296.0</ele><time>2026-04-25T09:22:17.68Z</time></trkpt><trkpt lat="41.6972676" lon="13.5597995"><ele>296.0</ele><time>2026-04-25T09:22:18.68Z</time></trkpt><trkpt lat="41.6973436" lon="13.5598669"><ele>296.0</ele><time>2026-04-25T09:22:19.68Z</time></trkpt><trkpt lat="41.6974226" lon="13.5599401"><ele>296.0</ele><time>2026-04-25T09:22:20.68Z</time></trkpt><trkpt lat="41.6975049" lon="13.5600153"><ele>296.0</ele><time>2026-04-25T09:22:21.68Z</time></trkpt><trkpt lat="41.6975913" lon="13.5600979"><ele>296.0</ele><time>2026-04-25T09:22:22.68Z</time></trkpt><trkpt lat="41.6976792" lon="13.5601764"><ele>296.0</ele><time>2026-04-25T09:22:23.68Z</time></trkpt><trkpt lat="41.6977697" lon="13.5602556"><ele>296.0</ele><time>2026-04-25T09:22:24.68Z</time></trkpt><trkpt lat="41.6978613" lon="13.5603309"><ele>296.0</ele><time>2026-04-25T09:22:25.68Z</time></trkpt><trkpt lat="41.6979654" lon="13.5604113"><ele>296.0</ele><time>2026-04-25T09:22:26.68Z</time></trkpt><trkpt lat="41.6980735" lon="13.5605014"><ele>296.0</ele><time>2026-04-25T09:22:27.68Z</time></trkpt><trkpt lat="41.6981802" lon="13.5605877"><ele>296.0</ele><time>2026-04-25T09:22:28.68Z</time></trkpt><trkpt lat="41.6982791" lon="13.5606634"><ele>296.0</ele><time>2026-04-25T09:22:29.68Z</time></trkpt><trkpt lat="41.6983818" lon="13.5607488"><ele>296.0</ele><time>2026-04-25T09:22:30.68Z</time></trkpt><trkpt lat="41.6984843" lon="13.5608369"><ele>296.0</ele><time>2026-04-25T09:22:31.68Z</time></trkpt><trkpt lat="41.6985854" lon="13.5609173"><ele>296.0</ele><time>2026-04-25T09:22:32.68Z</time></trkpt><trkpt lat="41.6986881" lon="13.5610023"><ele>296.0</ele><time>2026-04-25T09:22:33.68Z</time></trkpt><trkpt lat="41.6987913" lon="13.5610767"><ele>296.0</ele><time>2026-04-25T09:22:34.68Z</time></trkpt><trkpt lat="41.698902" lon="13.5611534"><ele>294.5</ele><time>2026-04-25T09:22:35.68Z</time></trkpt><trkpt lat="41.6990274" lon="13.5612202"><ele>293.0</ele><time>2026-04-25T09:22:36.68Z</time></trkpt><trkpt lat="41.6991549" lon="13.5612776"><ele>291.5</ele><time>2026-04-25T09:22:37.68Z</time></trkpt><trkpt lat="41.6992885" lon="13.5613241"><ele>290.0</ele><time>2026-04-25T09:22:38.68Z</time></trkpt><trkpt lat="41.6994318" lon="13.5613548"><ele>289.6666666666667</ele><time>2026-04-25T09:22:39.68Z</time></trkpt><trkpt lat="41.6995844" lon="13.5613806"><ele>289.3333333333333</ele><time>2026-04-25T09:22:40.68Z</time></trkpt><trkpt lat="41.6997407" lon="13.5613879"><ele>289.0</ele><time>2026-04-25T09:22:41.68Z</time></trkpt><trkpt lat="41.6999082" lon="13.561398"><ele>289.0</ele><time>2026-04-25T09:22:42.68Z</time></trkpt><trkpt lat="41.7000753" lon="13.5614084"><ele>289.0</ele><time>2026-04-25T09:22:43.68Z</time></trkpt><trkpt lat="41.7002507" lon="13.5614188"><ele>289.0</ele><time>2026-04-25T09:22:44.68Z</time></trkpt><trkpt lat="41.7004194" lon="13.5614313"><ele>288.3333333333333</ele><time>2026-04-25T09:22:45.68Z</time></trkpt><trkpt lat="41.7005846" lon="13.5614514"><ele>287.6666666666667</ele><time>2026-04-25T09:22:46.68Z</time></trkpt><trkpt lat="41.7007445" lon="13.5614763"><ele>287.0</ele><time>2026-04-25T09:22:47.68Z</time></trkpt><trkpt lat="41.7008939" lon="13.5614958"><ele>287.0</ele><time>2026-04-25T09:22:48.68Z</time></trkpt><trkpt lat="41.7010264" lon="13.5615114"><ele>287.0</ele><time>2026-04-25T09:22:49.68Z</time></trkpt><trkpt lat="41.701144" lon="13.5615237"><ele>287.0</ele><time>2026-04-25T09:22:50.68Z</time></trkpt><trkpt lat="41.7012524" lon="13.5615387"><ele>287.0</ele><time>2026-04-25T09:22:51.68Z</time></trkpt><trkpt lat="41.7013432" lon="13.5615492"><ele>286.14285714285717</ele><time>2026-04-25T09:22:52.68Z</time></trkpt><trkpt lat="41.7014227" lon="13.5615659"><ele>285.2857142857143</ele><time>2026-04-25T09:22:53.68Z</time></trkpt><trkpt lat="41.7014951" lon="13.5615817"><ele>284.42857142857144</ele><time>2026-04-25T09:22:54.68Z</time></trkpt><trkpt lat="41.7015582" lon="13.5615857"><ele>283.57142857142856</ele><time>2026-04-25T09:22:55.68Z</time></trkpt><trkpt lat="41.7016248" lon="13.5616019"><ele>282.7142857142857</ele><time>2026-04-25T09:22:56.68Z</time></trkpt><trkpt lat="41.7016901" lon="13.5616121"><ele>281.8571428571429</ele><time>2026-04-25T09:22:57.68Z</time></trkpt><trkpt lat="41.7017697" lon="13.5616204"><ele>281.0</ele><time>2026-04-25T09:22:58.68Z</time></trkpt><trkpt lat="41.7018759" lon="13.5616238"><ele>280.6666666666667</ele><time>2026-04-25T09:22:59.68Z</time></trkpt><trkpt lat="41.701943" lon="13.5616264"><ele>280.33333333333337</ele><time>2026-04-25T09:23:00.68Z</time></trkpt><trkpt lat="41.7020561" lon="13.5616496"><ele>280.0</ele><time>2026-04-25T09:23:02.68Z</time></trkpt><trkpt lat="41.7021263" lon="13.5616651"><ele>279.6666666666667</ele><time>2026-04-25T09:23:03.68Z</time></trkpt><trkpt lat="41.7022044" lon="13.561694"><ele>279.3333333333333</ele><time>2026-04-25T09:23:04.68Z</time></trkpt><trkpt lat="41.7022805" lon="13.5617224"><ele>279.0</ele><time>2026-04-25T09:23:05.68Z</time></trkpt><trkpt lat="41.7023664" lon="13.5617526"><ele>279.0</ele><time>2026-04-25T09:23:06.68Z</time></trkpt><trkpt lat="41.7024593" lon="13.5617888"><ele>279.0</ele><time>2026-04-25T09:23:07.68Z</time></trkpt><trkpt lat="41.7025543" lon="13.5618319"><ele>279.0</ele><time>2026-04-25T09:23:08.68Z</time></trkpt><trkpt lat="41.7026421" lon="13.5618881"><ele>279.0</ele><time>2026-04-25T09:23:09.68Z</time></trkpt><trkpt lat="41.7027334" lon="13.5619556"><ele>279.0</ele><time>2026-04-25T09:23:10.68Z</time></trkpt><trkpt lat="41.7028325" lon="13.5620423"><ele>278.6666666666667</ele><time>2026-04-25T09:23:11.68Z</time></trkpt><trkpt lat="41.7029481" lon="13.5621498"><ele>278.33333333333337</ele><time>2026-04-25T09:23:12.68Z</time></trkpt><trkpt lat="41.7030665" lon="13.5622879"><ele>278.0</ele><time>2026-04-25T09:23:13.68Z</time></trkpt><trkpt lat="41.7032449" lon="13.5624999"><ele>278.0</ele><time>2026-04-25T09:23:14.68Z</time></trkpt><trkpt lat="41.7033579" lon="13.5626569"><ele>278.0</ele><time>2026-04-25T09:23:15.68Z</time></trkpt><trkpt lat="41.7034773" lon="13.5628092"><ele>278.0</ele><time>2026-04-25T09:23:16.68Z</time></trkpt><trkpt lat="41.7036018" lon="13.5629584"><ele>278.33333333333337</ele><time>2026-04-25T09:23:17.68Z</time></trkpt><trkpt lat="41.7037246" lon="13.5630884"><ele>278.6666666666667</ele><time>2026-04-25T09:23:18.68Z</time></trkpt><trkpt lat="41.7038433" lon="13.5632084"><ele>279.0</ele><time>2026-04-25T09:23:19.68Z</time></trkpt><trkpt lat="41.7039649" lon="13.5633167"><ele>279.0</ele><time>2026-04-25T09:23:20.68Z</time></trkpt><trkpt lat="41.7040804" lon="13.5634101"><ele>279.0</ele><time>2026-04-25T09:23:21.68Z</time></trkpt><trkpt lat="41.7041986" lon="13.5634976"><ele>279.0</ele><time>2026-04-25T09:23:22.68Z</time></trkpt><trkpt lat="41.7043029" lon="13.5635779"><ele>279.0</ele><time>2026-04-25T09:23:23.68Z</time></trkpt><trkpt lat="41.7044039" lon="13.5636522"><ele>279.0</ele><time>2026-04-25T09:23:24.681Z</time></trkpt><trkpt lat="41.7044991" lon="13.5637185"><ele>279.0</ele><time>2026-04-25T09:23:25.68Z</time></trkpt><trkpt lat="41.7045975" lon="13.5637865"><ele>279.0</ele><time>2026-04-25T09:23:26.68Z</time></trkpt><trkpt lat="41.7046992" lon="13.5638574"><ele>279.0</ele><time>2026-04-25T09:23:27.68Z</time></trkpt><trkpt lat="41.7047964" lon="13.5639269"><ele>279.0</ele><time>2026-04-25T09:23:28.68Z</time></trkpt><trkpt lat="41.7048955" lon="13.5640016"><ele>279.0</ele><time>2026-04-25T09:23:29.68Z</time></trkpt><trkpt lat="41.7049917" lon="13.5640726"><ele>279.0</ele><time>2026-04-25T09:23:30.68Z</time></trkpt><trkpt lat="41.7050791" lon="13.5641363"><ele>279.0</ele><time>2026-04-25T09:23:31.68Z</time></trkpt><trkpt lat="41.7051644" lon="13.5642"><ele>279.0</ele><time>2026-04-25T09:23:32.68Z</time></trkpt><trkpt lat="41.7052494" lon="13.5642627"><ele>279.0</ele><time>2026-04-25T09:23:33.68Z</time></trkpt><trkpt lat="41.7053362" lon="13.5643273"><ele>278.8</ele><time>2026-04-25T09:23:34.68Z</time></trkpt><trkpt lat="41.7054242" lon="13.5643927"><ele>278.59999999999997</ele><time>2026-04-25T09:23:35.68Z</time></trkpt><trkpt lat="41.7055156" lon="13.5644608"><ele>278.4</ele><time>2026-04-25T09:23:36.68Z</time></trkpt><trkpt lat="41.7056158" lon="13.5645359"><ele>278.2</ele><time>2026-04-25T09:23:37.68Z</time></trkpt><trkpt lat="41.705724" lon="13.5646185"><ele>278.0</ele><time>2026-04-25T09:23:38.68Z</time></trkpt><trkpt lat="41.7058355" lon="13.5647032"><ele>278.0</ele><time>2026-04-25T09:23:39.68Z</time></trkpt><trkpt lat="41.7059503" lon="13.5647903"><ele>278.0</ele><time>2026-04-25T09:23:40.68Z</time></trkpt><trkpt lat="41.7060606" lon="13.564886"><ele>278.0</ele><time>2026-04-25T09:23:41.68Z</time></trkpt><trkpt lat="41.7061762" lon="13.564985"><ele>278.0</ele><time>2026-04-25T09:23:42.68Z</time></trkpt><trkpt lat="41.7062787" lon="13.5650828"><ele>278.0</ele><time>2026-04-25T09:23:43.68Z</time></trkpt><trkpt lat="41.7063803" lon="13.5651786"><ele>278.0</ele><time>2026-04-25T09:23:44.68Z</time></trkpt><trkpt lat="41.7064804" lon="13.5652785"><ele>278.0</ele><time>2026-04-25T09:23:45.68Z</time></trkpt><trkpt lat="41.7065806" lon="13.5653749"><ele>278.0</ele><time>2026-04-25T09:23:46.68Z</time></trkpt><trkpt lat="41.7066899" lon="13.5654826"><ele>278.0</ele><time>2026-04-25T09:23:47.68Z</time></trkpt><trkpt lat="41.7067961" lon="13.5655879"><ele>278.0</ele><time>2026-04-25T09:23:48.68Z</time></trkpt><trkpt lat="41.7069005" lon="13.565696"><ele>278.0</ele><time>2026-04-25T09:23:49.68Z</time></trkpt><trkpt lat="41.7070099" lon="13.5658063"><ele>278.0</ele><time>2026-04-25T09:23:50.68Z</time></trkpt><trkpt lat="41.7071166" lon="13.5659203"><ele>278.25</ele><time>2026-04-25T09:23:51.68Z</time></trkpt><trkpt lat="41.7072272" lon="13.5660356"><ele>278.5</ele><time>2026-04-25T09:23:52.68Z</time></trkpt><trkpt lat="41.7073325" lon="13.5661475"><ele>278.75</ele><time>2026-04-25T09:23:53.68Z</time></trkpt><trkpt lat="41.7074358" lon="13.5662576"><ele>279.0</ele><time>2026-04-25T09:23:54.68Z</time></trkpt><trkpt lat="41.7075375" lon="13.5663693"><ele>279.0</ele><time>2026-04-25T09:23:55.68Z</time></trkpt><trkpt lat="41.7076342" lon="13.5664695"><ele>279.0</ele><time>2026-04-25T09:23:56.68Z</time></trkpt><trkpt lat="41.7077279" lon="13.5665705"><ele>279.0</ele><time>2026-04-25T09:23:57.68Z</time></trkpt><trkpt lat="41.7078294" lon="13.5666764"><ele>279.0</ele><time>2026-04-25T09:23:58.68Z</time></trkpt><trkpt lat="41.7079321" lon="13.5667819"><ele>278.75</ele><time>2026-04-25T09:23:59.68Z</time></trkpt><trkpt lat="41.7080326" lon="13.5668905"><ele>278.5</ele><time>2026-04-25T09:24:00.68Z</time></trkpt><trkpt lat="41.7081343" lon="13.5669975"><ele>278.25</ele><time>2026-04-25T09:24:01.68Z</time></trkpt><trkpt lat="41.7082359" lon="13.5671033"><ele>278.0</ele><time>2026-04-25T09:24:02.68Z</time></trkpt><trkpt lat="41.7083432" lon="13.567211"><ele>278.0</ele><time>2026-04-25T09:24:03.68Z</time></trkpt><trkpt lat="41.7084482" lon="13.56732"><ele>278.0</ele><time>2026-04-25T09:24:04.68Z</time></trkpt><trkpt lat="41.7085504" lon="13.5674309"><ele>278.0</ele><time>2026-04-25T09:24:05.68Z</time></trkpt><trkpt lat="41.7086539" lon="13.5675402"><ele>278.0</ele><time>2026-04-25T09:24:06.68Z</time></trkpt><trkpt lat="41.7087552" lon="13.5676464"><ele>278.0</ele><time>2026-04-25T09:24:07.68Z</time></trkpt><trkpt lat="41.7088647" lon="13.5677568"><ele>278.0</ele><time>2026-04-25T09:24:08.68Z</time></trkpt><trkpt lat="41.7089727" lon="13.5678707"><ele>278.0</ele><time>2026-04-25T09:24:09.68Z</time></trkpt><trkpt lat="41.7090733" lon="13.5679782"><ele>278.0</ele><time>2026-04-25T09:24:10.68Z</time></trkpt><trkpt lat="41.7091714" lon="13.5680794"><ele>278.0</ele><time>2026-04-25T09:24:11.68Z</time></trkpt><trkpt lat="41.7092719" lon="13.5681785"><ele>278.0</ele><time>2026-04-25T09:24:12.68Z</time></trkpt><trkpt lat="41.7093681" lon="13.5682721"><ele>278.0</ele><time>2026-04-25T09:24:13.68Z</time></trkpt><trkpt lat="41.7094653" lon="13.5683717"><ele>278.0</ele><time>2026-04-25T09:24:14.68Z</time></trkpt><trkpt lat="41.7095542" lon="13.5684662"><ele>278.0</ele><time>2026-04-25T09:24:15.681Z</time></trkpt><trkpt lat="41.7096411" lon="13.5685507"><ele>278.0</ele><time>2026-04-25T09:24:16.68Z</time></trkpt><trkpt lat="41.7097188" lon="13.5686276"><ele>278.0</ele><time>2026-04-25T09:24:17.68Z</time></trkpt><trkpt lat="41.7097854" lon="13.5686973"><ele>278.0</ele><time>2026-04-25T09:24:18.68Z</time></trkpt><trkpt lat="41.7098569" lon="13.568773"><ele>278.0</ele><time>2026-04-25T09:24:19.68Z</time></trkpt><trkpt lat="41.7099335" lon="13.5688527"><ele>277.83333333333337</ele><time>2026-04-25T09:24:20.68Z</time></trkpt><trkpt lat="41.7100055" lon="13.5689268"><ele>277.6666666666667</ele><time>2026-04-25T09:24:21.68Z</time></trkpt><trkpt lat="41.7100699" lon="13.568997"><ele>277.5</ele><time>2026-04-25T09:24:22.68Z</time></trkpt><trkpt lat="41.7101303" lon="13.5690548"><ele>277.3333333333333</ele><time>2026-04-25T09:24:23.68Z</time></trkpt><trkpt lat="41.7101844" lon="13.5691067"><ele>277.16666666666663</ele><time>2026-04-25T09:24:24.68Z</time></trkpt><trkpt lat="41.7102358" lon="13.5691593"><ele>277.0</ele><time>2026-04-25T09:24:25.68Z</time></trkpt><trkpt lat="41.7103095" lon="13.5692346"><ele>277.0</ele><time>2026-04-25T09:24:27.68Z</time></trkpt><trkpt lat="41.710369" lon="13.5692973"><ele>277.0</ele><time>2026-04-25T09:24:29.68Z</time></trkpt><trkpt lat="41.7104485" lon="13.569361"><ele>277.0</ele><time>2026-04-25T09:24:31.68Z</time></trkpt><trkpt lat="41.7105689" lon="13.569433"><ele>277.0</ele><time>2026-04-25T09:24:33.68Z</time></trkpt><trkpt lat="41.7106465" lon="13.569462"><ele>277.0</ele><time>2026-04-25T09:24:34.681Z</time></trkpt><trkpt lat="41.7107341" lon="13.5694864"><ele>277.0</ele><time>2026-04-25T09:24:35.68Z</time></trkpt><trkpt lat="41.7108364" lon="13.5695128"><ele>277.0</ele><time>2026-04-25T09:24:36.681Z</time></trkpt><trkpt lat="41.7109365" lon="13.5695306"><ele>277.0</ele><time>2026-04-25T09:24:37.68Z</time></trkpt><trkpt lat="41.7110121" lon="13.5695692"><ele>277.0</ele><time>2026-04-25T09:24:38.68Z</time></trkpt><trkpt lat="41.7110987" lon="13.5695938"><ele>277.0</ele><time>2026-04-25T09:24:39.68Z</time></trkpt><trkpt lat="41.7111783" lon="13.5696188"><ele>276.5</ele><time>2026-04-25T09:24:40.68Z</time></trkpt><trkpt lat="41.7112507" lon="13.5696349"><ele>276.0</ele><time>2026-04-25T09:24:41.68Z</time></trkpt><trkpt lat="41.7113252" lon="13.5696485"><ele>275.5</ele><time>2026-04-25T09:24:42.68Z</time></trkpt><trkpt lat="41.7114004" lon="13.5696635"><ele>275.0</ele><time>2026-04-25T09:24:43.68Z</time></trkpt><trkpt lat="41.7114787" lon="13.5696811"><ele>274.5</ele><time>2026-04-25T09:24:44.68Z</time></trkpt><trkpt lat="41.7115576" lon="13.5697007"><ele>274.0</ele><time>2026-04-25T09:24:45.679Z</time></trkpt><trkpt lat="41.7116447" lon="13.569723"><ele>274.0</ele><time>2026-04-25T09:24:46.679Z</time></trkpt><trkpt lat="41.7117317" lon="13.5697408"><ele>274.0</ele><time>2026-04-25T09:24:47.679Z</time></trkpt><trkpt lat="41.7118435" lon="13.5697691"><ele>274.0</ele><time>2026-04-25T09:24:48.679Z</time></trkpt><trkpt lat="41.7119726" lon="13.5698058"><ele>274.0</ele><time>2026-04-25T09:24:49.679Z</time></trkpt><trkpt lat="41.7121032" lon="13.5698608"><ele>274.0</ele><time>2026-04-25T09:24:50.679Z</time></trkpt><trkpt lat="41.712238" lon="13.5699296"><ele>274.0</ele><time>2026-04-25T09:24:51.679Z</time></trkpt><trkpt lat="41.7123762" lon="13.5700061"><ele>274.0</ele><time>2026-04-25T09:24:52.679Z</time></trkpt><trkpt lat="41.7125142" lon="13.57008"><ele>274.0</ele><time>2026-04-25T09:24:53.68Z</time></trkpt><trkpt lat="41.7126483" lon="13.570153"><ele>274.0</ele><time>2026-04-25T09:24:54.679Z</time></trkpt><trkpt lat="41.7127765" lon="13.5702269"><ele>274.0</ele><time>2026-04-25T09:24:55.679Z</time></trkpt><trkpt lat="41.7129029" lon="13.5703039"><ele>274.0</ele><time>2026-04-25T09:24:56.679Z</time></trkpt><trkpt lat="41.7130275" lon="13.5703837"><ele>274.0</ele><time>2026-04-25T09:24:57.679Z</time></trkpt><trkpt lat="41.7131515" lon="13.5704669"><ele>274.0</ele><time>2026-04-25T09:24:58.679Z</time></trkpt><trkpt lat="41.7132755" lon="13.5705496"><ele>274.0</ele><time>2026-04-25T09:24:59.679Z</time></trkpt><trkpt lat="41.7134055" lon="13.5706352"><ele>274.0</ele><time>2026-04-25T09:25:00.679Z</time></trkpt><trkpt lat="41.7135354" lon="13.5707274"><ele>274.0</ele><time>2026-04-25T09:25:01.679Z</time></trkpt><trkpt lat="41.7136656" lon="13.5708143"><ele>273.75</ele><time>2026-04-25T09:25:02.679Z</time></trkpt><trkpt lat="41.7137918" lon="13.5708988"><ele>273.5</ele><time>2026-04-25T09:25:03.679Z</time></trkpt><trkpt lat="41.7139134" lon="13.5709846"><ele>273.25</ele><time>2026-04-25T09:25:04.679Z</time></trkpt><trkpt lat="41.7140279" lon="13.571074"><ele>273.0</ele><time>2026-04-25T09:25:05.679Z</time></trkpt><trkpt lat="41.7141353" lon="13.571175"><ele>273.5</ele><time>2026-04-25T09:25:06.68Z</time></trkpt><trkpt lat="41.7142356" lon="13.5712848"><ele>274.0</ele><time>2026-04-25T09:25:07.679Z</time></trkpt><trkpt lat="41.7143297" lon="13.5714113"><ele>274.5</ele><time>2026-04-25T09:25:08.679Z</time></trkpt><trkpt lat="41.7144061" lon="13.5715443"><ele>275.0</ele><time>2026-04-25T09:25:09.679Z</time></trkpt><trkpt lat="41.7144706" lon="13.5716874"><ele>275.0</ele><time>2026-04-25T09:25:10.679Z</time></trkpt><trkpt lat="41.7145256" lon="13.5718301"><ele>275.0</ele><time>2026-04-25T09:25:11.679Z</time></trkpt><trkpt lat="41.7145745" lon="13.5719714"><ele>275.0</ele><time>2026-04-25T09:25:12.679Z</time></trkpt><trkpt lat="41.714621" lon="13.5721121"><ele>275.0</ele><time>2026-04-25T09:25:13.679Z</time></trkpt><trkpt lat="41.7146669" lon="13.572256"><ele>275.0</ele><time>2026-04-25T09:25:14.68Z</time></trkpt><trkpt lat="41.7147056" lon="13.5723941"><ele>275.0</ele><time>2026-04-25T09:25:15.679Z</time></trkpt><trkpt lat="41.7147413" lon="13.5725187"><ele>275.0</ele><time>2026-04-25T09:25:16.679Z</time></trkpt><trkpt lat="41.7147779" lon="13.5726433"><ele>275.0</ele><time>2026-04-25T09:25:17.679Z</time></trkpt><trkpt lat="41.7148121" lon="13.5727662"><ele>275.0</ele><time>2026-04-25T09:25:18.68Z</time></trkpt><trkpt lat="41.7148367" lon="13.5728694"><ele>275.0</ele><time>2026-04-25T09:25:19.679Z</time></trkpt><trkpt lat="41.7148594" lon="13.5729664"><ele>275.0</ele><time>2026-04-25T09:25:20.679Z</time></trkpt><trkpt lat="41.7148779" lon="13.5730513"><ele>275.0</ele><time>2026-04-25T09:25:21.679Z</time></trkpt><trkpt lat="41.7149051" lon="13.5731607"><ele>275.0</ele><time>2026-04-25T09:25:22.679Z</time></trkpt><trkpt lat="41.7149319" lon="13.5732461"><ele>275.0</ele><time>2026-04-25T09:25:23.679Z</time></trkpt><trkpt lat="41.7149646" lon="13.5733429"><ele>275.0</ele><time>2026-04-25T09:25:24.679Z</time></trkpt><trkpt lat="41.714994" lon="13.5734534"><ele>275.0</ele><time>2026-04-25T09:25:25.679Z</time></trkpt><trkpt lat="41.7150267" lon="13.5735737"><ele>275.0</ele><time>2026-04-25T09:25:26.679Z</time></trkpt><trkpt lat="41.7150614" lon="13.5737009"><ele>275.0</ele><time>2026-04-25T09:25:27.679Z</time></trkpt><trkpt lat="41.7150995" lon="13.5738314"><ele>275.0</ele><time>2026-04-25T09:25:28.679Z</time></trkpt><trkpt lat="41.7151416" lon="13.5739714"><ele>275.0</ele><time>2026-04-25T09:25:29.679Z</time></trkpt><trkpt lat="41.7151819" lon="13.5741095"><ele>275.0</ele><time>2026-04-25T09:25:30.679Z</time></trkpt><trkpt lat="41.7152216" lon="13.5742471"><ele>275.0</ele><time>2026-04-25T09:25:31.679Z</time></trkpt><trkpt lat="41.7152585" lon="13.574387"><ele>275.0</ele><time>2026-04-25T09:25:32.679Z</time></trkpt><trkpt lat="41.7152963" lon="13.5745312"><ele>275.0</ele><time>2026-04-25T09:25:33.679Z</time></trkpt><trkpt lat="41.7153288" lon="13.5746673"><ele>275.0</ele><time>2026-04-25T09:25:34.679Z</time></trkpt><trkpt lat="41.7153619" lon="13.5748071"><ele>275.2</ele><time>2026-04-25T09:25:35.679Z</time></trkpt><trkpt lat="41.7153966" lon="13.5749509"><ele>275.4</ele><time>2026-04-25T09:25:36.679Z</time></trkpt><trkpt lat="41.7154326" lon="13.5750933"><ele>275.6</ele><time>2026-04-25T09:25:37.679Z</time></trkpt><trkpt lat="41.7154638" lon="13.5752263"><ele>275.8</ele><time>2026-04-25T09:25:38.679Z</time></trkpt><trkpt lat="41.7154962" lon="13.5753552"><ele>276.0</ele><time>2026-04-25T09:25:39.679Z</time></trkpt><trkpt lat="41.7155313" lon="13.5754866"><ele>276.0</ele><time>2026-04-25T09:25:40.679Z</time></trkpt><trkpt lat="41.7155605" lon="13.5755935"><ele>276.0</ele><time>2026-04-25T09:25:41.679Z</time></trkpt><trkpt lat="41.7155948" lon="13.5757195"><ele>276.0</ele><time>2026-04-25T09:25:42.679Z</time></trkpt><trkpt lat="41.7156213" lon="13.5758333"><ele>276.0</ele><time>2026-04-25T09:25:43.68Z</time></trkpt><trkpt lat="41.7156509" lon="13.5759419"><ele>276.0</ele><time>2026-04-25T09:25:44.679Z</time></trkpt><trkpt lat="41.7156954" lon="13.5760766"><ele>276.0</ele><time>2026-04-25T09:25:45.679Z</time></trkpt><trkpt lat="41.7157397" lon="13.5762141"><ele>276.0</ele><time>2026-04-25T09:25:46.679Z</time></trkpt><trkpt lat="41.7157824" lon="13.5763577"><ele>276.0</ele><time>2026-04-25T09:25:47.679Z</time></trkpt><trkpt lat="41.7158255" lon="13.5765038"><ele>276.0</ele><time>2026-04-25T09:25:48.68Z</time></trkpt><trkpt lat="41.7158642" lon="13.5766508"><ele>276.0</ele><time>2026-04-25T09:25:49.679Z</time></trkpt><trkpt lat="41.7159007" lon="13.576791"><ele>276.0</ele><time>2026-04-25T09:25:50.679Z</time></trkpt><trkpt lat="41.7159415" lon="13.5769262"><ele>276.0</ele><time>2026-04-25T09:25:51.679Z</time></trkpt><trkpt lat="41.7159782" lon="13.5770548"><ele>276.0</ele><time>2026-04-25T09:25:52.679Z</time></trkpt><trkpt lat="41.7160122" lon="13.5771782"><ele>276.0</ele><time>2026-04-25T09:25:53.679Z</time></trkpt><trkpt lat="41.716044" lon="13.5772929"><ele>276.0</ele><time>2026-04-25T09:25:54.679Z</time></trkpt><trkpt lat="41.7160731" lon="13.5774"><ele>276.0</ele><time>2026-04-25T09:25:55.679Z</time></trkpt><trkpt lat="41.7161017" lon="13.5775035"><ele>276.0</ele><time>2026-04-25T09:25:56.679Z</time></trkpt><trkpt lat="41.7161298" lon="13.577602"><ele>276.0</ele><time>2026-04-25T09:25:57.679Z</time></trkpt><trkpt lat="41.7161553" lon="13.5776976"><ele>276.0</ele><time>2026-04-25T09:25:58.679Z</time></trkpt><trkpt lat="41.7161803" lon="13.5777833"><ele>276.0</ele><time>2026-04-25T09:25:59.68Z</time></trkpt><trkpt lat="41.7162106" lon="13.5778777"><ele>276.0</ele><time>2026-04-25T09:26:00.679Z</time></trkpt><trkpt lat="41.7162457" lon="13.5779827"><ele>276.0</ele><time>2026-04-25T09:26:01.679Z</time></trkpt><trkpt lat="41.7162811" lon="13.5780994"><ele>276.0</ele><time>2026-04-25T09:26:02.679Z</time></trkpt><trkpt lat="41.7163191" lon="13.5782241"><ele>276.0</ele><time>2026-04-25T09:26:03.679Z</time></trkpt><trkpt lat="41.7163557" lon="13.5783515"><ele>276.0</ele><time>2026-04-25T09:26:04.679Z</time></trkpt><trkpt lat="41.7163904" lon="13.5784779"><ele>276.0</ele><time>2026-04-25T09:26:05.68Z</time></trkpt><trkpt lat="41.7164306" lon="13.5786077"><ele>276.0</ele><time>2026-04-25T09:26:06.679Z</time></trkpt><trkpt lat="41.7164711" lon="13.5787416"><ele>276.0</ele><time>2026-04-25T09:26:07.679Z</time></trkpt><trkpt lat="41.7165136" lon="13.57889"><ele>276.0</ele><time>2026-04-25T09:26:08.679Z</time></trkpt><trkpt lat="41.7165529" lon="13.5790279"><ele>276.0</ele><time>2026-04-25T09:26:09.679Z</time></trkpt><trkpt lat="41.7165924" lon="13.5791683"><ele>276.0</ele><time>2026-04-25T09:26:10.68Z</time></trkpt><trkpt lat="41.7166314" lon="13.5793043"><ele>276.0</ele><time>2026-04-25T09:26:11.679Z</time></trkpt><trkpt lat="41.7166701" lon="13.5794401"><ele>276.0</ele><time>2026-04-25T09:26:12.679Z</time></trkpt><trkpt lat="41.7167098" lon="13.5795694"><ele>276.0</ele><time>2026-04-25T09:26:13.68Z</time></trkpt><trkpt lat="41.7167463" lon="13.579702"><ele>276.0</ele><time>2026-04-25T09:26:14.679Z</time></trkpt><trkpt lat="41.7167851" lon="13.5798302"><ele>276.0</ele><time>2026-04-25T09:26:15.679Z</time></trkpt><trkpt lat="41.7168203" lon="13.5799514"><ele>276.0</ele><time>2026-04-25T09:26:16.679Z</time></trkpt><trkpt lat="41.716855" lon="13.5800731"><ele>276.0</ele><time>2026-04-25T09:26:17.679Z</time></trkpt><trkpt lat="41.7168833" lon="13.580192"><ele>276.0</ele><time>2026-04-25T09:26:18.679Z</time></trkpt><trkpt lat="41.7169105" lon="13.5802908"><ele>276.0</ele><time>2026-04-25T09:26:19.679Z</time></trkpt><trkpt lat="41.7169354" lon="13.5803804"><ele>276.0</ele><time>2026-04-25T09:26:20.679Z</time></trkpt><trkpt lat="41.7169671" lon="13.5804871"><ele>276.0</ele><time>2026-04-25T09:26:21.679Z</time></trkpt><trkpt lat="41.7170017" lon="13.5806032"><ele>276.0</ele><time>2026-04-25T09:26:22.679Z</time></trkpt><trkpt lat="41.7170562" lon="13.5807815"><ele>276.0</ele><time>2026-04-25T09:26:23.679Z</time></trkpt><trkpt lat="41.7171086" lon="13.5809594"><ele>276.0</ele><time>2026-04-25T09:26:24.679Z</time></trkpt><trkpt lat="41.7171596" lon="13.5811489"><ele>276.25</ele><time>2026-04-25T09:26:25.679Z</time></trkpt><trkpt lat="41.7172077" lon="13.5813333"><ele>276.5</ele><time>2026-04-25T09:26:26.679Z</time></trkpt><trkpt lat="41.7172446" lon="13.5815006"><ele>276.75</ele><time>2026-04-25T09:26:27.679Z</time></trkpt><trkpt lat="41.7172862" lon="13.5816683"><ele>277.0</ele><time>2026-04-25T09:26:28.679Z</time></trkpt><trkpt lat="41.7173383" lon="13.5818488"><ele>276.3333333333333</ele><time>2026-04-25T09:26:29.679Z</time></trkpt><trkpt lat="41.7173861" lon="13.5820432"><ele>275.6666666666667</ele><time>2026-04-25T09:26:30.679Z</time></trkpt><trkpt lat="41.7174255" lon="13.5822363"><ele>275.0</ele><time>2026-04-25T09:26:31.679Z</time></trkpt><trkpt lat="41.7174668" lon="13.5824324"><ele>275.0</ele><time>2026-04-25T09:26:32.679Z</time></trkpt><trkpt lat="41.7175101" lon="13.5826339"><ele>275.0</ele><time>2026-04-25T09:26:33.68Z</time></trkpt><trkpt lat="41.717558" lon="13.5828339"><ele>275.0</ele><time>2026-04-25T09:26:34.679Z</time></trkpt><trkpt lat="41.7176023" lon="13.583025"><ele>275.0</ele><time>2026-04-25T09:26:35.679Z</time></trkpt><trkpt lat="41.7176518" lon="13.5832224"><ele>275.0</ele><time>2026-04-25T09:26:36.679Z</time></trkpt><trkpt lat="41.7177133" lon="13.583421"><ele>275.0</ele><time>2026-04-25T09:26:37.679Z</time></trkpt><trkpt lat="41.7177805" lon="13.5836169"><ele>276.33333333333337</ele><time>2026-04-25T09:26:38.679Z</time></trkpt><trkpt lat="41.7178532" lon="13.5838193"><ele>277.6666666666667</ele><time>2026-04-25T09:26:39.679Z</time></trkpt><trkpt lat="41.7179246" lon="13.5840035"><ele>279.0</ele><time>2026-04-25T09:26:40.679Z</time></trkpt><trkpt lat="41.7180032" lon="13.5841952"><ele>279.0</ele><time>2026-04-25T09:26:41.679Z</time></trkpt><trkpt lat="41.7180828" lon="13.5843993"><ele>279.0</ele><time>2026-04-25T09:26:42.679Z</time></trkpt><trkpt lat="41.7181673" lon="13.5846116"><ele>279.0</ele><time>2026-04-25T09:26:43.679Z</time></trkpt><trkpt lat="41.7182482" lon="13.5848257"><ele>278.6666666666667</ele><time>2026-04-25T09:26:44.679Z</time></trkpt><trkpt lat="41.7183337" lon="13.5850411"><ele>278.33333333333337</ele><time>2026-04-25T09:26:45.679Z</time></trkpt><trkpt lat="41.718412" lon="13.5852442"><ele>278.0</ele><time>2026-04-25T09:26:46.679Z</time></trkpt><trkpt lat="41.7184902" lon="13.5854412"><ele>277.6666666666667</ele><time>2026-04-25T09:26:47.679Z</time></trkpt><trkpt lat="41.7185755" lon="13.5856436"><ele>277.3333333333333</ele><time>2026-04-25T09:26:48.679Z</time></trkpt><trkpt lat="41.718668" lon="13.5858615"><ele>277.0</ele><time>2026-04-25T09:26:49.679Z</time></trkpt><trkpt lat="41.7187695" lon="13.5860796"><ele>277.3333333333333</ele><time>2026-04-25T09:26:50.679Z</time></trkpt><trkpt lat="41.7188715" lon="13.5863132"><ele>277.6666666666667</ele><time>2026-04-25T09:26:51.679Z</time></trkpt><trkpt lat="41.7189606" lon="13.5865399"><ele>278.0</ele><time>2026-04-25T09:26:52.679Z</time></trkpt><trkpt lat="41.7190493" lon="13.5867558"><ele>278.0</ele><time>2026-04-25T09:26:53.679Z</time></trkpt><trkpt lat="41.719137" lon="13.5869593"><ele>278.0</ele><time>2026-04-25T09:26:54.679Z</time></trkpt><trkpt lat="41.7192139" lon="13.5871572"><ele>278.0</ele><time>2026-04-25T09:26:55.679Z</time></trkpt><trkpt lat="41.7192824" lon="13.5873434"><ele>278.0</ele><time>2026-04-25T09:26:56.679Z</time></trkpt><trkpt lat="41.7193464" lon="13.587514"><ele>278.0</ele><time>2026-04-25T09:26:57.679Z</time></trkpt><trkpt lat="41.7194007" lon="13.5876772"><ele>278.0</ele><time>2026-04-25T09:26:58.679Z</time></trkpt><trkpt lat="41.7194481" lon="13.5878306"><ele>278.0</ele><time>2026-04-25T09:26:59.68Z</time></trkpt><trkpt lat="41.7194886" lon="13.5879767"><ele>277.8</ele><time>2026-04-25T09:27:00.679Z</time></trkpt><trkpt lat="41.7195201" lon="13.5881138"><ele>277.6</ele><time>2026-04-25T09:27:01.679Z</time></trkpt><trkpt lat="41.7195536" lon="13.5882491"><ele>277.4</ele><time>2026-04-25T09:27:02.679Z</time></trkpt><trkpt lat="41.7195848" lon="13.5883838"><ele>277.2</ele><time>2026-04-25T09:27:03.679Z</time></trkpt><trkpt lat="41.7196124" lon="13.5885106"><ele>277.0</ele><time>2026-04-25T09:27:04.679Z</time></trkpt><trkpt lat="41.7196372" lon="13.5886276"><ele>277.25</ele><time>2026-04-25T09:27:05.679Z</time></trkpt><trkpt lat="41.7196725" lon="13.5887964"><ele>277.5</ele><time>2026-04-25T09:27:06.679Z</time></trkpt><trkpt lat="41.7197142" lon="13.5889795"><ele>277.75</ele><time>2026-04-25T09:27:07.679Z</time></trkpt><trkpt lat="41.719751" lon="13.5891604"><ele>278.0</ele><time>2026-04-25T09:27:08.679Z</time></trkpt><trkpt lat="41.7197954" lon="13.5893515"><ele>278.0</ele><time>2026-04-25T09:27:09.679Z</time></trkpt><trkpt lat="41.71984" lon="13.5895569"><ele>278.0</ele><time>2026-04-25T09:27:10.679Z</time></trkpt><trkpt lat="41.7198886" lon="13.5897654"><ele>278.0</ele><time>2026-04-25T09:27:11.679Z</time></trkpt><trkpt lat="41.7199362" lon="13.5899784"><ele>278.0</ele><time>2026-04-25T09:27:12.679Z</time></trkpt><trkpt lat="41.719977" lon="13.5901957"><ele>278.0</ele><time>2026-04-25T09:27:13.679Z</time></trkpt><trkpt lat="41.7200256" lon="13.5904108"><ele>278.0</ele><time>2026-04-25T09:27:14.679Z</time></trkpt><trkpt lat="41.7200729" lon="13.5906109"><ele>278.0</ele><time>2026-04-25T09:27:15.679Z</time></trkpt><trkpt lat="41.7201296" lon="13.5908216"><ele>278.0</ele><time>2026-04-25T09:27:16.679Z</time></trkpt><trkpt lat="41.7201915" lon="13.5910372"><ele>278.0</ele><time>2026-04-25T09:27:17.68Z</time></trkpt><trkpt lat="41.7202568" lon="13.5912572"><ele>278.0</ele><time>2026-04-25T09:27:18.679Z</time></trkpt><trkpt lat="41.7203393" lon="13.5914879"><ele>278.0</ele><time>2026-04-25T09:27:19.679Z</time></trkpt><trkpt lat="41.7204288" lon="13.5917364"><ele>278.0</ele><time>2026-04-25T09:27:20.679Z</time></trkpt><trkpt lat="41.720522" lon="13.5919932"><ele>278.0</ele><time>2026-04-25T09:27:21.679Z</time></trkpt><trkpt lat="41.7206012" lon="13.5922506"><ele>278.0</ele><time>2026-04-25T09:27:22.679Z</time></trkpt><trkpt lat="41.7206726" lon="13.5924964"><ele>278.0</ele><time>2026-04-25T09:27:23.679Z</time></trkpt><trkpt lat="41.7207367" lon="13.5927211"><ele>278.0</ele><time>2026-04-25T09:27:24.679Z</time></trkpt><trkpt lat="41.7207976" lon="13.5929472"><ele>278.0</ele><time>2026-04-25T09:27:25.679Z</time></trkpt><trkpt lat="41.7208496" lon="13.593149"><ele>278.0</ele><time>2026-04-25T09:27:26.679Z</time></trkpt><trkpt lat="41.7208958" lon="13.593321"><ele>278.0</ele><time>2026-04-25T09:27:27.68Z</time></trkpt><trkpt lat="41.7209257" lon="13.5934428"><ele>278.0</ele><time>2026-04-25T09:27:28.679Z</time></trkpt><trkpt lat="41.7209526" lon="13.5935589"><ele>278.0</ele><time>2026-04-25T09:27:29.679Z</time></trkpt><trkpt lat="41.7209919" lon="13.5936956"><ele>278.0</ele><time>2026-04-25T09:27:31.679Z</time></trkpt><trkpt lat="41.7210364" lon="13.5938514"><ele>278.0</ele><time>2026-04-25T09:27:33.679Z</time></trkpt><trkpt lat="41.7210567" lon="13.5939426"><ele>278.1666666666667</ele><time>2026-04-25T09:27:34.679Z</time></trkpt><trkpt lat="41.7210757" lon="13.5940343"><ele>278.33333333333337</ele><time>2026-04-25T09:27:35.679Z</time></trkpt><trkpt lat="41.7210998" lon="13.594127"><ele>278.5</ele><time>2026-04-25T09:27:36.679Z</time></trkpt><trkpt lat="41.7211271" lon="13.5942209"><ele>278.6666666666667</ele><time>2026-04-25T09:27:37.679Z</time></trkpt><trkpt lat="41.7211508" lon="13.5943185"><ele>278.8333333333333</ele><time>2026-04-25T09:27:38.679Z</time></trkpt><trkpt lat="41.7211763" lon="13.5943985"><ele>279.0</ele><time>2026-04-25T09:27:39.679Z</time></trkpt><trkpt lat="41.7212054" lon="13.5945314"><ele>279.4</ele><time>2026-04-25T09:27:41.679Z</time></trkpt><trkpt lat="41.7212402" lon="13.5946861"><ele>279.79999999999995</ele><time>2026-04-25T09:27:43.679Z</time></trkpt><trkpt lat="41.7212633" lon="13.5947932"><ele>280.20000000000005</ele><time>2026-04-25T09:27:44.679Z</time></trkpt><trkpt lat="41.7213018" lon="13.5949346"><ele>280.6</ele><time>2026-04-25T09:27:45.679Z</time></trkpt><trkpt lat="41.7213449" lon="13.595084"><ele>281.0</ele><time>2026-04-25T09:27:46.679Z</time></trkpt><trkpt lat="41.7213936" lon="13.5952467"><ele>281.0</ele><time>2026-04-25T09:27:47.679Z</time></trkpt><trkpt lat="41.721436" lon="13.5954119"><ele>281.0</ele><time>2026-04-25T09:27:48.679Z</time></trkpt><trkpt lat="41.7214842" lon="13.5955823"><ele>281.0</ele><time>2026-04-25T09:27:49.679Z</time></trkpt><trkpt lat="41.7215408" lon="13.5957807"><ele>281.0</ele><time>2026-04-25T09:27:50.679Z</time></trkpt><trkpt lat="41.7215947" lon="13.5959789"><ele>280.33333333333337</ele><time>2026-04-25T09:27:51.679Z</time></trkpt><trkpt lat="41.7216531" lon="13.5961879"><ele>279.6666666666667</ele><time>2026-04-25T09:27:52.679Z</time></trkpt><trkpt lat="41.7217166" lon="13.5963993"><ele>279.0</ele><time>2026-04-25T09:27:53.679Z</time></trkpt><trkpt lat="41.7217819" lon="13.5966321"><ele>279.0</ele><time>2026-04-25T09:27:54.679Z</time></trkpt><trkpt lat="41.7218429" lon="13.5968655"><ele>279.0</ele><time>2026-04-25T09:27:55.679Z</time></trkpt><trkpt lat="41.7219077" lon="13.5971045"><ele>279.0</ele><time>2026-04-25T09:27:56.679Z</time></trkpt><trkpt lat="41.7219745" lon="13.5973503"><ele>279.3333333333333</ele><time>2026-04-25T09:27:57.679Z</time></trkpt><trkpt lat="41.7220401" lon="13.5975895"><ele>279.66666666666663</ele><time>2026-04-25T09:27:58.679Z</time></trkpt><trkpt lat="41.7221008" lon="13.5978167"><ele>280.0</ele><time>2026-04-25T09:27:59.679Z</time></trkpt><trkpt lat="41.7221638" lon="13.5980427"><ele>280.66666666666663</ele><time>2026-04-25T09:28:00.679Z</time></trkpt><trkpt lat="41.7222188" lon="13.5982496"><ele>281.3333333333333</ele><time>2026-04-25T09:28:01.679Z</time></trkpt><trkpt lat="41.7222739" lon="13.5984518"><ele>282.0</ele><time>2026-04-25T09:28:02.679Z</time></trkpt><trkpt lat="41.7223294" lon="13.598649"><ele>281.75</ele><time>2026-04-25T09:28:03.679Z</time></trkpt><trkpt lat="41.7223797" lon="13.5988371"><ele>281.5</ele><time>2026-04-25T09:28:04.679Z</time></trkpt><trkpt lat="41.7224324" lon="13.5990266"><ele>281.25</ele><time>2026-04-25T09:28:05.679Z</time></trkpt><trkpt lat="41.7224791" lon="13.5992145"><ele>281.0</ele><time>2026-04-25T09:28:06.679Z</time></trkpt><trkpt lat="41.722526" lon="13.5993992"><ele>281.0</ele><time>2026-04-25T09:28:07.679Z</time></trkpt><trkpt lat="41.722573" lon="13.5995806"><ele>281.0</ele><time>2026-04-25T09:28:08.679Z</time></trkpt><trkpt lat="41.7226204" lon="13.5997606"><ele>281.0</ele><time>2026-04-25T09:28:09.68Z</time></trkpt><trkpt lat="41.7226724" lon="13.5999406"><ele>281.0</ele><time>2026-04-25T09:28:10.679Z</time></trkpt><trkpt lat="41.7227241" lon="13.6001211"><ele>280.75</ele><time>2026-04-25T09:28:11.679Z</time></trkpt><trkpt lat="41.7227755" lon="13.6003056"><ele>280.5</ele><time>2026-04-25T09:28:12.679Z</time></trkpt><trkpt lat="41.72283" lon="13.6004938"><ele>280.25</ele><time>2026-04-25T09:28:13.679Z</time></trkpt><trkpt lat="41.7228828" lon="13.6006828"><ele>280.0</ele><time>2026-04-25T09:28:14.679Z</time></trkpt><trkpt lat="41.7229358" lon="13.6008721"><ele>280.0</ele><time>2026-04-25T09:28:15.679Z</time></trkpt><trkpt lat="41.722993" lon="13.6010621"><ele>280.0</ele><time>2026-04-25T09:28:16.679Z</time></trkpt><trkpt lat="41.7230457" lon="13.6012528"><ele>280.0</ele><time>2026-04-25T09:28:17.679Z</time></trkpt><trkpt lat="41.7230997" lon="13.6014428"><ele>280.0</ele><time>2026-04-25T09:28:18.679Z</time></trkpt><trkpt lat="41.7231562" lon="13.6016341"><ele>280.0</ele><time>2026-04-25T09:28:19.679Z</time></trkpt><trkpt lat="41.7232132" lon="13.6018272"><ele>280.0</ele><time>2026-04-25T09:28:20.679Z</time></trkpt><trkpt lat="41.7232663" lon="13.6020169"><ele>280.3333333333333</ele><time>2026-04-25T09:28:21.679Z</time></trkpt><trkpt lat="41.7233219" lon="13.6022044"><ele>280.6666666666667</ele><time>2026-04-25T09:28:22.679Z</time></trkpt><trkpt lat="41.7233769" lon="13.6023953"><ele>281.0</ele><time>2026-04-25T09:28:23.679Z</time></trkpt><trkpt lat="41.7234319" lon="13.6025809"><ele>281.0</ele><time>2026-04-25T09:28:24.679Z</time></trkpt><trkpt lat="41.7234895" lon="13.6027566"><ele>281.0</ele><time>2026-04-25T09:28:25.679Z</time></trkpt><trkpt lat="41.7235428" lon="13.6029276"><ele>281.0</ele><time>2026-04-25T09:28:26.679Z</time></trkpt><trkpt lat="41.7235919" lon="13.6030961"><ele>281.0</ele><time>2026-04-25T09:28:27.679Z</time></trkpt><trkpt lat="41.7236343" lon="13.6032391"><ele>280.8</ele><time>2026-04-25T09:28:28.679Z</time></trkpt><trkpt lat="41.7236814" lon="13.6033817"><ele>280.6</ele><time>2026-04-25T09:28:29.679Z</time></trkpt><trkpt lat="41.7237226" lon="13.6035157"><ele>280.4</ele><time>2026-04-25T09:28:30.679Z</time></trkpt><trkpt lat="41.7237636" lon="13.6036537"><ele>280.2</ele><time>2026-04-25T09:28:31.679Z</time></trkpt><trkpt lat="41.7238077" lon="13.6037881"><ele>280.0</ele><time>2026-04-25T09:28:32.679Z</time></trkpt><trkpt lat="41.7238512" lon="13.6039239"><ele>280.0</ele><time>2026-04-25T09:28:33.679Z</time></trkpt><trkpt lat="41.7238941" lon="13.6040615"><ele>280.0</ele><time>2026-04-25T09:28:34.679Z</time></trkpt><trkpt lat="41.7239332" lon="13.6041913"><ele>280.0</ele><time>2026-04-25T09:28:35.679Z</time></trkpt><trkpt lat="41.7239661" lon="13.6043164"><ele>280.0</ele><time>2026-04-25T09:28:36.679Z</time></trkpt><trkpt lat="41.7239978" lon="13.6044332"><ele>280.0</ele><time>2026-04-25T09:28:37.679Z</time></trkpt><trkpt lat="41.7240153" lon="13.6045795"><ele>280.16666666666663</ele><time>2026-04-25T09:28:39.679Z</time></trkpt><trkpt lat="41.7240341" lon="13.6046815"><ele>280.3333333333333</ele><time>2026-04-25T09:28:40.679Z</time></trkpt><trkpt lat="41.7240543" lon="13.6047835"><ele>280.5</ele><time>2026-04-25T09:28:41.679Z</time></trkpt><trkpt lat="41.7240699" lon="13.6048944"><ele>280.6666666666667</ele><time>2026-04-25T09:28:42.679Z</time></trkpt><trkpt lat="41.7240844" lon="13.6050109"><ele>280.83333333333337</ele><time>2026-04-25T09:28:43.679Z</time></trkpt><trkpt lat="41.7240941" lon="13.6051347"><ele>281.0</ele><time>2026-04-25T09:28:44.679Z</time></trkpt><trkpt lat="41.7240844" lon="13.605262"><ele>281.2</ele><time>2026-04-25T09:28:45.679Z</time></trkpt><trkpt lat="41.7240611" lon="13.6053985"><ele>281.40000000000003</ele><time>2026-04-25T09:28:46.679Z</time></trkpt><trkpt lat="41.7240254" lon="13.6055295"><ele>281.6</ele><time>2026-04-25T09:28:47.679Z</time></trkpt><trkpt lat="41.7239809" lon="13.6056469"><ele>281.8</ele><time>2026-04-25T09:28:48.679Z</time></trkpt><trkpt lat="41.7239304" lon="13.6057495"><ele>282.0</ele><time>2026-04-25T09:28:49.679Z</time></trkpt><trkpt lat="41.7238826" lon="13.605837"><ele>282.0</ele><time>2026-04-25T09:28:50.68Z</time></trkpt><trkpt lat="41.723823" lon="13.6059269"><ele>282.0</ele><time>2026-04-25T09:28:51.679Z</time></trkpt><trkpt lat="41.7237681" lon="13.6060212"><ele>282.0</ele><time>2026-04-25T09:28:52.679Z</time></trkpt><trkpt lat="41.7237074" lon="13.6061255"><ele>282.0</ele><time>2026-04-25T09:28:53.679Z</time></trkpt><trkpt lat="41.7236328" lon="13.6062105"><ele>282.0</ele><time>2026-04-25T09:28:54.679Z</time></trkpt><trkpt lat="41.7235651" lon="13.6063271"><ele>282.0</ele><time>2026-04-25T09:28:55.679Z</time></trkpt><trkpt lat="41.7234931" lon="13.6064435"><ele>282.0</ele><time>2026-04-25T09:28:56.679Z</time></trkpt><trkpt lat="41.7234188" lon="13.6065626"><ele>282.0</ele><time>2026-04-25T09:28:57.679Z</time></trkpt><trkpt lat="41.7233493" lon="13.6066964"><ele>282.0</ele><time>2026-04-25T09:28:58.679Z</time></trkpt><trkpt lat="41.7232703" lon="13.6068333"><ele>282.0</ele><time>2026-04-25T09:28:59.679Z</time></trkpt><trkpt lat="41.7231864" lon="13.6069755"><ele>282.0</ele><time>2026-04-25T09:29:00.679Z</time></trkpt><trkpt lat="41.7231035" lon="13.6071151"><ele>282.0</ele><time>2026-04-25T09:29:01.679Z</time></trkpt><trkpt lat="41.7230192" lon="13.6072607"><ele>282.0</ele><time>2026-04-25T09:29:02.679Z</time></trkpt><trkpt lat="41.722932" lon="13.607412"><ele>282.0</ele><time>2026-04-25T09:29:03.679Z</time></trkpt><trkpt lat="41.7228441" lon="13.6075643"><ele>282.0</ele><time>2026-04-25T09:29:04.679Z</time></trkpt><trkpt lat="41.7227526" lon="13.6077092"><ele>282.0</ele><time>2026-04-25T09:29:05.679Z</time></trkpt><trkpt lat="41.7226698" lon="13.6078439"><ele>282.0</ele><time>2026-04-25T09:29:06.679Z</time></trkpt><trkpt lat="41.7225861" lon="13.607977"><ele>282.0</ele><time>2026-04-25T09:29:07.679Z</time></trkpt><trkpt lat="41.7225054" lon="13.6081118"><ele>282.0</ele><time>2026-04-25T09:29:08.679Z</time></trkpt><trkpt lat="41.7224262" lon="13.6082362"><ele>282.0</ele><time>2026-04-25T09:29:09.679Z</time></trkpt><trkpt lat="41.72236" lon="13.6083467"><ele>282.0</ele><time>2026-04-25T09:29:10.679Z</time></trkpt><trkpt lat="41.7223119" lon="13.6084522"><ele>282.0</ele><time>2026-04-25T09:29:11.679Z</time></trkpt><trkpt lat="41.7222722" lon="13.6085494"><ele>282.0</ele><time>2026-04-25T09:29:12.679Z</time></trkpt><trkpt lat="41.7222248" lon="13.6086335"><ele>282.0</ele><time>2026-04-25T09:29:13.679Z</time></trkpt><trkpt lat="41.7221823" lon="13.6087241"><ele>282.0</ele><time>2026-04-25T09:29:14.679Z</time></trkpt><trkpt lat="41.7221395" lon="13.6088197"><ele>282.0</ele><time>2026-04-25T09:29:15.679Z</time></trkpt><trkpt lat="41.722092" lon="13.6089147"><ele>282.0</ele><time>2026-04-25T09:29:16.679Z</time></trkpt><trkpt lat="41.7220432" lon="13.6090097"><ele>282.0</ele><time>2026-04-25T09:29:17.679Z</time></trkpt><trkpt lat="41.7219913" lon="13.6091003"><ele>282.3333333333333</ele><time>2026-04-25T09:29:18.679Z</time></trkpt><trkpt lat="41.7219388" lon="13.6091914"><ele>282.6666666666667</ele><time>2026-04-25T09:29:19.679Z</time></trkpt><trkpt lat="41.7218903" lon="13.6092779"><ele>283.0</ele><time>2026-04-25T09:29:20.679Z</time></trkpt><trkpt lat="41.7218382" lon="13.6093537"><ele>283.33333333333337</ele><time>2026-04-25T09:29:21.679Z</time></trkpt><trkpt lat="41.7217848" lon="13.6094232"><ele>283.6666666666667</ele><time>2026-04-25T09:29:22.679Z</time></trkpt><trkpt lat="41.7217284" lon="13.6094701"><ele>284.0</ele><time>2026-04-25T09:29:23.679Z</time></trkpt><trkpt lat="41.7216254" lon="13.6095729"><ele>285.2857142857143</ele><time>2026-04-25T09:29:25.679Z</time></trkpt><trkpt lat="41.7215529" lon="13.6096121"><ele>286.57142857142856</ele><time>2026-04-25T09:29:26.679Z</time></trkpt><trkpt lat="41.7214726" lon="13.6096439"><ele>287.85714285714283</ele><time>2026-04-25T09:29:27.68Z</time></trkpt><trkpt lat="41.7214007" lon="13.6096716"><ele>289.1428571428571</ele><time>2026-04-25T09:29:28.679Z</time></trkpt><trkpt lat="41.7213343" lon="13.6097049"><ele>290.42857142857144</ele><time>2026-04-25T09:29:29.679Z</time></trkpt><trkpt lat="41.7212724" lon="13.6097316"><ele>291.71428571428567</ele><time>2026-04-25T09:29:30.679Z</time></trkpt><trkpt lat="41.721206" lon="13.6097526"><ele>293.0</ele><time>2026-04-25T09:29:31.679Z</time></trkpt><trkpt lat="41.7211437" lon="13.6097771"><ele>293.0</ele><time>2026-04-25T09:29:32.679Z</time></trkpt><trkpt lat="41.7210764" lon="13.609801"><ele>293.0</ele><time>2026-04-25T09:29:33.679Z</time></trkpt><trkpt lat="41.7210082" lon="13.6098253"><ele>293.0</ele><time>2026-04-25T09:29:34.679Z</time></trkpt><trkpt lat="41.7209445" lon="13.6098569"><ele>293.0</ele><time>2026-04-25T09:29:35.679Z</time></trkpt><trkpt lat="41.7208686" lon="13.6099165"><ele>293.0</ele><time>2026-04-25T09:29:36.679Z</time></trkpt><trkpt lat="41.7207961" lon="13.6099636"><ele>293.0</ele><time>2026-04-25T09:29:37.679Z</time></trkpt><trkpt lat="41.7207319" lon="13.6100139"><ele>293.6666666666667</ele><time>2026-04-25T09:29:38.679Z</time></trkpt><trkpt lat="41.7206665" lon="13.6100832"><ele>294.33333333333337</ele><time>2026-04-25T09:29:39.679Z</time></trkpt><trkpt lat="41.72061" lon="13.6101378"><ele>295.0</ele><time>2026-04-25T09:29:40.68Z</time></trkpt><trkpt lat="41.7205518" lon="13.6101926"><ele>295.6666666666667</ele><time>2026-04-25T09:29:41.679Z</time></trkpt><trkpt lat="41.7204814" lon="13.610256"><ele>296.3333333333333</ele><time>2026-04-25T09:29:42.679Z</time></trkpt><trkpt lat="41.7204219" lon="13.6103163"><ele>297.0</ele><time>2026-04-25T09:29:43.679Z</time></trkpt><trkpt lat="41.7203298" lon="13.6103475"><ele>294.6</ele><time>2026-04-25T09:29:45.679Z</time></trkpt><trkpt lat="41.7202189" lon="13.6102853"><ele>292.2</ele><time>2026-04-25T09:29:47.679Z</time></trkpt><trkpt lat="41.7201143" lon="13.6101937"><ele>289.8</ele><time>2026-04-25T09:29:49.679Z</time></trkpt><trkpt lat="41.7200534" lon="13.6101434"><ele>287.4</ele><time>2026-04-25T09:29:50.679Z</time></trkpt><trkpt lat="41.7199614" lon="13.6100431"><ele>285.0</ele><time>2026-04-25T09:29:52.679Z</time></trkpt><trkpt lat="41.7198977" lon="13.6099733"><ele>285.0</ele><time>2026-04-25T09:29:54.679Z</time></trkpt><trkpt lat="41.7198143" lon="13.6099008"><ele>285.0</ele><time>2026-04-25T09:29:57.679Z</time></trkpt><trkpt lat="41.7197253" lon="13.6098331"><ele>285.0</ele><time>2026-04-25T09:29:59.68Z</time></trkpt><trkpt lat="41.7196681" lon="13.6097875"><ele>285.0</ele><time>2026-04-25T09:30:00.679Z</time></trkpt><trkpt lat="41.719606" lon="13.6097362"><ele>285.0</ele><time>2026-04-25T09:30:01.679Z</time></trkpt><trkpt lat="41.7195376" lon="13.609671"><ele>285.0</ele><time>2026-04-25T09:30:02.679Z</time></trkpt><trkpt lat="41.719464" lon="13.609605"><ele>285.1666666666667</ele><time>2026-04-25T09:30:03.679Z</time></trkpt><trkpt lat="41.7193955" lon="13.6095285"><ele>285.3333333333333</ele><time>2026-04-25T09:30:04.679Z</time></trkpt><trkpt lat="41.7193251" lon="13.6094612"><ele>285.5</ele><time>2026-04-25T09:30:05.679Z</time></trkpt><trkpt lat="41.7192612" lon="13.609399"><ele>285.66666666666663</ele><time>2026-04-25T09:30:06.679Z</time></trkpt><trkpt lat="41.7192113" lon="13.6093363"><ele>285.8333333333333</ele><time>2026-04-25T09:30:07.68Z</time></trkpt><trkpt lat="41.7191339" lon="13.6092643"><ele>286.0</ele><time>2026-04-25T09:30:09.679Z</time></trkpt><trkpt lat="41.7190545" lon="13.6092747"><ele>286.0</ele><time>2026-04-25T09:30:12.679Z</time></trkpt><trkpt lat="41.7189923" lon="13.6094008"><ele>286.0</ele><time>2026-04-25T09:30:14.679Z</time></trkpt><trkpt lat="41.7189648" lon="13.6094901"><ele>286.0</ele><time>2026-04-25T09:30:15.679Z</time></trkpt><trkpt lat="41.7189246" lon="13.6095964"><ele>286.0</ele><time>2026-04-25T09:30:16.679Z</time></trkpt><trkpt lat="41.7188821" lon="13.6097013"><ele>286.0</ele><time>2026-04-25T09:30:17.679Z</time></trkpt><trkpt lat="41.7188325" lon="13.6098175"><ele>286.0</ele><time>2026-04-25T09:30:18.679Z</time></trkpt><trkpt lat="41.7187806" lon="13.6099274"><ele>286.0</ele><time>2026-04-25T09:30:19.679Z</time></trkpt><trkpt lat="41.7187323" lon="13.6100255"><ele>286.0</ele><time>2026-04-25T09:30:20.679Z</time></trkpt><trkpt lat="41.7186927" lon="13.6101134"><ele>286.0</ele><time>2026-04-25T09:30:21.679Z</time></trkpt><trkpt lat="41.7186444" lon="13.610212"><ele>286.0</ele><time>2026-04-25T09:30:22.679Z</time></trkpt><trkpt lat="41.7186025" lon="13.6103193"><ele>286.0</ele><time>2026-04-25T09:30:23.679Z</time></trkpt><trkpt lat="41.7185559" lon="13.6104374"><ele>286.0</ele><time>2026-04-25T09:30:24.679Z</time></trkpt><trkpt lat="41.7185126" lon="13.6105418"><ele>286.0</ele><time>2026-04-25T09:30:25.679Z</time></trkpt><trkpt lat="41.7184627" lon="13.6106422"><ele>286.0</ele><time>2026-04-25T09:30:26.679Z</time></trkpt><trkpt lat="41.7184217" lon="13.6107401"><ele>286.0</ele><time>2026-04-25T09:30:27.679Z</time></trkpt><trkpt lat="41.7183798" lon="13.6108353"><ele>286.0</ele><time>2026-04-25T09:30:28.679Z</time></trkpt><trkpt lat="41.718362" lon="13.6109245"><ele>286.0</ele><time>2026-04-25T09:30:29.679Z</time></trkpt><trkpt lat="41.7183516" lon="13.6110119"><ele>286.0</ele><time>2026-04-25T09:30:30.679Z</time></trkpt><trkpt lat="41.7183167" lon="13.6111377"><ele>286.0</ele><time>2026-04-25T09:30:32.679Z</time></trkpt><trkpt lat="41.7182648" lon="13.6112694"><ele>286.0</ele><time>2026-04-25T09:30:34.679Z</time></trkpt><trkpt lat="41.7182215" lon="13.6113317"><ele>286.0</ele><time>2026-04-25T09:30:44.679Z</time></trkpt><trkpt lat="41.7181663" lon="13.611421"><ele>286.0</ele><time>2026-04-25T09:30:54.679Z</time></trkpt><trkpt lat="41.7181125" lon="13.6114861"><ele>286.0</ele><time>2026-04-25T09:30:58.679Z</time></trkpt><trkpt lat="41.7180609" lon="13.6115608"><ele>285.6</ele><time>2026-04-25T09:31:01.679Z</time></trkpt><trkpt lat="41.7180398" lon="13.6116596"><ele>285.20000000000005</ele><time>2026-04-25T09:31:03.679Z</time></trkpt><trkpt lat="41.7180858" lon="13.6117725"><ele>284.79999999999995</ele><time>2026-04-25T09:31:05.679Z</time></trkpt><trkpt lat="41.7181285" lon="13.611868"><ele>284.4</ele><time>2026-04-25T09:31:07.679Z</time></trkpt><trkpt lat="41.718186" lon="13.6119898"><ele>284.0</ele><time>2026-04-25T09:31:09.679Z</time></trkpt><trkpt lat="41.7182471" lon="13.61211"><ele>283.59999999999997</ele><time>2026-04-25T09:31:11.679Z</time></trkpt><trkpt lat="41.7182917" lon="13.612239"><ele>283.2</ele><time>2026-04-25T09:31:13.679Z</time></trkpt><trkpt lat="41.7183136" lon="13.6123515"><ele>282.79999999999995</ele><time>2026-04-25T09:31:15.679Z</time></trkpt><trkpt lat="41.7183277" lon="13.6124679"><ele>282.4</ele><time>2026-04-25T09:31:17.679Z</time></trkpt><trkpt lat="41.7183394" lon="13.6125943"><ele>282.0</ele><time>2026-04-25T09:31:19.679Z</time></trkpt><trkpt lat="41.7183437" lon="13.6127211"><ele>282.1666666666667</ele><time>2026-04-25T09:31:21.679Z</time></trkpt><trkpt lat="41.7183478" lon="13.6128532"><ele>282.3333333333333</ele><time>2026-04-25T09:31:23.679Z</time></trkpt><trkpt lat="41.7183283" lon="13.6130075"><ele>282.5</ele><time>2026-04-25T09:31:25.679Z</time></trkpt><trkpt lat="41.718316" lon="13.6130913"><ele>282.66666666666663</ele><time>2026-04-25T09:31:26.679Z</time></trkpt><trkpt lat="41.7183102" lon="13.6131793"><ele>282.8333333333333</ele><time>2026-04-25T09:31:27.679Z</time></trkpt><trkpt lat="41.7183102" lon="13.6132718"><ele>283.0</ele><time>2026-04-25T09:31:28.679Z</time></trkpt><trkpt lat="41.7183188" lon="13.6133699"><ele>283.0</ele><time>2026-04-25T09:31:29.679Z</time></trkpt><trkpt lat="41.718336" lon="13.6134688"><ele>283.0</ele><time>2026-04-25T09:31:30.679Z</time></trkpt><trkpt lat="41.7183659" lon="13.6135637"><ele>283.0</ele><time>2026-04-25T09:31:31.679Z</time></trkpt><trkpt lat="41.7183942" lon="13.6136524"><ele>283.0</ele><time>2026-04-25T09:31:32.679Z</time></trkpt><trkpt lat="41.7184262" lon="13.6137301"><ele>283.0</ele><time>2026-04-25T09:31:33.679Z</time></trkpt><trkpt lat="41.7184593" lon="13.6138034"><ele>283.0</ele><time>2026-04-25T09:31:34.679Z</time></trkpt><trkpt lat="41.7185234" lon="13.6139201"><ele>283.0</ele><time>2026-04-25T09:31:36.679Z</time></trkpt><trkpt lat="41.7185912" lon="13.6140269"><ele>283.0</ele><time>2026-04-25T09:31:38.679Z</time></trkpt><trkpt lat="41.7186783" lon="13.6141442"><ele>283.0</ele><time>2026-04-25T09:31:40.679Z</time></trkpt><trkpt lat="41.7187519" lon="13.6142573"><ele>283.0</ele><time>2026-04-25T09:31:42.68Z</time></trkpt><trkpt lat="41.7188023" lon="13.6143227"><ele>283.0</ele><time>2026-04-25T09:31:44.679Z</time></trkpt><trkpt lat="41.7188421" lon="13.6143974"><ele>283.0</ele><time>2026-04-25T09:31:47.679Z</time></trkpt><trkpt lat="41.7189094" lon="13.6144877"><ele>283.0</ele><time>2026-04-25T09:31:51.68Z</time></trkpt><trkpt lat="41.7189724" lon="13.6145871"><ele>283.0</ele><time>2026-04-25T09:31:53.679Z</time></trkpt><trkpt lat="41.7190543" lon="13.6146982"><ele>283.0</ele><time>2026-04-25T09:31:55.679Z</time></trkpt><trkpt lat="41.7191495" lon="13.6148248"><ele>283.0</ele><time>2026-04-25T09:31:57.679Z</time></trkpt><trkpt lat="41.7192006" lon="13.6148916"><ele>283.2</ele><time>2026-04-25T09:31:58.679Z</time></trkpt><trkpt lat="41.7192563" lon="13.6149547"><ele>283.4</ele><time>2026-04-25T09:31:59.679Z</time></trkpt><trkpt lat="41.7193219" lon="13.6150199"><ele>283.59999999999997</ele><time>2026-04-25T09:32:00.679Z</time></trkpt><trkpt lat="41.7193942" lon="13.6150987"><ele>283.8</ele><time>2026-04-25T09:32:01.679Z</time></trkpt><trkpt lat="41.7194708" lon="13.6151867"><ele>284.0</ele><time>2026-04-25T09:32:02.679Z</time></trkpt><trkpt lat="41.7195512" lon="13.6152779"><ele>284.4</ele><time>2026-04-25T09:32:03.679Z</time></trkpt><trkpt lat="41.7196349" lon="13.6153751"><ele>284.79999999999995</ele><time>2026-04-25T09:32:04.679Z</time></trkpt><trkpt lat="41.7197185" lon="13.6154658"><ele>285.20000000000005</ele><time>2026-04-25T09:32:05.679Z</time></trkpt><trkpt lat="41.7197992" lon="13.6155614"><ele>285.6</ele><time>2026-04-25T09:32:06.679Z</time></trkpt><trkpt lat="41.7198749" lon="13.6156631"><ele>286.0</ele><time>2026-04-25T09:32:07.679Z</time></trkpt><trkpt lat="41.7199457" lon="13.6157617"><ele>286.0</ele><time>2026-04-25T09:32:08.679Z</time></trkpt><trkpt lat="41.7200167" lon="13.6158512"><ele>286.0</ele><time>2026-04-25T09:32:09.679Z</time></trkpt><trkpt lat="41.720084" lon="13.6159356"><ele>286.0</ele><time>2026-04-25T09:32:10.679Z</time></trkpt><trkpt lat="41.7201467" lon="13.6160148"><ele>286.0</ele><time>2026-04-25T09:32:11.68Z</time></trkpt><trkpt lat="41.7202479" lon="13.6161395"><ele>286.0</ele><time>2026-04-25T09:32:13.679Z</time></trkpt><trkpt lat="41.720294" lon="13.6162063"><ele>286.2</ele><time>2026-04-25T09:32:14.679Z</time></trkpt><trkpt lat="41.7203651" lon="13.616345"><ele>286.40000000000003</ele><time>2026-04-25T09:32:16.679Z</time></trkpt><trkpt lat="41.7204163" lon="13.6164228"><ele>286.6</ele><time>2026-04-25T09:32:18.679Z</time></trkpt><trkpt lat="41.7204666" lon="13.6164946"><ele>286.8</ele><time>2026-04-25T09:32:24.679Z</time></trkpt><trkpt lat="41.720528" lon="13.6165828"><ele>287.0</ele><time>2026-04-25T09:32:26.679Z</time></trkpt><trkpt lat="41.7205754" lon="13.6166745"><ele>287.0</ele><time>2026-04-25T09:32:28.679Z</time></trkpt><trkpt lat="41.7206115" lon="13.6167677"><ele>287.0</ele><time>2026-04-25T09:32:31.679Z</time></trkpt><trkpt lat="41.7206494" lon="13.6168605"><ele>287.0</ele><time>2026-04-25T09:32:39.679Z</time></trkpt><trkpt lat="41.7206688" lon="13.6169764"><ele>287.0</ele><time>2026-04-25T09:32:42.679Z</time></trkpt><trkpt lat="41.7206876" lon="13.6170883"><ele>287.0</ele><time>2026-04-25T09:32:44.679Z</time></trkpt><trkpt lat="41.7207674" lon="13.6170984"><ele>287.0</ele><time>2026-04-25T09:32:46.679Z</time></trkpt><trkpt lat="41.7208781" lon="13.6170535"><ele>287.0</ele><time>2026-04-25T09:32:48.679Z</time></trkpt><trkpt lat="41.7209345" lon="13.617013"><ele>287.0</ele><time>2026-04-25T09:32:49.679Z</time></trkpt><trkpt lat="41.7210273" lon="13.6169256"><ele>287.0</ele><time>2026-04-25T09:32:51.679Z</time></trkpt><trkpt lat="41.7210853" lon="13.6168696"><ele>287.0</ele><time>2026-04-25T09:32:53.679Z</time></trkpt><trkpt lat="41.7211439" lon="13.6167993"><ele>287.0</ele><time>2026-04-25T09:32:56.679Z</time></trkpt><trkpt lat="41.7211866" lon="13.6167298"><ele>287.0</ele><time>2026-04-25T09:33:02.679Z</time></trkpt><trkpt lat="41.721262" lon="13.6166628"><ele>287.33333333333337</ele><time>2026-04-25T09:33:05.679Z</time></trkpt><trkpt lat="41.721347" lon="13.6165729"><ele>287.6666666666667</ele><time>2026-04-25T09:33:07.679Z</time></trkpt><trkpt lat="41.721403" lon="13.6165055"><ele>288.0</ele><time>2026-04-25T09:33:08.679Z</time></trkpt><trkpt lat="41.7214634" lon="13.6164518"><ele>288.3333333333333</ele><time>2026-04-25T09:33:09.679Z</time></trkpt><trkpt lat="41.7215217" lon="13.6163916"><ele>288.66666666666663</ele><time>2026-04-25T09:33:10.679Z</time></trkpt><trkpt lat="41.7215777" lon="13.6163314"><ele>289.0</ele><time>2026-04-25T09:33:11.679Z</time></trkpt><trkpt lat="41.7216739" lon="13.6162279"><ele>288.8333333333333</ele><time>2026-04-25T09:33:13.679Z</time></trkpt><trkpt lat="41.7217624" lon="13.6161456"><ele>288.66666666666663</ele><time>2026-04-25T09:33:15.679Z</time></trkpt><trkpt lat="41.721833" lon="13.6160984"><ele>288.5</ele><time>2026-04-25T09:33:17.679Z</time></trkpt><trkpt lat="41.7219092" lon="13.6160227"><ele>288.3333333333333</ele><time>2026-04-25T09:33:19.679Z</time></trkpt><trkpt lat="41.7219839" lon="13.6159643"><ele>288.1666666666667</ele><time>2026-04-25T09:33:21.679Z</time></trkpt><trkpt lat="41.7220521" lon="13.6159152"><ele>288.0</ele><time>2026-04-25T09:33:23.679Z</time></trkpt><trkpt lat="41.7221334" lon="13.615852"><ele>287.8</ele><time>2026-04-25T09:33:25.679Z</time></trkpt><trkpt lat="41.7222014" lon="13.6157656"><ele>287.6</ele><time>2026-04-25T09:33:27.679Z</time></trkpt><trkpt lat="41.7222806" lon="13.615731"><ele>287.4</ele><time>2026-04-25T09:33:29.679Z</time></trkpt><trkpt lat="41.7223704" lon="13.6157617"><ele>287.2</ele><time>2026-04-25T09:33:31.68Z</time></trkpt><trkpt lat="41.7224749" lon="13.6158224"><ele>287.0</ele><time>2026-04-25T09:33:33.679Z</time></trkpt><trkpt lat="41.7225769" lon="13.6158825"><ele>287.0</ele><time>2026-04-25T09:33:35.679Z</time></trkpt><trkpt lat="41.7226522" lon="13.6159456"><ele>287.0</ele><time>2026-04-25T09:33:37.68Z</time></trkpt><trkpt lat="41.7227386" lon="13.6158985"><ele>287.0</ele><time>2026-04-25T09:33:40.678Z</time></trkpt><trkpt lat="41.7228088" lon="13.615824"><ele>287.0</ele><time>2026-04-25T09:33:42.678Z</time></trkpt><trkpt lat="41.7229017" lon="13.6158078"><ele>287.0</ele><time>2026-04-25T09:33:44.678Z</time></trkpt><trkpt lat="41.723026" lon="13.6158547"><ele>287.6666666666667</ele><time>2026-04-25T09:33:46.678Z</time></trkpt><trkpt lat="41.7230877" lon="13.6158876"><ele>288.33333333333337</ele><time>2026-04-25T09:33:47.678Z</time></trkpt><trkpt lat="41.723163" lon="13.615927"><ele>289.0</ele><time>2026-04-25T09:33:48.678Z</time></trkpt><trkpt lat="41.7232422" lon="13.615961"><ele>289.6666666666667</ele><time>2026-04-25T09:33:49.678Z</time></trkpt><trkpt lat="41.7233272" lon="13.6160092"><ele>290.3333333333333</ele><time>2026-04-25T09:33:50.678Z</time></trkpt><trkpt lat="41.7234224" lon="13.6160645"><ele>291.0</ele><time>2026-04-25T09:33:51.678Z</time></trkpt><trkpt lat="41.7235237" lon="13.6161197"><ele>291.2</ele><time>2026-04-25T09:33:52.678Z</time></trkpt><trkpt lat="41.7236296" lon="13.6161811"><ele>291.40000000000003</ele><time>2026-04-25T09:33:53.678Z</time></trkpt><trkpt lat="41.7237323" lon="13.6162388"><ele>291.6</ele><time>2026-04-25T09:33:54.678Z</time></trkpt><trkpt lat="41.7238372" lon="13.6162876"><ele>291.8</ele><time>2026-04-25T09:33:55.678Z</time></trkpt><trkpt lat="41.7239263" lon="13.6163417"><ele>292.0</ele><time>2026-04-25T09:33:56.678Z</time></trkpt><trkpt lat="41.7240077" lon="13.6163954"><ele>292.0</ele><time>2026-04-25T09:33:57.679Z</time></trkpt><trkpt lat="41.7240877" lon="13.6164577"><ele>292.0</ele><time>2026-04-25T09:33:58.678Z</time></trkpt><trkpt lat="41.7241677" lon="13.6165384"><ele>292.0</ele><time>2026-04-25T09:33:59.678Z</time></trkpt><trkpt lat="41.724255" lon="13.6166269"><ele>292.0</ele><time>2026-04-25T09:34:00.678Z</time></trkpt><trkpt lat="41.7243467" lon="13.6167125"><ele>292.0</ele><time>2026-04-25T09:34:01.678Z</time></trkpt><trkpt lat="41.7244424" lon="13.6167993"><ele>291.75</ele><time>2026-04-25T09:34:02.678Z</time></trkpt><trkpt lat="41.7245406" lon="13.6168831"><ele>291.5</ele><time>2026-04-25T09:34:03.678Z</time></trkpt><trkpt lat="41.7246408" lon="13.6169669"><ele>291.25</ele><time>2026-04-25T09:34:04.678Z</time></trkpt><trkpt lat="41.7247456" lon="13.617044"><ele>291.0</ele><time>2026-04-25T09:34:05.678Z</time></trkpt><trkpt lat="41.7248517" lon="13.6171137"><ele>291.0</ele><time>2026-04-25T09:34:06.678Z</time></trkpt><trkpt lat="41.724958" lon="13.6171844"><ele>291.0</ele><time>2026-04-25T09:34:07.678Z</time></trkpt><trkpt lat="41.7250613" lon="13.6172545"><ele>291.0</ele><time>2026-04-25T09:34:08.678Z</time></trkpt><trkpt lat="41.7251624" lon="13.6173228"><ele>291.0</ele><time>2026-04-25T09:34:09.678Z</time></trkpt><trkpt lat="41.7252681" lon="13.6173912"><ele>291.40000000000003</ele><time>2026-04-25T09:34:10.678Z</time></trkpt><trkpt lat="41.7253618" lon="13.617443"><ele>291.8</ele><time>2026-04-25T09:34:11.678Z</time></trkpt><trkpt lat="41.725458" lon="13.6174891"><ele>292.20000000000005</ele><time>2026-04-25T09:34:12.678Z</time></trkpt><trkpt lat="41.7255451" lon="13.617529"><ele>292.6</ele><time>2026-04-25T09:34:13.679Z</time></trkpt><trkpt lat="41.7256358" lon="13.6175709"><ele>293.0</ele><time>2026-04-25T09:34:14.678Z</time></trkpt><trkpt lat="41.7257284" lon="13.6176115"><ele>293.0</ele><time>2026-04-25T09:34:15.678Z</time></trkpt><trkpt lat="41.7258173" lon="13.6176442"><ele>293.0</ele><time>2026-04-25T09:34:16.678Z</time></trkpt><trkpt lat="41.7259006" lon="13.617673"><ele>293.0</ele><time>2026-04-25T09:34:17.678Z</time></trkpt><trkpt lat="41.7259772" lon="13.6177006"><ele>293.0</ele><time>2026-04-25T09:34:18.678Z</time></trkpt><trkpt lat="41.7260535" lon="13.6177403"><ele>293.0</ele><time>2026-04-25T09:34:19.678Z</time></trkpt><trkpt lat="41.7261402" lon="13.6177939"><ele>293.0</ele><time>2026-04-25T09:34:20.678Z</time></trkpt><trkpt lat="41.726244" lon="13.6178514"><ele>292.25</ele><time>2026-04-25T09:34:21.678Z</time></trkpt><trkpt lat="41.7264004" lon="13.6179196"><ele>291.5</ele><time>2026-04-25T09:34:22.678Z</time></trkpt><trkpt lat="41.7265278" lon="13.6179881"><ele>290.75</ele><time>2026-04-25T09:34:23.678Z</time></trkpt><trkpt lat="41.7266565" lon="13.6180588"><ele>290.0</ele><time>2026-04-25T09:34:24.678Z</time></trkpt><trkpt lat="41.7267732" lon="13.6181207"><ele>290.0</ele><time>2026-04-25T09:34:25.678Z</time></trkpt><trkpt lat="41.7268844" lon="13.6181796"><ele>290.0</ele><time>2026-04-25T09:34:26.678Z</time></trkpt><trkpt lat="41.7269907" lon="13.6182311"><ele>290.0</ele><time>2026-04-25T09:34:27.678Z</time></trkpt><trkpt lat="41.7270855" lon="13.6182745"><ele>290.0</ele><time>2026-04-25T09:34:28.678Z</time></trkpt><trkpt lat="41.7271774" lon="13.6183"><ele>290.0</ele><time>2026-04-25T09:34:29.678Z</time></trkpt><trkpt lat="41.7272755" lon="13.6183001"><ele>290.25</ele><time>2026-04-25T09:34:30.678Z</time></trkpt><trkpt lat="41.7273836" lon="13.6182894"><ele>290.5</ele><time>2026-04-25T09:34:31.678Z</time></trkpt><trkpt lat="41.7274927" lon="13.6182686"><ele>290.75</ele><time>2026-04-25T09:34:32.678Z</time></trkpt><trkpt lat="41.7275979" lon="13.6182228"><ele>291.0</ele><time>2026-04-25T09:34:33.678Z</time></trkpt><trkpt lat="41.7277171" lon="13.6182005"><ele>290.25</ele><time>2026-04-25T09:34:34.678Z</time></trkpt><trkpt lat="41.7278411" lon="13.6181749"><ele>289.5</ele><time>2026-04-25T09:34:35.678Z</time></trkpt><trkpt lat="41.727975" lon="13.6181449"><ele>288.75</ele><time>2026-04-25T09:34:36.678Z</time></trkpt><trkpt lat="41.728114" lon="13.6181139"><ele>288.0</ele><time>2026-04-25T09:34:37.678Z</time></trkpt><trkpt lat="41.7282716" lon="13.618078"><ele>288.0</ele><time>2026-04-25T09:34:38.678Z</time></trkpt><trkpt lat="41.7284236" lon="13.6180486"><ele>288.0</ele><time>2026-04-25T09:34:39.678Z</time></trkpt><trkpt lat="41.7285842" lon="13.6180119"><ele>288.0</ele><time>2026-04-25T09:34:40.678Z</time></trkpt><trkpt lat="41.7287532" lon="13.6179756"><ele>288.3333333333333</ele><time>2026-04-25T09:34:41.678Z</time></trkpt><trkpt lat="41.7289228" lon="13.6179361"><ele>288.66666666666663</ele><time>2026-04-25T09:34:42.678Z</time></trkpt><trkpt lat="41.729096" lon="13.6179011"><ele>289.0</ele><time>2026-04-25T09:34:43.678Z</time></trkpt><trkpt lat="41.7292771" lon="13.6178684"><ele>288.3333333333333</ele><time>2026-04-25T09:34:44.678Z</time></trkpt><trkpt lat="41.7294597" lon="13.617837"><ele>287.6666666666667</ele><time>2026-04-25T09:34:45.678Z</time></trkpt><trkpt lat="41.7296423" lon="13.6178032"><ele>287.0</ele><time>2026-04-25T09:34:46.678Z</time></trkpt><trkpt lat="41.7298216" lon="13.6177728"><ele>289.6666666666667</ele><time>2026-04-25T09:34:47.678Z</time></trkpt><trkpt lat="41.7299978" lon="13.6177463"><ele>292.3333333333333</ele><time>2026-04-25T09:34:48.678Z</time></trkpt><trkpt lat="41.7301663" lon="13.6177248"><ele>295.0</ele><time>2026-04-25T09:34:49.678Z</time></trkpt><trkpt lat="41.7303263" lon="13.6177046"><ele>295.0</ele><time>2026-04-25T09:34:50.678Z</time></trkpt><trkpt lat="41.7304758" lon="13.6176815"><ele>295.0</ele><time>2026-04-25T09:34:51.678Z</time></trkpt><trkpt lat="41.7306234" lon="13.6176369"><ele>295.0</ele><time>2026-04-25T09:34:52.678Z</time></trkpt><trkpt lat="41.730757" lon="13.6175628"><ele>295.0</ele><time>2026-04-25T09:34:53.678Z</time></trkpt><trkpt lat="41.7308967" lon="13.6174523"><ele>295.0</ele><time>2026-04-25T09:34:54.678Z</time></trkpt><trkpt lat="41.7310349" lon="13.6173344"><ele>295.0</ele><time>2026-04-25T09:34:55.679Z</time></trkpt><trkpt lat="41.7311721" lon="13.6172076"><ele>295.0</ele><time>2026-04-25T09:34:56.678Z</time></trkpt><trkpt lat="41.7313016" lon="13.6170716"><ele>296.3333333333333</ele><time>2026-04-25T09:34:57.678Z</time></trkpt><trkpt lat="41.7314365" lon="13.6169447"><ele>297.6666666666667</ele><time>2026-04-25T09:34:58.678Z</time></trkpt><trkpt lat="41.7315712" lon="13.6168251"><ele>299.0</ele><time>2026-04-25T09:34:59.678Z</time></trkpt><trkpt lat="41.7316952" lon="13.6167081"><ele>299.0</ele><time>2026-04-25T09:35:00.678Z</time></trkpt><trkpt lat="41.7318107" lon="13.6165996"><ele>299.0</ele><time>2026-04-25T09:35:01.678Z</time></trkpt><trkpt lat="41.7319164" lon="13.6165068"><ele>299.0</ele><time>2026-04-25T09:35:02.679Z</time></trkpt><trkpt lat="41.7320022" lon="13.6164279"><ele>299.0</ele><time>2026-04-25T09:35:03.678Z</time></trkpt><trkpt lat="41.7320829" lon="13.6163588"><ele>299.59999999999997</ele><time>2026-04-25T09:35:04.678Z</time></trkpt><trkpt lat="41.7321639" lon="13.6162919"><ele>300.2</ele><time>2026-04-25T09:35:05.678Z</time></trkpt><trkpt lat="41.7322451" lon="13.6162294"><ele>300.79999999999995</ele><time>2026-04-25T09:35:06.678Z</time></trkpt><trkpt lat="41.7323285" lon="13.6161663"><ele>301.4</ele><time>2026-04-25T09:35:07.678Z</time></trkpt><trkpt lat="41.732417" lon="13.6161048"><ele>302.0</ele><time>2026-04-25T09:35:08.678Z</time></trkpt><trkpt lat="41.7325112" lon="13.6160388"><ele>302.0</ele><time>2026-04-25T09:35:09.678Z</time></trkpt><trkpt lat="41.7326068" lon="13.6159648"><ele>302.0</ele><time>2026-04-25T09:35:10.678Z</time></trkpt><trkpt lat="41.732707" lon="13.6158897"><ele>302.0</ele><time>2026-04-25T09:35:11.678Z</time></trkpt><trkpt lat="41.7328083" lon="13.6158125"><ele>302.0</ele><time>2026-04-25T09:35:12.679Z</time></trkpt><trkpt lat="41.7329088" lon="13.6157446"><ele>300.2</ele><time>2026-04-25T09:35:13.678Z</time></trkpt><trkpt lat="41.7330042" lon="13.6156747"><ele>298.4</ele><time>2026-04-25T09:35:14.678Z</time></trkpt><trkpt lat="41.7330941" lon="13.6156048"><ele>296.6</ele><time>2026-04-25T09:35:15.679Z</time></trkpt><trkpt lat="41.7331811" lon="13.6155384"><ele>294.8</ele><time>2026-04-25T09:35:16.678Z</time></trkpt><trkpt lat="41.7332671" lon="13.6154634"><ele>293.0</ele><time>2026-04-25T09:35:17.678Z</time></trkpt><trkpt lat="41.7333568" lon="13.6153825"><ele>293.8</ele><time>2026-04-25T09:35:18.678Z</time></trkpt><trkpt lat="41.7334526" lon="13.6152949"><ele>294.6</ele><time>2026-04-25T09:35:19.678Z</time></trkpt><trkpt lat="41.7335464" lon="13.615213"><ele>295.4</ele><time>2026-04-25T09:35:20.678Z</time></trkpt><trkpt lat="41.7336408" lon="13.6151366"><ele>296.2</ele><time>2026-04-25T09:35:21.678Z</time></trkpt><trkpt lat="41.7337362" lon="13.6150702"><ele>297.0</ele><time>2026-04-25T09:35:22.678Z</time></trkpt><trkpt lat="41.7338217" lon="13.6150271"><ele>297.0</ele><time>2026-04-25T09:35:23.678Z</time></trkpt><trkpt lat="41.7338949" lon="13.6150178"><ele>297.0</ele><time>2026-04-25T09:35:24.678Z</time></trkpt><trkpt lat="41.7340181" lon="13.614995"><ele>297.0</ele><time>2026-04-25T09:35:26.678Z</time></trkpt><trkpt lat="41.7341272" lon="13.6149597"><ele>297.0</ele><time>2026-04-25T09:35:28.678Z</time></trkpt><trkpt lat="41.734192" lon="13.6149396"><ele>297.0</ele><time>2026-04-25T09:35:29.678Z</time></trkpt><trkpt lat="41.7342627" lon="13.6149159"><ele>297.0</ele><time>2026-04-25T09:35:30.678Z</time></trkpt><trkpt lat="41.7343401" lon="13.6149012"><ele>297.0</ele><time>2026-04-25T09:35:31.678Z</time></trkpt><trkpt lat="41.7344207" lon="13.6148854"><ele>297.0</ele><time>2026-04-25T09:35:32.678Z</time></trkpt><trkpt lat="41.7345027" lon="13.614875"><ele>297.0</ele><time>2026-04-25T09:35:33.678Z</time></trkpt><trkpt lat="41.7345858" lon="13.6148714"><ele>297.0</ele><time>2026-04-25T09:35:34.678Z</time></trkpt><trkpt lat="41.7346487" lon="13.6148762"><ele>297.0</ele><time>2026-04-25T09:35:35.678Z</time></trkpt><trkpt lat="41.7347284" lon="13.614854"><ele>297.0</ele><time>2026-04-25T09:35:36.678Z</time></trkpt><trkpt lat="41.7348084" lon="13.6148322"><ele>297.0</ele><time>2026-04-25T09:35:37.678Z</time></trkpt><trkpt lat="41.7348969" lon="13.6148053"><ele>297.0</ele><time>2026-04-25T09:35:38.678Z</time></trkpt><trkpt lat="41.7350017" lon="13.614769"><ele>297.0</ele><time>2026-04-25T09:35:39.678Z</time></trkpt><trkpt lat="41.735115" lon="13.6147358"><ele>297.0</ele><time>2026-04-25T09:35:40.678Z</time></trkpt><trkpt lat="41.735231" lon="13.6147087"><ele>297.0</ele><time>2026-04-25T09:35:41.679Z</time></trkpt><trkpt lat="41.735356" lon="13.614694"><ele>297.0</ele><time>2026-04-25T09:35:42.678Z</time></trkpt><trkpt lat="41.7354889" lon="13.6147039"><ele>297.0</ele><time>2026-04-25T09:35:43.678Z</time></trkpt><trkpt lat="41.735625" lon="13.6147308"><ele>297.0</ele><time>2026-04-25T09:35:44.678Z</time></trkpt><trkpt lat="41.7357655" lon="13.614769"><ele>297.0</ele><time>2026-04-25T09:35:45.678Z</time></trkpt><trkpt lat="41.7359141" lon="13.6148092"><ele>297.0</ele><time>2026-04-25T09:35:46.678Z</time></trkpt><trkpt lat="41.7360557" lon="13.6148456"><ele>297.0</ele><time>2026-04-25T09:35:47.678Z</time></trkpt><trkpt lat="41.7362021" lon="13.6148759"><ele>297.0</ele><time>2026-04-25T09:35:48.678Z</time></trkpt><trkpt lat="41.7363495" lon="13.6149153"><ele>298.0</ele><time>2026-04-25T09:35:49.678Z</time></trkpt><trkpt lat="41.7364919" lon="13.6149598"><ele>299.0</ele><time>2026-04-25T09:35:50.678Z</time></trkpt><trkpt lat="41.7366252" lon="13.6149955"><ele>300.0</ele><time>2026-04-25T09:35:51.678Z</time></trkpt><trkpt lat="41.7367533" lon="13.6150273"><ele>301.0</ele><time>2026-04-25T09:35:52.678Z</time></trkpt><trkpt lat="41.7368806" lon="13.6150596"><ele>302.5</ele><time>2026-04-25T09:35:53.679Z</time></trkpt><trkpt lat="41.7370104" lon="13.6150938"><ele>304.0</ele><time>2026-04-25T09:35:54.678Z</time></trkpt><trkpt lat="41.737144" lon="13.6151285"><ele>305.5</ele><time>2026-04-25T09:35:55.678Z</time></trkpt><trkpt lat="41.7372796" lon="13.6151642"><ele>307.0</ele><time>2026-04-25T09:35:56.679Z</time></trkpt><trkpt lat="41.737419" lon="13.6151971"><ele>307.0</ele><time>2026-04-25T09:35:57.679Z</time></trkpt><trkpt lat="41.7375583" lon="13.6152354"><ele>307.0</ele><time>2026-04-25T09:35:58.678Z</time></trkpt><trkpt lat="41.7377021" lon="13.6152706"><ele>307.0</ele><time>2026-04-25T09:35:59.678Z</time></trkpt><trkpt lat="41.7378506" lon="13.6153091"><ele>307.0</ele><time>2026-04-25T09:36:00.678Z</time></trkpt><trkpt lat="41.7380007" lon="13.6153518"><ele>304.0</ele><time>2026-04-25T09:36:01.679Z</time></trkpt><trkpt lat="41.7381475" lon="13.6154007"><ele>301.0</ele><time>2026-04-25T09:36:02.678Z</time></trkpt><trkpt lat="41.7382965" lon="13.6154651"><ele>298.0</ele><time>2026-04-25T09:36:03.678Z</time></trkpt><trkpt lat="41.7384383" lon="13.6155386"><ele>298.5</ele><time>2026-04-25T09:36:04.678Z</time></trkpt><trkpt lat="41.7385729" lon="13.615611"><ele>299.0</ele><time>2026-04-25T09:36:05.678Z</time></trkpt><trkpt lat="41.7387122" lon="13.6156817"><ele>299.5</ele><time>2026-04-25T09:36:06.678Z</time></trkpt><trkpt lat="41.7388542" lon="13.615741"><ele>300.0</ele><time>2026-04-25T09:36:07.678Z</time></trkpt><trkpt lat="41.7390037" lon="13.615784"><ele>300.0</ele><time>2026-04-25T09:36:08.678Z</time></trkpt><trkpt lat="41.7391652" lon="13.6158022"><ele>300.0</ele><time>2026-04-25T09:36:09.678Z</time></trkpt><trkpt lat="41.7393167" lon="13.6158114"><ele>300.0</ele><time>2026-04-25T09:36:10.678Z</time></trkpt><trkpt lat="41.7394758" lon="13.6158047"><ele>300.25</ele><time>2026-04-25T09:36:11.678Z</time></trkpt><trkpt lat="41.7396308" lon="13.6157764"><ele>300.5</ele><time>2026-04-25T09:36:12.678Z</time></trkpt><trkpt lat="41.7397684" lon="13.615741"><ele>300.75</ele><time>2026-04-25T09:36:13.678Z</time></trkpt><trkpt lat="41.7399035" lon="13.6157048"><ele>301.0</ele><time>2026-04-25T09:36:14.678Z</time></trkpt><trkpt lat="41.7400278" lon="13.6156545"><ele>301.0</ele><time>2026-04-25T09:36:15.678Z</time></trkpt><trkpt lat="41.7401585" lon="13.6155958"><ele>301.0</ele><time>2026-04-25T09:36:16.678Z</time></trkpt><trkpt lat="41.7402964" lon="13.6155537"><ele>301.0</ele><time>2026-04-25T09:36:17.678Z</time></trkpt><trkpt lat="41.7404461" lon="13.6155222"><ele>301.0</ele><time>2026-04-25T09:36:18.678Z</time></trkpt><trkpt lat="41.7406062" lon="13.6155006"><ele>300.0</ele><time>2026-04-25T09:36:19.678Z</time></trkpt><trkpt lat="41.7407655" lon="13.6154813"><ele>299.0</ele><time>2026-04-25T09:36:20.678Z</time></trkpt><trkpt lat="41.7409233" lon="13.6154565"><ele>298.0</ele><time>2026-04-25T09:36:21.678Z</time></trkpt><trkpt lat="41.7410736" lon="13.6154404"><ele>297.66666666666663</ele><time>2026-04-25T09:36:22.678Z</time></trkpt><trkpt lat="41.7412336" lon="13.6154198"><ele>297.3333333333333</ele><time>2026-04-25T09:36:23.678Z</time></trkpt><trkpt lat="41.7413939" lon="13.6153996"><ele>297.0</ele><time>2026-04-25T09:36:24.678Z</time></trkpt><trkpt lat="41.7415578" lon="13.6153756"><ele>297.0</ele><time>2026-04-25T09:36:25.678Z</time></trkpt><trkpt lat="41.741714" lon="13.6153522"><ele>297.0</ele><time>2026-04-25T09:36:26.678Z</time></trkpt><trkpt lat="41.7418718" lon="13.6153274"><ele>297.0</ele><time>2026-04-25T09:36:27.678Z</time></trkpt><trkpt lat="41.7420336" lon="13.6153053"><ele>302.0</ele><time>2026-04-25T09:36:28.678Z</time></trkpt><trkpt lat="41.7422007" lon="13.6152844"><ele>307.0</ele><time>2026-04-25T09:36:29.678Z</time></trkpt><trkpt lat="41.7423721" lon="13.615273"><ele>312.0</ele><time>2026-04-25T09:36:30.678Z</time></trkpt><trkpt lat="41.7425556" lon="13.61527"><ele>310.3333333333333</ele><time>2026-04-25T09:36:31.678Z</time></trkpt><trkpt lat="41.7427301" lon="13.6152567"><ele>308.66666666666663</ele><time>2026-04-25T09:36:32.678Z</time></trkpt><trkpt lat="41.7428964" lon="13.6152435"><ele>307.0</ele><time>2026-04-25T09:36:33.678Z</time></trkpt><trkpt lat="41.7430604" lon="13.6152334"><ele>307.0</ele><time>2026-04-25T09:36:34.678Z</time></trkpt><trkpt lat="41.7432158" lon="13.6152226"><ele>307.0</ele><time>2026-04-25T09:36:35.678Z</time></trkpt><trkpt lat="41.7433663" lon="13.6152171"><ele>307.0</ele><time>2026-04-25T09:36:36.678Z</time></trkpt><trkpt lat="41.7435072" lon="13.615217"><ele>307.0</ele><time>2026-04-25T09:36:37.678Z</time></trkpt><trkpt lat="41.7436367" lon="13.6152197"><ele>306.4</ele><time>2026-04-25T09:36:38.678Z</time></trkpt><trkpt lat="41.7437581" lon="13.6152202"><ele>305.79999999999995</ele><time>2026-04-25T09:36:39.678Z</time></trkpt><trkpt lat="41.7438727" lon="13.6152229"><ele>305.2</ele><time>2026-04-25T09:36:40.678Z</time></trkpt><trkpt lat="41.7439759" lon="13.6152273"><ele>304.59999999999997</ele><time>2026-04-25T09:36:41.678Z</time></trkpt><trkpt lat="41.7440711" lon="13.6152283"><ele>304.0</ele><time>2026-04-25T09:36:42.678Z</time></trkpt><trkpt lat="41.7441517" lon="13.6152348"><ele>304.0</ele><time>2026-04-25T09:36:43.678Z</time></trkpt><trkpt lat="41.7442185" lon="13.6152464"><ele>304.0</ele><time>2026-04-25T09:36:44.678Z</time></trkpt><trkpt lat="41.7443072" lon="13.6153064"><ele>304.0</ele><time>2026-04-25T09:36:46.678Z</time></trkpt><trkpt lat="41.7443264" lon="13.6154234"><ele>304.0</ele><time>2026-04-25T09:36:48.679Z</time></trkpt><trkpt lat="41.7443406" lon="13.615554"><ele>304.0</ele><time>2026-04-25T09:36:50.678Z</time></trkpt><trkpt lat="41.7443977" lon="13.6157108"><ele>302.16666666666663</ele><time>2026-04-25T09:36:52.678Z</time></trkpt><trkpt lat="41.7444552" lon="13.6157669"><ele>300.3333333333333</ele><time>2026-04-25T09:36:53.678Z</time></trkpt><trkpt lat="41.744528" lon="13.6157953"><ele>298.5</ele><time>2026-04-25T09:36:54.678Z</time></trkpt><trkpt lat="41.7446118" lon="13.6157975"><ele>296.6666666666667</ele><time>2026-04-25T09:36:55.678Z</time></trkpt><trkpt lat="41.744703" lon="13.6157647"><ele>294.83333333333337</ele><time>2026-04-25T09:36:56.678Z</time></trkpt><trkpt lat="41.7448149" lon="13.6157357"><ele>293.0</ele><time>2026-04-25T09:36:57.678Z</time></trkpt><trkpt lat="41.7449444" lon="13.6157057"><ele>293.0</ele><time>2026-04-25T09:36:58.678Z</time></trkpt><trkpt lat="41.745078" lon="13.6156643"><ele>293.0</ele><time>2026-04-25T09:36:59.678Z</time></trkpt><trkpt lat="41.7452658" lon="13.6156306"><ele>293.0</ele><time>2026-04-25T09:37:00.678Z</time></trkpt><trkpt lat="41.7453943" lon="13.6155849"><ele>292.5</ele><time>2026-04-25T09:37:01.678Z</time></trkpt><trkpt lat="41.7455442" lon="13.6155223"><ele>292.0</ele><time>2026-04-25T09:37:02.678Z</time></trkpt><trkpt lat="41.7456914" lon="13.6154584"><ele>291.5</ele><time>2026-04-25T09:37:03.678Z</time></trkpt><trkpt lat="41.7458201" lon="13.6154062"><ele>291.0</ele><time>2026-04-25T09:37:04.678Z</time></trkpt><trkpt lat="41.74594" lon="13.6153617"><ele>291.0</ele><time>2026-04-25T09:37:05.679Z</time></trkpt><trkpt lat="41.7460635" lon="13.6153299"><ele>291.0</ele><time>2026-04-25T09:37:06.678Z</time></trkpt><trkpt lat="41.7461873" lon="13.6153044"><ele>291.0</ele><time>2026-04-25T09:37:07.678Z</time></trkpt><trkpt lat="41.7463189" lon="13.6152784"><ele>291.0</ele><time>2026-04-25T09:37:08.678Z</time></trkpt><trkpt lat="41.7465269" lon="13.6152276"><ele>292.0</ele><time>2026-04-25T09:37:09.678Z</time></trkpt><trkpt lat="41.7466525" lon="13.6152087"><ele>293.0</ele><time>2026-04-25T09:37:10.678Z</time></trkpt><trkpt lat="41.7467843" lon="13.6151812"><ele>294.0</ele><time>2026-04-25T09:37:11.678Z</time></trkpt><trkpt lat="41.7469341" lon="13.6151492"><ele>295.0</ele><time>2026-04-25T09:37:12.678Z</time></trkpt><trkpt lat="41.74709" lon="13.6151146"><ele>295.0</ele><time>2026-04-25T09:37:13.678Z</time></trkpt><trkpt lat="41.7472413" lon="13.6150749"><ele>295.0</ele><time>2026-04-25T09:37:14.678Z</time></trkpt><trkpt lat="41.7473934" lon="13.6150225"><ele>295.0</ele><time>2026-04-25T09:37:15.678Z</time></trkpt><trkpt lat="41.7475434" lon="13.6149519"><ele>295.0</ele><time>2026-04-25T09:37:16.678Z</time></trkpt><trkpt lat="41.7476899" lon="13.6148577"><ele>295.0</ele><time>2026-04-25T09:37:17.678Z</time></trkpt><trkpt lat="41.7478309" lon="13.6147544"><ele>295.0</ele><time>2026-04-25T09:37:18.678Z</time></trkpt><trkpt lat="41.7479589" lon="13.6146446"><ele>295.25</ele><time>2026-04-25T09:37:19.678Z</time></trkpt><trkpt lat="41.7480764" lon="13.6145351"><ele>295.5</ele><time>2026-04-25T09:37:20.678Z</time></trkpt><trkpt lat="41.7481796" lon="13.614425"><ele>295.75</ele><time>2026-04-25T09:37:21.678Z</time></trkpt><trkpt lat="41.748271" lon="13.6143185"><ele>296.0</ele><time>2026-04-25T09:37:22.678Z</time></trkpt><trkpt lat="41.7483594" lon="13.6141959"><ele>296.0</ele><time>2026-04-25T09:37:23.678Z</time></trkpt><trkpt lat="41.7484345" lon="13.6140647"><ele>296.0</ele><time>2026-04-25T09:37:24.678Z</time></trkpt><trkpt lat="41.7485184" lon="13.6139223"><ele>296.0</ele><time>2026-04-25T09:37:25.678Z</time></trkpt><trkpt lat="41.7486095" lon="13.6137702"><ele>296.0</ele><time>2026-04-25T09:37:26.678Z</time></trkpt><trkpt lat="41.7487029" lon="13.6136207"><ele>295.33333333333337</ele><time>2026-04-25T09:37:27.678Z</time></trkpt><trkpt lat="41.7488024" lon="13.6134704"><ele>294.6666666666667</ele><time>2026-04-25T09:37:28.678Z</time></trkpt><trkpt lat="41.7489105" lon="13.6133371"><ele>294.0</ele><time>2026-04-25T09:37:29.678Z</time></trkpt><trkpt lat="41.7490183" lon="13.6131908"><ele>294.0</ele><time>2026-04-25T09:37:30.678Z</time></trkpt><trkpt lat="41.7491331" lon="13.6130452"><ele>294.0</ele><time>2026-04-25T09:37:31.678Z</time></trkpt><trkpt lat="41.7492563" lon="13.612891"><ele>294.0</ele><time>2026-04-25T09:37:32.678Z</time></trkpt><trkpt lat="41.7493854" lon="13.6127088"><ele>293.3333333333333</ele><time>2026-04-25T09:37:33.678Z</time></trkpt><trkpt lat="41.7495128" lon="13.6125098"><ele>292.66666666666663</ele><time>2026-04-25T09:37:34.678Z</time></trkpt><trkpt lat="41.7496328" lon="13.6123107"><ele>292.0</ele><time>2026-04-25T09:37:35.678Z</time></trkpt><trkpt lat="41.7497448" lon="13.612108"><ele>293.0</ele><time>2026-04-25T09:37:36.678Z</time></trkpt><trkpt lat="41.7498436" lon="13.6119301"><ele>294.0</ele><time>2026-04-25T09:37:37.678Z</time></trkpt><trkpt lat="41.7499318" lon="13.6117723"><ele>295.0</ele><time>2026-04-25T09:37:38.678Z</time></trkpt><trkpt lat="41.7500417" lon="13.6115911"><ele>295.0</ele><time>2026-04-25T09:37:39.678Z</time></trkpt><trkpt lat="41.7501555" lon="13.6114243"><ele>295.0</ele><time>2026-04-25T09:37:40.678Z</time></trkpt><trkpt lat="41.7502728" lon="13.6112678"><ele>295.0</ele><time>2026-04-25T09:37:41.678Z</time></trkpt><trkpt lat="41.7503885" lon="13.6111214"><ele>295.3333333333333</ele><time>2026-04-25T09:37:42.679Z</time></trkpt><trkpt lat="41.7504947" lon="13.6109623"><ele>295.6666666666667</ele><time>2026-04-25T09:37:43.678Z</time></trkpt><trkpt lat="41.7505958" lon="13.6107952"><ele>296.0</ele><time>2026-04-25T09:37:44.678Z</time></trkpt><trkpt lat="41.7507108" lon="13.6106328"><ele>296.0</ele><time>2026-04-25T09:37:45.678Z</time></trkpt><trkpt lat="41.7508408" lon="13.6104876"><ele>296.0</ele><time>2026-04-25T09:37:46.679Z</time></trkpt><trkpt lat="41.7509795" lon="13.6103592"><ele>296.0</ele><time>2026-04-25T09:37:47.678Z</time></trkpt><trkpt lat="41.7511294" lon="13.6102599"><ele>296.0</ele><time>2026-04-25T09:37:48.678Z</time></trkpt><trkpt lat="41.7512819" lon="13.6101639"><ele>296.0</ele><time>2026-04-25T09:37:49.678Z</time></trkpt><trkpt lat="41.7514332" lon="13.6100737"><ele>296.0</ele><time>2026-04-25T09:37:50.678Z</time></trkpt><trkpt lat="41.7516039" lon="13.6099594"><ele>296.0</ele><time>2026-04-25T09:37:51.678Z</time></trkpt><trkpt lat="41.7517657" lon="13.6098558"><ele>296.0</ele><time>2026-04-25T09:37:52.678Z</time></trkpt><trkpt lat="41.75193" lon="13.6097548"><ele>296.0</ele><time>2026-04-25T09:37:53.678Z</time></trkpt><trkpt lat="41.7520797" lon="13.609672"><ele>295.33333333333337</ele><time>2026-04-25T09:37:54.678Z</time></trkpt><trkpt lat="41.7522288" lon="13.6095863"><ele>294.6666666666667</ele><time>2026-04-25T09:37:55.678Z</time></trkpt><trkpt lat="41.7523777" lon="13.6094938"><ele>294.0</ele><time>2026-04-25T09:37:56.678Z</time></trkpt><trkpt lat="41.7525239" lon="13.6094058"><ele>294.0</ele><time>2026-04-25T09:37:57.679Z</time></trkpt><trkpt lat="41.7526643" lon="13.609321"><ele>294.0</ele><time>2026-04-25T09:37:58.678Z</time></trkpt><trkpt lat="41.7527935" lon="13.6092466"><ele>294.0</ele><time>2026-04-25T09:37:59.678Z</time></trkpt><trkpt lat="41.7529152" lon="13.6091753"><ele>294.0</ele><time>2026-04-25T09:38:00.678Z</time></trkpt><trkpt lat="41.753034" lon="13.6091089"><ele>294.0</ele><time>2026-04-25T09:38:01.678Z</time></trkpt><trkpt lat="41.7531505" lon="13.6090406"><ele>294.0</ele><time>2026-04-25T09:38:02.678Z</time></trkpt><trkpt lat="41.753268" lon="13.6089804"><ele>294.0</ele><time>2026-04-25T09:38:03.678Z</time></trkpt><trkpt lat="41.7533902" lon="13.6089219"><ele>294.0</ele><time>2026-04-25T09:38:04.678Z</time></trkpt><trkpt lat="41.7535259" lon="13.6088768"><ele>294.0</ele><time>2026-04-25T09:38:05.679Z</time></trkpt><trkpt lat="41.7536686" lon="13.608838"><ele>294.0</ele><time>2026-04-25T09:38:06.678Z</time></trkpt><trkpt lat="41.7538142" lon="13.6088021"><ele>294.0</ele><time>2026-04-25T09:38:07.678Z</time></trkpt><trkpt lat="41.7539613" lon="13.6087805"><ele>294.0</ele><time>2026-04-25T09:38:08.678Z</time></trkpt><trkpt lat="41.7541096" lon="13.6087637"><ele>294.0</ele><time>2026-04-25T09:38:09.678Z</time></trkpt><trkpt lat="41.7542592" lon="13.6087542"><ele>294.0</ele><time>2026-04-25T09:38:10.678Z</time></trkpt><trkpt lat="41.7544104" lon="13.6087458"><ele>294.0</ele><time>2026-04-25T09:38:11.678Z</time></trkpt><trkpt lat="41.7545656" lon="13.6087381"><ele>294.3333333333333</ele><time>2026-04-25T09:38:12.678Z</time></trkpt><trkpt lat="41.7547245" lon="13.6087305"><ele>294.66666666666663</ele><time>2026-04-25T09:38:13.678Z</time></trkpt><trkpt lat="41.7548842" lon="13.6087228"><ele>295.0</ele><time>2026-04-25T09:38:14.678Z</time></trkpt><trkpt lat="41.7550423" lon="13.6087178"><ele>295.0</ele><time>2026-04-25T09:38:15.678Z</time></trkpt><trkpt lat="41.7552016" lon="13.6087127"><ele>295.0</ele><time>2026-04-25T09:38:16.678Z</time></trkpt><trkpt lat="41.7553662" lon="13.6087047"><ele>295.0</ele><time>2026-04-25T09:38:17.678Z</time></trkpt><trkpt lat="41.7555269" lon="13.608687"><ele>296.66666666666663</ele><time>2026-04-25T09:38:18.678Z</time></trkpt><trkpt lat="41.7556799" lon="13.6086528"><ele>298.3333333333333</ele><time>2026-04-25T09:38:19.678Z</time></trkpt><trkpt lat="41.7558412" lon="13.6085893"><ele>300.0</ele><time>2026-04-25T09:38:20.678Z</time></trkpt><trkpt lat="41.755997" lon="13.6085171"><ele>300.0</ele><time>2026-04-25T09:38:21.678Z</time></trkpt><trkpt lat="41.7561516" lon="13.6084363"><ele>300.0</ele><time>2026-04-25T09:38:22.678Z</time></trkpt><trkpt lat="41.7563032" lon="13.6083522"><ele>300.0</ele><time>2026-04-25T09:38:23.678Z</time></trkpt><trkpt lat="41.7564347" lon="13.6082715"><ele>300.0</ele><time>2026-04-25T09:38:24.678Z</time></trkpt><trkpt lat="41.7565461" lon="13.6081989"><ele>300.0</ele><time>2026-04-25T09:38:25.678Z</time></trkpt><trkpt lat="41.7566399" lon="13.608127"><ele>300.0</ele><time>2026-04-25T09:38:26.678Z</time></trkpt><trkpt lat="41.7567366" lon="13.6080623"><ele>300.0</ele><time>2026-04-25T09:38:27.679Z</time></trkpt><trkpt lat="41.7568392" lon="13.6080061"><ele>299.5</ele><time>2026-04-25T09:38:28.678Z</time></trkpt><trkpt lat="41.756945" lon="13.6079403"><ele>299.0</ele><time>2026-04-25T09:38:29.678Z</time></trkpt><trkpt lat="41.757057" lon="13.60786"><ele>298.5</ele><time>2026-04-25T09:38:30.678Z</time></trkpt><trkpt lat="41.7571632" lon="13.6077569"><ele>298.0</ele><time>2026-04-25T09:38:31.678Z</time></trkpt><trkpt lat="41.7572652" lon="13.6076301"><ele>298.0</ele><time>2026-04-25T09:38:32.678Z</time></trkpt><trkpt lat="41.7573773" lon="13.6075281"><ele>298.0</ele><time>2026-04-25T09:38:33.678Z</time></trkpt><trkpt lat="41.7575142" lon="13.6074148"><ele>298.0</ele><time>2026-04-25T09:38:34.678Z</time></trkpt><trkpt lat="41.7576656" lon="13.607315"><ele>297.3333333333333</ele><time>2026-04-25T09:38:35.678Z</time></trkpt><trkpt lat="41.7578239" lon="13.6071996"><ele>296.6666666666667</ele><time>2026-04-25T09:38:36.678Z</time></trkpt><trkpt lat="41.7580021" lon="13.6070901"><ele>296.0</ele><time>2026-04-25T09:38:37.678Z</time></trkpt><trkpt lat="41.7582058" lon="13.6069856"><ele>296.33333333333337</ele><time>2026-04-25T09:38:38.678Z</time></trkpt><trkpt lat="41.7583992" lon="13.6068868"><ele>296.6666666666667</ele><time>2026-04-25T09:38:39.679Z</time></trkpt><trkpt lat="41.758586" lon="13.6067971"><ele>297.0</ele><time>2026-04-25T09:38:40.678Z</time></trkpt><trkpt lat="41.758773" lon="13.6067028"><ele>297.0</ele><time>2026-04-25T09:38:41.678Z</time></trkpt><trkpt lat="41.7589493" lon="13.6066022"><ele>297.0</ele><time>2026-04-25T09:38:42.678Z</time></trkpt><trkpt lat="41.7591187" lon="13.6064789"><ele>297.0</ele><time>2026-04-25T09:38:43.679Z</time></trkpt><trkpt lat="41.759272" lon="13.6063483"><ele>297.0</ele><time>2026-04-25T09:38:44.678Z</time></trkpt><trkpt lat="41.7594172" lon="13.6062127"><ele>297.0</ele><time>2026-04-25T09:38:45.678Z</time></trkpt><trkpt lat="41.7595537" lon="13.6060595"><ele>297.0</ele><time>2026-04-25T09:38:46.678Z</time></trkpt><trkpt lat="41.7596737" lon="13.6058993"><ele>297.5</ele><time>2026-04-25T09:38:47.678Z</time></trkpt><trkpt lat="41.7597923" lon="13.6057525"><ele>298.0</ele><time>2026-04-25T09:38:48.678Z</time></trkpt><trkpt lat="41.7599025" lon="13.6056168"><ele>298.5</ele><time>2026-04-25T09:38:49.678Z</time></trkpt><trkpt lat="41.7599963" lon="13.6054966"><ele>299.0</ele><time>2026-04-25T09:38:50.678Z</time></trkpt><trkpt lat="41.7600841" lon="13.6054041"><ele>299.0</ele><time>2026-04-25T09:38:51.678Z</time></trkpt><trkpt lat="41.7601751" lon="13.6053301"><ele>299.0</ele><time>2026-04-25T09:38:52.678Z</time></trkpt><trkpt lat="41.7602736" lon="13.6052835"><ele>299.0</ele><time>2026-04-25T09:38:53.678Z</time></trkpt><trkpt lat="41.760377" lon="13.6052791"><ele>299.0</ele><time>2026-04-25T09:38:54.678Z</time></trkpt><trkpt lat="41.7604858" lon="13.6052932"><ele>299.0</ele><time>2026-04-25T09:38:55.678Z</time></trkpt><trkpt lat="41.7605975" lon="13.6052983"><ele>299.0</ele><time>2026-04-25T09:38:56.678Z</time></trkpt><trkpt lat="41.7607168" lon="13.6052751"><ele>299.0</ele><time>2026-04-25T09:38:57.678Z</time></trkpt><trkpt lat="41.7608302" lon="13.6052161"><ele>299.0</ele><time>2026-04-25T09:38:58.678Z</time></trkpt><trkpt lat="41.7609429" lon="13.6051367"><ele>299.0</ele><time>2026-04-25T09:38:59.678Z</time></trkpt><trkpt lat="41.7610624" lon="13.6050471"><ele>299.0</ele><time>2026-04-25T09:39:00.678Z</time></trkpt><trkpt lat="41.7611823" lon="13.604954"><ele>299.0</ele><time>2026-04-25T09:39:01.678Z</time></trkpt><trkpt lat="41.7612972" lon="13.6048612"><ele>299.0</ele><time>2026-04-25T09:39:02.678Z</time></trkpt><trkpt lat="41.7614038" lon="13.6047588"><ele>299.0</ele><time>2026-04-25T09:39:03.678Z</time></trkpt><trkpt lat="41.7615005" lon="13.6046437"><ele>299.0</ele><time>2026-04-25T09:39:04.678Z</time></trkpt><trkpt lat="41.761598" lon="13.6045193"><ele>299.0</ele><time>2026-04-25T09:39:05.678Z</time></trkpt><trkpt lat="41.7616975" lon="13.6043841"><ele>299.0</ele><time>2026-04-25T09:39:06.678Z</time></trkpt><trkpt lat="41.7617866" lon="13.6042475"><ele>299.0</ele><time>2026-04-25T09:39:07.678Z</time></trkpt><trkpt lat="41.7618726" lon="13.6041212"><ele>298.5</ele><time>2026-04-25T09:39:08.678Z</time></trkpt><trkpt lat="41.7619486" lon="13.6039863"><ele>298.0</ele><time>2026-04-25T09:39:09.678Z</time></trkpt><trkpt lat="41.7620088" lon="13.6038359"><ele>297.5</ele><time>2026-04-25T09:39:10.678Z</time></trkpt><trkpt lat="41.762052" lon="13.6036712"><ele>297.0</ele><time>2026-04-25T09:39:11.678Z</time></trkpt><trkpt lat="41.7620954" lon="13.6035006"><ele>297.0</ele><time>2026-04-25T09:39:12.678Z</time></trkpt><trkpt lat="41.7621433" lon="13.6033333"><ele>297.0</ele><time>2026-04-25T09:39:13.678Z</time></trkpt><trkpt lat="41.7621952" lon="13.6031813"><ele>297.0</ele><time>2026-04-25T09:39:14.678Z</time></trkpt><trkpt lat="41.7622632" lon="13.6030375"><ele>297.0</ele><time>2026-04-25T09:39:15.678Z</time></trkpt><trkpt lat="41.7623427" lon="13.6028995"><ele>298.6666666666667</ele><time>2026-04-25T09:39:16.678Z</time></trkpt><trkpt lat="41.7624456" lon="13.6027775"><ele>300.33333333333337</ele><time>2026-04-25T09:39:17.678Z</time></trkpt><trkpt lat="41.7625635" lon="13.6026517"><ele>302.0</ele><time>2026-04-25T09:39:18.678Z</time></trkpt><trkpt lat="41.7626908" lon="13.6025167"><ele>300.0</ele><time>2026-04-25T09:39:19.678Z</time></trkpt><trkpt lat="41.7628222" lon="13.6023748"><ele>298.0</ele><time>2026-04-25T09:39:20.678Z</time></trkpt><trkpt lat="41.7629548" lon="13.6022318"><ele>296.0</ele><time>2026-04-25T09:39:21.678Z</time></trkpt><trkpt lat="41.7630857" lon="13.6020877"><ele>297.33333333333337</ele><time>2026-04-25T09:39:22.678Z</time></trkpt><trkpt lat="41.763207" lon="13.6019453"><ele>298.6666666666667</ele><time>2026-04-25T09:39:23.678Z</time></trkpt><trkpt lat="41.7633241" lon="13.6018152"><ele>300.0</ele><time>2026-04-25T09:39:24.678Z</time></trkpt><trkpt lat="41.7634338" lon="13.6016912"><ele>299.25</ele><time>2026-04-25T09:39:25.678Z</time></trkpt><trkpt lat="41.7635402" lon="13.6015774"><ele>298.5</ele><time>2026-04-25T09:39:26.678Z</time></trkpt><trkpt lat="41.7636394" lon="13.6014739"><ele>297.75</ele><time>2026-04-25T09:39:27.678Z</time></trkpt><trkpt lat="41.7637375" lon="13.6013761"><ele>297.0</ele><time>2026-04-25T09:39:28.678Z</time></trkpt><trkpt lat="41.7638368" lon="13.6012676"><ele>298.0</ele><time>2026-04-25T09:39:29.678Z</time></trkpt><trkpt lat="41.7639349" lon="13.6011608"><ele>299.0</ele><time>2026-04-25T09:39:30.679Z</time></trkpt><trkpt lat="41.7640253" lon="13.6010592"><ele>300.0</ele><time>2026-04-25T09:39:31.678Z</time></trkpt><trkpt lat="41.7641221" lon="13.6009528"><ele>301.0</ele><time>2026-04-25T09:39:32.678Z</time></trkpt><trkpt lat="41.7642329" lon="13.6008353"><ele>301.0</ele><time>2026-04-25T09:39:33.678Z</time></trkpt><trkpt lat="41.7643428" lon="13.600715"><ele>301.0</ele><time>2026-04-25T09:39:34.678Z</time></trkpt><trkpt lat="41.7644574" lon="13.6006065"><ele>301.0</ele><time>2026-04-25T09:39:35.678Z</time></trkpt><trkpt lat="41.7645625" lon="13.6005379"><ele>301.0</ele><time>2026-04-25T09:39:36.678Z</time></trkpt><trkpt lat="41.7646776" lon="13.6004384"><ele>300.0</ele><time>2026-04-25T09:39:37.678Z</time></trkpt><trkpt lat="41.7648017" lon="13.6003373"><ele>299.0</ele><time>2026-04-25T09:39:38.678Z</time></trkpt><trkpt lat="41.7649365" lon="13.6002348"><ele>298.0</ele><time>2026-04-25T09:39:39.678Z</time></trkpt><trkpt lat="41.7650671" lon="13.600117"><ele>299.0</ele><time>2026-04-25T09:39:40.678Z</time></trkpt><trkpt lat="41.7651942" lon="13.59998"><ele>300.0</ele><time>2026-04-25T09:39:41.678Z</time></trkpt><trkpt lat="41.7653204" lon="13.5998193"><ele>301.0</ele><time>2026-04-25T09:39:42.678Z</time></trkpt><trkpt lat="41.7654388" lon="13.5996504"><ele>301.3333333333333</ele><time>2026-04-25T09:39:43.678Z</time></trkpt><trkpt lat="41.7655529" lon="13.5994747"><ele>301.6666666666667</ele><time>2026-04-25T09:39:44.678Z</time></trkpt><trkpt lat="41.7656736" lon="13.5992939"><ele>302.0</ele><time>2026-04-25T09:39:45.678Z</time></trkpt><trkpt lat="41.7657925" lon="13.5991175"><ele>302.0</ele><time>2026-04-25T09:39:46.679Z</time></trkpt><trkpt lat="41.7659228" lon="13.5989441"><ele>302.0</ele><time>2026-04-25T09:39:47.678Z</time></trkpt><trkpt lat="41.766057" lon="13.5987744"><ele>302.0</ele><time>2026-04-25T09:39:48.678Z</time></trkpt><trkpt lat="41.7661979" lon="13.5986066"><ele>301.0</ele><time>2026-04-25T09:39:49.678Z</time></trkpt><trkpt lat="41.766341" lon="13.5984435"><ele>300.0</ele><time>2026-04-25T09:39:50.678Z</time></trkpt><trkpt lat="41.7664846" lon="13.5982799"><ele>299.0</ele><time>2026-04-25T09:39:51.678Z</time></trkpt><trkpt lat="41.7666219" lon="13.5981353"><ele>299.0</ele><time>2026-04-25T09:39:52.678Z</time></trkpt><trkpt lat="41.7667598" lon="13.598005"><ele>299.0</ele><time>2026-04-25T09:39:53.678Z</time></trkpt><trkpt lat="41.7669057" lon="13.5978643"><ele>299.0</ele><time>2026-04-25T09:39:54.678Z</time></trkpt><trkpt lat="41.7670529" lon="13.597735"><ele>299.6666666666667</ele><time>2026-04-25T09:39:55.678Z</time></trkpt><trkpt lat="41.7671952" lon="13.5976216"><ele>300.3333333333333</ele><time>2026-04-25T09:39:56.678Z</time></trkpt><trkpt lat="41.7673376" lon="13.5975056"><ele>301.0</ele><time>2026-04-25T09:39:57.678Z</time></trkpt><trkpt lat="41.7674837" lon="13.5973906"><ele>301.0</ele><time>2026-04-25T09:39:58.678Z</time></trkpt><trkpt lat="41.7676364" lon="13.5972933"><ele>301.0</ele><time>2026-04-25T09:39:59.678Z</time></trkpt><trkpt lat="41.7677873" lon="13.5972033"><ele>301.0</ele><time>2026-04-25T09:40:00.678Z</time></trkpt><trkpt lat="41.7679335" lon="13.5971258"><ele>301.0</ele><time>2026-04-25T09:40:01.678Z</time></trkpt><trkpt lat="41.7680681" lon="13.5970605"><ele>301.0</ele><time>2026-04-25T09:40:02.678Z</time></trkpt><trkpt lat="41.7681983" lon="13.5970066"><ele>301.0</ele><time>2026-04-25T09:40:03.678Z</time></trkpt><trkpt lat="41.7683241" lon="13.5969723"><ele>301.0</ele><time>2026-04-25T09:40:04.678Z</time></trkpt><trkpt lat="41.7684416" lon="13.5969497"><ele>302.25</ele><time>2026-04-25T09:40:05.678Z</time></trkpt><trkpt lat="41.7685557" lon="13.596934"><ele>303.5</ele><time>2026-04-25T09:40:06.678Z</time></trkpt><trkpt lat="41.7686715" lon="13.5969248"><ele>304.75</ele><time>2026-04-25T09:40:07.678Z</time></trkpt><trkpt lat="41.7687923" lon="13.5969061"><ele>306.0</ele><time>2026-04-25T09:40:08.678Z</time></trkpt><trkpt lat="41.7689184" lon="13.5968743"><ele>306.0</ele><time>2026-04-25T09:40:09.678Z</time></trkpt><trkpt lat="41.7690477" lon="13.5968274"><ele>306.0</ele><time>2026-04-25T09:40:10.678Z</time></trkpt><trkpt lat="41.7691824" lon="13.5967782"><ele>306.0</ele><time>2026-04-25T09:40:11.678Z</time></trkpt><trkpt lat="41.7693204" lon="13.5967407"><ele>306.0</ele><time>2026-04-25T09:40:12.678Z</time></trkpt><trkpt lat="41.7694686" lon="13.5967156"><ele>305.3333333333333</ele><time>2026-04-25T09:40:13.678Z</time></trkpt><trkpt lat="41.7696195" lon="13.5966971"><ele>304.66666666666663</ele><time>2026-04-25T09:40:14.678Z</time></trkpt><trkpt lat="41.7697754" lon="13.5966805"><ele>304.0</ele><time>2026-04-25T09:40:15.678Z</time></trkpt><trkpt lat="41.769936" lon="13.5966762"><ele>304.0</ele><time>2026-04-25T09:40:16.678Z</time></trkpt><trkpt lat="41.7700914" lon="13.5966776"><ele>304.0</ele><time>2026-04-25T09:40:17.678Z</time></trkpt><trkpt lat="41.7702475" lon="13.5966813"><ele>304.0</ele><time>2026-04-25T09:40:18.678Z</time></trkpt><trkpt lat="41.7704018" lon="13.5966916"><ele>304.3333333333333</ele><time>2026-04-25T09:40:19.678Z</time></trkpt><trkpt lat="41.7705613" lon="13.5967079"><ele>304.6666666666667</ele><time>2026-04-25T09:40:20.678Z</time></trkpt><trkpt lat="41.7707173" lon="13.5967202"><ele>305.0</ele><time>2026-04-25T09:40:21.678Z</time></trkpt><trkpt lat="41.7708714" lon="13.5967302"><ele>305.0</ele><time>2026-04-25T09:40:22.678Z</time></trkpt><trkpt lat="41.7710241" lon="13.5967343"><ele>305.0</ele><time>2026-04-25T09:40:23.678Z</time></trkpt><trkpt lat="41.7711707" lon="13.5967357"><ele>305.0</ele><time>2026-04-25T09:40:24.678Z</time></trkpt><trkpt lat="41.7713083" lon="13.5967393"><ele>305.0</ele><time>2026-04-25T09:40:25.678Z</time></trkpt><trkpt lat="41.7714403" lon="13.5967439"><ele>305.0</ele><time>2026-04-25T09:40:26.678Z</time></trkpt><trkpt lat="41.7715723" lon="13.5967288"><ele>305.0</ele><time>2026-04-25T09:40:27.678Z</time></trkpt><trkpt lat="41.7717088" lon="13.5966947"><ele>305.0</ele><time>2026-04-25T09:40:28.678Z</time></trkpt><trkpt lat="41.7718465" lon="13.5966643"><ele>305.0</ele><time>2026-04-25T09:40:29.678Z</time></trkpt><trkpt lat="41.771993" lon="13.5966238"><ele>305.0</ele><time>2026-04-25T09:40:30.678Z</time></trkpt><trkpt lat="41.772128" lon="13.5965717"><ele>305.0</ele><time>2026-04-25T09:40:31.678Z</time></trkpt><trkpt lat="41.7722867" lon="13.5965192"><ele>305.0</ele><time>2026-04-25T09:40:32.678Z</time></trkpt><trkpt lat="41.7724353" lon="13.5964528"><ele>305.0</ele><time>2026-04-25T09:40:33.678Z</time></trkpt><trkpt lat="41.7725787" lon="13.5963792"><ele>305.0</ele><time>2026-04-25T09:40:34.678Z</time></trkpt><trkpt lat="41.7727146" lon="13.5963037"><ele>305.0</ele><time>2026-04-25T09:40:35.678Z</time></trkpt><trkpt lat="41.7728469" lon="13.596209"><ele>305.6666666666667</ele><time>2026-04-25T09:40:36.678Z</time></trkpt><trkpt lat="41.7729728" lon="13.5960929"><ele>306.3333333333333</ele><time>2026-04-25T09:40:37.678Z</time></trkpt><trkpt lat="41.7730929" lon="13.5959644"><ele>307.0</ele><time>2026-04-25T09:40:38.678Z</time></trkpt><trkpt lat="41.7732228" lon="13.5958366"><ele>307.0</ele><time>2026-04-25T09:40:39.678Z</time></trkpt><trkpt lat="41.7733558" lon="13.5957034"><ele>307.0</ele><time>2026-04-25T09:40:40.678Z</time></trkpt><trkpt lat="41.7734891" lon="13.5955729"><ele>307.0</ele><time>2026-04-25T09:40:41.678Z</time></trkpt><trkpt lat="41.7736245" lon="13.595435"><ele>307.0</ele><time>2026-04-25T09:40:42.678Z</time></trkpt><trkpt lat="41.7737555" lon="13.5952945"><ele>307.0</ele><time>2026-04-25T09:40:43.678Z</time></trkpt><trkpt lat="41.7738841" lon="13.5951367"><ele>307.0</ele><time>2026-04-25T09:40:44.678Z</time></trkpt><trkpt lat="41.7740149" lon="13.5949722"><ele>307.0</ele><time>2026-04-25T09:40:45.678Z</time></trkpt><trkpt lat="41.7741522" lon="13.5948068"><ele>307.0</ele><time>2026-04-25T09:40:46.678Z</time></trkpt><trkpt lat="41.7742964" lon="13.5946398"><ele>307.0</ele><time>2026-04-25T09:40:47.678Z</time></trkpt><trkpt lat="41.7744406" lon="13.5944753"><ele>307.0</ele><time>2026-04-25T09:40:48.678Z</time></trkpt><trkpt lat="41.7745864" lon="13.5943189"><ele>307.0</ele><time>2026-04-25T09:40:49.678Z</time></trkpt><trkpt lat="41.7747335" lon="13.5941702"><ele>307.0</ele><time>2026-04-25T09:40:50.678Z</time></trkpt><trkpt lat="41.7748846" lon="13.5940229"><ele>307.0</ele><time>2026-04-25T09:40:51.678Z</time></trkpt><trkpt lat="41.775026" lon="13.5938913"><ele>307.0</ele><time>2026-04-25T09:40:52.678Z</time></trkpt><trkpt lat="41.7751521" lon="13.5937601"><ele>307.0</ele><time>2026-04-25T09:40:53.678Z</time></trkpt><trkpt lat="41.7752662" lon="13.5936219"><ele>307.0</ele><time>2026-04-25T09:40:54.678Z</time></trkpt><trkpt lat="41.7753767" lon="13.5934742"><ele>307.0</ele><time>2026-04-25T09:40:55.678Z</time></trkpt><trkpt lat="41.7754753" lon="13.5933028"><ele>307.0</ele><time>2026-04-25T09:40:56.679Z</time></trkpt><trkpt lat="41.7755724" lon="13.5931163"><ele>307.0</ele><time>2026-04-25T09:40:57.678Z</time></trkpt><trkpt lat="41.7756772" lon="13.5929252"><ele>307.0</ele><time>2026-04-25T09:40:58.678Z</time></trkpt><trkpt lat="41.7757874" lon="13.5927304"><ele>307.0</ele><time>2026-04-25T09:40:59.678Z</time></trkpt><trkpt lat="41.7759032" lon="13.5925336"><ele>307.0</ele><time>2026-04-25T09:41:00.678Z</time></trkpt><trkpt lat="41.776022" lon="13.5923586"><ele>307.0</ele><time>2026-04-25T09:41:01.678Z</time></trkpt><trkpt lat="41.7761431" lon="13.5921785"><ele>307.0</ele><time>2026-04-25T09:41:02.678Z</time></trkpt><trkpt lat="41.7762636" lon="13.5919924"><ele>307.0</ele><time>2026-04-25T09:41:03.679Z</time></trkpt><trkpt lat="41.7763837" lon="13.5918076"><ele>307.0</ele><time>2026-04-25T09:41:04.678Z</time></trkpt><trkpt lat="41.776505" lon="13.591616"><ele>307.0</ele><time>2026-04-25T09:41:05.679Z</time></trkpt><trkpt lat="41.7766243" lon="13.5914237"><ele>307.0</ele><time>2026-04-25T09:41:06.678Z</time></trkpt><trkpt lat="41.7767392" lon="13.5912373"><ele>307.0</ele><time>2026-04-25T09:41:07.678Z</time></trkpt><trkpt lat="41.77685" lon="13.5910596"><ele>307.0</ele><time>2026-04-25T09:41:08.678Z</time></trkpt><trkpt lat="41.776959" lon="13.5908908"><ele>306.3333333333333</ele><time>2026-04-25T09:41:09.678Z</time></trkpt><trkpt lat="41.777062" lon="13.5907214"><ele>305.6666666666667</ele><time>2026-04-25T09:41:10.678Z</time></trkpt><trkpt lat="41.7771621" lon="13.5905421"><ele>305.0</ele><time>2026-04-25T09:41:11.678Z</time></trkpt><trkpt lat="41.777251" lon="13.590347"><ele>305.6666666666667</ele><time>2026-04-25T09:41:12.678Z</time></trkpt><trkpt lat="41.777339" lon="13.5901408"><ele>306.3333333333333</ele><time>2026-04-25T09:41:13.678Z</time></trkpt><trkpt lat="41.7774301" lon="13.5899361"><ele>307.0</ele><time>2026-04-25T09:41:14.678Z</time></trkpt><trkpt lat="41.7775143" lon="13.5897335"><ele>307.0</ele><time>2026-04-25T09:41:15.678Z</time></trkpt><trkpt lat="41.7775962" lon="13.5895127"><ele>307.0</ele><time>2026-04-25T09:41:16.678Z</time></trkpt><trkpt lat="41.7776745" lon="13.5892951"><ele>307.0</ele><time>2026-04-25T09:41:17.678Z</time></trkpt><trkpt lat="41.7777498" lon="13.589075"><ele>306.66666666666663</ele><time>2026-04-25T09:41:18.678Z</time></trkpt><trkpt lat="41.7778202" lon="13.5888564"><ele>306.3333333333333</ele><time>2026-04-25T09:41:19.678Z</time></trkpt><trkpt lat="41.7778848" lon="13.5886471"><ele>306.0</ele><time>2026-04-25T09:41:20.678Z</time></trkpt><trkpt lat="41.7779512" lon="13.5884398"><ele>306.0</ele><time>2026-04-25T09:41:21.678Z</time></trkpt><trkpt lat="41.7780188" lon="13.5882372"><ele>306.0</ele><time>2026-04-25T09:41:22.678Z</time></trkpt><trkpt lat="41.7780893" lon="13.5880414"><ele>306.0</ele><time>2026-04-25T09:41:23.678Z</time></trkpt><trkpt lat="41.7781653" lon="13.5878547"><ele>307.25</ele><time>2026-04-25T09:41:24.678Z</time></trkpt><trkpt lat="41.7782322" lon="13.5876747"><ele>308.5</ele><time>2026-04-25T09:41:25.678Z</time></trkpt><trkpt lat="41.7783006" lon="13.5875057"><ele>309.75</ele><time>2026-04-25T09:41:26.678Z</time></trkpt><trkpt lat="41.7783665" lon="13.5873492"><ele>311.0</ele><time>2026-04-25T09:41:27.678Z</time></trkpt><trkpt lat="41.7784402" lon="13.5872001"><ele>309.75</ele><time>2026-04-25T09:41:28.678Z</time></trkpt><trkpt lat="41.7785213" lon="13.587053"><ele>308.5</ele><time>2026-04-25T09:41:29.678Z</time></trkpt><trkpt lat="41.7786028" lon="13.5869125"><ele>307.25</ele><time>2026-04-25T09:41:30.678Z</time></trkpt><trkpt lat="41.778701" lon="13.5867658"><ele>306.0</ele><time>2026-04-25T09:41:31.678Z</time></trkpt><trkpt lat="41.7787989" lon="13.586611"><ele>306.0</ele><time>2026-04-25T09:41:32.678Z</time></trkpt><trkpt lat="41.7788997" lon="13.5864507"><ele>306.0</ele><time>2026-04-25T09:41:33.678Z</time></trkpt><trkpt lat="41.7790057" lon="13.5862936"><ele>306.0</ele><time>2026-04-25T09:41:34.678Z</time></trkpt><trkpt lat="41.7791176" lon="13.5861383"><ele>306.0</ele><time>2026-04-25T09:41:35.678Z</time></trkpt><trkpt lat="41.7792364" lon="13.585981"><ele>306.0</ele><time>2026-04-25T09:41:36.678Z</time></trkpt><trkpt lat="41.7793571" lon="13.5858243"><ele>306.0</ele><time>2026-04-25T09:41:37.678Z</time></trkpt><trkpt lat="41.7794797" lon="13.585671"><ele>306.0</ele><time>2026-04-25T09:41:38.678Z</time></trkpt><trkpt lat="41.7796022" lon="13.5855335"><ele>306.0</ele><time>2026-04-25T09:41:39.678Z</time></trkpt><trkpt lat="41.7797208" lon="13.5854043"><ele>306.0</ele><time>2026-04-25T09:41:40.678Z</time></trkpt><trkpt lat="41.7798414" lon="13.5852765"><ele>306.75</ele><time>2026-04-25T09:41:41.678Z</time></trkpt><trkpt lat="41.7799619" lon="13.5851502"><ele>307.5</ele><time>2026-04-25T09:41:42.678Z</time></trkpt><trkpt lat="41.7800911" lon="13.585029"><ele>308.25</ele><time>2026-04-25T09:41:43.678Z</time></trkpt><trkpt lat="41.7801948" lon="13.5849117"><ele>309.0</ele><time>2026-04-25T09:41:44.678Z</time></trkpt><trkpt lat="41.7802977" lon="13.5848005"><ele>309.0</ele><time>2026-04-25T09:41:45.678Z</time></trkpt><trkpt lat="41.7803999" lon="13.5847017"><ele>309.0</ele><time>2026-04-25T09:41:46.678Z</time></trkpt><trkpt lat="41.7805069" lon="13.5846237"><ele>309.0</ele><time>2026-04-25T09:41:47.678Z</time></trkpt><trkpt lat="41.7806182" lon="13.5845636"><ele>309.0</ele><time>2026-04-25T09:41:48.678Z</time></trkpt><trkpt lat="41.7807359" lon="13.5845126"><ele>309.4</ele><time>2026-04-25T09:41:49.678Z</time></trkpt><trkpt lat="41.7808412" lon="13.5844561"><ele>309.79999999999995</ele><time>2026-04-25T09:41:50.678Z</time></trkpt><trkpt lat="41.7809505" lon="13.5844042"><ele>310.20000000000005</ele><time>2026-04-25T09:41:51.678Z</time></trkpt><trkpt lat="41.781056" lon="13.5843543"><ele>310.6</ele><time>2026-04-25T09:41:52.678Z</time></trkpt><trkpt lat="41.7811458" lon="13.5843027"><ele>311.0</ele><time>2026-04-25T09:41:53.678Z</time></trkpt><trkpt lat="41.7812334" lon="13.5842408"><ele>311.0</ele><time>2026-04-25T09:41:54.678Z</time></trkpt><trkpt lat="41.7813129" lon="13.5841557"><ele>311.0</ele><time>2026-04-25T09:41:55.678Z</time></trkpt><trkpt lat="41.781411" lon="13.5840618"><ele>311.0</ele><time>2026-04-25T09:41:56.678Z</time></trkpt><trkpt lat="41.781518" lon="13.5839645"><ele>311.0</ele><time>2026-04-25T09:41:57.678Z</time></trkpt><trkpt lat="41.7815979" lon="13.5838751"><ele>311.0</ele><time>2026-04-25T09:41:58.678Z</time></trkpt><trkpt lat="41.7816761" lon="13.5837782"><ele>311.0</ele><time>2026-04-25T09:41:59.678Z</time></trkpt><trkpt lat="41.7817527" lon="13.5836505"><ele>311.0</ele><time>2026-04-25T09:42:00.678Z</time></trkpt><trkpt lat="41.7818176" lon="13.5835059"><ele>311.0</ele><time>2026-04-25T09:42:01.678Z</time></trkpt><trkpt lat="41.7818819" lon="13.5833479"><ele>310.25</ele><time>2026-04-25T09:42:02.678Z</time></trkpt><trkpt lat="41.7819538" lon="13.5831963"><ele>309.5</ele><time>2026-04-25T09:42:03.678Z</time></trkpt><trkpt lat="41.7820417" lon="13.5830256"><ele>308.75</ele><time>2026-04-25T09:42:04.678Z</time></trkpt><trkpt lat="41.7821388" lon="13.5828572"><ele>308.0</ele><time>2026-04-25T09:42:05.678Z</time></trkpt><trkpt lat="41.7822442" lon="13.5826962"><ele>310.0</ele><time>2026-04-25T09:42:06.678Z</time></trkpt><trkpt lat="41.7823504" lon="13.5825666"><ele>312.0</ele><time>2026-04-25T09:42:07.678Z</time></trkpt><trkpt lat="41.782469" lon="13.5824313"><ele>314.0</ele><time>2026-04-25T09:42:08.678Z</time></trkpt><trkpt lat="41.7826081" lon="13.5822867"><ele>312.6666666666667</ele><time>2026-04-25T09:42:09.678Z</time></trkpt><trkpt lat="41.7827428" lon="13.5821319"><ele>311.3333333333333</ele><time>2026-04-25T09:42:10.678Z</time></trkpt><trkpt lat="41.7828702" lon="13.5819825"><ele>310.0</ele><time>2026-04-25T09:42:11.678Z</time></trkpt><trkpt lat="41.7829929" lon="13.5818429"><ele>310.0</ele><time>2026-04-25T09:42:12.678Z</time></trkpt><trkpt lat="41.7831292" lon="13.5817135"><ele>310.0</ele><time>2026-04-25T09:42:13.678Z</time></trkpt><trkpt lat="41.7832574" lon="13.5815995"><ele>310.0</ele><time>2026-04-25T09:42:14.678Z</time></trkpt><trkpt lat="41.7833863" lon="13.5814567"><ele>308.66666666666663</ele><time>2026-04-25T09:42:15.678Z</time></trkpt><trkpt lat="41.7835319" lon="13.5813213"><ele>307.3333333333333</ele><time>2026-04-25T09:42:16.678Z</time></trkpt><trkpt lat="41.7836676" lon="13.5811839"><ele>306.0</ele><time>2026-04-25T09:42:17.678Z</time></trkpt><trkpt lat="41.7838157" lon="13.5810509"><ele>306.0</ele><time>2026-04-25T09:42:18.678Z</time></trkpt><trkpt lat="41.783965" lon="13.5809296"><ele>306.0</ele><time>2026-04-25T09:42:19.678Z</time></trkpt><trkpt lat="41.7841078" lon="13.5808151"><ele>306.0</ele><time>2026-04-25T09:42:20.678Z</time></trkpt><trkpt lat="41.7842452" lon="13.5807096"><ele>306.0</ele><time>2026-04-25T09:42:21.678Z</time></trkpt><trkpt lat="41.7843775" lon="13.5806097"><ele>306.0</ele><time>2026-04-25T09:42:22.678Z</time></trkpt><trkpt lat="41.784502" lon="13.5805223"><ele>306.0</ele><time>2026-04-25T09:42:23.678Z</time></trkpt><trkpt lat="41.7846141" lon="13.5804435"><ele>306.0</ele><time>2026-04-25T09:42:24.678Z</time></trkpt><trkpt lat="41.7847309" lon="13.5803915"><ele>306.0</ele><time>2026-04-25T09:42:25.678Z</time></trkpt><trkpt lat="41.784862" lon="13.5803738"><ele>306.0</ele><time>2026-04-25T09:42:26.679Z</time></trkpt><trkpt lat="41.7849969" lon="13.5803774"><ele>306.0</ele><time>2026-04-25T09:42:27.678Z</time></trkpt><trkpt lat="41.785135" lon="13.5803972"><ele>306.0</ele><time>2026-04-25T09:42:28.678Z</time></trkpt><trkpt lat="41.7852725" lon="13.5804259"><ele>306.75</ele><time>2026-04-25T09:42:29.678Z</time></trkpt><trkpt lat="41.7854096" lon="13.5804619"><ele>307.5</ele><time>2026-04-25T09:42:30.678Z</time></trkpt><trkpt lat="41.7855405" lon="13.5804944"><ele>308.25</ele><time>2026-04-25T09:42:31.678Z</time></trkpt><trkpt lat="41.7856722" lon="13.5805198"><ele>309.0</ele><time>2026-04-25T09:42:32.678Z</time></trkpt><trkpt lat="41.7858102" lon="13.5805335"><ele>309.0</ele><time>2026-04-25T09:42:33.678Z</time></trkpt><trkpt lat="41.7859534" lon="13.5805306"><ele>309.0</ele><time>2026-04-25T09:42:34.678Z</time></trkpt><trkpt lat="41.7860923" lon="13.5805214"><ele>309.0</ele><time>2026-04-25T09:42:35.678Z</time></trkpt><trkpt lat="41.7862252" lon="13.5804958"><ele>309.0</ele><time>2026-04-25T09:42:36.678Z</time></trkpt><trkpt lat="41.7863479" lon="13.5804567"><ele>309.59999999999997</ele><time>2026-04-25T09:42:37.678Z</time></trkpt><trkpt lat="41.7864646" lon="13.580408"><ele>310.2</ele><time>2026-04-25T09:42:38.679Z</time></trkpt><trkpt lat="41.7865649" lon="13.5803692"><ele>310.79999999999995</ele><time>2026-04-25T09:42:39.678Z</time></trkpt><trkpt lat="41.7866584" lon="13.5803271"><ele>311.4</ele><time>2026-04-25T09:42:40.677Z</time></trkpt><trkpt lat="41.7867384" lon="13.5802686"><ele>312.0</ele><time>2026-04-25T09:42:41.677Z</time></trkpt><trkpt lat="41.7868095" lon="13.5801834"><ele>311.6</ele><time>2026-04-25T09:42:42.677Z</time></trkpt><trkpt lat="41.7868726" lon="13.5800859"><ele>311.2</ele><time>2026-04-25T09:42:43.677Z</time></trkpt><trkpt lat="41.7869295" lon="13.5799711"><ele>310.8</ele><time>2026-04-25T09:42:44.677Z</time></trkpt><trkpt lat="41.7869896" lon="13.5798622"><ele>310.4</ele><time>2026-04-25T09:42:45.677Z</time></trkpt><trkpt lat="41.7870593" lon="13.5797668"><ele>310.0</ele><time>2026-04-25T09:42:46.677Z</time></trkpt><trkpt lat="41.7871316" lon="13.5796848"><ele>310.0</ele><time>2026-04-25T09:42:47.677Z</time></trkpt><trkpt lat="41.7872" lon="13.5796079"><ele>310.0</ele><time>2026-04-25T09:42:48.677Z</time></trkpt><trkpt lat="41.7872619" lon="13.5795428"><ele>310.0</ele><time>2026-04-25T09:42:49.677Z</time></trkpt><trkpt lat="41.7873091" lon="13.5794822"><ele>310.0</ele><time>2026-04-25T09:42:50.677Z</time></trkpt><trkpt lat="41.7873453" lon="13.5793984"><ele>310.0</ele><time>2026-04-25T09:42:51.678Z</time></trkpt><trkpt lat="41.7873606" lon="13.5792835"><ele>310.0</ele><time>2026-04-25T09:42:52.677Z</time></trkpt><trkpt lat="41.7873465" lon="13.5791832"><ele>311.0</ele><time>2026-04-25T09:42:53.677Z</time></trkpt><trkpt lat="41.7873299" lon="13.5790887"><ele>312.0</ele><time>2026-04-25T09:42:54.677Z</time></trkpt><trkpt lat="41.787314" lon="13.5789859"><ele>313.0</ele><time>2026-04-25T09:42:55.677Z</time></trkpt><trkpt lat="41.7873569" lon="13.578839"><ele>314.0</ele><time>2026-04-25T09:42:57.677Z</time></trkpt><trkpt lat="41.7874575" lon="13.5787452"><ele>315.0</ele><time>2026-04-25T09:42:59.677Z</time></trkpt><trkpt lat="41.7875223" lon="13.5786634"><ele>314.2</ele><time>2026-04-25T09:43:00.677Z</time></trkpt><trkpt lat="41.7875751" lon="13.5785558"><ele>313.4</ele><time>2026-04-25T09:43:01.677Z</time></trkpt><trkpt lat="41.7876518" lon="13.5784417"><ele>312.6</ele><time>2026-04-25T09:43:02.677Z</time></trkpt><trkpt lat="41.7877274" lon="13.5783122"><ele>311.8</ele><time>2026-04-25T09:43:03.677Z</time></trkpt><trkpt lat="41.7877898" lon="13.5781814"><ele>311.0</ele><time>2026-04-25T09:43:04.677Z</time></trkpt><trkpt lat="41.7878457" lon="13.5780527"><ele>311.0</ele><time>2026-04-25T09:43:05.677Z</time></trkpt><trkpt lat="41.7879083" lon="13.5779083"><ele>311.0</ele><time>2026-04-25T09:43:06.677Z</time></trkpt><trkpt lat="41.7879597" lon="13.5777442"><ele>311.0</ele><time>2026-04-25T09:43:07.677Z</time></trkpt><trkpt lat="41.7880142" lon="13.5775728"><ele>311.0</ele><time>2026-04-25T09:43:08.677Z</time></trkpt><trkpt lat="41.7880892" lon="13.5774107"><ele>312.75</ele><time>2026-04-25T09:43:09.677Z</time></trkpt><trkpt lat="41.7881587" lon="13.5772878"><ele>314.5</ele><time>2026-04-25T09:43:10.677Z</time></trkpt><trkpt lat="41.788263" lon="13.5771954"><ele>316.25</ele><time>2026-04-25T09:43:12.677Z</time></trkpt><trkpt lat="41.7883635" lon="13.5771342"><ele>318.0</ele><time>2026-04-25T09:43:13.677Z</time></trkpt><trkpt lat="41.7884821" lon="13.5770789"><ele>317.5</ele><time>2026-04-25T09:43:14.677Z</time></trkpt><trkpt lat="41.7886236" lon="13.5770265"><ele>317.0</ele><time>2026-04-25T09:43:15.677Z</time></trkpt><trkpt lat="41.7887248" lon="13.5769573"><ele>316.5</ele><time>2026-04-25T09:43:16.677Z</time></trkpt><trkpt lat="41.7887863" lon="13.5769011"><ele>316.0</ele><time>2026-04-25T09:43:17.677Z</time></trkpt><trkpt lat="41.7889155" lon="13.5768264"><ele>316.0</ele><time>2026-04-25T09:43:18.677Z</time></trkpt><trkpt lat="41.7890594" lon="13.5767426"><ele>316.0</ele><time>2026-04-25T09:43:19.677Z</time></trkpt><trkpt lat="41.7891985" lon="13.576652"><ele>316.0</ele><time>2026-04-25T09:43:20.677Z</time></trkpt><trkpt lat="41.7893474" lon="13.5765683"><ele>315.66666666666663</ele><time>2026-04-25T09:43:21.677Z</time></trkpt><trkpt lat="41.7895124" lon="13.5764836"><ele>315.3333333333333</ele><time>2026-04-25T09:43:22.677Z</time></trkpt><trkpt lat="41.7896856" lon="13.5764029"><ele>315.0</ele><time>2026-04-25T09:43:23.677Z</time></trkpt><trkpt lat="41.7898523" lon="13.5763168"><ele>315.0</ele><time>2026-04-25T09:43:24.677Z</time></trkpt><trkpt lat="41.7900362" lon="13.5762332"><ele>315.0</ele><time>2026-04-25T09:43:25.677Z</time></trkpt><trkpt lat="41.7902118" lon="13.576149"><ele>315.0</ele><time>2026-04-25T09:43:26.677Z</time></trkpt><trkpt lat="41.7903839" lon="13.5760631"><ele>316.3333333333333</ele><time>2026-04-25T09:43:27.677Z</time></trkpt><trkpt lat="41.7905418" lon="13.5759771"><ele>317.66666666666663</ele><time>2026-04-25T09:43:28.677Z</time></trkpt><trkpt lat="41.7906898" lon="13.5758837"><ele>319.0</ele><time>2026-04-25T09:43:29.677Z</time></trkpt><trkpt lat="41.7908295" lon="13.5757948"><ele>319.0</ele><time>2026-04-25T09:43:30.677Z</time></trkpt><trkpt lat="41.7909628" lon="13.5757048"><ele>319.0</ele><time>2026-04-25T09:43:31.677Z</time></trkpt><trkpt lat="41.7910814" lon="13.5756122"><ele>319.0</ele><time>2026-04-25T09:43:32.677Z</time></trkpt><trkpt lat="41.7911845" lon="13.5755113"><ele>319.0</ele><time>2026-04-25T09:43:33.677Z</time></trkpt><trkpt lat="41.7912677" lon="13.5754028"><ele>318.8</ele><time>2026-04-25T09:43:34.677Z</time></trkpt><trkpt lat="41.791328" lon="13.5752889"><ele>318.59999999999997</ele><time>2026-04-25T09:43:35.677Z</time></trkpt><trkpt lat="41.7913698" lon="13.5751607"><ele>318.4</ele><time>2026-04-25T09:43:36.678Z</time></trkpt><trkpt lat="41.791403" lon="13.575034"><ele>318.2</ele><time>2026-04-25T09:43:37.677Z</time></trkpt><trkpt lat="41.7914448" lon="13.5749249"><ele>318.0</ele><time>2026-04-25T09:43:38.677Z</time></trkpt><trkpt lat="41.7915018" lon="13.5748204"><ele>318.0</ele><time>2026-04-25T09:43:39.677Z</time></trkpt><trkpt lat="41.79156" lon="13.5747115"><ele>318.0</ele><time>2026-04-25T09:43:40.677Z</time></trkpt><trkpt lat="41.7916167" lon="13.5745975"><ele>318.0</ele><time>2026-04-25T09:43:41.677Z</time></trkpt><trkpt lat="41.7916631" lon="13.5745155"><ele>318.0</ele><time>2026-04-25T09:43:42.677Z</time></trkpt><trkpt lat="41.7917033" lon="13.5744463"><ele>318.0</ele><time>2026-04-25T09:43:43.677Z</time></trkpt><trkpt lat="41.7917585" lon="13.5743809"><ele>318.0</ele><time>2026-04-25T09:43:45.677Z</time></trkpt><trkpt lat="41.7918455" lon="13.5744499"><ele>318.5</ele><time>2026-04-25T09:43:48.677Z</time></trkpt><trkpt lat="41.7919356" lon="13.5745337"><ele>319.0</ele><time>2026-04-25T09:43:49.677Z</time></trkpt><trkpt lat="41.7919929" lon="13.5745952"><ele>319.5</ele><time>2026-04-25T09:43:50.677Z</time></trkpt><trkpt lat="41.7920595" lon="13.574676"><ele>320.0</ele><time>2026-04-25T09:43:51.677Z</time></trkpt><trkpt lat="41.7921169" lon="13.5747476"><ele>320.5</ele><time>2026-04-25T09:43:52.677Z</time></trkpt><trkpt lat="41.7921651" lon="13.5748248"><ele>321.0</ele><time>2026-04-25T09:43:53.677Z</time></trkpt><trkpt lat="41.7922136" lon="13.5748842"><ele>321.0</ele><time>2026-04-25T09:43:54.677Z</time></trkpt><trkpt lat="41.7923203" lon="13.5749321"><ele>321.0</ele><time>2026-04-25T09:43:56.677Z</time></trkpt><trkpt lat="41.7924203" lon="13.5748824"><ele>321.0</ele><time>2026-04-25T09:43:58.677Z</time></trkpt><trkpt lat="41.7925159" lon="13.5748166"><ele>321.0</ele><time>2026-04-25T09:44:00.677Z</time></trkpt><trkpt lat="41.7925759" lon="13.5747711"><ele>321.0</ele><time>2026-04-25T09:44:01.677Z</time></trkpt><trkpt lat="41.7926487" lon="13.5747181"><ele>320.6</ele><time>2026-04-25T09:44:02.677Z</time></trkpt><trkpt lat="41.7927331" lon="13.5746573"><ele>320.20000000000005</ele><time>2026-04-25T09:44:03.677Z</time></trkpt><trkpt lat="41.7928238" lon="13.5745884"><ele>319.79999999999995</ele><time>2026-04-25T09:44:04.677Z</time></trkpt><trkpt lat="41.7929225" lon="13.5745225"><ele>319.4</ele><time>2026-04-25T09:44:05.677Z</time></trkpt><trkpt lat="41.7930325" lon="13.5744549"><ele>319.0</ele><time>2026-04-25T09:44:06.677Z</time></trkpt><trkpt lat="41.793145" lon="13.5743814"><ele>319.0</ele><time>2026-04-25T09:44:07.677Z</time></trkpt><trkpt lat="41.7932749" lon="13.574314"><ele>319.0</ele><time>2026-04-25T09:44:08.677Z</time></trkpt><trkpt lat="41.7934125" lon="13.5742468"><ele>319.0</ele><time>2026-04-25T09:44:09.677Z</time></trkpt><trkpt lat="41.7935648" lon="13.5741752"><ele>319.0</ele><time>2026-04-25T09:44:10.677Z</time></trkpt><trkpt lat="41.7937268" lon="13.5741052"><ele>323.25</ele><time>2026-04-25T09:44:11.677Z</time></trkpt><trkpt lat="41.7938733" lon="13.5740289"><ele>327.5</ele><time>2026-04-25T09:44:12.677Z</time></trkpt><trkpt lat="41.7940028" lon="13.5739516"><ele>331.75</ele><time>2026-04-25T09:44:13.677Z</time></trkpt><trkpt lat="41.7941222" lon="13.5738817"><ele>336.0</ele><time>2026-04-25T09:44:14.677Z</time></trkpt><trkpt lat="41.7942271" lon="13.5738071"><ele>336.0</ele><time>2026-04-25T09:44:15.678Z</time></trkpt><trkpt lat="41.7943076" lon="13.5736957"><ele>336.0</ele><time>2026-04-25T09:44:16.677Z</time></trkpt><trkpt lat="41.7943688" lon="13.5735582"><ele>336.0</ele><time>2026-04-25T09:44:17.677Z</time></trkpt><trkpt lat="41.7944123" lon="13.573403"><ele>336.0</ele><time>2026-04-25T09:44:18.677Z</time></trkpt><trkpt lat="41.7944444" lon="13.5732292"><ele>336.25</ele><time>2026-04-25T09:44:19.677Z</time></trkpt><trkpt lat="41.7944752" lon="13.573049"><ele>336.5</ele><time>2026-04-25T09:44:20.677Z</time></trkpt><trkpt lat="41.7945043" lon="13.5728759"><ele>336.75</ele><time>2026-04-25T09:44:21.677Z</time></trkpt><trkpt lat="41.7945351" lon="13.572708"><ele>337.0</ele><time>2026-04-25T09:44:22.677Z</time></trkpt><trkpt lat="41.7945841" lon="13.5725601"><ele>337.0</ele><time>2026-04-25T09:44:23.677Z</time></trkpt><trkpt lat="41.7946555" lon="13.5724226"><ele>337.0</ele><time>2026-04-25T09:44:24.677Z</time></trkpt><trkpt lat="41.7947474" lon="13.572309"><ele>337.0</ele><time>2026-04-25T09:44:25.677Z</time></trkpt><trkpt lat="41.7948659" lon="13.5722103"><ele>337.0</ele><time>2026-04-25T09:44:26.677Z</time></trkpt><trkpt lat="41.7949985" lon="13.5721045"><ele>336.66666666666663</ele><time>2026-04-25T09:44:27.677Z</time></trkpt><trkpt lat="41.7951431" lon="13.5719945"><ele>336.3333333333333</ele><time>2026-04-25T09:44:28.677Z</time></trkpt><trkpt lat="41.7952898" lon="13.5718821"><ele>336.0</ele><time>2026-04-25T09:44:29.677Z</time></trkpt><trkpt lat="41.7954472" lon="13.5717625"><ele>336.0</ele><time>2026-04-25T09:44:30.677Z</time></trkpt><trkpt lat="41.7955988" lon="13.5716459"><ele>336.0</ele><time>2026-04-25T09:44:31.677Z</time></trkpt><trkpt lat="41.7957464" lon="13.5715331"><ele>336.0</ele><time>2026-04-25T09:44:32.677Z</time></trkpt><trkpt lat="41.7958912" lon="13.5714245"><ele>333.0</ele><time>2026-04-25T09:44:33.677Z</time></trkpt><trkpt lat="41.7960334" lon="13.5713233"><ele>330.0</ele><time>2026-04-25T09:44:34.677Z</time></trkpt><trkpt lat="41.7961654" lon="13.5712507"><ele>327.0</ele><time>2026-04-25T09:44:35.677Z</time></trkpt><trkpt lat="41.7963072" lon="13.5711862"><ele>327.0</ele><time>2026-04-25T09:44:36.677Z</time></trkpt><trkpt lat="41.7964513" lon="13.57116"><ele>327.0</ele><time>2026-04-25T09:44:37.678Z</time></trkpt><trkpt lat="41.7965936" lon="13.5711695"><ele>327.0</ele><time>2026-04-25T09:44:38.677Z</time></trkpt><trkpt lat="41.7967203" lon="13.5712144"><ele>327.0</ele><time>2026-04-25T09:44:39.677Z</time></trkpt><trkpt lat="41.7968301" lon="13.5712859"><ele>328.0</ele><time>2026-04-25T09:44:40.677Z</time></trkpt><trkpt lat="41.7969446" lon="13.5713409"><ele>329.0</ele><time>2026-04-25T09:44:41.677Z</time></trkpt><trkpt lat="41.7970515" lon="13.5713415"><ele>330.0</ele><time>2026-04-25T09:44:42.677Z</time></trkpt><trkpt lat="41.7971442" lon="13.5713045"><ele>331.0</ele><time>2026-04-25T09:44:43.677Z</time></trkpt><trkpt lat="41.7972317" lon="13.5712335"><ele>332.0</ele><time>2026-04-25T09:44:44.677Z</time></trkpt><trkpt lat="41.7973007" lon="13.5711347"><ele>332.0</ele><time>2026-04-25T09:44:45.677Z</time></trkpt><trkpt lat="41.7973692" lon="13.5710492"><ele>332.0</ele><time>2026-04-25T09:44:46.677Z</time></trkpt><trkpt lat="41.7974355" lon="13.5709894"><ele>332.0</ele><time>2026-04-25T09:44:47.677Z</time></trkpt><trkpt lat="41.7975134" lon="13.570972"><ele>332.0</ele><time>2026-04-25T09:44:48.677Z</time></trkpt><trkpt lat="41.7976148" lon="13.5709959"><ele>332.0</ele><time>2026-04-25T09:44:49.677Z</time></trkpt><trkpt lat="41.7977194" lon="13.5710353"><ele>333.6666666666667</ele><time>2026-04-25T09:44:50.677Z</time></trkpt><trkpt lat="41.7978685" lon="13.5710669"><ele>335.3333333333333</ele><time>2026-04-25T09:44:51.677Z</time></trkpt><trkpt lat="41.7980193" lon="13.5710365"><ele>337.0</ele><time>2026-04-25T09:44:52.677Z</time></trkpt><trkpt lat="41.7981562" lon="13.5709644"><ele>337.0</ele><time>2026-04-25T09:44:53.677Z</time></trkpt><trkpt lat="41.7982889" lon="13.5708877"><ele>337.0</ele><time>2026-04-25T09:44:54.677Z</time></trkpt><trkpt lat="41.7983991" lon="13.570821"><ele>337.0</ele><time>2026-04-25T09:44:55.677Z</time></trkpt><trkpt lat="41.798532" lon="13.570779"><ele>337.0</ele><time>2026-04-25T09:44:56.677Z</time></trkpt><trkpt lat="41.7986647" lon="13.5707356"><ele>338.25</ele><time>2026-04-25T09:44:57.677Z</time></trkpt><trkpt lat="41.7988021" lon="13.5707285"><ele>339.5</ele><time>2026-04-25T09:44:58.677Z</time></trkpt><trkpt lat="41.7989504" lon="13.5707536"><ele>340.75</ele><time>2026-04-25T09:44:59.677Z</time></trkpt><trkpt lat="41.7990875" lon="13.57079"><ele>342.0</ele><time>2026-04-25T09:45:00.677Z</time></trkpt><trkpt lat="41.7992185" lon="13.57083"><ele>344.75</ele><time>2026-04-25T09:45:01.677Z</time></trkpt><trkpt lat="41.7993342" lon="13.5708309"><ele>347.5</ele><time>2026-04-25T09:45:02.677Z</time></trkpt><trkpt lat="41.7994406" lon="13.5707835"><ele>350.25</ele><time>2026-04-25T09:45:03.677Z</time></trkpt><trkpt lat="41.7995514" lon="13.5707185"><ele>353.0</ele><time>2026-04-25T09:45:04.677Z</time></trkpt><trkpt lat="41.799644" lon="13.5705844"><ele>353.0</ele><time>2026-04-25T09:45:05.677Z</time></trkpt><trkpt lat="41.7997299" lon="13.5704725"><ele>353.0</ele><time>2026-04-25T09:45:06.677Z</time></trkpt><trkpt lat="41.799829" lon="13.5703587"><ele>353.0</ele><time>2026-04-25T09:45:07.677Z</time></trkpt><trkpt lat="41.7999448" lon="13.5702773"><ele>353.0</ele><time>2026-04-25T09:45:08.677Z</time></trkpt><trkpt lat="41.8000503" lon="13.570204"><ele>352.5</ele><time>2026-04-25T09:45:09.677Z</time></trkpt><trkpt lat="41.8001531" lon="13.5701164"><ele>352.0</ele><time>2026-04-25T09:45:10.677Z</time></trkpt><trkpt lat="41.800264" lon="13.5700296"><ele>351.5</ele><time>2026-04-25T09:45:11.677Z</time></trkpt><trkpt lat="41.8003618" lon="13.5699301"><ele>351.0</ele><time>2026-04-25T09:45:12.677Z</time></trkpt><trkpt lat="41.8004285" lon="13.5698139"><ele>351.0</ele><time>2026-04-25T09:45:13.677Z</time></trkpt><trkpt lat="41.8004797" lon="13.5696847"><ele>351.0</ele><time>2026-04-25T09:45:14.677Z</time></trkpt><trkpt lat="41.8005504" lon="13.5695547"><ele>351.0</ele><time>2026-04-25T09:45:15.677Z</time></trkpt><trkpt lat="41.8006022" lon="13.5694195"><ele>351.0</ele><time>2026-04-25T09:45:16.677Z</time></trkpt><trkpt lat="41.8006621" lon="13.5692941"><ele>348.75</ele><time>2026-04-25T09:45:17.677Z</time></trkpt><trkpt lat="41.8007355" lon="13.5691523"><ele>346.5</ele><time>2026-04-25T09:45:18.677Z</time></trkpt><trkpt lat="41.8008004" lon="13.5690434"><ele>344.25</ele><time>2026-04-25T09:45:19.677Z</time></trkpt><trkpt lat="41.8008751" lon="13.5689286"><ele>342.0</ele><time>2026-04-25T09:45:20.677Z</time></trkpt><trkpt lat="41.800967" lon="13.5688243"><ele>342.25</ele><time>2026-04-25T09:45:21.677Z</time></trkpt><trkpt lat="41.8010809" lon="13.5687345"><ele>342.5</ele><time>2026-04-25T09:45:22.677Z</time></trkpt><trkpt lat="41.8012135" lon="13.5686488"><ele>342.75</ele><time>2026-04-25T09:45:23.677Z</time></trkpt><trkpt lat="41.8013688" lon="13.5685796"><ele>343.0</ele><time>2026-04-25T09:45:24.677Z</time></trkpt><trkpt lat="41.8015206" lon="13.5685045"><ele>343.0</ele><time>2026-04-25T09:45:25.678Z</time></trkpt><trkpt lat="41.8016665" lon="13.5684334"><ele>343.0</ele><time>2026-04-25T09:45:26.677Z</time></trkpt><trkpt lat="41.8018125" lon="13.5683697"><ele>343.0</ele><time>2026-04-25T09:45:27.677Z</time></trkpt><trkpt lat="41.8019627" lon="13.5683117"><ele>343.0</ele><time>2026-04-25T09:45:28.677Z</time></trkpt><trkpt lat="41.8021068" lon="13.5682654"><ele>343.0</ele><time>2026-04-25T09:45:29.677Z</time></trkpt><trkpt lat="41.8022404" lon="13.5682459"><ele>343.0</ele><time>2026-04-25T09:45:30.677Z</time></trkpt><trkpt lat="41.8023666" lon="13.5682615"><ele>343.0</ele><time>2026-04-25T09:45:31.677Z</time></trkpt><trkpt lat="41.8024782" lon="13.5683183"><ele>343.0</ele><time>2026-04-25T09:45:32.677Z</time></trkpt><trkpt lat="41.8025742" lon="13.5684118"><ele>343.0</ele><time>2026-04-25T09:45:33.677Z</time></trkpt><trkpt lat="41.8026587" lon="13.5685452"><ele>343.0</ele><time>2026-04-25T09:45:34.677Z</time></trkpt><trkpt lat="41.802732" lon="13.5686974"><ele>343.0</ele><time>2026-04-25T09:45:35.677Z</time></trkpt><trkpt lat="41.8028043" lon="13.5688455"><ele>343.66666666666663</ele><time>2026-04-25T09:45:36.678Z</time></trkpt><trkpt lat="41.8028627" lon="13.5689678"><ele>344.3333333333333</ele><time>2026-04-25T09:45:37.677Z</time></trkpt><trkpt lat="41.8029231" lon="13.5690621"><ele>345.0</ele><time>2026-04-25T09:45:38.677Z</time></trkpt><trkpt lat="41.8029898" lon="13.5691213"><ele>345.6666666666667</ele><time>2026-04-25T09:45:39.677Z</time></trkpt><trkpt lat="41.8030605" lon="13.5691437"><ele>346.33333333333337</ele><time>2026-04-25T09:45:40.677Z</time></trkpt><trkpt lat="41.8031316" lon="13.5691046"><ele>347.0</ele><time>2026-04-25T09:45:41.677Z</time></trkpt><trkpt lat="41.8032053" lon="13.5690201"><ele>347.0</ele><time>2026-04-25T09:45:42.677Z</time></trkpt><trkpt lat="41.8032699" lon="13.568898"><ele>347.0</ele><time>2026-04-25T09:45:43.677Z</time></trkpt><trkpt lat="41.8033347" lon="13.5687512"><ele>347.0</ele><time>2026-04-25T09:45:44.677Z</time></trkpt><trkpt lat="41.8033828" lon="13.5685807"><ele>347.0</ele><time>2026-04-25T09:45:45.677Z</time></trkpt><trkpt lat="41.8034192" lon="13.5684069"><ele>346.75</ele><time>2026-04-25T09:45:46.677Z</time></trkpt><trkpt lat="41.8034328" lon="13.5682213"><ele>346.5</ele><time>2026-04-25T09:45:47.677Z</time></trkpt><trkpt lat="41.8034195" lon="13.5680178"><ele>346.25</ele><time>2026-04-25T09:45:48.677Z</time></trkpt><trkpt lat="41.8033875" lon="13.5678235"><ele>346.0</ele><time>2026-04-25T09:45:49.677Z</time></trkpt><trkpt lat="41.803335" lon="13.5676378"><ele>348.66666666666663</ele><time>2026-04-25T09:45:50.677Z</time></trkpt><trkpt lat="41.803275" lon="13.5674389"><ele>351.3333333333333</ele><time>2026-04-25T09:45:51.677Z</time></trkpt><trkpt lat="41.8032164" lon="13.5672241"><ele>354.0</ele><time>2026-04-25T09:45:52.677Z</time></trkpt><trkpt lat="41.8031515" lon="13.5670126"><ele>355.6666666666667</ele><time>2026-04-25T09:45:53.677Z</time></trkpt><trkpt lat="41.8030856" lon="13.5668112"><ele>357.33333333333337</ele><time>2026-04-25T09:45:54.677Z</time></trkpt><trkpt lat="41.8030245" lon="13.5666202"><ele>359.0</ele><time>2026-04-25T09:45:55.677Z</time></trkpt><trkpt lat="41.8029669" lon="13.5664432"><ele>359.0</ele><time>2026-04-25T09:45:56.677Z</time></trkpt><trkpt lat="41.8029172" lon="13.5662688"><ele>359.0</ele><time>2026-04-25T09:45:57.677Z</time></trkpt><trkpt lat="41.8028879" lon="13.5660833"><ele>359.0</ele><time>2026-04-25T09:45:58.677Z</time></trkpt><trkpt lat="41.8028686" lon="13.5658882"><ele>359.0</ele><time>2026-04-25T09:45:59.677Z</time></trkpt><trkpt lat="41.8028509" lon="13.5656852"><ele>359.25</ele><time>2026-04-25T09:46:00.677Z</time></trkpt><trkpt lat="41.8028289" lon="13.565498"><ele>359.5</ele><time>2026-04-25T09:46:01.677Z</time></trkpt><trkpt lat="41.802795" lon="13.5653187"><ele>359.75</ele><time>2026-04-25T09:46:02.677Z</time></trkpt><trkpt lat="41.8027634" lon="13.5651479"><ele>360.0</ele><time>2026-04-25T09:46:03.677Z</time></trkpt><trkpt lat="41.8027409" lon="13.5649807"><ele>360.0</ele><time>2026-04-25T09:46:04.677Z</time></trkpt><trkpt lat="41.8027326" lon="13.5648142"><ele>360.0</ele><time>2026-04-25T09:46:05.677Z</time></trkpt><trkpt lat="41.8027405" lon="13.5646377"><ele>360.0</ele><time>2026-04-25T09:46:06.677Z</time></trkpt><trkpt lat="41.8027721" lon="13.5644634"><ele>360.0</ele><time>2026-04-25T09:46:07.677Z</time></trkpt><trkpt lat="41.8028294" lon="13.5642922"><ele>358.6666666666667</ele><time>2026-04-25T09:46:08.677Z</time></trkpt><trkpt lat="41.8029017" lon="13.5641124"><ele>357.33333333333337</ele><time>2026-04-25T09:46:09.677Z</time></trkpt><trkpt lat="41.8029854" lon="13.5639216"><ele>356.0</ele><time>2026-04-25T09:46:10.677Z</time></trkpt><trkpt lat="41.8030786" lon="13.5637308"><ele>353.33333333333337</ele><time>2026-04-25T09:46:11.677Z</time></trkpt><trkpt lat="41.8031796" lon="13.5635493"><ele>350.6666666666667</ele><time>2026-04-25T09:46:12.677Z</time></trkpt><trkpt lat="41.8032835" lon="13.563369"><ele>348.0</ele><time>2026-04-25T09:46:13.677Z</time></trkpt><trkpt lat="41.8033928" lon="13.5632052"><ele>349.0</ele><time>2026-04-25T09:46:14.677Z</time></trkpt><trkpt lat="41.803505" lon="13.5630594"><ele>350.0</ele><time>2026-04-25T09:46:15.677Z</time></trkpt><trkpt lat="41.803618" lon="13.562936"><ele>351.0</ele><time>2026-04-25T09:46:16.677Z</time></trkpt><trkpt lat="41.8037386" lon="13.5628417"><ele>352.0</ele><time>2026-04-25T09:46:17.677Z</time></trkpt><trkpt lat="41.8038688" lon="13.5627875"><ele>349.3333333333333</ele><time>2026-04-25T09:46:18.677Z</time></trkpt><trkpt lat="41.8040204" lon="13.5627635"><ele>346.6666666666667</ele><time>2026-04-25T09:46:19.677Z</time></trkpt><trkpt lat="41.8041749" lon="13.562727"><ele>344.0</ele><time>2026-04-25T09:46:20.677Z</time></trkpt><trkpt lat="41.8043292" lon="13.562685"><ele>344.6666666666667</ele><time>2026-04-25T09:46:21.677Z</time></trkpt><trkpt lat="41.8044819" lon="13.5626206"><ele>345.3333333333333</ele><time>2026-04-25T09:46:22.677Z</time></trkpt><trkpt lat="41.8046322" lon="13.5625497"><ele>346.0</ele><time>2026-04-25T09:46:23.677Z</time></trkpt><trkpt lat="41.8047731" lon="13.56247"><ele>346.0</ele><time>2026-04-25T09:46:24.677Z</time></trkpt><trkpt lat="41.804918" lon="13.5623752"><ele>346.0</ele><time>2026-04-25T09:46:25.677Z</time></trkpt><trkpt lat="41.8050615" lon="13.5622637"><ele>346.0</ele><time>2026-04-25T09:46:26.677Z</time></trkpt><trkpt lat="41.805203" lon="13.5621377"><ele>347.3333333333333</ele><time>2026-04-25T09:46:27.677Z</time></trkpt><trkpt lat="41.8053429" lon="13.5620068"><ele>348.6666666666667</ele><time>2026-04-25T09:46:28.677Z</time></trkpt><trkpt lat="41.805478" lon="13.5618733"><ele>350.0</ele><time>2026-04-25T09:46:29.677Z</time></trkpt><trkpt lat="41.8056127" lon="13.5617487"><ele>350.0</ele><time>2026-04-25T09:46:30.677Z</time></trkpt><trkpt lat="41.8057474" lon="13.5616333"><ele>350.0</ele><time>2026-04-25T09:46:31.677Z</time></trkpt><trkpt lat="41.8058683" lon="13.561524"><ele>350.0</ele><time>2026-04-25T09:46:32.677Z</time></trkpt><trkpt lat="41.8059804" lon="13.5614213"><ele>350.0</ele><time>2026-04-25T09:46:33.677Z</time></trkpt><trkpt lat="41.8060911" lon="13.5613258"><ele>349.75</ele><time>2026-04-25T09:46:34.677Z</time></trkpt><trkpt lat="41.8061931" lon="13.5612436"><ele>349.5</ele><time>2026-04-25T09:46:35.677Z</time></trkpt><trkpt lat="41.8062972" lon="13.5611629"><ele>349.25</ele><time>2026-04-25T09:46:36.677Z</time></trkpt><trkpt lat="41.8064044" lon="13.5610863"><ele>349.0</ele><time>2026-04-25T09:46:37.677Z</time></trkpt><trkpt lat="41.8065149" lon="13.5610132"><ele>349.0</ele><time>2026-04-25T09:46:38.677Z</time></trkpt><trkpt lat="41.8066262" lon="13.5609436"><ele>349.0</ele><time>2026-04-25T09:46:39.677Z</time></trkpt><trkpt lat="41.806744" lon="13.5608775"><ele>349.0</ele><time>2026-04-25T09:46:40.677Z</time></trkpt><trkpt lat="41.8068611" lon="13.5608141"><ele>349.0</ele><time>2026-04-25T09:46:41.677Z</time></trkpt><trkpt lat="41.8069797" lon="13.5607489"><ele>349.0</ele><time>2026-04-25T09:46:42.677Z</time></trkpt><trkpt lat="41.8070951" lon="13.5606869"><ele>349.0</ele><time>2026-04-25T09:46:43.677Z</time></trkpt><trkpt lat="41.8072073" lon="13.5606273"><ele>349.0</ele><time>2026-04-25T09:46:44.678Z</time></trkpt><trkpt lat="41.8073155" lon="13.560567"><ele>349.0</ele><time>2026-04-25T09:46:45.677Z</time></trkpt><trkpt lat="41.8074122" lon="13.5605046"><ele>349.0</ele><time>2026-04-25T09:46:46.677Z</time></trkpt><trkpt lat="41.8075054" lon="13.560437"><ele>349.0</ele><time>2026-04-25T09:46:47.677Z</time></trkpt><trkpt lat="41.8075944" lon="13.5603637"><ele>349.0</ele><time>2026-04-25T09:46:48.677Z</time></trkpt><trkpt lat="41.8076836" lon="13.5602805"><ele>349.0</ele><time>2026-04-25T09:46:49.677Z</time></trkpt><trkpt lat="41.807774" lon="13.5601901"><ele>349.0</ele><time>2026-04-25T09:46:50.677Z</time></trkpt><trkpt lat="41.8078623" lon="13.5600979"><ele>349.2</ele><time>2026-04-25T09:46:51.677Z</time></trkpt><trkpt lat="41.8079468" lon="13.5600071"><ele>349.4</ele><time>2026-04-25T09:46:52.677Z</time></trkpt><trkpt lat="41.808025" lon="13.5599143"><ele>349.6</ele><time>2026-04-25T09:46:53.677Z</time></trkpt><trkpt lat="41.8081004" lon="13.5598269"><ele>349.8</ele><time>2026-04-25T09:46:54.677Z</time></trkpt><trkpt lat="41.8081744" lon="13.5597339"><ele>350.0</ele><time>2026-04-25T09:46:55.677Z</time></trkpt><trkpt lat="41.8082514" lon="13.5596343"><ele>350.0</ele><time>2026-04-25T09:46:56.677Z</time></trkpt><trkpt lat="41.8083289" lon="13.5595391"><ele>350.0</ele><time>2026-04-25T09:46:57.677Z</time></trkpt><trkpt lat="41.8084086" lon="13.5594397"><ele>350.0</ele><time>2026-04-25T09:46:58.677Z</time></trkpt><trkpt lat="41.8084989" lon="13.5593043"><ele>350.0</ele><time>2026-04-25T09:46:59.677Z</time></trkpt><trkpt lat="41.8085702" lon="13.5592173"><ele>350.0</ele><time>2026-04-25T09:47:00.677Z</time></trkpt><trkpt lat="41.8086381" lon="13.5591248"><ele>350.0</ele><time>2026-04-25T09:47:01.677Z</time></trkpt><trkpt lat="41.8087111" lon="13.5590334"><ele>350.0</ele><time>2026-04-25T09:47:02.677Z</time></trkpt><trkpt lat="41.8087758" lon="13.5589505"><ele>350.0</ele><time>2026-04-25T09:47:03.677Z</time></trkpt><trkpt lat="41.8088412" lon="13.5588706"><ele>350.0</ele><time>2026-04-25T09:47:04.677Z</time></trkpt><trkpt lat="41.8089042" lon="13.5587944"><ele>350.0</ele><time>2026-04-25T09:47:05.677Z</time></trkpt><trkpt lat="41.8089645" lon="13.558723"><ele>350.0</ele><time>2026-04-25T09:47:06.677Z</time></trkpt><trkpt lat="41.8090313" lon="13.5586479"><ele>350.0</ele><time>2026-04-25T09:47:07.677Z</time></trkpt><trkpt lat="41.8091157" lon="13.558533"><ele>350.0</ele><time>2026-04-25T09:47:08.677Z</time></trkpt><trkpt lat="41.8091849" lon="13.5584553"><ele>350.0</ele><time>2026-04-25T09:47:09.677Z</time></trkpt><trkpt lat="41.8092538" lon="13.5583662"><ele>350.0</ele><time>2026-04-25T09:47:10.678Z</time></trkpt><trkpt lat="41.8093246" lon="13.5582727"><ele>350.0</ele><time>2026-04-25T09:47:11.677Z</time></trkpt><trkpt lat="41.8094014" lon="13.5581901"><ele>349.8</ele><time>2026-04-25T09:47:12.677Z</time></trkpt><trkpt lat="41.8094742" lon="13.5581043"><ele>349.6</ele><time>2026-04-25T09:47:13.677Z</time></trkpt><trkpt lat="41.8095364" lon="13.5580155"><ele>349.4</ele><time>2026-04-25T09:47:14.677Z</time></trkpt><trkpt lat="41.809604" lon="13.5579285"><ele>349.2</ele><time>2026-04-25T09:47:15.677Z</time></trkpt><trkpt lat="41.8096728" lon="13.5578398"><ele>349.0</ele><time>2026-04-25T09:47:16.677Z</time></trkpt><trkpt lat="41.8097395" lon="13.5577525"><ele>349.0</ele><time>2026-04-25T09:47:17.677Z</time></trkpt><trkpt lat="41.8098074" lon="13.5576669"><ele>349.0</ele><time>2026-04-25T09:47:18.677Z</time></trkpt><trkpt lat="41.8098755" lon="13.557582"><ele>349.0</ele><time>2026-04-25T09:47:19.677Z</time></trkpt><trkpt lat="41.809945" lon="13.5575022"><ele>349.0</ele><time>2026-04-25T09:47:20.677Z</time></trkpt><trkpt lat="41.8100055" lon="13.5574221"><ele>349.0</ele><time>2026-04-25T09:47:21.677Z</time></trkpt><trkpt lat="41.8100705" lon="13.5573425"><ele>349.0</ele><time>2026-04-25T09:47:22.677Z</time></trkpt><trkpt lat="41.8101442" lon="13.5572597"><ele>349.0</ele><time>2026-04-25T09:47:23.677Z</time></trkpt><trkpt lat="41.8102142" lon="13.5571784"><ele>349.0</ele><time>2026-04-25T09:47:24.677Z</time></trkpt><trkpt lat="41.8102929" lon="13.5570893"><ele>349.0</ele><time>2026-04-25T09:47:25.677Z</time></trkpt><trkpt lat="41.8103836" lon="13.5569979"><ele>349.0</ele><time>2026-04-25T09:47:26.677Z</time></trkpt><trkpt lat="41.8104692" lon="13.5569016"><ele>349.25</ele><time>2026-04-25T09:47:27.677Z</time></trkpt><trkpt lat="41.8105555" lon="13.5568039"><ele>349.5</ele><time>2026-04-25T09:47:28.678Z</time></trkpt><trkpt lat="41.8106481" lon="13.5567161"><ele>349.75</ele><time>2026-04-25T09:47:29.677Z</time></trkpt><trkpt lat="41.8107407" lon="13.5566299"><ele>350.0</ele><time>2026-04-25T09:47:30.677Z</time></trkpt><trkpt lat="41.8108327" lon="13.5565412"><ele>350.0</ele><time>2026-04-25T09:47:31.677Z</time></trkpt><trkpt lat="41.81093" lon="13.5564566"><ele>350.0</ele><time>2026-04-25T09:47:32.677Z</time></trkpt><trkpt lat="41.8110339" lon="13.5563745"><ele>350.0</ele><time>2026-04-25T09:47:33.677Z</time></trkpt><trkpt lat="41.8111371" lon="13.5562981"><ele>350.0</ele><time>2026-04-25T09:47:34.677Z</time></trkpt><trkpt lat="41.8112543" lon="13.5562299"><ele>348.75</ele><time>2026-04-25T09:47:35.677Z</time></trkpt><trkpt lat="41.8113644" lon="13.5561786"><ele>347.5</ele><time>2026-04-25T09:47:36.677Z</time></trkpt><trkpt lat="41.8114918" lon="13.5561263"><ele>346.25</ele><time>2026-04-25T09:47:37.677Z</time></trkpt><trkpt lat="41.8116214" lon="13.5560851"><ele>345.0</ele><time>2026-04-25T09:47:38.677Z</time></trkpt><trkpt lat="41.8117507" lon="13.5560528"><ele>345.75</ele><time>2026-04-25T09:47:39.677Z</time></trkpt><trkpt lat="41.8118809" lon="13.556031"><ele>346.5</ele><time>2026-04-25T09:47:40.677Z</time></trkpt><trkpt lat="41.8120114" lon="13.5560131"><ele>347.25</ele><time>2026-04-25T09:47:41.677Z</time></trkpt><trkpt lat="41.8121437" lon="13.5559892"><ele>348.0</ele><time>2026-04-25T09:47:42.677Z</time></trkpt><trkpt lat="41.8122706" lon="13.555963"><ele>348.0</ele><time>2026-04-25T09:47:43.677Z</time></trkpt><trkpt lat="41.8123978" lon="13.555935"><ele>348.0</ele><time>2026-04-25T09:47:44.678Z</time></trkpt><trkpt lat="41.8125167" lon="13.5559047"><ele>348.0</ele><time>2026-04-25T09:47:45.677Z</time></trkpt><trkpt lat="41.8126217" lon="13.5558621"><ele>348.0</ele><time>2026-04-25T09:47:46.677Z</time></trkpt><trkpt lat="41.8127221" lon="13.5558012"><ele>348.5</ele><time>2026-04-25T09:47:47.677Z</time></trkpt><trkpt lat="41.8128149" lon="13.5557159"><ele>349.0</ele><time>2026-04-25T09:47:48.677Z</time></trkpt><trkpt lat="41.8129002" lon="13.5556107"><ele>349.5</ele><time>2026-04-25T09:47:49.677Z</time></trkpt><trkpt lat="41.812978" lon="13.5554777"><ele>350.0</ele><time>2026-04-25T09:47:50.677Z</time></trkpt><trkpt lat="41.8130482" lon="13.5553347"><ele>350.0</ele><time>2026-04-25T09:47:51.677Z</time></trkpt><trkpt lat="41.8131158" lon="13.5551845"><ele>350.0</ele><time>2026-04-25T09:47:52.677Z</time></trkpt><trkpt lat="41.8131831" lon="13.5550354"><ele>350.0</ele><time>2026-04-25T09:47:53.678Z</time></trkpt><trkpt lat="41.8132525" lon="13.5548866"><ele>350.0</ele><time>2026-04-25T09:47:54.677Z</time></trkpt><trkpt lat="41.8133225" lon="13.5547355"><ele>350.0</ele><time>2026-04-25T09:47:55.677Z</time></trkpt><trkpt lat="41.8133932" lon="13.5545785"><ele>350.0</ele><time>2026-04-25T09:47:56.677Z</time></trkpt><trkpt lat="41.8134619" lon="13.5544151"><ele>350.0</ele><time>2026-04-25T09:47:57.677Z</time></trkpt><trkpt lat="41.8135333" lon="13.5542478"><ele>350.0</ele><time>2026-04-25T09:47:58.677Z</time></trkpt><trkpt lat="41.8136058" lon="13.554077"><ele>350.25</ele><time>2026-04-25T09:47:59.678Z</time></trkpt><trkpt lat="41.8136819" lon="13.5539051"><ele>350.5</ele><time>2026-04-25T09:48:00.677Z</time></trkpt><trkpt lat="41.8137605" lon="13.5537327"><ele>350.75</ele><time>2026-04-25T09:48:01.677Z</time></trkpt><trkpt lat="41.8138381" lon="13.5535672"><ele>351.0</ele><time>2026-04-25T09:48:02.677Z</time></trkpt><trkpt lat="41.8139045" lon="13.5534096"><ele>351.0</ele><time>2026-04-25T09:48:03.677Z</time></trkpt><trkpt lat="41.8139726" lon="13.5532532"><ele>351.0</ele><time>2026-04-25T09:48:04.677Z</time></trkpt><trkpt lat="41.81404" lon="13.5531032"><ele>351.0</ele><time>2026-04-25T09:48:05.677Z</time></trkpt><trkpt lat="41.8141094" lon="13.5529566"><ele>351.0</ele><time>2026-04-25T09:48:06.677Z</time></trkpt><trkpt lat="41.8141878" lon="13.5528213"><ele>350.5</ele><time>2026-04-25T09:48:07.677Z</time></trkpt><trkpt lat="41.814265" lon="13.5526906"><ele>350.0</ele><time>2026-04-25T09:48:08.677Z</time></trkpt><trkpt lat="41.8143467" lon="13.5525827"><ele>349.5</ele><time>2026-04-25T09:48:09.677Z</time></trkpt><trkpt lat="41.814433" lon="13.5524891"><ele>349.0</ele><time>2026-04-25T09:48:10.677Z</time></trkpt><trkpt lat="41.8145175" lon="13.5524164"><ele>349.0</ele><time>2026-04-25T09:48:11.677Z</time></trkpt><trkpt lat="41.8145991" lon="13.5523601"><ele>349.0</ele><time>2026-04-25T09:48:12.677Z</time></trkpt><trkpt lat="41.814675" lon="13.552297"><ele>349.0</ele><time>2026-04-25T09:48:13.677Z</time></trkpt><trkpt lat="41.8147298" lon="13.5522284"><ele>349.0</ele><time>2026-04-25T09:48:14.677Z</time></trkpt><trkpt lat="41.8147662" lon="13.5521461"><ele>349.0</ele><time>2026-04-25T09:48:15.677Z</time></trkpt><trkpt lat="41.814783" lon="13.552059"><ele>349.0</ele><time>2026-04-25T09:48:16.677Z</time></trkpt><trkpt lat="41.8147923" lon="13.5519591"><ele>348.16666666666663</ele><time>2026-04-25T09:48:17.677Z</time></trkpt><trkpt lat="41.8147858" lon="13.5518575"><ele>347.3333333333333</ele><time>2026-04-25T09:48:18.678Z</time></trkpt><trkpt lat="41.8147657" lon="13.551752"><ele>346.5</ele><time>2026-04-25T09:48:19.677Z</time></trkpt><trkpt lat="41.8147408" lon="13.5516488"><ele>345.6666666666667</ele><time>2026-04-25T09:48:20.677Z</time></trkpt><trkpt lat="41.8147087" lon="13.5515466"><ele>344.83333333333337</ele><time>2026-04-25T09:48:21.677Z</time></trkpt><trkpt lat="41.8146667" lon="13.551442"><ele>344.0</ele><time>2026-04-25T09:48:22.677Z</time></trkpt><trkpt lat="41.8146185" lon="13.551338"><ele>344.0</ele><time>2026-04-25T09:48:23.677Z</time></trkpt><trkpt lat="41.8145771" lon="13.5512328"><ele>344.0</ele><time>2026-04-25T09:48:24.677Z</time></trkpt><trkpt lat="41.8145266" lon="13.5511151"><ele>344.0</ele><time>2026-04-25T09:48:25.678Z</time></trkpt><trkpt lat="41.8144706" lon="13.5509866"><ele>344.0</ele><time>2026-04-25T09:48:26.677Z</time></trkpt><trkpt lat="41.8144124" lon="13.5508539"><ele>344.0</ele><time>2026-04-25T09:48:27.677Z</time></trkpt><trkpt lat="41.8143525" lon="13.5507193"><ele>343.79999999999995</ele><time>2026-04-25T09:48:28.677Z</time></trkpt><trkpt lat="41.8142964" lon="13.5505949"><ele>343.59999999999997</ele><time>2026-04-25T09:48:29.677Z</time></trkpt><trkpt lat="41.8142419" lon="13.5504751"><ele>343.4</ele><time>2026-04-25T09:48:30.677Z</time></trkpt><trkpt lat="41.8141913" lon="13.5503552"><ele>343.2</ele><time>2026-04-25T09:48:31.677Z</time></trkpt><trkpt lat="41.814143" lon="13.550235"><ele>343.0</ele><time>2026-04-25T09:48:32.677Z</time></trkpt><trkpt lat="41.8140983" lon="13.5501143"><ele>342.79999999999995</ele><time>2026-04-25T09:48:33.677Z</time></trkpt><trkpt lat="41.8140677" lon="13.549996"><ele>342.6</ele><time>2026-04-25T09:48:34.677Z</time></trkpt><trkpt lat="41.8140529" lon="13.5498756"><ele>342.4</ele><time>2026-04-25T09:48:35.677Z</time></trkpt><trkpt lat="41.8140592" lon="13.5497558"><ele>342.20000000000005</ele><time>2026-04-25T09:48:36.677Z</time></trkpt><trkpt lat="41.8140917" lon="13.5496433"><ele>342.0</ele><time>2026-04-25T09:48:37.678Z</time></trkpt><trkpt lat="41.8141462" lon="13.5495388"><ele>341.5</ele><time>2026-04-25T09:48:38.677Z</time></trkpt><trkpt lat="41.814213" lon="13.5494558"><ele>341.0</ele><time>2026-04-25T09:48:39.677Z</time></trkpt><trkpt lat="41.8142862" lon="13.5493951"><ele>340.5</ele><time>2026-04-25T09:48:40.677Z</time></trkpt><trkpt lat="41.8143572" lon="13.5493507"><ele>340.0</ele><time>2026-04-25T09:48:41.677Z</time></trkpt><trkpt lat="41.8144236" lon="13.5493028"><ele>339.5</ele><time>2026-04-25T09:48:42.677Z</time></trkpt><trkpt lat="41.8144815" lon="13.5492481"><ele>339.0</ele><time>2026-04-25T09:48:43.677Z</time></trkpt><trkpt lat="41.8145501" lon="13.5491914"><ele>339.0</ele><time>2026-04-25T09:48:44.677Z</time></trkpt><trkpt lat="41.8145978" lon="13.5491312"><ele>339.0</ele><time>2026-04-25T09:48:45.677Z</time></trkpt><trkpt lat="41.814674" lon="13.5490393"><ele>339.0</ele><time>2026-04-25T09:48:47.677Z</time></trkpt><trkpt lat="41.8147297" lon="13.5489422"><ele>339.0</ele><time>2026-04-25T09:53:01.676Z</time></trkpt><trkpt lat="41.8148382" lon="13.548857"><ele>339.0</ele><time>2026-04-25T09:53:03.676Z</time></trkpt><trkpt lat="41.8149021" lon="13.5488063"><ele>339.0</ele><time>2026-04-25T09:53:04.676Z</time></trkpt><trkpt lat="41.8149807" lon="13.5487421"><ele>339.0</ele><time>2026-04-25T09:53:05.676Z</time></trkpt><trkpt lat="41.8150534" lon="13.5486777"><ele>339.0</ele><time>2026-04-25T09:53:06.676Z</time></trkpt><trkpt lat="41.8151337" lon="13.5485965"><ele>339.0</ele><time>2026-04-25T09:53:07.676Z</time></trkpt><trkpt lat="41.8152154" lon="13.5485134"><ele>339.0</ele><time>2026-04-25T09:53:08.676Z</time></trkpt><trkpt lat="41.8153023" lon="13.5484242"><ele>339.4</ele><time>2026-04-25T09:53:09.676Z</time></trkpt><trkpt lat="41.8153918" lon="13.548345"><ele>339.79999999999995</ele><time>2026-04-25T09:53:10.676Z</time></trkpt><trkpt lat="41.8154806" lon="13.5482715"><ele>340.20000000000005</ele><time>2026-04-25T09:53:11.676Z</time></trkpt><trkpt lat="41.8155821" lon="13.5482207"><ele>340.6</ele><time>2026-04-25T09:53:12.676Z</time></trkpt><trkpt lat="41.8156972" lon="13.5481878"><ele>341.0</ele><time>2026-04-25T09:53:13.676Z</time></trkpt><trkpt lat="41.815815" lon="13.5481783"><ele>341.0</ele><time>2026-04-25T09:53:14.677Z</time></trkpt><trkpt lat="41.8159279" lon="13.5481878"><ele>341.0</ele><time>2026-04-25T09:53:15.676Z</time></trkpt><trkpt lat="41.8160376" lon="13.5482045"><ele>341.0</ele><time>2026-04-25T09:53:16.677Z</time></trkpt><trkpt lat="41.8161394" lon="13.5482188"><ele>341.0</ele><time>2026-04-25T09:53:17.676Z</time></trkpt><trkpt lat="41.8162342" lon="13.5482237"><ele>341.0</ele><time>2026-04-25T09:53:18.676Z</time></trkpt><trkpt lat="41.8163336" lon="13.5482094"><ele>341.0</ele><time>2026-04-25T09:53:19.676Z</time></trkpt><trkpt lat="41.8164292" lon="13.54815"><ele>341.0</ele><time>2026-04-25T09:53:20.676Z</time></trkpt><trkpt lat="41.8165255" lon="13.5480495"><ele>341.0</ele><time>2026-04-25T09:53:21.676Z</time></trkpt><trkpt lat="41.8165926" lon="13.5479187"><ele>341.0</ele><time>2026-04-25T09:53:22.676Z</time></trkpt><trkpt lat="41.8166783" lon="13.5477797"><ele>341.5</ele><time>2026-04-25T09:53:23.676Z</time></trkpt><trkpt lat="41.816766" lon="13.5476514"><ele>342.0</ele><time>2026-04-25T09:53:24.677Z</time></trkpt><trkpt lat="41.8168476" lon="13.5475077"><ele>342.5</ele><time>2026-04-25T09:53:25.676Z</time></trkpt><trkpt lat="41.8169371" lon="13.5473658"><ele>343.0</ele><time>2026-04-25T09:53:26.677Z</time></trkpt><trkpt lat="41.8170138" lon="13.5472161"><ele>343.0</ele><time>2026-04-25T09:53:27.676Z</time></trkpt><trkpt lat="41.8170825" lon="13.5470575"><ele>343.0</ele><time>2026-04-25T09:53:28.676Z</time></trkpt><trkpt lat="41.8171381" lon="13.5468791"><ele>343.0</ele><time>2026-04-25T09:53:29.676Z</time></trkpt><trkpt lat="41.8171829" lon="13.5466875"><ele>343.0</ele><time>2026-04-25T09:53:30.676Z</time></trkpt><trkpt lat="41.81722" lon="13.5464764"><ele>345.66666666666663</ele><time>2026-04-25T09:53:31.676Z</time></trkpt><trkpt lat="41.8172672" lon="13.5462627"><ele>348.3333333333333</ele><time>2026-04-25T09:53:32.676Z</time></trkpt><trkpt lat="41.8173124" lon="13.5460598"><ele>351.0</ele><time>2026-04-25T09:53:33.676Z</time></trkpt><trkpt lat="41.8173514" lon="13.54586"><ele>352.6666666666667</ele><time>2026-04-25T09:53:34.676Z</time></trkpt><trkpt lat="41.8173883" lon="13.5456573"><ele>354.33333333333337</ele><time>2026-04-25T09:53:35.676Z</time></trkpt><trkpt lat="41.8174112" lon="13.5454498"><ele>356.0</ele><time>2026-04-25T09:53:36.676Z</time></trkpt><trkpt lat="41.8174158" lon="13.5452234"><ele>357.6666666666667</ele><time>2026-04-25T09:53:37.676Z</time></trkpt><trkpt lat="41.817422" lon="13.544986"><ele>359.3333333333333</ele><time>2026-04-25T09:53:38.676Z</time></trkpt><trkpt lat="41.8174184" lon="13.5447444"><ele>361.0</ele><time>2026-04-25T09:53:39.676Z</time></trkpt><trkpt lat="41.8174214" lon="13.5445055"><ele>363.3333333333333</ele><time>2026-04-25T09:53:40.676Z</time></trkpt><trkpt lat="41.8174349" lon="13.5442729"><ele>365.6666666666667</ele><time>2026-04-25T09:53:41.676Z</time></trkpt><trkpt lat="41.8174631" lon="13.544065"><ele>368.0</ele><time>2026-04-25T09:53:42.676Z</time></trkpt><trkpt lat="41.8175023" lon="13.5438566"><ele>370.33333333333337</ele><time>2026-04-25T09:53:43.676Z</time></trkpt><trkpt lat="41.8175505" lon="13.5436601"><ele>372.6666666666667</ele><time>2026-04-25T09:53:44.676Z</time></trkpt><trkpt lat="41.8176059" lon="13.5434664"><ele>375.0</ele><time>2026-04-25T09:53:45.676Z</time></trkpt><trkpt lat="41.8176649" lon="13.5432889"><ele>370.5</ele><time>2026-04-25T09:53:46.676Z</time></trkpt><trkpt lat="41.8177111" lon="13.543102"><ele>366.0</ele><time>2026-04-25T09:53:47.676Z</time></trkpt><trkpt lat="41.8177499" lon="13.5429122"><ele>361.5</ele><time>2026-04-25T09:53:48.676Z</time></trkpt><trkpt lat="41.8177716" lon="13.5427446"><ele>357.0</ele><time>2026-04-25T09:53:49.676Z</time></trkpt><trkpt lat="41.8177599" lon="13.542596"><ele>357.0</ele><time>2026-04-25T09:53:50.676Z</time></trkpt><trkpt lat="41.8177167" lon="13.5424701"><ele>357.0</ele><time>2026-04-25T09:53:51.676Z</time></trkpt><trkpt lat="41.8176463" lon="13.5423742"><ele>357.0</ele><time>2026-04-25T09:53:52.676Z</time></trkpt><trkpt lat="41.817566" lon="13.5423348"><ele>357.0</ele><time>2026-04-25T09:53:53.676Z</time></trkpt><trkpt lat="41.8174798" lon="13.5423465"><ele>357.0</ele><time>2026-04-25T09:53:54.676Z</time></trkpt><trkpt lat="41.8174121" lon="13.5424068"><ele>361.5</ele><time>2026-04-25T09:53:55.676Z</time></trkpt><trkpt lat="41.8173554" lon="13.5425094"><ele>366.0</ele><time>2026-04-25T09:53:56.676Z</time></trkpt><trkpt lat="41.817292" lon="13.5426476"><ele>370.5</ele><time>2026-04-25T09:53:57.676Z</time></trkpt><trkpt lat="41.8172301" lon="13.5428077"><ele>375.0</ele><time>2026-04-25T09:53:58.676Z</time></trkpt><trkpt lat="41.8171718" lon="13.5429408"><ele>375.0</ele><time>2026-04-25T09:53:59.676Z</time></trkpt><trkpt lat="41.8170975" lon="13.5430446"><ele>375.0</ele><time>2026-04-25T09:54:00.676Z</time></trkpt><trkpt lat="41.8170142" lon="13.5431251"><ele>375.0</ele><time>2026-04-25T09:54:01.676Z</time></trkpt><trkpt lat="41.8169257" lon="13.5431775"><ele>375.0</ele><time>2026-04-25T09:54:02.676Z</time></trkpt><trkpt lat="41.8168343" lon="13.5432065"><ele>375.0</ele><time>2026-04-25T09:54:03.676Z</time></trkpt><trkpt lat="41.816742" lon="13.5431883"><ele>376.5</ele><time>2026-04-25T09:54:04.676Z</time></trkpt><trkpt lat="41.8166527" lon="13.5431331"><ele>378.0</ele><time>2026-04-25T09:54:05.676Z</time></trkpt><trkpt lat="41.8165606" lon="13.5430689"><ele>379.5</ele><time>2026-04-25T09:54:06.676Z</time></trkpt><trkpt lat="41.8164512" lon="13.543"><ele>381.0</ele><time>2026-04-25T09:54:07.676Z</time></trkpt><trkpt lat="41.8163162" lon="13.5429143"><ele>382.75</ele><time>2026-04-25T09:54:08.676Z</time></trkpt><trkpt lat="41.816205" lon="13.5428321"><ele>384.5</ele><time>2026-04-25T09:54:09.676Z</time></trkpt><trkpt lat="41.8160743" lon="13.5427349"><ele>386.25</ele><time>2026-04-25T09:54:10.676Z</time></trkpt><trkpt lat="41.8159321" lon="13.5426309"><ele>388.0</ele><time>2026-04-25T09:54:11.676Z</time></trkpt><trkpt lat="41.8157879" lon="13.5425292"><ele>389.0</ele><time>2026-04-25T09:54:12.676Z</time></trkpt><trkpt lat="41.8156429" lon="13.5424327"><ele>390.0</ele><time>2026-04-25T09:54:13.676Z</time></trkpt><trkpt lat="41.8154987" lon="13.5423587"><ele>391.0</ele><time>2026-04-25T09:54:14.676Z</time></trkpt><trkpt lat="41.8153606" lon="13.5423173"><ele>391.0</ele><time>2026-04-25T09:54:15.676Z</time></trkpt><trkpt lat="41.8152308" lon="13.5422975"><ele>391.0</ele><time>2026-04-25T09:54:16.676Z</time></trkpt><trkpt lat="41.8151095" lon="13.5423208"><ele>391.0</ele><time>2026-04-25T09:54:17.676Z</time></trkpt><trkpt lat="41.8150034" lon="13.5423373"><ele>391.0</ele><time>2026-04-25T09:54:18.676Z</time></trkpt><trkpt lat="41.8149205" lon="13.5423561"><ele>391.0</ele><time>2026-04-25T09:54:19.676Z</time></trkpt><trkpt lat="41.8148119" lon="13.5423747"><ele>391.20000000000005</ele><time>2026-04-25T09:54:20.676Z</time></trkpt><trkpt lat="41.8147152" lon="13.5423943"><ele>391.40000000000003</ele><time>2026-04-25T09:54:21.676Z</time></trkpt><trkpt lat="41.8146402" lon="13.5423881"><ele>391.6</ele><time>2026-04-25T09:54:22.676Z</time></trkpt><trkpt lat="41.8145794" lon="13.5422554"><ele>391.8</ele><time>2026-04-25T09:54:24.676Z</time></trkpt><trkpt lat="41.8146243" lon="13.5421439"><ele>392.0</ele><time>2026-04-25T09:54:25.676Z</time></trkpt><trkpt lat="41.8147036" lon="13.5420235"><ele>393.25</ele><time>2026-04-25T09:54:26.676Z</time></trkpt><trkpt lat="41.8147966" lon="13.5418998"><ele>394.5</ele><time>2026-04-25T09:54:27.676Z</time></trkpt><trkpt lat="41.8148857" lon="13.5417777"><ele>395.75</ele><time>2026-04-25T09:54:28.676Z</time></trkpt><trkpt lat="41.8149632" lon="13.5416752"><ele>397.0</ele><time>2026-04-25T09:54:29.676Z</time></trkpt><trkpt lat="41.8150262" lon="13.5415925"><ele>397.0</ele><time>2026-04-25T09:54:30.676Z</time></trkpt><trkpt lat="41.8150879" lon="13.5414899"><ele>397.0</ele><time>2026-04-25T09:54:31.676Z</time></trkpt><trkpt lat="41.8151353" lon="13.541383"><ele>397.0</ele><time>2026-04-25T09:54:32.676Z</time></trkpt><trkpt lat="41.8152039" lon="13.5412807"><ele>397.0</ele><time>2026-04-25T09:54:33.676Z</time></trkpt><trkpt lat="41.8152606" lon="13.5411797"><ele>397.0</ele><time>2026-04-25T09:54:34.676Z</time></trkpt><trkpt lat="41.8152987" lon="13.5410744"><ele>397.1666666666667</ele><time>2026-04-25T09:54:35.676Z</time></trkpt><trkpt lat="41.8153292" lon="13.5409787"><ele>397.33333333333337</ele><time>2026-04-25T09:54:36.676Z</time></trkpt><trkpt lat="41.815363" lon="13.5408718"><ele>397.5</ele><time>2026-04-25T09:54:37.676Z</time></trkpt><trkpt lat="41.8153962" lon="13.5407523"><ele>397.66666666666663</ele><time>2026-04-25T09:54:38.676Z</time></trkpt><trkpt lat="41.81541" lon="13.5406404"><ele>397.8333333333333</ele><time>2026-04-25T09:54:39.676Z</time></trkpt><trkpt lat="41.8154107" lon="13.5405151"><ele>398.0</ele><time>2026-04-25T09:54:40.676Z</time></trkpt><trkpt lat="41.8153914" lon="13.5403793"><ele>399.0</ele><time>2026-04-25T09:54:41.676Z</time></trkpt><trkpt lat="41.815374" lon="13.5402207"><ele>400.0</ele><time>2026-04-25T09:54:42.676Z</time></trkpt><trkpt lat="41.8153608" lon="13.5400323"><ele>401.0</ele><time>2026-04-25T09:54:43.676Z</time></trkpt><trkpt lat="41.8153462" lon="13.5398515"><ele>402.0</ele><time>2026-04-25T09:54:44.676Z</time></trkpt><trkpt lat="41.8153592" lon="13.539622"><ele>404.0</ele><time>2026-04-25T09:54:45.676Z</time></trkpt><trkpt lat="41.8153472" lon="13.5394243"><ele>406.0</ele><time>2026-04-25T09:54:46.676Z</time></trkpt><trkpt lat="41.8153306" lon="13.5392296"><ele>408.0</ele><time>2026-04-25T09:54:47.677Z</time></trkpt><trkpt lat="41.8153135" lon="13.5390198"><ele>408.0</ele><time>2026-04-25T09:54:48.676Z</time></trkpt><trkpt lat="41.8152922" lon="13.5388149"><ele>408.0</ele><time>2026-04-25T09:54:49.676Z</time></trkpt><trkpt lat="41.8152753" lon="13.538617"><ele>408.0</ele><time>2026-04-25T09:54:50.676Z</time></trkpt><trkpt lat="41.81526" lon="13.5384254"><ele>408.0</ele><time>2026-04-25T09:54:51.676Z</time></trkpt><trkpt lat="41.815239" lon="13.538236"><ele>409.25</ele><time>2026-04-25T09:54:52.676Z</time></trkpt><trkpt lat="41.8152238" lon="13.5380465"><ele>410.5</ele><time>2026-04-25T09:54:53.676Z</time></trkpt><trkpt lat="41.8152097" lon="13.5378697"><ele>411.75</ele><time>2026-04-25T09:54:54.676Z</time></trkpt><trkpt lat="41.8152107" lon="13.5376958"><ele>413.0</ele><time>2026-04-25T09:54:55.676Z</time></trkpt><trkpt lat="41.8152366" lon="13.5375313"><ele>414.75</ele><time>2026-04-25T09:54:56.676Z</time></trkpt><trkpt lat="41.815284" lon="13.5373873"><ele>416.5</ele><time>2026-04-25T09:54:57.676Z</time></trkpt><trkpt lat="41.8153502" lon="13.5372605"><ele>418.25</ele><time>2026-04-25T09:54:58.676Z</time></trkpt><trkpt lat="41.8154295" lon="13.5371481"><ele>420.0</ele><time>2026-04-25T09:54:59.676Z</time></trkpt><trkpt lat="41.81551" lon="13.537038"><ele>422.0</ele><time>2026-04-25T09:55:00.676Z</time></trkpt><trkpt lat="41.8155902" lon="13.5369271"><ele>424.0</ele><time>2026-04-25T09:55:01.676Z</time></trkpt><trkpt lat="41.8156662" lon="13.5368302"><ele>426.0</ele><time>2026-04-25T09:55:02.676Z</time></trkpt><trkpt lat="41.815736" lon="13.5367462"><ele>428.0</ele><time>2026-04-25T09:55:03.676Z</time></trkpt><trkpt lat="41.8157838" lon="13.536664"><ele>430.0</ele><time>2026-04-25T09:55:04.676Z</time></trkpt><trkpt lat="41.8157922" lon="13.5365781"><ele>430.00000000000006</ele><time>2026-04-25T09:55:05.676Z</time></trkpt><trkpt lat="41.8157316" lon="13.5364943"><ele>430.0</ele><time>2026-04-25T09:55:07.676Z</time></trkpt><trkpt lat="41.8156665" lon="13.5365012"><ele>430.0</ele><time>2026-04-25T09:55:08.676Z</time></trkpt><trkpt lat="41.8155944" lon="13.5365307"><ele>430.0</ele><time>2026-04-25T09:55:09.676Z</time></trkpt><trkpt lat="41.8155225" lon="13.5365794"><ele>430.00000000000006</ele><time>2026-04-25T09:55:10.676Z</time></trkpt><trkpt lat="41.8154428" lon="13.5366312"><ele>430.0</ele><time>2026-04-25T09:55:11.676Z</time></trkpt><trkpt lat="41.8153609" lon="13.5366895"><ele>430.0</ele><time>2026-04-25T09:55:12.676Z</time></trkpt><trkpt lat="41.8152666" lon="13.5367454"><ele>430.0</ele><time>2026-04-25T09:55:13.676Z</time></trkpt><trkpt lat="41.8151779" lon="13.5368009"><ele>430.0</ele><time>2026-04-25T09:55:14.676Z</time></trkpt><trkpt lat="41.8150858" lon="13.5368542"><ele>430.0</ele><time>2026-04-25T09:55:15.676Z</time></trkpt><trkpt lat="41.8149918" lon="13.5369048"><ele>430.0</ele><time>2026-04-25T09:55:16.677Z</time></trkpt><trkpt lat="41.8149028" lon="13.5369655"><ele>430.33333333333337</ele><time>2026-04-25T09:55:17.676Z</time></trkpt><trkpt lat="41.8148307" lon="13.5370122"><ele>430.6666666666667</ele><time>2026-04-25T09:55:18.676Z</time></trkpt><trkpt lat="41.8147576" lon="13.5370751"><ele>431.0</ele><time>2026-04-25T09:55:20.676Z</time></trkpt><trkpt lat="41.8146957" lon="13.5371221"><ele>431.33333333333337</ele><time>2026-04-25T09:55:22.676Z</time></trkpt><trkpt lat="41.8146248" lon="13.5372094"><ele>431.6666666666667</ele><time>2026-04-25T09:55:24.676Z</time></trkpt><trkpt lat="41.8145704" lon="13.5372558"><ele>432.0</ele><time>2026-04-25T09:55:25.676Z</time></trkpt><trkpt lat="41.8145102" lon="13.537304"><ele>432.0</ele><time>2026-04-25T09:55:26.676Z</time></trkpt><trkpt lat="41.814442" lon="13.5373538"><ele>432.0</ele><time>2026-04-25T09:55:27.676Z</time></trkpt><trkpt lat="41.814373" lon="13.5374147"><ele>432.0</ele><time>2026-04-25T09:55:28.676Z</time></trkpt><trkpt lat="41.814294" lon="13.5374821"><ele>432.0</ele><time>2026-04-25T09:55:29.676Z</time></trkpt><trkpt lat="41.8142155" lon="13.5375422"><ele>432.0</ele><time>2026-04-25T09:55:30.677Z</time></trkpt><trkpt lat="41.8141368" lon="13.5376034"><ele>432.0</ele><time>2026-04-25T09:55:31.677Z</time></trkpt><trkpt lat="41.8140585" lon="13.5376702"><ele>432.8</ele><time>2026-04-25T09:55:32.676Z</time></trkpt><trkpt lat="41.8139863" lon="13.5377362"><ele>433.6</ele><time>2026-04-25T09:55:33.676Z</time></trkpt><trkpt lat="41.8139142" lon="13.5378048"><ele>434.40000000000003</ele><time>2026-04-25T09:55:34.676Z</time></trkpt><trkpt lat="41.8138344" lon="13.5378748"><ele>435.20000000000005</ele><time>2026-04-25T09:55:35.676Z</time></trkpt><trkpt lat="41.813755" lon="13.5379451"><ele>436.0</ele><time>2026-04-25T09:55:36.676Z</time></trkpt><trkpt lat="41.8136713" lon="13.5380006"><ele>436.00000000000006</ele><time>2026-04-25T09:55:37.676Z</time></trkpt><trkpt lat="41.8135829" lon="13.5380379"><ele>436.0</ele><time>2026-04-25T09:55:38.676Z</time></trkpt><trkpt lat="41.8134999" lon="13.5380594"><ele>436.0</ele><time>2026-04-25T09:55:39.676Z</time></trkpt><trkpt lat="41.8134251" lon="13.5380605"><ele>436.0</ele><time>2026-04-25T09:55:40.676Z</time></trkpt><trkpt lat="41.8133539" lon="13.5380628"><ele>436.00000000000006</ele><time>2026-04-25T09:55:41.676Z</time></trkpt><trkpt lat="41.8132309" lon="13.5380513"><ele>436.0</ele><time>2026-04-25T09:55:43.676Z</time></trkpt><trkpt lat="41.8131337" lon="13.538056"><ele>438.25</ele><time>2026-04-25T09:55:45.676Z</time></trkpt><trkpt lat="41.8130305" lon="13.538052"><ele>440.5</ele><time>2026-04-25T09:55:47.676Z</time></trkpt><trkpt lat="41.8129633" lon="13.5380446"><ele>442.75</ele><time>2026-04-25T09:55:48.676Z</time></trkpt><trkpt lat="41.8131701" lon="13.5380248"><ele>445.0</ele><time>2026-04-25T09:55:49.676Z</time></trkpt><trkpt lat="41.8132456" lon="13.5379863"><ele>445.00000000000006</ele><time>2026-04-25T10:00:52.675Z</time></trkpt><trkpt lat="41.8131803" lon="13.5380229"><ele>445.0</ele><time>2026-04-25T10:00:55.675Z</time></trkpt><trkpt lat="41.8130681" lon="13.5380373"><ele>445.0</ele><time>2026-04-25T10:00:57.675Z</time></trkpt><trkpt lat="41.8129991" lon="13.5380342"><ele>445.0</ele><time>2026-04-25T10:00:58.675Z</time></trkpt><trkpt lat="41.8129225" lon="13.5380207"><ele>445.00000000000006</ele><time>2026-04-25T10:00:59.675Z</time></trkpt><trkpt lat="41.8128424" lon="13.5380169"><ele>445.0</ele><time>2026-04-25T10:01:00.675Z</time></trkpt><trkpt lat="41.8127628" lon="13.5380094"><ele>445.00000000000006</ele><time>2026-04-25T10:01:01.675Z</time></trkpt><trkpt lat="41.8126812" lon="13.5379897"><ele>445.0</ele><time>2026-04-25T10:01:02.675Z</time></trkpt><trkpt lat="41.8126034" lon="13.5379544"><ele>445.0</ele><time>2026-04-25T10:01:03.675Z</time></trkpt><trkpt lat="41.8125338" lon="13.5378959"><ele>445.0</ele><time>2026-04-25T10:01:04.675Z</time></trkpt><trkpt lat="41.8124759" lon="13.5378187"><ele>445.00000000000006</ele><time>2026-04-25T10:01:05.675Z</time></trkpt><trkpt lat="41.8124271" lon="13.5377369"><ele>445.0</ele><time>2026-04-25T10:01:06.676Z</time></trkpt><trkpt lat="41.8123695" lon="13.5376764"><ele>448.0</ele><time>2026-04-25T10:01:07.675Z</time></trkpt><trkpt lat="41.8122992" lon="13.5376294"><ele>451.0</ele><time>2026-04-25T10:01:08.675Z</time></trkpt><trkpt lat="41.8122085" lon="13.5375891"><ele>454.0</ele><time>2026-04-25T10:01:09.675Z</time></trkpt><trkpt lat="41.8121027" lon="13.5375368"><ele>457.0</ele><time>2026-04-25T10:01:10.675Z</time></trkpt><trkpt lat="41.8119656" lon="13.5374843"><ele>460.0</ele><time>2026-04-25T10:01:11.675Z</time></trkpt><trkpt lat="41.8118529" lon="13.5374748"><ele>460.4</ele><time>2026-04-25T10:01:12.675Z</time></trkpt><trkpt lat="41.8117536" lon="13.5374565"><ele>460.8</ele><time>2026-04-25T10:01:13.675Z</time></trkpt><trkpt lat="41.8116535" lon="13.5374582"><ele>461.20000000000005</ele><time>2026-04-25T10:01:14.675Z</time></trkpt><trkpt lat="41.8115575" lon="13.5374919"><ele>461.6</ele><time>2026-04-25T10:01:15.675Z</time></trkpt><trkpt lat="41.8114635" lon="13.5375409"><ele>462.0</ele><time>2026-04-25T10:01:16.675Z</time></trkpt><trkpt lat="41.8113629" lon="13.5375935"><ele>462.0</ele><time>2026-04-25T10:01:17.676Z</time></trkpt><trkpt lat="41.8112614" lon="13.5376298"><ele>462.00000000000006</ele><time>2026-04-25T10:01:18.675Z</time></trkpt><trkpt lat="41.8111651" lon="13.5376547"><ele>462.00000000000006</ele><time>2026-04-25T10:01:19.675Z</time></trkpt><trkpt lat="41.8110751" lon="13.5376699"><ele>462.0</ele><time>2026-04-25T10:01:20.675Z</time></trkpt><trkpt lat="41.8110053" lon="13.5376518"><ele>462.0</ele><time>2026-04-25T10:01:21.675Z</time></trkpt><trkpt lat="41.8109184" lon="13.5375584"><ele>462.8</ele><time>2026-04-25T10:01:23.676Z</time></trkpt><trkpt lat="41.8108651" lon="13.5374705"><ele>463.6</ele><time>2026-04-25T10:01:25.675Z</time></trkpt><trkpt lat="41.8107987" lon="13.5373745"><ele>464.40000000000003</ele><time>2026-04-25T10:01:27.675Z</time></trkpt><trkpt lat="41.8107415" lon="13.5372722"><ele>465.20000000000005</ele><time>2026-04-25T10:01:29.675Z</time></trkpt><trkpt lat="41.8106543" lon="13.53717"><ele>466.0</ele><time>2026-04-25T10:01:31.675Z</time></trkpt><trkpt lat="41.8106056" lon="13.5371107"><ele>467.6</ele><time>2026-04-25T10:01:32.675Z</time></trkpt><trkpt lat="41.8105487" lon="13.5370424"><ele>469.20000000000005</ele><time>2026-04-25T10:01:33.675Z</time></trkpt><trkpt lat="41.8104823" lon="13.5369608"><ele>470.79999999999995</ele><time>2026-04-25T10:01:34.675Z</time></trkpt><trkpt lat="41.8104253" lon="13.5368538"><ele>472.4</ele><time>2026-04-25T10:01:35.675Z</time></trkpt><trkpt lat="41.8103487" lon="13.5367862"><ele>474.0</ele><time>2026-04-25T10:01:36.675Z</time></trkpt><trkpt lat="41.8102773" lon="13.5366813"><ele>474.0</ele><time>2026-04-25T10:01:37.676Z</time></trkpt><trkpt lat="41.8102146" lon="13.5365745"><ele>474.0</ele><time>2026-04-25T10:01:38.675Z</time></trkpt><trkpt lat="41.8101702" lon="13.536458"><ele>474.0</ele><time>2026-04-25T10:01:39.675Z</time></trkpt><trkpt lat="41.8101459" lon="13.5363493"><ele>474.0</ele><time>2026-04-25T10:01:40.675Z</time></trkpt><trkpt lat="41.8101674" lon="13.5362323"><ele>474.0</ele><time>2026-04-25T10:01:41.675Z</time></trkpt><trkpt lat="41.8102021" lon="13.5361522"><ele>474.0</ele><time>2026-04-25T10:01:42.675Z</time></trkpt><trkpt lat="41.8102432" lon="13.5360528"><ele>476.0</ele><time>2026-04-25T10:01:43.675Z</time></trkpt><trkpt lat="41.8102922" lon="13.5359657"><ele>478.0</ele><time>2026-04-25T10:01:44.675Z</time></trkpt><trkpt lat="41.8103898" lon="13.5358861"><ele>480.0</ele><time>2026-04-25T10:01:45.675Z</time></trkpt><trkpt lat="41.8104711" lon="13.5357867"><ele>482.0</ele><time>2026-04-25T10:01:46.675Z</time></trkpt><trkpt lat="41.8105383" lon="13.5357011"><ele>484.0</ele><time>2026-04-25T10:01:47.675Z</time></trkpt><trkpt lat="41.8106066" lon="13.5356028"><ele>484.0</ele><time>2026-04-25T10:01:48.676Z</time></trkpt><trkpt lat="41.8106868" lon="13.5355178"><ele>484.0</ele><time>2026-04-25T10:01:49.676Z</time></trkpt><trkpt lat="41.8107818" lon="13.5354573"><ele>484.0</ele><time>2026-04-25T10:01:50.675Z</time></trkpt><trkpt lat="41.8108847" lon="13.5354204"><ele>484.0</ele><time>2026-04-25T10:01:51.675Z</time></trkpt><trkpt lat="41.8109929" lon="13.5354212"><ele>484.0</ele><time>2026-04-25T10:01:52.675Z</time></trkpt><trkpt lat="41.8111137" lon="13.5354406"><ele>485.0</ele><time>2026-04-25T10:01:53.675Z</time></trkpt><trkpt lat="41.8112313" lon="13.5354613"><ele>486.0</ele><time>2026-04-25T10:01:54.675Z</time></trkpt><trkpt lat="41.811349" lon="13.5354856"><ele>487.0</ele><time>2026-04-25T10:01:55.675Z</time></trkpt><trkpt lat="41.8114712" lon="13.5354836"><ele>488.0</ele><time>2026-04-25T10:01:56.675Z</time></trkpt><trkpt lat="41.811577" lon="13.535447"><ele>488.0</ele><time>2026-04-25T10:01:57.675Z</time></trkpt><trkpt lat="41.8116797" lon="13.5354042"><ele>487.99999999999994</ele><time>2026-04-25T10:01:58.675Z</time></trkpt><trkpt lat="41.8117716" lon="13.5353584"><ele>487.99999999999994</ele><time>2026-04-25T10:01:59.675Z</time></trkpt><trkpt lat="41.811868" lon="13.535304"><ele>488.0</ele><time>2026-04-25T10:02:00.675Z</time></trkpt><trkpt lat="41.8119626" lon="13.5352326"><ele>488.0</ele><time>2026-04-25T10:02:01.676Z</time></trkpt><trkpt lat="41.8120654" lon="13.5351312"><ele>489.5</ele><time>2026-04-25T10:02:02.675Z</time></trkpt><trkpt lat="41.8121676" lon="13.5350239"><ele>491.0</ele><time>2026-04-25T10:02:03.676Z</time></trkpt><trkpt lat="41.8122594" lon="13.5349174"><ele>492.5</ele><time>2026-04-25T10:02:04.675Z</time></trkpt><trkpt lat="41.8123544" lon="13.5348227"><ele>494.0</ele><time>2026-04-25T10:02:05.675Z</time></trkpt><trkpt lat="41.8124482" lon="13.5347526"><ele>494.0</ele><time>2026-04-25T10:02:06.675Z</time></trkpt><trkpt lat="41.8125368" lon="13.5347097"><ele>494.0</ele><time>2026-04-25T10:02:07.675Z</time></trkpt><trkpt lat="41.81264" lon="13.5346931"><ele>494.0</ele><time>2026-04-25T10:02:08.675Z</time></trkpt><trkpt lat="41.8127358" lon="13.5346997"><ele>494.0</ele><time>2026-04-25T10:02:09.675Z</time></trkpt><trkpt lat="41.8128389" lon="13.5347236"><ele>494.0</ele><time>2026-04-25T10:02:10.676Z</time></trkpt><trkpt lat="41.8129544" lon="13.5347528"><ele>493.66666666666663</ele><time>2026-04-25T10:02:11.675Z</time></trkpt><trkpt lat="41.8131264" lon="13.5347599"><ele>493.33333333333337</ele><time>2026-04-25T10:02:12.675Z</time></trkpt><trkpt lat="41.8132762" lon="13.5347663"><ele>493.0</ele><time>2026-04-25T10:02:13.675Z</time></trkpt><trkpt lat="41.8134279" lon="13.5347729"><ele>492.0</ele><time>2026-04-25T10:02:14.675Z</time></trkpt><trkpt lat="41.8135706" lon="13.534796"><ele>491.0</ele><time>2026-04-25T10:02:15.675Z</time></trkpt><trkpt lat="41.8137066" lon="13.5348134"><ele>490.0</ele><time>2026-04-25T10:02:16.675Z</time></trkpt><trkpt lat="41.8138314" lon="13.5348222"><ele>489.0</ele><time>2026-04-25T10:02:17.675Z</time></trkpt><trkpt lat="41.8139386" lon="13.5348195"><ele>489.0</ele><time>2026-04-25T10:02:18.675Z</time></trkpt><trkpt lat="41.8140269" lon="13.5348104"><ele>489.0</ele><time>2026-04-25T10:02:19.675Z</time></trkpt><trkpt lat="41.8141042" lon="13.5347685"><ele>489.0</ele><time>2026-04-25T10:02:20.675Z</time></trkpt><trkpt lat="41.814174" lon="13.5346919"><ele>489.0</ele><time>2026-04-25T10:02:21.675Z</time></trkpt><trkpt lat="41.8142439" lon="13.5345868"><ele>489.0</ele><time>2026-04-25T10:02:22.675Z</time></trkpt><trkpt lat="41.8143196" lon="13.5344702"><ele>487.2</ele><time>2026-04-25T10:02:23.675Z</time></trkpt><trkpt lat="41.8143891" lon="13.5343581"><ele>485.4</ele><time>2026-04-25T10:02:24.675Z</time></trkpt><trkpt lat="41.8144559" lon="13.5342554"><ele>483.6</ele><time>2026-04-25T10:02:25.675Z</time></trkpt><trkpt lat="41.8145127" lon="13.5341591"><ele>481.8</ele><time>2026-04-25T10:02:26.675Z</time></trkpt><trkpt lat="41.8145896" lon="13.5340424"><ele>480.0</ele><time>2026-04-25T10:02:28.675Z</time></trkpt><trkpt lat="41.814633" lon="13.533979"><ele>480.0</ele><time>2026-04-25T10:02:30.675Z</time></trkpt><trkpt lat="41.8146938" lon="13.5338921"><ele>480.0</ele><time>2026-04-25T10:02:32.675Z</time></trkpt><trkpt lat="41.8147292" lon="13.5337503"><ele>480.0</ele><time>2026-04-25T10:02:34.675Z</time></trkpt><trkpt lat="41.8147455" lon="13.5336588"><ele>480.0</ele><time>2026-04-25T10:02:35.675Z</time></trkpt><trkpt lat="41.8147658" lon="13.533554"><ele>480.0</ele><time>2026-04-25T10:02:36.675Z</time></trkpt><trkpt lat="41.8148006" lon="13.5334407"><ele>480.0</ele><time>2026-04-25T10:02:37.675Z</time></trkpt><trkpt lat="41.8148363" lon="13.5333136"><ele>483.0</ele><time>2026-04-25T10:02:38.675Z</time></trkpt><trkpt lat="41.8148817" lon="13.5331775"><ele>486.0</ele><time>2026-04-25T10:02:39.675Z</time></trkpt><trkpt lat="41.8149362" lon="13.5330205"><ele>489.0</ele><time>2026-04-25T10:02:40.675Z</time></trkpt><trkpt lat="41.8149829" lon="13.5328461"><ele>492.0</ele><time>2026-04-25T10:02:41.676Z</time></trkpt><trkpt lat="41.8150392" lon="13.5326706"><ele>493.25</ele><time>2026-04-25T10:02:42.675Z</time></trkpt><trkpt lat="41.8150889" lon="13.5324795"><ele>494.5</ele><time>2026-04-25T10:02:43.675Z</time></trkpt><trkpt lat="41.8151711" lon="13.5323162"><ele>495.75</ele><time>2026-04-25T10:02:44.675Z</time></trkpt><trkpt lat="41.8152548" lon="13.5321495"><ele>497.0</ele><time>2026-04-25T10:02:45.675Z</time></trkpt><trkpt lat="41.8153462" lon="13.5319921"><ele>497.0</ele><time>2026-04-25T10:02:46.675Z</time></trkpt><trkpt lat="41.8154274" lon="13.5318767"><ele>497.00000000000006</ele><time>2026-04-25T10:02:47.676Z</time></trkpt><trkpt lat="41.8155002" lon="13.5318192"><ele>497.00000000000006</ele><time>2026-04-25T10:02:48.676Z</time></trkpt><trkpt lat="41.8155981" lon="13.5318886"><ele>497.0</ele><time>2026-04-25T10:02:50.675Z</time></trkpt><trkpt lat="41.8156555" lon="13.5319687"><ele>497.0</ele><time>2026-04-25T10:02:51.675Z</time></trkpt><trkpt lat="41.8157042" lon="13.5320668"><ele>497.0</ele><time>2026-04-25T10:02:52.675Z</time></trkpt><trkpt lat="41.8157467" lon="13.5321724"><ele>497.00000000000006</ele><time>2026-04-25T10:02:53.675Z</time></trkpt><trkpt lat="41.815811" lon="13.5322698"><ele>497.00000000000006</ele><time>2026-04-25T10:02:54.676Z</time></trkpt><trkpt lat="41.8158996" lon="13.5323556"><ele>497.0</ele><time>2026-04-25T10:02:55.675Z</time></trkpt><trkpt lat="41.8159954" lon="13.5324296"><ele>497.0</ele><time>2026-04-25T10:02:56.675Z</time></trkpt><trkpt lat="41.8160924" lon="13.53249"><ele>495.8</ele><time>2026-04-25T10:02:57.675Z</time></trkpt><trkpt lat="41.8161893" lon="13.5325444"><ele>494.6</ele><time>2026-04-25T10:02:58.675Z</time></trkpt><trkpt lat="41.8162817" lon="13.5325735"><ele>493.40000000000003</ele><time>2026-04-25T10:02:59.675Z</time></trkpt><trkpt lat="41.8163643" lon="13.5325642"><ele>492.20000000000005</ele><time>2026-04-25T10:03:00.675Z</time></trkpt><trkpt lat="41.816436" lon="13.5325109"><ele>491.0</ele><time>2026-04-25T10:03:01.675Z</time></trkpt><trkpt lat="41.8164964" lon="13.532417"><ele>491.0</ele><time>2026-04-25T10:03:02.675Z</time></trkpt><trkpt lat="41.8165543" lon="13.5323155"><ele>491.0</ele><time>2026-04-25T10:03:03.675Z</time></trkpt><trkpt lat="41.8166074" lon="13.5321903"><ele>491.0</ele><time>2026-04-25T10:03:04.675Z</time></trkpt><trkpt lat="41.8166579" lon="13.532057"><ele>491.0</ele><time>2026-04-25T10:03:05.675Z</time></trkpt><trkpt lat="41.8167038" lon="13.531923"><ele>491.0</ele><time>2026-04-25T10:03:06.675Z</time></trkpt><trkpt lat="41.8167501" lon="13.5317826"><ele>492.0</ele><time>2026-04-25T10:03:07.675Z</time></trkpt><trkpt lat="41.8167899" lon="13.531651"><ele>493.0</ele><time>2026-04-25T10:03:08.675Z</time></trkpt><trkpt lat="41.8168358" lon="13.5315271"><ele>494.0</ele><time>2026-04-25T10:03:09.675Z</time></trkpt><trkpt lat="41.8168909" lon="13.5314279"><ele>495.0</ele><time>2026-04-25T10:03:10.675Z</time></trkpt><trkpt lat="41.8169498" lon="13.5313348"><ele>496.0</ele><time>2026-04-25T10:03:11.675Z</time></trkpt><trkpt lat="41.817013" lon="13.5312668"><ele>492.20000000000005</ele><time>2026-04-25T10:03:12.675Z</time></trkpt><trkpt lat="41.8170842" lon="13.531237"><ele>488.40000000000003</ele><time>2026-04-25T10:03:13.675Z</time></trkpt><trkpt lat="41.8171762" lon="13.53125"><ele>484.6</ele><time>2026-04-25T10:03:14.675Z</time></trkpt><trkpt lat="41.8172662" lon="13.5313049"><ele>480.8</ele><time>2026-04-25T10:03:15.675Z</time></trkpt><trkpt lat="41.8173669" lon="13.531389"><ele>477.0</ele><time>2026-04-25T10:03:16.675Z</time></trkpt><trkpt lat="41.8174727" lon="13.5314331"><ele>477.0</ele><time>2026-04-25T10:03:17.676Z</time></trkpt><trkpt lat="41.8175596" lon="13.5314287"><ele>477.00000000000006</ele><time>2026-04-25T10:03:18.675Z</time></trkpt><trkpt lat="41.8176543" lon="13.5313841"><ele>477.00000000000006</ele><time>2026-04-25T10:03:19.675Z</time></trkpt><trkpt lat="41.8177551" lon="13.5312947"><ele>477.0</ele><time>2026-04-25T10:03:20.675Z</time></trkpt><trkpt lat="41.8178744" lon="13.5311971"><ele>477.0</ele><time>2026-04-25T10:03:21.675Z</time></trkpt><trkpt lat="41.8179703" lon="13.5310561"><ele>475.25</ele><time>2026-04-25T10:03:22.675Z</time></trkpt><trkpt lat="41.8180755" lon="13.5309252"><ele>473.5</ele><time>2026-04-25T10:03:23.675Z</time></trkpt><trkpt lat="41.8181942" lon="13.5308159"><ele>471.75</ele><time>2026-04-25T10:03:24.675Z</time></trkpt><trkpt lat="41.8183293" lon="13.5307361"><ele>470.0</ele><time>2026-04-25T10:03:25.675Z</time></trkpt><trkpt lat="41.8184799" lon="13.5306815"><ele>467.0</ele><time>2026-04-25T10:03:26.675Z</time></trkpt><trkpt lat="41.818626" lon="13.5306366"><ele>464.0</ele><time>2026-04-25T10:03:27.675Z</time></trkpt><trkpt lat="41.81877" lon="13.530605"><ele>461.0</ele><time>2026-04-25T10:03:28.675Z</time></trkpt><trkpt lat="41.8189077" lon="13.5305549"><ele>458.0</ele><time>2026-04-25T10:03:29.675Z</time></trkpt><trkpt lat="41.819043" lon="13.5304864"><ele>457.5</ele><time>2026-04-25T10:03:30.675Z</time></trkpt><trkpt lat="41.8191779" lon="13.5303873"><ele>457.0</ele><time>2026-04-25T10:03:31.675Z</time></trkpt><trkpt lat="41.8193091" lon="13.5302866"><ele>456.5</ele><time>2026-04-25T10:03:32.675Z</time></trkpt><trkpt lat="41.8194354" lon="13.5302035"><ele>456.0</ele><time>2026-04-25T10:03:33.675Z</time></trkpt><trkpt lat="41.819567" lon="13.5301328"><ele>456.0</ele><time>2026-04-25T10:03:34.675Z</time></trkpt><trkpt lat="41.819698" lon="13.5300621"><ele>456.0</ele><time>2026-04-25T10:03:35.676Z</time></trkpt><trkpt lat="41.8198162" lon="13.5299862"><ele>456.0</ele><time>2026-04-25T10:03:36.675Z</time></trkpt><trkpt lat="41.8199301" lon="13.5298964"><ele>456.0</ele><time>2026-04-25T10:03:37.675Z</time></trkpt><trkpt lat="41.8200564" lon="13.529814"><ele>454.75</ele><time>2026-04-25T10:03:38.675Z</time></trkpt><trkpt lat="41.8201922" lon="13.5297762"><ele>453.5</ele><time>2026-04-25T10:03:39.675Z</time></trkpt><trkpt lat="41.8203174" lon="13.5297814"><ele>452.25</ele><time>2026-04-25T10:03:40.676Z</time></trkpt><trkpt lat="41.8204499" lon="13.5298162"><ele>451.0</ele><time>2026-04-25T10:03:41.675Z</time></trkpt><trkpt lat="41.8205834" lon="13.5298784"><ele>451.0</ele><time>2026-04-25T10:03:42.675Z</time></trkpt><trkpt lat="41.8207444" lon="13.52993"><ele>451.0</ele><time>2026-04-25T10:03:43.675Z</time></trkpt><trkpt lat="41.8209051" lon="13.5299895"><ele>451.0</ele><time>2026-04-25T10:03:44.675Z</time></trkpt><trkpt lat="41.8210543" lon="13.5300608"><ele>449.25</ele><time>2026-04-25T10:03:45.675Z</time></trkpt><trkpt lat="41.8211981" lon="13.5301353"><ele>447.5</ele><time>2026-04-25T10:03:46.675Z</time></trkpt><trkpt lat="41.8213354" lon="13.5302034"><ele>445.75</ele><time>2026-04-25T10:03:47.675Z</time></trkpt><trkpt lat="41.821469" lon="13.5302517"><ele>444.0</ele><time>2026-04-25T10:03:48.675Z</time></trkpt><trkpt lat="41.8215927" lon="13.5302661"><ele>444.0</ele><time>2026-04-25T10:03:49.675Z</time></trkpt><trkpt lat="41.8217074" lon="13.5302488"><ele>444.0</ele><time>2026-04-25T10:03:50.675Z</time></trkpt><trkpt lat="41.8218261" lon="13.5301922"><ele>444.0</ele><time>2026-04-25T10:03:51.675Z</time></trkpt><trkpt lat="41.821953" lon="13.5301052"><ele>444.0</ele><time>2026-04-25T10:03:52.675Z</time></trkpt><trkpt lat="41.8220825" lon="13.5300071"><ele>441.25</ele><time>2026-04-25T10:03:53.675Z</time></trkpt><trkpt lat="41.8222142" lon="13.5299166"><ele>438.5</ele><time>2026-04-25T10:03:54.675Z</time></trkpt><trkpt lat="41.8223402" lon="13.5298436"><ele>435.75</ele><time>2026-04-25T10:03:55.675Z</time></trkpt><trkpt lat="41.8224537" lon="13.5298011"><ele>433.0</ele><time>2026-04-25T10:03:56.675Z</time></trkpt><trkpt lat="41.822549" lon="13.5297905"><ele>433.00000000000006</ele><time>2026-04-25T10:03:57.675Z</time></trkpt><trkpt lat="41.8226282" lon="13.5298152"><ele>433.0</ele><time>2026-04-25T10:03:58.675Z</time></trkpt><trkpt lat="41.8226943" lon="13.5298706"><ele>433.0</ele><time>2026-04-25T10:03:59.675Z</time></trkpt><trkpt lat="41.8227585" lon="13.5299497"><ele>433.0</ele><time>2026-04-25T10:04:00.675Z</time></trkpt><trkpt lat="41.8228415" lon="13.5300148"><ele>433.00000000000006</ele><time>2026-04-25T10:04:01.675Z</time></trkpt><trkpt lat="41.8229238" lon="13.5300569"><ele>433.0</ele><time>2026-04-25T10:04:02.676Z</time></trkpt><trkpt lat="41.8230121" lon="13.5300747"><ele>431.59999999999997</ele><time>2026-04-25T10:04:03.675Z</time></trkpt><trkpt lat="41.8231077" lon="13.5300539"><ele>430.19999999999993</ele><time>2026-04-25T10:04:04.675Z</time></trkpt><trkpt lat="41.8232069" lon="13.5300072"><ele>428.8</ele><time>2026-04-25T10:04:05.675Z</time></trkpt><trkpt lat="41.823307" lon="13.5299311"><ele>427.4</ele><time>2026-04-25T10:04:06.675Z</time></trkpt><trkpt lat="41.8234041" lon="13.529831"><ele>426.0</ele><time>2026-04-25T10:04:07.675Z</time></trkpt><trkpt lat="41.8235053" lon="13.5297164"><ele>424.5</ele><time>2026-04-25T10:04:08.675Z</time></trkpt><trkpt lat="41.8236045" lon="13.5295979"><ele>423.0</ele><time>2026-04-25T10:04:09.675Z</time></trkpt><trkpt lat="41.8236963" lon="13.5294921"><ele>421.5</ele><time>2026-04-25T10:04:10.675Z</time></trkpt><trkpt lat="41.8237819" lon="13.5293974"><ele>420.0</ele><time>2026-04-25T10:04:11.675Z</time></trkpt><trkpt lat="41.8238567" lon="13.5293105"><ele>420.0</ele><time>2026-04-25T10:04:12.675Z</time></trkpt><trkpt lat="41.8239307" lon="13.5292395"><ele>420.0</ele><time>2026-04-25T10:04:13.675Z</time></trkpt><trkpt lat="41.8239962" lon="13.5292151"><ele>420.0</ele><time>2026-04-25T10:04:14.675Z</time></trkpt><trkpt lat="41.8240612" lon="13.5291032"><ele>420.0</ele><time>2026-04-25T10:04:16.675Z</time></trkpt><trkpt lat="41.8241413" lon="13.5289672"><ele>420.0</ele><time>2026-04-25T10:04:18.675Z</time></trkpt><trkpt lat="41.8241946" lon="13.5288909"><ele>420.0</ele><time>2026-04-25T10:04:19.675Z</time></trkpt><trkpt lat="41.8242546" lon="13.5288064"><ele>420.0</ele><time>2026-04-25T10:04:20.675Z</time></trkpt><trkpt lat="41.8243439" lon="13.5287246"><ele>420.0</ele><time>2026-04-25T10:04:21.675Z</time></trkpt><trkpt lat="41.8244424" lon="13.5286304"><ele>420.0</ele><time>2026-04-25T10:04:22.675Z</time></trkpt><trkpt lat="41.8245314" lon="13.5285273"><ele>420.0</ele><time>2026-04-25T10:04:23.675Z</time></trkpt><trkpt lat="41.824623" lon="13.5284376"><ele>418.25</ele><time>2026-04-25T10:04:24.675Z</time></trkpt><trkpt lat="41.8247184" lon="13.5283459"><ele>416.5</ele><time>2026-04-25T10:04:25.675Z</time></trkpt><trkpt lat="41.8248179" lon="13.5282576"><ele>414.75</ele><time>2026-04-25T10:04:26.675Z</time></trkpt><trkpt lat="41.8249225" lon="13.5281708"><ele>413.0</ele><time>2026-04-25T10:04:27.676Z</time></trkpt><trkpt lat="41.8250341" lon="13.5280787"><ele>414.75</ele><time>2026-04-25T10:04:28.675Z</time></trkpt><trkpt lat="41.8251534" lon="13.5279942"><ele>416.5</ele><time>2026-04-25T10:04:29.675Z</time></trkpt><trkpt lat="41.8252652" lon="13.5279212"><ele>418.25</ele><time>2026-04-25T10:04:30.675Z</time></trkpt><trkpt lat="41.825374" lon="13.5278612"><ele>420.0</ele><time>2026-04-25T10:04:31.675Z</time></trkpt><trkpt lat="41.8254678" lon="13.5278262"><ele>420.0</ele><time>2026-04-25T10:04:32.675Z</time></trkpt><trkpt lat="41.8255463" lon="13.5278219"><ele>420.0</ele><time>2026-04-25T10:04:33.675Z</time></trkpt><trkpt lat="41.8256449" lon="13.527775"><ele>420.0</ele><time>2026-04-25T10:04:34.675Z</time></trkpt><trkpt lat="41.8257461" lon="13.5277248"><ele>420.0</ele><time>2026-04-25T10:04:35.676Z</time></trkpt><trkpt lat="41.8258572" lon="13.5276777"><ele>420.0</ele><time>2026-04-25T10:04:36.675Z</time></trkpt><trkpt lat="41.825967" lon="13.5276262"><ele>416.0</ele><time>2026-04-25T10:04:37.675Z</time></trkpt><trkpt lat="41.8260754" lon="13.5275562"><ele>412.0</ele><time>2026-04-25T10:04:38.675Z</time></trkpt><trkpt lat="41.8261815" lon="13.5274749"><ele>408.0</ele><time>2026-04-25T10:04:39.675Z</time></trkpt><trkpt lat="41.8262809" lon="13.5273756"><ele>404.0</ele><time>2026-04-25T10:04:40.676Z</time></trkpt><trkpt lat="41.8263749" lon="13.5272599"><ele>404.0</ele><time>2026-04-25T10:04:41.675Z</time></trkpt><trkpt lat="41.8264584" lon="13.5271328"><ele>404.0</ele><time>2026-04-25T10:04:42.675Z</time></trkpt><trkpt lat="41.8265325" lon="13.5269876"><ele>404.0</ele><time>2026-04-25T10:04:43.675Z</time></trkpt><trkpt lat="41.8265959" lon="13.5268282"><ele>404.0</ele><time>2026-04-25T10:04:44.675Z</time></trkpt><trkpt lat="41.8266597" lon="13.5266675"><ele>406.25</ele><time>2026-04-25T10:04:45.675Z</time></trkpt><trkpt lat="41.8267278" lon="13.5265182"><ele>408.5</ele><time>2026-04-25T10:04:46.675Z</time></trkpt><trkpt lat="41.8267993" lon="13.5263786"><ele>410.75</ele><time>2026-04-25T10:04:47.675Z</time></trkpt><trkpt lat="41.8268803" lon="13.5262406"><ele>413.0</ele><time>2026-04-25T10:04:48.675Z</time></trkpt><trkpt lat="41.8269736" lon="13.5261107"><ele>413.0</ele><time>2026-04-25T10:04:49.675Z</time></trkpt><trkpt lat="41.8270715" lon="13.5259947"><ele>413.0</ele><time>2026-04-25T10:04:50.675Z</time></trkpt><trkpt lat="41.8271681" lon="13.5258922"><ele>413.0</ele><time>2026-04-25T10:04:51.675Z</time></trkpt><trkpt lat="41.827269" lon="13.5258043"><ele>413.0</ele><time>2026-04-25T10:04:52.675Z</time></trkpt><trkpt lat="41.8273767" lon="13.5257393"><ele>413.0</ele><time>2026-04-25T10:04:53.676Z</time></trkpt><trkpt lat="41.8274991" lon="13.5256963"><ele>413.0</ele><time>2026-04-25T10:04:54.675Z</time></trkpt><trkpt lat="41.8276295" lon="13.5256692"><ele>413.0</ele><time>2026-04-25T10:04:55.676Z</time></trkpt><trkpt lat="41.8277743" lon="13.5256496"><ele>413.0</ele><time>2026-04-25T10:04:56.675Z</time></trkpt><trkpt lat="41.8279186" lon="13.5256348"><ele>409.25</ele><time>2026-04-25T10:04:57.675Z</time></trkpt><trkpt lat="41.8280518" lon="13.5256217"><ele>405.5</ele><time>2026-04-25T10:04:58.675Z</time></trkpt><trkpt lat="41.8281867" lon="13.5256112"><ele>401.75</ele><time>2026-04-25T10:04:59.675Z</time></trkpt><trkpt lat="41.8283051" lon="13.5255886"><ele>398.0</ele><time>2026-04-25T10:05:00.676Z</time></trkpt><trkpt lat="41.8284082" lon="13.5255353"><ele>398.75</ele><time>2026-04-25T10:05:01.675Z</time></trkpt><trkpt lat="41.8285115" lon="13.5254405"><ele>399.5</ele><time>2026-04-25T10:05:02.675Z</time></trkpt><trkpt lat="41.8286092" lon="13.5253407"><ele>400.25</ele><time>2026-04-25T10:05:03.675Z</time></trkpt><trkpt lat="41.8287141" lon="13.5252446"><ele>401.0</ele><time>2026-04-25T10:05:04.675Z</time></trkpt><trkpt lat="41.828806" lon="13.525142"><ele>401.0</ele><time>2026-04-25T10:05:05.675Z</time></trkpt><trkpt lat="41.8288751" lon="13.525036"><ele>401.0</ele><time>2026-04-25T10:05:06.676Z</time></trkpt><trkpt lat="41.8289144" lon="13.5249138"><ele>401.0</ele><time>2026-04-25T10:05:07.675Z</time></trkpt><trkpt lat="41.8289417" lon="13.5247929"><ele>401.0</ele><time>2026-04-25T10:05:08.675Z</time></trkpt><trkpt lat="41.8289716" lon="13.5246809"><ele>401.0</ele><time>2026-04-25T10:05:09.675Z</time></trkpt><trkpt lat="41.8290201" lon="13.5245883"><ele>400.99999999999994</ele><time>2026-04-25T10:05:10.675Z</time></trkpt><trkpt lat="41.8290857" lon="13.5245365"><ele>401.0</ele><time>2026-04-25T10:05:11.675Z</time></trkpt><trkpt lat="41.8291526" lon="13.5245412"><ele>401.0</ele><time>2026-04-25T10:05:12.675Z</time></trkpt><trkpt lat="41.8292183" lon="13.524594"><ele>401.0</ele><time>2026-04-25T10:05:13.675Z</time></trkpt><trkpt lat="41.8292736" lon="13.5247056"><ele>400.99999999999994</ele><time>2026-04-25T10:05:14.675Z</time></trkpt><trkpt lat="41.8293337" lon="13.5248375"><ele>401.0</ele><time>2026-04-25T10:05:15.675Z</time></trkpt><trkpt lat="41.8293929" lon="13.5249818"><ele>401.25</ele><time>2026-04-25T10:05:16.675Z</time></trkpt><trkpt lat="41.8294576" lon="13.5251293"><ele>401.5</ele><time>2026-04-25T10:05:17.675Z</time></trkpt><trkpt lat="41.8295288" lon="13.5252648"><ele>401.75</ele><time>2026-04-25T10:05:18.675Z</time></trkpt><trkpt lat="41.8296007" lon="13.5253752"><ele>402.0</ele><time>2026-04-25T10:05:19.675Z</time></trkpt><trkpt lat="41.8296904" lon="13.5254698"><ele>399.5</ele><time>2026-04-25T10:05:20.675Z</time></trkpt><trkpt lat="41.8297928" lon="13.525531"><ele>397.0</ele><time>2026-04-25T10:05:21.675Z</time></trkpt><trkpt lat="41.8299032" lon="13.5255654"><ele>394.5</ele><time>2026-04-25T10:05:22.675Z</time></trkpt><trkpt lat="41.8300298" lon="13.5255808"><ele>392.0</ele><time>2026-04-25T10:05:23.675Z</time></trkpt><trkpt lat="41.8301504" lon="13.52557"><ele>391.0</ele><time>2026-04-25T10:05:24.675Z</time></trkpt><trkpt lat="41.8302745" lon="13.5255521"><ele>390.0</ele><time>2026-04-25T10:05:25.675Z</time></trkpt><trkpt lat="41.8303923" lon="13.5255198"><ele>389.0</ele><time>2026-04-25T10:05:26.675Z</time></trkpt><trkpt lat="41.830503" lon="13.5254927"><ele>388.0</ele><time>2026-04-25T10:05:27.675Z</time></trkpt><trkpt lat="41.8306069" lon="13.5254689"><ele>388.0</ele><time>2026-04-25T10:05:28.675Z</time></trkpt><trkpt lat="41.8306971" lon="13.5254473"><ele>388.0</ele><time>2026-04-25T10:05:29.676Z</time></trkpt><trkpt lat="41.8307737" lon="13.5254294"><ele>388.0</ele><time>2026-04-25T10:05:30.675Z</time></trkpt><trkpt lat="41.8308856" lon="13.5253985"><ele>388.0</ele><time>2026-04-25T10:05:32.675Z</time></trkpt><trkpt lat="41.8310135" lon="13.5253511"><ele>388.0</ele><time>2026-04-25T10:05:34.675Z</time></trkpt><trkpt lat="41.8310926" lon="13.5253271"><ele>388.50000000000006</ele><time>2026-04-25T10:05:35.675Z</time></trkpt><trkpt lat="41.8311705" lon="13.5253149"><ele>389.0</ele><time>2026-04-25T10:05:36.675Z</time></trkpt><trkpt lat="41.8312543" lon="13.5253104"><ele>389.5</ele><time>2026-04-25T10:05:37.675Z</time></trkpt><trkpt lat="41.8313409" lon="13.5252925"><ele>390.0</ele><time>2026-04-25T10:05:38.675Z</time></trkpt><trkpt lat="41.8314354" lon="13.5252724"><ele>390.50000000000006</ele><time>2026-04-25T10:05:39.675Z</time></trkpt><trkpt lat="41.8315303" lon="13.5252507"><ele>391.0</ele><time>2026-04-25T10:05:40.675Z</time></trkpt><trkpt lat="41.8316209" lon="13.5252248"><ele>391.00000000000006</ele><time>2026-04-25T10:05:41.675Z</time></trkpt><trkpt lat="41.8316947" lon="13.5251788"><ele>391.0</ele><time>2026-04-25T10:05:42.675Z</time></trkpt><trkpt lat="41.8317412" lon="13.5251178"><ele>391.0</ele><time>2026-04-25T10:05:43.675Z</time></trkpt><trkpt lat="41.8317481" lon="13.5249857"><ele>391.0</ele><time>2026-04-25T10:05:45.675Z</time></trkpt><trkpt lat="41.8317059" lon="13.5249193"><ele>391.00000000000006</ele><time>2026-04-25T10:05:46.675Z</time></trkpt><trkpt lat="41.8316492" lon="13.5248539"><ele>391.0</ele><time>2026-04-25T10:05:47.675Z</time></trkpt><trkpt lat="41.831584" lon="13.5247892"><ele>391.0</ele><time>2026-04-25T10:05:48.675Z</time></trkpt><trkpt lat="41.831494" lon="13.5247163"><ele>391.0</ele><time>2026-04-25T10:05:49.675Z</time></trkpt><trkpt lat="41.8314306" lon="13.5246495"><ele>391.0</ele><time>2026-04-25T10:05:50.675Z</time></trkpt><trkpt lat="41.8313691" lon="13.5245629"><ele>391.0</ele><time>2026-04-25T10:05:51.675Z</time></trkpt><trkpt lat="41.831316" lon="13.524462"><ele>391.0</ele><time>2026-04-25T10:05:52.675Z</time></trkpt><trkpt lat="41.8312826" lon="13.5243491"><ele>392.6</ele><time>2026-04-25T10:05:53.675Z</time></trkpt><trkpt lat="41.8312741" lon="13.5242368"><ele>394.20000000000005</ele><time>2026-04-25T10:05:54.675Z</time></trkpt><trkpt lat="41.8312874" lon="13.5241149"><ele>395.79999999999995</ele><time>2026-04-25T10:05:55.675Z</time></trkpt><trkpt lat="41.8313287" lon="13.5239916"><ele>397.4</ele><time>2026-04-25T10:05:56.675Z</time></trkpt><trkpt lat="41.8313743" lon="13.5238681"><ele>399.0</ele><time>2026-04-25T10:05:57.675Z</time></trkpt><trkpt lat="41.8314319" lon="13.5237413"><ele>400.75</ele><time>2026-04-25T10:05:58.675Z</time></trkpt><trkpt lat="41.8314999" lon="13.523606"><ele>402.5</ele><time>2026-04-25T10:05:59.675Z</time></trkpt><trkpt lat="41.831576" lon="13.5234639"><ele>404.25</ele><time>2026-04-25T10:06:00.675Z</time></trkpt><trkpt lat="41.8316472" lon="13.5233303"><ele>406.0</ele><time>2026-04-25T10:06:01.675Z</time></trkpt><trkpt lat="41.8317222" lon="13.5231917"><ele>406.0</ele><time>2026-04-25T10:06:02.675Z</time></trkpt><trkpt lat="41.8317966" lon="13.5230616"><ele>406.0</ele><time>2026-04-25T10:06:03.675Z</time></trkpt><trkpt lat="41.8318732" lon="13.5229453"><ele>406.0</ele><time>2026-04-25T10:06:04.675Z</time></trkpt><trkpt lat="41.831955" lon="13.5228262"><ele>406.0</ele><time>2026-04-25T10:06:05.675Z</time></trkpt><trkpt lat="41.8320355" lon="13.5227116"><ele>406.20000000000005</ele><time>2026-04-25T10:06:06.675Z</time></trkpt><trkpt lat="41.8321078" lon="13.5226049"><ele>406.40000000000003</ele><time>2026-04-25T10:06:07.675Z</time></trkpt><trkpt lat="41.8321806" lon="13.5225069"><ele>406.6</ele><time>2026-04-25T10:06:08.675Z</time></trkpt><trkpt lat="41.8322407" lon="13.5224119"><ele>406.8</ele><time>2026-04-25T10:06:09.675Z</time></trkpt><trkpt lat="41.8322916" lon="13.5223318"><ele>407.0</ele><time>2026-04-25T10:06:10.675Z</time></trkpt><trkpt lat="41.8323402" lon="13.5222586"><ele>407.0</ele><time>2026-04-25T10:06:11.675Z</time></trkpt><trkpt lat="41.8324114" lon="13.5221542"><ele>407.0</ele><time>2026-04-25T10:06:13.675Z</time></trkpt><trkpt lat="41.8324759" lon="13.5220553"><ele>407.0</ele><time>2026-04-25T10:06:16.675Z</time></trkpt><trkpt lat="41.8325412" lon="13.5219179"><ele>407.0</ele><time>2026-04-25T10:06:18.675Z</time></trkpt><trkpt lat="41.8325983" lon="13.5218279"><ele>407.0</ele><time>2026-04-25T10:06:19.675Z</time></trkpt><trkpt lat="41.8326871" lon="13.5217143"><ele>406.75</ele><time>2026-04-25T10:06:20.675Z</time></trkpt><trkpt lat="41.8327777" lon="13.5215865"><ele>406.5</ele><time>2026-04-25T10:06:21.675Z</time></trkpt><trkpt lat="41.8328825" lon="13.5214579"><ele>406.25</ele><time>2026-04-25T10:06:22.675Z</time></trkpt><trkpt lat="41.8330038" lon="13.52132"><ele>406.0</ele><time>2026-04-25T10:06:23.675Z</time></trkpt><trkpt lat="41.8331241" lon="13.5211741"><ele>405.0</ele><time>2026-04-25T10:06:24.675Z</time></trkpt><trkpt lat="41.8332498" lon="13.5210148"><ele>404.0</ele><time>2026-04-25T10:06:25.675Z</time></trkpt><trkpt lat="41.8333822" lon="13.5208447"><ele>403.0</ele><time>2026-04-25T10:06:26.675Z</time></trkpt><trkpt lat="41.8335264" lon="13.5206576"><ele>403.0</ele><time>2026-04-25T10:06:27.676Z</time></trkpt><trkpt lat="41.8336801" lon="13.5204485"><ele>403.0</ele><time>2026-04-25T10:06:28.676Z</time></trkpt><trkpt lat="41.833849" lon="13.5202394"><ele>403.0</ele><time>2026-04-25T10:06:29.675Z</time></trkpt><trkpt lat="41.8340228" lon="13.5200159"><ele>402.5</ele><time>2026-04-25T10:06:30.675Z</time></trkpt><trkpt lat="41.8342041" lon="13.5197865"><ele>402.0</ele><time>2026-04-25T10:06:31.675Z</time></trkpt><trkpt lat="41.8343832" lon="13.5195563"><ele>402.0</ele><time>2026-04-25T10:06:32.675Z</time></trkpt><trkpt lat="41.8345623" lon="13.5193242"><ele>402.0</ele><time>2026-04-25T10:06:33.675Z</time></trkpt><trkpt lat="41.8347404" lon="13.5190979"><ele>402.0</ele><time>2026-04-25T10:06:34.675Z</time></trkpt><trkpt lat="41.8349179" lon="13.5188656"><ele>402.0</ele><time>2026-04-25T10:06:35.675Z</time></trkpt><trkpt lat="41.8350913" lon="13.5186453"><ele>400.0</ele><time>2026-04-25T10:06:36.675Z</time></trkpt><trkpt lat="41.8352642" lon="13.5184157"><ele>398.0</ele><time>2026-04-25T10:06:37.675Z</time></trkpt><trkpt lat="41.8354387" lon="13.5181811"><ele>398.0</ele><time>2026-04-25T10:06:38.675Z</time></trkpt><trkpt lat="41.8356157" lon="13.517936"><ele>398.0</ele><time>2026-04-25T10:06:39.675Z</time></trkpt><trkpt lat="41.8357987" lon="13.5176884"><ele>396.5</ele><time>2026-04-25T10:06:40.675Z</time></trkpt><trkpt lat="41.8359779" lon="13.5174156"><ele>395.0</ele><time>2026-04-25T10:06:41.675Z</time></trkpt><trkpt lat="41.8361436" lon="13.5171377"><ele>397.5</ele><time>2026-04-25T10:06:42.676Z</time></trkpt><trkpt lat="41.8363652" lon="13.5168265"><ele>400.0</ele><time>2026-04-25T10:06:44.675Z</time></trkpt><trkpt lat="41.8364871" lon="13.5165582"><ele>400.0</ele><time>2026-04-25T10:06:45.675Z</time></trkpt><trkpt lat="41.8366244" lon="13.5162938"><ele>400.0</ele><time>2026-04-25T10:06:46.675Z</time></trkpt><trkpt lat="41.8367651" lon="13.5160385"><ele>394.5</ele><time>2026-04-25T10:06:47.675Z</time></trkpt><trkpt lat="41.8369234" lon="13.515778"><ele>389.0</ele><time>2026-04-25T10:06:48.675Z</time></trkpt><trkpt lat="41.8370836" lon="13.5155223"><ele>391.0</ele><time>2026-04-25T10:06:49.675Z</time></trkpt><trkpt lat="41.837238" lon="13.5152709"><ele>393.0</ele><time>2026-04-25T10:06:50.675Z</time></trkpt><trkpt lat="41.8373927" lon="13.5150168"><ele>393.0</ele><time>2026-04-25T10:06:51.675Z</time></trkpt><trkpt lat="41.8375577" lon="13.5147648"><ele>393.0</ele><time>2026-04-25T10:06:52.675Z</time></trkpt><trkpt lat="41.8377256" lon="13.5145097"><ele>391.5</ele><time>2026-04-25T10:06:53.675Z</time></trkpt><trkpt lat="41.8378941" lon="13.5142545"><ele>390.0</ele><time>2026-04-25T10:06:54.675Z</time></trkpt><trkpt lat="41.8380609" lon="13.514001"><ele>390.0</ele><time>2026-04-25T10:06:55.675Z</time></trkpt><trkpt lat="41.8382369" lon="13.513757"><ele>390.0</ele><time>2026-04-25T10:06:56.675Z</time></trkpt><trkpt lat="41.8384138" lon="13.5135212"><ele>387.0</ele><time>2026-04-25T10:06:57.675Z</time></trkpt><trkpt lat="41.838599" lon="13.5132936"><ele>384.0</ele><time>2026-04-25T10:06:58.675Z</time></trkpt><trkpt lat="41.8387881" lon="13.5130825"><ele>386.0</ele><time>2026-04-25T10:06:59.675Z</time></trkpt><trkpt lat="41.8389826" lon="13.5128761"><ele>388.0</ele><time>2026-04-25T10:07:00.675Z</time></trkpt><trkpt lat="41.8391789" lon="13.5126755"><ele>386.0</ele><time>2026-04-25T10:07:01.675Z</time></trkpt><trkpt lat="41.8393685" lon="13.5124491"><ele>384.0</ele><time>2026-04-25T10:07:02.675Z</time></trkpt><trkpt lat="41.8395681" lon="13.5122405"><ele>388.0</ele><time>2026-04-25T10:07:03.675Z</time></trkpt><trkpt lat="41.8397699" lon="13.5120323"><ele>392.0</ele><time>2026-04-25T10:07:04.676Z</time></trkpt><trkpt lat="41.8399768" lon="13.5118215"><ele>388.5</ele><time>2026-04-25T10:07:05.675Z</time></trkpt><trkpt lat="41.8401893" lon="13.511601"><ele>385.0</ele><time>2026-04-25T10:07:06.675Z</time></trkpt><trkpt lat="41.8403782" lon="13.511395"><ele>388.0</ele><time>2026-04-25T10:07:07.675Z</time></trkpt><trkpt lat="41.8405361" lon="13.5111921"><ele>391.0</ele><time>2026-04-25T10:07:08.675Z</time></trkpt><trkpt lat="41.8406579" lon="13.5109973"><ele>394.0</ele><time>2026-04-25T10:07:09.675Z</time></trkpt><trkpt lat="41.8407564" lon="13.510812"><ele>394.0</ele><time>2026-04-25T10:07:10.675Z</time></trkpt><trkpt lat="41.8408337" lon="13.5106365"><ele>394.0</ele><time>2026-04-25T10:07:11.675Z</time></trkpt><trkpt lat="41.8408912" lon="13.510465"><ele>394.0</ele><time>2026-04-25T10:07:12.675Z</time></trkpt><trkpt lat="41.8409586" lon="13.5102886"><ele>394.0</ele><time>2026-04-25T10:07:13.675Z</time></trkpt><trkpt lat="41.8410992" lon="13.5100905"><ele>395.33333333333337</ele><time>2026-04-25T10:07:14.675Z</time></trkpt><trkpt lat="41.8412244" lon="13.5099053"><ele>396.66666666666663</ele><time>2026-04-25T10:07:15.675Z</time></trkpt><trkpt lat="41.8413745" lon="13.5097179"><ele>398.0</ele><time>2026-04-25T10:07:16.675Z</time></trkpt><trkpt lat="41.8414838" lon="13.5095352"><ele>397.5</ele><time>2026-04-25T10:07:17.675Z</time></trkpt><trkpt lat="41.84164" lon="13.5093097"><ele>397.0</ele><time>2026-04-25T10:07:18.675Z</time></trkpt><trkpt lat="41.8418544" lon="13.5090537"><ele>397.0</ele><time>2026-04-25T10:07:19.675Z</time></trkpt><trkpt lat="41.8420904" lon="13.5087843"><ele>397.0</ele><time>2026-04-25T10:07:20.675Z</time></trkpt><trkpt lat="41.842311" lon="13.508529"><ele>396.5</ele><time>2026-04-25T10:07:21.675Z</time></trkpt><trkpt lat="41.8425838" lon="13.5082536"><ele>396.0</ele><time>2026-04-25T10:07:22.675Z</time></trkpt><trkpt lat="41.8428641" lon="13.5079826"><ele>396.0</ele><time>2026-04-25T10:07:23.675Z</time></trkpt><trkpt lat="41.8431745" lon="13.5076977"><ele>396.0</ele><time>2026-04-25T10:07:24.675Z</time></trkpt><trkpt lat="41.8435227" lon="13.5074"><ele>399.0</ele><time>2026-04-25T10:07:25.675Z</time></trkpt><trkpt lat="41.8438764" lon="13.5070589"><ele>402.0</ele><time>2026-04-25T10:07:26.675Z</time></trkpt><trkpt lat="41.8442405" lon="13.5067531"><ele>395.5</ele><time>2026-04-25T10:07:27.675Z</time></trkpt><trkpt lat="41.8446133" lon="13.5064586"><ele>389.0</ele><time>2026-04-25T10:07:28.675Z</time></trkpt><trkpt lat="41.8449949" lon="13.5061736"><ele>393.5</ele><time>2026-04-25T10:07:29.675Z</time></trkpt><trkpt lat="41.8453878" lon="13.5058908"><ele>398.0</ele><time>2026-04-25T10:07:30.675Z</time></trkpt><trkpt lat="41.8457951" lon="13.5056094"><ele>410.0</ele><time>2026-04-25T10:07:31.675Z</time></trkpt><trkpt lat="41.8462109" lon="13.5053343"><ele>410.0</ele><time>2026-04-25T10:07:32.675Z</time></trkpt><trkpt lat="41.8464231" lon="13.5051401"><ele>410.0</ele><time>2026-04-25T10:07:33.675Z</time></trkpt><trkpt lat="41.8466381" lon="13.5049491"><ele>389.0</ele><time>2026-04-25T10:07:34.675Z</time></trkpt><trkpt lat="41.8446926" lon="13.505561"><ele>389.5</ele><time>2026-04-25T10:07:35.675Z</time></trkpt><trkpt lat="41.8447617" lon="13.5054106"><ele>390.0</ele><time>2026-04-25T10:07:36.675Z</time></trkpt><trkpt lat="41.8448328" lon="13.5052552"><ele>390.5</ele><time>2026-04-25T10:07:37.675Z</time></trkpt><trkpt lat="41.8449061" lon="13.5050958"><ele>391.0</ele><time>2026-04-25T10:07:38.675Z</time></trkpt><trkpt lat="41.8449825" lon="13.5049335"><ele>391.0</ele><time>2026-04-25T10:07:39.675Z</time></trkpt><trkpt lat="41.8450626" lon="13.5047584"><ele>391.0</ele><time>2026-04-25T10:07:40.675Z</time></trkpt><trkpt lat="41.8451445" lon="13.5045804"><ele>391.0</ele><time>2026-04-25T10:07:41.675Z</time></trkpt><trkpt lat="41.8452279" lon="13.5043962"><ele>395.33333333333337</ele><time>2026-04-25T10:07:42.675Z</time></trkpt><trkpt lat="41.845315" lon="13.5042086"><ele>399.66666666666663</ele><time>2026-04-25T10:07:43.675Z</time></trkpt><trkpt lat="41.8454027" lon="13.5040218"><ele>404.0</ele><time>2026-04-25T10:07:44.675Z</time></trkpt><trkpt lat="41.845493" lon="13.5038363"><ele>403.0</ele><time>2026-04-25T10:07:45.676Z</time></trkpt><trkpt lat="41.8455774" lon="13.5036517"><ele>402.0</ele><time>2026-04-25T10:07:46.675Z</time></trkpt><trkpt lat="41.8456645" lon="13.5034681"><ele>401.0</ele><time>2026-04-25T10:07:47.675Z</time></trkpt><trkpt lat="41.8457522" lon="13.5032825"><ele>401.0</ele><time>2026-04-25T10:07:48.675Z</time></trkpt><trkpt lat="41.8458376" lon="13.5031009"><ele>401.0</ele><time>2026-04-25T10:07:49.675Z</time></trkpt><trkpt lat="41.8459236" lon="13.5029205"><ele>401.0</ele><time>2026-04-25T10:07:50.675Z</time></trkpt><trkpt lat="41.8460039" lon="13.5027572"><ele>405.66666666666663</ele><time>2026-04-25T10:07:51.675Z</time></trkpt><trkpt lat="41.8460901" lon="13.5025769"><ele>410.33333333333337</ele><time>2026-04-25T10:07:52.675Z</time></trkpt><trkpt lat="41.8461741" lon="13.5023954"><ele>415.0</ele><time>2026-04-25T10:07:53.675Z</time></trkpt><trkpt lat="41.8462556" lon="13.5022138"><ele>413.6666666666667</ele><time>2026-04-25T10:07:54.675Z</time></trkpt><trkpt lat="41.8463399" lon="13.5020316"><ele>412.33333333333337</ele><time>2026-04-25T10:07:55.675Z</time></trkpt><trkpt lat="41.8464245" lon="13.5018487"><ele>411.0</ele><time>2026-04-25T10:07:56.675Z</time></trkpt><trkpt lat="41.8465093" lon="13.5016664"><ele>411.0</ele><time>2026-04-25T10:07:57.676Z</time></trkpt><trkpt lat="41.8465951" lon="13.5014846"><ele>411.0</ele><time>2026-04-25T10:07:58.675Z</time></trkpt><trkpt lat="41.8466831" lon="13.5013022"><ele>411.0</ele><time>2026-04-25T10:07:59.675Z</time></trkpt><trkpt lat="41.8467688" lon="13.5011099"><ele>411.33333333333337</ele><time>2026-04-25T10:08:00.675Z</time></trkpt><trkpt lat="41.846855" lon="13.5009189"><ele>411.6666666666667</ele><time>2026-04-25T10:08:01.675Z</time></trkpt><trkpt lat="41.8469409" lon="13.5007215"><ele>412.0</ele><time>2026-04-25T10:08:02.675Z</time></trkpt><trkpt lat="41.8470297" lon="13.5005158"><ele>409.6666666666667</ele><time>2026-04-25T10:08:03.675Z</time></trkpt><trkpt lat="41.8471204" lon="13.5003093"><ele>407.33333333333337</ele><time>2026-04-25T10:08:04.675Z</time></trkpt><trkpt lat="41.8472042" lon="13.5001173"><ele>405.0</ele><time>2026-04-25T10:08:05.675Z</time></trkpt><trkpt lat="41.8472858" lon="13.4999064"><ele>405.0</ele><time>2026-04-25T10:08:06.675Z</time></trkpt><trkpt lat="41.8473721" lon="13.4996791"><ele>405.0</ele><time>2026-04-25T10:08:07.675Z</time></trkpt><trkpt lat="41.847458" lon="13.4994547"><ele>405.0</ele><time>2026-04-25T10:08:08.675Z</time></trkpt><trkpt lat="41.8475443" lon="13.4992269"><ele>405.33333333333337</ele><time>2026-04-25T10:08:09.675Z</time></trkpt><trkpt lat="41.8476314" lon="13.4989987"><ele>405.6666666666667</ele><time>2026-04-25T10:08:10.675Z</time></trkpt><trkpt lat="41.8477223" lon="13.4987668"><ele>406.0</ele><time>2026-04-25T10:08:11.675Z</time></trkpt><trkpt lat="41.8478122" lon="13.4985334"><ele>405.33333333333337</ele><time>2026-04-25T10:08:12.675Z</time></trkpt><trkpt lat="41.8479106" lon="13.4983041"><ele>404.66666666666663</ele><time>2026-04-25T10:08:13.675Z</time></trkpt><trkpt lat="41.8480123" lon="13.4980781"><ele>404.0</ele><time>2026-04-25T10:08:14.675Z</time></trkpt><trkpt lat="41.8481175" lon="13.4978472"><ele>403.66666666666663</ele><time>2026-04-25T10:08:15.675Z</time></trkpt><trkpt lat="41.8482234" lon="13.4976234"><ele>403.33333333333337</ele><time>2026-04-25T10:08:16.675Z</time></trkpt><trkpt lat="41.8483402" lon="13.4974006"><ele>403.0</ele><time>2026-04-25T10:08:17.675Z</time></trkpt><trkpt lat="41.8484586" lon="13.4971869"><ele>404.33333333333337</ele><time>2026-04-25T10:08:18.675Z</time></trkpt><trkpt lat="41.8485624" lon="13.4970048"><ele>405.66666666666663</ele><time>2026-04-25T10:08:19.675Z</time></trkpt><trkpt lat="41.8486655" lon="13.4968553"><ele>407.0</ele><time>2026-04-25T10:08:20.675Z</time></trkpt><trkpt lat="41.8487703" lon="13.4967024"><ele>407.0</ele><time>2026-04-25T10:08:21.675Z</time></trkpt><trkpt lat="41.8488713" lon="13.4965564"><ele>407.0</ele><time>2026-04-25T10:08:22.675Z</time></trkpt><trkpt lat="41.8489595" lon="13.4964004"><ele>407.0</ele><time>2026-04-25T10:08:23.675Z</time></trkpt><trkpt lat="41.849046" lon="13.4962434"><ele>407.0</ele><time>2026-04-25T10:08:24.675Z</time></trkpt><trkpt lat="41.8491378" lon="13.4960605"><ele>407.66666666666663</ele><time>2026-04-25T10:08:25.675Z</time></trkpt><trkpt lat="41.8492401" lon="13.4958191"><ele>408.33333333333337</ele><time>2026-04-25T10:08:26.675Z</time></trkpt><trkpt lat="41.8493402" lon="13.4956084"><ele>409.0</ele><time>2026-04-25T10:08:27.676Z</time></trkpt><trkpt lat="41.8494262" lon="13.4953861"><ele>409.0</ele><time>2026-04-25T10:08:28.675Z</time></trkpt><trkpt lat="41.8495097" lon="13.4951869"><ele>409.0</ele><time>2026-04-25T10:08:29.675Z</time></trkpt><trkpt lat="41.8495946" lon="13.4949671"><ele>409.0</ele><time>2026-04-25T10:08:30.675Z</time></trkpt><trkpt lat="41.8496722" lon="13.4947504"><ele>408.6666666666667</ele><time>2026-04-25T10:08:31.675Z</time></trkpt><trkpt lat="41.8497359" lon="13.4945235"><ele>408.33333333333337</ele><time>2026-04-25T10:08:32.675Z</time></trkpt><trkpt lat="41.8497966" lon="13.4942919"><ele>408.0</ele><time>2026-04-25T10:08:33.675Z</time></trkpt><trkpt lat="41.8498781" lon="13.4940543"><ele>408.0</ele><time>2026-04-25T10:08:34.675Z</time></trkpt><trkpt lat="41.8499818" lon="13.4938035"><ele>408.0</ele><time>2026-04-25T10:08:35.675Z</time></trkpt><trkpt lat="41.8500508" lon="13.4935728"><ele>408.0</ele><time>2026-04-25T10:08:36.675Z</time></trkpt><trkpt lat="41.8501209" lon="13.4933382"><ele>410.33333333333337</ele><time>2026-04-25T10:08:37.675Z</time></trkpt><trkpt lat="41.8501931" lon="13.4930975"><ele>412.6666666666667</ele><time>2026-04-25T10:08:38.674Z</time></trkpt><trkpt lat="41.8502612" lon="13.4928587"><ele>415.0</ele><time>2026-04-25T10:08:39.674Z</time></trkpt><trkpt lat="41.8503288" lon="13.4926174"><ele>415.0</ele><time>2026-04-25T10:08:40.674Z</time></trkpt><trkpt lat="41.8503943" lon="13.4923784"><ele>415.0</ele><time>2026-04-25T10:08:41.674Z</time></trkpt><trkpt lat="41.850463" lon="13.4921397"><ele>415.0</ele><time>2026-04-25T10:08:42.674Z</time></trkpt><trkpt lat="41.8505315" lon="13.4918962"><ele>414.0</ele><time>2026-04-25T10:08:43.674Z</time></trkpt><trkpt lat="41.8505993" lon="13.4916548"><ele>413.0</ele><time>2026-04-25T10:08:44.674Z</time></trkpt><trkpt lat="41.8506688" lon="13.491412"><ele>412.0</ele><time>2026-04-25T10:08:45.674Z</time></trkpt><trkpt lat="41.8507394" lon="13.4911701"><ele>411.33333333333337</ele><time>2026-04-25T10:08:46.674Z</time></trkpt><trkpt lat="41.8508118" lon="13.4909274"><ele>410.66666666666663</ele><time>2026-04-25T10:08:47.674Z</time></trkpt><trkpt lat="41.8508905" lon="13.4906851"><ele>410.0</ele><time>2026-04-25T10:08:48.674Z</time></trkpt><trkpt lat="41.8509764" lon="13.4904454"><ele>413.66666666666663</ele><time>2026-04-25T10:08:49.674Z</time></trkpt><trkpt lat="41.8510699" lon="13.490209"><ele>417.33333333333337</ele><time>2026-04-25T10:08:50.674Z</time></trkpt><trkpt lat="41.8511703" lon="13.4899775"><ele>421.0</ele><time>2026-04-25T10:08:51.674Z</time></trkpt><trkpt lat="41.8512732" lon="13.4897525"><ele>418.6666666666667</ele><time>2026-04-25T10:08:52.674Z</time></trkpt><trkpt lat="41.8513848" lon="13.4895347"><ele>416.33333333333337</ele><time>2026-04-25T10:08:53.674Z</time></trkpt><trkpt lat="41.8515038" lon="13.4893324"><ele>414.0</ele><time>2026-04-25T10:08:54.674Z</time></trkpt><trkpt lat="41.8516316" lon="13.4891293"><ele>414.0</ele><time>2026-04-25T10:08:55.674Z</time></trkpt><trkpt lat="41.8517673" lon="13.4889382"><ele>414.0</ele><time>2026-04-25T10:08:56.674Z</time></trkpt><trkpt lat="41.8519057" lon="13.4887538"><ele>414.0</ele><time>2026-04-25T10:08:57.674Z</time></trkpt><trkpt lat="41.8520514" lon="13.4885786"><ele>414.66666666666663</ele><time>2026-04-25T10:08:58.674Z</time></trkpt><trkpt lat="41.8522028" lon="13.4884145"><ele>415.3333333333333</ele><time>2026-04-25T10:08:59.674Z</time></trkpt><trkpt lat="41.8523618" lon="13.4882563"><ele>416.0</ele><time>2026-04-25T10:09:00.674Z</time></trkpt><trkpt lat="41.8525247" lon="13.4881009"><ele>415.66666666666663</ele><time>2026-04-25T10:09:01.674Z</time></trkpt><trkpt lat="41.8526931" lon="13.4879518"><ele>415.33333333333337</ele><time>2026-04-25T10:09:02.674Z</time></trkpt><trkpt lat="41.8528582" lon="13.487799"><ele>415.0</ele><time>2026-04-25T10:09:03.675Z</time></trkpt><trkpt lat="41.853022" lon="13.4876441"><ele>415.0</ele><time>2026-04-25T10:09:04.674Z</time></trkpt><trkpt lat="41.8531825" lon="13.4874845"><ele>415.0</ele><time>2026-04-25T10:09:05.674Z</time></trkpt><trkpt lat="41.8533368" lon="13.4873197"><ele>415.0</ele><time>2026-04-25T10:09:06.674Z</time></trkpt><trkpt lat="41.8534853" lon="13.4871474"><ele>412.33333333333337</ele><time>2026-04-25T10:09:07.675Z</time></trkpt><trkpt lat="41.8536343" lon="13.4869775"><ele>409.66666666666663</ele><time>2026-04-25T10:09:08.674Z</time></trkpt><trkpt lat="41.853771" lon="13.4868035"><ele>407.0</ele><time>2026-04-25T10:09:09.674Z</time></trkpt><trkpt lat="41.8539115" lon="13.4866226"><ele>407.0</ele><time>2026-04-25T10:09:10.674Z</time></trkpt><trkpt lat="41.8540413" lon="13.4864329"><ele>407.0</ele><time>2026-04-25T10:09:11.674Z</time></trkpt><trkpt lat="41.8541697" lon="13.4862354"><ele>407.0</ele><time>2026-04-25T10:09:12.674Z</time></trkpt><trkpt lat="41.8542938" lon="13.4860344"><ele>407.3333333333333</ele><time>2026-04-25T10:09:13.674Z</time></trkpt><trkpt lat="41.8544101" lon="13.4858287"><ele>407.66666666666663</ele><time>2026-04-25T10:09:14.674Z</time></trkpt><trkpt lat="41.8545196" lon="13.4856158"><ele>408.0</ele><time>2026-04-25T10:09:15.674Z</time></trkpt><trkpt lat="41.8546248" lon="13.4853962"><ele>409.0</ele><time>2026-04-25T10:09:16.675Z</time></trkpt><trkpt lat="41.8547206" lon="13.4851768"><ele>410.0</ele><time>2026-04-25T10:09:17.674Z</time></trkpt><trkpt lat="41.8548132" lon="13.4849542"><ele>411.0</ele><time>2026-04-25T10:09:18.674Z</time></trkpt><trkpt lat="41.8548979" lon="13.4847298"><ele>410.66666666666663</ele><time>2026-04-25T10:09:19.674Z</time></trkpt><trkpt lat="41.8549807" lon="13.484502"><ele>410.3333333333333</ele><time>2026-04-25T10:09:20.674Z</time></trkpt><trkpt lat="41.8550638" lon="13.484273"><ele>410.0</ele><time>2026-04-25T10:09:21.675Z</time></trkpt><trkpt lat="41.8551344" lon="13.4840372"><ele>410.0</ele><time>2026-04-25T10:09:22.675Z</time></trkpt><trkpt lat="41.8552124" lon="13.4838074"><ele>410.0</ele><time>2026-04-25T10:09:23.675Z</time></trkpt><trkpt lat="41.8552836" lon="13.483577"><ele>410.0</ele><time>2026-04-25T10:09:24.675Z</time></trkpt><trkpt lat="41.8553593" lon="13.4833578"><ele>410.3333333333333</ele><time>2026-04-25T10:09:25.674Z</time></trkpt><trkpt lat="41.8554329" lon="13.4831514"><ele>410.66666666666663</ele><time>2026-04-25T10:09:26.674Z</time></trkpt><trkpt lat="41.8554899" lon="13.4829837"><ele>411.0</ele><time>2026-04-25T10:09:27.674Z</time></trkpt><trkpt lat="41.8555433" lon="13.4828062"><ele>410.5</ele><time>2026-04-25T10:09:28.674Z</time></trkpt><trkpt lat="41.8555968" lon="13.4826407"><ele>410.0</ele><time>2026-04-25T10:09:29.674Z</time></trkpt><trkpt lat="41.8556487" lon="13.4824795"><ele>409.5</ele><time>2026-04-25T10:09:30.674Z</time></trkpt><trkpt lat="41.8556975" lon="13.4823254"><ele>409.0</ele><time>2026-04-25T10:09:31.674Z</time></trkpt><trkpt lat="41.8557431" lon="13.482176"><ele>409.5</ele><time>2026-04-25T10:09:32.674Z</time></trkpt><trkpt lat="41.8557834" lon="13.4820289"><ele>410.0</ele><time>2026-04-25T10:09:33.674Z</time></trkpt><trkpt lat="41.8558216" lon="13.4818824"><ele>410.5</ele><time>2026-04-25T10:09:34.674Z</time></trkpt><trkpt lat="41.8558571" lon="13.4817299"><ele>411.0</ele><time>2026-04-25T10:09:35.674Z</time></trkpt><trkpt lat="41.8558881" lon="13.4815753"><ele>411.0</ele><time>2026-04-25T10:09:36.674Z</time></trkpt><trkpt lat="41.8559107" lon="13.4814261"><ele>411.0</ele><time>2026-04-25T10:09:37.674Z</time></trkpt><trkpt lat="41.8559503" lon="13.4812519"><ele>411.0</ele><time>2026-04-25T10:09:38.674Z</time></trkpt><trkpt lat="41.8560124" lon="13.4810257"><ele>411.0</ele><time>2026-04-25T10:09:39.674Z</time></trkpt><trkpt lat="41.8560627" lon="13.4808056"><ele>413.66666666666663</ele><time>2026-04-25T10:09:40.674Z</time></trkpt><trkpt lat="41.8561161" lon="13.4805741"><ele>416.3333333333333</ele><time>2026-04-25T10:09:41.674Z</time></trkpt><trkpt lat="41.856158" lon="13.4803702"><ele>419.0</ele><time>2026-04-25T10:09:42.674Z</time></trkpt><trkpt lat="41.8561825" lon="13.480176"><ele>419.0</ele><time>2026-04-25T10:09:43.674Z</time></trkpt><trkpt lat="41.8561947" lon="13.4799871"><ele>419.0</ele><time>2026-04-25T10:09:44.674Z</time></trkpt><trkpt lat="41.8562098" lon="13.4797764"><ele>419.0</ele><time>2026-04-25T10:09:45.674Z</time></trkpt><trkpt lat="41.8562311" lon="13.4795563"><ele>420.66666666666663</ele><time>2026-04-25T10:09:46.674Z</time></trkpt><trkpt lat="41.8562657" lon="13.4793448"><ele>422.33333333333337</ele><time>2026-04-25T10:09:47.674Z</time></trkpt><trkpt lat="41.8563042" lon="13.4791278"><ele>424.0</ele><time>2026-04-25T10:09:48.674Z</time></trkpt><trkpt lat="41.8563494" lon="13.4789096"><ele>425.6666666666667</ele><time>2026-04-25T10:09:49.674Z</time></trkpt><trkpt lat="41.8563766" lon="13.4786754"><ele>427.33333333333337</ele><time>2026-04-25T10:09:50.674Z</time></trkpt><trkpt lat="41.8564113" lon="13.4784464"><ele>429.0</ele><time>2026-04-25T10:09:51.675Z</time></trkpt><trkpt lat="41.8564429" lon="13.4782167"><ele>429.0</ele><time>2026-04-25T10:09:52.674Z</time></trkpt><trkpt lat="41.8564786" lon="13.4779823"><ele>429.0</ele><time>2026-04-25T10:09:53.674Z</time></trkpt><trkpt lat="41.8565168" lon="13.477743"><ele>429.0</ele><time>2026-04-25T10:09:54.674Z</time></trkpt><trkpt lat="41.8565556" lon="13.4775007"><ele>430.66666666666663</ele><time>2026-04-25T10:09:55.674Z</time></trkpt><trkpt lat="41.8565937" lon="13.4772604"><ele>432.3333333333333</ele><time>2026-04-25T10:09:56.674Z</time></trkpt><trkpt lat="41.8566287" lon="13.4770193"><ele>434.0</ele><time>2026-04-25T10:09:57.674Z</time></trkpt><trkpt lat="41.8566653" lon="13.4767841"><ele>435.3333333333333</ele><time>2026-04-25T10:09:58.674Z</time></trkpt><trkpt lat="41.8567004" lon="13.476547"><ele>436.66666666666663</ele><time>2026-04-25T10:09:59.674Z</time></trkpt><trkpt lat="41.8567328" lon="13.4763107"><ele>438.0</ele><time>2026-04-25T10:10:00.674Z</time></trkpt><trkpt lat="41.8567682" lon="13.4760743"><ele>437.66666666666663</ele><time>2026-04-25T10:10:01.674Z</time></trkpt><trkpt lat="41.856804" lon="13.4758368"><ele>437.3333333333333</ele><time>2026-04-25T10:10:02.674Z</time></trkpt><trkpt lat="41.85684" lon="13.4755984"><ele>437.0</ele><time>2026-04-25T10:10:03.674Z</time></trkpt><trkpt lat="41.8568774" lon="13.4753632"><ele>437.0</ele><time>2026-04-25T10:10:04.674Z</time></trkpt><trkpt lat="41.8569125" lon="13.4751226"><ele>437.0</ele><time>2026-04-25T10:10:05.674Z</time></trkpt><trkpt lat="41.8569521" lon="13.4748772"><ele>437.0</ele><time>2026-04-25T10:10:06.674Z</time></trkpt><trkpt lat="41.8569925" lon="13.4746358"><ele>437.3333333333333</ele><time>2026-04-25T10:10:07.674Z</time></trkpt><trkpt lat="41.8570365" lon="13.4743922"><ele>437.66666666666663</ele><time>2026-04-25T10:10:08.674Z</time></trkpt><trkpt lat="41.8570843" lon="13.4741455"><ele>438.0</ele><time>2026-04-25T10:10:09.674Z</time></trkpt><trkpt lat="41.857133" lon="13.4739"><ele>436.33333333333337</ele><time>2026-04-25T10:10:10.674Z</time></trkpt><trkpt lat="41.8571901" lon="13.4736551"><ele>434.6666666666667</ele><time>2026-04-25T10:10:11.674Z</time></trkpt><trkpt lat="41.8572608" lon="13.4734069"><ele>433.0</ele><time>2026-04-25T10:10:12.674Z</time></trkpt><trkpt lat="41.8573306" lon="13.4731583"><ele>434.6666666666667</ele><time>2026-04-25T10:10:13.674Z</time></trkpt><trkpt lat="41.8574061" lon="13.4729078"><ele>436.33333333333337</ele><time>2026-04-25T10:10:14.674Z</time></trkpt><trkpt lat="41.8574879" lon="13.4726579"><ele>438.0</ele><time>2026-04-25T10:10:15.674Z</time></trkpt><trkpt lat="41.8575756" lon="13.4724118"><ele>437.33333333333337</ele><time>2026-04-25T10:10:16.674Z</time></trkpt><trkpt lat="41.8576724" lon="13.4721623"><ele>436.6666666666667</ele><time>2026-04-25T10:10:17.674Z</time></trkpt><trkpt lat="41.8577785" lon="13.4719111"><ele>436.0</ele><time>2026-04-25T10:10:18.674Z</time></trkpt><trkpt lat="41.8578859" lon="13.471669"><ele>436.0</ele><time>2026-04-25T10:10:19.675Z</time></trkpt><trkpt lat="41.8580022" lon="13.4714247"><ele>436.0</ele><time>2026-04-25T10:10:20.674Z</time></trkpt><trkpt lat="41.8581177" lon="13.4711841"><ele>436.0</ele><time>2026-04-25T10:10:21.674Z</time></trkpt><trkpt lat="41.8582492" lon="13.4709453"><ele>432.0</ele><time>2026-04-25T10:10:22.674Z</time></trkpt><trkpt lat="41.858388" lon="13.4707155"><ele>428.0</ele><time>2026-04-25T10:10:23.674Z</time></trkpt><trkpt lat="41.8586019" lon="13.470475"><ele>434.0</ele><time>2026-04-25T10:10:24.674Z</time></trkpt><trkpt lat="41.858754" lon="13.4702587"><ele>440.0</ele><time>2026-04-25T10:10:25.674Z</time></trkpt><trkpt lat="41.8589123" lon="13.4700533"><ele>446.0</ele><time>2026-04-25T10:10:26.674Z</time></trkpt><trkpt lat="41.859076" lon="13.4698394"><ele>446.0</ele><time>2026-04-25T10:10:27.674Z</time></trkpt><trkpt lat="41.8592413" lon="13.4696337"><ele>446.0</ele><time>2026-04-25T10:10:28.674Z</time></trkpt><trkpt lat="41.8594129" lon="13.4694399"><ele>450.3333333333333</ele><time>2026-04-25T10:10:29.674Z</time></trkpt><trkpt lat="41.859574" lon="13.4692533"><ele>454.66666666666663</ele><time>2026-04-25T10:10:30.674Z</time></trkpt><trkpt lat="41.8597444" lon="13.4690601"><ele>459.0</ele><time>2026-04-25T10:10:31.674Z</time></trkpt><trkpt lat="41.859932" lon="13.4688697"><ele>464.0</ele><time>2026-04-25T10:10:32.674Z</time></trkpt><trkpt lat="41.8601231" lon="13.4686902"><ele>469.0</ele><time>2026-04-25T10:10:33.674Z</time></trkpt><trkpt lat="41.8603052" lon="13.4685404"><ele>474.0</ele><time>2026-04-25T10:10:34.674Z</time></trkpt><trkpt lat="41.8604735" lon="13.4683941"><ele>474.0</ele><time>2026-04-25T10:10:35.674Z</time></trkpt><trkpt lat="41.860642" lon="13.4682454"><ele>474.0</ele><time>2026-04-25T10:10:36.674Z</time></trkpt><trkpt lat="41.8623414" lon="13.4672891"><ele>464.33333333333337</ele><time>2026-04-25T10:10:45.674Z</time></trkpt><trkpt lat="41.8624889" lon="13.4671411"><ele>454.6666666666667</ele><time>2026-04-25T10:10:46.674Z</time></trkpt><trkpt lat="41.8626867" lon="13.4670301"><ele>445.0</ele><time>2026-04-25T10:10:47.674Z</time></trkpt><trkpt lat="41.8628613" lon="13.466903"><ele>441.6666666666667</ele><time>2026-04-25T10:10:48.674Z</time></trkpt><trkpt lat="41.8630411" lon="13.4667605"><ele>438.33333333333337</ele><time>2026-04-25T10:10:49.674Z</time></trkpt><trkpt lat="41.8632147" lon="13.4666216"><ele>435.0</ele><time>2026-04-25T10:10:50.674Z</time></trkpt><trkpt lat="41.8633872" lon="13.4664904"><ele>434.33333333333337</ele><time>2026-04-25T10:10:51.674Z</time></trkpt><trkpt lat="41.8635697" lon="13.4663541"><ele>433.6666666666667</ele><time>2026-04-25T10:10:52.674Z</time></trkpt><trkpt lat="41.8637596" lon="13.4662257"><ele>433.0</ele><time>2026-04-25T10:10:53.674Z</time></trkpt><trkpt lat="41.8639458" lon="13.4660948"><ele>432.33333333333337</ele><time>2026-04-25T10:10:54.674Z</time></trkpt><trkpt lat="41.8641359" lon="13.4659626"><ele>431.66666666666663</ele><time>2026-04-25T10:10:55.674Z</time></trkpt><trkpt lat="41.8643292" lon="13.4658289"><ele>431.0</ele><time>2026-04-25T10:10:56.674Z</time></trkpt><trkpt lat="41.8645223" lon="13.4656931"><ele>436.66666666666663</ele><time>2026-04-25T10:10:57.674Z</time></trkpt><trkpt lat="41.8647118" lon="13.4655527"><ele>442.33333333333337</ele><time>2026-04-25T10:10:58.674Z</time></trkpt><trkpt lat="41.8649081" lon="13.4654214"><ele>448.0</ele><time>2026-04-25T10:10:59.674Z</time></trkpt><trkpt lat="41.8651012" lon="13.4652901"><ele>454.33333333333337</ele><time>2026-04-25T10:11:00.675Z</time></trkpt><trkpt lat="41.8652849" lon="13.4651625"><ele>460.66666666666663</ele><time>2026-04-25T10:11:01.674Z</time></trkpt><trkpt lat="41.8654675" lon="13.4650344"><ele>467.0</ele><time>2026-04-25T10:11:02.674Z</time></trkpt><trkpt lat="41.8656524" lon="13.4648794"><ele>467.0</ele><time>2026-04-25T10:11:03.674Z</time></trkpt><trkpt lat="41.8658279" lon="13.4647503"><ele>467.0</ele><time>2026-04-25T10:11:04.674Z</time></trkpt><trkpt lat="41.8660032" lon="13.4646261"><ele>467.0</ele><time>2026-04-25T10:11:05.674Z</time></trkpt><trkpt lat="41.8661752" lon="13.4645059"><ele>471.3333333333333</ele><time>2026-04-25T10:11:06.674Z</time></trkpt><trkpt lat="41.8663455" lon="13.464388"><ele>475.66666666666663</ele><time>2026-04-25T10:11:07.674Z</time></trkpt><trkpt lat="41.8665144" lon="13.4642747"><ele>480.0</ele><time>2026-04-25T10:11:08.674Z</time></trkpt><trkpt lat="41.866681" lon="13.4641619"><ele>489.33333333333337</ele><time>2026-04-25T10:11:09.674Z</time></trkpt><trkpt lat="41.8668523" lon="13.4640454"><ele>498.6666666666667</ele><time>2026-04-25T10:11:10.675Z</time></trkpt><trkpt lat="41.8670307" lon="13.4639268"><ele>508.0</ele><time>2026-04-25T10:11:11.675Z</time></trkpt><trkpt lat="41.8672136" lon="13.4638017"><ele>498.5</ele><time>2026-04-25T10:11:12.674Z</time></trkpt><trkpt lat="41.8674031" lon="13.4636773"><ele>489.0</ele><time>2026-04-25T10:11:13.674Z</time></trkpt><trkpt lat="41.8693178" lon="13.462352"><ele>475.5</ele><time>2026-04-25T10:11:22.674Z</time></trkpt><trkpt lat="41.8695268" lon="13.4621527"><ele>462.0</ele><time>2026-04-25T10:11:23.674Z</time></trkpt><trkpt lat="41.8697361" lon="13.4620067"><ele>458.0</ele><time>2026-04-25T10:11:24.674Z</time></trkpt><trkpt lat="41.8699544" lon="13.4618669"><ele>454.0</ele><time>2026-04-25T10:11:25.674Z</time></trkpt><trkpt lat="41.8701584" lon="13.4617172"><ele>462.0</ele><time>2026-04-25T10:11:26.674Z</time></trkpt><trkpt lat="41.8703549" lon="13.4615548"><ele>470.0</ele><time>2026-04-25T10:11:27.674Z</time></trkpt><trkpt lat="41.8705595" lon="13.4613811"><ele>471.5</ele><time>2026-04-25T10:11:28.674Z</time></trkpt><trkpt lat="41.8707548" lon="13.4612082"><ele>473.0</ele><time>2026-04-25T10:11:29.674Z</time></trkpt><trkpt lat="41.8709461" lon="13.4610456"><ele>473.0</ele><time>2026-04-25T10:11:30.674Z</time></trkpt><trkpt lat="41.8711286" lon="13.4608866"><ele>473.0</ele><time>2026-04-25T10:11:31.674Z</time></trkpt><trkpt lat="41.8713137" lon="13.4607283"><ele>473.0</ele><time>2026-04-25T10:11:32.674Z</time></trkpt><trkpt lat="41.8714954" lon="13.4605624"><ele>472.3333333333333</ele><time>2026-04-25T10:11:33.674Z</time></trkpt><trkpt lat="41.8716809" lon="13.4604012"><ele>471.66666666666663</ele><time>2026-04-25T10:11:34.674Z</time></trkpt><trkpt lat="41.8718708" lon="13.4602437"><ele>471.0</ele><time>2026-04-25T10:11:35.675Z</time></trkpt><trkpt lat="41.8720627" lon="13.4600925"><ele>471.0</ele><time>2026-04-25T10:11:36.674Z</time></trkpt><trkpt lat="41.8722534" lon="13.4599513"><ele>471.0</ele><time>2026-04-25T10:11:37.674Z</time></trkpt><trkpt lat="41.8724408" lon="13.4598237"><ele>471.0</ele><time>2026-04-25T10:11:38.674Z</time></trkpt><trkpt lat="41.8726244" lon="13.4597058"><ele>467.66666666666663</ele><time>2026-04-25T10:11:39.674Z</time></trkpt><trkpt lat="41.8728079" lon="13.459591"><ele>464.3333333333333</ele><time>2026-04-25T10:11:40.674Z</time></trkpt><trkpt lat="41.8729975" lon="13.4594797"><ele>461.0</ele><time>2026-04-25T10:11:41.674Z</time></trkpt><trkpt lat="41.8731892" lon="13.4593714"><ele>461.0</ele><time>2026-04-25T10:11:42.674Z</time></trkpt><trkpt lat="41.8733873" lon="13.4592722"><ele>461.0</ele><time>2026-04-25T10:11:43.674Z</time></trkpt><trkpt lat="41.8735849" lon="13.4591683"><ele>461.0</ele><time>2026-04-25T10:11:44.674Z</time></trkpt><trkpt lat="41.8737876" lon="13.4590635"><ele>463.66666666666663</ele><time>2026-04-25T10:11:45.674Z</time></trkpt><trkpt lat="41.8739892" lon="13.4589561"><ele>466.33333333333337</ele><time>2026-04-25T10:11:46.674Z</time></trkpt><trkpt lat="41.8741894" lon="13.4588532"><ele>469.0</ele><time>2026-04-25T10:11:47.674Z</time></trkpt><trkpt lat="41.8743847" lon="13.4587505"><ele>469.0</ele><time>2026-04-25T10:11:48.674Z</time></trkpt><trkpt lat="41.8745707" lon="13.4586476"><ele>469.0</ele><time>2026-04-25T10:11:49.674Z</time></trkpt><trkpt lat="41.874747" lon="13.458552"><ele>469.0</ele><time>2026-04-25T10:11:50.674Z</time></trkpt><trkpt lat="41.8749197" lon="13.4584593"><ele>469.0</ele><time>2026-04-25T10:11:51.674Z</time></trkpt><trkpt lat="41.8750873" lon="13.4583697"><ele>469.0</ele><time>2026-04-25T10:11:52.674Z</time></trkpt><trkpt lat="41.8752628" lon="13.4582726"><ele>469.0</ele><time>2026-04-25T10:11:53.674Z</time></trkpt><trkpt lat="41.87544" lon="13.4581768"><ele>470.0</ele><time>2026-04-25T10:11:54.674Z</time></trkpt><trkpt lat="41.8756204" lon="13.4580845"><ele>471.0</ele><time>2026-04-25T10:11:55.674Z</time></trkpt><trkpt lat="41.8758012" lon="13.4579948"><ele>472.0</ele><time>2026-04-25T10:11:56.674Z</time></trkpt><trkpt lat="41.8759834" lon="13.4579"><ele>472.0</ele><time>2026-04-25T10:11:57.674Z</time></trkpt><trkpt lat="41.8761612" lon="13.457803"><ele>472.0</ele><time>2026-04-25T10:11:58.674Z</time></trkpt><trkpt lat="41.8763471" lon="13.4577051"><ele>472.0</ele><time>2026-04-25T10:11:59.674Z</time></trkpt><trkpt lat="41.8765386" lon="13.4576065"><ele>472.0</ele><time>2026-04-25T10:12:00.674Z</time></trkpt><trkpt lat="41.8767281" lon="13.4575064"><ele>472.0</ele><time>2026-04-25T10:12:01.674Z</time></trkpt><trkpt lat="41.8769246" lon="13.4574014"><ele>472.0</ele><time>2026-04-25T10:12:02.675Z</time></trkpt><trkpt lat="41.8771314" lon="13.4572928"><ele>470.0</ele><time>2026-04-25T10:12:03.674Z</time></trkpt><trkpt lat="41.8773413" lon="13.4571862"><ele>468.0</ele><time>2026-04-25T10:12:04.674Z</time></trkpt><trkpt lat="41.8775558" lon="13.4570756"><ele>476.5</ele><time>2026-04-25T10:12:05.674Z</time></trkpt><trkpt lat="41.877776" lon="13.4569621"><ele>485.0</ele><time>2026-04-25T10:12:06.674Z</time></trkpt><trkpt lat="41.8779993" lon="13.4568483"><ele>485.0</ele><time>2026-04-25T10:12:07.674Z</time></trkpt><trkpt lat="41.8782249" lon="13.4567313"><ele>485.0</ele><time>2026-04-25T10:12:08.674Z</time></trkpt><trkpt lat="41.8784496" lon="13.4566079"><ele>489.5</ele><time>2026-04-25T10:12:09.674Z</time></trkpt><trkpt lat="41.8786807" lon="13.4564949"><ele>494.0</ele><time>2026-04-25T10:12:10.674Z</time></trkpt><trkpt lat="41.87891" lon="13.4563757"><ele>489.0</ele><time>2026-04-25T10:12:11.674Z</time></trkpt><trkpt lat="41.8791372" lon="13.4562544"><ele>484.0</ele><time>2026-04-25T10:12:12.674Z</time></trkpt><trkpt lat="41.8793637" lon="13.4561351"><ele>484.0</ele><time>2026-04-25T10:12:13.674Z</time></trkpt><trkpt lat="41.8795864" lon="13.4560108"><ele>484.0</ele><time>2026-04-25T10:12:14.674Z</time></trkpt><trkpt lat="41.8798059" lon="13.4558773"><ele>484.0</ele><time>2026-04-25T10:12:15.674Z</time></trkpt><trkpt lat="41.8800248" lon="13.4557383"><ele>484.0</ele><time>2026-04-25T10:12:16.674Z</time></trkpt><trkpt lat="41.8802366" lon="13.4555956"><ele>488.0</ele><time>2026-04-25T10:12:17.674Z</time></trkpt><trkpt lat="41.8804457" lon="13.455447"><ele>492.0</ele><time>2026-04-25T10:12:18.674Z</time></trkpt><trkpt lat="41.880649" lon="13.455291"><ele>492.0</ele><time>2026-04-25T10:12:19.674Z</time></trkpt><trkpt lat="41.8808445" lon="13.4551327"><ele>492.0</ele><time>2026-04-25T10:12:20.674Z</time></trkpt><trkpt lat="41.8810362" lon="13.454968"><ele>493.0</ele><time>2026-04-25T10:12:21.674Z</time></trkpt><trkpt lat="41.8812204" lon="13.4547917"><ele>494.0</ele><time>2026-04-25T10:12:22.674Z</time></trkpt><trkpt lat="41.8814139" lon="13.4546092"><ele>494.0</ele><time>2026-04-25T10:12:23.674Z</time></trkpt><trkpt lat="41.8816021" lon="13.4544308"><ele>494.0</ele><time>2026-04-25T10:12:24.674Z</time></trkpt><trkpt lat="41.8817958" lon="13.4542651"><ele>499.0</ele><time>2026-04-25T10:12:25.675Z</time></trkpt><trkpt lat="41.8819833" lon="13.4540899"><ele>504.0</ele><time>2026-04-25T10:12:26.674Z</time></trkpt><trkpt lat="41.8821717" lon="13.453919"><ele>499.5</ele><time>2026-04-25T10:12:27.674Z</time></trkpt><trkpt lat="41.882364" lon="13.453729"><ele>495.0</ele><time>2026-04-25T10:12:28.674Z</time></trkpt><trkpt lat="41.8825531" lon="13.4535507"><ele>499.5</ele><time>2026-04-25T10:12:29.674Z</time></trkpt><trkpt lat="41.8827436" lon="13.453374"><ele>504.0</ele><time>2026-04-25T10:12:30.674Z</time></trkpt><trkpt lat="41.8829278" lon="13.4532038"><ele>504.0</ele><time>2026-04-25T10:12:31.674Z</time></trkpt><trkpt lat="41.8831117" lon="13.4530392"><ele>504.0</ele><time>2026-04-25T10:12:32.674Z</time></trkpt><trkpt lat="41.8832911" lon="13.4528662"><ele>504.0</ele><time>2026-04-25T10:12:33.674Z</time></trkpt><trkpt lat="41.8834747" lon="13.4526996"><ele>505.5</ele><time>2026-04-25T10:12:34.674Z</time></trkpt><trkpt lat="41.8836609" lon="13.4525252"><ele>507.0</ele><time>2026-04-25T10:12:35.674Z</time></trkpt><trkpt lat="41.8838526" lon="13.4523511"><ele>507.0</ele><time>2026-04-25T10:12:36.674Z</time></trkpt><trkpt lat="41.884042" lon="13.4521709"><ele>507.0</ele><time>2026-04-25T10:12:37.674Z</time></trkpt><trkpt lat="41.8842268" lon="13.4519789"><ele>504.5</ele><time>2026-04-25T10:12:38.674Z</time></trkpt><trkpt lat="41.8844288" lon="13.4517978"><ele>502.0</ele><time>2026-04-25T10:12:39.674Z</time></trkpt><trkpt lat="41.884625" lon="13.4516129"><ele>502.0</ele><time>2026-04-25T10:12:40.674Z</time></trkpt><trkpt lat="41.8848245" lon="13.4514286"><ele>502.0</ele><time>2026-04-25T10:12:41.674Z</time></trkpt><trkpt lat="41.8850187" lon="13.4512365"><ele>502.5</ele><time>2026-04-25T10:12:42.674Z</time></trkpt><trkpt lat="41.8852209" lon="13.4510374"><ele>503.0</ele><time>2026-04-25T10:12:43.674Z</time></trkpt><trkpt lat="41.8854231" lon="13.4508396"><ele>503.0</ele><time>2026-04-25T10:12:44.674Z</time></trkpt><trkpt lat="41.885626" lon="13.4506449"><ele>503.0</ele><time>2026-04-25T10:12:45.674Z</time></trkpt><trkpt lat="41.8858323" lon="13.4504495"><ele>498.5</ele><time>2026-04-25T10:12:46.674Z</time></trkpt><trkpt lat="41.8860373" lon="13.450253"><ele>494.0</ele><time>2026-04-25T10:12:47.674Z</time></trkpt><trkpt lat="41.8862463" lon="13.4500532"><ele>494.0</ele><time>2026-04-25T10:12:48.674Z</time></trkpt><trkpt lat="41.8864561" lon="13.4498615"><ele>494.0</ele><time>2026-04-25T10:12:49.675Z</time></trkpt><trkpt lat="41.8866646" lon="13.4496703"><ele>498.0</ele><time>2026-04-25T10:12:50.674Z</time></trkpt><trkpt lat="41.8868737" lon="13.4494791"><ele>502.0</ele><time>2026-04-25T10:12:51.674Z</time></trkpt><trkpt lat="41.8870826" lon="13.4492872"><ele>502.0</ele><time>2026-04-25T10:12:52.674Z</time></trkpt><trkpt lat="41.887289" lon="13.4490959"><ele>502.0</ele><time>2026-04-25T10:12:53.675Z</time></trkpt><trkpt lat="41.8874922" lon="13.4489028"><ele>509.0</ele><time>2026-04-25T10:12:54.674Z</time></trkpt><trkpt lat="41.8876943" lon="13.4487209"><ele>516.0</ele><time>2026-04-25T10:12:55.674Z</time></trkpt><trkpt lat="41.8878909" lon="13.4485265"><ele>516.0</ele><time>2026-04-25T10:12:56.674Z</time></trkpt><trkpt lat="41.8880804" lon="13.4483433"><ele>516.0</ele><time>2026-04-25T10:12:57.675Z</time></trkpt><trkpt lat="41.8882661" lon="13.448158"><ele>514.0</ele><time>2026-04-25T10:12:58.674Z</time></trkpt><trkpt lat="41.8884572" lon="13.4479872"><ele>512.0</ele><time>2026-04-25T10:12:59.674Z</time></trkpt><trkpt lat="41.8886558" lon="13.4478079"><ele>512.0</ele><time>2026-04-25T10:13:00.674Z</time></trkpt><trkpt lat="41.8888349" lon="13.4476396"><ele>512.0</ele><time>2026-04-25T10:13:01.674Z</time></trkpt><trkpt lat="41.8890879" lon="13.4474145"><ele>512.0</ele><time>2026-04-25T10:13:02.674Z</time></trkpt><trkpt lat="41.8891883" lon="13.4472976"><ele>512.0</ele><time>2026-04-25T10:13:03.674Z</time></trkpt><trkpt lat="41.8893466" lon="13.4471279"><ele>512.0</ele><time>2026-04-25T10:13:04.674Z</time></trkpt><trkpt lat="41.8895416" lon="13.4469635"><ele>507.3333333333333</ele><time>2026-04-25T10:13:05.674Z</time></trkpt><trkpt lat="41.8897266" lon="13.4467966"><ele>502.66666666666663</ele><time>2026-04-25T10:13:06.674Z</time></trkpt><trkpt lat="41.8899021" lon="13.4466315"><ele>498.0</ele><time>2026-04-25T10:13:07.674Z</time></trkpt><trkpt lat="41.8900703" lon="13.4464636"><ele>500.33333333333337</ele><time>2026-04-25T10:13:08.674Z</time></trkpt><trkpt lat="41.8902436" lon="13.4463072"><ele>502.6666666666667</ele><time>2026-04-25T10:13:09.674Z</time></trkpt><trkpt lat="41.8904233" lon="13.4461473"><ele>505.0</ele><time>2026-04-25T10:13:10.674Z</time></trkpt><trkpt lat="41.8906067" lon="13.4460092"><ele>506.0</ele><time>2026-04-25T10:13:11.674Z</time></trkpt><trkpt lat="41.8907865" lon="13.4458607"><ele>507.0</ele><time>2026-04-25T10:13:12.674Z</time></trkpt><trkpt lat="41.8909742" lon="13.4457227"><ele>508.0</ele><time>2026-04-25T10:13:13.674Z</time></trkpt><trkpt lat="41.8911656" lon="13.445583"><ele>509.33333333333337</ele><time>2026-04-25T10:13:14.674Z</time></trkpt><trkpt lat="41.8913482" lon="13.4454373"><ele>510.66666666666663</ele><time>2026-04-25T10:13:15.674Z</time></trkpt><trkpt lat="41.89154" lon="13.4453006"><ele>512.0</ele><time>2026-04-25T10:13:16.674Z</time></trkpt><trkpt lat="41.8917277" lon="13.4451663"><ele>519.3333333333333</ele><time>2026-04-25T10:13:17.675Z</time></trkpt><trkpt lat="41.8919178" lon="13.4450375"><ele>526.6666666666666</ele><time>2026-04-25T10:13:18.674Z</time></trkpt><trkpt lat="41.8921081" lon="13.4449166"><ele>534.0</ele><time>2026-04-25T10:13:19.674Z</time></trkpt><trkpt lat="41.8922983" lon="13.4448024"><ele>534.0</ele><time>2026-04-25T10:13:20.674Z</time></trkpt><trkpt lat="41.8924968" lon="13.4446894"><ele>534.0</ele><time>2026-04-25T10:13:21.674Z</time></trkpt><trkpt lat="41.8926968" lon="13.4445744"><ele>534.0</ele><time>2026-04-25T10:13:22.674Z</time></trkpt><trkpt lat="41.8929007" lon="13.4444745"><ele>535.0</ele><time>2026-04-25T10:13:23.674Z</time></trkpt><trkpt lat="41.893105" lon="13.4443687"><ele>536.0</ele><time>2026-04-25T10:13:24.674Z</time></trkpt><trkpt lat="41.8933132" lon="13.444268"><ele>537.0</ele><time>2026-04-25T10:13:25.674Z</time></trkpt><trkpt lat="41.8935283" lon="13.4441736"><ele>537.0</ele><time>2026-04-25T10:13:26.674Z</time></trkpt><trkpt lat="41.893742" lon="13.4440875"><ele>537.0</ele><time>2026-04-25T10:13:27.674Z</time></trkpt><trkpt lat="41.8939607" lon="13.4440036"><ele>537.0</ele><time>2026-04-25T10:13:28.674Z</time></trkpt><trkpt lat="41.8941823" lon="13.4439188"><ele>537.0</ele><time>2026-04-25T10:13:29.674Z</time></trkpt><trkpt lat="41.8944064" lon="13.4438334"><ele>530.0</ele><time>2026-04-25T10:13:30.674Z</time></trkpt><trkpt lat="41.8946288" lon="13.4437502"><ele>523.0</ele><time>2026-04-25T10:13:31.674Z</time></trkpt><trkpt lat="41.8948513" lon="13.4436586"><ele>523.0</ele><time>2026-04-25T10:13:32.674Z</time></trkpt><trkpt lat="41.8950705" lon="13.4435673"><ele>523.0</ele><time>2026-04-25T10:13:33.674Z</time></trkpt><trkpt lat="41.8952985" lon="13.4434823"><ele>526.5</ele><time>2026-04-25T10:13:34.674Z</time></trkpt><trkpt lat="41.895525" lon="13.4433897"><ele>530.0</ele><time>2026-04-25T10:13:35.674Z</time></trkpt><trkpt lat="41.8957527" lon="13.4432973"><ele>533.5</ele><time>2026-04-25T10:13:36.674Z</time></trkpt><trkpt lat="41.8959728" lon="13.4431957"><ele>537.0</ele><time>2026-04-25T10:13:37.674Z</time></trkpt><trkpt lat="41.8961939" lon="13.4430932"><ele>537.0</ele><time>2026-04-25T10:13:38.674Z</time></trkpt><trkpt lat="41.8964281" lon="13.4430029"><ele>537.0</ele><time>2026-04-25T10:13:39.674Z</time></trkpt><trkpt lat="41.8966597" lon="13.4429178"><ele>530.0</ele><time>2026-04-25T10:13:40.674Z</time></trkpt><trkpt lat="41.8968951" lon="13.4428313"><ele>523.0</ele><time>2026-04-25T10:13:41.674Z</time></trkpt><trkpt lat="41.8971216" lon="13.4427472"><ele>523.0</ele><time>2026-04-25T10:13:42.674Z</time></trkpt><trkpt lat="41.8973382" lon="13.4426626"><ele>523.0</ele><time>2026-04-25T10:13:43.674Z</time></trkpt><trkpt lat="41.8975468" lon="13.4425758"><ele>523.0</ele><time>2026-04-25T10:13:44.674Z</time></trkpt><trkpt lat="41.8977637" lon="13.4425005"><ele>526.3333333333334</ele><time>2026-04-25T10:13:45.674Z</time></trkpt><trkpt lat="41.8979745" lon="13.4424118"><ele>529.6666666666666</ele><time>2026-04-25T10:13:46.674Z</time></trkpt><trkpt lat="41.8981877" lon="13.442329"><ele>533.0</ele><time>2026-04-25T10:13:47.675Z</time></trkpt><trkpt lat="41.8984003" lon="13.4422445"><ele>533.0</ele><time>2026-04-25T10:13:48.674Z</time></trkpt><trkpt lat="41.898611" lon="13.4421577"><ele>533.0</ele><time>2026-04-25T10:13:49.674Z</time></trkpt><trkpt lat="41.8988221" lon="13.4420683"><ele>533.0</ele><time>2026-04-25T10:13:50.674Z</time></trkpt><trkpt lat="41.8990334" lon="13.4419819"><ele>533.3333333333333</ele><time>2026-04-25T10:13:51.674Z</time></trkpt><trkpt lat="41.8992409" lon="13.4418895"><ele>533.6666666666666</ele><time>2026-04-25T10:13:52.674Z</time></trkpt><trkpt lat="41.899444" lon="13.4417901"><ele>534.0</ele><time>2026-04-25T10:13:53.674Z</time></trkpt><trkpt lat="41.8996599" lon="13.4416916"><ele>534.0</ele><time>2026-04-25T10:13:54.674Z</time></trkpt><trkpt lat="41.8998695" lon="13.4415806"><ele>534.0</ele><time>2026-04-25T10:13:55.674Z</time></trkpt><trkpt lat="41.9000762" lon="13.4414612"><ele>532.6666666666666</ele><time>2026-04-25T10:13:56.674Z</time></trkpt><trkpt lat="41.9002774" lon="13.4413379"><ele>531.3333333333333</ele><time>2026-04-25T10:13:57.674Z</time></trkpt><trkpt lat="41.9004828" lon="13.4412043"><ele>530.0</ele><time>2026-04-25T10:13:58.675Z</time></trkpt><trkpt lat="41.9006836" lon="13.4410656"><ele>530.0</ele><time>2026-04-25T10:13:59.674Z</time></trkpt><trkpt lat="41.9008834" lon="13.4409157"><ele>530.0</ele><time>2026-04-25T10:14:00.674Z</time></trkpt><trkpt lat="41.9010827" lon="13.4407588"><ele>530.5</ele><time>2026-04-25T10:14:01.674Z</time></trkpt><trkpt lat="41.9012742" lon="13.4405909"><ele>531.0</ele><time>2026-04-25T10:14:02.674Z</time></trkpt><trkpt lat="41.9014624" lon="13.4404233"><ele>531.0</ele><time>2026-04-25T10:14:03.674Z</time></trkpt><trkpt lat="41.9016453" lon="13.4402473"><ele>531.0</ele><time>2026-04-25T10:14:04.674Z</time></trkpt><trkpt lat="41.9018242" lon="13.4400676"><ele>531.0</ele><time>2026-04-25T10:14:05.674Z</time></trkpt><trkpt lat="41.9020037" lon="13.4398846"><ele>534.0</ele><time>2026-04-25T10:14:06.674Z</time></trkpt><trkpt lat="41.902179" lon="13.4396996"><ele>537.0</ele><time>2026-04-25T10:14:07.674Z</time></trkpt><trkpt lat="41.9023509" lon="13.4395145"><ele>540.0</ele><time>2026-04-25T10:14:08.674Z</time></trkpt><trkpt lat="41.9025228" lon="13.4393246"><ele>540.3333333333334</ele><time>2026-04-25T10:14:09.674Z</time></trkpt><trkpt lat="41.9026942" lon="13.4391386"><ele>540.6666666666667</ele><time>2026-04-25T10:14:10.674Z</time></trkpt><trkpt lat="41.9028645" lon="13.4389526"><ele>541.0</ele><time>2026-04-25T10:14:11.674Z</time></trkpt><trkpt lat="41.9030321" lon="13.4387601"><ele>541.0</ele><time>2026-04-25T10:14:12.674Z</time></trkpt><trkpt lat="41.9031997" lon="13.4385715"><ele>541.0</ele><time>2026-04-25T10:14:13.674Z</time></trkpt><trkpt lat="41.9033688" lon="13.4383821"><ele>541.0</ele><time>2026-04-25T10:14:14.674Z</time></trkpt><trkpt lat="41.903536" lon="13.4382016"><ele>545.0</ele><time>2026-04-25T10:14:15.674Z</time></trkpt><trkpt lat="41.9037072" lon="13.438014"><ele>549.0</ele><time>2026-04-25T10:14:16.674Z</time></trkpt><trkpt lat="41.9038736" lon="13.4378362"><ele>553.0</ele><time>2026-04-25T10:14:17.674Z</time></trkpt><trkpt lat="41.9040314" lon="13.4376637"><ele>555.3333333333334</ele><time>2026-04-25T10:14:18.674Z</time></trkpt><trkpt lat="41.9041927" lon="13.4374938"><ele>557.6666666666666</ele><time>2026-04-25T10:14:19.674Z</time></trkpt><trkpt lat="41.9043454" lon="13.4373235"><ele>560.0</ele><time>2026-04-25T10:14:20.674Z</time></trkpt><trkpt lat="41.9044972" lon="13.4371608"><ele>564.0</ele><time>2026-04-25T10:14:21.674Z</time></trkpt><trkpt lat="41.9046465" lon="13.4370042"><ele>568.0</ele><time>2026-04-25T10:14:22.674Z</time></trkpt><trkpt lat="41.9047927" lon="13.4368496"><ele>572.0</ele><time>2026-04-25T10:14:23.674Z</time></trkpt><trkpt lat="41.9049389" lon="13.4366969"><ele>579.6666666666666</ele><time>2026-04-25T10:14:24.674Z</time></trkpt><trkpt lat="41.9050808" lon="13.4365417"><ele>587.3333333333334</ele><time>2026-04-25T10:14:25.674Z</time></trkpt><trkpt lat="41.9052208" lon="13.4363891"><ele>595.0</ele><time>2026-04-25T10:14:26.674Z</time></trkpt><trkpt lat="41.9053571" lon="13.4362405"><ele>574.0</ele><time>2026-04-25T10:14:27.674Z</time></trkpt><trkpt lat="41.9073197" lon="13.4341132"><ele>574.0</ele><time>2026-04-25T10:14:39.674Z</time></trkpt><trkpt lat="41.9074973" lon="13.4339826"><ele>574.0</ele><time>2026-04-25T10:14:40.674Z</time></trkpt><trkpt lat="41.9076672" lon="13.4338268"><ele>574.0</ele><time>2026-04-25T10:14:41.674Z</time></trkpt><trkpt lat="41.9078485" lon="13.4336625"><ele>572.6666666666667</ele><time>2026-04-25T10:14:42.674Z</time></trkpt><trkpt lat="41.9080263" lon="13.4335135"><ele>571.3333333333334</ele><time>2026-04-25T10:14:43.674Z</time></trkpt><trkpt lat="41.9082134" lon="13.4333684"><ele>570.0</ele><time>2026-04-25T10:14:44.674Z</time></trkpt><trkpt lat="41.9083954" lon="13.4332277"><ele>572.3333333333334</ele><time>2026-04-25T10:14:45.674Z</time></trkpt><trkpt lat="41.9085775" lon="13.4330813"><ele>574.6666666666667</ele><time>2026-04-25T10:14:46.674Z</time></trkpt><trkpt lat="41.9087695" lon="13.4329559"><ele>577.0</ele><time>2026-04-25T10:14:47.674Z</time></trkpt><trkpt lat="41.9089559" lon="13.4328258"><ele>577.0</ele><time>2026-04-25T10:14:48.674Z</time></trkpt><trkpt lat="41.9091551" lon="13.4327163"><ele>577.0</ele><time>2026-04-25T10:14:49.674Z</time></trkpt><trkpt lat="41.9093611" lon="13.4326207"><ele>577.0</ele><time>2026-04-25T10:14:50.674Z</time></trkpt><trkpt lat="41.9095678" lon="13.4325338"><ele>577.0</ele><time>2026-04-25T10:14:51.674Z</time></trkpt><trkpt lat="41.9097751" lon="13.4324494"><ele>577.0</ele><time>2026-04-25T10:14:52.674Z</time></trkpt><trkpt lat="41.9099848" lon="13.4323751"><ele>577.0</ele><time>2026-04-25T10:14:53.674Z</time></trkpt><trkpt lat="41.9101959" lon="13.4323004"><ele>575.6666666666667</ele><time>2026-04-25T10:14:54.674Z</time></trkpt><trkpt lat="41.9103827" lon="13.4322474"><ele>574.3333333333334</ele><time>2026-04-25T10:14:55.674Z</time></trkpt><trkpt lat="41.9105408" lon="13.4322133"><ele>573.0</ele><time>2026-04-25T10:14:56.674Z</time></trkpt><trkpt lat="41.9107809" lon="13.4322011"><ele>571.0</ele><time>2026-04-25T10:14:57.675Z</time></trkpt><trkpt lat="41.9109613" lon="13.4321719"><ele>569.0</ele><time>2026-04-25T10:14:58.674Z</time></trkpt><trkpt lat="41.9111787" lon="13.4321282"><ele>567.0</ele><time>2026-04-25T10:14:59.674Z</time></trkpt><trkpt lat="41.911359" lon="13.4321093"><ele>567.0</ele><time>2026-04-25T10:15:00.674Z</time></trkpt><trkpt lat="41.9115448" lon="13.4321081"><ele>567.0</ele><time>2026-04-25T10:15:01.674Z</time></trkpt><trkpt lat="41.9117291" lon="13.432107"><ele>567.0</ele><time>2026-04-25T10:15:02.674Z</time></trkpt><trkpt lat="41.9119018" lon="13.4321064"><ele>567.0</ele><time>2026-04-25T10:15:03.674Z</time></trkpt><trkpt lat="41.9120421" lon="13.4321073"><ele>567.0</ele><time>2026-04-25T10:15:04.674Z</time></trkpt><trkpt lat="41.9121925" lon="13.4321008"><ele>567.0</ele><time>2026-04-25T10:15:05.674Z</time></trkpt><trkpt lat="41.9123282" lon="13.4321197"><ele>567.0</ele><time>2026-04-25T10:15:06.674Z</time></trkpt><trkpt lat="41.9124458" lon="13.4321431"><ele>567.8000000000001</ele><time>2026-04-25T10:15:07.674Z</time></trkpt><trkpt lat="41.9125509" lon="13.4322023"><ele>568.6</ele><time>2026-04-25T10:15:08.674Z</time></trkpt><trkpt lat="41.9126343" lon="13.4322858"><ele>569.4000000000001</ele><time>2026-04-25T10:15:09.674Z</time></trkpt><trkpt lat="41.912684" lon="13.4323896"><ele>570.2</ele><time>2026-04-25T10:15:10.674Z</time></trkpt><trkpt lat="41.9127199" lon="13.4325143"><ele>571.0</ele><time>2026-04-25T10:15:11.674Z</time></trkpt><trkpt lat="41.9127233" lon="13.4326405"><ele>572.0</ele><time>2026-04-25T10:15:12.674Z</time></trkpt><trkpt lat="41.9126891" lon="13.4327721"><ele>573.0</ele><time>2026-04-25T10:15:13.674Z</time></trkpt><trkpt lat="41.9126408" lon="13.4328989"><ele>574.0</ele><time>2026-04-25T10:15:14.674Z</time></trkpt><trkpt lat="41.9125597" lon="13.4330016"><ele>575.0</ele><time>2026-04-25T10:15:15.674Z</time></trkpt><trkpt lat="41.9124537" lon="13.4330631"><ele>576.0</ele><time>2026-04-25T10:15:16.674Z</time></trkpt><trkpt lat="41.912352" lon="13.4330926"><ele>574.75</ele><time>2026-04-25T10:15:17.674Z</time></trkpt><trkpt lat="41.9122378" lon="13.4330583"><ele>573.5</ele><time>2026-04-25T10:15:18.674Z</time></trkpt><trkpt lat="41.9121262" lon="13.4329709"><ele>572.25</ele><time>2026-04-25T10:15:19.674Z</time></trkpt><trkpt lat="41.9120372" lon="13.4328773"><ele>571.0</ele><time>2026-04-25T10:15:20.674Z</time></trkpt><trkpt lat="41.9119633" lon="13.4327562"><ele>571.0</ele><time>2026-04-25T10:15:21.674Z</time></trkpt><trkpt lat="41.9118985" lon="13.4326095"><ele>571.0</ele><time>2026-04-25T10:15:22.674Z</time></trkpt><trkpt lat="41.9118348" lon="13.4324549"><ele>571.0</ele><time>2026-04-25T10:15:23.674Z</time></trkpt><trkpt lat="41.911786" lon="13.4322733"><ele>571.0</ele><time>2026-04-25T10:15:24.674Z</time></trkpt><trkpt lat="41.9117259" lon="13.4320978"><ele>568.25</ele><time>2026-04-25T10:15:25.674Z</time></trkpt><trkpt lat="41.9116594" lon="13.4319202"><ele>565.5</ele><time>2026-04-25T10:15:26.674Z</time></trkpt><trkpt lat="41.9115879" lon="13.431753"><ele>562.75</ele><time>2026-04-25T10:15:27.674Z</time></trkpt><trkpt lat="41.9115248" lon="13.4315864"><ele>560.0</ele><time>2026-04-25T10:15:28.674Z</time></trkpt><trkpt lat="41.9114773" lon="13.4315021"><ele>560.0</ele><time>2026-04-25T10:15:29.674Z</time></trkpt><trkpt lat="41.9114412" lon="13.4313409"><ele>560.0</ele><time>2026-04-25T10:15:30.674Z</time></trkpt><trkpt lat="41.9114137" lon="13.4311726"><ele>560.0</ele><time>2026-04-25T10:15:31.674Z</time></trkpt><trkpt lat="41.9114124" lon="13.4310219"><ele>560.0</ele><time>2026-04-25T10:15:32.674Z</time></trkpt><trkpt lat="41.9114242" lon="13.4309198"><ele>560.0</ele><time>2026-04-25T10:15:33.674Z</time></trkpt><trkpt lat="41.9114685" lon="13.4307904"><ele>558.8333333333333</ele><time>2026-04-25T10:15:35.674Z</time></trkpt><trkpt lat="41.9115007" lon="13.4307166"><ele>557.6666666666666</ele><time>2026-04-25T10:15:36.674Z</time></trkpt><trkpt lat="41.9115398" lon="13.4306325"><ele>556.5</ele><time>2026-04-25T10:15:37.674Z</time></trkpt><trkpt lat="41.9115826" lon="13.4305322"><ele>555.3333333333334</ele><time>2026-04-25T10:15:38.674Z</time></trkpt><trkpt lat="41.911643" lon="13.4304323"><ele>554.1666666666667</ele><time>2026-04-25T10:15:39.674Z</time></trkpt><trkpt lat="41.9117234" lon="13.4303317"><ele>553.0</ele><time>2026-04-25T10:15:40.674Z</time></trkpt><trkpt lat="41.9118244" lon="13.4302388"><ele>551.5</ele><time>2026-04-25T10:15:41.674Z</time></trkpt><trkpt lat="41.911933" lon="13.4301652"><ele>550.0</ele><time>2026-04-25T10:15:42.674Z</time></trkpt><trkpt lat="41.9120615" lon="13.4300976"><ele>548.5</ele><time>2026-04-25T10:15:43.674Z</time></trkpt><trkpt lat="41.9121924" lon="13.4300277"><ele>547.0</ele><time>2026-04-25T10:15:44.674Z</time></trkpt><trkpt lat="41.9123308" lon="13.4299862"><ele>547.0</ele><time>2026-04-25T10:15:45.674Z</time></trkpt><trkpt lat="41.9124497" lon="13.4299239"><ele>547.0</ele><time>2026-04-25T10:15:46.674Z</time></trkpt><trkpt lat="41.9125684" lon="13.4298653"><ele>547.0</ele><time>2026-04-25T10:15:47.674Z</time></trkpt><trkpt lat="41.9126834" lon="13.429802"><ele>547.0</ele><time>2026-04-25T10:15:48.674Z</time></trkpt><trkpt lat="41.9127952" lon="13.4297324"><ele>547.0</ele><time>2026-04-25T10:15:49.674Z</time></trkpt><trkpt lat="41.9129047" lon="13.4296532"><ele>547.0</ele><time>2026-04-25T10:15:50.674Z</time></trkpt><trkpt lat="41.9130135" lon="13.4295759"><ele>547.0</ele><time>2026-04-25T10:15:51.674Z</time></trkpt><trkpt lat="41.913117" lon="13.4295008"><ele>547.0</ele><time>2026-04-25T10:15:52.674Z</time></trkpt><trkpt lat="41.9132151" lon="13.4294291"><ele>544.6</ele><time>2026-04-25T10:15:53.674Z</time></trkpt><trkpt lat="41.9133049" lon="13.4293571"><ele>542.2</ele><time>2026-04-25T10:15:54.674Z</time></trkpt><trkpt lat="41.9133799" lon="13.4292724"><ele>539.8</ele><time>2026-04-25T10:15:55.674Z</time></trkpt><trkpt lat="41.913443" lon="13.4291657"><ele>537.4</ele><time>2026-04-25T10:15:56.674Z</time></trkpt><trkpt lat="41.913478" lon="13.4290616"><ele>535.0</ele><time>2026-04-25T10:15:57.674Z</time></trkpt><trkpt lat="41.9135165" lon="13.4289398"><ele>534.8333333333334</ele><time>2026-04-25T10:15:58.674Z</time></trkpt><trkpt lat="41.9135364" lon="13.4288296"><ele>534.6666666666667</ele><time>2026-04-25T10:15:59.674Z</time></trkpt><trkpt lat="41.9135602" lon="13.4287082"><ele>534.5</ele><time>2026-04-25T10:16:00.674Z</time></trkpt><trkpt lat="41.9135809" lon="13.4285821"><ele>534.3333333333334</ele><time>2026-04-25T10:16:01.674Z</time></trkpt><trkpt lat="41.9135985" lon="13.4284637"><ele>534.1666666666666</ele><time>2026-04-25T10:16:02.674Z</time></trkpt><trkpt lat="41.9136131" lon="13.4283522"><ele>534.0</ele><time>2026-04-25T10:16:03.674Z</time></trkpt><trkpt lat="41.9136312" lon="13.4282488"><ele>533.5</ele><time>2026-04-25T10:16:04.674Z</time></trkpt><trkpt lat="41.9136576" lon="13.4281561"><ele>533.0</ele><time>2026-04-25T10:16:05.674Z</time></trkpt><trkpt lat="41.9136916" lon="13.4280744"><ele>532.5</ele><time>2026-04-25T10:16:06.674Z</time></trkpt><trkpt lat="41.9137277" lon="13.427994"><ele>532.0</ele><time>2026-04-25T10:16:07.675Z</time></trkpt><trkpt lat="41.9137973" lon="13.4278624"><ele>531.5</ele><time>2026-04-25T10:16:09.674Z</time></trkpt><trkpt lat="41.9138209" lon="13.4277288"><ele>531.0</ele><time>2026-04-25T10:16:11.674Z</time></trkpt><trkpt lat="41.9138231" lon="13.4276073"><ele>529.6</ele><time>2026-04-25T10:16:13.674Z</time></trkpt><trkpt lat="41.9138033" lon="13.4275077"><ele>528.2</ele><time>2026-04-25T10:16:16.674Z</time></trkpt><trkpt lat="41.9137493" lon="13.4274136"><ele>526.8</ele><time>2026-04-25T10:16:24.674Z</time></trkpt><trkpt lat="41.9136955" lon="13.4273451"><ele>525.4</ele><time>2026-04-25T10:16:26.674Z</time></trkpt><trkpt lat="41.9136057" lon="13.4272939"><ele>524.0</ele><time>2026-04-25T10:16:28.674Z</time></trkpt><trkpt lat="41.9134878" lon="13.4272595"><ele>524.0</ele><time>2026-04-25T10:16:30.674Z</time></trkpt><trkpt lat="41.9134152" lon="13.4272366"><ele>524.0</ele><time>2026-04-25T10:16:31.674Z</time></trkpt><trkpt lat="41.9133379" lon="13.4272193"><ele>524.0</ele><time>2026-04-25T10:16:32.674Z</time></trkpt><trkpt lat="41.9132631" lon="13.42722"><ele>524.0</ele><time>2026-04-25T10:16:33.674Z</time></trkpt><trkpt lat="41.9131906" lon="13.4272461"><ele>524.0</ele><time>2026-04-25T10:16:34.674Z</time></trkpt><trkpt lat="41.9131208" lon="13.4272919"><ele>524.0</ele><time>2026-04-25T10:16:35.675Z</time></trkpt><trkpt lat="41.9130598" lon="13.4273478"><ele>523.6</ele><time>2026-04-25T10:16:36.674Z</time></trkpt><trkpt lat="41.9130033" lon="13.4274089"><ele>523.2</ele><time>2026-04-25T10:16:37.674Z</time></trkpt><trkpt lat="41.9129515" lon="13.4274659"><ele>522.8000000000001</ele><time>2026-04-25T10:16:38.674Z</time></trkpt><trkpt lat="41.9128643" lon="13.4275708"><ele>522.4</ele><time>2026-04-25T10:16:40.674Z</time></trkpt><trkpt lat="41.912803" lon="13.4276881"><ele>522.0</ele><time>2026-04-25T10:16:42.674Z</time></trkpt><trkpt lat="41.9127337" lon="13.427801"><ele>522.0</ele><time>2026-04-25T10:16:44.674Z</time></trkpt><trkpt lat="41.9126306" lon="13.4278793"><ele>522.0</ele><time>2026-04-25T10:16:46.674Z</time></trkpt><trkpt lat="41.9125717" lon="13.4279224"><ele>522.0</ele><time>2026-04-25T10:16:47.674Z</time></trkpt><trkpt lat="41.9124726" lon="13.4280091"><ele>522.0</ele><time>2026-04-25T10:16:49.674Z</time></trkpt><trkpt lat="41.9123937" lon="13.4280936"><ele>522.0</ele><time>2026-04-25T10:16:51.675Z</time></trkpt><trkpt lat="41.9123347" lon="13.4281369"><ele>522.0</ele><time>2026-04-25T10:16:53.674Z</time></trkpt><trkpt lat="41.9122658" lon="13.4281821"><ele>522.0</ele><time>2026-04-25T10:20:59.673Z</time></trkpt><trkpt lat="41.9123297" lon="13.4282122"><ele>522.0</ele><time>2026-04-25T10:21:10.673Z</time></trkpt><trkpt lat="41.9124224" lon="13.4281386"><ele>522.0</ele><time>2026-04-25T10:21:12.673Z</time></trkpt><trkpt lat="41.9124755" lon="13.4280888"><ele>522.0</ele><time>2026-04-25T10:21:13.673Z</time></trkpt><trkpt lat="41.9125364" lon="13.4280329"><ele>522.0</ele><time>2026-04-25T10:21:14.673Z</time></trkpt><trkpt lat="41.9126057" lon="13.4279709"><ele>522.0</ele><time>2026-04-25T10:21:15.673Z</time></trkpt><trkpt lat="41.9126853" lon="13.4278976"><ele>522.0</ele><time>2026-04-25T10:21:16.674Z</time></trkpt><trkpt lat="41.9127579" lon="13.427839"><ele>522.0</ele><time>2026-04-25T10:21:17.674Z</time></trkpt><trkpt lat="41.9128364" lon="13.4277763"><ele>522.0</ele><time>2026-04-25T10:21:18.673Z</time></trkpt><trkpt lat="41.9129186" lon="13.4277439"><ele>522.0</ele><time>2026-04-25T10:21:19.673Z</time></trkpt><trkpt lat="41.9129919" lon="13.4277172"><ele>522.0</ele><time>2026-04-25T10:21:20.673Z</time></trkpt><trkpt lat="41.9130559" lon="13.4276891"><ele>522.0</ele><time>2026-04-25T10:21:21.673Z</time></trkpt><trkpt lat="41.9131747" lon="13.4276449"><ele>522.0</ele><time>2026-04-25T10:21:23.673Z</time></trkpt><trkpt lat="41.9132984" lon="13.4276049"><ele>522.0</ele><time>2026-04-25T10:21:25.673Z</time></trkpt><trkpt lat="41.913374" lon="13.4275776"><ele>522.0</ele><time>2026-04-25T10:21:26.674Z</time></trkpt><trkpt lat="41.9134497" lon="13.4275495"><ele>522.0</ele><time>2026-04-25T10:21:27.673Z</time></trkpt><trkpt lat="41.9135271" lon="13.4275305"><ele>522.4</ele><time>2026-04-25T10:21:28.673Z</time></trkpt><trkpt lat="41.9136044" lon="13.4275096"><ele>522.8000000000001</ele><time>2026-04-25T10:21:29.673Z</time></trkpt><trkpt lat="41.9136706" lon="13.4275098"><ele>523.2</ele><time>2026-04-25T10:21:30.673Z</time></trkpt><trkpt lat="41.9137742" lon="13.4275961"><ele>523.6</ele><time>2026-04-25T10:21:32.673Z</time></trkpt><trkpt lat="41.9138151" lon="13.4277427"><ele>524.0</ele><time>2026-04-25T10:21:34.673Z</time></trkpt><trkpt lat="41.9137945" lon="13.4278674"><ele>525.1666666666666</ele><time>2026-04-25T10:21:36.673Z</time></trkpt><trkpt lat="41.9137287" lon="13.4279863"><ele>526.3333333333333</ele><time>2026-04-25T10:21:38.673Z</time></trkpt><trkpt lat="41.9136778" lon="13.4280539"><ele>527.5</ele><time>2026-04-25T10:21:39.673Z</time></trkpt><trkpt lat="41.9136276" lon="13.4281138"><ele>528.6666666666666</ele><time>2026-04-25T10:21:40.673Z</time></trkpt><trkpt lat="41.9135438" lon="13.4282547"><ele>529.8333333333334</ele><time>2026-04-25T10:21:42.673Z</time></trkpt><trkpt lat="41.9135166" lon="13.4283333"><ele>531.0</ele><time>2026-04-25T10:21:43.673Z</time></trkpt><trkpt lat="41.9135005" lon="13.42846"><ele>531.0</ele><time>2026-04-25T10:21:45.673Z</time></trkpt><trkpt lat="41.9135122" lon="13.4285933"><ele>531.0</ele><time>2026-04-25T10:21:47.673Z</time></trkpt><trkpt lat="41.9134943" lon="13.428757"><ele>531.0</ele><time>2026-04-25T10:21:49.673Z</time></trkpt><trkpt lat="41.9134779" lon="13.4288679"><ele>531.0</ele><time>2026-04-25T10:21:50.673Z</time></trkpt><trkpt lat="41.9134605" lon="13.4289751"><ele>531.0</ele><time>2026-04-25T10:21:51.674Z</time></trkpt><trkpt lat="41.9134332" lon="13.4290581"><ele>531.8</ele><time>2026-04-25T10:21:52.673Z</time></trkpt><trkpt lat="41.9134054" lon="13.4291407"><ele>532.6</ele><time>2026-04-25T10:21:53.673Z</time></trkpt><trkpt lat="41.913344" lon="13.4292711"><ele>533.4</ele><time>2026-04-25T10:21:55.673Z</time></trkpt><trkpt lat="41.9132549" lon="13.4293817"><ele>534.2</ele><time>2026-04-25T10:21:57.673Z</time></trkpt><trkpt lat="41.9131873" lon="13.4294231"><ele>535.0</ele><time>2026-04-25T10:21:58.673Z</time></trkpt><trkpt lat="41.913109" lon="13.4294701"><ele>535.0</ele><time>2026-04-25T10:21:59.673Z</time></trkpt><trkpt lat="41.9130292" lon="13.4295256"><ele>535.0</ele><time>2026-04-25T10:22:00.673Z</time></trkpt><trkpt lat="41.9129449" lon="13.4295791"><ele>535.0</ele><time>2026-04-25T10:22:01.673Z</time></trkpt><trkpt lat="41.9128441" lon="13.4296455"><ele>535.0</ele><time>2026-04-25T10:22:02.673Z</time></trkpt><trkpt lat="41.9127247" lon="13.4297292"><ele>535.0</ele><time>2026-04-25T10:22:03.673Z</time></trkpt><trkpt lat="41.9126016" lon="13.4298014"><ele>538.0</ele><time>2026-04-25T10:22:04.674Z</time></trkpt><trkpt lat="41.9124703" lon="13.4298706"><ele>541.0</ele><time>2026-04-25T10:22:05.673Z</time></trkpt><trkpt lat="41.9123388" lon="13.4299392"><ele>544.0</ele><time>2026-04-25T10:22:06.673Z</time></trkpt><trkpt lat="41.9121979" lon="13.4300101"><ele>547.0</ele><time>2026-04-25T10:22:07.673Z</time></trkpt><trkpt lat="41.9120578" lon="13.4300736"><ele>547.0</ele><time>2026-04-25T10:22:08.673Z</time></trkpt><trkpt lat="41.9119319" lon="13.4301395"><ele>547.0</ele><time>2026-04-25T10:22:09.673Z</time></trkpt><trkpt lat="41.9118096" lon="13.4302049"><ele>547.0</ele><time>2026-04-25T10:22:10.673Z</time></trkpt><trkpt lat="41.9117009" lon="13.4302831"><ele>547.0</ele><time>2026-04-25T10:22:11.673Z</time></trkpt><trkpt lat="41.9116068" lon="13.4303846"><ele>548.0</ele><time>2026-04-25T10:22:12.673Z</time></trkpt><trkpt lat="41.9115335" lon="13.4305034"><ele>549.0</ele><time>2026-04-25T10:22:13.673Z</time></trkpt><trkpt lat="41.9114973" lon="13.4306226"><ele>550.0</ele><time>2026-04-25T10:22:14.673Z</time></trkpt><trkpt lat="41.9114942" lon="13.4307424"><ele>551.0</ele><time>2026-04-25T10:22:15.673Z</time></trkpt><trkpt lat="41.9115013" lon="13.4308454"><ele>552.0</ele><time>2026-04-25T10:22:16.673Z</time></trkpt><trkpt lat="41.9115155" lon="13.4309284"><ele>553.0</ele><time>2026-04-25T10:22:18.673Z</time></trkpt><trkpt lat="41.9114569" lon="13.4309601"><ele>553.0</ele><time>2026-04-25T10:22:29.673Z</time></trkpt><trkpt lat="41.9113973" lon="13.4310623"><ele>553.0</ele><time>2026-04-25T10:22:31.673Z</time></trkpt><trkpt lat="41.9113806" lon="13.4311584"><ele>553.0</ele><time>2026-04-25T10:22:32.673Z</time></trkpt><trkpt lat="41.9114015" lon="13.4312725"><ele>553.0</ele><time>2026-04-25T10:22:33.673Z</time></trkpt><trkpt lat="41.9114271" lon="13.4313981"><ele>553.0</ele><time>2026-04-25T10:22:34.673Z</time></trkpt><trkpt lat="41.9114577" lon="13.4315416"><ele>554.75</ele><time>2026-04-25T10:22:35.673Z</time></trkpt><trkpt lat="41.9115056" lon="13.4316736"><ele>556.5</ele><time>2026-04-25T10:22:36.673Z</time></trkpt><trkpt lat="41.9115609" lon="13.4318169"><ele>558.25</ele><time>2026-04-25T10:22:37.673Z</time></trkpt><trkpt lat="41.9116186" lon="13.4319599"><ele>560.0</ele><time>2026-04-25T10:22:38.673Z</time></trkpt><trkpt lat="41.9116655" lon="13.4321007"><ele>561.75</ele><time>2026-04-25T10:22:39.673Z</time></trkpt><trkpt lat="41.9117207" lon="13.4322422"><ele>563.5</ele><time>2026-04-25T10:22:40.674Z</time></trkpt><trkpt lat="41.911773" lon="13.4323814"><ele>565.25</ele><time>2026-04-25T10:22:41.673Z</time></trkpt><trkpt lat="41.9118275" lon="13.4325174"><ele>567.0</ele><time>2026-04-25T10:22:42.673Z</time></trkpt><trkpt lat="41.911887" lon="13.4326443"><ele>567.8000000000001</ele><time>2026-04-25T10:22:43.673Z</time></trkpt><trkpt lat="41.9119531" lon="13.4327799"><ele>568.6</ele><time>2026-04-25T10:22:44.673Z</time></trkpt><trkpt lat="41.9120191" lon="13.4328992"><ele>569.4000000000001</ele><time>2026-04-25T10:22:45.673Z</time></trkpt><trkpt lat="41.9120974" lon="13.4329946"><ele>570.2</ele><time>2026-04-25T10:22:46.673Z</time></trkpt><trkpt lat="41.9121883" lon="13.433067"><ele>571.0</ele><time>2026-04-25T10:22:47.673Z</time></trkpt><trkpt lat="41.9123023" lon="13.4330917"><ele>572.25</ele><time>2026-04-25T10:22:48.673Z</time></trkpt><trkpt lat="41.9124115" lon="13.4330865"><ele>573.5</ele><time>2026-04-25T10:22:49.673Z</time></trkpt><trkpt lat="41.9125231" lon="13.4330324"><ele>574.75</ele><time>2026-04-25T10:22:50.673Z</time></trkpt><trkpt lat="41.9126107" lon="13.4329323"><ele>576.0</ele><time>2026-04-25T10:22:51.673Z</time></trkpt><trkpt lat="41.9126833" lon="13.4328171"><ele>576.0</ele><time>2026-04-25T10:22:52.673Z</time></trkpt><trkpt lat="41.9127349" lon="13.4326839"><ele>576.0</ele><time>2026-04-25T10:22:53.673Z</time></trkpt><trkpt lat="41.9127702" lon="13.4325522"><ele>576.0</ele><time>2026-04-25T10:22:54.673Z</time></trkpt><trkpt lat="41.912806" lon="13.4324234"><ele>576.0</ele><time>2026-04-25T10:22:55.673Z</time></trkpt><trkpt lat="41.9128541" lon="13.4323018"><ele>576.0</ele><time>2026-04-25T10:22:56.673Z</time></trkpt><trkpt lat="41.9129398" lon="13.4322034"><ele>573.75</ele><time>2026-04-25T10:22:57.673Z</time></trkpt><trkpt lat="41.9130457" lon="13.432138"><ele>571.5</ele><time>2026-04-25T10:22:58.673Z</time></trkpt><trkpt lat="41.9131526" lon="13.4321068"><ele>569.25</ele><time>2026-04-25T10:22:59.673Z</time></trkpt><trkpt lat="41.9132701" lon="13.4320961"><ele>567.0</ele><time>2026-04-25T10:23:00.673Z</time></trkpt><trkpt lat="41.9134075" lon="13.4320838"><ele>566.0</ele><time>2026-04-25T10:23:01.673Z</time></trkpt><trkpt lat="41.9135528" lon="13.4320702"><ele>565.0</ele><time>2026-04-25T10:23:02.673Z</time></trkpt><trkpt lat="41.9136917" lon="13.4320475"><ele>564.0</ele><time>2026-04-25T10:23:03.674Z</time></trkpt><trkpt lat="41.9138437" lon="13.432014"><ele>563.0</ele><time>2026-04-25T10:23:04.673Z</time></trkpt><trkpt lat="41.9140013" lon="13.4319813"><ele>563.0</ele><time>2026-04-25T10:23:05.673Z</time></trkpt><trkpt lat="41.9141612" lon="13.4319479"><ele>563.0</ele><time>2026-04-25T10:23:06.673Z</time></trkpt><trkpt lat="41.9143248" lon="13.4319179"><ele>563.0</ele><time>2026-04-25T10:23:07.674Z</time></trkpt><trkpt lat="41.9144851" lon="13.4318785"><ele>568.0</ele><time>2026-04-25T10:23:08.673Z</time></trkpt><trkpt lat="41.9146508" lon="13.4318319"><ele>573.0</ele><time>2026-04-25T10:23:09.673Z</time></trkpt><trkpt lat="41.9148201" lon="13.431781"><ele>578.0</ele><time>2026-04-25T10:23:10.673Z</time></trkpt><trkpt lat="41.9149866" lon="13.4317308"><ele>580.0</ele><time>2026-04-25T10:23:11.673Z</time></trkpt><trkpt lat="41.9158887" lon="13.4313159"><ele>576.0</ele><time>2026-04-25T10:23:16.673Z</time></trkpt><trkpt lat="41.9160425" lon="13.4311763"><ele>572.0</ele><time>2026-04-25T10:23:17.673Z</time></trkpt><trkpt lat="41.9162232" lon="13.4310864"><ele>568.0</ele><time>2026-04-25T10:23:18.673Z</time></trkpt><trkpt lat="41.9164041" lon="13.4309591"><ele>568.0</ele><time>2026-04-25T10:23:19.673Z</time></trkpt><trkpt lat="41.9165878" lon="13.4308388"><ele>568.0</ele><time>2026-04-25T10:23:20.673Z</time></trkpt><trkpt lat="41.916775" lon="13.430702"><ele>568.0</ele><time>2026-04-25T10:23:21.673Z</time></trkpt><trkpt lat="41.9169629" lon="13.430563"><ele>572.6666666666667</ele><time>2026-04-25T10:23:22.673Z</time></trkpt><trkpt lat="41.9171542" lon="13.4304253"><ele>577.3333333333334</ele><time>2026-04-25T10:23:23.674Z</time></trkpt><trkpt lat="41.9173405" lon="13.4302826"><ele>582.0</ele><time>2026-04-25T10:23:24.673Z</time></trkpt><trkpt lat="41.9175283" lon="13.4301432"><ele>585.3333333333334</ele><time>2026-04-25T10:23:25.673Z</time></trkpt><trkpt lat="41.9177197" lon="13.4300059"><ele>588.6666666666667</ele><time>2026-04-25T10:23:26.673Z</time></trkpt><trkpt lat="41.9179073" lon="13.42987"><ele>592.0</ele><time>2026-04-25T10:23:27.673Z</time></trkpt><trkpt lat="41.9192213" lon="13.4290724"><ele>595.0</ele><time>2026-04-25T10:23:34.673Z</time></trkpt><trkpt lat="41.9194027" lon="13.4289768"><ele>598.0</ele><time>2026-04-25T10:23:35.673Z</time></trkpt><trkpt lat="41.9195908" lon="13.4288771"><ele>601.0</ele><time>2026-04-25T10:23:36.673Z</time></trkpt><trkpt lat="41.9197976" lon="13.4288073"><ele>596.0</ele><time>2026-04-25T10:23:37.673Z</time></trkpt><trkpt lat="41.9199994" lon="13.4287317"><ele>591.0</ele><time>2026-04-25T10:23:38.674Z</time></trkpt><trkpt lat="41.9202011" lon="13.4286695"><ele>586.0</ele><time>2026-04-25T10:23:39.673Z</time></trkpt><trkpt lat="41.9204083" lon="13.4286098"><ele>586.0</ele><time>2026-04-25T10:23:40.673Z</time></trkpt><trkpt lat="41.9206282" lon="13.4285553"><ele>586.0</ele><time>2026-04-25T10:23:41.673Z</time></trkpt><trkpt lat="41.9208485" lon="13.4285089"><ele>586.0</ele><time>2026-04-25T10:23:42.673Z</time></trkpt><trkpt lat="41.9210635" lon="13.4284651"><ele>588.0</ele><time>2026-04-25T10:23:43.673Z</time></trkpt><trkpt lat="41.9212766" lon="13.428421"><ele>590.0</ele><time>2026-04-25T10:23:44.673Z</time></trkpt><trkpt lat="41.9214918" lon="13.4283765"><ele>592.0</ele><time>2026-04-25T10:23:45.673Z</time></trkpt><trkpt lat="41.9217042" lon="13.4283317"><ele>597.6666666666667</ele><time>2026-04-25T10:23:46.673Z</time></trkpt><trkpt lat="41.9219163" lon="13.4282849"><ele>603.3333333333334</ele><time>2026-04-25T10:23:47.673Z</time></trkpt><trkpt lat="41.9221297" lon="13.42824"><ele>609.0</ele><time>2026-04-25T10:23:48.673Z</time></trkpt><trkpt lat="41.9223392" lon="13.4281911"><ele>609.0</ele><time>2026-04-25T10:23:49.673Z</time></trkpt><trkpt lat="41.9225559" lon="13.4281548"><ele>609.0</ele><time>2026-04-25T10:23:50.673Z</time></trkpt><trkpt lat="41.9227715" lon="13.4281144"><ele>609.0</ele><time>2026-04-25T10:23:51.673Z</time></trkpt><trkpt lat="41.9234074" lon="13.4279932"><ele>601.6666666666666</ele><time>2026-04-25T10:23:54.673Z</time></trkpt><trkpt lat="41.9236037" lon="13.4279398"><ele>594.3333333333333</ele><time>2026-04-25T10:23:55.673Z</time></trkpt><trkpt lat="41.9238236" lon="13.4278754"><ele>587.0</ele><time>2026-04-25T10:23:56.673Z</time></trkpt><trkpt lat="41.9240435" lon="13.4278375"><ele>583.3333333333333</ele><time>2026-04-25T10:23:57.674Z</time></trkpt><trkpt lat="41.9242533" lon="13.4278059"><ele>579.6666666666666</ele><time>2026-04-25T10:23:58.673Z</time></trkpt><trkpt lat="41.924462" lon="13.4277567"><ele>576.0</ele><time>2026-04-25T10:23:59.673Z</time></trkpt><trkpt lat="41.9246759" lon="13.4277117"><ele>576.0</ele><time>2026-04-25T10:24:00.673Z</time></trkpt><trkpt lat="41.9248835" lon="13.4276676"><ele>576.0</ele><time>2026-04-25T10:24:01.673Z</time></trkpt><trkpt lat="41.9250959" lon="13.4276311"><ele>576.0</ele><time>2026-04-25T10:24:02.673Z</time></trkpt><trkpt lat="41.9253044" lon="13.4275898"><ele>582.0</ele><time>2026-04-25T10:24:03.673Z</time></trkpt><trkpt lat="41.9255096" lon="13.4275557"><ele>588.0</ele><time>2026-04-25T10:24:04.673Z</time></trkpt><trkpt lat="41.9257178" lon="13.4275284"><ele>594.0</ele><time>2026-04-25T10:24:05.673Z</time></trkpt><trkpt lat="41.9259286" lon="13.4275153"><ele>605.6666666666666</ele><time>2026-04-25T10:24:06.673Z</time></trkpt><trkpt lat="41.9261251" lon="13.42749"><ele>617.3333333333333</ele><time>2026-04-25T10:24:07.674Z</time></trkpt><trkpt lat="41.9263357" lon="13.4274951"><ele>629.0</ele><time>2026-04-25T10:24:08.673Z</time></trkpt><trkpt lat="41.926543" lon="13.4274982"><ele>633.5</ele><time>2026-04-25T10:24:09.673Z</time></trkpt><trkpt lat="41.9267528" lon="13.4275096"><ele>638.0</ele><time>2026-04-25T10:24:10.673Z</time></trkpt><trkpt lat="41.9305527" lon="13.4282032"><ele>638.0</ele><time>2026-04-25T10:24:29.673Z</time></trkpt><trkpt lat="41.9307522" lon="13.428226"><ele>638.0</ele><time>2026-04-25T10:24:30.673Z</time></trkpt><trkpt lat="41.9309573" lon="13.4282236"><ele>638.0</ele><time>2026-04-25T10:24:31.673Z</time></trkpt><trkpt lat="41.9311657" lon="13.4282068"><ele>640.0</ele><time>2026-04-25T10:24:32.673Z</time></trkpt><trkpt lat="41.9313798" lon="13.4281859"><ele>642.0</ele><time>2026-04-25T10:24:33.673Z</time></trkpt><trkpt lat="41.9315805" lon="13.4281598"><ele>644.0</ele><time>2026-04-25T10:24:34.673Z</time></trkpt><trkpt lat="41.9317888" lon="13.4281372"><ele>645.0</ele><time>2026-04-25T10:24:35.673Z</time></trkpt><trkpt lat="41.9319834" lon="13.4281028"><ele>646.0</ele><time>2026-04-25T10:24:36.673Z</time></trkpt><trkpt lat="41.9321853" lon="13.4280732"><ele>647.0</ele><time>2026-04-25T10:24:37.673Z</time></trkpt><trkpt lat="41.9323857" lon="13.4280415"><ele>648.3333333333333</ele><time>2026-04-25T10:24:38.673Z</time></trkpt><trkpt lat="41.9325849" lon="13.4280079"><ele>649.6666666666666</ele><time>2026-04-25T10:24:39.673Z</time></trkpt><trkpt lat="41.9327875" lon="13.4279808"><ele>651.0</ele><time>2026-04-25T10:24:40.673Z</time></trkpt><trkpt lat="41.9329943" lon="13.4279484"><ele>670.0</ele><time>2026-04-25T10:24:41.673Z</time></trkpt><trkpt lat="41.9380083" lon="13.4272123"><ele>670.0</ele><time>2026-04-25T10:25:06.673Z</time></trkpt><trkpt lat="41.9382204" lon="13.4271899"><ele>670.0</ele><time>2026-04-25T10:25:07.673Z</time></trkpt><trkpt lat="41.9384196" lon="13.4271605"><ele>670.0</ele><time>2026-04-25T10:25:08.673Z</time></trkpt><trkpt lat="41.9386129" lon="13.427103"><ele>666.6666666666667</ele><time>2026-04-25T10:25:09.673Z</time></trkpt><trkpt lat="41.9388185" lon="13.427037"><ele>663.3333333333334</ele><time>2026-04-25T10:25:10.673Z</time></trkpt><trkpt lat="41.9390163" lon="13.4269615"><ele>660.0</ele><time>2026-04-25T10:25:11.673Z</time></trkpt><trkpt lat="41.9392069" lon="13.4268587"><ele>664.6666666666666</ele><time>2026-04-25T10:25:12.673Z</time></trkpt><trkpt lat="41.9393998" lon="13.4267461"><ele>669.3333333333333</ele><time>2026-04-25T10:25:13.673Z</time></trkpt><trkpt lat="41.9395945" lon="13.4266371"><ele>674.0</ele><time>2026-04-25T10:25:14.673Z</time></trkpt><trkpt lat="41.939776" lon="13.4265059"><ele>674.0</ele><time>2026-04-25T10:25:15.673Z</time></trkpt><trkpt lat="41.9399522" lon="13.426366"><ele>674.0</ele><time>2026-04-25T10:25:16.673Z</time></trkpt><trkpt lat="41.9401215" lon="13.4262207"><ele>674.0</ele><time>2026-04-25T10:25:17.673Z</time></trkpt><trkpt lat="41.9402837" lon="13.4260556"><ele>675.6666666666666</ele><time>2026-04-25T10:25:18.673Z</time></trkpt><trkpt lat="41.9404446" lon="13.4258825"><ele>677.3333333333334</ele><time>2026-04-25T10:25:19.673Z</time></trkpt><trkpt lat="41.9406016" lon="13.4256987"><ele>679.0</ele><time>2026-04-25T10:25:20.673Z</time></trkpt><trkpt lat="41.9407564" lon="13.4255011"><ele>682.3333333333334</ele><time>2026-04-25T10:25:21.673Z</time></trkpt><trkpt lat="41.940908" lon="13.425292"><ele>685.6666666666666</ele><time>2026-04-25T10:25:22.673Z</time></trkpt><trkpt lat="41.9410538" lon="13.4250782"><ele>689.0</ele><time>2026-04-25T10:25:23.673Z</time></trkpt><trkpt lat="41.9440974" lon="13.4216768"><ele>692.0</ele><time>2026-04-25T10:25:41.673Z</time></trkpt><trkpt lat="41.9443005" lon="13.4215846"><ele>695.0</ele><time>2026-04-25T10:25:42.673Z</time></trkpt><trkpt lat="41.9444738" lon="13.4213891"><ele>698.0</ele><time>2026-04-25T10:25:43.673Z</time></trkpt><trkpt lat="41.9446515" lon="13.4212"><ele>698.0</ele><time>2026-04-25T10:25:44.673Z</time></trkpt><trkpt lat="41.9448235" lon="13.4210003"><ele>698.0</ele><time>2026-04-25T10:25:45.673Z</time></trkpt><trkpt lat="41.9449913" lon="13.4208197"><ele>698.0</ele><time>2026-04-25T10:25:46.674Z</time></trkpt><trkpt lat="41.945165" lon="13.4206429"><ele>703.0</ele><time>2026-04-25T10:25:47.673Z</time></trkpt><trkpt lat="41.945339" lon="13.4204681"><ele>708.0</ele><time>2026-04-25T10:25:48.673Z</time></trkpt><trkpt lat="41.9495601" lon="13.4161606"><ele>713.0</ele><time>2026-04-25T10:26:13.673Z</time></trkpt><trkpt lat="41.9497324" lon="13.4159811"><ele>718.0</ele><time>2026-04-25T10:26:14.674Z</time></trkpt><trkpt lat="41.9498741" lon="13.4157923"><ele>723.0</ele><time>2026-04-25T10:26:15.673Z</time></trkpt><trkpt lat="41.9500427" lon="13.4156319"><ele>724.0</ele><time>2026-04-25T10:26:16.673Z</time></trkpt><trkpt lat="41.9502237" lon="13.4154535"><ele>725.0</ele><time>2026-04-25T10:26:17.673Z</time></trkpt><trkpt lat="41.9504008" lon="13.4152855"><ele>726.0</ele><time>2026-04-25T10:26:18.673Z</time></trkpt><trkpt lat="41.9505786" lon="13.4150997"><ele>726.0</ele><time>2026-04-25T10:26:19.673Z</time></trkpt><trkpt lat="41.9507552" lon="13.4149038"><ele>726.0</ele><time>2026-04-25T10:26:20.673Z</time></trkpt><trkpt lat="41.9509286" lon="13.414711"><ele>727.3333333333334</ele><time>2026-04-25T10:26:21.673Z</time></trkpt><trkpt lat="41.9511081" lon="13.4145354"><ele>728.6666666666667</ele><time>2026-04-25T10:26:22.674Z</time></trkpt><trkpt lat="41.9512811" lon="13.4143475"><ele>730.0</ele><time>2026-04-25T10:26:23.673Z</time></trkpt><trkpt lat="41.9514601" lon="13.4141671"><ele>730.0</ele><time>2026-04-25T10:26:24.673Z</time></trkpt><trkpt lat="41.9516343" lon="13.4139903"><ele>730.0</ele><time>2026-04-25T10:26:25.673Z</time></trkpt><trkpt lat="41.9518046" lon="13.4138018"><ele>730.0</ele><time>2026-04-25T10:26:26.673Z</time></trkpt><trkpt lat="41.9519662" lon="13.4136046"><ele>730.0</ele><time>2026-04-25T10:26:27.673Z</time></trkpt><trkpt lat="41.9521282" lon="13.4134042"><ele>730.0</ele><time>2026-04-25T10:26:28.673Z</time></trkpt><trkpt lat="41.9522845" lon="13.4132063"><ele>730.0</ele><time>2026-04-25T10:26:29.673Z</time></trkpt><trkpt lat="41.9524411" lon="13.4129982"><ele>733.3333333333334</ele><time>2026-04-25T10:26:30.673Z</time></trkpt><trkpt lat="41.9525877" lon="13.4127767"><ele>736.6666666666666</ele><time>2026-04-25T10:26:31.673Z</time></trkpt><trkpt lat="41.95274" lon="13.4125578"><ele>740.0</ele><time>2026-04-25T10:26:32.673Z</time></trkpt><trkpt lat="41.9528935" lon="13.4123411"><ele>735.6666666666666</ele><time>2026-04-25T10:26:33.673Z</time></trkpt><trkpt lat="41.9530401" lon="13.4121215"><ele>731.3333333333334</ele><time>2026-04-25T10:26:34.673Z</time></trkpt><trkpt lat="41.9531888" lon="13.4118947"><ele>727.0</ele><time>2026-04-25T10:26:35.673Z</time></trkpt><trkpt lat="41.9533363" lon="13.4116777"><ele>727.3333333333334</ele><time>2026-04-25T10:26:36.673Z</time></trkpt><trkpt lat="41.9534951" lon="13.4114588"><ele>727.6666666666666</ele><time>2026-04-25T10:26:37.673Z</time></trkpt><trkpt lat="41.9536515" lon="13.411255"><ele>728.0</ele><time>2026-04-25T10:26:38.673Z</time></trkpt><trkpt lat="41.9538129" lon="13.4110599"><ele>728.0</ele><time>2026-04-25T10:26:39.673Z</time></trkpt><trkpt lat="41.9539871" lon="13.4108783"><ele>728.0</ele><time>2026-04-25T10:26:40.673Z</time></trkpt><trkpt lat="41.9541678" lon="13.410709"><ele>728.0</ele><time>2026-04-25T10:26:41.673Z</time></trkpt><trkpt lat="41.9543537" lon="13.4105472"><ele>732.0</ele><time>2026-04-25T10:26:42.673Z</time></trkpt><trkpt lat="41.9545442" lon="13.4103978"><ele>736.0</ele><time>2026-04-25T10:26:43.673Z</time></trkpt><trkpt lat="41.954728" lon="13.4102573"><ele>740.0</ele><time>2026-04-25T10:26:44.674Z</time></trkpt><trkpt lat="41.9549219" lon="13.4101298"><ele>738.6666666666666</ele><time>2026-04-25T10:26:45.673Z</time></trkpt><trkpt lat="41.9551163" lon="13.4099991"><ele>737.3333333333334</ele><time>2026-04-25T10:26:46.673Z</time></trkpt><trkpt lat="41.9553136" lon="13.4098815"><ele>736.0</ele><time>2026-04-25T10:26:47.674Z</time></trkpt><trkpt lat="41.9691108" lon="13.402113"><ele>736.0</ele><time>2026-04-25T10:28:07.673Z</time></trkpt><trkpt lat="41.9692793" lon="13.402147"><ele>736.0</ele><time>2026-04-25T10:28:08.673Z</time></trkpt><trkpt lat="41.9693874" lon="13.40208"><ele>736.0</ele><time>2026-04-25T10:28:09.674Z</time></trkpt><trkpt lat="41.9695354" lon="13.4020558"><ele>736.0</ele><time>2026-04-25T10:28:10.673Z</time></trkpt><trkpt lat="41.9696713" lon="13.4020286"><ele>736.0</ele><time>2026-04-25T10:28:11.673Z</time></trkpt><trkpt lat="41.9698169" lon="13.4020222"><ele>736.0</ele><time>2026-04-25T10:28:12.673Z</time></trkpt><trkpt lat="41.9699708" lon="13.4020096"><ele>736.0</ele><time>2026-04-25T10:28:13.673Z</time></trkpt><trkpt lat="41.9701308" lon="13.4020013"><ele>734.0</ele><time>2026-04-25T10:28:14.674Z</time></trkpt><trkpt lat="41.9703004" lon="13.402008"><ele>732.0</ele><time>2026-04-25T10:28:15.673Z</time></trkpt><trkpt lat="41.970479" lon="13.4020185"><ele>730.0</ele><time>2026-04-25T10:28:16.673Z</time></trkpt><trkpt lat="41.9706654" lon="13.402043"><ele>730.0</ele><time>2026-04-25T10:28:17.673Z</time></trkpt><trkpt lat="41.9708504" lon="13.4020703"><ele>730.0</ele><time>2026-04-25T10:28:18.673Z</time></trkpt><trkpt lat="41.9710334" lon="13.4021126"><ele>730.0</ele><time>2026-04-25T10:28:19.673Z</time></trkpt><trkpt lat="41.9712176" lon="13.4021684"><ele>730.3333333333334</ele><time>2026-04-25T10:28:20.673Z</time></trkpt><trkpt lat="41.9713993" lon="13.4022258"><ele>730.6666666666666</ele><time>2026-04-25T10:28:21.674Z</time></trkpt><trkpt lat="41.9715807" lon="13.4022959"><ele>731.0</ele><time>2026-04-25T10:28:22.674Z</time></trkpt><trkpt lat="41.971763" lon="13.4023817"><ele>731.0</ele><time>2026-04-25T10:28:23.673Z</time></trkpt><trkpt lat="41.9719446" lon="13.4024642"><ele>731.0</ele><time>2026-04-25T10:28:24.673Z</time></trkpt><trkpt lat="41.9721151" lon="13.4025439"><ele>731.0</ele><time>2026-04-25T10:28:25.673Z</time></trkpt><trkpt lat="41.9722604" lon="13.4026148"><ele>731.0</ele><time>2026-04-25T10:28:26.673Z</time></trkpt><trkpt lat="41.9723876" lon="13.4026901"><ele>731.0</ele><time>2026-04-25T10:28:27.673Z</time></trkpt><trkpt lat="41.9724954" lon="13.4027757"><ele>731.0</ele><time>2026-04-25T10:28:28.673Z</time></trkpt><trkpt lat="41.9725792" lon="13.402887"><ele>731.0</ele><time>2026-04-25T10:28:29.673Z</time></trkpt><trkpt lat="41.9726413" lon="13.4030193"><ele>730.25</ele><time>2026-04-25T10:28:30.673Z</time></trkpt><trkpt lat="41.972669" lon="13.4031777"><ele>729.5</ele><time>2026-04-25T10:28:31.674Z</time></trkpt><trkpt lat="41.9726667" lon="13.40334"><ele>728.75</ele><time>2026-04-25T10:28:32.673Z</time></trkpt><trkpt lat="41.9726404" lon="13.403486"><ele>728.0</ele><time>2026-04-25T10:28:33.673Z</time></trkpt><trkpt lat="41.9725706" lon="13.4036123"><ele>728.5</ele><time>2026-04-25T10:28:34.673Z</time></trkpt><trkpt lat="41.9724757" lon="13.4037152"><ele>729.0</ele><time>2026-04-25T10:28:35.673Z</time></trkpt><trkpt lat="41.9723565" lon="13.4037937"><ele>729.5</ele><time>2026-04-25T10:28:36.673Z</time></trkpt><trkpt lat="41.9722355" lon="13.4038222"><ele>730.0</ele><time>2026-04-25T10:28:37.673Z</time></trkpt><trkpt lat="41.9721076" lon="13.4038102"><ele>730.0</ele><time>2026-04-25T10:28:38.673Z</time></trkpt><trkpt lat="41.9719808" lon="13.4037334"><ele>730.0</ele><time>2026-04-25T10:28:39.674Z</time></trkpt><trkpt lat="41.9718699" lon="13.4036316"><ele>730.0</ele><time>2026-04-25T10:28:40.673Z</time></trkpt><trkpt lat="41.971775" lon="13.4034915"><ele>730.0</ele><time>2026-04-25T10:28:41.673Z</time></trkpt><trkpt lat="41.971682" lon="13.4033218"><ele>730.3333333333334</ele><time>2026-04-25T10:28:42.673Z</time></trkpt><trkpt lat="41.9716054" lon="13.4031424"><ele>730.6666666666666</ele><time>2026-04-25T10:28:43.673Z</time></trkpt><trkpt lat="41.9715236" lon="13.4029652"><ele>731.0</ele><time>2026-04-25T10:28:44.673Z</time></trkpt><trkpt lat="41.9714447" lon="13.4027698"><ele>731.0</ele><time>2026-04-25T10:28:45.673Z</time></trkpt><trkpt lat="41.9713736" lon="13.4025712"><ele>731.0</ele><time>2026-04-25T10:28:46.673Z</time></trkpt><trkpt lat="41.9713059" lon="13.4023595"><ele>731.0</ele><time>2026-04-25T10:28:47.673Z</time></trkpt><trkpt lat="41.9712547" lon="13.4021351"><ele>730.6666666666666</ele><time>2026-04-25T10:28:48.673Z</time></trkpt><trkpt lat="41.9712071" lon="13.4019115"><ele>730.3333333333334</ele><time>2026-04-25T10:28:49.673Z</time></trkpt><trkpt lat="41.9711678" lon="13.4017067"><ele>730.0</ele><time>2026-04-25T10:28:50.673Z</time></trkpt><trkpt lat="41.9711495" lon="13.4015117"><ele>729.25</ele><time>2026-04-25T10:28:51.673Z</time></trkpt><trkpt lat="41.971143" lon="13.4013177"><ele>728.5</ele><time>2026-04-25T10:28:52.674Z</time></trkpt><trkpt lat="41.9711406" lon="13.4011352"><ele>727.75</ele><time>2026-04-25T10:28:53.673Z</time></trkpt><trkpt lat="41.9711472" lon="13.4009637"><ele>727.0</ele><time>2026-04-25T10:28:54.673Z</time></trkpt><trkpt lat="41.9711513" lon="13.4008114"><ele>727.0</ele><time>2026-04-25T10:28:55.673Z</time></trkpt><trkpt lat="41.9711585" lon="13.4006608"><ele>727.0</ele><time>2026-04-25T10:28:56.673Z</time></trkpt><trkpt lat="41.9711642" lon="13.4005078"><ele>727.0</ele><time>2026-04-25T10:28:57.673Z</time></trkpt><trkpt lat="41.9711672" lon="13.4003546"><ele>727.0</ele><time>2026-04-25T10:28:58.673Z</time></trkpt><trkpt lat="41.9711702" lon="13.4002115"><ele>727.0</ele><time>2026-04-25T10:28:59.673Z</time></trkpt><trkpt lat="41.9711766" lon="13.4000595"><ele>726.75</ele><time>2026-04-25T10:29:00.674Z</time></trkpt><trkpt lat="41.9711799" lon="13.3999111"><ele>726.5</ele><time>2026-04-25T10:29:01.673Z</time></trkpt><trkpt lat="41.9711868" lon="13.3997588"><ele>726.25</ele><time>2026-04-25T10:29:02.673Z</time></trkpt><trkpt lat="41.9711939" lon="13.3996017"><ele>726.0</ele><time>2026-04-25T10:29:03.673Z</time></trkpt><trkpt lat="41.9712018" lon="13.3994431"><ele>726.0</ele><time>2026-04-25T10:29:04.673Z</time></trkpt><trkpt lat="41.9712104" lon="13.399291"><ele>726.0</ele><time>2026-04-25T10:29:05.673Z</time></trkpt><trkpt lat="41.9712173" lon="13.3991479"><ele>726.0</ele><time>2026-04-25T10:29:06.673Z</time></trkpt><trkpt lat="41.971221" lon="13.3990103"><ele>726.0</ele><time>2026-04-25T10:29:07.673Z</time></trkpt><trkpt lat="41.9712261" lon="13.3988797"><ele>726.0</ele><time>2026-04-25T10:29:08.673Z</time></trkpt><trkpt lat="41.9712327" lon="13.3987522"><ele>726.1666666666666</ele><time>2026-04-25T10:29:09.673Z</time></trkpt><trkpt lat="41.9712416" lon="13.3986289"><ele>726.3333333333334</ele><time>2026-04-25T10:29:10.673Z</time></trkpt><trkpt lat="41.9712476" lon="13.3985156"><ele>726.5</ele><time>2026-04-25T10:29:11.673Z</time></trkpt><trkpt lat="41.971258" lon="13.3984125"><ele>726.6666666666667</ele><time>2026-04-25T10:29:12.673Z</time></trkpt><trkpt lat="41.9712769" lon="13.398318"><ele>726.8333333333334</ele><time>2026-04-25T10:29:13.673Z</time></trkpt><trkpt lat="41.971336" lon="13.3981991"><ele>727.0</ele><time>2026-04-25T10:29:15.673Z</time></trkpt><trkpt lat="41.9713897" lon="13.3981489"><ele>727.0</ele><time>2026-04-25T10:29:17.673Z</time></trkpt><trkpt lat="41.971465" lon="13.3980969"><ele>727.0</ele><time>2026-04-25T10:29:20.673Z</time></trkpt><trkpt lat="41.9715163" lon="13.3980268"><ele>727.0</ele><time>2026-04-25T10:29:24.673Z</time></trkpt><trkpt lat="41.9715326" lon="13.3979021"><ele>727.0</ele><time>2026-04-25T10:29:29.673Z</time></trkpt><trkpt lat="41.9714954" lon="13.3977595"><ele>727.0</ele><time>2026-04-25T10:29:31.674Z</time></trkpt><trkpt lat="41.9714002" lon="13.397635"><ele>727.3333333333334</ele><time>2026-04-25T10:29:33.673Z</time></trkpt><trkpt lat="41.9713446" lon="13.3975578"><ele>727.6666666666667</ele><time>2026-04-25T10:29:34.673Z</time></trkpt><trkpt lat="41.9712864" lon="13.3974811"><ele>728.0</ele><time>2026-04-25T10:29:35.673Z</time></trkpt><trkpt lat="41.9712302" lon="13.3973887"><ele>728.3333333333334</ele><time>2026-04-25T10:29:36.673Z</time></trkpt><trkpt lat="41.9711743" lon="13.3972989"><ele>728.6666666666666</ele><time>2026-04-25T10:29:37.673Z</time></trkpt><trkpt lat="41.9711119" lon="13.3972037"><ele>729.0</ele><time>2026-04-25T10:29:38.673Z</time></trkpt><trkpt lat="41.9710456" lon="13.3971144"><ele>729.0</ele><time>2026-04-25T10:29:39.673Z</time></trkpt><trkpt lat="41.9709821" lon="13.3970164"><ele>729.0</ele><time>2026-04-25T10:29:40.673Z</time></trkpt><trkpt lat="41.9709208" lon="13.3969149"><ele>729.0</ele><time>2026-04-25T10:29:41.673Z</time></trkpt><trkpt lat="41.9708567" lon="13.3968155"><ele>729.0</ele><time>2026-04-25T10:29:42.673Z</time></trkpt><trkpt lat="41.9707934" lon="13.3967107"><ele>729.0</ele><time>2026-04-25T10:29:43.673Z</time></trkpt><trkpt lat="41.9707288" lon="13.396611"><ele>729.0</ele><time>2026-04-25T10:29:44.673Z</time></trkpt><trkpt lat="41.9706628" lon="13.3965173"><ele>729.0</ele><time>2026-04-25T10:29:45.673Z</time></trkpt><trkpt lat="41.9705993" lon="13.3964254"><ele>729.0</ele><time>2026-04-25T10:29:46.673Z</time></trkpt><trkpt lat="41.9705334" lon="13.3963379"><ele>729.0</ele><time>2026-04-25T10:29:47.673Z</time></trkpt><trkpt lat="41.9704704" lon="13.396246"><ele>729.0</ele><time>2026-04-25T10:29:48.673Z</time></trkpt><trkpt lat="41.9704099" lon="13.3961574"><ele>729.4000000000001</ele><time>2026-04-25T10:29:49.673Z</time></trkpt><trkpt lat="41.9703448" lon="13.3960682"><ele>729.8</ele><time>2026-04-25T10:29:50.673Z</time></trkpt><trkpt lat="41.9702795" lon="13.3959794"><ele>730.2</ele><time>2026-04-25T10:29:51.673Z</time></trkpt><trkpt lat="41.9702114" lon="13.3958841"><ele>730.5999999999999</ele><time>2026-04-25T10:29:52.673Z</time></trkpt><trkpt lat="41.9701435" lon="13.3957816"><ele>731.0</ele><time>2026-04-25T10:29:53.673Z</time></trkpt><trkpt lat="41.9700752" lon="13.3956794"><ele>731.0</ele><time>2026-04-25T10:29:54.673Z</time></trkpt><trkpt lat="41.9700092" lon="13.3955745"><ele>731.0</ele><time>2026-04-25T10:29:55.673Z</time></trkpt><trkpt lat="41.9699415" lon="13.3954686"><ele>731.0</ele><time>2026-04-25T10:29:56.673Z</time></trkpt><trkpt lat="41.9698711" lon="13.3953624"><ele>731.0</ele><time>2026-04-25T10:29:57.674Z</time></trkpt><trkpt lat="41.9698003" lon="13.3952599"><ele>731.0</ele><time>2026-04-25T10:29:58.673Z</time></trkpt><trkpt lat="41.969731" lon="13.395154"><ele>731.4</ele><time>2026-04-25T10:29:59.673Z</time></trkpt><trkpt lat="41.969663" lon="13.3950533"><ele>731.8</ele><time>2026-04-25T10:30:00.674Z</time></trkpt><trkpt lat="41.9695978" lon="13.3949577"><ele>732.1999999999999</ele><time>2026-04-25T10:30:01.673Z</time></trkpt><trkpt lat="41.9695338" lon="13.3948672"><ele>732.5999999999999</ele><time>2026-04-25T10:30:02.673Z</time></trkpt><trkpt lat="41.969474" lon="13.3947779"><ele>733.0</ele><time>2026-04-25T10:30:03.673Z</time></trkpt><trkpt lat="41.9694139" lon="13.3946862"><ele>733.0</ele><time>2026-04-25T10:30:04.673Z</time></trkpt><trkpt lat="41.9693531" lon="13.3945941"><ele>733.0</ele><time>2026-04-25T10:30:05.673Z</time></trkpt><trkpt lat="41.9692877" lon="13.3945012"><ele>733.0</ele><time>2026-04-25T10:30:06.673Z</time></trkpt><trkpt lat="41.9692215" lon="13.394406"><ele>733.0</ele><time>2026-04-25T10:30:07.673Z</time></trkpt><trkpt lat="41.9691567" lon="13.394307"><ele>733.0</ele><time>2026-04-25T10:30:08.673Z</time></trkpt><trkpt lat="41.9690955" lon="13.3942093"><ele>733.0</ele><time>2026-04-25T10:30:09.673Z</time></trkpt><trkpt lat="41.9690383" lon="13.3941192"><ele>733.0</ele><time>2026-04-25T10:30:10.673Z</time></trkpt><trkpt lat="41.9689847" lon="13.3940351"><ele>733.0</ele><time>2026-04-25T10:30:11.673Z</time></trkpt><trkpt lat="41.9689314" lon="13.3939501"><ele>733.0</ele><time>2026-04-25T10:30:12.673Z</time></trkpt><trkpt lat="41.9688745" lon="13.393868"><ele>733.0</ele><time>2026-04-25T10:30:13.673Z</time></trkpt><trkpt lat="41.9688207" lon="13.3937894"><ele>733.0</ele><time>2026-04-25T10:30:14.673Z</time></trkpt><trkpt lat="41.9687701" lon="13.3937126"><ele>734.0</ele><time>2026-04-25T10:30:15.673Z</time></trkpt><trkpt lat="41.9687222" lon="13.3936408"><ele>735.0</ele><time>2026-04-25T10:30:16.673Z</time></trkpt><trkpt lat="41.9686764" lon="13.393573"><ele>736.0</ele><time>2026-04-25T10:30:17.673Z</time></trkpt><trkpt lat="41.9686056" lon="13.393459"><ele>737.0</ele><time>2026-04-25T10:30:19.673Z</time></trkpt><trkpt lat="41.9685681" lon="13.3933639"><ele>738.0</ele><time>2026-04-25T10:30:21.673Z</time></trkpt><trkpt lat="41.9685311" lon="13.393249"><ele>739.0</ele><time>2026-04-25T10:30:23.673Z</time></trkpt><trkpt lat="41.9684673" lon="13.3931189"><ele>739.0</ele><time>2026-04-25T10:30:25.673Z</time></trkpt><trkpt lat="41.9684249" lon="13.3930387"><ele>739.0</ele><time>2026-04-25T10:30:26.673Z</time></trkpt><trkpt lat="41.9683725" lon="13.3929538"><ele>739.0</ele><time>2026-04-25T10:30:27.673Z</time></trkpt><trkpt lat="41.9683129" lon="13.3928656"><ele>739.0</ele><time>2026-04-25T10:30:28.673Z</time></trkpt><trkpt lat="41.9682442" lon="13.3927702"><ele>739.0</ele><time>2026-04-25T10:30:29.673Z</time></trkpt><trkpt lat="41.9681752" lon="13.3926621"><ele>739.0</ele><time>2026-04-25T10:30:30.673Z</time></trkpt><trkpt lat="41.9681041" lon="13.3925605"><ele>738.8000000000001</ele><time>2026-04-25T10:30:31.673Z</time></trkpt><trkpt lat="41.9680358" lon="13.3924597"><ele>738.6</ele><time>2026-04-25T10:30:32.673Z</time></trkpt><trkpt lat="41.9679647" lon="13.3923544"><ele>738.4</ele><time>2026-04-25T10:30:33.673Z</time></trkpt><trkpt lat="41.9678992" lon="13.3922509"><ele>738.2</ele><time>2026-04-25T10:30:34.673Z</time></trkpt><trkpt lat="41.9678351" lon="13.392152"><ele>738.0</ele><time>2026-04-25T10:30:35.673Z</time></trkpt><trkpt lat="41.9677703" lon="13.3920587"><ele>738.2</ele><time>2026-04-25T10:30:36.673Z</time></trkpt><trkpt lat="41.9677059" lon="13.3919571"><ele>738.4</ele><time>2026-04-25T10:30:37.673Z</time></trkpt><trkpt lat="41.9676436" lon="13.3918616"><ele>738.6</ele><time>2026-04-25T10:30:38.673Z</time></trkpt><trkpt lat="41.9675799" lon="13.3917719"><ele>738.8000000000001</ele><time>2026-04-25T10:30:39.673Z</time></trkpt><trkpt lat="41.9675185" lon="13.3916803"><ele>739.0</ele><time>2026-04-25T10:30:40.673Z</time></trkpt><trkpt lat="41.9674557" lon="13.3915897"><ele>739.0</ele><time>2026-04-25T10:30:41.673Z</time></trkpt><trkpt lat="41.967388" lon="13.3914955"><ele>739.0</ele><time>2026-04-25T10:30:42.673Z</time></trkpt><trkpt lat="41.9673231" lon="13.3913957"><ele>739.0</ele><time>2026-04-25T10:30:43.673Z</time></trkpt><trkpt lat="41.9672581" lon="13.3912974"><ele>739.0</ele><time>2026-04-25T10:30:44.673Z</time></trkpt><trkpt lat="41.9671992" lon="13.3912003"><ele>739.0</ele><time>2026-04-25T10:30:45.673Z</time></trkpt><trkpt lat="41.9671417" lon="13.3911101"><ele>739.1666666666667</ele><time>2026-04-25T10:30:46.673Z</time></trkpt><trkpt lat="41.9670855" lon="13.391026"><ele>739.3333333333334</ele><time>2026-04-25T10:30:47.673Z</time></trkpt><trkpt lat="41.9670287" lon="13.3909371"><ele>739.5</ele><time>2026-04-25T10:30:48.673Z</time></trkpt><trkpt lat="41.9669716" lon="13.3908432"><ele>739.6666666666666</ele><time>2026-04-25T10:30:49.673Z</time></trkpt><trkpt lat="41.9669117" lon="13.3907543"><ele>739.8333333333333</ele><time>2026-04-25T10:30:50.673Z</time></trkpt><trkpt lat="41.9668556" lon="13.3906669"><ele>740.0</ele><time>2026-04-25T10:30:51.673Z</time></trkpt><trkpt lat="41.9668055" lon="13.3905817"><ele>740.0</ele><time>2026-04-25T10:30:52.673Z</time></trkpt><trkpt lat="41.9667635" lon="13.3905101"><ele>740.0</ele><time>2026-04-25T10:30:53.673Z</time></trkpt><trkpt lat="41.966704" lon="13.3903931"><ele>740.0</ele><time>2026-04-25T10:30:55.673Z</time></trkpt><trkpt lat="41.9666549" lon="13.3903028"><ele>740.0</ele><time>2026-04-25T10:30:57.673Z</time></trkpt><trkpt lat="41.9665922" lon="13.3902297"><ele>740.0</ele><time>2026-04-25T10:30:59.673Z</time></trkpt><trkpt lat="41.9665071" lon="13.3901673"><ele>740.0</ele><time>2026-04-25T10:31:01.673Z</time></trkpt><trkpt lat="41.9664557" lon="13.3901127"><ele>740.0</ele><time>2026-04-25T10:31:02.673Z</time></trkpt><trkpt lat="41.9664028" lon="13.3900471"><ele>740.0</ele><time>2026-04-25T10:31:03.673Z</time></trkpt><trkpt lat="41.9663511" lon="13.3899648"><ele>740.0</ele><time>2026-04-25T10:31:04.673Z</time></trkpt><trkpt lat="41.966295" lon="13.3898739"><ele>740.0</ele><time>2026-04-25T10:31:05.673Z</time></trkpt><trkpt lat="41.9662297" lon="13.3897778"><ele>740.0</ele><time>2026-04-25T10:31:06.673Z</time></trkpt><trkpt lat="41.9661599" lon="13.389673"><ele>740.0</ele><time>2026-04-25T10:31:07.673Z</time></trkpt><trkpt lat="41.9660935" lon="13.389566"><ele>741.0</ele><time>2026-04-25T10:31:08.673Z</time></trkpt><trkpt lat="41.9660301" lon="13.3894619"><ele>742.0</ele><time>2026-04-25T10:31:09.673Z</time></trkpt><trkpt lat="41.9659696" lon="13.3893664"><ele>743.0</ele><time>2026-04-25T10:31:10.673Z</time></trkpt><trkpt lat="41.965916" lon="13.3892758"><ele>744.0</ele><time>2026-04-25T10:31:11.673Z</time></trkpt><trkpt lat="41.9658726" lon="13.3891971"><ele>745.0</ele><time>2026-04-25T10:31:12.674Z</time></trkpt><trkpt lat="41.9658176" lon="13.3890843"><ele>743.2</ele><time>2026-04-25T10:31:14.673Z</time></trkpt><trkpt lat="41.9657869" lon="13.3889847"><ele>741.4</ele><time>2026-04-25T10:31:18.673Z</time></trkpt><trkpt lat="41.965721" lon="13.3888819"><ele>739.5999999999999</ele><time>2026-04-25T10:31:21.673Z</time></trkpt><trkpt lat="41.9656435" lon="13.3887664"><ele>737.8</ele><time>2026-04-25T10:31:23.673Z</time></trkpt><trkpt lat="41.9655965" lon="13.3886803"><ele>736.0</ele><time>2026-04-25T10:31:24.673Z</time></trkpt><trkpt lat="41.9655424" lon="13.3885928"><ele>736.0</ele><time>2026-04-25T10:31:25.673Z</time></trkpt><trkpt lat="41.9654798" lon="13.3884842"><ele>736.0</ele><time>2026-04-25T10:31:26.673Z</time></trkpt><trkpt lat="41.9654134" lon="13.3883646"><ele>736.0</ele><time>2026-04-25T10:31:27.673Z</time></trkpt><trkpt lat="41.9653374" lon="13.3882341"><ele>736.0</ele><time>2026-04-25T10:31:28.673Z</time></trkpt><trkpt lat="41.9652501" lon="13.3880989"><ele>738.5</ele><time>2026-04-25T10:31:29.673Z</time></trkpt><trkpt lat="41.9651577" lon="13.3879569"><ele>741.0</ele><time>2026-04-25T10:31:30.673Z</time></trkpt><trkpt lat="41.9650699" lon="13.387808"><ele>743.5</ele><time>2026-04-25T10:31:31.673Z</time></trkpt><trkpt lat="41.9649909" lon="13.3876487"><ele>746.0</ele><time>2026-04-25T10:31:32.673Z</time></trkpt><trkpt lat="41.9649159" lon="13.3874927"><ele>743.5999999999999</ele><time>2026-04-25T10:31:33.673Z</time></trkpt><trkpt lat="41.9648519" lon="13.3873446"><ele>741.2</ele><time>2026-04-25T10:31:34.673Z</time></trkpt><trkpt lat="41.9647893" lon="13.3872093"><ele>738.8</ele><time>2026-04-25T10:31:35.673Z</time></trkpt><trkpt lat="41.9647266" lon="13.3871002"><ele>736.4000000000001</ele><time>2026-04-25T10:31:36.673Z</time></trkpt><trkpt lat="41.9646695" lon="13.3869953"><ele>734.0</ele><time>2026-04-25T10:31:37.673Z</time></trkpt><trkpt lat="41.964619" lon="13.3869202"><ele>734.0</ele><time>2026-04-25T10:31:38.673Z</time></trkpt><trkpt lat="41.9645806" lon="13.3868314"><ele>734.0</ele><time>2026-04-25T10:31:39.673Z</time></trkpt><trkpt lat="41.964555" lon="13.3867257"><ele>734.0</ele><time>2026-04-25T10:31:40.673Z</time></trkpt><trkpt lat="41.9645377" lon="13.3866043"><ele>734.0</ele><time>2026-04-25T10:31:41.673Z</time></trkpt><trkpt lat="41.9645335" lon="13.3864527"><ele>734.0</ele><time>2026-04-25T10:31:42.673Z</time></trkpt><trkpt lat="41.9645301" lon="13.3863059"><ele>735.0</ele><time>2026-04-25T10:31:43.674Z</time></trkpt><trkpt lat="41.964532" lon="13.3861454"><ele>736.0</ele><time>2026-04-25T10:31:44.673Z</time></trkpt><trkpt lat="41.9645231" lon="13.3859979"><ele>737.0</ele><time>2026-04-25T10:31:45.673Z</time></trkpt><trkpt lat="41.9645009" lon="13.385867"><ele>738.0</ele><time>2026-04-25T10:31:46.673Z</time></trkpt><trkpt lat="41.9644899" lon="13.3857196"><ele>739.0</ele><time>2026-04-25T10:31:47.673Z</time></trkpt><trkpt lat="41.9644605" lon="13.3855884"><ele>740.5</ele><time>2026-04-25T10:31:48.673Z</time></trkpt><trkpt lat="41.9644377" lon="13.3854393"><ele>742.0</ele><time>2026-04-25T10:31:49.673Z</time></trkpt><trkpt lat="41.9644252" lon="13.3852958"><ele>743.5</ele><time>2026-04-25T10:31:50.673Z</time></trkpt><trkpt lat="41.9644307" lon="13.385124"><ele>745.0</ele><time>2026-04-25T10:31:51.673Z</time></trkpt><trkpt lat="41.9644715" lon="13.3849806"><ele>745.0</ele><time>2026-04-25T10:31:52.673Z</time></trkpt><trkpt lat="41.9645175" lon="13.3848656"><ele>745.0</ele><time>2026-04-25T10:31:53.673Z</time></trkpt><trkpt lat="41.9645646" lon="13.3847333"><ele>745.0</ele><time>2026-04-25T10:31:54.673Z</time></trkpt><trkpt lat="41.9645943" lon="13.3846053"><ele>745.0</ele><time>2026-04-25T10:31:55.673Z</time></trkpt><trkpt lat="41.9645815" lon="13.3844651"><ele>745.0</ele><time>2026-04-25T10:31:56.673Z</time></trkpt><trkpt lat="41.9645697" lon="13.3843332"><ele>742.4</ele><time>2026-04-25T10:31:57.673Z</time></trkpt><trkpt lat="41.9645577" lon="13.3841969"><ele>739.8</ele><time>2026-04-25T10:31:58.673Z</time></trkpt><trkpt lat="41.9645533" lon="13.3840794"><ele>737.2</ele><time>2026-04-25T10:31:59.673Z</time></trkpt><trkpt lat="41.9645676" lon="13.3839688"><ele>734.6</ele><time>2026-04-25T10:32:00.673Z</time></trkpt><trkpt lat="41.9646032" lon="13.3838654"><ele>732.0</ele><time>2026-04-25T10:32:01.673Z</time></trkpt><trkpt lat="41.9646664" lon="13.3837607"><ele>727.0</ele><time>2026-04-25T10:32:02.673Z</time></trkpt><trkpt lat="41.9647502" lon="13.3836686"><ele>722.0</ele><time>2026-04-25T10:32:03.673Z</time></trkpt><trkpt lat="41.9648358" lon="13.3835759"><ele>717.0</ele><time>2026-04-25T10:32:04.673Z</time></trkpt><trkpt lat="41.9649077" lon="13.3834645"><ele>712.0</ele><time>2026-04-25T10:32:05.673Z</time></trkpt><trkpt lat="41.9649677" lon="13.383336"><ele>707.0</ele><time>2026-04-25T10:32:06.673Z</time></trkpt><trkpt lat="41.965008" lon="13.3832028"><ele>707.0</ele><time>2026-04-25T10:32:07.673Z</time></trkpt><trkpt lat="41.9650274" lon="13.3830571"><ele>707.0</ele><time>2026-04-25T10:32:08.673Z</time></trkpt><trkpt lat="41.9650429" lon="13.3829194"><ele>707.0</ele><time>2026-04-25T10:32:09.673Z</time></trkpt><trkpt lat="41.9650708" lon="13.3827878"><ele>707.0</ele><time>2026-04-25T10:32:10.673Z</time></trkpt><trkpt lat="41.9651136" lon="13.3826477"><ele>707.0</ele><time>2026-04-25T10:32:11.673Z</time></trkpt><trkpt lat="41.9651657" lon="13.3825128"><ele>705.75</ele><time>2026-04-25T10:32:12.673Z</time></trkpt><trkpt lat="41.9652084" lon="13.3823651"><ele>704.5</ele><time>2026-04-25T10:32:13.673Z</time></trkpt><trkpt lat="41.9652581" lon="13.3822081"><ele>703.25</ele><time>2026-04-25T10:32:14.673Z</time></trkpt><trkpt lat="41.9653032" lon="13.3820449"><ele>702.0</ele><time>2026-04-25T10:32:15.673Z</time></trkpt><trkpt lat="41.9653505" lon="13.3819043"><ele>702.0</ele><time>2026-04-25T10:32:16.673Z</time></trkpt><trkpt lat="41.9653921" lon="13.3817528"><ele>702.0</ele><time>2026-04-25T10:32:17.673Z</time></trkpt><trkpt lat="41.9654178" lon="13.3815966"><ele>702.0</ele><time>2026-04-25T10:32:18.673Z</time></trkpt><trkpt lat="41.9654317" lon="13.381439"><ele>702.0</ele><time>2026-04-25T10:32:19.673Z</time></trkpt><trkpt lat="41.9654298" lon="13.381291"><ele>701.2</ele><time>2026-04-25T10:32:20.673Z</time></trkpt><trkpt lat="41.9654212" lon="13.3811456"><ele>700.4000000000001</ele><time>2026-04-25T10:32:21.673Z</time></trkpt><trkpt lat="41.9654193" lon="13.3810017"><ele>699.5999999999999</ele><time>2026-04-25T10:32:22.673Z</time></trkpt><trkpt lat="41.9654006" lon="13.3808692"><ele>698.8</ele><time>2026-04-25T10:32:23.673Z</time></trkpt><trkpt lat="41.9653633" lon="13.380735"><ele>698.0</ele><time>2026-04-25T10:32:24.673Z</time></trkpt><trkpt lat="41.9653343" lon="13.3805914"><ele>698.25</ele><time>2026-04-25T10:32:25.673Z</time></trkpt><trkpt lat="41.9653035" lon="13.3804393"><ele>698.5</ele><time>2026-04-25T10:32:26.673Z</time></trkpt><trkpt lat="41.9652668" lon="13.380291"><ele>698.75</ele><time>2026-04-25T10:32:27.673Z</time></trkpt><trkpt lat="41.965236" lon="13.3801479"><ele>699.0</ele><time>2026-04-25T10:32:28.673Z</time></trkpt><trkpt lat="41.9652087" lon="13.3799983"><ele>699.0</ele><time>2026-04-25T10:32:29.673Z</time></trkpt><trkpt lat="41.9651903" lon="13.3798344"><ele>699.0</ele><time>2026-04-25T10:32:30.673Z</time></trkpt><trkpt lat="41.9651759" lon="13.3796899"><ele>699.0</ele><time>2026-04-25T10:32:31.673Z</time></trkpt><trkpt lat="41.9651785" lon="13.3795405"><ele>699.0</ele><time>2026-04-25T10:32:32.673Z</time></trkpt><trkpt lat="41.9652055" lon="13.3793984"><ele>698.0</ele><time>2026-04-25T10:32:33.673Z</time></trkpt><trkpt lat="41.9652519" lon="13.3792717"><ele>697.0</ele><time>2026-04-25T10:32:34.673Z</time></trkpt><trkpt lat="41.96532" lon="13.3791632"><ele>696.0</ele><time>2026-04-25T10:32:35.673Z</time></trkpt><trkpt lat="41.9653747" lon="13.3790519"><ele>695.0</ele><time>2026-04-25T10:32:36.673Z</time></trkpt><trkpt lat="41.9654058" lon="13.3789488"><ele>694.0</ele><time>2026-04-25T10:32:37.673Z</time></trkpt><trkpt lat="41.9653931" lon="13.3788451"><ele>694.0</ele><time>2026-04-25T10:32:38.673Z</time></trkpt><trkpt lat="41.965335" lon="13.3787456"><ele>694.0</ele><time>2026-04-25T10:32:39.673Z</time></trkpt><trkpt lat="41.9652652" lon="13.3787175"><ele>694.0</ele><time>2026-04-25T10:32:40.673Z</time></trkpt><trkpt lat="41.9651838" lon="13.378746"><ele>694.0</ele><time>2026-04-25T10:32:41.673Z</time></trkpt><trkpt lat="41.965112" lon="13.3788462"><ele>694.0</ele><time>2026-04-25T10:32:42.673Z</time></trkpt><trkpt lat="41.9650586" lon="13.3789579"><ele>688.25</ele><time>2026-04-25T10:32:43.673Z</time></trkpt><trkpt lat="41.965004" lon="13.3790863"><ele>682.5</ele><time>2026-04-25T10:32:44.673Z</time></trkpt><trkpt lat="41.9649456" lon="13.3792187"><ele>676.75</ele><time>2026-04-25T10:32:45.674Z</time></trkpt><trkpt lat="41.964875" lon="13.379354"><ele>671.0</ele><time>2026-04-25T10:32:46.673Z</time></trkpt><trkpt lat="41.9648191" lon="13.3795025"><ele>671.0</ele><time>2026-04-25T10:32:47.673Z</time></trkpt><trkpt lat="41.9647708" lon="13.3796554"><ele>671.0</ele><time>2026-04-25T10:32:48.673Z</time></trkpt><trkpt lat="41.9647519" lon="13.3798118"><ele>671.0</ele><time>2026-04-25T10:32:49.673Z</time></trkpt><trkpt lat="41.9647306" lon="13.3799911"><ele>671.0</ele><time>2026-04-25T10:32:50.673Z</time></trkpt><trkpt lat="41.9647039" lon="13.380175"><ele>672.25</ele><time>2026-04-25T10:32:51.673Z</time></trkpt><trkpt lat="41.9646743" lon="13.3803594"><ele>673.5</ele><time>2026-04-25T10:32:52.673Z</time></trkpt><trkpt lat="41.9646468" lon="13.3805322"><ele>674.75</ele><time>2026-04-25T10:32:53.673Z</time></trkpt><trkpt lat="41.9646223" lon="13.3806992"><ele>676.0</ele><time>2026-04-25T10:32:54.673Z</time></trkpt><trkpt lat="41.9645938" lon="13.3808597"><ele>676.25</ele><time>2026-04-25T10:32:55.673Z</time></trkpt><trkpt lat="41.9645602" lon="13.3810093"><ele>676.5</ele><time>2026-04-25T10:32:56.673Z</time></trkpt><trkpt lat="41.9645158" lon="13.3811618"><ele>676.75</ele><time>2026-04-25T10:32:57.674Z</time></trkpt><trkpt lat="41.9644591" lon="13.3813212"><ele>677.0</ele><time>2026-04-25T10:32:58.673Z</time></trkpt><trkpt lat="41.9643932" lon="13.3814647"><ele>677.25</ele><time>2026-04-25T10:32:59.673Z</time></trkpt><trkpt lat="41.964326" lon="13.381616"><ele>677.5</ele><time>2026-04-25T10:33:00.673Z</time></trkpt><trkpt lat="41.9642565" lon="13.3817723"><ele>677.75</ele><time>2026-04-25T10:33:01.673Z</time></trkpt><trkpt lat="41.9641888" lon="13.3819185"><ele>678.0</ele><time>2026-04-25T10:33:02.673Z</time></trkpt><trkpt lat="41.964134" lon="13.3820666"><ele>673.5</ele><time>2026-04-25T10:33:03.673Z</time></trkpt><trkpt lat="41.9640916" lon="13.3822325"><ele>669.0</ele><time>2026-04-25T10:33:04.673Z</time></trkpt><trkpt lat="41.9640641" lon="13.3824085"><ele>664.5</ele><time>2026-04-25T10:33:05.673Z</time></trkpt><trkpt lat="41.964051" lon="13.382578"><ele>660.0</ele><time>2026-04-25T10:33:06.673Z</time></trkpt><trkpt lat="41.9640392" lon="13.3827474"><ele>660.0</ele><time>2026-04-25T10:33:07.673Z</time></trkpt><trkpt lat="41.9640209" lon="13.3829178"><ele>660.0</ele><time>2026-04-25T10:33:08.673Z</time></trkpt><trkpt lat="41.9640086" lon="13.3830697"><ele>660.0</ele><time>2026-04-25T10:33:09.673Z</time></trkpt><trkpt lat="41.9640157" lon="13.3832189"><ele>660.0</ele><time>2026-04-25T10:33:10.673Z</time></trkpt><trkpt lat="41.9640399" lon="13.3833515"><ele>660.1666666666666</ele><time>2026-04-25T10:33:11.673Z</time></trkpt><trkpt lat="41.964066" lon="13.3834669"><ele>660.3333333333334</ele><time>2026-04-25T10:33:12.673Z</time></trkpt><trkpt lat="41.9640853" lon="13.3835653"><ele>660.5</ele><time>2026-04-25T10:33:13.674Z</time></trkpt><trkpt lat="41.964079" lon="13.3836505"><ele>660.6666666666667</ele><time>2026-04-25T10:33:14.673Z</time></trkpt><trkpt lat="41.9640174" lon="13.3837583"><ele>660.8333333333334</ele><time>2026-04-25T10:33:16.673Z</time></trkpt><trkpt lat="41.9639326" lon="13.3838093"><ele>661.0</ele><time>2026-04-25T10:33:18.673Z</time></trkpt><trkpt lat="41.9638406" lon="13.3838758"><ele>661.1666666666667</ele><time>2026-04-25T10:33:20.673Z</time></trkpt><trkpt lat="41.9637808" lon="13.3839298"><ele>661.3333333333334</ele><time>2026-04-25T10:33:21.673Z</time></trkpt><trkpt lat="41.963708" lon="13.3839783"><ele>661.5</ele><time>2026-04-25T10:33:22.673Z</time></trkpt><trkpt lat="41.9636327" lon="13.3840338"><ele>661.6666666666666</ele><time>2026-04-25T10:33:23.673Z</time></trkpt><trkpt lat="41.9635463" lon="13.3840802"><ele>661.8333333333333</ele><time>2026-04-25T10:33:24.673Z</time></trkpt><trkpt lat="41.9634471" lon="13.3841002"><ele>662.0</ele><time>2026-04-25T10:33:25.673Z</time></trkpt><trkpt lat="41.9633516" lon="13.3841023"><ele>662.0</ele><time>2026-04-25T10:33:26.673Z</time></trkpt><trkpt lat="41.9632494" lon="13.3840858"><ele>662.0</ele><time>2026-04-25T10:33:27.674Z</time></trkpt><trkpt lat="41.9631458" lon="13.3840372"><ele>662.0</ele><time>2026-04-25T10:33:28.673Z</time></trkpt><trkpt lat="41.963045" lon="13.3839525"><ele>662.0</ele><time>2026-04-25T10:33:29.673Z</time></trkpt><trkpt lat="41.9629546" lon="13.3838324"><ele>658.25</ele><time>2026-04-25T10:33:30.673Z</time></trkpt><trkpt lat="41.9628787" lon="13.3836813"><ele>654.5</ele><time>2026-04-25T10:33:31.673Z</time></trkpt><trkpt lat="41.9628127" lon="13.3835148"><ele>650.75</ele><time>2026-04-25T10:33:32.673Z</time></trkpt><trkpt lat="41.9627501" lon="13.3833336"><ele>647.0</ele><time>2026-04-25T10:33:33.673Z</time></trkpt><trkpt lat="41.9626751" lon="13.3831578"><ele>646.75</ele><time>2026-04-25T10:33:34.673Z</time></trkpt><trkpt lat="41.9626022" lon="13.3829867"><ele>646.5</ele><time>2026-04-25T10:33:35.673Z</time></trkpt><trkpt lat="41.962529" lon="13.3828131"><ele>646.25</ele><time>2026-04-25T10:33:36.673Z</time></trkpt><trkpt lat="41.9624724" lon="13.3826406"><ele>646.0</ele><time>2026-04-25T10:33:37.673Z</time></trkpt><trkpt lat="41.9624312" lon="13.3824634"><ele>650.75</ele><time>2026-04-25T10:33:38.673Z</time></trkpt><trkpt lat="41.9624126" lon="13.3822926"><ele>655.5</ele><time>2026-04-25T10:33:39.673Z</time></trkpt><trkpt lat="41.9624199" lon="13.3821206"><ele>660.25</ele><time>2026-04-25T10:33:40.673Z</time></trkpt><trkpt lat="41.9624464" lon="13.3819615"><ele>665.0</ele><time>2026-04-25T10:33:41.673Z</time></trkpt><trkpt lat="41.9624694" lon="13.3818087"><ele>665.0</ele><time>2026-04-25T10:33:42.673Z</time></trkpt><trkpt lat="41.9624763" lon="13.3816678"><ele>665.0</ele><time>2026-04-25T10:33:43.673Z</time></trkpt><trkpt lat="41.9624629" lon="13.3815331"><ele>665.0</ele><time>2026-04-25T10:33:44.673Z</time></trkpt><trkpt lat="41.962411" lon="13.3814055"><ele>665.0</ele><time>2026-04-25T10:33:45.673Z</time></trkpt><trkpt lat="41.9623425" lon="13.3812822"><ele>665.0</ele><time>2026-04-25T10:33:46.673Z</time></trkpt><trkpt lat="41.9622498" lon="13.3811674"><ele>663.0</ele><time>2026-04-25T10:33:47.673Z</time></trkpt><trkpt lat="41.9621537" lon="13.3810684"><ele>661.0</ele><time>2026-04-25T10:33:48.673Z</time></trkpt><trkpt lat="41.9620426" lon="13.3809611"><ele>659.0</ele><time>2026-04-25T10:33:49.673Z</time></trkpt><trkpt lat="41.9619245" lon="13.380887"><ele>657.0</ele><time>2026-04-25T10:33:50.673Z</time></trkpt><trkpt lat="41.9617809" lon="13.3808342"><ele>661.0</ele><time>2026-04-25T10:33:51.673Z</time></trkpt><trkpt lat="41.961621" lon="13.3808094"><ele>665.0</ele><time>2026-04-25T10:33:52.673Z</time></trkpt><trkpt lat="41.9614574" lon="13.3807865"><ele>669.0</ele><time>2026-04-25T10:33:53.673Z</time></trkpt><trkpt lat="41.9612941" lon="13.380758"><ele>669.0</ele><time>2026-04-25T10:33:54.673Z</time></trkpt><trkpt lat="41.9611319" lon="13.3807278"><ele>669.0</ele><time>2026-04-25T10:33:55.674Z</time></trkpt><trkpt lat="41.9609577" lon="13.380696"><ele>669.0</ele><time>2026-04-25T10:33:56.673Z</time></trkpt><trkpt lat="41.9607712" lon="13.3806563"><ele>672.0</ele><time>2026-04-25T10:33:57.673Z</time></trkpt><trkpt lat="41.9605769" lon="13.3806167"><ele>675.0</ele><time>2026-04-25T10:33:58.674Z</time></trkpt><trkpt lat="41.9603736" lon="13.3805767"><ele>678.0</ele><time>2026-04-25T10:33:59.673Z</time></trkpt><trkpt lat="41.9601752" lon="13.3805384"><ele>678.6666666666666</ele><time>2026-04-25T10:34:00.673Z</time></trkpt><trkpt lat="41.9599892" lon="13.3804936"><ele>679.3333333333333</ele><time>2026-04-25T10:34:01.673Z</time></trkpt><trkpt lat="41.9598196" lon="13.3804568"><ele>680.0</ele><time>2026-04-25T10:34:02.673Z</time></trkpt><trkpt lat="41.9596615" lon="13.38042"><ele>680.0</ele><time>2026-04-25T10:34:03.673Z</time></trkpt><trkpt lat="41.9595272" lon="13.380379"><ele>680.0</ele><time>2026-04-25T10:34:04.673Z</time></trkpt><trkpt lat="41.959401" lon="13.3803191"><ele>680.0</ele><time>2026-04-25T10:34:05.673Z</time></trkpt><trkpt lat="41.9593221" lon="13.3802427"><ele>680.0</ele><time>2026-04-25T10:34:06.673Z</time></trkpt><trkpt lat="41.9592955" lon="13.3801068"><ele>680.0</ele><time>2026-04-25T10:34:07.673Z</time></trkpt><trkpt lat="41.9593188" lon="13.3799413"><ele>680.0</ele><time>2026-04-25T10:34:08.673Z</time></trkpt><trkpt lat="41.9593655" lon="13.379809"><ele>680.0</ele><time>2026-04-25T10:34:09.673Z</time></trkpt><trkpt lat="41.9594322" lon="13.3796916"><ele>680.0</ele><time>2026-04-25T10:34:10.673Z</time></trkpt><trkpt lat="41.9595258" lon="13.3795951"><ele>685.3333333333333</ele><time>2026-04-25T10:34:11.673Z</time></trkpt><trkpt lat="41.9596745" lon="13.3795469"><ele>690.6666666666666</ele><time>2026-04-25T10:34:12.673Z</time></trkpt><trkpt lat="41.9598381" lon="13.3795145"><ele>696.0</ele><time>2026-04-25T10:34:13.673Z</time></trkpt><trkpt lat="41.9599945" lon="13.3794888"><ele>693.3333333333334</ele><time>2026-04-25T10:34:14.673Z</time></trkpt><trkpt lat="41.9601503" lon="13.3794456"><ele>690.6666666666667</ele><time>2026-04-25T10:34:15.673Z</time></trkpt><trkpt lat="41.9603021" lon="13.3793815"><ele>688.0</ele><time>2026-04-25T10:34:16.673Z</time></trkpt><trkpt lat="41.9604503" lon="13.3792975"><ele>688.0</ele><time>2026-04-25T10:34:17.673Z</time></trkpt><trkpt lat="41.9605918" lon="13.3791644"><ele>688.0</ele><time>2026-04-25T10:34:18.673Z</time></trkpt><trkpt lat="41.9607255" lon="13.3790139"><ele>688.0</ele><time>2026-04-25T10:34:19.673Z</time></trkpt><trkpt lat="41.9608573" lon="13.378841"><ele>690.3333333333334</ele><time>2026-04-25T10:34:20.673Z</time></trkpt><trkpt lat="41.9609778" lon="13.3786701"><ele>692.6666666666666</ele><time>2026-04-25T10:34:21.673Z</time></trkpt><trkpt lat="41.9611053" lon="13.3784941"><ele>695.0</ele><time>2026-04-25T10:34:22.673Z</time></trkpt><trkpt lat="41.9612319" lon="13.3783334"><ele>695.0</ele><time>2026-04-25T10:34:23.673Z</time></trkpt><trkpt lat="41.9613514" lon="13.3781852"><ele>695.0</ele><time>2026-04-25T10:34:24.673Z</time></trkpt><trkpt lat="41.9614677" lon="13.3780432"><ele>695.0</ele><time>2026-04-25T10:34:25.673Z</time></trkpt><trkpt lat="41.9615831" lon="13.3779114"><ele>694.25</ele><time>2026-04-25T10:34:26.673Z</time></trkpt><trkpt lat="41.9617087" lon="13.3777986"><ele>693.5</ele><time>2026-04-25T10:34:27.673Z</time></trkpt><trkpt lat="41.9618297" lon="13.3777044"><ele>692.75</ele><time>2026-04-25T10:34:28.673Z</time></trkpt><trkpt lat="41.9619372" lon="13.3776177"><ele>692.0</ele><time>2026-04-25T10:34:29.673Z</time></trkpt><trkpt lat="41.9620341" lon="13.3775341"><ele>692.0</ele><time>2026-04-25T10:34:30.673Z</time></trkpt><trkpt lat="41.962111" lon="13.3774539"><ele>692.0</ele><time>2026-04-25T10:34:31.673Z</time></trkpt><trkpt lat="41.9621427" lon="13.3773544"><ele>692.0</ele><time>2026-04-25T10:34:32.673Z</time></trkpt><trkpt lat="41.9621339" lon="13.3772411"><ele>692.0</ele><time>2026-04-25T10:34:33.673Z</time></trkpt><trkpt lat="41.962088" lon="13.3771405"><ele>692.0</ele><time>2026-04-25T10:34:34.673Z</time></trkpt><trkpt lat="41.9620144" lon="13.3770816"><ele>692.0</ele><time>2026-04-25T10:34:35.673Z</time></trkpt><trkpt lat="41.9619263" lon="13.3770727"><ele>694.0</ele><time>2026-04-25T10:34:36.673Z</time></trkpt><trkpt lat="41.9618327" lon="13.3771137"><ele>696.0</ele><time>2026-04-25T10:34:37.673Z</time></trkpt><trkpt lat="41.9617443" lon="13.377169"><ele>698.0</ele><time>2026-04-25T10:34:38.673Z</time></trkpt><trkpt lat="41.9616484" lon="13.3772377"><ele>700.0</ele><time>2026-04-25T10:34:39.673Z</time></trkpt><trkpt lat="41.9615476" lon="13.3773174"><ele>702.0</ele><time>2026-04-25T10:34:40.673Z</time></trkpt><trkpt lat="41.9614347" lon="13.3774056"><ele>703.75</ele><time>2026-04-25T10:34:41.673Z</time></trkpt><trkpt lat="41.9613128" lon="13.3774956"><ele>705.5</ele><time>2026-04-25T10:34:42.673Z</time></trkpt><trkpt lat="41.961183" lon="13.3775787"><ele>707.25</ele><time>2026-04-25T10:34:43.673Z</time></trkpt><trkpt lat="41.9610518" lon="13.3776599"><ele>709.0</ele><time>2026-04-25T10:34:44.673Z</time></trkpt><trkpt lat="41.9609055" lon="13.377742"><ele>707.6666666666667</ele><time>2026-04-25T10:34:45.673Z</time></trkpt><trkpt lat="41.9607529" lon="13.3778294"><ele>706.3333333333334</ele><time>2026-04-25T10:34:46.673Z</time></trkpt><trkpt lat="41.9606043" lon="13.3779283"><ele>705.0</ele><time>2026-04-25T10:34:47.674Z</time></trkpt><trkpt lat="41.9604606" lon="13.3780212"><ele>705.0</ele><time>2026-04-25T10:34:48.673Z</time></trkpt><trkpt lat="41.9603162" lon="13.3781122"><ele>705.0</ele><time>2026-04-25T10:34:49.673Z</time></trkpt><trkpt lat="41.9601799" lon="13.3781816"><ele>705.0</ele><time>2026-04-25T10:34:50.673Z</time></trkpt><trkpt lat="41.9600421" lon="13.3782338"><ele>705.0</ele><time>2026-04-25T10:34:51.673Z</time></trkpt><trkpt lat="41.9599003" lon="13.3782526"><ele>709.0</ele><time>2026-04-25T10:34:52.673Z</time></trkpt><trkpt lat="41.9597397" lon="13.3782282"><ele>713.0</ele><time>2026-04-25T10:34:53.673Z</time></trkpt><trkpt lat="41.9595654" lon="13.378171"><ele>717.0</ele><time>2026-04-25T10:34:54.673Z</time></trkpt><trkpt lat="41.9594015" lon="13.378077"><ele>723.0</ele><time>2026-04-25T10:34:55.673Z</time></trkpt><trkpt lat="41.9592378" lon="13.3779723"><ele>729.0</ele><time>2026-04-25T10:34:56.673Z</time></trkpt><trkpt lat="41.9590983" lon="13.3778388"><ele>735.0</ele><time>2026-04-25T10:34:57.673Z</time></trkpt><trkpt lat="41.9589581" lon="13.3777236"><ele>735.0</ele><time>2026-04-25T10:34:58.673Z</time></trkpt><trkpt lat="41.958825" lon="13.3776378"><ele>735.0</ele><time>2026-04-25T10:34:59.673Z</time></trkpt><trkpt lat="41.9586818" lon="13.3776098"><ele>735.0</ele><time>2026-04-25T10:35:00.673Z</time></trkpt><trkpt lat="41.9585286" lon="13.3776387"><ele>735.0</ele><time>2026-04-25T10:35:01.673Z</time></trkpt><trkpt lat="41.958372" lon="13.3776693"><ele>736.5</ele><time>2026-04-25T10:35:02.673Z</time></trkpt><trkpt lat="41.958225" lon="13.3777045"><ele>738.0</ele><time>2026-04-25T10:35:03.673Z</time></trkpt><trkpt lat="41.9580863" lon="13.3777455"><ele>739.5</ele><time>2026-04-25T10:35:04.673Z</time></trkpt><trkpt lat="41.9579668" lon="13.3777813"><ele>741.0</ele><time>2026-04-25T10:35:05.673Z</time></trkpt><trkpt lat="41.9578589" lon="13.3778635"><ele>741.0</ele><time>2026-04-25T10:35:06.673Z</time></trkpt><trkpt lat="41.9577507" lon="13.3779594"><ele>741.0</ele><time>2026-04-25T10:35:07.673Z</time></trkpt><trkpt lat="41.9576468" lon="13.3780697"><ele>741.0</ele><time>2026-04-25T10:35:08.673Z</time></trkpt><trkpt lat="41.9575536" lon="13.3782153"><ele>741.0</ele><time>2026-04-25T10:35:09.673Z</time></trkpt><trkpt lat="41.9574619" lon="13.3783611"><ele>742.5</ele><time>2026-04-25T10:35:10.673Z</time></trkpt><trkpt lat="41.9573713" lon="13.3785175"><ele>744.0</ele><time>2026-04-25T10:35:11.673Z</time></trkpt><trkpt lat="41.9572893" lon="13.3786665"><ele>745.5</ele><time>2026-04-25T10:35:12.673Z</time></trkpt><trkpt lat="41.9572132" lon="13.3788168"><ele>747.0</ele><time>2026-04-25T10:35:13.673Z</time></trkpt><trkpt lat="41.9571487" lon="13.3789685"><ele>744.6</ele><time>2026-04-25T10:35:14.673Z</time></trkpt><trkpt lat="41.9570958" lon="13.3791031"><ele>742.2</ele><time>2026-04-25T10:35:15.673Z</time></trkpt><trkpt lat="41.9570463" lon="13.3792334"><ele>739.8</ele><time>2026-04-25T10:35:16.673Z</time></trkpt><trkpt lat="41.9570098" lon="13.3793403"><ele>737.4</ele><time>2026-04-25T10:35:17.673Z</time></trkpt><trkpt lat="41.9569681" lon="13.3794448"><ele>735.0</ele><time>2026-04-25T10:35:18.673Z</time></trkpt><trkpt lat="41.9569346" lon="13.3795442"><ele>735.0</ele><time>2026-04-25T10:35:19.673Z</time></trkpt><trkpt lat="41.9569182" lon="13.3796285"><ele>735.0</ele><time>2026-04-25T10:35:20.673Z</time></trkpt><trkpt lat="41.9568987" lon="13.3797139"><ele>735.0</ele><time>2026-04-25T10:35:21.673Z</time></trkpt><trkpt lat="41.9568568" lon="13.3798456"><ele>735.0</ele><time>2026-04-25T10:35:23.673Z</time></trkpt><trkpt lat="41.9568108" lon="13.3799288"><ele>735.0</ele><time>2026-04-25T10:35:25.673Z</time></trkpt><trkpt lat="41.9567379" lon="13.3799833"><ele>735.0</ele><time>2026-04-25T10:35:31.673Z</time></trkpt><trkpt lat="41.9566568" lon="13.3799227"><ele>735.0</ele><time>2026-04-25T10:35:33.673Z</time></trkpt><trkpt lat="41.9566127" lon="13.379849"><ele>735.0</ele><time>2026-04-25T10:35:34.673Z</time></trkpt><trkpt lat="41.9566055" lon="13.3797604"><ele>735.0</ele><time>2026-04-25T10:35:35.673Z</time></trkpt><trkpt lat="41.9566499" lon="13.3796408"><ele>735.0</ele><time>2026-04-25T10:35:36.673Z</time></trkpt><trkpt lat="41.9567253" lon="13.3795123"><ele>735.0</ele><time>2026-04-25T10:35:37.673Z</time></trkpt><trkpt lat="41.9568015" lon="13.3793726"><ele>735.0</ele><time>2026-04-25T10:35:38.673Z</time></trkpt><trkpt lat="41.9568692" lon="13.3792168"><ele>735.0</ele><time>2026-04-25T10:35:39.673Z</time></trkpt><trkpt lat="41.9569176" lon="13.3790433"><ele>735.0</ele><time>2026-04-25T10:35:40.673Z</time></trkpt><trkpt lat="41.9569605" lon="13.3788694"><ele>735.0</ele><time>2026-04-25T10:35:41.674Z</time></trkpt><trkpt lat="41.9570086" lon="13.3786862"><ele>738.0</ele><time>2026-04-25T10:35:42.673Z</time></trkpt><trkpt lat="41.9570583" lon="13.3785083"><ele>741.0</ele><time>2026-04-25T10:35:43.673Z</time></trkpt><trkpt lat="41.957118" lon="13.378326"><ele>744.0</ele><time>2026-04-25T10:35:44.673Z</time></trkpt><trkpt lat="41.9571953" lon="13.3781454"><ele>747.0</ele><time>2026-04-25T10:35:45.673Z</time></trkpt><trkpt lat="41.9572837" lon="13.3779848"><ele>751.0</ele><time>2026-04-25T10:35:46.673Z</time></trkpt><trkpt lat="41.9573611" lon="13.3778183"><ele>755.0</ele><time>2026-04-25T10:35:47.673Z</time></trkpt><trkpt lat="41.9574249" lon="13.3776257"><ele>759.0</ele><time>2026-04-25T10:35:48.673Z</time></trkpt><trkpt lat="41.9574831" lon="13.3774385"><ele>759.5</ele><time>2026-04-25T10:35:49.674Z</time></trkpt><trkpt lat="41.9575449" lon="13.3772618"><ele>760.0</ele><time>2026-04-25T10:35:50.673Z</time></trkpt><trkpt lat="41.9576281" lon="13.3771024"><ele>760.5</ele><time>2026-04-25T10:35:51.673Z</time></trkpt><trkpt lat="41.9577245" lon="13.37697"><ele>761.0</ele><time>2026-04-25T10:35:52.673Z</time></trkpt><trkpt lat="41.9578446" lon="13.376837"><ele>761.0</ele><time>2026-04-25T10:35:53.673Z</time></trkpt><trkpt lat="41.9579775" lon="13.3767254"><ele>761.0</ele><time>2026-04-25T10:35:54.673Z</time></trkpt><trkpt lat="41.9581297" lon="13.3766404"><ele>761.0</ele><time>2026-04-25T10:35:55.673Z</time></trkpt><trkpt lat="41.9582999" lon="13.3765677"><ele>759.6666666666666</ele><time>2026-04-25T10:35:56.674Z</time></trkpt><trkpt lat="41.9584658" lon="13.3764964"><ele>758.3333333333334</ele><time>2026-04-25T10:35:57.673Z</time></trkpt><trkpt lat="41.9586311" lon="13.376412"><ele>757.0</ele><time>2026-04-25T10:35:58.673Z</time></trkpt><trkpt lat="41.9587952" lon="13.3763243"><ele>762.3333333333334</ele><time>2026-04-25T10:35:59.673Z</time></trkpt><trkpt lat="41.9589478" lon="13.3762141"><ele>767.6666666666667</ele><time>2026-04-25T10:36:00.673Z</time></trkpt><trkpt lat="41.959096" lon="13.3760856"><ele>773.0</ele><time>2026-04-25T10:36:01.673Z</time></trkpt><trkpt lat="41.9592404" lon="13.3759544"><ele>773.0</ele><time>2026-04-25T10:36:02.673Z</time></trkpt><trkpt lat="41.9593772" lon="13.375846"><ele>773.0</ele><time>2026-04-25T10:36:03.673Z</time></trkpt><trkpt lat="41.9595114" lon="13.3757641"><ele>773.0</ele><time>2026-04-25T10:36:04.673Z</time></trkpt><trkpt lat="41.9596407" lon="13.3757244"><ele>773.0</ele><time>2026-04-25T10:36:05.673Z</time></trkpt><trkpt lat="41.9597761" lon="13.3757038"><ele>773.0</ele><time>2026-04-25T10:36:06.673Z</time></trkpt><trkpt lat="41.9599039" lon="13.3756972"><ele>773.0</ele><time>2026-04-25T10:36:07.673Z</time></trkpt><trkpt lat="41.9600264" lon="13.3756917"><ele>773.0</ele><time>2026-04-25T10:36:08.673Z</time></trkpt><trkpt lat="41.9601324" lon="13.3756985"><ele>773.0</ele><time>2026-04-25T10:36:09.673Z</time></trkpt><trkpt lat="41.9602345" lon="13.3756901"><ele>774.5000000000001</ele><time>2026-04-25T10:36:10.673Z</time></trkpt><trkpt lat="41.9603164" lon="13.3756634"><ele>776.0</ele><time>2026-04-25T10:36:11.673Z</time></trkpt><trkpt lat="41.960391" lon="13.3756174"><ele>777.5</ele><time>2026-04-25T10:36:12.673Z</time></trkpt><trkpt lat="41.9604369" lon="13.3755408"><ele>779.0</ele><time>2026-04-25T10:36:13.673Z</time></trkpt><trkpt lat="41.9604303" lon="13.3754317"><ele>780.5000000000001</ele><time>2026-04-25T10:36:14.673Z</time></trkpt><trkpt lat="41.9603856" lon="13.3753138"><ele>782.0</ele><time>2026-04-25T10:36:15.673Z</time></trkpt><trkpt lat="41.9603112" lon="13.3752305"><ele>782.0</ele><time>2026-04-25T10:36:16.673Z</time></trkpt><trkpt lat="41.960206" lon="13.3751872"><ele>782.0</ele><time>2026-04-25T10:36:17.673Z</time></trkpt><trkpt lat="41.960087" lon="13.375188"><ele>782.0</ele><time>2026-04-25T10:36:18.673Z</time></trkpt><trkpt lat="41.9599584" lon="13.3751896"><ele>782.0</ele><time>2026-04-25T10:36:19.673Z</time></trkpt><trkpt lat="41.9598261" lon="13.3751939"><ele>785.0</ele><time>2026-04-25T10:36:20.673Z</time></trkpt><trkpt lat="41.9596885" lon="13.3751922"><ele>788.0</ele><time>2026-04-25T10:36:21.673Z</time></trkpt><trkpt lat="41.9595417" lon="13.3751936"><ele>791.0</ele><time>2026-04-25T10:36:22.673Z</time></trkpt><trkpt lat="41.9593917" lon="13.3751971"><ele>794.0</ele><time>2026-04-25T10:36:23.673Z</time></trkpt><trkpt lat="41.9592341" lon="13.3751954"><ele>796.3333333333334</ele><time>2026-04-25T10:36:24.673Z</time></trkpt><trkpt lat="41.9590778" lon="13.3752127"><ele>798.6666666666667</ele><time>2026-04-25T10:36:25.673Z</time></trkpt><trkpt lat="41.9589134" lon="13.3752306"><ele>801.0</ele><time>2026-04-25T10:36:26.673Z</time></trkpt><trkpt lat="41.9587536" lon="13.3752586"><ele>801.0</ele><time>2026-04-25T10:36:27.673Z</time></trkpt><trkpt lat="41.9585822" lon="13.3752964"><ele>801.0</ele><time>2026-04-25T10:36:28.673Z</time></trkpt><trkpt lat="41.9584024" lon="13.375324"><ele>801.0</ele><time>2026-04-25T10:36:29.673Z</time></trkpt><trkpt lat="41.9582173" lon="13.3753497"><ele>804.6666666666667</ele><time>2026-04-25T10:36:30.673Z</time></trkpt><trkpt lat="41.9580238" lon="13.3753706"><ele>808.3333333333334</ele><time>2026-04-25T10:36:31.673Z</time></trkpt><trkpt lat="41.9578262" lon="13.3753768"><ele>812.0</ele><time>2026-04-25T10:36:32.673Z</time></trkpt><trkpt lat="41.9576377" lon="13.3753665"><ele>812.6666666666667</ele><time>2026-04-25T10:36:33.673Z</time></trkpt><trkpt lat="41.9574505" lon="13.3753567"><ele>813.3333333333333</ele><time>2026-04-25T10:36:34.673Z</time></trkpt><trkpt lat="41.9572561" lon="13.3753424"><ele>814.0</ele><time>2026-04-25T10:36:35.673Z</time></trkpt><trkpt lat="41.9570609" lon="13.3753352"><ele>814.0</ele><time>2026-04-25T10:36:36.673Z</time></trkpt><trkpt lat="41.9568563" lon="13.3753238"><ele>814.0</ele><time>2026-04-25T10:36:37.673Z</time></trkpt><trkpt lat="41.9566572" lon="13.3753138"><ele>814.0</ele><time>2026-04-25T10:36:38.674Z</time></trkpt><trkpt lat="41.9564585" lon="13.3753052"><ele>815.0</ele><time>2026-04-25T10:36:39.673Z</time></trkpt><trkpt lat="41.9562767" lon="13.3752901"><ele>816.0</ele><time>2026-04-25T10:36:40.673Z</time></trkpt><trkpt lat="41.9560943" lon="13.3752962"><ele>817.0</ele><time>2026-04-25T10:36:41.673Z</time></trkpt><trkpt lat="41.9559068" lon="13.3753316"><ele>819.6666666666666</ele><time>2026-04-25T10:36:42.673Z</time></trkpt><trkpt lat="41.9557209" lon="13.3753748"><ele>822.3333333333333</ele><time>2026-04-25T10:36:43.673Z</time></trkpt><trkpt lat="41.9555345" lon="13.3754229"><ele>825.0</ele><time>2026-04-25T10:36:44.673Z</time></trkpt><trkpt lat="41.9553469" lon="13.3754642"><ele>825.0</ele><time>2026-04-25T10:36:45.673Z</time></trkpt><trkpt lat="41.9551654" lon="13.3755113"><ele>825.0</ele><time>2026-04-25T10:36:46.673Z</time></trkpt><trkpt lat="41.9549847" lon="13.3755622"><ele>825.0</ele><time>2026-04-25T10:36:47.673Z</time></trkpt><trkpt lat="41.9548051" lon="13.3756098"><ele>822.3333333333333</ele><time>2026-04-25T10:36:48.673Z</time></trkpt><trkpt lat="41.954626" lon="13.3756552"><ele>819.6666666666666</ele><time>2026-04-25T10:36:49.673Z</time></trkpt><trkpt lat="41.9544447" lon="13.3756977"><ele>817.0</ele><time>2026-04-25T10:36:50.673Z</time></trkpt><trkpt lat="41.9542678" lon="13.3757321"><ele>819.3333333333333</ele><time>2026-04-25T10:36:51.673Z</time></trkpt><trkpt lat="41.9541033" lon="13.3757411"><ele>821.6666666666667</ele><time>2026-04-25T10:36:52.673Z</time></trkpt><trkpt lat="41.9539405" lon="13.375709"><ele>824.0</ele><time>2026-04-25T10:36:53.673Z</time></trkpt><trkpt lat="41.9537807" lon="13.3756617"><ele>824.0</ele><time>2026-04-25T10:36:54.673Z</time></trkpt><trkpt lat="41.9536217" lon="13.3756139"><ele>824.0</ele><time>2026-04-25T10:36:55.673Z</time></trkpt><trkpt lat="41.9534608" lon="13.375572"><ele>824.0</ele><time>2026-04-25T10:36:56.673Z</time></trkpt><trkpt lat="41.953301" lon="13.3755449"><ele>835.3333333333334</ele><time>2026-04-25T10:36:57.673Z</time></trkpt><trkpt lat="41.9531417" lon="13.3755084"><ele>846.6666666666667</ele><time>2026-04-25T10:36:58.673Z</time></trkpt><trkpt lat="41.9529799" lon="13.3754609"><ele>858.0</ele><time>2026-04-25T10:36:59.673Z</time></trkpt><trkpt lat="41.9528205" lon="13.3754134"><ele>858.0</ele><time>2026-04-25T10:37:00.673Z</time></trkpt><trkpt lat="41.9526649" lon="13.3753782"><ele>858.0</ele><time>2026-04-25T10:37:01.673Z</time></trkpt><trkpt lat="41.9525207" lon="13.3753529"><ele>858.0</ele><time>2026-04-25T10:37:02.673Z</time></trkpt><trkpt lat="41.9523803" lon="13.3753296"><ele>858.0</ele><time>2026-04-25T10:37:03.673Z</time></trkpt><trkpt lat="41.9522435" lon="13.3753067"><ele>857.5</ele><time>2026-04-25T10:37:04.673Z</time></trkpt><trkpt lat="41.952107" lon="13.3752647"><ele>857.0</ele><time>2026-04-25T10:37:05.673Z</time></trkpt><trkpt lat="41.9519718" lon="13.375202"><ele>856.5</ele><time>2026-04-25T10:37:06.673Z</time></trkpt><trkpt lat="41.9518459" lon="13.3751136"><ele>856.0</ele><time>2026-04-25T10:37:07.673Z</time></trkpt><trkpt lat="41.9517098" lon="13.3750261"><ele>854.0</ele><time>2026-04-25T10:37:08.674Z</time></trkpt><trkpt lat="41.9515642" lon="13.3749378"><ele>852.0</ele><time>2026-04-25T10:37:09.673Z</time></trkpt><trkpt lat="41.9514141" lon="13.3748722"><ele>850.0</ele><time>2026-04-25T10:37:10.673Z</time></trkpt><trkpt lat="41.9512521" lon="13.3748298"><ele>850.0</ele><time>2026-04-25T10:37:11.673Z</time></trkpt><trkpt lat="41.9510839" lon="13.374808"><ele>850.0</ele><time>2026-04-25T10:37:12.673Z</time></trkpt><trkpt lat="41.9509135" lon="13.374794"><ele>850.0</ele><time>2026-04-25T10:37:13.673Z</time></trkpt><trkpt lat="41.9507301" lon="13.3747808"><ele>850.0</ele><time>2026-04-25T10:37:14.673Z</time></trkpt><trkpt lat="41.9505451" lon="13.3747745"><ele>850.0</ele><time>2026-04-25T10:37:15.673Z</time></trkpt><trkpt lat="41.9503537" lon="13.3747653"><ele>850.0</ele><time>2026-04-25T10:37:16.673Z</time></trkpt><trkpt lat="41.9501658" lon="13.3747615"><ele>851.6666666666666</ele><time>2026-04-25T10:37:17.673Z</time></trkpt><trkpt lat="41.9499784" lon="13.3747524"><ele>853.3333333333333</ele><time>2026-04-25T10:37:18.673Z</time></trkpt><trkpt lat="41.9497964" lon="13.3747542"><ele>855.0</ele><time>2026-04-25T10:37:19.673Z</time></trkpt><trkpt lat="41.9496244" lon="13.3747637"><ele>855.0</ele><time>2026-04-25T10:37:20.673Z</time></trkpt><trkpt lat="41.9494652" lon="13.3747871"><ele>855.0</ele><time>2026-04-25T10:37:21.673Z</time></trkpt><trkpt lat="41.9493194" lon="13.3748371"><ele>855.0</ele><time>2026-04-25T10:37:22.674Z</time></trkpt><trkpt lat="41.9491969" lon="13.3748907"><ele>855.0</ele><time>2026-04-25T10:37:23.673Z</time></trkpt><trkpt lat="41.9490825" lon="13.3749425"><ele>856.0</ele><time>2026-04-25T10:37:24.673Z</time></trkpt><trkpt lat="41.9489931" lon="13.3749902"><ele>857.0</ele><time>2026-04-25T10:37:25.673Z</time></trkpt><trkpt lat="41.94891" lon="13.375013"><ele>858.0</ele><time>2026-04-25T10:37:26.673Z</time></trkpt><trkpt lat="41.9488375" lon="13.3750039"><ele>859.0</ele><time>2026-04-25T10:37:27.673Z</time></trkpt><trkpt lat="41.9487884" lon="13.3749492"><ele>860.0</ele><time>2026-04-25T10:37:28.673Z</time></trkpt><trkpt lat="41.9487784" lon="13.3747672"><ele>866.4</ele><time>2026-04-25T10:37:30.673Z</time></trkpt><trkpt lat="41.948829" lon="13.3746814"><ele>872.8</ele><time>2026-04-25T10:37:31.673Z</time></trkpt><trkpt lat="41.9489009" lon="13.3745956"><ele>879.2</ele><time>2026-04-25T10:37:32.673Z</time></trkpt><trkpt lat="41.9489959" lon="13.3745422"><ele>885.6</ele><time>2026-04-25T10:37:33.673Z</time></trkpt><trkpt lat="41.9490997" lon="13.3745077"><ele>892.0</ele><time>2026-04-25T10:37:34.673Z</time></trkpt><trkpt lat="41.9492072" lon="13.3744702"><ele>889.0</ele><time>2026-04-25T10:37:35.673Z</time></trkpt><trkpt lat="41.9493262" lon="13.3744343"><ele>886.0</ele><time>2026-04-25T10:37:36.673Z</time></trkpt><trkpt lat="41.949445" lon="13.3743846"><ele>883.0</ele><time>2026-04-25T10:37:37.673Z</time></trkpt><trkpt lat="41.9495673" lon="13.3743369"><ele>880.0</ele><time>2026-04-25T10:37:38.673Z</time></trkpt><trkpt lat="41.9496953" lon="13.3742867"><ele>880.0</ele><time>2026-04-25T10:37:39.673Z</time></trkpt><trkpt lat="41.9498257" lon="13.3742307"><ele>880.0</ele><time>2026-04-25T10:37:40.673Z</time></trkpt><trkpt lat="41.9499558" lon="13.3741758"><ele>880.0</ele><time>2026-04-25T10:37:41.673Z</time></trkpt><trkpt lat="41.950096" lon="13.3741247"><ele>880.0</ele><time>2026-04-25T10:37:42.673Z</time></trkpt><trkpt lat="41.9502392" lon="13.3740621"><ele>878.3333333333333</ele><time>2026-04-25T10:37:43.673Z</time></trkpt><trkpt lat="41.9503844" lon="13.3740153"><ele>876.6666666666667</ele><time>2026-04-25T10:37:44.674Z</time></trkpt><trkpt lat="41.9505341" lon="13.3739712"><ele>875.0</ele><time>2026-04-25T10:37:45.673Z</time></trkpt><trkpt lat="41.9506855" lon="13.373935"><ele>875.0</ele><time>2026-04-25T10:37:46.673Z</time></trkpt><trkpt lat="41.9508433" lon="13.3739038"><ele>875.0</ele><time>2026-04-25T10:37:47.673Z</time></trkpt><trkpt lat="41.951006" lon="13.3738708"><ele>875.0</ele><time>2026-04-25T10:37:48.673Z</time></trkpt><trkpt lat="41.9511735" lon="13.3738314"><ele>887.0</ele><time>2026-04-25T10:37:49.673Z</time></trkpt><trkpt lat="41.9513443" lon="13.3737925"><ele>899.0</ele><time>2026-04-25T10:37:50.673Z</time></trkpt><trkpt lat="41.9515218" lon="13.373754"><ele>911.0</ele><time>2026-04-25T10:37:51.673Z</time></trkpt><trkpt lat="41.9517055" lon="13.3737412"><ele>910.6666666666667</ele><time>2026-04-25T10:37:52.673Z</time></trkpt><trkpt lat="41.9518909" lon="13.3737281"><ele>910.3333333333333</ele><time>2026-04-25T10:37:53.673Z</time></trkpt><trkpt lat="41.9520666" lon="13.3737049"><ele>910.0</ele><time>2026-04-25T10:37:54.673Z</time></trkpt><trkpt lat="41.9522394" lon="13.3736823"><ele>910.0</ele><time>2026-04-25T10:37:55.673Z</time></trkpt><trkpt lat="41.9524069" lon="13.373664"><ele>910.0</ele><time>2026-04-25T10:37:56.673Z</time></trkpt><trkpt lat="41.9525731" lon="13.3736649"><ele>910.0</ele><time>2026-04-25T10:37:57.673Z</time></trkpt><trkpt lat="41.9527316" lon="13.373698"><ele>911.6666666666666</ele><time>2026-04-25T10:37:58.673Z</time></trkpt><trkpt lat="41.9528806" lon="13.3737583"><ele>913.3333333333333</ele><time>2026-04-25T10:37:59.673Z</time></trkpt><trkpt lat="41.9530284" lon="13.3738044"><ele>915.0</ele><time>2026-04-25T10:38:00.673Z</time></trkpt><trkpt lat="41.9531781" lon="13.3738255"><ele>915.0</ele><time>2026-04-25T10:38:01.673Z</time></trkpt><trkpt lat="41.9533199" lon="13.3738131"><ele>915.0</ele><time>2026-04-25T10:38:02.673Z</time></trkpt><trkpt lat="41.9534625" lon="13.37377"><ele>915.0</ele><time>2026-04-25T10:38:03.673Z</time></trkpt><trkpt lat="41.9535985" lon="13.3737171"><ele>915.0</ele><time>2026-04-25T10:38:04.674Z</time></trkpt><trkpt lat="41.9537231" lon="13.3736351"><ele>911.5</ele><time>2026-04-25T10:38:05.674Z</time></trkpt><trkpt lat="41.9538454" lon="13.3735297"><ele>908.0</ele><time>2026-04-25T10:38:06.673Z</time></trkpt><trkpt lat="41.9539516" lon="13.3733955"><ele>904.5</ele><time>2026-04-25T10:38:07.673Z</time></trkpt><trkpt lat="41.9540389" lon="13.373244"><ele>901.0</ele><time>2026-04-25T10:38:08.673Z</time></trkpt><trkpt lat="41.9540995" lon="13.3730559"><ele>902.3333333333333</ele><time>2026-04-25T10:38:09.673Z</time></trkpt><trkpt lat="41.9541589" lon="13.3728636"><ele>903.6666666666667</ele><time>2026-04-25T10:38:10.673Z</time></trkpt><trkpt lat="41.954208" lon="13.3726596"><ele>905.0</ele><time>2026-04-25T10:38:11.673Z</time></trkpt><trkpt lat="41.9542587" lon="13.3724503"><ele>905.0</ele><time>2026-04-25T10:38:12.673Z</time></trkpt><trkpt lat="41.9543124" lon="13.372248"><ele>905.0</ele><time>2026-04-25T10:38:13.673Z</time></trkpt><trkpt lat="41.9543714" lon="13.3720475"><ele>905.0</ele><time>2026-04-25T10:38:14.673Z</time></trkpt><trkpt lat="41.9544334" lon="13.3718589"><ele>908.5</ele><time>2026-04-25T10:38:15.673Z</time></trkpt><trkpt lat="41.9545107" lon="13.3716862"><ele>912.0</ele><time>2026-04-25T10:38:16.674Z</time></trkpt><trkpt lat="41.9546066" lon="13.3715306"><ele>915.5</ele><time>2026-04-25T10:38:17.673Z</time></trkpt><trkpt lat="41.9547176" lon="13.3714062"><ele>919.0</ele><time>2026-04-25T10:38:18.673Z</time></trkpt><trkpt lat="41.9548389" lon="13.3712974"><ele>919.0</ele><time>2026-04-25T10:38:19.673Z</time></trkpt><trkpt lat="41.9549721" lon="13.3712297"><ele>919.0</ele><time>2026-04-25T10:38:20.673Z</time></trkpt><trkpt lat="41.9551034" lon="13.3711695"><ele>919.0</ele><time>2026-04-25T10:38:21.673Z</time></trkpt><trkpt lat="41.9552242" lon="13.3710996"><ele>919.0</ele><time>2026-04-25T10:38:22.673Z</time></trkpt><trkpt lat="41.9553499" lon="13.3710093"><ele>919.0</ele><time>2026-04-25T10:38:23.673Z</time></trkpt><trkpt lat="41.9554703" lon="13.370888"><ele>919.0</ele><time>2026-04-25T10:38:24.673Z</time></trkpt><trkpt lat="41.9555851" lon="13.370752"><ele>919.0</ele><time>2026-04-25T10:38:25.673Z</time></trkpt><trkpt lat="41.9556998" lon="13.3705758"><ele>918.3333333333333</ele><time>2026-04-25T10:38:26.673Z</time></trkpt><trkpt lat="41.9558089" lon="13.3703876"><ele>917.6666666666667</ele><time>2026-04-25T10:38:27.673Z</time></trkpt><trkpt lat="41.9559247" lon="13.3701934"><ele>917.0</ele><time>2026-04-25T10:38:28.673Z</time></trkpt><trkpt lat="41.9560329" lon="13.3700095"><ele>917.0</ele><time>2026-04-25T10:38:29.674Z</time></trkpt><trkpt lat="41.9561548" lon="13.3698234"><ele>917.0</ele><time>2026-04-25T10:38:30.673Z</time></trkpt><trkpt lat="41.9562793" lon="13.3696428"><ele>917.0</ele><time>2026-04-25T10:38:31.673Z</time></trkpt><trkpt lat="41.9564038" lon="13.3694635"><ele>916.6666666666667</ele><time>2026-04-25T10:38:32.673Z</time></trkpt><trkpt lat="41.9565188" lon="13.3692807"><ele>916.3333333333333</ele><time>2026-04-25T10:38:33.673Z</time></trkpt><trkpt lat="41.9566275" lon="13.3691034"><ele>916.0</ele><time>2026-04-25T10:38:34.673Z</time></trkpt><trkpt lat="41.9567308" lon="13.3689144"><ele>922.3333333333333</ele><time>2026-04-25T10:38:35.673Z</time></trkpt><trkpt lat="41.9568352" lon="13.3687278"><ele>928.6666666666667</ele><time>2026-04-25T10:38:36.673Z</time></trkpt><trkpt lat="41.9569405" lon="13.3685482"><ele>935.0</ele><time>2026-04-25T10:38:37.673Z</time></trkpt><trkpt lat="41.9570525" lon="13.3683819"><ele>935.0</ele><time>2026-04-25T10:38:38.673Z</time></trkpt><trkpt lat="41.9571718" lon="13.368226"><ele>935.0</ele><time>2026-04-25T10:38:39.673Z</time></trkpt><trkpt lat="41.9573021" lon="13.3680733"><ele>935.0</ele><time>2026-04-25T10:38:40.673Z</time></trkpt><trkpt lat="41.9574219" lon="13.3679155"><ele>936.0</ele><time>2026-04-25T10:38:41.673Z</time></trkpt><trkpt lat="41.9575378" lon="13.3677649"><ele>937.0</ele><time>2026-04-25T10:38:42.673Z</time></trkpt><trkpt lat="41.9576418" lon="13.3676054"><ele>938.0</ele><time>2026-04-25T10:38:43.673Z</time></trkpt><trkpt lat="41.9577302" lon="13.3674474"><ele>938.0</ele><time>2026-04-25T10:38:44.674Z</time></trkpt><trkpt lat="41.9578183" lon="13.3672903"><ele>938.0</ele><time>2026-04-25T10:38:45.673Z</time></trkpt><trkpt lat="41.9579131" lon="13.3671492"><ele>938.0</ele><time>2026-04-25T10:38:46.673Z</time></trkpt><trkpt lat="41.9580253" lon="13.3670263"><ele>938.0</ele><time>2026-04-25T10:38:47.673Z</time></trkpt><trkpt lat="41.9581476" lon="13.366921"><ele>938.75</ele><time>2026-04-25T10:38:48.673Z</time></trkpt><trkpt lat="41.9582732" lon="13.3668279"><ele>939.5</ele><time>2026-04-25T10:38:49.673Z</time></trkpt><trkpt lat="41.9583998" lon="13.3667358"><ele>940.25</ele><time>2026-04-25T10:38:50.673Z</time></trkpt><trkpt lat="41.9585224" lon="13.366636"><ele>941.0</ele><time>2026-04-25T10:38:51.673Z</time></trkpt><trkpt lat="41.9586357" lon="13.3665255"><ele>941.0</ele><time>2026-04-25T10:38:52.673Z</time></trkpt><trkpt lat="41.9587413" lon="13.3663933"><ele>941.0</ele><time>2026-04-25T10:38:53.673Z</time></trkpt><trkpt lat="41.9588334" lon="13.3662411"><ele>941.0</ele><time>2026-04-25T10:38:54.673Z</time></trkpt><trkpt lat="41.9589252" lon="13.3660716"><ele>941.0</ele><time>2026-04-25T10:38:55.673Z</time></trkpt><trkpt lat="41.9590159" lon="13.365903"><ele>945.0</ele><time>2026-04-25T10:38:56.673Z</time></trkpt><trkpt lat="41.9591038" lon="13.3657271"><ele>949.0</ele><time>2026-04-25T10:38:57.673Z</time></trkpt><trkpt lat="41.9591831" lon="13.365551"><ele>953.0</ele><time>2026-04-25T10:38:58.673Z</time></trkpt><trkpt lat="41.9592654" lon="13.3653746"><ele>953.0</ele><time>2026-04-25T10:38:59.673Z</time></trkpt><trkpt lat="41.9593414" lon="13.3652057"><ele>953.0</ele><time>2026-04-25T10:39:00.674Z</time></trkpt><trkpt lat="41.9594274" lon="13.3650328"><ele>953.0</ele><time>2026-04-25T10:39:01.673Z</time></trkpt><trkpt lat="41.9595098" lon="13.3648709"><ele>953.0</ele><time>2026-04-25T10:39:02.673Z</time></trkpt><trkpt lat="41.9595939" lon="13.3646987"><ele>959.3333333333334</ele><time>2026-04-25T10:39:03.673Z</time></trkpt><trkpt lat="41.9596868" lon="13.3645189"><ele>965.6666666666667</ele><time>2026-04-25T10:39:04.673Z</time></trkpt><trkpt lat="41.9597693" lon="13.3643507"><ele>972.0</ele><time>2026-04-25T10:39:05.672Z</time></trkpt><trkpt lat="41.9598681" lon="13.3641706"><ele>972.0</ele><time>2026-04-25T10:39:06.672Z</time></trkpt><trkpt lat="41.9599673" lon="13.3639864"><ele>972.0</ele><time>2026-04-25T10:39:07.672Z</time></trkpt><trkpt lat="41.960075" lon="13.3637935"><ele>972.0</ele><time>2026-04-25T10:39:08.672Z</time></trkpt><trkpt lat="41.9601853" lon="13.3635878"><ele>975.6666666666667</ele><time>2026-04-25T10:39:09.672Z</time></trkpt><trkpt lat="41.9602829" lon="13.3633804"><ele>979.3333333333334</ele><time>2026-04-25T10:39:10.672Z</time></trkpt><trkpt lat="41.9603844" lon="13.3631697"><ele>983.0</ele><time>2026-04-25T10:39:11.672Z</time></trkpt><trkpt lat="41.9604774" lon="13.3629584"><ele>983.0</ele><time>2026-04-25T10:39:12.672Z</time></trkpt><trkpt lat="41.9605758" lon="13.3627536"><ele>983.0</ele><time>2026-04-25T10:39:13.672Z</time></trkpt><trkpt lat="41.9606813" lon="13.3625507"><ele>983.0</ele><time>2026-04-25T10:39:14.672Z</time></trkpt><trkpt lat="41.9607871" lon="13.3623488"><ele>980.0</ele><time>2026-04-25T10:39:15.672Z</time></trkpt><trkpt lat="41.9608985" lon="13.3621513"><ele>977.0</ele><time>2026-04-25T10:39:16.672Z</time></trkpt><trkpt lat="41.9610094" lon="13.3619785"><ele>974.0</ele><time>2026-04-25T10:39:17.672Z</time></trkpt><trkpt lat="41.9611272" lon="13.3618078"><ele>974.0</ele><time>2026-04-25T10:39:18.672Z</time></trkpt><trkpt lat="41.9612449" lon="13.36167"><ele>974.0</ele><time>2026-04-25T10:39:19.672Z</time></trkpt><trkpt lat="41.9613544" lon="13.3615494"><ele>974.0</ele><time>2026-04-25T10:39:20.672Z</time></trkpt><trkpt lat="41.9614503" lon="13.3614143"><ele>974.0</ele><time>2026-04-25T10:39:21.672Z</time></trkpt><trkpt lat="41.9615202" lon="13.3612523"><ele>982.0</ele><time>2026-04-25T10:39:22.672Z</time></trkpt><trkpt lat="41.9615731" lon="13.3610583"><ele>990.0</ele><time>2026-04-25T10:39:23.672Z</time></trkpt><trkpt lat="41.9616285" lon="13.3608528"><ele>998.0</ele><time>2026-04-25T10:39:24.672Z</time></trkpt><trkpt lat="41.9616869" lon="13.3606422"><ele>991.3333333333334</ele><time>2026-04-25T10:39:25.672Z</time></trkpt><trkpt lat="41.961747" lon="13.3604224"><ele>984.6666666666667</ele><time>2026-04-25T10:39:26.672Z</time></trkpt><trkpt lat="41.9618065" lon="13.3602124"><ele>978.0</ele><time>2026-04-25T10:39:27.672Z</time></trkpt><trkpt lat="41.961876" lon="13.360004"><ele>978.0</ele><time>2026-04-25T10:39:28.672Z</time></trkpt><trkpt lat="41.961967" lon="13.3597959"><ele>978.0</ele><time>2026-04-25T10:39:29.672Z</time></trkpt><trkpt lat="41.9620762" lon="13.3595852"><ele>978.0</ele><time>2026-04-25T10:39:30.672Z</time></trkpt><trkpt lat="41.9621937" lon="13.3593678"><ele>983.6666666666667</ele><time>2026-04-25T10:39:31.672Z</time></trkpt><trkpt lat="41.9623172" lon="13.359152"><ele>989.3333333333334</ele><time>2026-04-25T10:39:32.672Z</time></trkpt><trkpt lat="41.962433" lon="13.3589419"><ele>995.0</ele><time>2026-04-25T10:39:33.672Z</time></trkpt><trkpt lat="41.9625464" lon="13.3587303"><ele>995.0</ele><time>2026-04-25T10:39:34.672Z</time></trkpt><trkpt lat="41.9626586" lon="13.358525"><ele>995.0</ele><time>2026-04-25T10:39:35.672Z</time></trkpt><trkpt lat="41.9627526" lon="13.3583181"><ele>995.0</ele><time>2026-04-25T10:39:36.672Z</time></trkpt><trkpt lat="41.9628499" lon="13.3581195"><ele>1005.3333333333334</ele><time>2026-04-25T10:39:37.672Z</time></trkpt><trkpt lat="41.9629568" lon="13.3579268"><ele>1015.6666666666667</ele><time>2026-04-25T10:39:38.672Z</time></trkpt><trkpt lat="41.9630797" lon="13.3577425"><ele>1026.0</ele><time>2026-04-25T10:39:39.672Z</time></trkpt><trkpt lat="41.9632077" lon="13.3575669"><ele>1026.0</ele><time>2026-04-25T10:39:40.672Z</time></trkpt><trkpt lat="41.9633383" lon="13.3573927"><ele>1026.0</ele><time>2026-04-25T10:39:41.672Z</time></trkpt><trkpt lat="41.9634749" lon="13.3572242"><ele>1026.0</ele><time>2026-04-25T10:39:42.672Z</time></trkpt><trkpt lat="41.9636072" lon="13.3570582"><ele>1024.6666666666667</ele><time>2026-04-25T10:39:43.672Z</time></trkpt><trkpt lat="41.9637451" lon="13.3568991"><ele>1023.3333333333334</ele><time>2026-04-25T10:39:44.672Z</time></trkpt><trkpt lat="41.963886" lon="13.3567369"><ele>1022.0</ele><time>2026-04-25T10:39:45.673Z</time></trkpt><trkpt lat="41.9640237" lon="13.3565697"><ele>1022.0</ele><time>2026-04-25T10:39:46.672Z</time></trkpt><trkpt lat="41.9641502" lon="13.3564137"><ele>1022.0</ele><time>2026-04-25T10:39:47.672Z</time></trkpt><trkpt lat="41.9642909" lon="13.3562432"><ele>1022.0</ele><time>2026-04-25T10:39:48.672Z</time></trkpt><trkpt lat="41.9644309" lon="13.35609"><ele>1023.3333333333334</ele><time>2026-04-25T10:39:49.672Z</time></trkpt><trkpt lat="41.9645874" lon="13.3559386"><ele>1024.6666666666667</ele><time>2026-04-25T10:39:50.672Z</time></trkpt><trkpt lat="41.9647352" lon="13.3557926"><ele>1026.0</ele><time>2026-04-25T10:39:51.672Z</time></trkpt><trkpt lat="41.9648897" lon="13.3556392"><ele>1031.0</ele><time>2026-04-25T10:39:52.673Z</time></trkpt><trkpt lat="41.9650348" lon="13.3555054"><ele>1036.0</ele><time>2026-04-25T10:39:53.672Z</time></trkpt><trkpt lat="41.9651808" lon="13.3553761"><ele>1041.0</ele><time>2026-04-25T10:39:54.672Z</time></trkpt><trkpt lat="41.9653258" lon="13.3552571"><ele>1041.0</ele><time>2026-04-25T10:39:55.672Z</time></trkpt><trkpt lat="41.9654671" lon="13.3551593"><ele>1041.0</ele><time>2026-04-25T10:39:56.672Z</time></trkpt><trkpt lat="41.9656019" lon="13.3550659"><ele>1041.0</ele><time>2026-04-25T10:39:57.672Z</time></trkpt><trkpt lat="41.9657326" lon="13.354993"><ele>1042.75</ele><time>2026-04-25T10:39:58.672Z</time></trkpt><trkpt lat="41.9658661" lon="13.3549363"><ele>1044.5</ele><time>2026-04-25T10:39:59.672Z</time></trkpt><trkpt lat="41.9660028" lon="13.354878"><ele>1046.25</ele><time>2026-04-25T10:40:00.672Z</time></trkpt><trkpt lat="41.9661326" lon="13.3547997"><ele>1048.0</ele><time>2026-04-25T10:40:01.672Z</time></trkpt><trkpt lat="41.9662421" lon="13.354682"><ele>1048.0</ele><time>2026-04-25T10:40:02.672Z</time></trkpt><trkpt lat="41.9663439" lon="13.3545459"><ele>1048.0</ele><time>2026-04-25T10:40:03.672Z</time></trkpt><trkpt lat="41.9664546" lon="13.3543788"><ele>1048.0</ele><time>2026-04-25T10:40:04.672Z</time></trkpt><trkpt lat="41.9665718" lon="13.354233"><ele>1048.0</ele><time>2026-04-25T10:40:05.672Z</time></trkpt><trkpt lat="41.9666747" lon="13.3540859"><ele>1048.0</ele><time>2026-04-25T10:40:06.672Z</time></trkpt><trkpt lat="41.9667847" lon="13.353942"><ele>1048.0</ele><time>2026-04-25T10:40:07.672Z</time></trkpt><trkpt lat="41.9668864" lon="13.3537907"><ele>1048.3333333333333</ele><time>2026-04-25T10:40:08.672Z</time></trkpt><trkpt lat="41.9670044" lon="13.3536512"><ele>1048.6666666666667</ele><time>2026-04-25T10:40:09.672Z</time></trkpt><trkpt lat="41.967134" lon="13.3535236"><ele>1049.0</ele><time>2026-04-25T10:40:10.672Z</time></trkpt><trkpt lat="41.9672685" lon="13.3533995"><ele>1049.0</ele><time>2026-04-25T10:40:11.672Z</time></trkpt><trkpt lat="41.9674016" lon="13.3532562"><ele>1049.0</ele><time>2026-04-25T10:40:12.672Z</time></trkpt><trkpt lat="41.967531" lon="13.3531034"><ele>1049.0</ele><time>2026-04-25T10:40:13.672Z</time></trkpt><trkpt lat="41.9676577" lon="13.3529348"><ele>1050.3333333333335</ele><time>2026-04-25T10:40:14.672Z</time></trkpt><trkpt lat="41.9677893" lon="13.3527737"><ele>1051.6666666666667</ele><time>2026-04-25T10:40:15.672Z</time></trkpt><trkpt lat="41.9679253" lon="13.3526122"><ele>1053.0</ele><time>2026-04-25T10:40:16.672Z</time></trkpt><trkpt lat="41.9680683" lon="13.3524453"><ele>1053.0</ele><time>2026-04-25T10:40:17.672Z</time></trkpt><trkpt lat="41.9682069" lon="13.3522845"><ele>1053.0</ele><time>2026-04-25T10:40:18.672Z</time></trkpt><trkpt lat="41.9683443" lon="13.3521127"><ele>1053.0</ele><time>2026-04-25T10:40:19.672Z</time></trkpt><trkpt lat="41.9684748" lon="13.3519422"><ele>1050.6666666666667</ele><time>2026-04-25T10:40:20.672Z</time></trkpt><trkpt lat="41.968596" lon="13.3517751"><ele>1048.3333333333335</ele><time>2026-04-25T10:40:21.672Z</time></trkpt><trkpt lat="41.9687087" lon="13.3516092"><ele>1046.0</ele><time>2026-04-25T10:40:22.672Z</time></trkpt><trkpt lat="41.9688161" lon="13.3514437"><ele>1057.3333333333335</ele><time>2026-04-25T10:40:23.672Z</time></trkpt><trkpt lat="41.9689192" lon="13.3512616"><ele>1068.6666666666667</ele><time>2026-04-25T10:40:24.672Z</time></trkpt><trkpt lat="41.9690156" lon="13.3510829"><ele>1080.0</ele><time>2026-04-25T10:40:25.672Z</time></trkpt><trkpt lat="41.969101" lon="13.3509091"><ele>1080.0</ele><time>2026-04-25T10:40:26.672Z</time></trkpt><trkpt lat="41.9691511" lon="13.3507317"><ele>1080.0</ele><time>2026-04-25T10:40:27.673Z</time></trkpt><trkpt lat="41.969195" lon="13.3505511"><ele>1080.0</ele><time>2026-04-25T10:40:28.672Z</time></trkpt><trkpt lat="41.9692209" lon="13.3503966"><ele>1080.0</ele><time>2026-04-25T10:40:29.672Z</time></trkpt><trkpt lat="41.9692457" lon="13.3502509"><ele>1075.6</ele><time>2026-04-25T10:40:30.672Z</time></trkpt><trkpt lat="41.9692711" lon="13.3501208"><ele>1071.2</ele><time>2026-04-25T10:40:31.672Z</time></trkpt><trkpt lat="41.9693082" lon="13.3499977"><ele>1066.8</ele><time>2026-04-25T10:40:32.673Z</time></trkpt><trkpt lat="41.9693381" lon="13.3498967"><ele>1062.4</ele><time>2026-04-25T10:40:33.672Z</time></trkpt><trkpt lat="41.9693375" lon="13.3498082"><ele>1058.0</ele><time>2026-04-25T10:40:34.672Z</time></trkpt><trkpt lat="41.9692502" lon="13.3497251"><ele>1058.0</ele><time>2026-04-25T10:40:36.672Z</time></trkpt><trkpt lat="41.9691966" lon="13.3497835"><ele>1058.0</ele><time>2026-04-25T10:40:37.672Z</time></trkpt><trkpt lat="41.969151" lon="13.3498576"><ele>1058.0</ele><time>2026-04-25T10:40:38.672Z</time></trkpt><trkpt lat="41.969128" lon="13.3499643"><ele>1058.0</ele><time>2026-04-25T10:40:39.672Z</time></trkpt><trkpt lat="41.9691003" lon="13.3500927"><ele>1058.0</ele><time>2026-04-25T10:40:40.672Z</time></trkpt><trkpt lat="41.9690822" lon="13.3502173"><ele>1058.0</ele><time>2026-04-25T10:40:41.672Z</time></trkpt><trkpt lat="41.9690585" lon="13.3503475"><ele>1062.4</ele><time>2026-04-25T10:40:42.672Z</time></trkpt><trkpt lat="41.9690261" lon="13.3504784"><ele>1066.8</ele><time>2026-04-25T10:40:43.672Z</time></trkpt><trkpt lat="41.9689762" lon="13.3506095"><ele>1071.2</ele><time>2026-04-25T10:40:44.673Z</time></trkpt><trkpt lat="41.9689177" lon="13.3507295"><ele>1075.6</ele><time>2026-04-25T10:40:45.672Z</time></trkpt><trkpt lat="41.9688486" lon="13.3508381"><ele>1080.0</ele><time>2026-04-25T10:40:46.672Z</time></trkpt><trkpt lat="41.9687749" lon="13.3509521"><ele>1080.0</ele><time>2026-04-25T10:40:47.672Z</time></trkpt><trkpt lat="41.9686928" lon="13.3510734"><ele>1080.0</ele><time>2026-04-25T10:40:48.672Z</time></trkpt><trkpt lat="41.9686164" lon="13.3511949"><ele>1080.0</ele><time>2026-04-25T10:40:49.672Z</time></trkpt><trkpt lat="41.9685444" lon="13.3513296"><ele>1080.0</ele><time>2026-04-25T10:40:50.672Z</time></trkpt><trkpt lat="41.9684676" lon="13.3514485"><ele>1085.0</ele><time>2026-04-25T10:40:51.672Z</time></trkpt><trkpt lat="41.9683866" lon="13.3515362"><ele>1090.0</ele><time>2026-04-25T10:40:52.672Z</time></trkpt><trkpt lat="41.9682955" lon="13.3516194"><ele>1095.0</ele><time>2026-04-25T10:40:53.672Z</time></trkpt><trkpt lat="41.9681963" lon="13.3517003"><ele>1100.0</ele><time>2026-04-25T10:40:54.672Z</time></trkpt><trkpt lat="41.9681019" lon="13.3517895"><ele>1105.0</ele><time>2026-04-25T10:40:55.672Z</time></trkpt><trkpt lat="41.9680208" lon="13.351876"><ele>1105.0</ele><time>2026-04-25T10:40:56.672Z</time></trkpt><trkpt lat="41.9679497" lon="13.3519637"><ele>1105.0</ele><time>2026-04-25T10:40:57.672Z</time></trkpt><trkpt lat="41.9678759" lon="13.3520242"><ele>1105.0</ele><time>2026-04-25T10:40:58.672Z</time></trkpt><trkpt lat="41.9677656" lon="13.3520755"><ele>1105.0</ele><time>2026-04-25T10:40:59.672Z</time></trkpt><trkpt lat="41.967663" lon="13.3521246"><ele>1105.0</ele><time>2026-04-25T10:41:00.672Z</time></trkpt><trkpt lat="41.9675475" lon="13.3521987"><ele>1104.0</ele><time>2026-04-25T10:41:01.672Z</time></trkpt><trkpt lat="41.9674484" lon="13.3522792"><ele>1103.0</ele><time>2026-04-25T10:41:02.672Z</time></trkpt><trkpt lat="41.9673383" lon="13.3523645"><ele>1102.0</ele><time>2026-04-25T10:41:03.672Z</time></trkpt><trkpt lat="41.9672388" lon="13.3524673"><ele>1101.0</ele><time>2026-04-25T10:41:04.672Z</time></trkpt><trkpt lat="41.9671539" lon="13.3525846"><ele>1101.0</ele><time>2026-04-25T10:41:05.672Z</time></trkpt><trkpt lat="41.9670792" lon="13.3527"><ele>1101.0</ele><time>2026-04-25T10:41:06.672Z</time></trkpt><trkpt lat="41.967014" lon="13.3527957"><ele>1101.0</ele><time>2026-04-25T10:41:07.672Z</time></trkpt><trkpt lat="41.9669523" lon="13.3528588"><ele>1101.0</ele><time>2026-04-25T10:41:08.672Z</time></trkpt><trkpt lat="41.9668435" lon="13.3528731"><ele>1101.0</ele><time>2026-04-25T10:41:10.672Z</time></trkpt><trkpt lat="41.9667494" lon="13.3528715"><ele>1100.2</ele><time>2026-04-25T10:41:11.672Z</time></trkpt><trkpt lat="41.9666444" lon="13.3528832"><ele>1099.3999999999999</ele><time>2026-04-25T10:41:12.672Z</time></trkpt><trkpt lat="41.9665462" lon="13.3529383"><ele>1098.6</ele><time>2026-04-25T10:41:13.672Z</time></trkpt><trkpt lat="41.9664552" lon="13.3530319"><ele>1097.8</ele><time>2026-04-25T10:41:14.672Z</time></trkpt><trkpt lat="41.966366" lon="13.3531383"><ele>1097.0</ele><time>2026-04-25T10:41:15.672Z</time></trkpt><trkpt lat="41.9662789" lon="13.353253"><ele>1097.0</ele><time>2026-04-25T10:41:16.672Z</time></trkpt><trkpt lat="41.9662039" lon="13.3533599"><ele>1097.0</ele><time>2026-04-25T10:41:17.673Z</time></trkpt><trkpt lat="41.9661327" lon="13.3534384"><ele>1097.0</ele><time>2026-04-25T10:41:18.672Z</time></trkpt><trkpt lat="41.9660528" lon="13.3535026"><ele>1097.0</ele><time>2026-04-25T10:41:19.672Z</time></trkpt><trkpt lat="41.9659581" lon="13.3535388"><ele>1097.0</ele><time>2026-04-25T10:41:20.672Z</time></trkpt><trkpt lat="41.9658466" lon="13.3535543"><ele>1106.5</ele><time>2026-04-25T10:41:21.672Z</time></trkpt><trkpt lat="41.9657303" lon="13.3535618"><ele>1116.0</ele><time>2026-04-25T10:41:22.672Z</time></trkpt><trkpt lat="41.9656072" lon="13.3535513"><ele>1125.5</ele><time>2026-04-25T10:41:23.672Z</time></trkpt><trkpt lat="41.9654699" lon="13.3535286"><ele>1135.0</ele><time>2026-04-25T10:41:24.672Z</time></trkpt><trkpt lat="41.9653364" lon="13.3535051"><ele>1135.0</ele><time>2026-04-25T10:41:25.672Z</time></trkpt><trkpt lat="41.9652074" lon="13.3534809"><ele>1135.0</ele><time>2026-04-25T10:41:26.672Z</time></trkpt><trkpt lat="41.9650859" lon="13.35348"><ele>1135.0</ele><time>2026-04-25T10:41:27.672Z</time></trkpt><trkpt lat="41.9649753" lon="13.3535101"><ele>1135.0</ele><time>2026-04-25T10:41:28.672Z</time></trkpt><trkpt lat="41.9648937" lon="13.3535508"><ele>1130.6666666666665</ele><time>2026-04-25T10:41:29.672Z</time></trkpt><trkpt lat="41.9648302" lon="13.3536132"><ele>1126.3333333333333</ele><time>2026-04-25T10:41:30.672Z</time></trkpt><trkpt lat="41.9647683" lon="13.353682"><ele>1122.0</ele><time>2026-04-25T10:41:31.672Z</time></trkpt><trkpt lat="41.9647085" lon="13.3537688"><ele>1117.6666666666667</ele><time>2026-04-25T10:41:32.672Z</time></trkpt><trkpt lat="41.9646451" lon="13.353864"><ele>1113.3333333333335</ele><time>2026-04-25T10:41:33.672Z</time></trkpt><trkpt lat="41.9645816" lon="13.3539333"><ele>1109.0</ele><time>2026-04-25T10:41:34.672Z</time></trkpt><trkpt lat="41.964512" lon="13.3539862"><ele>1109.0</ele><time>2026-04-25T10:41:35.672Z</time></trkpt><trkpt lat="41.9644265" lon="13.3540306"><ele>1109.0</ele><time>2026-04-25T10:41:36.672Z</time></trkpt><trkpt lat="41.9643349" lon="13.3540793"><ele>1109.0</ele><time>2026-04-25T10:41:37.672Z</time></trkpt><trkpt lat="41.9642386" lon="13.3541318"><ele>1109.0</ele><time>2026-04-25T10:41:38.672Z</time></trkpt><trkpt lat="41.9641292" lon="13.3541998"><ele>1109.0</ele><time>2026-04-25T10:41:39.672Z</time></trkpt><trkpt lat="41.9640206" lon="13.3542709"><ele>1118.5</ele><time>2026-04-25T10:41:40.672Z</time></trkpt><trkpt lat="41.9639148" lon="13.3543469"><ele>1128.0</ele><time>2026-04-25T10:41:41.672Z</time></trkpt><trkpt lat="41.9637945" lon="13.3544132"><ele>1137.5</ele><time>2026-04-25T10:41:42.672Z</time></trkpt><trkpt lat="41.9636667" lon="13.3544873"><ele>1147.0</ele><time>2026-04-25T10:41:43.672Z</time></trkpt><trkpt lat="41.9635392" lon="13.3545628"><ele>1147.0</ele><time>2026-04-25T10:41:44.672Z</time></trkpt><trkpt lat="41.9634092" lon="13.3546282"><ele>1147.0</ele><time>2026-04-25T10:41:45.672Z</time></trkpt><trkpt lat="41.9632773" lon="13.3546901"><ele>1147.0</ele><time>2026-04-25T10:41:46.672Z</time></trkpt><trkpt lat="41.9631338" lon="13.3547361"><ele>1147.0</ele><time>2026-04-25T10:41:47.672Z</time></trkpt><trkpt lat="41.9630051" lon="13.3548047"><ele>1143.5</ele><time>2026-04-25T10:41:48.672Z</time></trkpt><trkpt lat="41.9628743" lon="13.3548946"><ele>1140.0</ele><time>2026-04-25T10:41:49.672Z</time></trkpt><trkpt lat="41.962745" lon="13.3549774"><ele>1136.5</ele><time>2026-04-25T10:41:50.672Z</time></trkpt><trkpt lat="41.9626086" lon="13.355063"><ele>1133.0</ele><time>2026-04-25T10:41:51.672Z</time></trkpt><trkpt lat="41.9624726" lon="13.3551561"><ele>1146.6666666666667</ele><time>2026-04-25T10:41:52.672Z</time></trkpt><trkpt lat="41.9623409" lon="13.3552693"><ele>1160.3333333333333</ele><time>2026-04-25T10:41:53.672Z</time></trkpt><trkpt lat="41.962206" lon="13.3553744"><ele>1174.0</ele><time>2026-04-25T10:41:54.673Z</time></trkpt><trkpt lat="41.9620825" lon="13.3554733"><ele>1163.25</ele><time>2026-04-25T10:41:55.672Z</time></trkpt><trkpt lat="41.9619687" lon="13.3555848"><ele>1152.5</ele><time>2026-04-25T10:41:56.672Z</time></trkpt><trkpt lat="41.9618715" lon="13.3557305"><ele>1141.75</ele><time>2026-04-25T10:41:57.672Z</time></trkpt><trkpt lat="41.9617846" lon="13.3558876"><ele>1131.0</ele><time>2026-04-25T10:41:58.672Z</time></trkpt><trkpt lat="41.9617129" lon="13.3560505"><ele>1136.5</ele><time>2026-04-25T10:41:59.672Z</time></trkpt><trkpt lat="41.9616427" lon="13.3562079"><ele>1142.0</ele><time>2026-04-25T10:42:00.672Z</time></trkpt><trkpt lat="41.9615715" lon="13.356382"><ele>1147.5</ele><time>2026-04-25T10:42:01.672Z</time></trkpt><trkpt lat="41.9614922" lon="13.3565141"><ele>1153.0</ele><time>2026-04-25T10:42:02.672Z</time></trkpt><trkpt lat="41.9614099" lon="13.3566411"><ele>1153.0</ele><time>2026-04-25T10:42:03.672Z</time></trkpt><trkpt lat="41.9613048" lon="13.3567729"><ele>1153.0</ele><time>2026-04-25T10:42:04.672Z</time></trkpt><trkpt lat="41.961198" lon="13.3569157"><ele>1153.0</ele><time>2026-04-25T10:42:05.672Z</time></trkpt><trkpt lat="41.9610892" lon="13.3570541"><ele>1153.0</ele><time>2026-04-25T10:42:06.672Z</time></trkpt><trkpt lat="41.9609966" lon="13.3571789"><ele>1158.0</ele><time>2026-04-25T10:42:07.672Z</time></trkpt><trkpt lat="41.9609307" lon="13.3573031"><ele>1163.0</ele><time>2026-04-25T10:42:08.672Z</time></trkpt><trkpt lat="41.960879" lon="13.3574187"><ele>1168.0</ele><time>2026-04-25T10:42:09.673Z</time></trkpt><trkpt lat="41.9608121" lon="13.3575163"><ele>1173.0</ele><time>2026-04-25T10:42:10.672Z</time></trkpt><trkpt lat="41.9607354" lon="13.357619"><ele>1178.0</ele><time>2026-04-25T10:42:11.672Z</time></trkpt><trkpt lat="41.9606494" lon="13.3577028"><ele>1178.0</ele><time>2026-04-25T10:42:12.672Z</time></trkpt><trkpt lat="41.9605522" lon="13.3577988"><ele>1178.0</ele><time>2026-04-25T10:42:13.672Z</time></trkpt><trkpt lat="41.9604468" lon="13.3579161"><ele>1178.0</ele><time>2026-04-25T10:42:14.672Z</time></trkpt><trkpt lat="41.9603398" lon="13.3580513"><ele>1178.0</ele><time>2026-04-25T10:42:15.672Z</time></trkpt><trkpt lat="41.9602298" lon="13.3581948"><ele>1185.0</ele><time>2026-04-25T10:42:16.672Z</time></trkpt><trkpt lat="41.9601208" lon="13.3583411"><ele>1192.0</ele><time>2026-04-25T10:42:17.672Z</time></trkpt><trkpt lat="41.9600148" lon="13.358511"><ele>1199.0</ele><time>2026-04-25T10:42:18.672Z</time></trkpt><trkpt lat="41.959899" lon="13.3586786"><ele>1199.0</ele><time>2026-04-25T10:42:19.672Z</time></trkpt><trkpt lat="41.9597929" lon="13.3588492"><ele>1199.0</ele><time>2026-04-25T10:42:20.672Z</time></trkpt><trkpt lat="41.9596852" lon="13.3590072"><ele>1199.0</ele><time>2026-04-25T10:42:21.672Z</time></trkpt><trkpt lat="41.9595865" lon="13.359158"><ele>1194.0</ele><time>2026-04-25T10:42:22.672Z</time></trkpt><trkpt lat="41.9595064" lon="13.3592892"><ele>1189.0</ele><time>2026-04-25T10:42:23.672Z</time></trkpt><trkpt lat="41.9594449" lon="13.3594146"><ele>1184.0</ele><time>2026-04-25T10:42:24.672Z</time></trkpt><trkpt lat="41.9594111" lon="13.3595084"><ele>1179.0</ele><time>2026-04-25T10:42:25.672Z</time></trkpt><trkpt lat="41.9593803" lon="13.3596058"><ele>1174.0</ele><time>2026-04-25T10:42:26.672Z</time></trkpt><trkpt lat="41.9593275" lon="13.3596916"><ele>1177.75</ele><time>2026-04-25T10:42:27.672Z</time></trkpt><trkpt lat="41.959245" lon="13.3597803"><ele>1181.5</ele><time>2026-04-25T10:42:28.672Z</time></trkpt><trkpt lat="41.9591479" lon="13.3598665"><ele>1185.25</ele><time>2026-04-25T10:42:29.672Z</time></trkpt><trkpt lat="41.9590656" lon="13.3599931"><ele>1189.0</ele><time>2026-04-25T10:42:30.672Z</time></trkpt><trkpt lat="41.9589887" lon="13.3601057"><ele>1189.0</ele><time>2026-04-25T10:42:31.672Z</time></trkpt><trkpt lat="41.9589125" lon="13.3602144"><ele>1189.0</ele><time>2026-04-25T10:42:32.672Z</time></trkpt><trkpt lat="41.958829" lon="13.3602728"><ele>1189.0</ele><time>2026-04-25T10:42:33.672Z</time></trkpt><trkpt lat="41.9587288" lon="13.3603183"><ele>1189.0</ele><time>2026-04-25T10:42:34.672Z</time></trkpt><trkpt lat="41.9586233" lon="13.3603623"><ele>1189.0</ele><time>2026-04-25T10:42:35.672Z</time></trkpt><trkpt lat="41.9585171" lon="13.3604073"><ele>1189.0</ele><time>2026-04-25T10:42:36.673Z</time></trkpt><trkpt lat="41.9584085" lon="13.3604686"><ele>1189.0</ele><time>2026-04-25T10:42:37.672Z</time></trkpt><trkpt lat="41.9583016" lon="13.3605567"><ele>1189.0</ele><time>2026-04-25T10:42:38.672Z</time></trkpt><trkpt lat="41.9582024" lon="13.3606877"><ele>1189.0</ele><time>2026-04-25T10:42:39.673Z</time></trkpt><trkpt lat="41.9580919" lon="13.3608368"><ele>1190.6666666666665</ele><time>2026-04-25T10:42:40.672Z</time></trkpt><trkpt lat="41.9579711" lon="13.3609978"><ele>1192.3333333333333</ele><time>2026-04-25T10:42:41.672Z</time></trkpt><trkpt lat="41.957844" lon="13.361123"><ele>1194.0</ele><time>2026-04-25T10:42:42.672Z</time></trkpt><trkpt lat="41.9577144" lon="13.3612256"><ele>1194.0</ele><time>2026-04-25T10:42:43.672Z</time></trkpt><trkpt lat="41.9575866" lon="13.3613353"><ele>1194.0</ele><time>2026-04-25T10:42:44.672Z</time></trkpt><trkpt lat="41.9574613" lon="13.3614523"><ele>1194.0</ele><time>2026-04-25T10:42:45.672Z</time></trkpt><trkpt lat="41.9573278" lon="13.3615707"><ele>1196.5</ele><time>2026-04-25T10:42:46.672Z</time></trkpt><trkpt lat="41.9572108" lon="13.3616972"><ele>1199.0</ele><time>2026-04-25T10:42:47.673Z</time></trkpt><trkpt lat="41.9571176" lon="13.3618458"><ele>1201.5</ele><time>2026-04-25T10:42:48.672Z</time></trkpt><trkpt lat="41.9570335" lon="13.3619907"><ele>1204.0</ele><time>2026-04-25T10:42:49.672Z</time></trkpt><trkpt lat="41.956954" lon="13.3620984"><ele>1204.0</ele><time>2026-04-25T10:42:50.672Z</time></trkpt><trkpt lat="41.9568756" lon="13.3621929"><ele>1204.0</ele><time>2026-04-25T10:42:51.672Z</time></trkpt><trkpt lat="41.9567773" lon="13.3622737"><ele>1204.0</ele><time>2026-04-25T10:42:52.672Z</time></trkpt><trkpt lat="41.9566707" lon="13.362346"><ele>1204.0</ele><time>2026-04-25T10:42:53.672Z</time></trkpt><trkpt lat="41.9565411" lon="13.3624004"><ele>1205.0</ele><time>2026-04-25T10:42:54.673Z</time></trkpt><trkpt lat="41.9564227" lon="13.3624458"><ele>1206.0</ele><time>2026-04-25T10:42:55.672Z</time></trkpt><trkpt lat="41.9562901" lon="13.3624958"><ele>1207.0</ele><time>2026-04-25T10:42:56.672Z</time></trkpt><trkpt lat="41.9561575" lon="13.362564"><ele>1208.0</ele><time>2026-04-25T10:42:57.672Z</time></trkpt><trkpt lat="41.9560307" lon="13.3626475"><ele>1208.0</ele><time>2026-04-25T10:42:58.672Z</time></trkpt><trkpt lat="41.9559146" lon="13.3627273"><ele>1208.0</ele><time>2026-04-25T10:42:59.672Z</time></trkpt><trkpt lat="41.95581" lon="13.3628119"><ele>1208.0</ele><time>2026-04-25T10:43:00.672Z</time></trkpt><trkpt lat="41.9557123" lon="13.3629125"><ele>1208.0</ele><time>2026-04-25T10:43:01.672Z</time></trkpt><trkpt lat="41.9556298" lon="13.3630208"><ele>1210.0</ele><time>2026-04-25T10:43:02.672Z</time></trkpt><trkpt lat="41.9555397" lon="13.3631569"><ele>1212.0</ele><time>2026-04-25T10:43:03.672Z</time></trkpt><trkpt lat="41.9554554" lon="13.3633215"><ele>1214.0</ele><time>2026-04-25T10:43:04.673Z</time></trkpt><trkpt lat="41.9553789" lon="13.3634929"><ele>1216.0</ele><time>2026-04-25T10:43:05.672Z</time></trkpt><trkpt lat="41.9553216" lon="13.3636601"><ele>1216.0</ele><time>2026-04-25T10:43:06.672Z</time></trkpt><trkpt lat="41.9552571" lon="13.3638213"><ele>1216.0</ele><time>2026-04-25T10:43:07.672Z</time></trkpt><trkpt lat="41.9552001" lon="13.3639573"><ele>1216.0</ele><time>2026-04-25T10:43:08.672Z</time></trkpt><trkpt lat="41.9551359" lon="13.3640809"><ele>1216.0</ele><time>2026-04-25T10:43:09.672Z</time></trkpt><trkpt lat="41.9550514" lon="13.3641826"><ele>1221.5</ele><time>2026-04-25T10:43:10.672Z</time></trkpt><trkpt lat="41.954956" lon="13.364279"><ele>1227.0</ele><time>2026-04-25T10:43:11.672Z</time></trkpt><trkpt lat="41.9548482" lon="13.364357"><ele>1232.5</ele><time>2026-04-25T10:43:12.672Z</time></trkpt><trkpt lat="41.9547309" lon="13.3644398"><ele>1238.0</ele><time>2026-04-25T10:43:13.672Z</time></trkpt><trkpt lat="41.9546119" lon="13.3645217"><ele>1238.0</ele><time>2026-04-25T10:43:14.673Z</time></trkpt><trkpt lat="41.9545082" lon="13.3646064"><ele>1238.0</ele><time>2026-04-25T10:43:15.672Z</time></trkpt><trkpt lat="41.9544161" lon="13.3646973"><ele>1238.0</ele><time>2026-04-25T10:43:16.672Z</time></trkpt><trkpt lat="41.9543401" lon="13.3648159"><ele>1238.0</ele><time>2026-04-25T10:43:17.672Z</time></trkpt><trkpt lat="41.9542774" lon="13.3649619"><ele>1241.0</ele><time>2026-04-25T10:43:18.673Z</time></trkpt><trkpt lat="41.9542279" lon="13.3650993"><ele>1244.0</ele><time>2026-04-25T10:43:19.672Z</time></trkpt><trkpt lat="41.9541746" lon="13.3652153"><ele>1247.0</ele><time>2026-04-25T10:43:20.672Z</time></trkpt><trkpt lat="41.9541013" lon="13.3653228"><ele>1250.0</ele><time>2026-04-25T10:43:21.672Z</time></trkpt><trkpt lat="41.954016" lon="13.3653944"><ele>1253.0</ele><time>2026-04-25T10:43:22.672Z</time></trkpt><trkpt lat="41.9539218" lon="13.3654454"><ele>1253.0</ele><time>2026-04-25T10:43:23.672Z</time></trkpt><trkpt lat="41.9538217" lon="13.365502"><ele>1253.0</ele><time>2026-04-25T10:43:24.672Z</time></trkpt><trkpt lat="41.9537148" lon="13.3655698"><ele>1253.0</ele><time>2026-04-25T10:43:25.672Z</time></trkpt><trkpt lat="41.9536149" lon="13.3656478"><ele>1253.0</ele><time>2026-04-25T10:43:26.672Z</time></trkpt><trkpt lat="41.953517" lon="13.3657434"><ele>1255.5</ele><time>2026-04-25T10:43:27.672Z</time></trkpt><trkpt lat="41.9534413" lon="13.3658641"><ele>1258.0</ele><time>2026-04-25T10:43:28.672Z</time></trkpt><trkpt lat="41.9533791" lon="13.3660165"><ele>1260.5</ele><time>2026-04-25T10:43:29.672Z</time></trkpt><trkpt lat="41.9533314" lon="13.3661633"><ele>1263.0</ele><time>2026-04-25T10:43:30.672Z</time></trkpt><trkpt lat="41.9532802" lon="13.3663125"><ele>1254.5</ele><time>2026-04-25T10:43:31.672Z</time></trkpt><trkpt lat="41.9532098" lon="13.3664349"><ele>1246.0</ele><time>2026-04-25T10:43:32.672Z</time></trkpt><trkpt lat="41.9531186" lon="13.3665296"><ele>1237.5</ele><time>2026-04-25T10:43:33.672Z</time></trkpt><trkpt lat="41.9530002" lon="13.3666116"><ele>1229.0</ele><time>2026-04-25T10:43:34.672Z</time></trkpt><trkpt lat="41.9528788" lon="13.3666989"><ele>1229.0</ele><time>2026-04-25T10:43:35.672Z</time></trkpt><trkpt lat="41.9527521" lon="13.3667885"><ele>1229.0</ele><time>2026-04-25T10:43:36.672Z</time></trkpt><trkpt lat="41.9526294" lon="13.3668833"><ele>1229.0</ele><time>2026-04-25T10:43:37.672Z</time></trkpt><trkpt lat="41.9525155" lon="13.3669851"><ele>1229.0</ele><time>2026-04-25T10:43:38.672Z</time></trkpt><trkpt lat="41.9524106" lon="13.3670915"><ele>1233.75</ele><time>2026-04-25T10:43:39.672Z</time></trkpt><trkpt lat="41.9523145" lon="13.3672109"><ele>1238.5</ele><time>2026-04-25T10:43:40.672Z</time></trkpt><trkpt lat="41.9522402" lon="13.3673886"><ele>1243.25</ele><time>2026-04-25T10:43:41.672Z</time></trkpt><trkpt lat="41.9521842" lon="13.3675681"><ele>1248.0</ele><time>2026-04-25T10:43:42.672Z</time></trkpt><trkpt lat="41.9521407" lon="13.3677554"><ele>1248.0</ele><time>2026-04-25T10:43:43.672Z</time></trkpt><trkpt lat="41.9521129" lon="13.3679351"><ele>1248.0</ele><time>2026-04-25T10:43:44.672Z</time></trkpt><trkpt lat="41.9520956" lon="13.3681007"><ele>1248.0</ele><time>2026-04-25T10:43:45.672Z</time></trkpt><trkpt lat="41.9520636" lon="13.3682151"><ele>1248.0</ele><time>2026-04-25T10:43:46.673Z</time></trkpt><trkpt lat="41.9520093" lon="13.3682964"><ele>1248.0</ele><time>2026-04-25T10:43:47.672Z</time></trkpt><trkpt lat="41.9519272" lon="13.3683514"><ele>1251.0</ele><time>2026-04-25T10:43:48.672Z</time></trkpt><trkpt lat="41.9518298" lon="13.3683915"><ele>1254.0</ele><time>2026-04-25T10:43:49.672Z</time></trkpt><trkpt lat="41.9517163" lon="13.3684049"><ele>1257.0</ele><time>2026-04-25T10:43:50.672Z</time></trkpt><trkpt lat="41.9516016" lon="13.3684077"><ele>1260.0</ele><time>2026-04-25T10:43:51.672Z</time></trkpt><trkpt lat="41.9514786" lon="13.368395"><ele>1260.0</ele><time>2026-04-25T10:43:52.672Z</time></trkpt><trkpt lat="41.9513551" lon="13.3683728"><ele>1260.0</ele><time>2026-04-25T10:43:53.672Z</time></trkpt><trkpt lat="41.9512248" lon="13.3683385"><ele>1260.0</ele><time>2026-04-25T10:43:54.672Z</time></trkpt><trkpt lat="41.9510808" lon="13.3683016"><ele>1260.0</ele><time>2026-04-25T10:43:55.672Z</time></trkpt><trkpt lat="41.9509397" lon="13.3682724"><ele>1261.25</ele><time>2026-04-25T10:43:56.672Z</time></trkpt><trkpt lat="41.950788" lon="13.3682427"><ele>1262.5</ele><time>2026-04-25T10:43:57.672Z</time></trkpt><trkpt lat="41.9506382" lon="13.3682092"><ele>1263.75</ele><time>2026-04-25T10:43:58.672Z</time></trkpt><trkpt lat="41.9504993" lon="13.368183"><ele>1265.0</ele><time>2026-04-25T10:43:59.672Z</time></trkpt><trkpt lat="41.9503806" lon="13.3681568"><ele>1265.0</ele><time>2026-04-25T10:44:00.672Z</time></trkpt><trkpt lat="41.9502795" lon="13.3681353"><ele>1265.0</ele><time>2026-04-25T10:44:01.672Z</time></trkpt><trkpt lat="41.9501928" lon="13.3681034"><ele>1265.0</ele><time>2026-04-25T10:44:02.672Z</time></trkpt><trkpt lat="41.9501231" lon="13.3680767"><ele>1265.0</ele><time>2026-04-25T10:44:03.672Z</time></trkpt><trkpt lat="41.9500162" lon="13.368016"><ele>1265.0</ele><time>2026-04-25T10:44:05.672Z</time></trkpt><trkpt lat="41.9499663" lon="13.3678696"><ele>1265.8</ele><time>2026-04-25T10:44:07.672Z</time></trkpt><trkpt lat="41.9499611" lon="13.3677461"><ele>1266.6</ele><time>2026-04-25T10:44:08.672Z</time></trkpt><trkpt lat="41.9499746" lon="13.3675965"><ele>1267.4</ele><time>2026-04-25T10:44:09.672Z</time></trkpt><trkpt lat="41.9499929" lon="13.3674505"><ele>1268.2</ele><time>2026-04-25T10:44:10.672Z</time></trkpt><trkpt lat="41.9500199" lon="13.3672827"><ele>1269.0</ele><time>2026-04-25T10:44:11.672Z</time></trkpt><trkpt lat="41.9500525" lon="13.3671209"><ele>1277.0</ele><time>2026-04-25T10:44:12.672Z</time></trkpt><trkpt lat="41.9500989" lon="13.3669524"><ele>1285.0</ele><time>2026-04-25T10:44:13.672Z</time></trkpt><trkpt lat="41.9501676" lon="13.3667995"><ele>1293.0</ele><time>2026-04-25T10:44:14.672Z</time></trkpt><trkpt lat="41.9502658" lon="13.3666733"><ele>1301.0</ele><time>2026-04-25T10:44:15.672Z</time></trkpt><trkpt lat="41.9503657" lon="13.3665815"><ele>1301.0</ele><time>2026-04-25T10:44:16.672Z</time></trkpt><trkpt lat="41.9504725" lon="13.3664891"><ele>1301.0</ele><time>2026-04-25T10:44:17.673Z</time></trkpt><trkpt lat="41.9505714" lon="13.3663855"><ele>1301.0</ele><time>2026-04-25T10:44:18.672Z</time></trkpt><trkpt lat="41.9506531" lon="13.3662507"><ele>1301.0</ele><time>2026-04-25T10:44:19.672Z</time></trkpt><trkpt lat="41.9507195" lon="13.3661001"><ele>1304.6666666666667</ele><time>2026-04-25T10:44:20.672Z</time></trkpt><trkpt lat="41.9507786" lon="13.3659204"><ele>1308.3333333333333</ele><time>2026-04-25T10:44:21.672Z</time></trkpt><trkpt lat="41.9508397" lon="13.3657359"><ele>1312.0</ele><time>2026-04-25T10:44:22.672Z</time></trkpt><trkpt lat="41.9509022" lon="13.3655301"><ele>1310.0</ele><time>2026-04-25T10:44:23.672Z</time></trkpt><trkpt lat="41.9509716" lon="13.3653194"><ele>1308.0</ele><time>2026-04-25T10:44:24.672Z</time></trkpt><trkpt lat="41.9510363" lon="13.3651224"><ele>1306.0</ele><time>2026-04-25T10:44:25.672Z</time></trkpt><trkpt lat="41.9511037" lon="13.3649392"><ele>1306.0</ele><time>2026-04-25T10:44:26.672Z</time></trkpt><trkpt lat="41.9511649" lon="13.3647674"><ele>1306.0</ele><time>2026-04-25T10:44:27.672Z</time></trkpt><trkpt lat="41.9512302" lon="13.3646279"><ele>1306.0</ele><time>2026-04-25T10:44:28.672Z</time></trkpt><trkpt lat="41.9513033" lon="13.3645122"><ele>1306.0</ele><time>2026-04-25T10:44:29.672Z</time></trkpt><trkpt lat="41.9513951" lon="13.3644154"><ele>1303.75</ele><time>2026-04-25T10:44:30.672Z</time></trkpt><trkpt lat="41.9515044" lon="13.3643285"><ele>1301.5</ele><time>2026-04-25T10:44:31.672Z</time></trkpt><trkpt lat="41.9516283" lon="13.3642435"><ele>1299.25</ele><time>2026-04-25T10:44:32.672Z</time></trkpt><trkpt lat="41.9517572" lon="13.3641481"><ele>1297.0</ele><time>2026-04-25T10:44:33.672Z</time></trkpt><trkpt lat="41.9518924" lon="13.3640364"><ele>1299.0</ele><time>2026-04-25T10:44:34.672Z</time></trkpt><trkpt lat="41.9520201" lon="13.3639092"><ele>1301.0</ele><time>2026-04-25T10:44:35.672Z</time></trkpt><trkpt lat="41.9521478" lon="13.3637786"><ele>1303.0</ele><time>2026-04-25T10:44:36.672Z</time></trkpt><trkpt lat="41.9522726" lon="13.3636323"><ele>1303.0</ele><time>2026-04-25T10:44:37.672Z</time></trkpt><trkpt lat="41.9523847" lon="13.3634785"><ele>1303.0</ele><time>2026-04-25T10:44:38.672Z</time></trkpt><trkpt lat="41.9524838" lon="13.3633113"><ele>1303.0</ele><time>2026-04-25T10:44:39.672Z</time></trkpt><trkpt lat="41.9525701" lon="13.3631365"><ele>1309.5</ele><time>2026-04-25T10:44:40.672Z</time></trkpt><trkpt lat="41.952647" lon="13.3629573"><ele>1316.0</ele><time>2026-04-25T10:44:41.672Z</time></trkpt><trkpt lat="41.9527044" lon="13.3627832"><ele>1322.5</ele><time>2026-04-25T10:44:42.672Z</time></trkpt><trkpt lat="41.9527485" lon="13.3626171"><ele>1329.0</ele><time>2026-04-25T10:44:43.672Z</time></trkpt><trkpt lat="41.9527801" lon="13.3624519"><ele>1329.0</ele><time>2026-04-25T10:44:44.672Z</time></trkpt><trkpt lat="41.9527985" lon="13.362285"><ele>1329.0</ele><time>2026-04-25T10:44:45.672Z</time></trkpt><trkpt lat="41.952792" lon="13.3621207"><ele>1329.0</ele><time>2026-04-25T10:44:46.672Z</time></trkpt><trkpt lat="41.9527629" lon="13.3619675"><ele>1329.0</ele><time>2026-04-25T10:44:47.672Z</time></trkpt><trkpt lat="41.952709" lon="13.3618297"><ele>1329.25</ele><time>2026-04-25T10:44:48.672Z</time></trkpt><trkpt lat="41.9526397" lon="13.3617125"><ele>1329.5</ele><time>2026-04-25T10:44:49.672Z</time></trkpt><trkpt lat="41.9525556" lon="13.3616079"><ele>1329.75</ele><time>2026-04-25T10:44:50.672Z</time></trkpt><trkpt lat="41.9524608" lon="13.3615076"><ele>1330.0</ele><time>2026-04-25T10:44:51.672Z</time></trkpt><trkpt lat="41.9523642" lon="13.3614152"><ele>1328.25</ele><time>2026-04-25T10:44:52.672Z</time></trkpt><trkpt lat="41.952265" lon="13.3613127"><ele>1326.5</ele><time>2026-04-25T10:44:53.672Z</time></trkpt><trkpt lat="41.9521727" lon="13.3612003"><ele>1324.75</ele><time>2026-04-25T10:44:54.672Z</time></trkpt><trkpt lat="41.952085" lon="13.3610824"><ele>1323.0</ele><time>2026-04-25T10:44:55.672Z</time></trkpt><trkpt lat="41.952007" lon="13.360936"><ele>1323.0</ele><time>2026-04-25T10:44:56.672Z</time></trkpt><trkpt lat="41.9519333" lon="13.3607774"><ele>1323.0</ele><time>2026-04-25T10:44:57.672Z</time></trkpt><trkpt lat="41.9518684" lon="13.3606075"><ele>1323.0</ele><time>2026-04-25T10:44:58.672Z</time></trkpt><trkpt lat="41.951809" lon="13.3604407"><ele>1323.0</ele><time>2026-04-25T10:44:59.672Z</time></trkpt><trkpt lat="41.9517474" lon="13.3602881"><ele>1323.8333333333333</ele><time>2026-04-25T10:45:00.672Z</time></trkpt><trkpt lat="41.951692" lon="13.3601556"><ele>1324.6666666666667</ele><time>2026-04-25T10:45:01.672Z</time></trkpt><trkpt lat="41.9516363" lon="13.3600426"><ele>1325.5</ele><time>2026-04-25T10:45:02.672Z</time></trkpt><trkpt lat="41.9515883" lon="13.3599432"><ele>1326.3333333333335</ele><time>2026-04-25T10:45:03.672Z</time></trkpt><trkpt lat="41.95155" lon="13.3598561"><ele>1327.1666666666667</ele><time>2026-04-25T10:45:04.672Z</time></trkpt><trkpt lat="41.9515336" lon="13.3597645"><ele>1328.0</ele><time>2026-04-25T10:45:05.672Z</time></trkpt><trkpt lat="41.9515824" lon="13.3596276"><ele>1330.6000000000001</ele><time>2026-04-25T10:45:07.672Z</time></trkpt><trkpt lat="41.9516501" lon="13.3596"><ele>1333.2</ele><time>2026-04-25T10:45:08.672Z</time></trkpt><trkpt lat="41.9517381" lon="13.3596354"><ele>1335.8</ele><time>2026-04-25T10:45:09.672Z</time></trkpt><trkpt lat="41.9518148" lon="13.359706"><ele>1338.4</ele><time>2026-04-25T10:45:10.672Z</time></trkpt><trkpt lat="41.9518861" lon="13.3598233"><ele>1341.0</ele><time>2026-04-25T10:45:11.672Z</time></trkpt><trkpt lat="41.9519624" lon="13.3599532"><ele>1341.0</ele><time>2026-04-25T10:45:12.672Z</time></trkpt><trkpt lat="41.9520541" lon="13.3600903"><ele>1341.0</ele><time>2026-04-25T10:45:13.672Z</time></trkpt><trkpt lat="41.9521469" lon="13.360208"><ele>1341.0</ele><time>2026-04-25T10:45:14.672Z</time></trkpt><trkpt lat="41.9522525" lon="13.3603049"><ele>1341.0</ele><time>2026-04-25T10:45:15.672Z</time></trkpt><trkpt lat="41.9523702" lon="13.3603738"><ele>1341.0</ele><time>2026-04-25T10:45:16.672Z</time></trkpt><trkpt lat="41.9524978" lon="13.3604129"><ele>1341.0</ele><time>2026-04-25T10:45:17.672Z</time></trkpt><trkpt lat="41.9526295" lon="13.3604453"><ele>1341.0</ele><time>2026-04-25T10:45:18.672Z</time></trkpt><trkpt lat="41.9527626" lon="13.3604758"><ele>1341.0</ele><time>2026-04-25T10:45:19.672Z</time></trkpt><trkpt lat="41.9528947" lon="13.3605149"><ele>1340.0</ele><time>2026-04-25T10:45:20.672Z</time></trkpt><trkpt lat="41.9530189" lon="13.3605576"><ele>1339.0</ele><time>2026-04-25T10:45:21.672Z</time></trkpt><trkpt lat="41.9531358" lon="13.3606277"><ele>1338.0</ele><time>2026-04-25T10:45:22.672Z</time></trkpt><trkpt lat="41.9532427" lon="13.3607212"><ele>1337.0</ele><time>2026-04-25T10:45:23.672Z</time></trkpt><trkpt lat="41.9533412" lon="13.360807"><ele>1341.8333333333335</ele><time>2026-04-25T10:45:24.672Z</time></trkpt><trkpt lat="41.9534244" lon="13.3608982"><ele>1346.6666666666667</ele><time>2026-04-25T10:45:25.672Z</time></trkpt><trkpt lat="41.95351" lon="13.3609686"><ele>1351.5</ele><time>2026-04-25T10:45:26.672Z</time></trkpt><trkpt lat="41.9535869" lon="13.3610054"><ele>1356.3333333333333</ele><time>2026-04-25T10:45:27.672Z</time></trkpt><trkpt lat="41.953666" lon="13.3609791"><ele>1361.1666666666665</ele><time>2026-04-25T10:45:28.672Z</time></trkpt><trkpt lat="41.9537199" lon="13.3609174"><ele>1366.0</ele><time>2026-04-25T10:45:29.673Z</time></trkpt><trkpt lat="41.9537326" lon="13.3608147"><ele>1366.0</ele><time>2026-04-25T10:45:30.672Z</time></trkpt><trkpt lat="41.953707" lon="13.3607081"><ele>1366.0</ele><time>2026-04-25T10:45:31.672Z</time></trkpt><trkpt lat="41.9536697" lon="13.3606103"><ele>1366.0</ele><time>2026-04-25T10:45:32.672Z</time></trkpt><trkpt lat="41.9536086" lon="13.3605153"><ele>1366.0</ele><time>2026-04-25T10:45:33.672Z</time></trkpt><trkpt lat="41.9535353" lon="13.3604283"><ele>1366.0</ele><time>2026-04-25T10:45:34.672Z</time></trkpt><trkpt lat="41.953456" lon="13.360336"><ele>1363.25</ele><time>2026-04-25T10:45:35.672Z</time></trkpt><trkpt lat="41.9533668" lon="13.3602364"><ele>1360.5</ele><time>2026-04-25T10:45:36.672Z</time></trkpt><trkpt lat="41.9532681" lon="13.3601367"><ele>1357.75</ele><time>2026-04-25T10:45:37.672Z</time></trkpt><trkpt lat="41.953156" lon="13.3600291"><ele>1355.0</ele><time>2026-04-25T10:45:38.672Z</time></trkpt><trkpt lat="41.9530485" lon="13.3599244"><ele>1355.0</ele><time>2026-04-25T10:45:39.672Z</time></trkpt><trkpt lat="41.9529357" lon="13.3598205"><ele>1355.0</ele><time>2026-04-25T10:45:40.672Z</time></trkpt><trkpt lat="41.9528312" lon="13.3597109"><ele>1355.0</ele><time>2026-04-25T10:45:41.672Z</time></trkpt><trkpt lat="41.9527298" lon="13.3595845"><ele>1355.0</ele><time>2026-04-25T10:45:42.672Z</time></trkpt><trkpt lat="41.9526345" lon="13.3594542"><ele>1355.5</ele><time>2026-04-25T10:45:43.672Z</time></trkpt><trkpt lat="41.9525465" lon="13.359312"><ele>1356.0</ele><time>2026-04-25T10:45:44.672Z</time></trkpt><trkpt lat="41.9524785" lon="13.3591629"><ele>1356.5</ele><time>2026-04-25T10:45:45.672Z</time></trkpt><trkpt lat="41.9524154" lon="13.3590146"><ele>1357.0</ele><time>2026-04-25T10:45:46.672Z</time></trkpt><trkpt lat="41.9523439" lon="13.3588863"><ele>1360.25</ele><time>2026-04-25T10:45:47.673Z</time></trkpt><trkpt lat="41.9522567" lon="13.3587676"><ele>1363.5</ele><time>2026-04-25T10:45:48.672Z</time></trkpt><trkpt lat="41.9521664" lon="13.3586731"><ele>1366.75</ele><time>2026-04-25T10:45:49.672Z</time></trkpt><trkpt lat="41.9520736" lon="13.3585971"><ele>1370.0</ele><time>2026-04-25T10:45:50.672Z</time></trkpt><trkpt lat="41.9519796" lon="13.3585368"><ele>1370.0</ele><time>2026-04-25T10:45:51.672Z</time></trkpt><trkpt lat="41.9519098" lon="13.3584766"><ele>1370.0</ele><time>2026-04-25T10:45:52.672Z</time></trkpt><trkpt lat="41.9518889" lon="13.3583951"><ele>1370.0</ele><time>2026-04-25T10:45:53.672Z</time></trkpt><trkpt lat="41.9519123" lon="13.3582839"><ele>1370.0</ele><time>2026-04-25T10:45:54.672Z</time></trkpt><trkpt lat="41.9519698" lon="13.3581811"><ele>1370.0</ele><time>2026-04-25T10:45:55.672Z</time></trkpt><trkpt lat="41.9520509" lon="13.3580699"><ele>1370.0</ele><time>2026-04-25T10:45:56.672Z</time></trkpt><trkpt lat="41.9521254" lon="13.3579363"><ele>1370.0</ele><time>2026-04-25T10:45:57.672Z</time></trkpt><trkpt lat="41.9522145" lon="13.3577873"><ele>1370.0</ele><time>2026-04-25T10:45:58.673Z</time></trkpt><trkpt lat="41.9523148" lon="13.3576338"><ele>1370.0</ele><time>2026-04-25T10:45:59.672Z</time></trkpt><trkpt lat="41.9524203" lon="13.3574775"><ele>1370.0</ele><time>2026-04-25T10:46:00.672Z</time></trkpt><trkpt lat="41.9525276" lon="13.3573061"><ele>1370.0</ele><time>2026-04-25T10:46:01.672Z</time></trkpt><trkpt lat="41.9526267" lon="13.3571353"><ele>1370.0</ele><time>2026-04-25T10:46:02.672Z</time></trkpt><trkpt lat="41.9527178" lon="13.3569517"><ele>1377.3333333333335</ele><time>2026-04-25T10:46:03.672Z</time></trkpt><trkpt lat="41.9528081" lon="13.3567558"><ele>1384.6666666666667</ele><time>2026-04-25T10:46:04.672Z</time></trkpt><trkpt lat="41.9528969" lon="13.3565519"><ele>1392.0</ele><time>2026-04-25T10:46:05.672Z</time></trkpt><trkpt lat="41.9529825" lon="13.3563666"><ele>1392.0</ele><time>2026-04-25T10:46:06.672Z</time></trkpt><trkpt lat="41.9530615" lon="13.3561984"><ele>1392.0</ele><time>2026-04-25T10:46:07.672Z</time></trkpt><trkpt lat="41.9531421" lon="13.3560413"><ele>1392.0</ele><time>2026-04-25T10:46:08.672Z</time></trkpt><trkpt lat="41.95323" lon="13.3558856"><ele>1392.0</ele><time>2026-04-25T10:46:09.672Z</time></trkpt><trkpt lat="41.953318" lon="13.3557368"><ele>1398.25</ele><time>2026-04-25T10:46:10.672Z</time></trkpt><trkpt lat="41.9534042" lon="13.3555947"><ele>1404.5</ele><time>2026-04-25T10:46:11.672Z</time></trkpt><trkpt lat="41.953488" lon="13.3554559"><ele>1410.75</ele><time>2026-04-25T10:46:12.672Z</time></trkpt><trkpt lat="41.9535573" lon="13.355306"><ele>1417.0</ele><time>2026-04-25T10:46:13.673Z</time></trkpt><trkpt lat="41.9535988" lon="13.3551535"><ele>1417.0</ele><time>2026-04-25T10:46:14.672Z</time></trkpt><trkpt lat="41.9536195" lon="13.3549984"><ele>1417.0</ele><time>2026-04-25T10:46:15.672Z</time></trkpt><trkpt lat="41.9536164" lon="13.3548297"><ele>1417.0</ele><time>2026-04-25T10:46:16.672Z</time></trkpt><trkpt lat="41.9536082" lon="13.3546599"><ele>1417.0</ele><time>2026-04-25T10:46:17.672Z</time></trkpt><trkpt lat="41.9535802" lon="13.3544905"><ele>1417.0</ele><time>2026-04-25T10:46:18.672Z</time></trkpt><trkpt lat="41.9535363" lon="13.3542977"><ele>1417.0</ele><time>2026-04-25T10:46:19.672Z</time></trkpt><trkpt lat="41.9535022" lon="13.3541314"><ele>1417.0</ele><time>2026-04-25T10:46:20.672Z</time></trkpt><trkpt lat="41.9534631" lon="13.3539784"><ele>1417.0</ele><time>2026-04-25T10:46:21.672Z</time></trkpt><trkpt lat="41.9534139" lon="13.3538435"><ele>1412.25</ele><time>2026-04-25T10:46:22.672Z</time></trkpt><trkpt lat="41.9533314" lon="13.3537344"><ele>1407.5</ele><time>2026-04-25T10:46:23.672Z</time></trkpt><trkpt lat="41.9532372" lon="13.3536305"><ele>1402.75</ele><time>2026-04-25T10:46:24.672Z</time></trkpt><trkpt lat="41.9531266" lon="13.3535501"><ele>1398.0</ele><time>2026-04-25T10:46:25.672Z</time></trkpt><trkpt lat="41.9530087" lon="13.353485"><ele>1398.0</ele><time>2026-04-25T10:46:26.672Z</time></trkpt><trkpt lat="41.952884" lon="13.3534196"><ele>1398.0</ele><time>2026-04-25T10:46:27.672Z</time></trkpt><trkpt lat="41.9527599" lon="13.3533564"><ele>1398.0</ele><time>2026-04-25T10:46:28.672Z</time></trkpt><trkpt lat="41.9526402" lon="13.3532949"><ele>1398.0</ele><time>2026-04-25T10:46:29.672Z</time></trkpt><trkpt lat="41.9525303" lon="13.3532252"><ele>1398.0</ele><time>2026-04-25T10:46:30.672Z</time></trkpt><trkpt lat="41.9524298" lon="13.3531528"><ele>1398.0</ele><time>2026-04-25T10:46:31.672Z</time></trkpt><trkpt lat="41.9523303" lon="13.3531045"><ele>1398.0</ele><time>2026-04-25T10:46:32.672Z</time></trkpt><trkpt lat="41.9522536" lon="13.3530611"><ele>1398.0</ele><time>2026-04-25T10:46:33.672Z</time></trkpt><trkpt lat="41.952165" lon="13.3530249"><ele>1398.0</ele><time>2026-04-25T10:46:34.672Z</time></trkpt><trkpt lat="41.9520753" lon="13.353009"><ele>1398.0</ele><time>2026-04-25T10:46:35.672Z</time></trkpt><trkpt lat="41.9519998" lon="13.3530211"><ele>1398.0</ele><time>2026-04-25T10:46:36.672Z</time></trkpt><trkpt lat="41.9519316" lon="13.3530541"><ele>1398.0</ele><time>2026-04-25T10:46:37.672Z</time></trkpt><trkpt lat="41.9518651" lon="13.3531062"><ele>1398.0</ele><time>2026-04-25T10:46:38.672Z</time></trkpt><trkpt lat="41.9517986" lon="13.3531835"><ele>1398.0</ele><time>2026-04-25T10:46:39.672Z</time></trkpt><trkpt lat="41.9517241" lon="13.3533079"><ele>1398.0</ele><time>2026-04-25T10:46:40.672Z</time></trkpt><trkpt lat="41.9516537" lon="13.3534205"><ele>1398.75</ele><time>2026-04-25T10:46:41.672Z</time></trkpt><trkpt lat="41.9515886" lon="13.3535405"><ele>1399.5</ele><time>2026-04-25T10:46:42.672Z</time></trkpt><trkpt lat="41.9515124" lon="13.3536965"><ele>1400.25</ele><time>2026-04-25T10:46:43.672Z</time></trkpt><trkpt lat="41.9514495" lon="13.3538381"><ele>1401.0</ele><time>2026-04-25T10:46:44.672Z</time></trkpt><trkpt lat="41.9513942" lon="13.3539649"><ele>1401.0</ele><time>2026-04-25T10:46:45.672Z</time></trkpt><trkpt lat="41.9513404" lon="13.3541046"><ele>1401.0</ele><time>2026-04-25T10:46:46.672Z</time></trkpt><trkpt lat="41.9512804" lon="13.3542164"><ele>1401.0</ele><time>2026-04-25T10:46:47.672Z</time></trkpt><trkpt lat="41.9512087" lon="13.3543133"><ele>1401.0</ele><time>2026-04-25T10:46:48.672Z</time></trkpt><trkpt lat="41.951138" lon="13.3543811"><ele>1401.0</ele><time>2026-04-25T10:46:49.672Z</time></trkpt><trkpt lat="41.9510609" lon="13.3544365"><ele>1401.0</ele><time>2026-04-25T10:46:50.672Z</time></trkpt><trkpt lat="41.9509814" lon="13.3545004"><ele>1401.0</ele><time>2026-04-25T10:46:51.672Z</time></trkpt><trkpt lat="41.9509029" lon="13.3545664"><ele>1401.0</ele><time>2026-04-25T10:46:52.672Z</time></trkpt><trkpt lat="41.9508273" lon="13.3546526"><ele>1401.0</ele><time>2026-04-25T10:46:53.672Z</time></trkpt><trkpt lat="41.9507474" lon="13.3547589"><ele>1401.0</ele><time>2026-04-25T10:46:54.672Z</time></trkpt><trkpt lat="41.9506633" lon="13.3548808"><ele>1402.8</ele><time>2026-04-25T10:46:55.672Z</time></trkpt><trkpt lat="41.9505789" lon="13.3549708"><ele>1404.6</ele><time>2026-04-25T10:46:56.672Z</time></trkpt><trkpt lat="41.9504879" lon="13.3550404"><ele>1406.4</ele><time>2026-04-25T10:46:57.672Z</time></trkpt><trkpt lat="41.9503832" lon="13.355074"><ele>1408.2</ele><time>2026-04-25T10:46:58.672Z</time></trkpt><trkpt lat="41.950257" lon="13.3550914"><ele>1410.0</ele><time>2026-04-25T10:46:59.672Z</time></trkpt><trkpt lat="41.9501328" lon="13.3550934"><ele>1414.0</ele><time>2026-04-25T10:47:00.672Z</time></trkpt><trkpt lat="41.950005" lon="13.3550831"><ele>1418.0</ele><time>2026-04-25T10:47:01.672Z</time></trkpt><trkpt lat="41.9498777" lon="13.3550601"><ele>1422.0</ele><time>2026-04-25T10:47:02.672Z</time></trkpt><trkpt lat="41.9497638" lon="13.3550337"><ele>1426.0</ele><time>2026-04-25T10:47:03.672Z</time></trkpt><trkpt lat="41.9496643" lon="13.3549775"><ele>1426.0</ele><time>2026-04-25T10:47:04.672Z</time></trkpt><trkpt lat="41.9495791" lon="13.3549026"><ele>1426.0</ele><time>2026-04-25T10:47:05.672Z</time></trkpt><trkpt lat="41.9495063" lon="13.354794"><ele>1426.0</ele><time>2026-04-25T10:47:06.673Z</time></trkpt><trkpt lat="41.9494375" lon="13.354696"><ele>1426.0</ele><time>2026-04-25T10:47:07.672Z</time></trkpt><trkpt lat="41.9493711" lon="13.3546091"><ele>1426.0</ele><time>2026-04-25T10:47:08.672Z</time></trkpt><trkpt lat="41.9492986" lon="13.3545459"><ele>1428.8</ele><time>2026-04-25T10:47:09.672Z</time></trkpt><trkpt lat="41.9492111" lon="13.3545061"><ele>1431.6</ele><time>2026-04-25T10:47:10.672Z</time></trkpt><trkpt lat="41.9491225" lon="13.3544923"><ele>1434.4</ele><time>2026-04-25T10:47:11.672Z</time></trkpt><trkpt lat="41.9490251" lon="13.3545039"><ele>1437.2</ele><time>2026-04-25T10:47:12.672Z</time></trkpt><trkpt lat="41.9489251" lon="13.3545308"><ele>1440.0</ele><time>2026-04-25T10:47:13.672Z</time></trkpt><trkpt lat="41.9488319" lon="13.3545719"><ele>1441.0</ele><time>2026-04-25T10:47:14.672Z</time></trkpt><trkpt lat="41.9487447" lon="13.3546262"><ele>1442.0</ele><time>2026-04-25T10:47:15.672Z</time></trkpt><trkpt lat="41.9486606" lon="13.3547012"><ele>1443.0</ele><time>2026-04-25T10:47:16.672Z</time></trkpt><trkpt lat="41.9485738" lon="13.3548154"><ele>1444.0</ele><time>2026-04-25T10:47:17.672Z</time></trkpt><trkpt lat="41.9484958" lon="13.3549509"><ele>1445.0</ele><time>2026-04-25T10:47:18.672Z</time></trkpt><trkpt lat="41.9484467" lon="13.3551136"><ele>1444.75</ele><time>2026-04-25T10:47:19.672Z</time></trkpt><trkpt lat="41.948405" lon="13.3552818"><ele>1444.5</ele><time>2026-04-25T10:47:20.672Z</time></trkpt><trkpt lat="41.9483626" lon="13.3554382"><ele>1444.25</ele><time>2026-04-25T10:47:21.672Z</time></trkpt><trkpt lat="41.9483158" lon="13.3556256"><ele>1444.0</ele><time>2026-04-25T10:47:22.672Z</time></trkpt><trkpt lat="41.9482723" lon="13.3557835"><ele>1444.0</ele><time>2026-04-25T10:47:23.672Z</time></trkpt><trkpt lat="41.9482193" lon="13.3559207"><ele>1444.0</ele><time>2026-04-25T10:47:24.672Z</time></trkpt><trkpt lat="41.9481623" lon="13.356032"><ele>1444.0</ele><time>2026-04-25T10:47:25.672Z</time></trkpt><trkpt lat="41.94807" lon="13.3561224"><ele>1444.0</ele><time>2026-04-25T10:47:26.672Z</time></trkpt><trkpt lat="41.9479747" lon="13.3561833"><ele>1444.0</ele><time>2026-04-25T10:47:27.673Z</time></trkpt><trkpt lat="41.9478608" lon="13.3562133"><ele>1444.0</ele><time>2026-04-25T10:47:28.672Z</time></trkpt><trkpt lat="41.9477607" lon="13.3562542"><ele>1444.0</ele><time>2026-04-25T10:47:29.672Z</time></trkpt><trkpt lat="41.9476592" lon="13.3563171"><ele>1444.0</ele><time>2026-04-25T10:47:30.672Z</time></trkpt><trkpt lat="41.9475601" lon="13.3563915"><ele>1444.0</ele><time>2026-04-25T10:47:31.672Z</time></trkpt><trkpt lat="41.9474669" lon="13.3564866"><ele>1444.0</ele><time>2026-04-25T10:47:32.672Z</time></trkpt><trkpt lat="41.9473909" lon="13.3566423"><ele>1443.0</ele><time>2026-04-25T10:47:33.672Z</time></trkpt><trkpt lat="41.9473361" lon="13.3567899"><ele>1442.0</ele><time>2026-04-25T10:47:34.672Z</time></trkpt><trkpt lat="41.9473058" lon="13.356946"><ele>1441.0</ele><time>2026-04-25T10:47:35.672Z</time></trkpt><trkpt lat="41.9472463" lon="13.3571246"><ele>1440.0</ele><time>2026-04-25T10:47:36.672Z</time></trkpt><trkpt lat="41.9471643" lon="13.3572871"><ele>1440.0</ele><time>2026-04-25T10:47:37.672Z</time></trkpt><trkpt lat="41.9470811" lon="13.3574184"><ele>1440.0</ele><time>2026-04-25T10:47:38.672Z</time></trkpt><trkpt lat="41.9469849" lon="13.3575271"><ele>1440.0</ele><time>2026-04-25T10:47:39.673Z</time></trkpt><trkpt lat="41.9468717" lon="13.3575995"><ele>1440.0</ele><time>2026-04-25T10:47:40.672Z</time></trkpt><trkpt lat="41.9467519" lon="13.3576552"><ele>1447.75</ele><time>2026-04-25T10:47:41.672Z</time></trkpt><trkpt lat="41.9466257" lon="13.3577177"><ele>1455.5</ele><time>2026-04-25T10:47:42.672Z</time></trkpt><trkpt lat="41.9465046" lon="13.3577935"><ele>1463.25</ele><time>2026-04-25T10:47:43.672Z</time></trkpt><trkpt lat="41.9463935" lon="13.3578735"><ele>1471.0</ele><time>2026-04-25T10:47:44.672Z</time></trkpt><trkpt lat="41.9462853" lon="13.3579689"><ele>1464.75</ele><time>2026-04-25T10:47:45.672Z</time></trkpt><trkpt lat="41.9461821" lon="13.3580792"><ele>1458.5</ele><time>2026-04-25T10:47:46.672Z</time></trkpt><trkpt lat="41.9460841" lon="13.3582167"><ele>1452.25</ele><time>2026-04-25T10:47:47.672Z</time></trkpt><trkpt lat="41.9460006" lon="13.3583595"><ele>1446.0</ele><time>2026-04-25T10:47:48.672Z</time></trkpt><trkpt lat="41.9459297" lon="13.3585237"><ele>1451.75</ele><time>2026-04-25T10:47:49.672Z</time></trkpt><trkpt lat="41.9458683" lon="13.3586897"><ele>1457.5</ele><time>2026-04-25T10:47:50.672Z</time></trkpt><trkpt lat="41.9457896" lon="13.3588676"><ele>1463.25</ele><time>2026-04-25T10:47:51.672Z</time></trkpt><trkpt lat="41.9457097" lon="13.3590256"><ele>1469.0</ele><time>2026-04-25T10:47:52.672Z</time></trkpt><trkpt lat="41.9456183" lon="13.3591854"><ele>1469.0</ele><time>2026-04-25T10:47:53.672Z</time></trkpt><trkpt lat="41.9455228" lon="13.3593467"><ele>1469.0</ele><time>2026-04-25T10:47:54.672Z</time></trkpt><trkpt lat="41.9454176" lon="13.3595166"><ele>1469.0</ele><time>2026-04-25T10:47:55.672Z</time></trkpt><trkpt lat="41.9453178" lon="13.3596912"><ele>1462.3333333333335</ele><time>2026-04-25T10:47:56.672Z</time></trkpt><trkpt lat="41.9452169" lon="13.3598688"><ele>1455.6666666666667</ele><time>2026-04-25T10:47:57.672Z</time></trkpt><trkpt lat="41.9451147" lon="13.3600517"><ele>1449.0</ele><time>2026-04-25T10:47:58.672Z</time></trkpt><trkpt lat="41.9450116" lon="13.3602259"><ele>1457.0</ele><time>2026-04-25T10:47:59.672Z</time></trkpt><trkpt lat="41.9449022" lon="13.3604133"><ele>1465.0</ele><time>2026-04-25T10:48:00.672Z</time></trkpt><trkpt lat="41.9448155" lon="13.3606048"><ele>1473.0</ele><time>2026-04-25T10:48:01.672Z</time></trkpt><trkpt lat="41.9447375" lon="13.3608025"><ele>1473.0</ele><time>2026-04-25T10:48:02.672Z</time></trkpt><trkpt lat="41.9446669" lon="13.3609899"><ele>1473.0</ele><time>2026-04-25T10:48:03.673Z</time></trkpt><trkpt lat="41.9446049" lon="13.3611688"><ele>1473.0</ele><time>2026-04-25T10:48:04.672Z</time></trkpt><trkpt lat="41.9445419" lon="13.3613267"><ele>1473.0</ele><time>2026-04-25T10:48:05.673Z</time></trkpt><trkpt lat="41.944474" lon="13.3614629"><ele>1469.8000000000002</ele><time>2026-04-25T10:48:06.672Z</time></trkpt><trkpt lat="41.9443988" lon="13.3615794"><ele>1466.6</ele><time>2026-04-25T10:48:07.672Z</time></trkpt><trkpt lat="41.944323" lon="13.3616773"><ele>1463.4</ele><time>2026-04-25T10:48:08.672Z</time></trkpt><trkpt lat="41.9442275" lon="13.3617418"><ele>1460.1999999999998</ele><time>2026-04-25T10:48:09.672Z</time></trkpt><trkpt lat="41.9441341" lon="13.3618054"><ele>1457.0</ele><time>2026-04-25T10:48:10.672Z</time></trkpt><trkpt lat="41.9440314" lon="13.3618576"><ele>1460.0</ele><time>2026-04-25T10:48:11.673Z</time></trkpt><trkpt lat="41.9439152" lon="13.3619206"><ele>1463.0</ele><time>2026-04-25T10:48:12.672Z</time></trkpt><trkpt lat="41.9437952" lon="13.3620112"><ele>1466.0</ele><time>2026-04-25T10:48:13.672Z</time></trkpt><trkpt lat="41.9436848" lon="13.3621121"><ele>1469.0</ele><time>2026-04-25T10:48:14.672Z</time></trkpt><trkpt lat="41.943587" lon="13.3622221"><ele>1469.0</ele><time>2026-04-25T10:48:15.672Z</time></trkpt><trkpt lat="41.9434883" lon="13.3623198"><ele>1469.0</ele><time>2026-04-25T10:48:16.672Z</time></trkpt><trkpt lat="41.943377" lon="13.3624123"><ele>1469.0</ele><time>2026-04-25T10:48:17.672Z</time></trkpt><trkpt lat="41.9432612" lon="13.3625054"><ele>1469.0</ele><time>2026-04-25T10:48:18.672Z</time></trkpt><trkpt lat="41.9431545" lon="13.3625709"><ele>1474.4</ele><time>2026-04-25T10:48:19.672Z</time></trkpt><trkpt lat="41.9430581" lon="13.362637"><ele>1479.8000000000002</ele><time>2026-04-25T10:48:20.672Z</time></trkpt><trkpt lat="41.9429778" lon="13.3626945"><ele>1485.1999999999998</ele><time>2026-04-25T10:48:21.672Z</time></trkpt><trkpt lat="41.9429048" lon="13.3627087"><ele>1490.6</ele><time>2026-04-25T10:48:22.672Z</time></trkpt><trkpt lat="41.9427934" lon="13.3626986"><ele>1496.0</ele><time>2026-04-25T10:48:23.672Z</time></trkpt><trkpt lat="41.942672" lon="13.3626646"><ele>1496.0</ele><time>2026-04-25T10:48:24.672Z</time></trkpt><trkpt lat="41.9425541" lon="13.3626353"><ele>1496.0</ele><time>2026-04-25T10:48:25.672Z</time></trkpt><trkpt lat="41.9424516" lon="13.3626311"><ele>1496.0</ele><time>2026-04-25T10:48:26.672Z</time></trkpt><trkpt lat="41.9423492" lon="13.3626358"><ele>1496.0</ele><time>2026-04-25T10:48:27.672Z</time></trkpt><trkpt lat="41.942257" lon="13.3626545"><ele>1496.0</ele><time>2026-04-25T10:48:28.672Z</time></trkpt><trkpt lat="41.9421715" lon="13.3626619"><ele>1497.8</ele><time>2026-04-25T10:48:29.672Z</time></trkpt><trkpt lat="41.942089" lon="13.362626"><ele>1499.6</ele><time>2026-04-25T10:48:30.672Z</time></trkpt><trkpt lat="41.9420046" lon="13.3625723"><ele>1501.4</ele><time>2026-04-25T10:48:31.672Z</time></trkpt><trkpt lat="41.941923" lon="13.3624744"><ele>1503.2</ele><time>2026-04-25T10:48:32.672Z</time></trkpt><trkpt lat="41.941845" lon="13.3623808"><ele>1505.0</ele><time>2026-04-25T10:48:33.672Z</time></trkpt><trkpt lat="41.9417662" lon="13.3623099"><ele>1504.8</ele><time>2026-04-25T10:48:34.672Z</time></trkpt><trkpt lat="41.941682" lon="13.3622584"><ele>1504.6</ele><time>2026-04-25T10:48:35.672Z</time></trkpt><trkpt lat="41.9415931" lon="13.3622357"><ele>1504.4</ele><time>2026-04-25T10:48:36.672Z</time></trkpt><trkpt lat="41.9415029" lon="13.3622396"><ele>1504.2</ele><time>2026-04-25T10:48:37.672Z</time></trkpt><trkpt lat="41.9414107" lon="13.3622517"><ele>1504.0</ele><time>2026-04-25T10:48:38.672Z</time></trkpt><trkpt lat="41.941309" lon="13.3622569"><ele>1504.0</ele><time>2026-04-25T10:48:39.672Z</time></trkpt><trkpt lat="41.9412096" lon="13.3622427"><ele>1504.0</ele><time>2026-04-25T10:48:40.672Z</time></trkpt><trkpt lat="41.9411078" lon="13.3622187"><ele>1504.0</ele><time>2026-04-25T10:48:41.672Z</time></trkpt><trkpt lat="41.9410042" lon="13.3621772"><ele>1504.0</ele><time>2026-04-25T10:48:42.672Z</time></trkpt><trkpt lat="41.9409055" lon="13.3621357"><ele>1504.0</ele><time>2026-04-25T10:48:43.672Z</time></trkpt><trkpt lat="41.94081" lon="13.3621047"><ele>1501.6666666666665</ele><time>2026-04-25T10:48:44.672Z</time></trkpt><trkpt lat="41.940719" lon="13.3621025"><ele>1499.3333333333333</ele><time>2026-04-25T10:48:45.672Z</time></trkpt><trkpt lat="41.9406425" lon="13.362119"><ele>1497.0</ele><time>2026-04-25T10:48:46.672Z</time></trkpt><trkpt lat="41.9405805" lon="13.3621414"><ele>1494.6666666666667</ele><time>2026-04-25T10:48:47.672Z</time></trkpt><trkpt lat="41.9404735" lon="13.3621923"><ele>1492.3333333333335</ele><time>2026-04-25T10:48:49.672Z</time></trkpt><trkpt lat="41.940398" lon="13.362232"><ele>1490.0</ele><time>2026-04-25T10:48:51.672Z</time></trkpt><trkpt lat="41.940315" lon="13.362273"><ele>1490.0</ele><time>2026-04-25T10:48:54.672Z</time></trkpt></trkseg></trk></gpx>